<?xml version='1.0' encoding='UTF-8'?><gpx version="1.1" creator="JPX - https://github.com/jenetics/jpx" xmlns="http://www.topografix.com/GPX/1/1"><trk><trkseg><trkpt lat="42.52236355023932" lon="14.152983633420824"><ele>2.0</ele><time>2026-05-02T05:42:45.999Z</time></trkpt><trkpt lat="42.52229478266686" lon="14.15284697196067"><ele>2.0</ele><time>2026-05-02T05:42:47.999Z</time></trkpt><trkpt lat="42.52222864875199" lon="14.152713819938189"><ele>2.0</ele><time>2026-05-02T05:42:49.999Z</time></trkpt><trkpt lat="42.52215960215691" lon="14.152591584374566"><ele>2.0</ele><time>2026-05-02T05:42:51.999Z</time></trkpt><trkpt lat="42.52210320122661" lon="14.15245569910219"><ele>1.6</ele><time>2026-05-02T05:42:53.999Z</time></trkpt><trkpt lat="42.52205001902811" lon="14.152321440617957"><ele>1.2000000000000002</ele><time>2026-05-02T05:42:55.999Z</time></trkpt><trkpt lat="42.52198918109421" lon="14.152208048243304"><ele>0.8</ele><time>2026-05-02T05:42:57.999Z</time></trkpt><trkpt lat="42.52193429125592" lon="14.15208858353067"><ele>0.4</ele><time>2026-05-02T05:42:59.999Z</time></trkpt><trkpt lat="42.521863593908364" lon="14.151992961768812"><ele>0.0</ele><time>2026-05-02T05:43:01.999Z</time></trkpt><trkpt lat="42.52178250111628" lon="14.152033107475447"><ele>0.0</ele><time>2026-05-02T05:43:03.999Z</time></trkpt><trkpt lat="42.52177509374535" lon="14.152171141788635"><ele>0.0</ele><time>2026-05-02T05:43:05.999Z</time></trkpt><trkpt lat="42.52182969207513" lon="14.152303315753732"><ele>0.0</ele><time>2026-05-02T05:43:07.999Z</time></trkpt><trkpt lat="42.52187213348752" lon="14.1524046951184"><ele>0.0</ele><time>2026-05-02T05:43:09.999Z</time></trkpt><trkpt lat="42.5219063638822" lon="14.152482761331248"><ele>0.0</ele><time>2026-05-02T05:46:34Z</time></trkpt><trkpt lat="42.521958109221366" lon="14.152544568480906"><ele>0.0</ele><time>2026-05-02T05:47:24.999Z</time></trkpt><trkpt lat="42.522003343244954" lon="14.152631352216675"><ele>-0.16666666666666666</ele><time>2026-05-02T05:47:52Z</time></trkpt><trkpt lat="42.52204166864548" lon="14.15271120139689"><ele>-0.3333333333333333</ele><time>2026-05-02T05:47:53Z</time></trkpt><trkpt lat="42.52209933619069" lon="14.152850716682897"><ele>-0.5</ele><time>2026-05-02T05:47:55Z</time></trkpt><trkpt lat="42.522146842636054" lon="14.152963472491312"><ele>-0.6666666666666666</ele><time>2026-05-02T05:47:57Z</time></trkpt><trkpt lat="42.52218594109531" lon="14.153049129542879"><ele>-0.8333333333333333</ele><time>2026-05-02T05:47:59Z</time></trkpt><trkpt lat="42.52222744581015" lon="14.153130906451468"><ele>-1.0</ele><time>2026-05-02T05:48:01Z</time></trkpt><trkpt lat="42.52239444036005" lon="14.153118022234564"><ele>-0.4</ele><time>2026-05-02T05:48:04Z</time></trkpt><trkpt lat="42.52241425073543" lon="14.15303219365983"><ele>0.19999999999999996</ele><time>2026-05-02T05:48:05Z</time></trkpt><trkpt lat="42.52251269144371" lon="14.152938075426473"><ele>0.8000000000000002</ele><time>2026-05-02T05:48:07Z</time></trkpt><trkpt lat="42.52260914345503" lon="14.152873655515322"><ele>1.4000000000000001</ele><time>2026-05-02T05:48:09Z</time></trkpt><trkpt lat="42.522676922605186" lon="14.152869785817803"><ele>2.0</ele><time>2026-05-02T05:48:11Z</time></trkpt><trkpt lat="42.522729152503885" lon="14.152991187413091"><ele>2.0</ele><time>2026-05-02T05:48:18Z</time></trkpt><trkpt lat="42.52262802814941" lon="14.15305183693388"><ele>2.0</ele><time>2026-05-02T05:48:19Z</time></trkpt><trkpt lat="42.52256438538546" lon="14.153131463533292"><ele>2.0</ele><time>2026-05-02T05:48:20Z</time></trkpt><trkpt lat="42.52248195967186" lon="14.153175819301707"><ele>2.0</ele><time>2026-05-02T05:48:21Z</time></trkpt><trkpt lat="42.522411927831065" lon="14.153262112620977"><ele>2.0</ele><time>2026-05-02T05:48:22Z</time></trkpt><trkpt lat="42.52233445344841" lon="14.153318179553278"><ele>1.9999999999999998</ele><time>2026-05-02T05:48:23Z</time></trkpt><trkpt lat="42.52225717705624" lon="14.153369845822633"><ele>2.0</ele><time>2026-05-02T05:48:24Z</time></trkpt><trkpt lat="42.5221867609242" lon="14.153441692638737"><ele>2.0</ele><time>2026-05-02T05:48:25Z</time></trkpt><trkpt lat="42.522113672023806" lon="14.153508315371015"><ele>2.0</ele><time>2026-05-02T05:48:26Z</time></trkpt><trkpt lat="42.52204094153275" lon="14.153565273175394"><ele>1.9999999999999998</ele><time>2026-05-02T05:48:27Z</time></trkpt><trkpt lat="42.52198341160057" lon="14.153603731640045"><ele>2.0</ele><time>2026-05-02T05:48:28Z</time></trkpt><trkpt lat="42.52190216562577" lon="14.153665785159577"><ele>1.5</ele><time>2026-05-02T05:48:30Z</time></trkpt><trkpt lat="42.521815537482084" lon="14.153452075455673"><ele>1.0</ele><time>2026-05-02T05:48:32Z</time></trkpt><trkpt lat="42.52177000886603" lon="14.15334753996327"><ele>0.5</ele><time>2026-05-02T05:48:33Z</time></trkpt><trkpt lat="42.52172876316335" lon="14.153216724795879"><ele>0.0</ele><time>2026-05-02T05:48:34Z</time></trkpt><trkpt lat="42.52167938334971" lon="14.153082578016859"><ele>-0.16666666666666666</ele><time>2026-05-02T05:48:35Z</time></trkpt><trkpt lat="42.52163549498164" lon="14.152953007548321"><ele>-0.3333333333333333</ele><time>2026-05-02T05:48:36Z</time></trkpt><trkpt lat="42.5215954541521" lon="14.152841269653823"><ele>-0.5</ele><time>2026-05-02T05:48:37Z</time></trkpt><trkpt lat="42.52155635382294" lon="14.15274100871923"><ele>-0.6666666666666666</ele><time>2026-05-02T05:48:38Z</time></trkpt><trkpt lat="42.52152198389427" lon="14.152650034223242"><ele>-0.8333333333333333</ele><time>2026-05-02T05:48:39Z</time></trkpt><trkpt lat="42.52148983180131" lon="14.152551535709403"><ele>-1.0</ele><time>2026-05-02T05:48:40Z</time></trkpt><trkpt lat="42.52144991405781" lon="14.152427606986702"><ele>-0.75</ele><time>2026-05-02T05:48:41Z</time></trkpt><trkpt lat="42.52140442172986" lon="14.152289245821889"><ele>-0.5</ele><time>2026-05-02T05:48:42Z</time></trkpt><trkpt lat="42.52135365153957" lon="14.15213740439546"><ele>-0.25</ele><time>2026-05-02T05:48:43Z</time></trkpt><trkpt lat="42.52130053571551" lon="14.15198177886017"><ele>0.0</ele><time>2026-05-02T05:48:44Z</time></trkpt><trkpt lat="42.52124431513155" lon="14.151822510268806"><ele>0.5</ele><time>2026-05-02T05:48:45Z</time></trkpt><trkpt lat="42.521187968412036" lon="14.151661395651223"><ele>1.0</ele><time>2026-05-02T05:48:46Z</time></trkpt><trkpt lat="42.52113372441053" lon="14.151495326331121"><ele>1.5</ele><time>2026-05-02T05:48:47Z</time></trkpt><trkpt lat="42.52107557479743" lon="14.15132448878116"><ele>2.0</ele><time>2026-05-02T05:48:48Z</time></trkpt><trkpt lat="42.52101708056811" lon="14.151156022110689"><ele>2.0</ele><time>2026-05-02T05:48:49Z</time></trkpt><trkpt lat="42.52095846795922" lon="14.15098384013373"><ele>2.0</ele><time>2026-05-02T05:48:50Z</time></trkpt><trkpt lat="42.52091012933896" lon="14.150807851741682"><ele>2.0</ele><time>2026-05-02T05:48:51Z</time></trkpt><trkpt lat="42.52091826682712" lon="14.1506435657879"><ele>2.0</ele><time>2026-05-02T05:48:52Z</time></trkpt><trkpt lat="42.52086886349453" lon="14.15049929414862"><ele>2.0</ele><time>2026-05-02T05:48:53Z</time></trkpt><trkpt lat="42.52073935928673" lon="14.150329045331775"><ele>2.0</ele><time>2026-05-02T05:48:54Z</time></trkpt><trkpt lat="42.52068406536925" lon="14.15016862808482"><ele>2.0</ele><time>2026-05-02T05:48:55Z</time></trkpt><trkpt lat="42.52062584292693" lon="14.15000391051809"><ele>2.0</ele><time>2026-05-02T05:48:56Z</time></trkpt><trkpt lat="42.52056733951691" lon="14.14984840683698"><ele>2.0</ele><time>2026-05-02T05:48:57Z</time></trkpt><trkpt lat="42.52051391739109" lon="14.149690010207681"><ele>2.0</ele><time>2026-05-02T05:48:58Z</time></trkpt><trkpt lat="42.52046077184026" lon="14.149529249654044"><ele>2.0</ele><time>2026-05-02T05:48:59Z</time></trkpt><trkpt lat="42.520405504278166" lon="14.149372173411413"><ele>2.0</ele><time>2026-05-02T05:49:00Z</time></trkpt><trkpt lat="42.52035199042679" lon="14.149214811471346"><ele>2.0</ele><time>2026-05-02T05:49:01Z</time></trkpt><trkpt lat="42.520298721788215" lon="14.1490538443982"><ele>2.0</ele><time>2026-05-02T05:49:02Z</time></trkpt><trkpt lat="42.5202432047724" lon="14.14889756635329"><ele>2.0</ele><time>2026-05-02T05:49:03Z</time></trkpt><trkpt lat="42.52018754677254" lon="14.148740289350231"><ele>2.0</ele><time>2026-05-02T05:49:04Z</time></trkpt><trkpt lat="42.52013564673107" lon="14.148587670536935"><ele>2.0</ele><time>2026-05-02T05:49:05Z</time></trkpt><trkpt lat="42.52009064839072" lon="14.148451802246532"><ele>2.0</ele><time>2026-05-02T05:49:06Z</time></trkpt><trkpt lat="42.52004187829053" lon="14.148319759376928"><ele>2.0</ele><time>2026-05-02T05:49:07Z</time></trkpt><trkpt lat="42.51999108333226" lon="14.148190966427922"><ele>2.0</ele><time>2026-05-02T05:49:08Z</time></trkpt><trkpt lat="42.519925086403596" lon="14.14805796762676"><ele>2.0</ele><time>2026-05-02T05:49:09Z</time></trkpt><trkpt lat="42.5198518750463" lon="14.14791133918707"><ele>2.2</ele><time>2026-05-02T05:49:10Z</time></trkpt><trkpt lat="42.51977497723817" lon="14.147788703840805"><ele>2.4000000000000004</ele><time>2026-05-02T05:49:11Z</time></trkpt><trkpt lat="42.519704584817596" lon="14.147673865747171"><ele>2.5999999999999996</ele><time>2026-05-02T05:49:11.999Z</time></trkpt><trkpt lat="42.51964078671173" lon="14.147569190958356"><ele>2.8</ele><time>2026-05-02T05:49:12.999Z</time></trkpt><trkpt lat="42.51958128656625" lon="14.14747616609648"><ele>3.0</ele><time>2026-05-02T05:49:13.999Z</time></trkpt><trkpt lat="42.51952989772108" lon="14.14738835631743"><ele>3.0</ele><time>2026-05-02T05:49:14.999Z</time></trkpt><trkpt lat="42.519494818570855" lon="14.147293813871304"><ele>3.0</ele><time>2026-05-02T05:49:15.999Z</time></trkpt><trkpt lat="42.519469779452606" lon="14.147158293766303"><ele>3.0</ele><time>2026-05-02T05:49:16.999Z</time></trkpt><trkpt lat="42.51945592691436" lon="14.147023209114147"><ele>3.0</ele><time>2026-05-02T05:49:17.999Z</time></trkpt><trkpt lat="42.519453605099095" lon="14.146896406393822"><ele>3.0</ele><time>2026-05-02T05:49:18.999Z</time></trkpt><trkpt lat="42.51943522549011" lon="14.14675130255358"><ele>3.0</ele><time>2026-05-02T05:49:19.999Z</time></trkpt><trkpt lat="42.51945721326133" lon="14.146615506693145"><ele>3.0</ele><time>2026-05-02T05:49:20.999Z</time></trkpt><trkpt lat="42.51948009678268" lon="14.146509252519325"><ele>3.0</ele><time>2026-05-02T05:49:21.999Z</time></trkpt><trkpt lat="42.51953135875925" lon="14.146353707887144"><ele>3.0</ele><time>2026-05-02T05:49:23.999Z</time></trkpt><trkpt lat="42.51956562005114" lon="14.146279439114279"><ele>3.0</ele><time>2026-05-02T05:49:24.999Z</time></trkpt><trkpt lat="42.519598428762905" lon="14.146201254251856"><ele>3.0</ele><time>2026-05-02T05:49:25.999Z</time></trkpt><trkpt lat="42.519658910954384" lon="14.146090649346508"><ele>3.0</ele><time>2026-05-02T05:49:27.999Z</time></trkpt><trkpt lat="42.51967117856802" lon="14.145972950588378"><ele>3.0</ele><time>2026-05-02T05:49:29.999Z</time></trkpt><trkpt lat="42.51957924673805" lon="14.1458731542688"><ele>3.0</ele><time>2026-05-02T05:49:31.999Z</time></trkpt><trkpt lat="42.51951150640103" lon="14.145839967354528"><ele>3.0</ele><time>2026-05-02T05:49:32.999Z</time></trkpt><trkpt lat="42.51944675709001" lon="14.145797869326856"><ele>3.0</ele><time>2026-05-02T05:49:33.999Z</time></trkpt><trkpt lat="42.51938043174327" lon="14.145749033951805"><ele>3.0</ele><time>2026-05-02T05:49:34.999Z</time></trkpt><trkpt lat="42.51930916594859" lon="14.1456995020602"><ele>3.0</ele><time>2026-05-02T05:49:35.999Z</time></trkpt><trkpt lat="42.51923147744378" lon="14.145651736959932"><ele>3.0</ele><time>2026-05-02T05:49:36.999Z</time></trkpt><trkpt lat="42.5191520470191" lon="14.145572831560399"><ele>3.0</ele><time>2026-05-02T05:49:37.999Z</time></trkpt><trkpt lat="42.51906285639911" lon="14.145514937990425"><ele>3.0</ele><time>2026-05-02T05:49:38.999Z</time></trkpt><trkpt lat="42.51896618878443" lon="14.14544644300895"><ele>3.0</ele><time>2026-05-02T05:49:39.999Z</time></trkpt><trkpt lat="42.518860938873765" lon="14.145403383607738"><ele>3.0</ele><time>2026-05-02T05:49:40.999Z</time></trkpt><trkpt lat="42.51875976200736" lon="14.145330163598839"><ele>3.0</ele><time>2026-05-02T05:49:41.999Z</time></trkpt><trkpt lat="42.51865831135372" lon="14.145259041944621"><ele>3.0</ele><time>2026-05-02T05:49:42.999Z</time></trkpt><trkpt lat="42.518562653381146" lon="14.145190647959554"><ele>3.0</ele><time>2026-05-02T05:49:43.999Z</time></trkpt><trkpt lat="42.518458701719894" lon="14.145082188083242"><ele>3.0</ele><time>2026-05-02T05:49:44.999Z</time></trkpt><trkpt lat="42.51832219380931" lon="14.1449846280813"><ele>3.0</ele><time>2026-05-02T05:49:45.999Z</time></trkpt><trkpt lat="42.51818101327842" lon="14.144883650432188"><ele>3.0</ele><time>2026-05-02T05:49:46.999Z</time></trkpt><trkpt lat="42.51804150318441" lon="14.1447824741902"><ele>3.0</ele><time>2026-05-02T05:49:47.999Z</time></trkpt><trkpt lat="42.51789681934095" lon="14.144677545509051"><ele>3.0</ele><time>2026-05-02T05:49:48.999Z</time></trkpt><trkpt lat="42.517744369845595" lon="14.144590846624382"><ele>3.0</ele><time>2026-05-02T05:49:49.999Z</time></trkpt><trkpt lat="42.5176042858043" lon="14.144483902772373"><ele>3.0</ele><time>2026-05-02T05:49:50.999Z</time></trkpt><trkpt lat="42.51748119381648" lon="14.144354909042397"><ele>3.0</ele><time>2026-05-02T05:49:51.999Z</time></trkpt><trkpt lat="42.517371909930574" lon="14.144208948247421"><ele>3.0</ele><time>2026-05-02T05:49:52.999Z</time></trkpt><trkpt lat="42.517172633570695" lon="14.14416894637726"><ele>3.333333333333333</ele><time>2026-05-02T05:49:53.999Z</time></trkpt><trkpt lat="42.51702634409013" lon="14.144067160705207"><ele>3.6666666666666665</ele><time>2026-05-02T05:49:55Z</time></trkpt><trkpt lat="42.51688190033664" lon="14.14396280731327"><ele>4.0</ele><time>2026-05-02T05:49:56Z</time></trkpt><trkpt lat="42.516733973211885" lon="14.143853775752548"><ele>4.666666666666666</ele><time>2026-05-02T05:49:57Z</time></trkpt><trkpt lat="42.5165856307022" lon="14.143741432684859"><ele>5.333333333333333</ele><time>2026-05-02T05:49:58Z</time></trkpt><trkpt lat="42.51643377819821" lon="14.143635147795987"><ele>6.0</ele><time>2026-05-02T05:49:59Z</time></trkpt><trkpt lat="42.51628514162689" lon="14.14352467695315"><ele>5.333333333333333</ele><time>2026-05-02T05:50:00Z</time></trkpt><trkpt lat="42.516136562488995" lon="14.14341899428093"><ele>4.666666666666666</ele><time>2026-05-02T05:50:01Z</time></trkpt><trkpt lat="42.51598988669096" lon="14.14332262195424"><ele>4.0</ele><time>2026-05-02T05:50:02Z</time></trkpt><trkpt lat="42.515847382367475" lon="14.143225950265936"><ele>3.6666666666666665</ele><time>2026-05-02T05:50:03Z</time></trkpt><trkpt lat="42.51571462057483" lon="14.143131455431813"><ele>3.333333333333333</ele><time>2026-05-02T05:50:04Z</time></trkpt><trkpt lat="42.51559001590821" lon="14.143008515082563"><ele>3.0</ele><time>2026-05-02T05:50:05Z</time></trkpt><trkpt lat="42.5154550864668" lon="14.142910053404787"><ele>2.75</ele><time>2026-05-02T05:50:06Z</time></trkpt><trkpt lat="42.515321699472416" lon="14.142812337152465"><ele>2.5</ele><time>2026-05-02T05:50:07Z</time></trkpt><trkpt lat="42.51518837045757" lon="14.142714089838849"><ele>2.25</ele><time>2026-05-02T05:50:08Z</time></trkpt><trkpt lat="42.515064759850496" lon="14.14262300362392"><ele>2.0</ele><time>2026-05-02T05:50:09Z</time></trkpt><trkpt lat="42.51495348727531" lon="14.14254280740987"><ele>2.0</ele><time>2026-05-02T05:50:10Z</time></trkpt><trkpt lat="42.514852228000855" lon="14.142466923099605"><ele>2.0</ele><time>2026-05-02T05:50:11Z</time></trkpt><trkpt lat="42.51473806552935" lon="14.142419456734883"><ele>2.0</ele><time>2026-05-02T05:50:12Z</time></trkpt><trkpt lat="42.51464038767455" lon="14.142351772719232"><ele>2.0</ele><time>2026-05-02T05:50:13Z</time></trkpt><trkpt lat="42.51454733515966" lon="14.142286958229027"><ele>2.0</ele><time>2026-05-02T05:50:14Z</time></trkpt><trkpt lat="42.51444526178563" lon="14.142206862388374"><ele>2.25</ele><time>2026-05-02T05:50:15Z</time></trkpt><trkpt lat="42.514332641036766" lon="14.14211845718726"><ele>2.5</ele><time>2026-05-02T05:50:16Z</time></trkpt><trkpt lat="42.51421818856497" lon="14.14202419214559"><ele>2.75</ele><time>2026-05-02T05:50:17Z</time></trkpt><trkpt lat="42.514096549718865" lon="14.141929953317488"><ele>3.0</ele><time>2026-05-02T05:50:18Z</time></trkpt><trkpt lat="42.51396559806142" lon="14.1418400190351"><ele>3.0</ele><time>2026-05-02T05:50:19Z</time></trkpt><trkpt lat="42.5138469153201" lon="14.141753525070259"><ele>3.0</ele><time>2026-05-02T05:50:20Z</time></trkpt><trkpt lat="42.5137213445606" lon="14.141664859110547"><ele>3.0</ele><time>2026-05-02T05:50:21Z</time></trkpt><trkpt lat="42.51359789330582" lon="14.141578025551176"><ele>3.0</ele><time>2026-05-02T05:50:22Z</time></trkpt><trkpt lat="42.5134725912854" lon="14.141492080759665"><ele>3.75</ele><time>2026-05-02T05:50:23Z</time></trkpt><trkpt lat="42.51335637985918" lon="14.141408859763299"><ele>4.5</ele><time>2026-05-02T05:50:24Z</time></trkpt><trkpt lat="42.513249144106176" lon="14.141330710059757"><ele>5.25</ele><time>2026-05-02T05:50:25Z</time></trkpt><trkpt lat="42.513139120812944" lon="14.141288099485449"><ele>6.0</ele><time>2026-05-02T05:50:26Z</time></trkpt><trkpt lat="42.51303495016623" lon="14.141245039747306"><ele>6.0</ele><time>2026-05-02T05:50:27Z</time></trkpt><trkpt lat="42.51296885994668" lon="14.14103951677368"><ele>6.0</ele><time>2026-05-02T05:50:28Z</time></trkpt><trkpt lat="42.51289953689433" lon="14.14090218809168"><ele>6.0</ele><time>2026-05-02T05:50:29Z</time></trkpt><trkpt lat="42.512847501525705" lon="14.14074826264776"><ele>6.0</ele><time>2026-05-02T05:50:30Z</time></trkpt><trkpt lat="42.51276265159995" lon="14.14064689593914"><ele>6.0</ele><time>2026-05-02T05:50:31Z</time></trkpt><trkpt lat="42.51296005018164" lon="14.140415877828742"><ele>6.0</ele><time>2026-05-02T05:50:32Z</time></trkpt><trkpt lat="42.51283366155654" lon="14.140219436021912"><ele>6.0</ele><time>2026-05-02T05:50:33Z</time></trkpt><trkpt lat="42.51288307236878" lon="14.140037035221773"><ele>6.0</ele><time>2026-05-02T05:50:34Z</time></trkpt><trkpt lat="42.51295795662961" lon="14.139854595254093"><ele>6.0</ele><time>2026-05-02T05:50:35Z</time></trkpt><trkpt lat="42.51303083917341" lon="14.139673120029054"><ele>6.0</ele><time>2026-05-02T05:50:36Z</time></trkpt><trkpt lat="42.51310514115582" lon="14.139491417402324"><ele>6.25</ele><time>2026-05-02T05:50:37Z</time></trkpt><trkpt lat="42.51317716163048" lon="14.13931599161386"><ele>6.5</ele><time>2026-05-02T05:50:38Z</time></trkpt><trkpt lat="42.51324471974676" lon="14.139146621405594"><ele>6.75</ele><time>2026-05-02T05:50:39Z</time></trkpt><trkpt lat="42.513310517872185" lon="14.138980917747839"><ele>7.0</ele><time>2026-05-02T05:50:40Z</time></trkpt><trkpt lat="42.513377767853086" lon="14.13881164457867"><ele>6.75</ele><time>2026-05-02T05:50:41Z</time></trkpt><trkpt lat="42.51344387836129" lon="14.138641542796215"><ele>6.5</ele><time>2026-05-02T05:50:42Z</time></trkpt><trkpt lat="42.51351005317092" lon="14.138466558482563"><ele>6.25</ele><time>2026-05-02T05:50:43Z</time></trkpt><trkpt lat="42.51357795674332" lon="14.138289371148637"><ele>6.0</ele><time>2026-05-02T05:50:44Z</time></trkpt><trkpt lat="42.51364685898414" lon="14.13813376528868"><ele>6.0</ele><time>2026-05-02T05:50:45Z</time></trkpt><trkpt lat="42.5137073768135" lon="14.137981671651099"><ele>6.0</ele><time>2026-05-02T05:50:46Z</time></trkpt><trkpt lat="42.51376398303395" lon="14.137842594281315"><ele>6.0</ele><time>2026-05-02T05:50:47Z</time></trkpt><trkpt lat="42.51380953293937" lon="14.137749414070756"><ele>6.0</ele><time>2026-05-02T05:50:48Z</time></trkpt><trkpt lat="42.51384975745673" lon="14.137682206926847"><ele>6.0</ele><time>2026-05-02T05:50:49Z</time></trkpt><trkpt lat="42.513888646816376" lon="14.137615007732167"><ele>6.0</ele><time>2026-05-02T05:50:50Z</time></trkpt><trkpt lat="42.5139431930572" lon="14.13746620650557"><ele>6.0</ele><time>2026-05-02T05:50:52Z</time></trkpt><trkpt lat="42.51389439874241" lon="14.137359347120753"><ele>6.0</ele><time>2026-05-02T05:50:53Z</time></trkpt><trkpt lat="42.51379306027755" lon="14.1373198466243"><ele>6.0</ele><time>2026-05-02T05:50:54Z</time></trkpt><trkpt lat="42.513704425709975" lon="14.13727924250276"><ele>6.0</ele><time>2026-05-02T05:50:55Z</time></trkpt><trkpt lat="42.51365233060913" lon="14.137163019523179"><ele>5.5</ele><time>2026-05-02T05:50:56Z</time></trkpt><trkpt lat="42.51359286081703" lon="14.137015304911179"><ele>5.0</ele><time>2026-05-02T05:50:57Z</time></trkpt><trkpt lat="42.513531039040465" lon="14.136826044284414"><ele>4.5</ele><time>2026-05-02T05:50:58Z</time></trkpt><trkpt lat="42.51347386112349" lon="14.136617917407728"><ele>4.0</ele><time>2026-05-02T05:50:59Z</time></trkpt><trkpt lat="42.5134118125462" lon="14.136412797727074"><ele>3.75</ele><time>2026-05-02T05:51:00Z</time></trkpt><trkpt lat="42.513386291036404" lon="14.136195680225669"><ele>3.5</ele><time>2026-05-02T05:51:01Z</time></trkpt><trkpt lat="42.51333843918942" lon="14.13600279149311"><ele>3.25</ele><time>2026-05-02T05:51:02Z</time></trkpt><trkpt lat="42.51327275382926" lon="14.135841158382009"><ele>3.0</ele><time>2026-05-02T05:51:03Z</time></trkpt><trkpt lat="42.51321131661761" lon="14.135690423983107"><ele>2.75</ele><time>2026-05-02T05:51:04Z</time></trkpt><trkpt lat="42.513143297646934" lon="14.135557419830741"><ele>2.5</ele><time>2026-05-02T05:51:05Z</time></trkpt><trkpt lat="42.513073448083034" lon="14.135435183461917"><ele>2.25</ele><time>2026-05-02T05:51:06Z</time></trkpt><trkpt lat="42.513002102205945" lon="14.135317575354511"><ele>2.0</ele><time>2026-05-02T05:51:07Z</time></trkpt><trkpt lat="42.512920048428384" lon="14.135212211173217"><ele>2.2</ele><time>2026-05-02T05:51:08Z</time></trkpt><trkpt lat="42.51282740588749" lon="14.135126105919738"><ele>2.4000000000000004</ele><time>2026-05-02T05:51:09Z</time></trkpt><trkpt lat="42.51273902611382" lon="14.135050650889312"><ele>2.5999999999999996</ele><time>2026-05-02T05:51:09.999Z</time></trkpt><trkpt lat="42.51265487374416" lon="14.134984414032507"><ele>2.8</ele><time>2026-05-02T05:51:10.999Z</time></trkpt><trkpt lat="42.51256855886623" lon="14.134921463032907"><ele>3.0</ele><time>2026-05-02T05:51:11.999Z</time></trkpt><trkpt lat="42.51247171213115" lon="14.134856364170306"><ele>2.5</ele><time>2026-05-02T05:51:12.999Z</time></trkpt><trkpt lat="42.512377014905105" lon="14.134791108074001"><ele>2.0</ele><time>2026-05-02T05:51:13.999Z</time></trkpt><trkpt lat="42.51227155471654" lon="14.134724272847832"><ele>1.5</ele><time>2026-05-02T05:51:14.999Z</time></trkpt><trkpt lat="42.51216006186543" lon="14.134651357800491"><ele>1.0</ele><time>2026-05-02T05:51:15.999Z</time></trkpt><trkpt lat="42.512038178635585" lon="14.134568444915255"><ele>2.0</ele><time>2026-05-02T05:51:16.999Z</time></trkpt><trkpt lat="42.51191166533527" lon="14.134467748102024"><ele>3.0</ele><time>2026-05-02T05:51:17.999Z</time></trkpt><trkpt lat="42.51178356821331" lon="14.134359785185566"><ele>4.0</ele><time>2026-05-02T05:51:18.999Z</time></trkpt><trkpt lat="42.51168163696451" lon="14.13420690669731"><ele>5.0</ele><time>2026-05-02T05:51:19.999Z</time></trkpt><trkpt lat="42.511591531634544" lon="14.134037067498308"><ele>5.0</ele><time>2026-05-02T05:51:20.999Z</time></trkpt><trkpt lat="42.5114973235574" lon="14.133867320090596"><ele>5.0</ele><time>2026-05-02T05:51:21.999Z</time></trkpt><trkpt lat="42.51142757517805" lon="14.133645286401572"><ele>5.0</ele><time>2026-05-02T05:51:22.999Z</time></trkpt><trkpt lat="42.51134008470906" lon="14.133420396400304"><ele>5.333333333333334</ele><time>2026-05-02T05:51:23.999Z</time></trkpt><trkpt lat="42.51121045607801" lon="14.133320639787895"><ele>5.666666666666667</ele><time>2026-05-02T05:51:24.999Z</time></trkpt><trkpt lat="42.511111665222124" lon="14.133162260832256"><ele>6.0</ele><time>2026-05-02T05:51:25.999Z</time></trkpt><trkpt lat="42.511007838548004" lon="14.132993124015828"><ele>6.0</ele><time>2026-05-02T05:51:26.999Z</time></trkpt><trkpt lat="42.51090417315738" lon="14.132813025732448"><ele>6.0</ele><time>2026-05-02T05:51:27.999Z</time></trkpt><trkpt lat="42.510802545564204" lon="14.132629992803684"><ele>6.0</ele><time>2026-05-02T05:51:28.999Z</time></trkpt><trkpt lat="42.51071937879693" lon="14.132433856077524"><ele>5.333333333333333</ele><time>2026-05-02T05:51:29.999Z</time></trkpt><trkpt lat="42.510625080444676" lon="14.132249867150763"><ele>4.666666666666666</ele><time>2026-05-02T05:51:30.999Z</time></trkpt><trkpt lat="42.51052715961941" lon="14.132058810222828"><ele>4.0</ele><time>2026-05-02T05:51:31.999Z</time></trkpt><trkpt lat="42.51042874566303" lon="14.13186814480306"><ele>4.333333333333333</ele><time>2026-05-02T05:51:32.999Z</time></trkpt><trkpt lat="42.51032771421225" lon="14.131675677995482"><ele>4.666666666666667</ele><time>2026-05-02T05:51:33.999Z</time></trkpt><trkpt lat="42.51022170252285" lon="14.131485020979573"><ele>5.0</ele><time>2026-05-02T05:51:34.999Z</time></trkpt><trkpt lat="42.510109164214256" lon="14.131304328902413"><ele>5.0</ele><time>2026-05-02T05:51:35.999Z</time></trkpt><trkpt lat="42.50999047240389" lon="14.131139803263473"><ele>5.0</ele><time>2026-05-02T05:51:36.999Z</time></trkpt><trkpt lat="42.50987543626996" lon="14.130966734620925"><ele>5.0</ele><time>2026-05-02T05:51:37.999Z</time></trkpt><trkpt lat="42.509764182217744" lon="14.130801588670721"><ele>5.5</ele><time>2026-05-02T05:51:38.999Z</time></trkpt><trkpt lat="42.509658035706636" lon="14.130639815947658"><ele>6.0</ele><time>2026-05-02T05:51:39.999Z</time></trkpt><trkpt lat="42.50955638339897" lon="14.13049462574302"><ele>6.5</ele><time>2026-05-02T05:51:40.999Z</time></trkpt><trkpt lat="42.50946142826103" lon="14.130355570730153"><ele>7.0</ele><time>2026-05-02T05:51:41.999Z</time></trkpt><trkpt lat="42.50937486122663" lon="14.130221702740172"><ele>7.0</ele><time>2026-05-02T05:51:42.999Z</time></trkpt><trkpt lat="42.50929355166077" lon="14.13009956761726"><ele>6.999999999999999</ele><time>2026-05-02T05:51:43.999Z</time></trkpt><trkpt lat="42.50922018651074" lon="14.129990529382287"><ele>6.999999999999999</ele><time>2026-05-02T05:51:44.999Z</time></trkpt><trkpt lat="42.509149213004044" lon="14.12988957424774"><ele>7.0</ele><time>2026-05-02T05:51:45.999Z</time></trkpt><trkpt lat="42.50908786873161" lon="14.12978995326207"><ele>7.0</ele><time>2026-05-02T05:51:46.999Z</time></trkpt><trkpt lat="42.50903896163428" lon="14.129677665282285"><ele>6.8</ele><time>2026-05-02T05:51:47.999Z</time></trkpt><trkpt lat="42.50901586134822" lon="14.129551153362945"><ele>6.6</ele><time>2026-05-02T05:51:48.999Z</time></trkpt><trkpt lat="42.50899666352447" lon="14.129429509618825"><ele>6.3999999999999995</ele><time>2026-05-02T05:51:49.999Z</time></trkpt><trkpt lat="42.50894840888917" lon="14.129337539189859"><ele>6.199999999999999</ele><time>2026-05-02T05:51:50.999Z</time></trkpt><trkpt lat="42.50885795057692" lon="14.129275845796435"><ele>6.0</ele><time>2026-05-02T05:51:51.999Z</time></trkpt><trkpt lat="42.50874169898156" lon="14.12930067465882"><ele>6.0</ele><time>2026-05-02T05:51:52.999Z</time></trkpt><trkpt lat="42.50866436374309" lon="14.129074698607175"><ele>6.0</ele><time>2026-05-02T05:51:53.999Z</time></trkpt><trkpt lat="42.50857630534583" lon="14.128917187341502"><ele>6.0</ele><time>2026-05-02T05:51:54.999Z</time></trkpt><trkpt lat="42.50848072642064" lon="14.128746224095062"><ele>6.0</ele><time>2026-05-02T05:51:55.999Z</time></trkpt><trkpt lat="42.50837298742821" lon="14.128581432108113"><ele>6.0</ele><time>2026-05-02T05:51:56.999Z</time></trkpt><trkpt lat="42.508273057719414" lon="14.128399624808461"><ele>6.0</ele><time>2026-05-02T05:51:57.999Z</time></trkpt><trkpt lat="42.5081758860648" lon="14.128218391112217"><ele>5.666666666666667</ele><time>2026-05-02T05:51:58.999Z</time></trkpt><trkpt lat="42.50807838550132" lon="14.128041763945555"><ele>5.333333333333334</ele><time>2026-05-02T05:51:59.999Z</time></trkpt><trkpt lat="42.50797709017587" lon="14.127857460418742"><ele>5.0</ele><time>2026-05-02T05:52:01Z</time></trkpt><trkpt lat="42.50787761094846" lon="14.12768103526809"><ele>5.666666666666667</ele><time>2026-05-02T05:52:02Z</time></trkpt><trkpt lat="42.50777694142631" lon="14.127499206795951"><ele>6.333333333333334</ele><time>2026-05-02T05:52:03Z</time></trkpt><trkpt lat="42.50767577739315" lon="14.12732272982355"><ele>7.0</ele><time>2026-05-02T05:52:04Z</time></trkpt><trkpt lat="42.507574693126294" lon="14.12714270693308"><ele>7.333333333333334</ele><time>2026-05-02T05:52:05Z</time></trkpt><trkpt lat="42.50747402655442" lon="14.126961954655942"><ele>7.666666666666666</ele><time>2026-05-02T05:52:06Z</time></trkpt><trkpt lat="42.50737083380903" lon="14.126779133474082"><ele>8.0</ele><time>2026-05-02T05:52:07Z</time></trkpt><trkpt lat="42.50726973025928" lon="14.126597089938794"><ele>7.666666666666666</ele><time>2026-05-02T05:52:08Z</time></trkpt><trkpt lat="42.507167200409484" lon="14.126417090849445"><ele>7.333333333333334</ele><time>2026-05-02T05:52:09Z</time></trkpt><trkpt lat="42.50706439246383" lon="14.126238470504799"><ele>7.0</ele><time>2026-05-02T05:52:10Z</time></trkpt><trkpt lat="42.506957512759804" lon="14.126053589075823"><ele>7.0</ele><time>2026-05-02T05:52:11Z</time></trkpt><trkpt lat="42.50684478681643" lon="14.12587404459282"><ele>7.0</ele><time>2026-05-02T05:52:12Z</time></trkpt><trkpt lat="42.50672571410239" lon="14.125697620546953"><ele>7.0</ele><time>2026-05-02T05:52:13Z</time></trkpt><trkpt lat="42.50661100059895" lon="14.12552019104298"><ele>7.333333333333334</ele><time>2026-05-02T05:52:14Z</time></trkpt><trkpt lat="42.50649274711835" lon="14.125348866702753"><ele>7.666666666666666</ele><time>2026-05-02T05:52:15Z</time></trkpt><trkpt lat="42.50637576563325" lon="14.12518382695279"><ele>8.0</ele><time>2026-05-02T05:52:16Z</time></trkpt><trkpt lat="42.50625301901881" lon="14.125019132245669"><ele>8.333333333333332</ele><time>2026-05-02T05:52:17Z</time></trkpt><trkpt lat="42.50612804253228" lon="14.124858526615004"><ele>8.666666666666666</ele><time>2026-05-02T05:52:18Z</time></trkpt><trkpt lat="42.50600058083654" lon="14.124709938243702"><ele>9.0</ele><time>2026-05-02T05:52:19Z</time></trkpt><trkpt lat="42.50587607785012" lon="14.124565654983748"><ele>9.0</ele><time>2026-05-02T05:52:20Z</time></trkpt><trkpt lat="42.505744622286585" lon="14.124422627908984"><ele>9.0</ele><time>2026-05-02T05:52:21Z</time></trkpt><trkpt lat="42.505607901662074" lon="14.124277371928542"><ele>9.0</ele><time>2026-05-02T05:52:22Z</time></trkpt><trkpt lat="42.50546993711439" lon="14.124136528078893"><ele>8.333333333333334</ele><time>2026-05-02T05:52:23Z</time></trkpt><trkpt lat="42.50533268383186" lon="14.124000902013305"><ele>7.666666666666667</ele><time>2026-05-02T05:52:24Z</time></trkpt><trkpt lat="42.505193129997245" lon="14.12386856661178"><ele>7.0</ele><time>2026-05-02T05:52:25Z</time></trkpt><trkpt lat="42.505057732417605" lon="14.1237360036281"><ele>7.0</ele><time>2026-05-02T05:52:26Z</time></trkpt><trkpt lat="42.504922075399826" lon="14.123605189457193"><ele>7.0</ele><time>2026-05-02T05:52:27Z</time></trkpt><trkpt lat="42.5047816348504" lon="14.123479084266162"><ele>7.0</ele><time>2026-05-02T05:52:28Z</time></trkpt><trkpt lat="42.50464644797852" lon="14.123350984820787"><ele>8.0</ele><time>2026-05-02T05:52:29Z</time></trkpt><trkpt lat="42.504507019542736" lon="14.1232212708352"><ele>9.0</ele><time>2026-05-02T05:52:30Z</time></trkpt><trkpt lat="42.504370263135065" lon="14.123093697412191"><ele>10.0</ele><time>2026-05-02T05:52:31Z</time></trkpt><trkpt lat="42.50423077259297" lon="14.122958528383238"><ele>10.0</ele><time>2026-05-02T05:52:32Z</time></trkpt><trkpt lat="42.504097493476834" lon="14.12285261179442"><ele>10.0</ele><time>2026-05-02T05:52:33Z</time></trkpt><trkpt lat="42.503963179704634" lon="14.122731132906463"><ele>10.0</ele><time>2026-05-02T05:52:34Z</time></trkpt><trkpt lat="42.50383051105437" lon="14.122612715194766"><ele>10.0</ele><time>2026-05-02T05:52:35Z</time></trkpt><trkpt lat="42.503699579526504" lon="14.122498332413668"><ele>10.0</ele><time>2026-05-02T05:52:36Z</time></trkpt><trkpt lat="42.503576123106455" lon="14.122383664206223"><ele>10.0</ele><time>2026-05-02T05:52:37Z</time></trkpt><trkpt lat="42.50345100069402" lon="14.122269511131641"><ele>9.75</ele><time>2026-05-02T05:52:38Z</time></trkpt><trkpt lat="42.503336450581315" lon="14.122161665382205"><ele>9.5</ele><time>2026-05-02T05:52:39Z</time></trkpt><trkpt lat="42.50323318683476" lon="14.122071359551294"><ele>9.25</ele><time>2026-05-02T05:52:40Z</time></trkpt><trkpt lat="42.503141268917595" lon="14.121980052539753"><ele>9.0</ele><time>2026-05-02T05:52:41Z</time></trkpt><trkpt lat="42.50305425483091" lon="14.121903957672911"><ele>9.0</ele><time>2026-05-02T05:52:42Z</time></trkpt><trkpt lat="42.50297519255333" lon="14.121832024351189"><ele>9.0</ele><time>2026-05-02T05:52:43Z</time></trkpt><trkpt lat="42.50290698340057" lon="14.121762117078328"><ele>9.0</ele><time>2026-05-02T05:52:44Z</time></trkpt><trkpt lat="42.50284818323316" lon="14.121682032920665"><ele>9.0</ele><time>2026-05-02T05:52:45Z</time></trkpt><trkpt lat="42.50280266776741" lon="14.121580684129231"><ele>9.0</ele><time>2026-05-02T05:52:46Z</time></trkpt><trkpt lat="42.50277064829756" lon="14.121461867584195"><ele>9.0</ele><time>2026-05-02T05:52:47Z</time></trkpt><trkpt lat="42.502734706435454" lon="14.121366802589112"><ele>8.8</ele><time>2026-05-02T05:52:48Z</time></trkpt><trkpt lat="42.502678538513976" lon="14.121300853329155"><ele>8.600000000000001</ele><time>2026-05-02T05:52:49Z</time></trkpt><trkpt lat="42.50259461673318" lon="14.121262623380721"><ele>8.4</ele><time>2026-05-02T05:52:50Z</time></trkpt><trkpt lat="42.50249254189099" lon="14.121273206136545"><ele>8.200000000000001</ele><time>2026-05-02T05:52:51Z</time></trkpt><trkpt lat="42.502407392114236" lon="14.121374938723699"><ele>8.0</ele><time>2026-05-02T05:52:52Z</time></trkpt><trkpt lat="42.502290936783496" lon="14.121292848717246"><ele>8.0</ele><time>2026-05-02T05:52:53Z</time></trkpt><trkpt lat="42.50218433850938" lon="14.1212382540105"><ele>8.0</ele><time>2026-05-02T05:52:54Z</time></trkpt><trkpt lat="42.502078742531786" lon="14.121167020744032"><ele>8.0</ele><time>2026-05-02T05:52:55Z</time></trkpt><trkpt lat="42.50196216101369" lon="14.121079298495443"><ele>8.0</ele><time>2026-05-02T05:52:56Z</time></trkpt><trkpt lat="42.50182810172652" lon="14.121002224096674"><ele>8.666666666666666</ele><time>2026-05-02T05:52:57Z</time></trkpt><trkpt lat="42.50167767825659" lon="14.120918259251578"><ele>9.333333333333334</ele><time>2026-05-02T05:52:58Z</time></trkpt><trkpt lat="42.50152680250748" lon="14.120846185894816"><ele>10.0</ele><time>2026-05-02T05:52:59Z</time></trkpt><trkpt lat="42.501372043694296" lon="14.12081548255193"><ele>10.0</ele><time>2026-05-02T05:53:00Z</time></trkpt><trkpt lat="42.50122755615677" lon="14.120780455427667"><ele>10.0</ele><time>2026-05-02T05:53:01Z</time></trkpt><trkpt lat="42.501090897814294" lon="14.120736901091725"><ele>10.0</ele><time>2026-05-02T05:53:02Z</time></trkpt><trkpt lat="42.50095857038089" lon="14.1206827466505"><ele>10.0</ele><time>2026-05-02T05:53:03Z</time></trkpt><trkpt lat="42.50083593238604" lon="14.12060447418444"><ele>10.333333333333334</ele><time>2026-05-02T05:53:04Z</time></trkpt><trkpt lat="42.50070521528308" lon="14.120513455573157"><ele>10.666666666666666</ele><time>2026-05-02T05:53:05Z</time></trkpt><trkpt lat="42.5005651322353" lon="14.120425813764745"><ele>11.0</ele><time>2026-05-02T05:53:06Z</time></trkpt><trkpt lat="42.50042609957734" lon="14.120333449529072"><ele>11.75</ele><time>2026-05-02T05:53:07Z</time></trkpt><trkpt lat="42.50029429755727" lon="14.120244210067586"><ele>12.5</ele><time>2026-05-02T05:53:08Z</time></trkpt><trkpt lat="42.50016033555311" lon="14.120154146676654"><ele>13.25</ele><time>2026-05-02T05:53:09Z</time></trkpt><trkpt lat="42.5000297764454" lon="14.120065156526682"><ele>14.0</ele><time>2026-05-02T05:53:10Z</time></trkpt><trkpt lat="42.49991380212129" lon="14.119978101592787"><ele>14.0</ele><time>2026-05-02T05:53:11Z</time></trkpt><trkpt lat="42.49981199891233" lon="14.11990331556665"><ele>13.999999999999998</ele><time>2026-05-02T05:53:12Z</time></trkpt><trkpt lat="42.499726507912825" lon="14.11985768232081"><ele>13.999999999999998</ele><time>2026-05-02T05:53:13Z</time></trkpt><trkpt lat="42.499640448867275" lon="14.119859187405604"><ele>14.0</ele><time>2026-05-02T05:53:14Z</time></trkpt><trkpt lat="42.499561269202985" lon="14.119911416559631"><ele>14.0</ele><time>2026-05-02T05:53:15Z</time></trkpt><trkpt lat="42.499496048644225" lon="14.120027376563955"><ele>14.25</ele><time>2026-05-02T05:53:16Z</time></trkpt><trkpt lat="42.499426081696114" lon="14.120162712998003"><ele>14.5</ele><time>2026-05-02T05:53:17Z</time></trkpt><trkpt lat="42.499339791348056" lon="14.120297728072256"><ele>14.75</ele><time>2026-05-02T05:53:18Z</time></trkpt><trkpt lat="42.49923655182473" lon="14.120422932351339"><ele>15.0</ele><time>2026-05-02T05:53:19Z</time></trkpt><trkpt lat="42.49909502014384" lon="14.120534798905442"><ele>15.0</ele><time>2026-05-02T05:53:20Z</time></trkpt><trkpt lat="42.4989683883066" lon="14.120664488381246"><ele>15.0</ele><time>2026-05-02T05:53:21Z</time></trkpt><trkpt lat="42.49893187363568" lon="14.12078586942036"><ele>15.0</ele><time>2026-05-02T05:53:22Z</time></trkpt><trkpt lat="42.49884108621046" lon="14.12092286362171"><ele>15.0</ele><time>2026-05-02T05:53:23Z</time></trkpt><trkpt lat="42.49874423299962" lon="14.121046265447205"><ele>15.25</ele><time>2026-05-02T05:53:24Z</time></trkpt><trkpt lat="42.49863749304762" lon="14.121151855388549"><ele>15.5</ele><time>2026-05-02T05:53:25Z</time></trkpt><trkpt lat="42.49855554446312" lon="14.12128858624496"><ele>15.75</ele><time>2026-05-02T05:53:26Z</time></trkpt><trkpt lat="42.498461077933186" lon="14.121412727096018"><ele>16.0</ele><time>2026-05-02T05:53:26.999Z</time></trkpt><trkpt lat="42.49835749499285" lon="14.121525167788848"><ele>15.75</ele><time>2026-05-02T05:53:27.999Z</time></trkpt><trkpt lat="42.49824293355727" lon="14.121582006289964"><ele>15.5</ele><time>2026-05-02T05:53:28.999Z</time></trkpt><trkpt lat="42.498136729116695" lon="14.12165403357251"><ele>15.25</ele><time>2026-05-02T05:53:29.999Z</time></trkpt><trkpt lat="42.49805174304421" lon="14.12174675631383"><ele>15.0</ele><time>2026-05-02T05:53:30.999Z</time></trkpt><trkpt lat="42.4979604562867" lon="14.121844799559975"><ele>15.0</ele><time>2026-05-02T05:53:31.999Z</time></trkpt><trkpt lat="42.49787529433925" lon="14.12197581139187"><ele>15.0</ele><time>2026-05-02T05:53:32.999Z</time></trkpt><trkpt lat="42.49779167490198" lon="14.122116821595197"><ele>15.0</ele><time>2026-05-02T05:53:33.999Z</time></trkpt><trkpt lat="42.497704704419384" lon="14.122266591300527"><ele>15.0</ele><time>2026-05-02T05:53:34.999Z</time></trkpt><trkpt lat="42.49761689338507" lon="14.122413059108286"><ele>14.75</ele><time>2026-05-02T05:53:35.999Z</time></trkpt><trkpt lat="42.49752081204535" lon="14.122562741613297"><ele>14.5</ele><time>2026-05-02T05:53:36.999Z</time></trkpt><trkpt lat="42.497423467254414" lon="14.122715073509346"><ele>14.25</ele><time>2026-05-02T05:53:37.999Z</time></trkpt><trkpt lat="42.497327419823044" lon="14.122867985788456"><ele>14.0</ele><time>2026-05-02T05:53:38.999Z</time></trkpt><trkpt lat="42.497233684082545" lon="14.123020787029143"><ele>14.0</ele><time>2026-05-02T05:53:39.999Z</time></trkpt><trkpt lat="42.497138214084316" lon="14.123168526991684"><ele>14.0</ele><time>2026-05-02T05:53:40.999Z</time></trkpt><trkpt lat="42.49704427366249" lon="14.12331002561094"><ele>14.0</ele><time>2026-05-02T05:53:41.999Z</time></trkpt><trkpt lat="42.496952157825795" lon="14.123448743817404"><ele>14.0</ele><time>2026-05-02T05:53:42.999Z</time></trkpt><trkpt lat="42.49685971861498" lon="14.123582750103855"><ele>14.5</ele><time>2026-05-02T05:53:43.999Z</time></trkpt><trkpt lat="42.496766680805976" lon="14.123705830769165"><ele>15.0</ele><time>2026-05-02T05:53:44.999Z</time></trkpt><trkpt lat="42.4966641637975" lon="14.123803643904433"><ele>15.5</ele><time>2026-05-02T05:53:45.999Z</time></trkpt><trkpt lat="42.49655445103696" lon="14.12389286329301"><ele>16.0</ele><time>2026-05-02T05:53:46.999Z</time></trkpt><trkpt lat="42.49645370364832" lon="14.123986003523294"><ele>16.2</ele><time>2026-05-02T05:53:47.999Z</time></trkpt><trkpt lat="42.49635734884667" lon="14.124074041898194"><ele>16.400000000000002</ele><time>2026-05-02T05:53:48.999Z</time></trkpt><trkpt lat="42.496266123231095" lon="14.124167456981507"><ele>16.6</ele><time>2026-05-02T05:53:49.999Z</time></trkpt><trkpt lat="42.49618830656799" lon="14.124256284604016"><ele>16.8</ele><time>2026-05-02T05:53:50.999Z</time></trkpt><trkpt lat="42.49611917942983" lon="14.124341109198289"><ele>17.0</ele><time>2026-05-02T05:53:51.999Z</time></trkpt><trkpt lat="42.49605429849454" lon="14.124400251758821"><ele>16.6</ele><time>2026-05-02T05:53:52.999Z</time></trkpt><trkpt lat="42.495984134282224" lon="14.124441670184309"><ele>16.2</ele><time>2026-05-02T05:53:53.999Z</time></trkpt><trkpt lat="42.49589756350671" lon="14.124467305472455"><ele>15.8</ele><time>2026-05-02T05:53:54.999Z</time></trkpt><trkpt lat="42.49580652518815" lon="14.124524506259508"><ele>15.4</ele><time>2026-05-02T05:53:55.999Z</time></trkpt><trkpt lat="42.49571529643978" lon="14.124544227725947"><ele>15.0</ele><time>2026-05-02T05:53:56.999Z</time></trkpt><trkpt lat="42.49560783637844" lon="14.124538578344616"><ele>15.0</ele><time>2026-05-02T05:53:57.999Z</time></trkpt><trkpt lat="42.495482396858876" lon="14.124551522010062"><ele>15.0</ele><time>2026-05-02T05:53:58.999Z</time></trkpt><trkpt lat="42.495347530279886" lon="14.124549712822535"><ele>15.0</ele><time>2026-05-02T05:53:59.999Z</time></trkpt><trkpt lat="42.49520608610096" lon="14.124549850329323"><ele>15.0</ele><time>2026-05-02T05:54:00.999Z</time></trkpt><trkpt lat="42.49506213305965" lon="14.124491288710916"><ele>15.5</ele><time>2026-05-02T05:54:01.999Z</time></trkpt><trkpt lat="42.49492425239184" lon="14.124490021356623"><ele>16.0</ele><time>2026-05-02T05:54:02.999Z</time></trkpt><trkpt lat="42.494808177805346" lon="14.124570975335914"><ele>16.5</ele><time>2026-05-02T05:54:03.999Z</time></trkpt><trkpt lat="42.494691642214605" lon="14.124570492417265"><ele>17.0</ele><time>2026-05-02T05:54:04.999Z</time></trkpt><trkpt lat="42.4945962042014" lon="14.124551028269025"><ele>17.166666666666668</ele><time>2026-05-02T05:54:06.001Z</time></trkpt><trkpt lat="42.49451822172278" lon="14.124571002139321"><ele>17.333333333333336</ele><time>2026-05-02T05:54:07.001Z</time></trkpt><trkpt lat="42.49443901589251" lon="14.124575445904588"><ele>17.5</ele><time>2026-05-02T05:54:08.001Z</time></trkpt><trkpt lat="42.4943623553278" lon="14.124593858981438"><ele>17.666666666666668</ele><time>2026-05-02T05:54:09.001Z</time></trkpt><trkpt lat="42.49428393943011" lon="14.124672296418042"><ele>17.833333333333332</ele><time>2026-05-02T05:54:10.001Z</time></trkpt><trkpt lat="42.49421890192072" lon="14.124796668152037"><ele>18.0</ele><time>2026-05-02T05:54:11.001Z</time></trkpt><trkpt lat="42.49415213111806" lon="14.124903788514997"><ele>18.0</ele><time>2026-05-02T05:54:12.001Z</time></trkpt><trkpt lat="42.49407518138125" lon="14.124973477107565"><ele>18.0</ele><time>2026-05-02T05:54:13.001Z</time></trkpt><trkpt lat="42.494039991418205" lon="14.125083256507073"><ele>18.0</ele><time>2026-05-02T05:54:14.001Z</time></trkpt><trkpt lat="42.493993036079786" lon="14.125160101564472"><ele>18.0</ele><time>2026-05-02T05:54:15.001Z</time></trkpt><trkpt lat="42.49392436165813" lon="14.125278086009429"><ele>18.0</ele><time>2026-05-02T05:54:17.001Z</time></trkpt><trkpt lat="42.49386944996378" lon="14.12534389784498"><ele>18.0</ele><time>2026-05-02T05:54:20.001Z</time></trkpt><trkpt lat="42.49378275428592" lon="14.125274951374147"><ele>18.2</ele><time>2026-05-02T05:54:22.001Z</time></trkpt><trkpt lat="42.493716388236265" lon="14.125219233240783"><ele>18.4</ele><time>2026-05-02T05:54:23.001Z</time></trkpt><trkpt lat="42.493632816387276" lon="14.125175335974546"><ele>18.599999999999998</ele><time>2026-05-02T05:54:24Z</time></trkpt><trkpt lat="42.49354306933694" lon="14.125099417925195"><ele>18.8</ele><time>2026-05-02T05:54:25Z</time></trkpt><trkpt lat="42.49345135341556" lon="14.12501940819618"><ele>19.0</ele><time>2026-05-02T05:54:26Z</time></trkpt><trkpt lat="42.493354758124326" lon="14.124932346174393"><ele>19.0</ele><time>2026-05-02T05:54:27Z</time></trkpt><trkpt lat="42.4932481080861" lon="14.12484853922512"><ele>19.0</ele><time>2026-05-02T05:54:28Z</time></trkpt><trkpt lat="42.49314113115669" lon="14.124766797106485"><ele>19.0</ele><time>2026-05-02T05:54:29Z</time></trkpt><trkpt lat="42.49303635255278" lon="14.1246819884217"><ele>19.0</ele><time>2026-05-02T05:54:30Z</time></trkpt><trkpt lat="42.49293618118837" lon="14.12459789075514"><ele>19.75</ele><time>2026-05-02T05:54:31Z</time></trkpt><trkpt lat="42.492837077706" lon="14.124510190654101"><ele>20.5</ele><time>2026-05-02T05:54:32Z</time></trkpt><trkpt lat="42.49273281571009" lon="14.124427722630967"><ele>21.25</ele><time>2026-05-02T05:54:33Z</time></trkpt><trkpt lat="42.49263433862079" lon="14.124348564367642"><ele>22.0</ele><time>2026-05-02T05:54:34Z</time></trkpt><trkpt lat="42.492530770873984" lon="14.124266852490186"><ele>22.0</ele><time>2026-05-02T05:54:35Z</time></trkpt><trkpt lat="42.49243204545097" lon="14.124185777586295"><ele>22.0</ele><time>2026-05-02T05:54:36Z</time></trkpt><trkpt lat="42.492332776246265" lon="14.124099024643627"><ele>22.0</ele><time>2026-05-02T05:54:37Z</time></trkpt><trkpt lat="42.4922339207268" lon="14.124014668776045"><ele>22.0</ele><time>2026-05-02T05:54:38Z</time></trkpt><trkpt lat="42.492133865322195" lon="14.12393636434578"><ele>21.8</ele><time>2026-05-02T05:54:39Z</time></trkpt><trkpt lat="42.49203650579591" lon="14.123854989497271"><ele>21.6</ele><time>2026-05-02T05:54:40Z</time></trkpt><trkpt lat="42.49193686990814" lon="14.123777132446682"><ele>21.400000000000002</ele><time>2026-05-02T05:54:41Z</time></trkpt><trkpt lat="42.49183898344111" lon="14.123702207989076"><ele>21.200000000000003</ele><time>2026-05-02T05:54:42Z</time></trkpt><trkpt lat="42.49174809102252" lon="14.123624164415652"><ele>21.0</ele><time>2026-05-02T05:54:43Z</time></trkpt><trkpt lat="42.49165950917802" lon="14.123555855646952"><ele>21.0</ele><time>2026-05-02T05:54:44Z</time></trkpt><trkpt lat="42.491569362144645" lon="14.123483216781372"><ele>21.0</ele><time>2026-05-02T05:54:45Z</time></trkpt><trkpt lat="42.49148497209499" lon="14.123412199132634"><ele>21.0</ele><time>2026-05-02T05:54:46Z</time></trkpt><trkpt lat="42.491400497794956" lon="14.12334059771803"><ele>21.0</ele><time>2026-05-02T05:54:47Z</time></trkpt><trkpt lat="42.491311202403665" lon="14.123270006501631"><ele>21.0</ele><time>2026-05-02T05:54:48Z</time></trkpt><trkpt lat="42.4912267306363" lon="14.123196976101259"><ele>21.4</ele><time>2026-05-02T05:54:49Z</time></trkpt><trkpt lat="42.49113604625387" lon="14.12312307808521"><ele>21.8</ele><time>2026-05-02T05:54:50Z</time></trkpt><trkpt lat="42.491037653885705" lon="14.123043724906228"><ele>22.2</ele><time>2026-05-02T05:54:51Z</time></trkpt><trkpt lat="42.49094018749429" lon="14.122966095188374"><ele>22.599999999999998</ele><time>2026-05-02T05:54:52Z</time></trkpt><trkpt lat="42.49084750349602" lon="14.122892116124538"><ele>23.0</ele><time>2026-05-02T05:54:53Z</time></trkpt><trkpt lat="42.49075414530199" lon="14.122820577272659"><ele>23.0</ele><time>2026-05-02T05:54:54Z</time></trkpt><trkpt lat="42.4906655591585" lon="14.122752681675504"><ele>23.0</ele><time>2026-05-02T05:54:55Z</time></trkpt><trkpt lat="42.49057315405624" lon="14.122674841586083"><ele>23.0</ele><time>2026-05-02T05:54:56Z</time></trkpt><trkpt lat="42.49049412630998" lon="14.12260803640771"><ele>23.0</ele><time>2026-05-02T05:54:57Z</time></trkpt><trkpt lat="42.49041385657259" lon="14.12254363225554"><ele>23.0</ele><time>2026-05-02T05:54:58Z</time></trkpt><trkpt lat="42.490326247501564" lon="14.122478841705185"><ele>23.0</ele><time>2026-05-02T05:54:59Z</time></trkpt><trkpt lat="42.4902352736501" lon="14.122405505112509"><ele>23.0</ele><time>2026-05-02T05:55:00Z</time></trkpt><trkpt lat="42.49014212053871" lon="14.122334570837454"><ele>23.0</ele><time>2026-05-02T05:55:01Z</time></trkpt><trkpt lat="42.49005318192585" lon="14.122261828321575"><ele>23.0</ele><time>2026-05-02T05:55:02Z</time></trkpt><trkpt lat="42.48996572439145" lon="14.122191124300496"><ele>23.0</ele><time>2026-05-02T05:55:03Z</time></trkpt><trkpt lat="42.489883827056204" lon="14.122121015372336"><ele>22.799999999999997</ele><time>2026-05-02T05:55:04Z</time></trkpt><trkpt lat="42.489799819881405" lon="14.12205014118565"><ele>22.6</ele><time>2026-05-02T05:55:05Z</time></trkpt><trkpt lat="42.48971194197391" lon="14.1219779131979"><ele>22.4</ele><time>2026-05-02T05:55:06Z</time></trkpt><trkpt lat="42.48961749654647" lon="14.121904193438516"><ele>22.200000000000003</ele><time>2026-05-02T05:55:07Z</time></trkpt><trkpt lat="42.48952743379393" lon="14.121830669640133"><ele>22.0</ele><time>2026-05-02T05:55:08Z</time></trkpt><trkpt lat="42.48943760048164" lon="14.12176141464828"><ele>22.200000000000003</ele><time>2026-05-02T05:55:09Z</time></trkpt><trkpt lat="42.48935076705913" lon="14.1216875014858"><ele>22.4</ele><time>2026-05-02T05:55:10Z</time></trkpt><trkpt lat="42.489266082029516" lon="14.12161862594985"><ele>22.6</ele><time>2026-05-02T05:55:11Z</time></trkpt><trkpt lat="42.48918109755887" lon="14.12155286067956"><ele>22.799999999999997</ele><time>2026-05-02T05:55:12Z</time></trkpt><trkpt lat="42.48909865098286" lon="14.121486353802595"><ele>23.0</ele><time>2026-05-02T05:55:13Z</time></trkpt><trkpt lat="42.48901677273224" lon="14.121422940329627"><ele>23.0</ele><time>2026-05-02T05:55:14Z</time></trkpt><trkpt lat="42.48893761029271" lon="14.121361067769836"><ele>23.0</ele><time>2026-05-02T05:55:15Z</time></trkpt><trkpt lat="42.48886068084812" lon="14.12129839699493"><ele>23.0</ele><time>2026-05-02T05:55:16Z</time></trkpt><trkpt lat="42.48878337185088" lon="14.121235650588263"><ele>23.0</ele><time>2026-05-02T05:55:17Z</time></trkpt><trkpt lat="42.48871001770079" lon="14.121174960320776"><ele>23.0</ele><time>2026-05-02T05:55:18Z</time></trkpt><trkpt lat="42.48863462385534" lon="14.12111182185568"><ele>23.0</ele><time>2026-05-02T05:55:19Z</time></trkpt><trkpt lat="42.488559848987684" lon="14.121050509705565"><ele>23.166666666666668</ele><time>2026-05-02T05:55:20Z</time></trkpt><trkpt lat="42.48848393987601" lon="14.120988789845185"><ele>23.333333333333336</ele><time>2026-05-02T05:55:21Z</time></trkpt><trkpt lat="42.4884095518388" lon="14.120928211231584"><ele>23.5</ele><time>2026-05-02T05:55:22Z</time></trkpt><trkpt lat="42.48834281688773" lon="14.120873954218489"><ele>23.666666666666668</ele><time>2026-05-02T05:55:23Z</time></trkpt><trkpt lat="42.488279280908614" lon="14.120823681890714"><ele>23.833333333333332</ele><time>2026-05-02T05:55:24Z</time></trkpt><trkpt lat="42.48821416006964" lon="14.120771856475734"><ele>24.0</ele><time>2026-05-02T05:55:25Z</time></trkpt><trkpt lat="42.4881494976751" lon="14.120720583105355"><ele>24.0</ele><time>2026-05-02T05:55:26Z</time></trkpt><trkpt lat="42.488080815146226" lon="14.1206625824024"><ele>24.0</ele><time>2026-05-02T05:55:27Z</time></trkpt><trkpt lat="42.48801092812702" lon="14.12060591080759"><ele>24.0</ele><time>2026-05-02T05:55:28Z</time></trkpt><trkpt lat="42.48793692514878" lon="14.120543428811828"><ele>24.0</ele><time>2026-05-02T05:55:29Z</time></trkpt><trkpt lat="42.48786301745813" lon="14.120476055012888"><ele>24.0</ele><time>2026-05-02T05:55:30Z</time></trkpt><trkpt lat="42.487781377045124" lon="14.120415418393856"><ele>24.0</ele><time>2026-05-02T05:55:31Z</time></trkpt><trkpt lat="42.48769951676462" lon="14.120354548678051"><ele>24.333333333333332</ele><time>2026-05-02T05:55:31.999Z</time></trkpt><trkpt lat="42.48762600137465" lon="14.120286421592466"><ele>24.666666666666664</ele><time>2026-05-02T05:55:32.999Z</time></trkpt><trkpt lat="42.48755113642123" lon="14.120224375613386"><ele>25.0</ele><time>2026-05-02T05:55:33.999Z</time></trkpt><trkpt lat="42.48747902517946" lon="14.120162054380128"><ele>25.333333333333332</ele><time>2026-05-02T05:55:34.999Z</time></trkpt><trkpt lat="42.48740728411276" lon="14.120103323794929"><ele>25.666666666666664</ele><time>2026-05-02T05:55:35.999Z</time></trkpt><trkpt lat="42.487335579923155" lon="14.120052227451655"><ele>26.0</ele><time>2026-05-02T05:55:36.999Z</time></trkpt><trkpt lat="42.48727494147865" lon="14.120001829851937"><ele>26.0</ele><time>2026-05-02T05:55:37.999Z</time></trkpt><trkpt lat="42.48718454445226" lon="14.11992686881486"><ele>26.0</ele><time>2026-05-02T05:55:39.999Z</time></trkpt><trkpt lat="42.48711688356692" lon="14.119874304976777"><ele>26.0</ele><time>2026-05-02T05:55:43.999Z</time></trkpt><trkpt lat="42.48705164896967" lon="14.119828820115051"><ele>26.0</ele><time>2026-05-02T05:55:45.999Z</time></trkpt><trkpt lat="42.486949674962666" lon="14.119750686990754"><ele>26.0</ele><time>2026-05-02T05:55:47.999Z</time></trkpt><trkpt lat="42.486829998106636" lon="14.119656265251837"><ele>26.0</ele><time>2026-05-02T05:55:49.999Z</time></trkpt><trkpt lat="42.48675331242043" lon="14.119596681703092"><ele>26.0</ele><time>2026-05-02T05:55:50.999Z</time></trkpt><trkpt lat="42.4866730406762" lon="14.119527724123532"><ele>26.0</ele><time>2026-05-02T05:55:51.999Z</time></trkpt><trkpt lat="42.48659071973947" lon="14.119456588606866"><ele>26.0</ele><time>2026-05-02T05:55:52.999Z</time></trkpt><trkpt lat="42.48651064144537" lon="14.119394051314096"><ele>26.0</ele><time>2026-05-02T05:55:53.999Z</time></trkpt><trkpt lat="42.486430538824926" lon="14.119329073357532"><ele>26.0</ele><time>2026-05-02T05:55:54.999Z</time></trkpt><trkpt lat="42.4863421154352" lon="14.119260001511538"><ele>26.0</ele><time>2026-05-02T05:55:55.999Z</time></trkpt><trkpt lat="42.486251129565744" lon="14.119182423585917"><ele>26.0</ele><time>2026-05-02T05:55:56.999Z</time></trkpt><trkpt lat="42.48615574362338" lon="14.119100609020306"><ele>26.0</ele><time>2026-05-02T05:55:57.999Z</time></trkpt><trkpt lat="42.4860609377176" lon="14.119019180249733"><ele>26.0</ele><time>2026-05-02T05:55:58.999Z</time></trkpt><trkpt lat="42.48596635716366" lon="14.11894051888148"><ele>25.8</ele><time>2026-05-02T05:55:59.999Z</time></trkpt><trkpt lat="42.485873157856766" lon="14.118868130039042"><ele>25.6</ele><time>2026-05-02T05:56:00.999Z</time></trkpt><trkpt lat="42.485783279350215" lon="14.118795149239483"><ele>25.4</ele><time>2026-05-02T05:56:01.999Z</time></trkpt><trkpt lat="42.48569442979723" lon="14.118722668970618"><ele>25.2</ele><time>2026-05-02T05:56:02.999Z</time></trkpt><trkpt lat="42.48560467155746" lon="14.118645977977682"><ele>25.0</ele><time>2026-05-02T05:56:03.999Z</time></trkpt><trkpt lat="42.485514124499076" lon="14.118572430911657"><ele>25.4</ele><time>2026-05-02T05:56:04.999Z</time></trkpt><trkpt lat="42.48542186229864" lon="14.118501646430355"><ele>25.8</ele><time>2026-05-02T05:56:05.999Z</time></trkpt><trkpt lat="42.48533527994022" lon="14.118431546213431"><ele>26.200000000000003</ele><time>2026-05-02T05:56:06.999Z</time></trkpt><trkpt lat="42.48525271771313" lon="14.118361283957377"><ele>26.6</ele><time>2026-05-02T05:56:07.999Z</time></trkpt><trkpt lat="42.48516553099005" lon="14.118293058697892"><ele>27.0</ele><time>2026-05-02T05:56:08.999Z</time></trkpt><trkpt lat="42.48507799835211" lon="14.118222331088319"><ele>27.0</ele><time>2026-05-02T05:56:09.999Z</time></trkpt><trkpt lat="42.484987229393745" lon="14.118147774756991"><ele>27.000000000000004</ele><time>2026-05-02T05:56:11.001Z</time></trkpt><trkpt lat="42.48489441981437" lon="14.118070618949403"><ele>27.000000000000004</ele><time>2026-05-02T05:56:12.001Z</time></trkpt><trkpt lat="42.48479811266848" lon="14.117997595908177"><ele>27.0</ele><time>2026-05-02T05:56:13.001Z</time></trkpt><trkpt lat="42.48470587689141" lon="14.117917899264654"><ele>27.0</ele><time>2026-05-02T05:56:14.001Z</time></trkpt><trkpt lat="42.48461466102942" lon="14.117847076943095"><ele>27.200000000000003</ele><time>2026-05-02T05:56:15.001Z</time></trkpt><trkpt lat="42.4845315850788" lon="14.117782444324018"><ele>27.400000000000002</ele><time>2026-05-02T05:56:16.001Z</time></trkpt><trkpt lat="42.48445769876546" lon="14.117716724325335"><ele>27.599999999999998</ele><time>2026-05-02T05:56:17.001Z</time></trkpt><trkpt lat="42.484381637466015" lon="14.11765147695085"><ele>27.799999999999997</ele><time>2026-05-02T05:56:18.001Z</time></trkpt><trkpt lat="42.48430309788086" lon="14.117595406478479"><ele>28.0</ele><time>2026-05-02T05:56:19.001Z</time></trkpt><trkpt lat="42.48422592659177" lon="14.117534718441643"><ele>28.0</ele><time>2026-05-02T05:56:20.001Z</time></trkpt><trkpt lat="42.48416027626183" lon="14.117478901382357"><ele>27.999999999999996</ele><time>2026-05-02T05:56:21.001Z</time></trkpt><trkpt lat="42.48410614259045" lon="14.117432938771655"><ele>27.999999999999996</ele><time>2026-05-02T05:56:22.001Z</time></trkpt><trkpt lat="42.48399936241664" lon="14.117345459090458"><ele>28.0</ele><time>2026-05-02T05:56:24.001Z</time></trkpt><trkpt lat="42.4839423481418" lon="14.117300136451064"><ele>28.0</ele><time>2026-05-02T05:56:25.001Z</time></trkpt><trkpt lat="42.48383905439653" lon="14.117218990916752"><ele>28.4</ele><time>2026-05-02T05:56:27.001Z</time></trkpt><trkpt lat="42.48372898970856" lon="14.117127243955311"><ele>28.799999999999997</ele><time>2026-05-02T05:56:29.001Z</time></trkpt><trkpt lat="42.48366212879223" lon="14.117077550355567"><ele>29.2</ele><time>2026-05-02T05:56:30Z</time></trkpt><trkpt lat="42.48359161372805" lon="14.117023808588648"><ele>29.6</ele><time>2026-05-02T05:56:31Z</time></trkpt><trkpt lat="42.483521935564006" lon="14.116967353288922"><ele>30.0</ele><time>2026-05-02T05:56:32Z</time></trkpt><trkpt lat="42.483451110179615" lon="14.116906135906637"><ele>30.0</ele><time>2026-05-02T05:56:33Z</time></trkpt><trkpt lat="42.483377499181366" lon="14.116843917452504"><ele>30.0</ele><time>2026-05-02T05:56:34Z</time></trkpt><trkpt lat="42.48329779266373" lon="14.116780758330368"><ele>30.0</ele><time>2026-05-02T05:56:35Z</time></trkpt><trkpt lat="42.48322021754905" lon="14.116715298757534"><ele>30.0</ele><time>2026-05-02T05:56:36Z</time></trkpt><trkpt lat="42.48313005491991" lon="14.116648023197111"><ele>30.0</ele><time>2026-05-02T05:56:37Z</time></trkpt><trkpt lat="42.48304113021422" lon="14.116577898466804"><ele>29.8</ele><time>2026-05-02T05:56:38Z</time></trkpt><trkpt lat="42.48294436496301" lon="14.116499613725205"><ele>29.6</ele><time>2026-05-02T05:56:39Z</time></trkpt><trkpt lat="42.48286200291654" lon="14.116408479222155"><ele>29.4</ele><time>2026-05-02T05:56:40Z</time></trkpt><trkpt lat="42.48276513506651" lon="14.11633027101659"><ele>29.2</ele><time>2026-05-02T05:56:41Z</time></trkpt><trkpt lat="42.48266960280082" lon="14.116252582635568"><ele>29.0</ele><time>2026-05-02T05:56:42Z</time></trkpt><trkpt lat="42.4825736761876" lon="14.116174712067977"><ele>29.0</ele><time>2026-05-02T05:56:43Z</time></trkpt><trkpt lat="42.48247415433342" lon="14.116122955193351"><ele>29.0</ele><time>2026-05-02T05:56:44Z</time></trkpt><trkpt lat="42.48238241775869" lon="14.116050608689461"><ele>29.0</ele><time>2026-05-02T05:56:45Z</time></trkpt><trkpt lat="42.48228812699028" lon="14.115972683750625"><ele>29.0</ele><time>2026-05-02T05:56:46Z</time></trkpt><trkpt lat="42.482190351611294" lon="14.115895317413102"><ele>29.0</ele><time>2026-05-02T05:56:47Z</time></trkpt><trkpt lat="42.48209931514345" lon="14.115790471116664"><ele>29.799999999999997</ele><time>2026-05-02T05:56:48Z</time></trkpt><trkpt lat="42.48199882067421" lon="14.115709056559252"><ele>30.599999999999998</ele><time>2026-05-02T05:56:49Z</time></trkpt><trkpt lat="42.48189993684046" lon="14.115628221936657"><ele>31.4</ele><time>2026-05-02T05:56:50Z</time></trkpt><trkpt lat="42.48181343136259" lon="14.115557527803317"><ele>32.199999999999996</ele><time>2026-05-02T05:56:51Z</time></trkpt><trkpt lat="42.48172608354467" lon="14.115519562354105"><ele>33.0</ele><time>2026-05-02T05:56:52Z</time></trkpt><trkpt lat="42.481646984047025" lon="14.115454291243413"><ele>33.0</ele><time>2026-05-02T05:56:53Z</time></trkpt><trkpt lat="42.481560265831305" lon="14.115381461102308"><ele>33.0</ele><time>2026-05-02T05:56:54Z</time></trkpt><trkpt lat="42.48147080325184" lon="14.11531129129385"><ele>33.0</ele><time>2026-05-02T05:56:55Z</time></trkpt><trkpt lat="42.4813912453926" lon="14.115216470977224"><ele>33.0</ele><time>2026-05-02T05:56:56Z</time></trkpt><trkpt lat="42.481300282828464" lon="14.115142334480321"><ele>33.0</ele><time>2026-05-02T05:56:57Z</time></trkpt><trkpt lat="42.481198762100824" lon="14.115089805763521"><ele>33.0</ele><time>2026-05-02T05:56:58Z</time></trkpt><trkpt lat="42.48110977323898" lon="14.11501262287988"><ele>33.0</ele><time>2026-05-02T05:56:59Z</time></trkpt><trkpt lat="42.481015867017234" lon="14.11495018956742"><ele>33.0</ele><time>2026-05-02T05:57:00Z</time></trkpt><trkpt lat="42.48092865754773" lon="14.114872207084815"><ele>33.0</ele><time>2026-05-02T05:57:01Z</time></trkpt><trkpt lat="42.48084975827737" lon="14.114775502192865"><ele>33.0</ele><time>2026-05-02T05:57:02Z</time></trkpt><trkpt lat="42.4807626696193" lon="14.11470601615918"><ele>32.4</ele><time>2026-05-02T05:57:03Z</time></trkpt><trkpt lat="42.480672324600626" lon="14.114632649254666"><ele>31.799999999999997</ele><time>2026-05-02T05:57:04Z</time></trkpt><trkpt lat="42.48058322854527" lon="14.114559919808066"><ele>31.2</ele><time>2026-05-02T05:57:05Z</time></trkpt><trkpt lat="42.48049966213449" lon="14.11449170415763"><ele>30.6</ele><time>2026-05-02T05:57:06Z</time></trkpt><trkpt lat="42.48039629871032" lon="14.114431927258412"><ele>30.0</ele><time>2026-05-02T05:57:07Z</time></trkpt><trkpt lat="42.480305441922106" lon="14.114357511801732"><ele>30.0</ele><time>2026-05-02T05:57:08Z</time></trkpt><trkpt lat="42.48021493454576" lon="14.114286302009372"><ele>30.0</ele><time>2026-05-02T05:57:09Z</time></trkpt><trkpt lat="42.48013707855206" lon="14.114197384644617"><ele>30.0</ele><time>2026-05-02T05:57:10Z</time></trkpt><trkpt lat="42.48004885710847" lon="14.114126359371669"><ele>30.0</ele><time>2026-05-02T05:57:11Z</time></trkpt><trkpt lat="42.47994926109711" lon="14.11407019177475"><ele>30.0</ele><time>2026-05-02T05:57:12Z</time></trkpt><trkpt lat="42.479853076670004" lon="14.11399230299144"><ele>29.8</ele><time>2026-05-02T05:57:13Z</time></trkpt><trkpt lat="42.47976549217116" lon="14.113896992740838"><ele>29.6</ele><time>2026-05-02T05:57:14Z</time></trkpt><trkpt lat="42.47967860452018" lon="14.11382651635272"><ele>29.4</ele><time>2026-05-02T05:57:15Z</time></trkpt><trkpt lat="42.47959077589657" lon="14.113780048285925"><ele>29.2</ele><time>2026-05-02T05:57:16Z</time></trkpt><trkpt lat="42.47951295121064" lon="14.113712612093343"><ele>29.0</ele><time>2026-05-02T05:57:17Z</time></trkpt><trkpt lat="42.47943316844462" lon="14.11364050609701"><ele>29.6</ele><time>2026-05-02T05:57:18Z</time></trkpt><trkpt lat="42.47934817574809" lon="14.113564350581038"><ele>30.2</ele><time>2026-05-02T05:57:19Z</time></trkpt><trkpt lat="42.479264697033166" lon="14.11349065929164"><ele>30.800000000000004</ele><time>2026-05-02T05:57:20Z</time></trkpt><trkpt lat="42.47917489767789" lon="14.11341684778751"><ele>31.400000000000002</ele><time>2026-05-02T05:57:21Z</time></trkpt><trkpt lat="42.47908019633733" lon="14.113337059916468"><ele>32.0</ele><time>2026-05-02T05:57:22Z</time></trkpt><trkpt lat="42.47897964007543" lon="14.113254984707803"><ele>32.2</ele><time>2026-05-02T05:57:23Z</time></trkpt><trkpt lat="42.478878000032275" lon="14.113178061792423"><ele>32.400000000000006</ele><time>2026-05-02T05:57:24Z</time></trkpt><trkpt lat="42.47878080565378" lon="14.11309987201278"><ele>32.599999999999994</ele><time>2026-05-02T05:57:25Z</time></trkpt><trkpt lat="42.478686770743735" lon="14.113020649044685"><ele>32.8</ele><time>2026-05-02T05:57:26Z</time></trkpt><trkpt lat="42.47859395155508" lon="14.1129450134877"><ele>33.0</ele><time>2026-05-02T05:57:27Z</time></trkpt><trkpt lat="42.47850585098885" lon="14.112876295933594"><ele>33.0</ele><time>2026-05-02T05:57:28Z</time></trkpt><trkpt lat="42.47841824467044" lon="14.112803428750222"><ele>33.0</ele><time>2026-05-02T05:57:29Z</time></trkpt><trkpt lat="42.478326885687686" lon="14.11272681113699"><ele>33.0</ele><time>2026-05-02T05:57:30Z</time></trkpt><trkpt lat="42.47823114661055" lon="14.112652910864156"><ele>33.0</ele><time>2026-05-02T05:57:31Z</time></trkpt><trkpt lat="42.47813404989379" lon="14.112573355837132"><ele>33.0</ele><time>2026-05-02T05:57:32Z</time></trkpt><trkpt lat="42.47803507596357" lon="14.11250050454088"><ele>33.0</ele><time>2026-05-02T05:57:33Z</time></trkpt><trkpt lat="42.47793580302842" lon="14.112423393928227"><ele>33.0</ele><time>2026-05-02T05:57:34Z</time></trkpt><trkpt lat="42.477839440750756" lon="14.112347947973788"><ele>33.0</ele><time>2026-05-02T05:57:34.999Z</time></trkpt><trkpt lat="42.4777464764144" lon="14.11226878670823"><ele>33.0</ele><time>2026-05-02T05:57:35.999Z</time></trkpt><trkpt lat="42.47764263717612" lon="14.112166196192273"><ele>33.5</ele><time>2026-05-02T05:57:36.999Z</time></trkpt><trkpt lat="42.477548844981" lon="14.112113972438708"><ele>34.0</ele><time>2026-05-02T05:57:37.999Z</time></trkpt><trkpt lat="42.47744565456441" lon="14.112033127676781"><ele>34.5</ele><time>2026-05-02T05:57:38.999Z</time></trkpt><trkpt lat="42.47734232996286" lon="14.111952729314467"><ele>35.0</ele><time>2026-05-02T05:57:39.999Z</time></trkpt><trkpt lat="42.47724144968293" lon="14.11186885366609"><ele>35.0</ele><time>2026-05-02T05:57:40.999Z</time></trkpt><trkpt lat="42.477148138601216" lon="14.11177010710623"><ele>35.0</ele><time>2026-05-02T05:57:41.999Z</time></trkpt><trkpt lat="42.477042014940466" lon="14.111708542852432"><ele>35.0</ele><time>2026-05-02T05:57:42.999Z</time></trkpt><trkpt lat="42.47694864780918" lon="14.11162911828911"><ele>35.0</ele><time>2026-05-02T05:57:43.999Z</time></trkpt><trkpt lat="42.476865230617456" lon="14.111536505413545"><ele>35.0</ele><time>2026-05-02T05:57:44.999Z</time></trkpt><trkpt lat="42.4767763215834" lon="14.11146287201681"><ele>35.0</ele><time>2026-05-02T05:57:45.999Z</time></trkpt><trkpt lat="42.47668902165834" lon="14.11139048673759"><ele>35.0</ele><time>2026-05-02T05:57:46.999Z</time></trkpt><trkpt lat="42.47660587792504" lon="14.111321547533253"><ele>35.0</ele><time>2026-05-02T05:57:47.999Z</time></trkpt><trkpt lat="42.47653974489365" lon="14.111264078347343"><ele>35.0</ele><time>2026-05-02T05:57:48.999Z</time></trkpt><trkpt lat="42.47647939614584" lon="14.111211318804164"><ele>35.0</ele><time>2026-05-02T05:57:49.999Z</time></trkpt><trkpt lat="42.47642531897715" lon="14.111164042197782"><ele>35.0</ele><time>2026-05-02T05:57:50.999Z</time></trkpt><trkpt lat="42.47634191504224" lon="14.111105026983976"><ele>35.0</ele><time>2026-05-02T05:57:52.999Z</time></trkpt><trkpt lat="42.476294489657626" lon="14.11100658284067"><ele>35.0</ele><time>2026-05-02T05:57:54.999Z</time></trkpt><trkpt lat="42.476279429773044" lon="14.11087535551279"><ele>35.0</ele><time>2026-05-02T05:57:56.999Z</time></trkpt><trkpt lat="42.47627149404858" lon="14.11074015511889"><ele>35.0</ele><time>2026-05-02T05:57:58.999Z</time></trkpt><trkpt lat="42.47619774302389" lon="14.110623738740895"><ele>35.33333333333333</ele><time>2026-05-02T05:58:00.999Z</time></trkpt><trkpt lat="42.47613266040684" lon="14.110604859031303"><ele>35.666666666666664</ele><time>2026-05-02T05:58:01.999Z</time></trkpt><trkpt lat="42.47606149418852" lon="14.110638762073409"><ele>36.0</ele><time>2026-05-02T05:58:02.999Z</time></trkpt><trkpt lat="42.47599301883897" lon="14.110689215370064"><ele>36.333333333333336</ele><time>2026-05-02T05:58:03.999Z</time></trkpt><trkpt lat="42.47591785654105" lon="14.110722139682643"><ele>36.66666666666667</ele><time>2026-05-02T05:58:04.999Z</time></trkpt><trkpt lat="42.47583734396728" lon="14.110717248895108"><ele>37.0</ele><time>2026-05-02T05:58:05.999Z</time></trkpt><trkpt lat="42.47575517410178" lon="14.110686718030802"><ele>37.0</ele><time>2026-05-02T05:58:06.999Z</time></trkpt><trkpt lat="42.4756848290288" lon="14.110607347518831"><ele>37.0</ele><time>2026-05-02T05:58:07.999Z</time></trkpt><trkpt lat="42.47559240484404" lon="14.110559473228909"><ele>37.0</ele><time>2026-05-02T05:58:08.999Z</time></trkpt><trkpt lat="42.47549813524506" lon="14.110512428098227"><ele>37.0</ele><time>2026-05-02T05:58:09.999Z</time></trkpt><trkpt lat="42.47539287948165" lon="14.110479871095482"><ele>37.0</ele><time>2026-05-02T05:58:10.999Z</time></trkpt><trkpt lat="42.47528649781644" lon="14.110471132099462"><ele>38.75</ele><time>2026-05-02T05:58:11.999Z</time></trkpt><trkpt lat="42.47517872174489" lon="14.110488974689874"><ele>40.5</ele><time>2026-05-02T05:58:12.999Z</time></trkpt><trkpt lat="42.475067026406364" lon="14.11053038460139"><ele>42.25</ele><time>2026-05-02T05:58:13.999Z</time></trkpt><trkpt lat="42.47494932874837" lon="14.11054760239802"><ele>44.0</ele><time>2026-05-02T05:58:14.999Z</time></trkpt><trkpt lat="42.474830206765695" lon="14.110555981298376"><ele>44.0</ele><time>2026-05-02T05:58:15.999Z</time></trkpt><trkpt lat="42.47470773896977" lon="14.110543258811305"><ele>44.0</ele><time>2026-05-02T05:58:17.001Z</time></trkpt><trkpt lat="42.47458605681795" lon="14.11051030836821"><ele>44.0</ele><time>2026-05-02T05:58:18.001Z</time></trkpt><trkpt lat="42.47445599840366" lon="14.110463471227733"><ele>44.0</ele><time>2026-05-02T05:58:19.001Z</time></trkpt><trkpt lat="42.474326596407515" lon="14.110404632315616"><ele>46.0</ele><time>2026-05-02T05:58:20.001Z</time></trkpt><trkpt lat="42.474193358552675" lon="14.110342013148664"><ele>48.0</ele><time>2026-05-02T05:58:21.001Z</time></trkpt><trkpt lat="42.47407018625567" lon="14.110247655709504"><ele>50.0</ele><time>2026-05-02T05:58:22.001Z</time></trkpt><trkpt lat="42.473938837375265" lon="14.110178465047678"><ele>52.0</ele><time>2026-05-02T05:58:23.001Z</time></trkpt><trkpt lat="42.47378952840095" lon="14.110139802498725"><ele>53.0</ele><time>2026-05-02T05:58:24.001Z</time></trkpt><trkpt lat="42.47365103929728" lon="14.110085439610812"><ele>54.0</ele><time>2026-05-02T05:58:25.001Z</time></trkpt><trkpt lat="42.473507957365946" lon="14.110023332730785"><ele>55.0</ele><time>2026-05-02T05:58:26.001Z</time></trkpt><trkpt lat="42.47336502133606" lon="14.10996316041506"><ele>56.0</ele><time>2026-05-02T05:58:27.001Z</time></trkpt><trkpt lat="42.4732285455839" lon="14.109904710340562"><ele>58.75</ele><time>2026-05-02T05:58:28.001Z</time></trkpt><trkpt lat="42.47309151387501" lon="14.10983393276067"><ele>61.5</ele><time>2026-05-02T05:58:29.001Z</time></trkpt><trkpt lat="42.47295789624794" lon="14.109764786657884"><ele>64.25</ele><time>2026-05-02T05:58:30.001Z</time></trkpt><trkpt lat="42.47282347375544" lon="14.109691810026408"><ele>67.0</ele><time>2026-05-02T05:58:31.001Z</time></trkpt><trkpt lat="42.47268821223118" lon="14.109627328643574"><ele>67.0</ele><time>2026-05-02T05:58:32.001Z</time></trkpt><trkpt lat="42.47254888274969" lon="14.109577264613618"><ele>67.0</ele><time>2026-05-02T05:58:33.001Z</time></trkpt><trkpt lat="42.472408967905686" lon="14.109533526731791"><ele>67.0</ele><time>2026-05-02T05:58:34Z</time></trkpt><trkpt lat="42.47226443714277" lon="14.1094918540765"><ele>67.0</ele><time>2026-05-02T05:58:35Z</time></trkpt><trkpt lat="42.47211684148773" lon="14.109446910787046"><ele>65.66666666666666</ele><time>2026-05-02T05:58:36Z</time></trkpt><trkpt lat="42.47197065354792" lon="14.109391301612893"><ele>64.33333333333333</ele><time>2026-05-02T05:58:37Z</time></trkpt><trkpt lat="42.47183628783144" lon="14.109299040731361"><ele>63.0</ele><time>2026-05-02T05:58:38Z</time></trkpt><trkpt lat="42.47170425849798" lon="14.109200508336727"><ele>63.0</ele><time>2026-05-02T05:58:39Z</time></trkpt><trkpt lat="42.471582417176634" lon="14.109084864524752"><ele>63.0</ele><time>2026-05-02T05:58:40Z</time></trkpt><trkpt lat="42.47146693433756" lon="14.108956990529142"><ele>63.0</ele><time>2026-05-02T05:58:41Z</time></trkpt><trkpt lat="42.47136192667596" lon="14.108826499473226"><ele>63.0</ele><time>2026-05-02T05:58:42Z</time></trkpt><trkpt lat="42.4712613282938" lon="14.108693969691732"><ele>63.75</ele><time>2026-05-02T05:58:43Z</time></trkpt><trkpt lat="42.47116182319991" lon="14.108555812737917"><ele>64.5</ele><time>2026-05-02T05:58:44Z</time></trkpt><trkpt lat="42.47106567583458" lon="14.108415722407054"><ele>65.25</ele><time>2026-05-02T05:58:45Z</time></trkpt><trkpt lat="42.470968599026264" lon="14.108269478610065"><ele>66.0</ele><time>2026-05-02T05:58:46Z</time></trkpt><trkpt lat="42.470876767293" lon="14.10811897716168"><ele>70.0</ele><time>2026-05-02T05:58:47Z</time></trkpt><trkpt lat="42.47078620629535" lon="14.107956367570718"><ele>74.0</ele><time>2026-05-02T05:58:48Z</time></trkpt><trkpt lat="42.47069535201202" lon="14.107790192184215"><ele>78.0</ele><time>2026-05-02T05:58:49Z</time></trkpt><trkpt lat="42.47062484399462" lon="14.107615157293154"><ele>78.0</ele><time>2026-05-02T05:58:50Z</time></trkpt><trkpt lat="42.47054990505731" lon="14.107437289039508"><ele>78.0</ele><time>2026-05-02T05:58:51Z</time></trkpt><trkpt lat="42.47048990539703" lon="14.107255208832335"><ele>78.0</ele><time>2026-05-02T05:58:52Z</time></trkpt><trkpt lat="42.47044911986516" lon="14.107061635015196"><ele>78.0</ele><time>2026-05-02T05:58:53Z</time></trkpt><trkpt lat="42.470415294689836" lon="14.106866007306223"><ele>76.0</ele><time>2026-05-02T05:58:54Z</time></trkpt><trkpt lat="42.47035502017988" lon="14.106675831239583"><ele>74.0</ele><time>2026-05-02T05:58:55Z</time></trkpt><trkpt lat="42.47037107407307" lon="14.106428583075191"><ele>72.0</ele><time>2026-05-02T05:58:56Z</time></trkpt><trkpt lat="42.47016675186196" lon="14.106367891098209"><ele>75.0</ele><time>2026-05-02T05:58:57Z</time></trkpt><trkpt lat="42.470066494002275" lon="14.106226925803487"><ele>78.0</ele><time>2026-05-02T05:58:58Z</time></trkpt><trkpt lat="42.46994798286808" lon="14.106104172676835"><ele>81.0</ele><time>2026-05-02T05:58:59Z</time></trkpt><trkpt lat="42.469820604231266" lon="14.106002686049797"><ele>84.0</ele><time>2026-05-02T05:59:00Z</time></trkpt><trkpt lat="42.46968830176343" lon="14.10591693267325"><ele>83.0</ele><time>2026-05-02T05:59:01Z</time></trkpt><trkpt lat="42.469549229481" lon="14.105835869537728"><ele>82.0</ele><time>2026-05-02T05:59:02Z</time></trkpt><trkpt lat="42.469415569953625" lon="14.105750985349811"><ele>81.0</ele><time>2026-05-02T05:59:03Z</time></trkpt><trkpt lat="42.46927920170606" lon="14.10565786443949"><ele>85.33333333333333</ele><time>2026-05-02T05:59:04Z</time></trkpt><trkpt lat="42.469144527757514" lon="14.105561143802051"><ele>89.66666666666666</ele><time>2026-05-02T05:59:05Z</time></trkpt><trkpt lat="42.46901055878056" lon="14.10546190233229"><ele>94.0</ele><time>2026-05-02T05:59:06Z</time></trkpt><trkpt lat="42.468876216502416" lon="14.105368569453784"><ele>94.66666666666666</ele><time>2026-05-02T05:59:07Z</time></trkpt><trkpt lat="42.46873966679131" lon="14.105277498037953"><ele>95.33333333333333</ele><time>2026-05-02T05:59:08Z</time></trkpt><trkpt lat="42.46859049011114" lon="14.105199707910087"><ele>96.0</ele><time>2026-05-02T05:59:09Z</time></trkpt><trkpt lat="42.468434918259575" lon="14.105144812398143"><ele>96.0</ele><time>2026-05-02T05:59:10Z</time></trkpt><trkpt lat="42.46827548309219" lon="14.105109071464538"><ele>96.0</ele><time>2026-05-02T05:59:11Z</time></trkpt><trkpt lat="42.46812069988508" lon="14.105087888917417"><ele>96.0</ele><time>2026-05-02T05:59:12Z</time></trkpt><trkpt lat="42.467977339251796" lon="14.105057256836371"><ele>94.5</ele><time>2026-05-02T05:59:13Z</time></trkpt><trkpt lat="42.467842069884796" lon="14.10501663884701"><ele>93.0</ele><time>2026-05-02T05:59:14Z</time></trkpt><trkpt lat="42.46772104937733" lon="14.104931348811371"><ele>91.5</ele><time>2026-05-02T05:59:15Z</time></trkpt><trkpt lat="42.46761388679935" lon="14.104834125331672"><ele>90.0</ele><time>2026-05-02T05:59:16Z</time></trkpt><trkpt lat="42.467502713671855" lon="14.10471901992653"><ele>94.66666666666666</ele><time>2026-05-02T05:59:17Z</time></trkpt><trkpt lat="42.46738614790488" lon="14.104588207778582"><ele>99.33333333333333</ele><time>2026-05-02T05:59:18Z</time></trkpt><trkpt lat="42.46725479165701" lon="14.104471187156134"><ele>104.0</ele><time>2026-05-02T05:59:19Z</time></trkpt><trkpt lat="42.46712291800206" lon="14.10435573552625"><ele>102.66666666666666</ele><time>2026-05-02T05:59:20Z</time></trkpt><trkpt lat="42.46698346834143" lon="14.104259003641324"><ele>101.33333333333334</ele><time>2026-05-02T05:59:21Z</time></trkpt><trkpt lat="42.46685271582264" lon="14.104160991691186"><ele>100.0</ele><time>2026-05-02T05:59:22Z</time></trkpt><trkpt lat="42.466724970897985" lon="14.104071594150932"><ele>99.75</ele><time>2026-05-02T05:59:23Z</time></trkpt><trkpt lat="42.466603263687304" lon="14.103976133089873"><ele>99.5</ele><time>2026-05-02T05:59:24Z</time></trkpt><trkpt lat="42.46648331015371" lon="14.103892017351164"><ele>99.25</ele><time>2026-05-02T05:59:25Z</time></trkpt><trkpt lat="42.46635704403597" lon="14.103830178390774"><ele>99.0</ele><time>2026-05-02T05:59:26Z</time></trkpt><trkpt lat="42.466219739215376" lon="14.103799501115091"><ele>102.5</ele><time>2026-05-02T05:59:27Z</time></trkpt><trkpt lat="42.46607721743717" lon="14.103800076989199"><ele>106.0</ele><time>2026-05-02T05:59:28Z</time></trkpt><trkpt lat="42.46593709383467" lon="14.103819749938218"><ele>109.5</ele><time>2026-05-02T05:59:29Z</time></trkpt><trkpt lat="42.46580500501206" lon="14.103845749866428"><ele>113.0</ele><time>2026-05-02T05:59:30Z</time></trkpt><trkpt lat="42.465673718758076" lon="14.103853449241164"><ele>113.0</ele><time>2026-05-02T05:59:31Z</time></trkpt><trkpt lat="42.46554439564401" lon="14.10384377176031"><ele>113.0</ele><time>2026-05-02T05:59:32Z</time></trkpt><trkpt lat="42.46542220312389" lon="14.103787669882898"><ele>113.0</ele><time>2026-05-02T05:59:33Z</time></trkpt><trkpt lat="42.465303881360434" lon="14.10373555855971"><ele>113.0</ele><time>2026-05-02T05:59:34Z</time></trkpt><trkpt lat="42.46519333953708" lon="14.10367104576933"><ele>114.0</ele><time>2026-05-02T05:59:35Z</time></trkpt><trkpt lat="42.46509773698371" lon="14.103611891719586"><ele>115.00000000000001</ele><time>2026-05-02T05:59:36Z</time></trkpt><trkpt lat="42.464999650164565" lon="14.103565924643016"><ele>116.00000000000001</ele><time>2026-05-02T05:59:37Z</time></trkpt><trkpt lat="42.46492389300285" lon="14.103465078716784"><ele>117.0</ele><time>2026-05-02T05:59:38Z</time></trkpt><trkpt lat="42.46485048143487" lon="14.103377197757911"><ele>118.0</ele><time>2026-05-02T05:59:38.999Z</time></trkpt><trkpt lat="42.464786960792104" lon="14.103289270948466"><ele>117.4</ele><time>2026-05-02T05:59:39.999Z</time></trkpt><trkpt lat="42.4647229191198" lon="14.103211518169774"><ele>116.80000000000001</ele><time>2026-05-02T05:59:40.999Z</time></trkpt><trkpt lat="42.46463211763906" lon="14.103121753124428"><ele>116.2</ele><time>2026-05-02T05:59:41.999Z</time></trkpt><trkpt lat="42.464541957791965" lon="14.103052727003327"><ele>115.6</ele><time>2026-05-02T05:59:42.999Z</time></trkpt><trkpt lat="42.4644574208669" lon="14.103022688054535"><ele>115.0</ele><time>2026-05-02T05:59:43.999Z</time></trkpt><trkpt lat="42.464379981660194" lon="14.103047543576103"><ele>115.83333333333334</ele><time>2026-05-02T05:59:44.999Z</time></trkpt><trkpt lat="42.46434442775117" lon="14.103154688274262"><ele>116.66666666666667</ele><time>2026-05-02T05:59:45.999Z</time></trkpt><trkpt lat="42.46434450374828" lon="14.103257993903584"><ele>117.5</ele><time>2026-05-02T05:59:46.999Z</time></trkpt><trkpt lat="42.464381956517705" lon="14.103346365972202"><ele>118.33333333333334</ele><time>2026-05-02T05:59:47.999Z</time></trkpt><trkpt lat="42.464445413271214" lon="14.103410487450065"><ele>119.16666666666667</ele><time>2026-05-02T05:59:48.999Z</time></trkpt><trkpt lat="42.46452056380702" lon="14.103445664993703"><ele>120.0</ele><time>2026-05-02T05:59:49.999Z</time></trkpt><trkpt lat="42.46458797908563" lon="14.103470033236869"><ele>120.0</ele><time>2026-05-02T05:59:50.999Z</time></trkpt><trkpt lat="42.46469460203657" lon="14.103539678500354"><ele>120.0</ele><time>2026-05-02T05:59:52.999Z</time></trkpt><trkpt lat="42.46474636935167" lon="14.103645054904506"><ele>120.0</ele><time>2026-05-02T05:59:54.999Z</time></trkpt><trkpt lat="42.46472716266239" lon="14.10376660073767"><ele>120.0</ele><time>2026-05-02T05:59:56.999Z</time></trkpt><trkpt lat="42.46461567970261" lon="14.103831879308396"><ele>120.0</ele><time>2026-05-02T05:59:58.999Z</time></trkpt><trkpt lat="42.46454315732764" lon="14.103854679046803"><ele>120.0</ele><time>2026-05-02T05:59:59.999Z</time></trkpt><trkpt lat="42.46446297999803" lon="14.103897253249968"><ele>120.0</ele><time>2026-05-02T06:00:00.999Z</time></trkpt><trkpt lat="42.4643753350139" lon="14.103932568027695"><ele>120.0</ele><time>2026-05-02T06:00:01.999Z</time></trkpt><trkpt lat="42.464283901536106" lon="14.103954770613502"><ele>120.0</ele><time>2026-05-02T06:00:02.999Z</time></trkpt><trkpt lat="42.464192131713304" lon="14.103973873740257"><ele>120.0</ele><time>2026-05-02T06:00:03.999Z</time></trkpt><trkpt lat="42.46410571977583" lon="14.103988457643478"><ele>120.0</ele><time>2026-05-02T06:00:04.999Z</time></trkpt><trkpt lat="42.46402698714431" lon="14.104000076764725"><ele>120.0</ele><time>2026-05-02T06:00:05.999Z</time></trkpt><trkpt lat="42.46394269603053" lon="14.104013219820443"><ele>120.0</ele><time>2026-05-02T06:00:06.999Z</time></trkpt><trkpt lat="42.463859499755095" lon="14.104024124728518"><ele>120.0</ele><time>2026-05-02T06:00:07.999Z</time></trkpt><trkpt lat="42.46377363631475" lon="14.104038319438446"><ele>120.0</ele><time>2026-05-02T06:00:08.999Z</time></trkpt><trkpt lat="42.46369439529534" lon="14.104059605603517"><ele>120.0</ele><time>2026-05-02T06:00:09.999Z</time></trkpt><trkpt lat="42.463616004014135" lon="14.104057631448631"><ele>121.5</ele><time>2026-05-02T06:00:10.999Z</time></trkpt><trkpt lat="42.46354365046527" lon="14.104095916194536"><ele>123.0</ele><time>2026-05-02T06:00:11.999Z</time></trkpt><trkpt lat="42.46346934017201" lon="14.104112190717755"><ele>124.5</ele><time>2026-05-02T06:00:12.999Z</time></trkpt><trkpt lat="42.463396794183254" lon="14.10414265861958"><ele>126.0</ele><time>2026-05-02T06:00:13.999Z</time></trkpt><trkpt lat="42.46332146937763" lon="14.104185106248453"><ele>127.5</ele><time>2026-05-02T06:00:14.999Z</time></trkpt><trkpt lat="42.46324771634249" lon="14.10423863335653"><ele>129.0</ele><time>2026-05-02T06:00:15.999Z</time></trkpt><trkpt lat="42.46318845674733" lon="14.104314924495876"><ele>129.0</ele><time>2026-05-02T06:00:16.999Z</time></trkpt><trkpt lat="42.463124880949294" lon="14.104391472032928"><ele>129.0</ele><time>2026-05-02T06:00:17.999Z</time></trkpt><trkpt lat="42.46305522757598" lon="14.104464813343089"><ele>129.0</ele><time>2026-05-02T06:00:18.999Z</time></trkpt><trkpt lat="42.46298878283264" lon="14.104546026350981"><ele>129.0</ele><time>2026-05-02T06:00:19.999Z</time></trkpt><trkpt lat="42.46291583619331" lon="14.104599471145018"><ele>129.0</ele><time>2026-05-02T06:00:20.999Z</time></trkpt><trkpt lat="42.46285637071664" lon="14.104683139713192"><ele>129.0</ele><time>2026-05-02T06:00:21.999Z</time></trkpt><trkpt lat="42.46279534758533" lon="14.104734040478537"><ele>129.4</ele><time>2026-05-02T06:00:23.001Z</time></trkpt><trkpt lat="42.462679763756675" lon="14.104771667842662"><ele>129.8</ele><time>2026-05-02T06:00:25.001Z</time></trkpt><trkpt lat="42.4626155901228" lon="14.104741703299988"><ele>130.2</ele><time>2026-05-02T06:00:26.001Z</time></trkpt><trkpt lat="42.462554423977004" lon="14.104690654720908"><ele>130.6</ele><time>2026-05-02T06:00:27.001Z</time></trkpt><trkpt lat="42.46243684573797" lon="14.104690258747832"><ele>131.0</ele><time>2026-05-02T06:00:29.001Z</time></trkpt><trkpt lat="42.46240560268607" lon="14.104783060925628"><ele>131.0</ele><time>2026-05-02T06:00:30.001Z</time></trkpt><trkpt lat="42.46242034388471" lon="14.10488262639941"><ele>131.0</ele><time>2026-05-02T06:00:31.001Z</time></trkpt><trkpt lat="42.46245181154709" lon="14.104977542799917"><ele>131.0</ele><time>2026-05-02T06:00:32.001Z</time></trkpt><trkpt lat="42.46245280437393" lon="14.105077229222738"><ele>131.0</ele><time>2026-05-02T06:00:33.001Z</time></trkpt><trkpt lat="42.46239236974047" lon="14.105166567808384"><ele>131.0</ele><time>2026-05-02T06:00:34.001Z</time></trkpt><trkpt lat="42.462293843785304" lon="14.105211998861005"><ele>131.0</ele><time>2026-05-02T06:00:35.001Z</time></trkpt><trkpt lat="42.4622313119224" lon="14.105298777111416"><ele>131.4</ele><time>2026-05-02T06:00:36.001Z</time></trkpt><trkpt lat="42.46215474365249" lon="14.105372643451751"><ele>131.8</ele><time>2026-05-02T06:00:37.001Z</time></trkpt><trkpt lat="42.46207012830229" lon="14.105461371216586"><ele>132.20000000000002</ele><time>2026-05-02T06:00:38Z</time></trkpt><trkpt lat="42.46197308684719" lon="14.105538703373393"><ele>132.6</ele><time>2026-05-02T06:00:39Z</time></trkpt><trkpt lat="42.46189632093968" lon="14.105614160021581"><ele>133.0</ele><time>2026-05-02T06:00:40Z</time></trkpt><trkpt lat="42.461817115986634" lon="14.10569188856715"><ele>134.5</ele><time>2026-05-02T06:00:41Z</time></trkpt><trkpt lat="42.461711202585875" lon="14.105794768540306"><ele>136.0</ele><time>2026-05-02T06:00:42Z</time></trkpt><trkpt lat="42.461594975033016" lon="14.105907667054069"><ele>137.5</ele><time>2026-05-02T06:00:43Z</time></trkpt><trkpt lat="42.46147404516349" lon="14.106053242852095"><ele>139.0</ele><time>2026-05-02T06:00:44Z</time></trkpt><trkpt lat="42.46134090435778" lon="14.106166953000445"><ele>142.5</ele><time>2026-05-02T06:00:45Z</time></trkpt><trkpt lat="42.46121748700312" lon="14.106296172400826"><ele>146.0</ele><time>2026-05-02T06:00:46Z</time></trkpt><trkpt lat="42.46107825217477" lon="14.106368933794455"><ele>149.5</ele><time>2026-05-02T06:00:47Z</time></trkpt><trkpt lat="42.46094515480599" lon="14.106421362839038"><ele>153.0</ele><time>2026-05-02T06:00:48Z</time></trkpt><trkpt lat="42.46081340683948" lon="14.1065043575243"><ele>150.0</ele><time>2026-05-02T06:00:49Z</time></trkpt><trkpt lat="42.46067852623077" lon="14.106590599910737"><ele>147.0</ele><time>2026-05-02T06:00:50Z</time></trkpt><trkpt lat="42.46056869600402" lon="14.106731496167916"><ele>144.0</ele><time>2026-05-02T06:00:51Z</time></trkpt><trkpt lat="42.46048341912327" lon="14.106906818451144"><ele>149.33333333333334</ele><time>2026-05-02T06:00:52Z</time></trkpt><trkpt lat="42.460418935372346" lon="14.107105880178253"><ele>154.66666666666669</ele><time>2026-05-02T06:00:53Z</time></trkpt><trkpt lat="42.46036533487463" lon="14.10731115890419"><ele>160.0</ele><time>2026-05-02T06:00:54Z</time></trkpt><trkpt lat="42.46032619626951" lon="14.107522559618642"><ele>160.0</ele><time>2026-05-02T06:00:55Z</time></trkpt><trkpt lat="42.46029548552123" lon="14.107727848540387"><ele>160.0</ele><time>2026-05-02T06:00:56Z</time></trkpt><trkpt lat="42.460256814310085" lon="14.107931036958805"><ele>160.0</ele><time>2026-05-02T06:00:57Z</time></trkpt><trkpt lat="42.460183855432355" lon="14.108108535216934"><ele>159.0</ele><time>2026-05-02T06:00:58Z</time></trkpt><trkpt lat="42.46011076394087" lon="14.108297768707454"><ele>158.0</ele><time>2026-05-02T06:00:59Z</time></trkpt><trkpt lat="42.460050234847934" lon="14.108499265411837"><ele>157.0</ele><time>2026-05-02T06:01:00Z</time></trkpt><trkpt lat="42.459973947315824" lon="14.108693304924296"><ele>157.0</ele><time>2026-05-02T06:01:01Z</time></trkpt><trkpt lat="42.4599024998823" lon="14.108878533361093"><ele>157.0</ele><time>2026-05-02T06:01:02Z</time></trkpt><trkpt lat="42.45982834234755" lon="14.109044808269436"><ele>157.0</ele><time>2026-05-02T06:01:03Z</time></trkpt><trkpt lat="42.45973092332061" lon="14.109191669846634"><ele>157.0</ele><time>2026-05-02T06:01:04Z</time></trkpt><trkpt lat="42.45959817883456" lon="14.109304119574363"><ele>159.33333333333334</ele><time>2026-05-02T06:01:05Z</time></trkpt><trkpt lat="42.459462468197955" lon="14.10943161672122"><ele>161.66666666666666</ele><time>2026-05-02T06:01:06Z</time></trkpt><trkpt lat="42.45933139925839" lon="14.10956337021184"><ele>164.0</ele><time>2026-05-02T06:01:07Z</time></trkpt><trkpt lat="42.45922355818325" lon="14.109716661660237"><ele>164.0</ele><time>2026-05-02T06:01:08Z</time></trkpt><trkpt lat="42.45911687679006" lon="14.109852280391006"><ele>164.0</ele><time>2026-05-02T06:01:09Z</time></trkpt><trkpt lat="42.45901185965093" lon="14.11000007244708"><ele>164.0</ele><time>2026-05-02T06:01:10Z</time></trkpt><trkpt lat="42.458909278978254" lon="14.110162858865396"><ele>162.0</ele><time>2026-05-02T06:01:11Z</time></trkpt><trkpt lat="42.458807866655164" lon="14.110336702681055"><ele>160.0</ele><time>2026-05-02T06:01:12Z</time></trkpt><trkpt lat="42.45870071701909" lon="14.110510820373577"><ele>158.0</ele><time>2026-05-02T06:01:13Z</time></trkpt><trkpt lat="42.4585955598112" lon="14.110688936680559"><ele>159.0</ele><time>2026-05-02T06:01:14Z</time></trkpt><trkpt lat="42.45849449707157" lon="14.110855969673255"><ele>160.0</ele><time>2026-05-02T06:01:15Z</time></trkpt><trkpt lat="42.458406037540016" lon="14.111011299150507"><ele>161.0</ele><time>2026-05-02T06:01:16Z</time></trkpt><trkpt lat="42.45832587818117" lon="14.1111424634991"><ele>162.0</ele><time>2026-05-02T06:01:17Z</time></trkpt><trkpt lat="42.45823483453127" lon="14.111236014917104"><ele>162.0</ele><time>2026-05-02T06:01:18Z</time></trkpt><trkpt lat="42.45814730454094" lon="14.111311929890231"><ele>162.0</ele><time>2026-05-02T06:01:19Z</time></trkpt><trkpt lat="42.458047243162646" lon="14.11126489337268"><ele>162.0</ele><time>2026-05-02T06:01:20Z</time></trkpt><trkpt lat="42.45797222274111" lon="14.111179685405578"><ele>162.0</ele><time>2026-05-02T06:01:21Z</time></trkpt><trkpt lat="42.45793929324392" lon="14.111051580060153"><ele>162.0</ele><time>2026-05-02T06:01:22Z</time></trkpt><trkpt lat="42.45788860470274" lon="14.110918669908692"><ele>164.6</ele><time>2026-05-02T06:01:23Z</time></trkpt><trkpt lat="42.457860262605216" lon="14.110808503652507"><ele>167.2</ele><time>2026-05-02T06:01:24Z</time></trkpt><trkpt lat="42.4578009885545" lon="14.110748264486672"><ele>169.8</ele><time>2026-05-02T06:01:25Z</time></trkpt><trkpt lat="42.45765512381042" lon="14.110861565087756"><ele>172.4</ele><time>2026-05-02T06:01:27Z</time></trkpt><trkpt lat="42.4576482788492" lon="14.110980454445837"><ele>175.0</ele><time>2026-05-02T06:01:28Z</time></trkpt><trkpt lat="42.45769521117446" lon="14.111093556726711"><ele>175.0</ele><time>2026-05-02T06:01:29Z</time></trkpt><trkpt lat="42.457748416107265" lon="14.111220478044457"><ele>175.0</ele><time>2026-05-02T06:01:30Z</time></trkpt><trkpt lat="42.45778198896753" lon="14.111380566639895"><ele>175.0</ele><time>2026-05-02T06:01:31Z</time></trkpt><trkpt lat="42.45783491628126" lon="14.111543196442055"><ele>175.0</ele><time>2026-05-02T06:01:32Z</time></trkpt><trkpt lat="42.45787540471808" lon="14.111707598090902"><ele>175.0</ele><time>2026-05-02T06:01:33Z</time></trkpt><trkpt lat="42.45791084233882" lon="14.11189308560108"><ele>175.0</ele><time>2026-05-02T06:01:34Z</time></trkpt><trkpt lat="42.45792243713071" lon="14.112088482653522"><ele>175.0</ele><time>2026-05-02T06:01:35Z</time></trkpt><trkpt lat="42.45800191245338" lon="14.112252429937678"><ele>175.0</ele><time>2026-05-02T06:01:36Z</time></trkpt><trkpt lat="42.45804613395493" lon="14.112434910019967"><ele>175.0</ele><time>2026-05-02T06:01:37Z</time></trkpt><trkpt lat="42.45808256398227" lon="14.112610081084586"><ele>175.0</ele><time>2026-05-02T06:01:38Z</time></trkpt><trkpt lat="42.458092328134455" lon="14.112774024116964"><ele>175.0</ele><time>2026-05-02T06:01:39Z</time></trkpt><trkpt lat="42.45809905649366" lon="14.112940474627841"><ele>175.0</ele><time>2026-05-02T06:01:40Z</time></trkpt><trkpt lat="42.45808712534112" lon="14.113109121629392"><ele>175.75</ele><time>2026-05-02T06:01:41Z</time></trkpt><trkpt lat="42.45802916609255" lon="14.113258995215809"><ele>176.5</ele><time>2026-05-02T06:01:42Z</time></trkpt><trkpt lat="42.45797128646386" lon="14.113411673414761"><ele>177.25</ele><time>2026-05-02T06:01:42.999Z</time></trkpt><trkpt lat="42.457935507691644" lon="14.113570330464526"><ele>178.0</ele><time>2026-05-02T06:01:43.999Z</time></trkpt><trkpt lat="42.4578945718654" lon="14.113733066730234"><ele>178.5</ele><time>2026-05-02T06:01:44.999Z</time></trkpt><trkpt lat="42.45787932118172" lon="14.113916770409736"><ele>179.0</ele><time>2026-05-02T06:01:45.999Z</time></trkpt><trkpt lat="42.457889772778906" lon="14.114122519368223"><ele>179.5</ele><time>2026-05-02T06:01:46.999Z</time></trkpt><trkpt lat="42.45791005661033" lon="14.114330607527604"><ele>180.0</ele><time>2026-05-02T06:01:47.999Z</time></trkpt><trkpt lat="42.45791755470083" lon="14.114528530644872"><ele>177.0</ele><time>2026-05-02T06:01:48.999Z</time></trkpt><trkpt lat="42.45786976970741" lon="14.114706140032586"><ele>174.0</ele><time>2026-05-02T06:01:49.999Z</time></trkpt><trkpt lat="42.457828486569504" lon="14.114880065704208"><ele>171.0</ele><time>2026-05-02T06:01:50.999Z</time></trkpt><trkpt lat="42.45780373434775" lon="14.11504263464418"><ele>168.0</ele><time>2026-05-02T06:01:51.999Z</time></trkpt><trkpt lat="42.45777150380584" lon="14.115201027605167"><ele>167.75</ele><time>2026-05-02T06:01:52.999Z</time></trkpt><trkpt lat="42.45778005881763" lon="14.115371075420738"><ele>167.5</ele><time>2026-05-02T06:01:53.999Z</time></trkpt><trkpt lat="42.45783011716948" lon="14.115537941262195"><ele>167.25</ele><time>2026-05-02T06:01:54.999Z</time></trkpt><trkpt lat="42.45792499098754" lon="14.11566938097059"><ele>167.0</ele><time>2026-05-02T06:01:55.999Z</time></trkpt><trkpt lat="42.458050222795464" lon="14.115785502914065"><ele>167.0</ele><time>2026-05-02T06:01:56.999Z</time></trkpt><trkpt lat="42.458183613194485" lon="14.115900864407765"><ele>167.0</ele><time>2026-05-02T06:01:57.999Z</time></trkpt><trkpt lat="42.45832651189672" lon="14.116032947980285"><ele>167.0</ele><time>2026-05-02T06:01:58.999Z</time></trkpt><trkpt lat="42.45843876869472" lon="14.116169970745839"><ele>167.0</ele><time>2026-05-02T06:01:59.999Z</time></trkpt><trkpt lat="42.45854680712795" lon="14.116303668360732"><ele>167.0</ele><time>2026-05-02T06:02:00.999Z</time></trkpt><trkpt lat="42.45865740033414" lon="14.116432701924758"><ele>167.0</ele><time>2026-05-02T06:02:01.999Z</time></trkpt><trkpt lat="42.45877145527759" lon="14.116559152881297"><ele>167.0</ele><time>2026-05-02T06:02:02.999Z</time></trkpt><trkpt lat="42.4588855683517" lon="14.116674464906808"><ele>166.0</ele><time>2026-05-02T06:02:03.999Z</time></trkpt><trkpt lat="42.4590034122481" lon="14.11678179244048"><ele>165.0</ele><time>2026-05-02T06:02:04.999Z</time></trkpt><trkpt lat="42.45912587531849" lon="14.116880844684097"><ele>164.0</ele><time>2026-05-02T06:02:05.999Z</time></trkpt><trkpt lat="42.45925123322131" lon="14.11697761492321"><ele>163.0</ele><time>2026-05-02T06:02:06.999Z</time></trkpt><trkpt lat="42.4593732045957" lon="14.117076768176323"><ele>163.0</ele><time>2026-05-02T06:02:07.999Z</time></trkpt><trkpt lat="42.45949513133666" lon="14.117174956904751"><ele>163.0</ele><time>2026-05-02T06:02:08.999Z</time></trkpt><trkpt lat="42.459617267908364" lon="14.117275764798402"><ele>163.0</ele><time>2026-05-02T06:02:09.999Z</time></trkpt><trkpt lat="42.459739222959676" lon="14.117373941499864"><ele>163.0</ele><time>2026-05-02T06:02:10.999Z</time></trkpt><trkpt lat="42.459861665533566" lon="14.117473242887515"><ele>162.25</ele><time>2026-05-02T06:02:11.999Z</time></trkpt><trkpt lat="42.45998437427737" lon="14.117572524200279"><ele>161.5</ele><time>2026-05-02T06:02:12.999Z</time></trkpt><trkpt lat="42.460107955833905" lon="14.117670875241576"><ele>160.75</ele><time>2026-05-02T06:02:13.999Z</time></trkpt><trkpt lat="42.460229162160836" lon="14.117760233256782"><ele>160.0</ele><time>2026-05-02T06:02:14.999Z</time></trkpt><trkpt lat="42.46031602114224" lon="14.117864687079294"><ele>160.0</ele><time>2026-05-02T06:02:15.999Z</time></trkpt><trkpt lat="42.4603957941932" lon="14.117953692553531"><ele>160.0</ele><time>2026-05-02T06:02:16.999Z</time></trkpt><trkpt lat="42.46044166312808" lon="14.118047963046596"><ele>160.0</ele><time>2026-05-02T06:02:17.999Z</time></trkpt><trkpt lat="42.46048220452108" lon="14.118221498823301"><ele>160.0</ele><time>2026-05-02T06:02:18.999Z</time></trkpt><trkpt lat="42.46047230307723" lon="14.118442319425222"><ele>158.75</ele><time>2026-05-02T06:02:19.999Z</time></trkpt><trkpt lat="42.46043034647949" lon="14.11863822109468"><ele>157.5</ele><time>2026-05-02T06:02:20.999Z</time></trkpt><trkpt lat="42.46044100315774" lon="14.118745349001152"><ele>156.25</ele><time>2026-05-02T06:02:21.999Z</time></trkpt><trkpt lat="42.460400331196055" lon="14.118891281154381"><ele>155.0</ele><time>2026-05-02T06:02:22.999Z</time></trkpt><trkpt lat="42.460358895271206" lon="14.119025538925282"><ele>155.83333333333331</ele><time>2026-05-02T06:02:23.999Z</time></trkpt><trkpt lat="42.46031727008026" lon="14.119152252055184"><ele>156.66666666666666</ele><time>2026-05-02T06:02:24.999Z</time></trkpt><trkpt lat="42.46027415929291" lon="14.119269469057354"><ele>157.5</ele><time>2026-05-02T06:02:25.999Z</time></trkpt><trkpt lat="42.460233229803215" lon="14.119364335690952"><ele>158.33333333333334</ele><time>2026-05-02T06:02:26.999Z</time></trkpt><trkpt lat="42.460198588467804" lon="14.119441964183178"><ele>159.16666666666669</ele><time>2026-05-02T06:02:27.999Z</time></trkpt><trkpt lat="42.46016324591234" lon="14.119521164044938"><ele>160.0</ele><time>2026-05-02T06:02:29.001Z</time></trkpt><trkpt lat="42.46010359017589" lon="14.119626690586832"><ele>160.0</ele><time>2026-05-02T06:02:31Z</time></trkpt><trkpt lat="42.45998793653674" lon="14.119692434800054"><ele>160.0</ele><time>2026-05-02T06:02:33.001Z</time></trkpt><trkpt lat="42.4599267087783" lon="14.119741170658063"><ele>160.0</ele><time>2026-05-02T06:02:34Z</time></trkpt><trkpt lat="42.45987281621189" lon="14.119821333274958"><ele>160.0</ele><time>2026-05-02T06:02:35.001Z</time></trkpt><trkpt lat="42.459830798991085" lon="14.119934414481072"><ele>160.0</ele><time>2026-05-02T06:02:36.001Z</time></trkpt><trkpt lat="42.45983102063251" lon="14.120080297958989"><ele>160.0</ele><time>2026-05-02T06:02:37Z</time></trkpt><trkpt lat="42.45970754818895" lon="14.120178058892465"><ele>160.0</ele><time>2026-05-02T06:02:38Z</time></trkpt><trkpt lat="42.45959660976997" lon="14.120291522749678"><ele>160.0</ele><time>2026-05-02T06:02:39.001Z</time></trkpt><trkpt lat="42.459484208297255" lon="14.120404581512794"><ele>160.0</ele><time>2026-05-02T06:02:40Z</time></trkpt><trkpt lat="42.45939136507345" lon="14.120517976775206"><ele>160.0</ele><time>2026-05-02T06:02:41Z</time></trkpt><trkpt lat="42.45930210549851" lon="14.120604170597911"><ele>160.0</ele><time>2026-05-02T06:02:42.001Z</time></trkpt><trkpt lat="42.45922704111036" lon="14.12068733955735"><ele>160.0</ele><time>2026-05-02T06:02:43Z</time></trkpt><trkpt lat="42.459154988919856" lon="14.120764200880496"><ele>160.0</ele><time>2026-05-02T06:02:44Z</time></trkpt><trkpt lat="42.45909178867202" lon="14.120832713437176"><ele>160.0</ele><time>2026-05-02T06:02:45Z</time></trkpt><trkpt lat="42.45902548289359" lon="14.120911518716865"><ele>160.0</ele><time>2026-05-02T06:02:46Z</time></trkpt><trkpt lat="42.45895357205313" lon="14.120962440912338"><ele>160.0</ele><time>2026-05-02T06:02:47Z</time></trkpt><trkpt lat="42.45886672584378" lon="14.121056368690907"><ele>160.0</ele><time>2026-05-02T06:02:49Z</time></trkpt><trkpt lat="42.458796754826594" lon="14.120935210900251"><ele>160.0</ele><time>2026-05-02T06:02:51Z</time></trkpt><trkpt lat="42.458714356337865" lon="14.120890519716795"><ele>160.0</ele><time>2026-05-02T06:02:52Z</time></trkpt><trkpt lat="42.45864540397097" lon="14.120805110506453"><ele>160.14285714285714</ele><time>2026-05-02T06:02:53Z</time></trkpt><trkpt lat="42.45857914782842" lon="14.120735263300855"><ele>160.28571428571428</ele><time>2026-05-02T06:02:54Z</time></trkpt><trkpt lat="42.45852332037352" lon="14.120680731051893"><ele>160.42857142857144</ele><time>2026-05-02T06:02:55Z</time></trkpt><trkpt lat="42.45849113373704" lon="14.12060105304117"><ele>160.57142857142856</ele><time>2026-05-02T06:02:56Z</time></trkpt><trkpt lat="42.45843992672872" lon="14.12054430008922"><ele>160.71428571428572</ele><time>2026-05-02T06:02:57Z</time></trkpt><trkpt lat="42.45838558018589" lon="14.12048610785899"><ele>160.85714285714286</ele><time>2026-05-02T06:02:58Z</time></trkpt><trkpt lat="42.45833049339585" lon="14.12043052647804"><ele>161.0</ele><time>2026-05-02T06:02:59Z</time></trkpt><trkpt lat="42.45827680068056" lon="14.120376352571794"><ele>159.5</ele><time>2026-05-02T06:03:00Z</time></trkpt><trkpt lat="42.45821652657541" lon="14.120337531000073"><ele>158.0</ele><time>2026-05-02T06:03:01Z</time></trkpt><trkpt lat="42.45817279973247" lon="14.12027142107784"><ele>156.5</ele><time>2026-05-02T06:03:02Z</time></trkpt><trkpt lat="42.45812023715658" lon="14.12021838819836"><ele>155.0</ele><time>2026-05-02T06:03:03Z</time></trkpt><trkpt lat="42.45802609560128" lon="14.120134844092275"><ele>153.5</ele><time>2026-05-02T06:03:05Z</time></trkpt><trkpt lat="42.45791638154102" lon="14.120030646018954"><ele>152.0</ele><time>2026-05-02T06:03:07Z</time></trkpt><trkpt lat="42.457870672756265" lon="14.119949661837833"><ele>148.66666666666666</ele><time>2026-05-02T06:03:08Z</time></trkpt><trkpt lat="42.45782340813241" lon="14.119873403862215"><ele>145.33333333333331</ele><time>2026-05-02T06:03:09Z</time></trkpt><trkpt lat="42.45775988256662" lon="14.119746035696563"><ele>142.0</ele><time>2026-05-02T06:03:11Z</time></trkpt><trkpt lat="42.45769713515327" lon="14.119648721510714"><ele>138.66666666666666</ele><time>2026-05-02T06:03:13Z</time></trkpt><trkpt lat="42.4576432641129" lon="14.119570441880107"><ele>135.33333333333334</ele><time>2026-05-02T06:03:15Z</time></trkpt><trkpt lat="42.45758608779678" lon="14.119500387361798"><ele>132.0</ele><time>2026-05-02T06:03:18Z</time></trkpt><trkpt lat="42.457531250751956" lon="14.119437082978255"><ele>132.0</ele><time>2026-05-02T06:03:21Z</time></trkpt><trkpt lat="42.45747279249642" lon="14.119371434983043"><ele>132.0</ele><time>2026-05-02T06:03:23Z</time></trkpt><trkpt lat="42.45740323210812" lon="14.11931085586418"><ele>132.0</ele><time>2026-05-02T06:03:26Z</time></trkpt><trkpt lat="42.45730984665069" lon="14.119280343362021"><ele>132.0</ele><time>2026-05-02T06:03:29Z</time></trkpt><trkpt lat="42.457223690504016" lon="14.11927428765655"><ele>132.0</ele><time>2026-05-02T06:03:31Z</time></trkpt><trkpt lat="42.45714683482531" lon="14.119264907299847"><ele>132.0</ele><time>2026-05-02T06:03:33Z</time></trkpt><trkpt lat="42.45705681613357" lon="14.119262028106172"><ele>130.4</ele><time>2026-05-02T06:03:35Z</time></trkpt><trkpt lat="42.456948320434435" lon="14.119266821529388"><ele>128.79999999999998</ele><time>2026-05-02T06:03:37Z</time></trkpt><trkpt lat="42.45683353125343" lon="14.119280307284129"><ele>127.2</ele><time>2026-05-02T06:03:39Z</time></trkpt><trkpt lat="42.456720489905585" lon="14.119299856537715"><ele>125.6</ele><time>2026-05-02T06:03:41Z</time></trkpt><trkpt lat="42.45663087702251" lon="14.119336474321244"><ele>124.0</ele><time>2026-05-02T06:03:43Z</time></trkpt><trkpt lat="42.45656812385826" lon="14.119348487485045"><ele>124.00000000000001</ele><time>2026-05-02T06:03:45Z</time></trkpt><trkpt lat="42.456499074917005" lon="14.119335789814317"><ele>124.0</ele><time>2026-05-02T06:03:48.999Z</time></trkpt><trkpt lat="42.45641039342455" lon="14.119324448293733"><ele>124.0</ele><time>2026-05-02T06:03:51.999Z</time></trkpt><trkpt lat="42.45634482161187" lon="14.11933755023353"><ele>124.0</ele><time>2026-05-02T06:03:57.999Z</time></trkpt><trkpt lat="42.45627842556664" lon="14.11934756154421"><ele>124.00000000000001</ele><time>2026-05-02T06:04:06.999Z</time></trkpt><trkpt lat="42.4561937376841" lon="14.119358937274411"><ele>124.0</ele><time>2026-05-02T06:04:19.999Z</time></trkpt><trkpt lat="42.45612100642356" lon="14.11936415989829"><ele>123.28571428571429</ele><time>2026-05-02T06:04:21.999Z</time></trkpt><trkpt lat="42.456053793590264" lon="14.119344535096877"><ele>122.57142857142858</ele><time>2026-05-02T06:04:48Z</time></trkpt><trkpt lat="42.455989136161726" lon="14.119340581394928"><ele>121.85714285714286</ele><time>2026-05-02T06:04:52Z</time></trkpt><trkpt lat="42.45591491321828" lon="14.11931237370318"><ele>121.14285714285714</ele><time>2026-05-02T06:04:58Z</time></trkpt><trkpt lat="42.455846933881396" lon="14.119277130245221"><ele>120.42857142857143</ele><time>2026-05-02T06:05:02Z</time></trkpt><trkpt lat="42.455783914274704" lon="14.11925018199516"><ele>119.71428571428572</ele><time>2026-05-02T06:05:10Z</time></trkpt><trkpt lat="42.455719675704934" lon="14.1192280787689"><ele>119.0</ele><time>2026-05-02T06:05:21Z</time></trkpt><trkpt lat="42.455655230539534" lon="14.119212202794069"><ele>119.0</ele><time>2026-05-02T06:05:29Z</time></trkpt><trkpt lat="42.45558485559818" lon="14.119216118865223"><ele>119.0</ele><time>2026-05-02T06:05:36Z</time></trkpt><trkpt lat="42.455519423528294" lon="14.119221145955208"><ele>119.0</ele><time>2026-05-02T06:05:43Z</time></trkpt><trkpt lat="42.45545142941346" lon="14.119225563934696"><ele>119.0</ele><time>2026-05-02T06:05:49Z</time></trkpt><trkpt lat="42.455381981267195" lon="14.119217418005137"><ele>119.0</ele><time>2026-05-02T06:05:51.999Z</time></trkpt><trkpt lat="42.45530926394252" lon="14.11923218608599"><ele>119.0</ele><time>2026-05-02T06:05:55.999Z</time></trkpt><trkpt lat="42.455242372178446" lon="14.1192492161574"><ele>119.0</ele><time>2026-05-02T06:06:00.999Z</time></trkpt><trkpt lat="42.45517434919733" lon="14.119242990040364"><ele>118.28571428571428</ele><time>2026-05-02T06:06:06.999Z</time></trkpt><trkpt lat="42.455106933430436" lon="14.119228145723293"><ele>117.57142857142857</ele><time>2026-05-02T06:06:13.999Z</time></trkpt><trkpt lat="42.45503782787949" lon="14.119223760247333"><ele>116.85714285714286</ele><time>2026-05-02T06:06:17.999Z</time></trkpt><trkpt lat="42.45496033139588" lon="14.119209548930685"><ele>116.14285714285714</ele><time>2026-05-02T06:06:26.999Z</time></trkpt><trkpt lat="42.45488899943928" lon="14.119187047747088"><ele>115.42857142857142</ele><time>2026-05-02T06:06:32.999Z</time></trkpt><trkpt lat="42.454827813992615" lon="14.11914257773246"><ele>114.71428571428571</ele><time>2026-05-02T06:06:37.999Z</time></trkpt><trkpt lat="42.4547979159161" lon="14.11905013944427"><ele>114.0</ele><time>2026-05-02T06:06:44Z</time></trkpt><trkpt lat="42.45480722377777" lon="14.118936093952142"><ele>114.33333333333333</ele><time>2026-05-02T06:06:47Z</time></trkpt><trkpt lat="42.454824351992066" lon="14.118846088584746"><ele>114.66666666666666</ele><time>2026-05-02T06:06:49Z</time></trkpt><trkpt lat="42.45485229711739" lon="14.118740432060966"><ele>115.0</ele><time>2026-05-02T06:06:51Z</time></trkpt><trkpt lat="42.45485806979694" lon="14.118577191245054"><ele>115.33333333333333</ele><time>2026-05-02T06:06:53Z</time></trkpt><trkpt lat="42.45485667602223" lon="14.118478571363694"><ele>115.66666666666666</ele><time>2026-05-02T06:06:54Z</time></trkpt><trkpt lat="42.454869766317344" lon="14.118341341978878"><ele>116.0</ele><time>2026-05-02T06:06:56Z</time></trkpt><trkpt lat="42.45487953298284" lon="14.118214830733802"><ele>116.0</ele><time>2026-05-02T06:06:58Z</time></trkpt><trkpt lat="42.454907359866276" lon="14.118078102779098"><ele>116.0</ele><time>2026-05-02T06:07:00Z</time></trkpt><trkpt lat="42.45493649597424" lon="14.117959772681642"><ele>116.0</ele><time>2026-05-02T06:07:02Z</time></trkpt><trkpt lat="42.454952129426545" lon="14.117831318773458"><ele>116.0</ele><time>2026-05-02T06:07:04Z</time></trkpt><trkpt lat="42.454963387657514" lon="14.117690301660437"><ele>116.0</ele><time>2026-05-02T06:07:06Z</time></trkpt><trkpt lat="42.454971687923795" lon="14.117521983782641"><ele>116.0</ele><time>2026-05-02T06:07:08Z</time></trkpt><trkpt lat="42.4549773242832" lon="14.117426962362416"><ele>116.0</ele><time>2026-05-02T06:07:09Z</time></trkpt><trkpt lat="42.454977256514624" lon="14.117280487790554"><ele>116.0</ele><time>2026-05-02T06:07:11Z</time></trkpt><trkpt lat="42.454947255121986" lon="14.117196479180857"><ele>116.0</ele><time>2026-05-02T06:07:14Z</time></trkpt><trkpt lat="42.454842653732044" lon="14.117185836167588"><ele>116.0</ele><time>2026-05-02T06:07:17Z</time></trkpt><trkpt lat="42.45472643569524" lon="14.117170004810948"><ele>117.16666666666666</ele><time>2026-05-02T06:07:19Z</time></trkpt><trkpt lat="42.45465077395814" lon="14.117153223349623"><ele>118.33333333333333</ele><time>2026-05-02T06:07:20Z</time></trkpt><trkpt lat="42.454572206369456" lon="14.117124062317348"><ele>119.5</ele><time>2026-05-02T06:07:21Z</time></trkpt><trkpt lat="42.4544913005766" lon="14.117094792378115"><ele>120.66666666666666</ele><time>2026-05-02T06:07:22Z</time></trkpt><trkpt lat="42.454410933471046" lon="14.117078117575526"><ele>121.83333333333333</ele><time>2026-05-02T06:07:23Z</time></trkpt><trkpt lat="42.45432691039141" lon="14.11705871019241"><ele>123.0</ele><time>2026-05-02T06:07:24Z</time></trkpt><trkpt lat="42.45424709704707" lon="14.117040550991916"><ele>123.33333333333333</ele><time>2026-05-02T06:07:25Z</time></trkpt><trkpt lat="42.45416366296707" lon="14.117032671028184"><ele>123.66666666666666</ele><time>2026-05-02T06:07:26Z</time></trkpt><trkpt lat="42.45407031096389" lon="14.117014190560253"><ele>124.0</ele><time>2026-05-02T06:07:27Z</time></trkpt><trkpt lat="42.453973009688845" lon="14.116992322675916"><ele>124.33333333333333</ele><time>2026-05-02T06:07:28Z</time></trkpt><trkpt lat="42.453881457864775" lon="14.116980551678564"><ele>124.66666666666666</ele><time>2026-05-02T06:07:29Z</time></trkpt><trkpt lat="42.45380505326547" lon="14.11696688089428"><ele>125.0</ele><time>2026-05-02T06:07:30Z</time></trkpt><trkpt lat="42.45373922071035" lon="14.116957928832905"><ele>125.33333333333333</ele><time>2026-05-02T06:07:31Z</time></trkpt><trkpt lat="42.45361516312716" lon="14.116977827333887"><ele>125.66666666666666</ele><time>2026-05-02T06:07:33Z</time></trkpt><trkpt lat="42.45355539995566" lon="14.117017800302987"><ele>126.0</ele><time>2026-05-02T06:07:34Z</time></trkpt><trkpt lat="42.45348990369193" lon="14.117077310740157"><ele>126.33333333333334</ele><time>2026-05-02T06:07:35Z</time></trkpt><trkpt lat="42.453419431081315" lon="14.11715344905168"><ele>126.66666666666667</ele><time>2026-05-02T06:07:36Z</time></trkpt><trkpt lat="42.45335935418752" lon="14.117227818132495"><ele>127.0</ele><time>2026-05-02T06:07:37Z</time></trkpt><trkpt lat="42.453301546052934" lon="14.117283967413405"><ele>127.0</ele><time>2026-05-02T06:07:38Z</time></trkpt><trkpt lat="42.45324020486407" lon="14.117322935419221"><ele>127.0</ele><time>2026-05-02T06:07:39Z</time></trkpt><trkpt lat="42.45317115774096" lon="14.117359695956038"><ele>127.0</ele><time>2026-05-02T06:07:40Z</time></trkpt><trkpt lat="42.45310008438199" lon="14.117387811845099"><ele>127.0</ele><time>2026-05-02T06:07:41Z</time></trkpt><trkpt lat="42.45302522681124" lon="14.117406596746894"><ele>127.0</ele><time>2026-05-02T06:07:42Z</time></trkpt><trkpt lat="42.45295576108223" lon="14.117409983757245"><ele>127.0</ele><time>2026-05-02T06:07:43Z</time></trkpt><trkpt lat="42.45287261805336" lon="14.11741619643093"><ele>127.0</ele><time>2026-05-02T06:07:44Z</time></trkpt><trkpt lat="42.45279751397643" lon="14.117416798904955"><ele>127.6</ele><time>2026-05-02T06:07:45Z</time></trkpt><trkpt lat="42.45268356563494" lon="14.117405282011996"><ele>128.2</ele><time>2026-05-02T06:07:47Z</time></trkpt><trkpt lat="42.45258637965937" lon="14.117358588914453"><ele>128.8</ele><time>2026-05-02T06:07:49Z</time></trkpt><trkpt lat="42.45252564788138" lon="14.117247664536718"><ele>129.4</ele><time>2026-05-02T06:07:51Z</time></trkpt><trkpt lat="42.452491298845665" lon="14.11708067002893"><ele>130.0</ele><time>2026-05-02T06:07:53Z</time></trkpt><trkpt lat="42.45244978580522" lon="14.116989993448048"><ele>130.0</ele><time>2026-05-02T06:07:54Z</time></trkpt><trkpt lat="42.45240627269993" lon="14.116889296865425"><ele>130.0</ele><time>2026-05-02T06:07:54.999Z</time></trkpt><trkpt lat="42.45235668437572" lon="14.11679177174072"><ele>130.0</ele><time>2026-05-02T06:07:55.999Z</time></trkpt><trkpt lat="42.4523129875179" lon="14.116699911424956"><ele>130.0</ele><time>2026-05-02T06:07:56.999Z</time></trkpt><trkpt lat="42.45226448488281" lon="14.116612077319333"><ele>130.0</ele><time>2026-05-02T06:07:57.999Z</time></trkpt><trkpt lat="42.45220859406378" lon="14.116540437546385"><ele>130.0</ele><time>2026-05-02T06:07:58.999Z</time></trkpt><trkpt lat="42.45214677922627" lon="14.11647352831214"><ele>131.16666666666669</ele><time>2026-05-02T06:07:59.999Z</time></trkpt><trkpt lat="42.45207994434611" lon="14.116411999898562"><ele>132.33333333333334</ele><time>2026-05-02T06:08:00.999Z</time></trkpt><trkpt lat="42.452004379983656" lon="14.116372269733768"><ele>133.5</ele><time>2026-05-02T06:08:01.999Z</time></trkpt><trkpt lat="42.45191848062711" lon="14.11635693978149"><ele>134.66666666666666</ele><time>2026-05-02T06:08:02.999Z</time></trkpt><trkpt lat="42.45184720318442" lon="14.116358288386065"><ele>135.83333333333331</ele><time>2026-05-02T06:08:03.999Z</time></trkpt><trkpt lat="42.451733093624206" lon="14.116360675795367"><ele>137.0</ele><time>2026-05-02T06:08:05.999Z</time></trkpt><trkpt lat="42.45160124408254" lon="14.11637248818175"><ele>137.0</ele><time>2026-05-02T06:08:07.999Z</time></trkpt><trkpt lat="42.45152861868062" lon="14.116377596505187"><ele>137.0</ele><time>2026-05-02T06:08:08.999Z</time></trkpt><trkpt lat="42.451463053474534" lon="14.116376229380098"><ele>137.0</ele><time>2026-05-02T06:08:09.999Z</time></trkpt><trkpt lat="42.45134638262203" lon="14.116356886686384"><ele>137.0</ele><time>2026-05-02T06:08:11.999Z</time></trkpt><trkpt lat="42.45124341033845" lon="14.11630190066152"><ele>137.0</ele><time>2026-05-02T06:08:13.999Z</time></trkpt><trkpt lat="42.451175077909724" lon="14.116241714797406"><ele>137.0</ele><time>2026-05-02T06:08:15.999Z</time></trkpt><trkpt lat="42.4510935969771" lon="14.116170705636318"><ele>133.2</ele><time>2026-05-02T06:08:19.999Z</time></trkpt><trkpt lat="42.45102155698631" lon="14.116181607714717"><ele>129.39999999999998</ele><time>2026-05-02T06:08:21.999Z</time></trkpt><trkpt lat="42.45092304027157" lon="14.116229155400585"><ele>125.60000000000001</ele><time>2026-05-02T06:08:23.999Z</time></trkpt><trkpt lat="42.45082113115048" lon="14.11628272280714"><ele>121.80000000000001</ele><time>2026-05-02T06:08:25.999Z</time></trkpt><trkpt lat="42.45073007592748" lon="14.116335162249497"><ele>118.0</ele><time>2026-05-02T06:08:27.999Z</time></trkpt><trkpt lat="42.45063851385414" lon="14.116395674455577"><ele>118.0</ele><time>2026-05-02T06:08:29.999Z</time></trkpt><trkpt lat="42.450554002248296" lon="14.116454031059197"><ele>118.00000000000001</ele><time>2026-05-02T06:08:31.999Z</time></trkpt><trkpt lat="42.45049031933259" lon="14.11651950898637"><ele>118.00000000000001</ele><time>2026-05-02T06:08:33.999Z</time></trkpt><trkpt lat="42.450426257885596" lon="14.116589303697706"><ele>118.0</ele><time>2026-05-02T06:08:35.999Z</time></trkpt><trkpt lat="42.45035084224391" lon="14.116667603759314"><ele>118.0</ele><time>2026-05-02T06:08:37.999Z</time></trkpt><trkpt lat="42.45026750626471" lon="14.116756752549575"><ele>115.80000000000001</ele><time>2026-05-02T06:08:39.999Z</time></trkpt><trkpt lat="42.450179386741915" lon="14.116842810774648"><ele>113.60000000000001</ele><time>2026-05-02T06:08:41.999Z</time></trkpt><trkpt lat="42.45010416204751" lon="14.116922026658683"><ele>111.39999999999999</ele><time>2026-05-02T06:08:43.999Z</time></trkpt><trkpt lat="42.450029532257126" lon="14.116989714794373"><ele>109.19999999999999</ele><time>2026-05-02T06:08:45.999Z</time></trkpt><trkpt lat="42.4499472043766" lon="14.117045821307833"><ele>107.0</ele><time>2026-05-02T06:08:48Z</time></trkpt><trkpt lat="42.449862408664494" lon="14.117103856582517"><ele>106.99999999999999</ele><time>2026-05-02T06:08:50Z</time></trkpt><trkpt lat="42.44973948453851" lon="14.117174187735623"><ele>107.0</ele><time>2026-05-02T06:08:52Z</time></trkpt><trkpt lat="42.44967454420013" lon="14.11720530971605"><ele>107.0</ele><time>2026-05-02T06:08:53Z</time></trkpt><trkpt lat="42.449603436487834" lon="14.11723196963572"><ele>107.0</ele><time>2026-05-02T06:08:54Z</time></trkpt><trkpt lat="42.44953208848647" lon="14.117245926142237"><ele>106.99999999999999</ele><time>2026-05-02T06:08:55Z</time></trkpt><trkpt lat="42.44945880906847" lon="14.117251404117498"><ele>107.0</ele><time>2026-05-02T06:08:56Z</time></trkpt><trkpt lat="42.44938463648183" lon="14.117246829567799"><ele>105.33333333333333</ele><time>2026-05-02T06:08:57Z</time></trkpt><trkpt lat="42.44931373783728" lon="14.117228946727375"><ele>103.66666666666666</ele><time>2026-05-02T06:08:58Z</time></trkpt><trkpt lat="42.44923322853743" lon="14.117194443216444"><ele>102.0</ele><time>2026-05-02T06:08:59Z</time></trkpt><trkpt lat="42.44915656227413" lon="14.117161443921374"><ele>100.33333333333334</ele><time>2026-05-02T06:09:00Z</time></trkpt><trkpt lat="42.449089953198644" lon="14.117147187142013"><ele>98.66666666666667</ele><time>2026-05-02T06:09:01Z</time></trkpt><trkpt lat="42.449027293434185" lon="14.117135000685067"><ele>97.0</ele><time>2026-05-02T06:09:02Z</time></trkpt><trkpt lat="42.44891667552091" lon="14.117111264499195"><ele>97.00000000000001</ele><time>2026-05-02T06:09:04Z</time></trkpt><trkpt lat="42.44880497066587" lon="14.11708024495349"><ele>97.0</ele><time>2026-05-02T06:09:06Z</time></trkpt><trkpt lat="42.44869986205539" lon="14.11707032005307"><ele>97.0</ele><time>2026-05-02T06:09:08Z</time></trkpt><trkpt lat="42.448629458470634" lon="14.11707671076246"><ele>97.0</ele><time>2026-05-02T06:09:10Z</time></trkpt><trkpt lat="42.44856890266505" lon="14.117122758072984"><ele>97.00000000000001</ele><time>2026-05-02T06:09:18Z</time></trkpt><trkpt lat="42.44853366538016" lon="14.117200688524822"><ele>97.0</ele><time>2026-05-02T06:09:21Z</time></trkpt><trkpt lat="42.44851256092179" lon="14.117330612203563"><ele>95.66666666666667</ele><time>2026-05-02T06:09:23Z</time></trkpt><trkpt lat="42.44849551704398" lon="14.117435446352937"><ele>94.33333333333334</ele><time>2026-05-02T06:09:25Z</time></trkpt><trkpt lat="42.44847532943118" lon="14.117585985110082"><ele>93.0</ele><time>2026-05-02T06:09:27Z</time></trkpt><trkpt lat="42.448483412274896" lon="14.11768689136844"><ele>91.66666666666667</ele><time>2026-05-02T06:09:28Z</time></trkpt><trkpt lat="42.44851652972868" lon="14.11781307356793"><ele>90.33333333333334</ele><time>2026-05-02T06:09:30Z</time></trkpt><trkpt lat="42.4485378547766" lon="14.117908228266412"><ele>89.0</ele><time>2026-05-02T06:09:32Z</time></trkpt><trkpt lat="42.448545429292025" lon="14.118007291968363"><ele>89.0</ele><time>2026-05-02T06:09:35Z</time></trkpt><trkpt lat="42.448535287776345" lon="14.118115798982744"><ele>89.0</ele><time>2026-05-02T06:09:38Z</time></trkpt><trkpt lat="42.44852168087921" lon="14.118233532243035"><ele>89.0</ele><time>2026-05-02T06:09:40Z</time></trkpt><trkpt lat="42.4485473947404" lon="14.118409537773056"><ele>89.0</ele><time>2026-05-02T06:09:42Z</time></trkpt><trkpt lat="42.448566286659606" lon="14.118517328860328"><ele>89.0</ele><time>2026-05-02T06:09:43Z</time></trkpt><trkpt lat="42.44857864711669" lon="14.118621951166942"><ele>89.0</ele><time>2026-05-02T06:09:44Z</time></trkpt><trkpt lat="42.448584836010966" lon="14.11871756532069"><ele>89.0</ele><time>2026-05-02T06:09:45Z</time></trkpt><trkpt lat="42.4485924315675" lon="14.11880726110006"><ele>89.0</ele><time>2026-05-02T06:09:46Z</time></trkpt><trkpt lat="42.44860151990899" lon="14.118895227758012"><ele>89.0</ele><time>2026-05-02T06:09:47Z</time></trkpt><trkpt lat="42.44861365385178" lon="14.119048294816052"><ele>89.0</ele><time>2026-05-02T06:09:49Z</time></trkpt><trkpt lat="42.44862270641169" lon="14.119187777318999"><ele>89.0</ele><time>2026-05-02T06:09:51Z</time></trkpt><trkpt lat="42.44862462394536" lon="14.119278487521434"><ele>89.99999999999999</ele><time>2026-05-02T06:09:53Z</time></trkpt><trkpt lat="42.448628108251256" lon="14.119369783652116"><ele>91.0</ele><time>2026-05-02T06:09:55Z</time></trkpt><trkpt lat="42.44862875567632" lon="14.119459002153357"><ele>92.0</ele><time>2026-05-02T06:09:57Z</time></trkpt><trkpt lat="42.44863337166583" lon="14.119558630278856"><ele>93.0</ele><time>2026-05-02T06:09:59Z</time></trkpt><trkpt lat="42.4486394279425" lon="14.119655043202922"><ele>94.0</ele><time>2026-05-02T06:10:01.999Z</time></trkpt><trkpt lat="42.44864262063197" lon="14.119756968401957"><ele>94.99999999999999</ele><time>2026-05-02T06:10:07.999Z</time></trkpt><trkpt lat="42.44864512898606" lon="14.119849475255535"><ele>96.0</ele><time>2026-05-02T06:10:11.999Z</time></trkpt><trkpt lat="42.44865326553657" lon="14.119936817282358"><ele>97.42857142857142</ele><time>2026-05-02T06:10:24.999Z</time></trkpt><trkpt lat="42.448653677064904" lon="14.120032484831023"><ele>98.85714285714286</ele><time>2026-05-02T06:10:28.999Z</time></trkpt><trkpt lat="42.44865847838536" lon="14.120122221103786"><ele>100.28571428571428</ele><time>2026-05-02T06:10:46.999Z</time></trkpt><trkpt lat="42.44866031968661" lon="14.120207902356537"><ele>101.71428571428571</ele><time>2026-05-02T06:10:49.999Z</time></trkpt><trkpt lat="42.448666357512714" lon="14.120298978154082"><ele>103.14285714285714</ele><time>2026-05-02T06:10:53Z</time></trkpt><trkpt lat="42.44866139533764" lon="14.120397353657387"><ele>104.57142857142857</ele><time>2026-05-02T06:11:03Z</time></trkpt><trkpt lat="42.448660566121966" lon="14.120491173884377"><ele>106.0</ele><time>2026-05-02T06:11:12Z</time></trkpt><trkpt lat="42.44865577400308" lon="14.120583866469884"><ele>106.00000000000001</ele><time>2026-05-02T06:11:17Z</time></trkpt><trkpt lat="42.448697489256524" lon="14.120683452495703"><ele>106.0</ele><time>2026-05-02T06:11:24Z</time></trkpt><trkpt lat="42.44866070567061" lon="14.120775137652098"><ele>106.0</ele><time>2026-05-02T06:11:28Z</time></trkpt><trkpt lat="42.4486641272786" lon="14.120890554468197"><ele>106.0</ele><time>2026-05-02T06:11:31Z</time></trkpt><trkpt lat="42.44867463256668" lon="14.120996523806102"><ele>106.00000000000001</ele><time>2026-05-02T06:11:35Z</time></trkpt><trkpt lat="42.44866839956672" lon="14.12109842943646"><ele>106.0</ele><time>2026-05-02T06:11:37Z</time></trkpt><trkpt lat="42.44868096034905" lon="14.121183432408305"><ele>107.71428571428572</ele><time>2026-05-02T06:11:48Z</time></trkpt><trkpt lat="42.44868683890439" lon="14.121274090261904"><ele>109.42857142857142</ele><time>2026-05-02T06:11:51Z</time></trkpt><trkpt lat="42.44868279929261" lon="14.121381266246033"><ele>111.14285714285714</ele><time>2026-05-02T06:11:54Z</time></trkpt><trkpt lat="42.44868453780298" lon="14.121467673501387"><ele>112.85714285714286</ele><time>2026-05-02T06:11:57Z</time></trkpt><trkpt lat="42.44868460037471" lon="14.121553029512842"><ele>114.57142857142858</ele><time>2026-05-02T06:11:59Z</time></trkpt><trkpt lat="42.448690916688165" lon="14.12164270068691"><ele>116.28571428571428</ele><time>2026-05-02T06:12:01Z</time></trkpt><trkpt lat="42.44869801197416" lon="14.121745560775288"><ele>118.0</ele><time>2026-05-02T06:12:03Z</time></trkpt><trkpt lat="42.448711786126005" lon="14.121905000346658"><ele>119.33333333333334</ele><time>2026-05-02T06:12:05Z</time></trkpt><trkpt lat="42.44873095014993" lon="14.121995389702676"><ele>120.66666666666667</ele><time>2026-05-02T06:12:06Z</time></trkpt><trkpt lat="42.44874947439974" lon="14.122080558300437"><ele>122.0</ele><time>2026-05-02T06:12:06.999Z</time></trkpt><trkpt lat="42.44876322641235" lon="14.122181895305582"><ele>123.33333333333334</ele><time>2026-05-02T06:12:07.999Z</time></trkpt><trkpt lat="42.448795483789205" lon="14.122286249800647"><ele>124.66666666666667</ele><time>2026-05-02T06:12:08.999Z</time></trkpt><trkpt lat="42.448834068173966" lon="14.12238547170177"><ele>126.0</ele><time>2026-05-02T06:12:09.999Z</time></trkpt><trkpt lat="42.44886895776442" lon="14.122475487433762"><ele>126.66666666666667</ele><time>2026-05-02T06:12:10.999Z</time></trkpt><trkpt lat="42.44888631725593" lon="14.12255809125662"><ele>127.33333333333334</ele><time>2026-05-02T06:12:12.999Z</time></trkpt><trkpt lat="42.448844298322314" lon="14.122643016115878"><ele>128.0</ele><time>2026-05-02T06:12:18.999Z</time></trkpt><trkpt lat="42.448758181768675" lon="14.122624503240326"><ele>128.66666666666669</ele><time>2026-05-02T06:12:57.999Z</time></trkpt><trkpt lat="42.44870078101971" lon="14.12258293295109"><ele>129.33333333333334</ele><time>2026-05-02T06:13:00Z</time></trkpt><trkpt lat="42.448627471662256" lon="14.122554865458566"><ele>130.0</ele><time>2026-05-02T06:38:58.999Z</time></trkpt><trkpt lat="42.44853337042104" lon="14.122521606071809"><ele>130.0</ele><time>2026-05-02T06:39:12.999Z</time></trkpt><trkpt lat="42.44846894176567" lon="14.122484140883405"><ele>130.0</ele><time>2026-05-02T06:39:13.999Z</time></trkpt><trkpt lat="42.448398003155745" lon="14.122438957669447"><ele>130.0</ele><time>2026-05-02T06:39:14.999Z</time></trkpt><trkpt lat="42.448311730966715" lon="14.122382801661384"><ele>130.0</ele><time>2026-05-02T06:39:15.999Z</time></trkpt><trkpt lat="42.448212465246165" lon="14.12231862176088"><ele>130.0</ele><time>2026-05-02T06:39:16.999Z</time></trkpt><trkpt lat="42.44811627381832" lon="14.12225205015743"><ele>129.25</ele><time>2026-05-02T06:39:17.999Z</time></trkpt><trkpt lat="42.44801012310112" lon="14.122181303463151"><ele>128.5</ele><time>2026-05-02T06:39:18.999Z</time></trkpt><trkpt lat="42.44790362172892" lon="14.122104338097369"><ele>127.75</ele><time>2026-05-02T06:39:19.999Z</time></trkpt><trkpt lat="42.44778894911602" lon="14.122030080517515"><ele>127.0</ele><time>2026-05-02T06:39:20.999Z</time></trkpt><trkpt lat="42.44767948584069" lon="14.121947646024784"><ele>128.6</ele><time>2026-05-02T06:39:21.999Z</time></trkpt><trkpt lat="42.44757686908455" lon="14.12187466227141"><ele>130.2</ele><time>2026-05-02T06:39:22.999Z</time></trkpt><trkpt lat="42.44748433524913" lon="14.121813499243101"><ele>131.8</ele><time>2026-05-02T06:39:23.999Z</time></trkpt><trkpt lat="42.44738993184221" lon="14.121775836302943"><ele>133.4</ele><time>2026-05-02T06:39:24.999Z</time></trkpt><trkpt lat="42.44727403100497" lon="14.121753850787497"><ele>135.0</ele><time>2026-05-02T06:39:25.999Z</time></trkpt><trkpt lat="42.44713667084313" lon="14.121749703980248"><ele>134.25</ele><time>2026-05-02T06:39:26.999Z</time></trkpt><trkpt lat="42.4469987052308" lon="14.121735926314605"><ele>133.5</ele><time>2026-05-02T06:39:27.999Z</time></trkpt><trkpt lat="42.44687576959751" lon="14.121711677911245"><ele>132.75</ele><time>2026-05-02T06:39:28.999Z</time></trkpt><trkpt lat="42.44676253489939" lon="14.121699883610871"><ele>132.0</ele><time>2026-05-02T06:39:29.999Z</time></trkpt><trkpt lat="42.44664388696575" lon="14.121700560455492"><ele>132.0</ele><time>2026-05-02T06:39:30.999Z</time></trkpt><trkpt lat="42.44650934479898" lon="14.121725881043599"><ele>132.0</ele><time>2026-05-02T06:39:31.999Z</time></trkpt><trkpt lat="42.44637958810403" lon="14.12177773356701"><ele>132.0</ele><time>2026-05-02T06:39:32.999Z</time></trkpt><trkpt lat="42.44624731188217" lon="14.121828768553781"><ele>132.0</ele><time>2026-05-02T06:39:33.999Z</time></trkpt><trkpt lat="42.44612430378696" lon="14.12185249463081"><ele>131.2</ele><time>2026-05-02T06:39:34.999Z</time></trkpt><trkpt lat="42.446009467465146" lon="14.121872193695495"><ele>130.39999999999998</ele><time>2026-05-02T06:39:35.999Z</time></trkpt><trkpt lat="42.445905436771746" lon="14.121890473471366"><ele>129.60000000000002</ele><time>2026-05-02T06:39:36.999Z</time></trkpt><trkpt lat="42.44581141033648" lon="14.121928128680372"><ele>128.8</ele><time>2026-05-02T06:39:37.999Z</time></trkpt><trkpt lat="42.44571127548673" lon="14.12198593861577"><ele>128.0</ele><time>2026-05-02T06:39:38.999Z</time></trkpt><trkpt lat="42.44560905175619" lon="14.122077482364253"><ele>128.0</ele><time>2026-05-02T06:39:39.999Z</time></trkpt><trkpt lat="42.44551550304003" lon="14.122196451168332"><ele>128.0</ele><time>2026-05-02T06:39:40.999Z</time></trkpt><trkpt lat="42.445426959344694" lon="14.1223374208727"><ele>128.0</ele><time>2026-05-02T06:39:41.999Z</time></trkpt><trkpt lat="42.445327416321504" lon="14.122462799819"><ele>128.0</ele><time>2026-05-02T06:39:42.999Z</time></trkpt><trkpt lat="42.44522196528059" lon="14.122564114598815"><ele>127.5</ele><time>2026-05-02T06:39:43.999Z</time></trkpt><trkpt lat="42.44511124356971" lon="14.122638029387304"><ele>127.0</ele><time>2026-05-02T06:39:44.999Z</time></trkpt><trkpt lat="42.44499648948148" lon="14.12270142812578"><ele>126.5</ele><time>2026-05-02T06:39:45.999Z</time></trkpt><trkpt lat="42.44487807897447" lon="14.122750475459156"><ele>126.0</ele><time>2026-05-02T06:39:46.999Z</time></trkpt><trkpt lat="42.44476840852469" lon="14.122823044504038"><ele>126.0</ele><time>2026-05-02T06:39:47.999Z</time></trkpt><trkpt lat="42.44466786892781" lon="14.122920004522058"><ele>126.0</ele><time>2026-05-02T06:39:48.999Z</time></trkpt><trkpt lat="42.44457613094014" lon="14.123053155009906"><ele>126.0</ele><time>2026-05-02T06:39:49.999Z</time></trkpt><trkpt lat="42.44448099242771" lon="14.123194271310798"><ele>126.0</ele><time>2026-05-02T06:39:50.999Z</time></trkpt><trkpt lat="42.44437447135122" lon="14.123322427479879"><ele>124.25</ele><time>2026-05-02T06:39:51.999Z</time></trkpt><trkpt lat="42.44426348079087" lon="14.12342309138941"><ele>122.5</ele><time>2026-05-02T06:39:52.999Z</time></trkpt><trkpt lat="42.44414447457112" lon="14.123473587248975"><ele>120.75</ele><time>2026-05-02T06:39:53.999Z</time></trkpt><trkpt lat="42.44403312374195" lon="14.123417390658163"><ele>119.0</ele><time>2026-05-02T06:39:54.999Z</time></trkpt><trkpt lat="42.4439165040034" lon="14.123407468272"><ele>119.0</ele><time>2026-05-02T06:39:55.999Z</time></trkpt><trkpt lat="42.44379835741354" lon="14.1234222352794"><ele>119.0</ele><time>2026-05-02T06:39:56.999Z</time></trkpt><trkpt lat="42.44367128316867" lon="14.123461697965496"><ele>119.0</ele><time>2026-05-02T06:39:57.999Z</time></trkpt><trkpt lat="42.443532509034576" lon="14.12351683108874"><ele>119.0</ele><time>2026-05-02T06:39:58.998Z</time></trkpt><trkpt lat="42.44337965741287" lon="14.123569328336188"><ele>117.0</ele><time>2026-05-02T06:39:59.998Z</time></trkpt><trkpt lat="42.443230298038756" lon="14.12361838498761"><ele>115.0</ele><time>2026-05-02T06:40:00.998Z</time></trkpt><trkpt lat="42.44309372897186" lon="14.123656328914118"><ele>113.0</ele><time>2026-05-02T06:40:01.998Z</time></trkpt><trkpt lat="42.44298560588543" lon="14.123651309915589"><ele>111.0</ele><time>2026-05-02T06:40:02.998Z</time></trkpt><trkpt lat="42.44284893178895" lon="14.123743448646039"><ele>109.8</ele><time>2026-05-02T06:40:03.998Z</time></trkpt><trkpt lat="42.44274759877867" lon="14.123776545249816"><ele>108.6</ele><time>2026-05-02T06:40:04.998Z</time></trkpt><trkpt lat="42.442643659263965" lon="14.123809368239687"><ele>107.4</ele><time>2026-05-02T06:40:05.998Z</time></trkpt><trkpt lat="42.442541998630894" lon="14.123838745960848"><ele>106.2</ele><time>2026-05-02T06:40:06.998Z</time></trkpt><trkpt lat="42.442441576524736" lon="14.123856220834508"><ele>105.0</ele><time>2026-05-02T06:40:07.998Z</time></trkpt><trkpt lat="42.442336676364434" lon="14.123876161730053"><ele>105.0</ele><time>2026-05-02T06:40:08.998Z</time></trkpt><trkpt lat="42.442236938947225" lon="14.123897047722327"><ele>105.0</ele><time>2026-05-02T06:40:09.998Z</time></trkpt><trkpt lat="42.44212915634478" lon="14.123920087317432"><ele>105.0</ele><time>2026-05-02T06:40:10.998Z</time></trkpt><trkpt lat="42.442011044483976" lon="14.123916382005486"><ele>105.0</ele><time>2026-05-02T06:40:11.998Z</time></trkpt><trkpt lat="42.441887388124414" lon="14.123929777064474"><ele>107.0</ele><time>2026-05-02T06:40:12.998Z</time></trkpt><trkpt lat="42.441761417283665" lon="14.123910626608431"><ele>109.0</ele><time>2026-05-02T06:40:13.998Z</time></trkpt><trkpt lat="42.44164398242563" lon="14.123893151595269"><ele>111.0</ele><time>2026-05-02T06:40:14.999Z</time></trkpt><trkpt lat="42.441533963464536" lon="14.123875975232806"><ele>113.0</ele><time>2026-05-02T06:40:15.999Z</time></trkpt><trkpt lat="42.44143661639662" lon="14.123828753765748"><ele>113.0</ele><time>2026-05-02T06:40:16.999Z</time></trkpt><trkpt lat="42.44133921631227" lon="14.123786853463745"><ele>113.0</ele><time>2026-05-02T06:40:17.999Z</time></trkpt><trkpt lat="42.44123485629186" lon="14.123729503781087"><ele>113.0</ele><time>2026-05-02T06:40:18.999Z</time></trkpt><trkpt lat="42.44111648797531" lon="14.12365357114532"><ele>113.0</ele><time>2026-05-02T06:40:19.999Z</time></trkpt><trkpt lat="42.440986074829894" lon="14.123569738580922"><ele>111.25</ele><time>2026-05-02T06:40:20.999Z</time></trkpt><trkpt lat="42.44085590242857" lon="14.123486060704467"><ele>109.5</ele><time>2026-05-02T06:40:21.999Z</time></trkpt><trkpt lat="42.440728218284285" lon="14.123406282413466"><ele>107.75</ele><time>2026-05-02T06:40:22.999Z</time></trkpt><trkpt lat="42.44059743903681" lon="14.123352032836262"><ele>106.0</ele><time>2026-05-02T06:40:23.999Z</time></trkpt><trkpt lat="42.440471142770654" lon="14.123294458612452"><ele>106.25</ele><time>2026-05-02T06:40:24.999Z</time></trkpt><trkpt lat="42.44034950872212" lon="14.123245440162268"><ele>106.5</ele><time>2026-05-02T06:40:25.999Z</time></trkpt><trkpt lat="42.44022277840337" lon="14.12322229965515"><ele>106.75</ele><time>2026-05-02T06:40:26.999Z</time></trkpt><trkpt lat="42.44009336897754" lon="14.123208743062891"><ele>107.0</ele><time>2026-05-02T06:40:27.999Z</time></trkpt><trkpt lat="42.439968334832685" lon="14.12320406574641"><ele>107.0</ele><time>2026-05-02T06:40:28.999Z</time></trkpt><trkpt lat="42.43984298470065" lon="14.123197459025453"><ele>107.0</ele><time>2026-05-02T06:40:29.999Z</time></trkpt><trkpt lat="42.43971853282465" lon="14.12319948591664"><ele>107.0</ele><time>2026-05-02T06:40:30.999Z</time></trkpt><trkpt lat="42.43959431637919" lon="14.123223615235547"><ele>107.0</ele><time>2026-05-02T06:40:31.999Z</time></trkpt><trkpt lat="42.43946509813695" lon="14.123269915241298"><ele>100.25</ele><time>2026-05-02T06:40:32.999Z</time></trkpt><trkpt lat="42.43933992513303" lon="14.123348808448114"><ele>93.5</ele><time>2026-05-02T06:40:33.999Z</time></trkpt><trkpt lat="42.43921430389173" lon="14.123414012271732"><ele>86.75</ele><time>2026-05-02T06:40:34.999Z</time></trkpt><trkpt lat="42.43908788983548" lon="14.123460648426722"><ele>80.0</ele><time>2026-05-02T06:40:35.999Z</time></trkpt><trkpt lat="42.4389515523864" lon="14.123493604310925"><ele>80.0</ele><time>2026-05-02T06:40:36.999Z</time></trkpt><trkpt lat="42.43880978327687" lon="14.123483516388895"><ele>80.0</ele><time>2026-05-02T06:40:37.999Z</time></trkpt><trkpt lat="42.43866748767645" lon="14.12349566808184"><ele>80.0</ele><time>2026-05-02T06:40:38.999Z</time></trkpt><trkpt lat="42.43852664224186" lon="14.123538565149401"><ele>80.0</ele><time>2026-05-02T06:40:39.999Z</time></trkpt><trkpt lat="42.438390620498346" lon="14.123572655770383"><ele>77.25</ele><time>2026-05-02T06:40:40.999Z</time></trkpt><trkpt lat="42.43825591801652" lon="14.123615099696378"><ele>74.5</ele><time>2026-05-02T06:40:41.999Z</time></trkpt><trkpt lat="42.438124233975564" lon="14.123659518889"><ele>71.75</ele><time>2026-05-02T06:40:42.999Z</time></trkpt><trkpt lat="42.437993289326066" lon="14.123702301445071"><ele>69.0</ele><time>2026-05-02T06:40:43.999Z</time></trkpt><trkpt lat="42.43786223585927" lon="14.123722390828497"><ele>68.8</ele><time>2026-05-02T06:40:44.999Z</time></trkpt><trkpt lat="42.43774952799007" lon="14.123748235224385"><ele>68.60000000000001</ele><time>2026-05-02T06:40:45.999Z</time></trkpt><trkpt lat="42.43764873854813" lon="14.12375289217687"><ele>68.4</ele><time>2026-05-02T06:40:46.999Z</time></trkpt><trkpt lat="42.43756568237851" lon="14.12371074414886"><ele>68.2</ele><time>2026-05-02T06:40:47.999Z</time></trkpt><trkpt lat="42.43746326082817" lon="14.12365533863849"><ele>68.0</ele><time>2026-05-02T06:40:48.999Z</time></trkpt><trkpt lat="42.43734101476641" lon="14.12366571051144"><ele>68.0</ele><time>2026-05-02T06:40:49.999Z</time></trkpt><trkpt lat="42.43723633131874" lon="14.123640079994377"><ele>68.0</ele><time>2026-05-02T06:40:50.999Z</time></trkpt><trkpt lat="42.43714708544724" lon="14.12355079353982"><ele>68.0</ele><time>2026-05-02T06:40:51.999Z</time></trkpt><trkpt lat="42.43703054870903" lon="14.123454501776026"><ele>68.0</ele><time>2026-05-02T06:40:52.999Z</time></trkpt><trkpt lat="42.4368931993409" lon="14.123377722895416"><ele>66.66666666666667</ele><time>2026-05-02T06:40:53.999Z</time></trkpt><trkpt lat="42.436775403897265" lon="14.123326654279875"><ele>65.33333333333334</ele><time>2026-05-02T06:40:54.999Z</time></trkpt><trkpt lat="42.43669015623415" lon="14.123299141077627"><ele>64.0</ele><time>2026-05-02T06:40:55.999Z</time></trkpt><trkpt lat="42.43662522298464" lon="14.12327925389898"><ele>62.66666666666667</ele><time>2026-05-02T06:40:56.999Z</time></trkpt><trkpt lat="42.436534305265425" lon="14.123267859351747"><ele>61.333333333333336</ele><time>2026-05-02T06:40:58.999Z</time></trkpt><trkpt lat="42.43646947552956" lon="14.123249174473564"><ele>60.0</ele><time>2026-05-02T06:41:00.999Z</time></trkpt><trkpt lat="42.436399465510284" lon="14.123220572365751"><ele>60.0</ele><time>2026-05-02T06:41:02.999Z</time></trkpt><trkpt lat="42.4363189419208" lon="14.123184094134926"><ele>60.0</ele><time>2026-05-02T06:41:04.999Z</time></trkpt><trkpt lat="42.43625537060546" lon="14.12317766276109"><ele>60.0</ele><time>2026-05-02T06:41:06.999Z</time></trkpt><trkpt lat="42.43618503589446" lon="14.123166862692386"><ele>60.0</ele><time>2026-05-02T06:41:18.999Z</time></trkpt><trkpt lat="42.43606499322252" lon="14.123145242229116"><ele>60.0</ele><time>2026-05-02T06:41:20.999Z</time></trkpt><trkpt lat="42.43598350963885" lon="14.123118185228634"><ele>60.0</ele><time>2026-05-02T06:41:21.999Z</time></trkpt><trkpt lat="42.435891300400606" lon="14.123086743418094"><ele>60.8</ele><time>2026-05-02T06:41:22.999Z</time></trkpt><trkpt lat="42.435795715539754" lon="14.123064480653559"><ele>61.6</ele><time>2026-05-02T06:41:23.999Z</time></trkpt><trkpt lat="42.43568838512163" lon="14.123056642034205"><ele>62.400000000000006</ele><time>2026-05-02T06:41:24.999Z</time></trkpt><trkpt lat="42.43557832842064" lon="14.12307066624527"><ele>63.2</ele><time>2026-05-02T06:41:25.999Z</time></trkpt><trkpt lat="42.43549082494657" lon="14.123137168724968"><ele>64.0</ele><time>2026-05-02T06:41:26.999Z</time></trkpt><trkpt lat="42.43540924563202" lon="14.123223142600123"><ele>64.5</ele><time>2026-05-02T06:41:27.999Z</time></trkpt><trkpt lat="42.43532110889543" lon="14.123330722590175"><ele>65.0</ele><time>2026-05-02T06:41:28.999Z</time></trkpt><trkpt lat="42.435226741880086" lon="14.123442975970475"><ele>65.5</ele><time>2026-05-02T06:41:29.999Z</time></trkpt><trkpt lat="42.435137139272264" lon="14.12355522599052"><ele>66.0</ele><time>2026-05-02T06:41:30.999Z</time></trkpt><trkpt lat="42.435042529127884" lon="14.12367336191813"><ele>66.0</ele><time>2026-05-02T06:41:31.999Z</time></trkpt><trkpt lat="42.434946695133284" lon="14.123790149592761"><ele>66.0</ele><time>2026-05-02T06:41:32.999Z</time></trkpt><trkpt lat="42.43484904722536" lon="14.123909268695632"><ele>66.0</ele><time>2026-05-02T06:41:33.999Z</time></trkpt><trkpt lat="42.43475182292394" lon="14.124038025323955"><ele>66.0</ele><time>2026-05-02T06:41:34.999Z</time></trkpt><trkpt lat="42.43465587892735" lon="14.124164014639705"><ele>65.5</ele><time>2026-05-02T06:41:35.999Z</time></trkpt><trkpt lat="42.434559166216665" lon="14.124295417744362"><ele>65.0</ele><time>2026-05-02T06:41:36.999Z</time></trkpt><trkpt lat="42.43445865547991" lon="14.124423312096424"><ele>64.5</ele><time>2026-05-02T06:41:37.999Z</time></trkpt><trkpt lat="42.43436358411948" lon="14.124561079433867"><ele>64.0</ele><time>2026-05-02T06:41:38.999Z</time></trkpt><trkpt lat="42.43428100778202" lon="14.124678637141455"><ele>63.99999999999999</ele><time>2026-05-02T06:41:39.999Z</time></trkpt><trkpt lat="42.434217415919754" lon="14.124768018808"><ele>64.0</ele><time>2026-05-02T06:41:40.999Z</time></trkpt><trkpt lat="42.4341532381299" lon="14.12485654364061"><ele>64.0</ele><time>2026-05-02T06:41:41.999Z</time></trkpt><trkpt lat="42.434095907787395" lon="14.124934308017854"><ele>64.0</ele><time>2026-05-02T06:41:42.999Z</time></trkpt><trkpt lat="42.43404069730417" lon="14.12501292140488"><ele>63.99999999999999</ele><time>2026-05-02T06:41:43.999Z</time></trkpt><trkpt lat="42.433977769418895" lon="14.125096255934247"><ele>64.0</ele><time>2026-05-02T06:41:44.999Z</time></trkpt><trkpt lat="42.433905296735134" lon="14.125197359556891"><ele>63.400000000000006</ele><time>2026-05-02T06:41:45.999Z</time></trkpt><trkpt lat="42.43383174815707" lon="14.125296785212836"><ele>62.800000000000004</ele><time>2026-05-02T06:41:46.999Z</time></trkpt><trkpt lat="42.43377647586691" lon="14.125372142093894"><ele>62.199999999999996</ele><time>2026-05-02T06:41:47.999Z</time></trkpt><trkpt lat="42.433707768632495" lon="14.12545500418098"><ele>61.599999999999994</ele><time>2026-05-02T06:41:49.999Z</time></trkpt><trkpt lat="42.43359846534384" lon="14.125319222340087"><ele>61.0</ele><time>2026-05-02T06:41:52.999Z</time></trkpt><trkpt lat="42.433526414668584" lon="14.125214437775535"><ele>61.0</ele><time>2026-05-02T06:41:54.999Z</time></trkpt><trkpt lat="42.43336154082026" lon="14.125062923042833"><ele>61.0</ele><time>2026-05-02T06:41:57.999Z</time></trkpt><trkpt lat="42.433266153428114" lon="14.125134399810532"><ele>61.0</ele><time>2026-05-02T06:41:59.999Z</time></trkpt><trkpt lat="42.43321950377039" lon="14.12522068398294"><ele>61.0</ele><time>2026-05-02T06:42:00.999Z</time></trkpt><trkpt lat="42.433122157040025" lon="14.125286429511984"><ele>61.0</ele><time>2026-05-02T06:42:01.999Z</time></trkpt><trkpt lat="42.43305577239448" lon="14.125342733194245"><ele>60.99999999999999</ele><time>2026-05-02T06:42:02.999Z</time></trkpt><trkpt lat="42.43296761483396" lon="14.125433379680892"><ele>60.99999999999999</ele><time>2026-05-02T06:42:03.999Z</time></trkpt><trkpt lat="42.43287299466657" lon="14.125503519389431"><ele>61.0</ele><time>2026-05-02T06:42:04.998Z</time></trkpt><trkpt lat="42.43278578185666" lon="14.125570477454536"><ele>61.0</ele><time>2026-05-02T06:42:05.998Z</time></trkpt><trkpt lat="42.43271206905423" lon="14.125639270778434"><ele>61.33333333333333</ele><time>2026-05-02T06:42:06.998Z</time></trkpt><trkpt lat="42.43264337486652" lon="14.125708008953774"><ele>61.666666666666664</ele><time>2026-05-02T06:42:07.998Z</time></trkpt><trkpt lat="42.432563864144406" lon="14.125752911900824"><ele>62.0</ele><time>2026-05-02T06:42:08.998Z</time></trkpt><trkpt lat="42.43249377471841" lon="14.125809509268661"><ele>62.33333333333333</ele><time>2026-05-02T06:42:09.998Z</time></trkpt><trkpt lat="42.432421247655604" lon="14.125868074896962"><ele>62.666666666666664</ele><time>2026-05-02T06:42:10.998Z</time></trkpt><trkpt lat="42.43235013936142" lon="14.12592549001"><ele>63.0</ele><time>2026-05-02T06:42:11.998Z</time></trkpt><trkpt lat="42.43227938160133" lon="14.125980178426179"><ele>63.0</ele><time>2026-05-02T06:42:12.998Z</time></trkpt><trkpt lat="42.43220588503079" lon="14.126057232771382"><ele>63.0</ele><time>2026-05-02T06:42:13.998Z</time></trkpt><trkpt lat="42.43211443000138" lon="14.126109648649171"><ele>63.0</ele><time>2026-05-02T06:42:14.998Z</time></trkpt><trkpt lat="42.432029147928205" lon="14.1261698881052"><ele>63.0</ele><time>2026-05-02T06:42:15.998Z</time></trkpt><trkpt lat="42.43194990280994" lon="14.126192030299658"><ele>63.0</ele><time>2026-05-02T06:42:16.998Z</time></trkpt><trkpt lat="42.43187322947876" lon="14.126225128018987"><ele>64.5</ele><time>2026-05-02T06:42:17.998Z</time></trkpt><trkpt lat="42.431805995520065" lon="14.126246341297925"><ele>66.0</ele><time>2026-05-02T06:42:18.998Z</time></trkpt><trkpt lat="42.4317396746041" lon="14.126255658182192"><ele>67.5</ele><time>2026-05-02T06:42:19.999Z</time></trkpt><trkpt lat="42.43166193317563" lon="14.126260621408067"><ele>69.0</ele><time>2026-05-02T06:42:20.999Z</time></trkpt><trkpt lat="42.43157212464134" lon="14.126265186014768"><ele>70.5</ele><time>2026-05-02T06:42:21.999Z</time></trkpt><trkpt lat="42.43146907749502" lon="14.12628575700119"><ele>72.0</ele><time>2026-05-02T06:42:22.999Z</time></trkpt><trkpt lat="42.431373244724966" lon="14.12633116771493"><ele>75.2</ele><time>2026-05-02T06:42:23.999Z</time></trkpt><trkpt lat="42.43127069815916" lon="14.1263671046182"><ele>78.4</ele><time>2026-05-02T06:42:24.999Z</time></trkpt><trkpt lat="42.43116339252957" lon="14.12639946605676"><ele>81.60000000000001</ele><time>2026-05-02T06:42:25.999Z</time></trkpt><trkpt lat="42.43106760204578" lon="14.126428388423346"><ele>84.80000000000001</ele><time>2026-05-02T06:42:26.999Z</time></trkpt><trkpt lat="42.430982043017444" lon="14.126477071623961"><ele>88.0</ele><time>2026-05-02T06:42:27.999Z</time></trkpt><trkpt lat="42.430891823173326" lon="14.126532501052486"><ele>86.83333333333333</ele><time>2026-05-02T06:42:28.999Z</time></trkpt><trkpt lat="42.43080891060162" lon="14.126603000735992"><ele>85.66666666666666</ele><time>2026-05-02T06:42:29.999Z</time></trkpt><trkpt lat="42.430738801790106" lon="14.126680600085914"><ele>84.5</ele><time>2026-05-02T06:42:30.999Z</time></trkpt><trkpt lat="42.430663527632106" lon="14.126738003444977"><ele>83.33333333333333</ele><time>2026-05-02T06:42:31.999Z</time></trkpt><trkpt lat="42.43059638872646" lon="14.126816918730727"><ele>82.16666666666667</ele><time>2026-05-02T06:42:32.999Z</time></trkpt><trkpt lat="42.430529081972026" lon="14.126884105085066"><ele>81.0</ele><time>2026-05-02T06:42:33.999Z</time></trkpt><trkpt lat="42.4304568724217" lon="14.126921460820935"><ele>81.0</ele><time>2026-05-02T06:42:34.999Z</time></trkpt><trkpt lat="42.43039341934612" lon="14.126919388000292"><ele>81.0</ele><time>2026-05-02T06:42:35.999Z</time></trkpt><trkpt lat="42.4303093978746" lon="14.126859345621392"><ele>81.0</ele><time>2026-05-02T06:42:37.999Z</time></trkpt><trkpt lat="42.43023168278604" lon="14.12680062405532"><ele>81.0</ele><time>2026-05-02T06:42:39.999Z</time></trkpt><trkpt lat="42.43018098721658" lon="14.126721038493843"><ele>81.0</ele><time>2026-05-02T06:43:12.999Z</time></trkpt><trkpt lat="42.430099547784664" lon="14.126726752106133"><ele>81.0</ele><time>2026-05-02T06:43:14.999Z</time></trkpt><trkpt lat="42.429999604845165" lon="14.126766447064037"><ele>81.0</ele><time>2026-05-02T06:43:16.999Z</time></trkpt><trkpt lat="42.42990151680989" lon="14.126785159778048"><ele>81.0</ele><time>2026-05-02T06:43:18.999Z</time></trkpt><trkpt lat="42.42980455081148" lon="14.126837302887399"><ele>81.0</ele><time>2026-05-02T06:43:20.999Z</time></trkpt><trkpt lat="42.429701662648135" lon="14.126867938299917"><ele>81.0</ele><time>2026-05-02T06:43:22.999Z</time></trkpt><trkpt lat="42.42962730394087" lon="14.126859183023132"><ele>81.0</ele><time>2026-05-02T06:43:24.999Z</time></trkpt><trkpt lat="42.42955137975474" lon="14.126865664289333"><ele>78.2</ele><time>2026-05-02T06:43:26.999Z</time></trkpt><trkpt lat="42.42946763755519" lon="14.126866581839192"><ele>75.39999999999999</ele><time>2026-05-02T06:43:28.999Z</time></trkpt><trkpt lat="42.42936465844175" lon="14.12686214856116"><ele>72.6</ele><time>2026-05-02T06:43:30.999Z</time></trkpt><trkpt lat="42.42927509213212" lon="14.126855274157279"><ele>69.8</ele><time>2026-05-02T06:43:32.999Z</time></trkpt><trkpt lat="42.429185796077704" lon="14.126845992208478"><ele>67.0</ele><time>2026-05-02T06:43:34.999Z</time></trkpt><trkpt lat="42.429083536474295" lon="14.126826466753402"><ele>67.0</ele><time>2026-05-02T06:43:36.999Z</time></trkpt><trkpt lat="42.428998455478386" lon="14.126805522703316"><ele>67.0</ele><time>2026-05-02T06:43:38.999Z</time></trkpt><trkpt lat="42.4289087263587" lon="14.126775528694179"><ele>67.0</ele><time>2026-05-02T06:43:40.999Z</time></trkpt><trkpt lat="42.42882898541445" lon="14.126739455774166"><ele>67.0</ele><time>2026-05-02T06:43:42.999Z</time></trkpt><trkpt lat="42.42876007186851" lon="14.126650204239743"><ele>67.0</ele><time>2026-05-02T06:43:44.999Z</time></trkpt><trkpt lat="42.42869796913321" lon="14.126500039995936"><ele>64.0</ele><time>2026-05-02T06:43:46.999Z</time></trkpt><trkpt lat="42.428645814235125" lon="14.126375055168149"><ele>61.0</ele><time>2026-05-02T06:43:48.999Z</time></trkpt><trkpt lat="42.42858870696325" lon="14.12625029602213"><ele>58.0</ele><time>2026-05-02T06:43:50.999Z</time></trkpt><trkpt lat="42.42854829247497" lon="14.12618096826856"><ele>55.0</ele><time>2026-05-02T06:43:51.999Z</time></trkpt><trkpt lat="42.428441383152915" lon="14.126083295588987"><ele>52.0</ele><time>2026-05-02T06:43:53.999Z</time></trkpt><trkpt lat="42.42837788842717" lon="14.12605075207354"><ele>52.0</ele><time>2026-05-02T06:43:54.999Z</time></trkpt><trkpt lat="42.42830430760299" lon="14.126042780486216"><ele>52.0</ele><time>2026-05-02T06:43:55.999Z</time></trkpt><trkpt lat="42.42818036003997" lon="14.126027247836527"><ele>52.0</ele><time>2026-05-02T06:43:57.999Z</time></trkpt><trkpt lat="42.428066128692954" lon="14.126032819752487"><ele>52.0</ele><time>2026-05-02T06:43:59.999Z</time></trkpt><trkpt lat="42.4279395286652" lon="14.126032250941881"><ele>52.0</ele><time>2026-05-02T06:44:01.999Z</time></trkpt><trkpt lat="42.4278735632344" lon="14.12601723188838"><ele>50.83333333333333</ele><time>2026-05-02T06:44:02.999Z</time></trkpt><trkpt lat="42.42779731775473" lon="14.125989599565356"><ele>49.666666666666664</ele><time>2026-05-02T06:44:03.999Z</time></trkpt><trkpt lat="42.427716112245825" lon="14.125956321517707"><ele>48.5</ele><time>2026-05-02T06:44:04.999Z</time></trkpt><trkpt lat="42.427630957386185" lon="14.125915552531259"><ele>47.33333333333333</ele><time>2026-05-02T06:44:05.999Z</time></trkpt><trkpt lat="42.42754876684244" lon="14.125865846275815"><ele>46.166666666666664</ele><time>2026-05-02T06:44:06.999Z</time></trkpt><trkpt lat="42.42746686857346" lon="14.1258414355931"><ele>45.0</ele><time>2026-05-02T06:44:07.999Z</time></trkpt><trkpt lat="42.42739058779845" lon="14.125801249939256"><ele>45.0</ele><time>2026-05-02T06:44:08.999Z</time></trkpt><trkpt lat="42.42731710790289" lon="14.12577120534458"><ele>45.0</ele><time>2026-05-02T06:44:09.999Z</time></trkpt><trkpt lat="42.42724320782338" lon="14.125744138828006"><ele>45.0</ele><time>2026-05-02T06:44:10.999Z</time></trkpt><trkpt lat="42.427177270512715" lon="14.125725095688868"><ele>45.0</ele><time>2026-05-02T06:44:11.999Z</time></trkpt><trkpt lat="42.42711177093711" lon="14.125719163373956"><ele>45.0</ele><time>2026-05-02T06:44:12.999Z</time></trkpt><trkpt lat="42.426988698254895" lon="14.125697210599856"><ele>45.0</ele><time>2026-05-02T06:44:14.999Z</time></trkpt><trkpt lat="42.42688465597538" lon="14.125645937159211"><ele>43.5</ele><time>2026-05-02T06:44:16.999Z</time></trkpt><trkpt lat="42.426821929172604" lon="14.125601391615236"><ele>42.0</ele><time>2026-05-02T06:44:18.999Z</time></trkpt><trkpt lat="42.42677254976621" lon="14.125459741198087"><ele>40.5</ele><time>2026-05-02T06:44:22.999Z</time></trkpt><trkpt lat="42.42677959153331" lon="14.125349662610532"><ele>39.0</ele><time>2026-05-02T06:44:24.999Z</time></trkpt><trkpt lat="42.42679652158441" lon="14.125266606183704"><ele>37.5</ele><time>2026-05-02T06:44:26Z</time></trkpt><trkpt lat="42.426821416618" lon="14.125144761482556"><ele>36.0</ele><time>2026-05-02T06:44:27Z</time></trkpt><trkpt lat="42.42684777653617" lon="14.125006574800135"><ele>36.75</ele><time>2026-05-02T06:44:28Z</time></trkpt><trkpt lat="42.42687378243094" lon="14.124861721018336"><ele>37.5</ele><time>2026-05-02T06:44:29Z</time></trkpt><trkpt lat="42.42689544641173" lon="14.124695375572434"><ele>38.25</ele><time>2026-05-02T06:44:30Z</time></trkpt><trkpt lat="42.42691253251814" lon="14.124547558669423"><ele>39.0</ele><time>2026-05-02T06:44:31Z</time></trkpt><trkpt lat="42.42692951380498" lon="14.12437408428725"><ele>44.0</ele><time>2026-05-02T06:44:32Z</time></trkpt><trkpt lat="42.42644844491357" lon="14.124049783161295"><ele>44.0</ele><time>2026-05-02T06:44:33Z</time></trkpt><trkpt lat="42.426399794983745" lon="14.123871348675621"><ele>44.0</ele><time>2026-05-02T06:44:34Z</time></trkpt><trkpt lat="42.426353285896255" lon="14.123687764190057"><ele>44.0</ele><time>2026-05-02T06:44:35Z</time></trkpt><trkpt lat="42.4263103766931" lon="14.123488712547685"><ele>44.0</ele><time>2026-05-02T06:44:36Z</time></trkpt><trkpt lat="42.426272547916376" lon="14.12326931581298"><ele>42.0</ele><time>2026-05-02T06:44:37Z</time></trkpt><trkpt lat="42.42624002123989" lon="14.123043138554447"><ele>40.0</ele><time>2026-05-02T06:44:38Z</time></trkpt><trkpt lat="42.42621399480962" lon="14.122798394640002"><ele>38.0</ele><time>2026-05-02T06:44:39Z</time></trkpt><trkpt lat="42.426181820020865" lon="14.1225553149754"><ele>38.33333333333333</ele><time>2026-05-02T06:44:40Z</time></trkpt><trkpt lat="42.42615434408756" lon="14.122313316897817"><ele>38.666666666666664</ele><time>2026-05-02T06:44:41Z</time></trkpt><trkpt lat="42.42612270409973" lon="14.122061356181538"><ele>39.0</ele><time>2026-05-02T06:44:42Z</time></trkpt><trkpt lat="42.42608970890702" lon="14.12182330962003"><ele>39.0</ele><time>2026-05-02T06:44:43Z</time></trkpt><trkpt lat="42.426057014034754" lon="14.12159286938193"><ele>39.0</ele><time>2026-05-02T06:44:44Z</time></trkpt><trkpt lat="42.4260252213784" lon="14.121364197906"><ele>39.0</ele><time>2026-05-02T06:44:45Z</time></trkpt><trkpt lat="42.42598884551868" lon="14.121138666628877"><ele>39.666666666666664</ele><time>2026-05-02T06:44:46Z</time></trkpt><trkpt lat="42.425934213267446" lon="14.120913076861402"><ele>40.33333333333333</ele><time>2026-05-02T06:44:47Z</time></trkpt><trkpt lat="42.425856221087365" lon="14.120693989337212"><ele>41.0</ele><time>2026-05-02T06:44:48Z</time></trkpt><trkpt lat="42.425769776784364" lon="14.120473025605364"><ele>42.33333333333333</ele><time>2026-05-02T06:44:49Z</time></trkpt><trkpt lat="42.42568875495054" lon="14.120271871213651"><ele>43.666666666666664</ele><time>2026-05-02T06:44:50Z</time></trkpt><trkpt lat="42.42561512733812" lon="14.12007070532093"><ele>45.0</ele><time>2026-05-02T06:44:51Z</time></trkpt><trkpt lat="42.42552951522076" lon="14.11987317237464"><ele>47.0</ele><time>2026-05-02T06:44:52Z</time></trkpt><trkpt lat="42.42549070722984" lon="14.119656115856442"><ele>49.0</ele><time>2026-05-02T06:44:53Z</time></trkpt><trkpt lat="42.4254486368811" lon="14.11944029577928"><ele>51.0</ele><time>2026-05-02T06:44:54Z</time></trkpt><trkpt lat="42.42540833407574" lon="14.119211797736316"><ele>47.0</ele><time>2026-05-02T06:44:55Z</time></trkpt><trkpt lat="42.42539134684096" lon="14.118970755090478"><ele>43.0</ele><time>2026-05-02T06:44:56Z</time></trkpt><trkpt lat="42.42534086075157" lon="14.118724887702088"><ele>39.0</ele><time>2026-05-02T06:44:57Z</time></trkpt><trkpt lat="42.425304375512596" lon="14.118465903683209"><ele>39.333333333333336</ele><time>2026-05-02T06:44:58Z</time></trkpt><trkpt lat="42.425261495807774" lon="14.118188206557186"><ele>39.66666666666667</ele><time>2026-05-02T06:44:59Z</time></trkpt><trkpt lat="42.42521510020794" lon="14.117908680840403"><ele>40.0</ele><time>2026-05-02T06:45:00Z</time></trkpt><trkpt lat="42.42517092320609" lon="14.117636068950215"><ele>41.333333333333336</ele><time>2026-05-02T06:45:01Z</time></trkpt><trkpt lat="42.425129155078565" lon="14.117358522062176"><ele>42.666666666666664</ele><time>2026-05-02T06:45:02Z</time></trkpt><trkpt lat="42.425092875253846" lon="14.117094362759424"><ele>44.0</ele><time>2026-05-02T06:45:03Z</time></trkpt><trkpt lat="42.42507665426778" lon="14.1168235881169"><ele>44.0</ele><time>2026-05-02T06:45:04Z</time></trkpt><trkpt lat="42.425070817958535" lon="14.116548811351329"><ele>44.0</ele><time>2026-05-02T06:45:05Z</time></trkpt><trkpt lat="42.42505445307492" lon="14.116269800778898"><ele>44.0</ele><time>2026-05-02T06:45:06Z</time></trkpt><trkpt lat="42.42503227447077" lon="14.116001107154977"><ele>44.33333333333333</ele><time>2026-05-02T06:45:07Z</time></trkpt><trkpt lat="42.42500961783543" lon="14.115723511666186"><ele>44.666666666666664</ele><time>2026-05-02T06:45:08Z</time></trkpt><trkpt lat="42.42499223577782" lon="14.115450187985283"><ele>45.0</ele><time>2026-05-02T06:45:09Z</time></trkpt><trkpt lat="42.42497877448511" lon="14.115176372550334"><ele>46.0</ele><time>2026-05-02T06:45:10Z</time></trkpt><trkpt lat="42.42496229122526" lon="14.114902608752253"><ele>47.0</ele><time>2026-05-02T06:45:11Z</time></trkpt><trkpt lat="42.42494329822963" lon="14.114627890599529"><ele>48.0</ele><time>2026-05-02T06:45:12Z</time></trkpt><trkpt lat="42.4249221837153" lon="14.114354260610785"><ele>48.0</ele><time>2026-05-02T06:45:13Z</time></trkpt><trkpt lat="42.424902272807074" lon="14.114082450098305"><ele>48.0</ele><time>2026-05-02T06:45:14Z</time></trkpt><trkpt lat="42.42488377301217" lon="14.11381366536783"><ele>48.0</ele><time>2026-05-02T06:45:14.999Z</time></trkpt><trkpt lat="42.424865991175494" lon="14.1135536622252"><ele>48.66666666666667</ele><time>2026-05-02T06:45:15.999Z</time></trkpt><trkpt lat="42.424850854030886" lon="14.113312051193152"><ele>49.333333333333336</ele><time>2026-05-02T06:45:16.999Z</time></trkpt><trkpt lat="42.424836846007594" lon="14.113089847885071"><ele>50.0</ele><time>2026-05-02T06:45:17.999Z</time></trkpt><trkpt lat="42.424831633147484" lon="14.112880122264581"><ele>50.66666666666667</ele><time>2026-05-02T06:45:18.999Z</time></trkpt><trkpt lat="42.424852675007365" lon="14.112676719201646"><ele>51.33333333333333</ele><time>2026-05-02T06:45:19.999Z</time></trkpt><trkpt lat="42.42489296736689" lon="14.112473761012975"><ele>52.0</ele><time>2026-05-02T06:45:20.999Z</time></trkpt><trkpt lat="42.42494890263233" lon="14.112270608752432"><ele>51.2</ele><time>2026-05-02T06:45:21.999Z</time></trkpt><trkpt lat="42.42499107558811" lon="14.11211188925599"><ele>50.400000000000006</ele><time>2026-05-02T06:45:22.999Z</time></trkpt><trkpt lat="42.42502054865989" lon="14.112002249443899"><ele>49.599999999999994</ele><time>2026-05-02T06:45:23.999Z</time></trkpt><trkpt lat="42.42505544263355" lon="14.111890645651686"><ele>48.8</ele><time>2026-05-02T06:45:25.999Z</time></trkpt><trkpt lat="42.42506872171131" lon="14.111751665938279"><ele>48.0</ele><time>2026-05-02T06:47:51Z</time></trkpt><trkpt lat="42.425101905761395" lon="14.111649688743302"><ele>48.0</ele><time>2026-05-02T06:47:52Z</time></trkpt><trkpt lat="42.425141040253706" lon="14.111551686266457"><ele>48.0</ele><time>2026-05-02T06:47:53Z</time></trkpt><trkpt lat="42.42518946985931" lon="14.11144737263571"><ele>48.0</ele><time>2026-05-02T06:47:55Z</time></trkpt><trkpt lat="42.425114115615926" lon="14.11139579897874"><ele>48.0</ele><time>2026-05-02T06:48:04Z</time></trkpt><trkpt lat="42.42505555347944" lon="14.111452436140036"><ele>48.0</ele><time>2026-05-02T06:48:05Z</time></trkpt><trkpt lat="42.42499656624001" lon="14.111530916259216"><ele>48.0</ele><time>2026-05-02T06:48:06Z</time></trkpt><trkpt lat="42.42490629939453" lon="14.111607681343022"><ele>48.0</ele><time>2026-05-02T06:48:07Z</time></trkpt><trkpt lat="42.42481480544059" lon="14.111666218535277"><ele>48.0</ele><time>2026-05-02T06:48:08Z</time></trkpt><trkpt lat="42.424737332777475" lon="14.111712095720996"><ele>48.0</ele><time>2026-05-02T06:48:09Z</time></trkpt><trkpt lat="42.42465395047001" lon="14.111749709227942"><ele>48.0</ele><time>2026-05-02T06:48:10Z</time></trkpt><trkpt lat="42.42455710108891" lon="14.111796770199392"><ele>48.0</ele><time>2026-05-02T06:48:10.999Z</time></trkpt><trkpt lat="42.424449052687315" lon="14.11184720526588"><ele>46.8</ele><time>2026-05-02T06:48:11.999Z</time></trkpt><trkpt lat="42.42433255560075" lon="14.11188017565745"><ele>45.599999999999994</ele><time>2026-05-02T06:48:12.999Z</time></trkpt><trkpt lat="42.42421613897678" lon="14.111898555791921"><ele>44.400000000000006</ele><time>2026-05-02T06:48:13.999Z</time></trkpt><trkpt lat="42.42411702764134" lon="14.11191503156511"><ele>43.2</ele><time>2026-05-02T06:48:14.999Z</time></trkpt><trkpt lat="42.4240325561077" lon="14.11190623232362"><ele>42.0</ele><time>2026-05-02T06:48:15.999Z</time></trkpt><trkpt lat="42.42395281055359" lon="14.111984625925748"><ele>42.0</ele><time>2026-05-02T06:48:16.999Z</time></trkpt><trkpt lat="42.42387241009056" lon="14.11201570531291"><ele>42.0</ele><time>2026-05-02T06:48:17.999Z</time></trkpt><trkpt lat="42.423784214036054" lon="14.112037264041943"><ele>42.0</ele><time>2026-05-02T06:48:18.999Z</time></trkpt><trkpt lat="42.4236885605569" lon="14.112056558791846"><ele>42.0</ele><time>2026-05-02T06:48:19.999Z</time></trkpt><trkpt lat="42.4235861496241" lon="14.112044683412606"><ele>42.0</ele><time>2026-05-02T06:48:20.999Z</time></trkpt><trkpt lat="42.42348111751463" lon="14.112023082282297"><ele>40.75</ele><time>2026-05-02T06:48:21.999Z</time></trkpt><trkpt lat="42.42337787151165" lon="14.11201261033999"><ele>39.5</ele><time>2026-05-02T06:48:22.999Z</time></trkpt><trkpt lat="42.423275914971995" lon="14.112032985622246"><ele>38.25</ele><time>2026-05-02T06:48:23.999Z</time></trkpt><trkpt lat="42.42316937671091" lon="14.112101734174532"><ele>37.0</ele><time>2026-05-02T06:48:24.999Z</time></trkpt><trkpt lat="42.42307299783829" lon="14.112210144066138"><ele>37.0</ele><time>2026-05-02T06:48:25.999Z</time></trkpt><trkpt lat="42.42298608205914" lon="14.112334048079441"><ele>37.0</ele><time>2026-05-02T06:48:26.999Z</time></trkpt><trkpt lat="42.42289451547652" lon="14.112462219407062"><ele>37.0</ele><time>2026-05-02T06:48:27.999Z</time></trkpt><trkpt lat="42.42279369526804" lon="14.112599763757668"><ele>37.0</ele><time>2026-05-02T06:48:28.999Z</time></trkpt><trkpt lat="42.42268292468031" lon="14.112730003593411"><ele>39.333333333333336</ele><time>2026-05-02T06:48:29.999Z</time></trkpt><trkpt lat="42.42256350556255" lon="14.112851722261018"><ele>41.666666666666664</ele><time>2026-05-02T06:48:30.999Z</time></trkpt><trkpt lat="42.42243142686239" lon="14.112965287765114"><ele>44.0</ele><time>2026-05-02T06:48:31.999Z</time></trkpt><trkpt lat="42.42229948513601" lon="14.113086142722173"><ele>44.0</ele><time>2026-05-02T06:48:32.999Z</time></trkpt><trkpt lat="42.42218211066601" lon="14.113193692663229"><ele>44.0</ele><time>2026-05-02T06:48:33.999Z</time></trkpt><trkpt lat="42.42207499646246" lon="14.11330655295636"><ele>44.0</ele><time>2026-05-02T06:48:34.999Z</time></trkpt><trkpt lat="42.421976059914314" lon="14.113411836364458"><ele>44.0</ele><time>2026-05-02T06:48:35.999Z</time></trkpt><trkpt lat="42.42187164428883" lon="14.113492328125776"><ele>45.25</ele><time>2026-05-02T06:48:36.999Z</time></trkpt><trkpt lat="42.421763761441234" lon="14.11354823179239"><ele>46.5</ele><time>2026-05-02T06:48:38.001Z</time></trkpt><trkpt lat="42.42164743740989" lon="14.113579970154374"><ele>47.75</ele><time>2026-05-02T06:48:39.001Z</time></trkpt><trkpt lat="42.42152216672259" lon="14.113613345470492"><ele>49.0</ele><time>2026-05-02T06:48:40.001Z</time></trkpt><trkpt lat="42.42139264649602" lon="14.11366096516262"><ele>50.0</ele><time>2026-05-02T06:48:41.001Z</time></trkpt><trkpt lat="42.421265101453365" lon="14.113723804451102"><ele>51.0</ele><time>2026-05-02T06:48:42.001Z</time></trkpt><trkpt lat="42.42114151497986" lon="14.113806285436437"><ele>52.0</ele><time>2026-05-02T06:48:43.001Z</time></trkpt><trkpt lat="42.42102711819161" lon="14.113892345507498"><ele>53.0</ele><time>2026-05-02T06:48:44.001Z</time></trkpt><trkpt lat="42.4209207605032" lon="14.113978376094252"><ele>53.0</ele><time>2026-05-02T06:48:45.001Z</time></trkpt><trkpt lat="42.42082717272767" lon="14.114054434638254"><ele>53.0</ele><time>2026-05-02T06:48:46.001Z</time></trkpt><trkpt lat="42.42073948085529" lon="14.114113436305814"><ele>53.0</ele><time>2026-05-02T06:48:47.001Z</time></trkpt><trkpt lat="42.42064396260347" lon="14.11418268674675"><ele>53.0</ele><time>2026-05-02T06:48:48.001Z</time></trkpt><trkpt lat="42.420540877197396" lon="14.114281904713557"><ele>53.0</ele><time>2026-05-02T06:48:49.001Z</time></trkpt><trkpt lat="42.42044111440883" lon="14.114417283233943"><ele>55.5</ele><time>2026-05-02T06:48:50.001Z</time></trkpt><trkpt lat="42.420358251459966" lon="14.114568932773986"><ele>58.0</ele><time>2026-05-02T06:48:51.001Z</time></trkpt><trkpt lat="42.42026853922582" lon="14.114709838148718"><ele>60.5</ele><time>2026-05-02T06:48:52.001Z</time></trkpt><trkpt lat="42.42016661111979" lon="14.11481479440644"><ele>63.0</ele><time>2026-05-02T06:48:53.001Z</time></trkpt><trkpt lat="42.42005095977739" lon="14.114882789867725"><ele>64.5</ele><time>2026-05-02T06:48:54.001Z</time></trkpt><trkpt lat="42.41992125751313" lon="14.114922436517514"><ele>66.0</ele><time>2026-05-02T06:48:55.001Z</time></trkpt><trkpt lat="42.419795746959316" lon="14.11498552944892"><ele>67.5</ele><time>2026-05-02T06:48:56.001Z</time></trkpt><trkpt lat="42.41967785455078" lon="14.115054662677862"><ele>69.0</ele><time>2026-05-02T06:48:57Z</time></trkpt><trkpt lat="42.41958791374073" lon="14.115156295643585"><ele>71.75</ele><time>2026-05-02T06:48:58Z</time></trkpt><trkpt lat="42.41950069327586" lon="14.115278290526321"><ele>74.5</ele><time>2026-05-02T06:48:59Z</time></trkpt><trkpt lat="42.41942322758282" lon="14.115377341696018"><ele>77.25</ele><time>2026-05-02T06:49:00Z</time></trkpt><trkpt lat="42.41931758032333" lon="14.115488291783421"><ele>80.0</ele><time>2026-05-02T06:49:01Z</time></trkpt><trkpt lat="42.41921862993715" lon="14.115568509380246"><ele>80.0</ele><time>2026-05-02T06:49:02Z</time></trkpt><trkpt lat="42.41910252560187" lon="14.11566955237431"><ele>80.0</ele><time>2026-05-02T06:49:03Z</time></trkpt><trkpt lat="42.419012748633286" lon="14.115760953481894"><ele>80.0</ele><time>2026-05-02T06:49:04Z</time></trkpt><trkpt lat="42.41895202790384" lon="14.11584185279219"><ele>80.0</ele><time>2026-05-02T06:49:05Z</time></trkpt><trkpt lat="42.41890567853841" lon="14.115916244217058"><ele>80.0</ele><time>2026-05-02T06:49:06Z</time></trkpt><trkpt lat="42.41884006917949" lon="14.115972627815776"><ele>82.2</ele><time>2026-05-02T06:49:08Z</time></trkpt><trkpt lat="42.41875368620117" lon="14.11591599237824"><ele>84.4</ele><time>2026-05-02T06:49:10Z</time></trkpt><trkpt lat="42.41868814851822" lon="14.115836268230032"><ele>86.6</ele><time>2026-05-02T06:49:11Z</time></trkpt><trkpt lat="42.41860527114623" lon="14.115752202683387"><ele>88.8</ele><time>2026-05-02T06:49:12Z</time></trkpt><trkpt lat="42.41851335846623" lon="14.115674025591177"><ele>91.0</ele><time>2026-05-02T06:49:13Z</time></trkpt><trkpt lat="42.41839350240181" lon="14.115584563925898"><ele>92.75</ele><time>2026-05-02T06:49:14Z</time></trkpt><trkpt lat="42.41827126258867" lon="14.115505108195256"><ele>94.5</ele><time>2026-05-02T06:49:15Z</time></trkpt><trkpt lat="42.418156413927285" lon="14.115437029910392"><ele>96.25</ele><time>2026-05-02T06:49:16Z</time></trkpt><trkpt lat="42.418043801897774" lon="14.115382352815887"><ele>98.0</ele><time>2026-05-02T06:49:17Z</time></trkpt><trkpt lat="42.41793977970111" lon="14.115336418145"><ele>99.60000000000001</ele><time>2026-05-02T06:49:18Z</time></trkpt><trkpt lat="42.41784499823961" lon="14.115294268344389"><ele>101.2</ele><time>2026-05-02T06:49:19Z</time></trkpt><trkpt lat="42.417756241154216" lon="14.1152663281155"><ele>102.8</ele><time>2026-05-02T06:49:20Z</time></trkpt><trkpt lat="42.417668475593985" lon="14.115236493613775"><ele>104.4</ele><time>2026-05-02T06:49:21Z</time></trkpt><trkpt lat="42.417574234245045" lon="14.115206081836313"><ele>106.0</ele><time>2026-05-02T06:49:22Z</time></trkpt><trkpt lat="42.41746973892189" lon="14.115186122156945"><ele>106.0</ele><time>2026-05-02T06:49:23Z</time></trkpt><trkpt lat="42.417370634034825" lon="14.11517433499124"><ele>106.0</ele><time>2026-05-02T06:49:24Z</time></trkpt><trkpt lat="42.417278695837226" lon="14.115168080207589"><ele>106.0</ele><time>2026-05-02T06:49:25Z</time></trkpt><trkpt lat="42.4171912411442" lon="14.115171447359161"><ele>106.0</ele><time>2026-05-02T06:49:26Z</time></trkpt><trkpt lat="42.417108227299096" lon="14.11516677827439"><ele>106.0</ele><time>2026-05-02T06:49:27Z</time></trkpt><trkpt lat="42.417012340488924" lon="14.115163305476083"><ele>107.0</ele><time>2026-05-02T06:49:28Z</time></trkpt><trkpt lat="42.4169281806253" lon="14.115157468105958"><ele>108.0</ele><time>2026-05-02T06:49:29Z</time></trkpt><trkpt lat="42.41686271016068" lon="14.115145570974743"><ele>109.0</ele><time>2026-05-02T06:49:30Z</time></trkpt><trkpt lat="42.41677536692562" lon="14.115157808756473"><ele>110.0</ele><time>2026-05-02T06:49:33Z</time></trkpt><trkpt lat="42.41664787567009" lon="14.115191342824517"><ele>111.0</ele><time>2026-05-02T06:49:35Z</time></trkpt><trkpt lat="42.41656693052291" lon="14.115210745208927"><ele>111.0</ele><time>2026-05-02T06:49:36Z</time></trkpt><trkpt lat="42.41646867335709" lon="14.115228058523966"><ele>111.0</ele><time>2026-05-02T06:49:37Z</time></trkpt><trkpt lat="42.41636650794757" lon="14.115247283179327"><ele>111.0</ele><time>2026-05-02T06:49:38Z</time></trkpt><trkpt lat="42.41626202231512" lon="14.115255297847309"><ele>111.0</ele><time>2026-05-02T06:49:39Z</time></trkpt><trkpt lat="42.41615634765551" lon="14.115258650714122"><ele>111.0</ele><time>2026-05-02T06:49:40Z</time></trkpt><trkpt lat="42.41605872414294" lon="14.115259155964889"><ele>111.83333333333333</ele><time>2026-05-02T06:49:41Z</time></trkpt><trkpt lat="42.41596555829006" lon="14.115257900704199"><ele>112.66666666666666</ele><time>2026-05-02T06:49:42Z</time></trkpt><trkpt lat="42.41588512333414" lon="14.115256543661248"><ele>113.5</ele><time>2026-05-02T06:49:43Z</time></trkpt><trkpt lat="42.415811481448905" lon="14.115257051232463"><ele>114.33333333333333</ele><time>2026-05-02T06:49:44Z</time></trkpt><trkpt lat="42.41572343930453" lon="14.115277435343348"><ele>115.16666666666666</ele><time>2026-05-02T06:49:45Z</time></trkpt><trkpt lat="42.41564232907073" lon="14.115300743379974"><ele>116.0</ele><time>2026-05-02T06:49:46Z</time></trkpt><trkpt lat="42.41556943843603" lon="14.11532037192575"><ele>116.00000000000001</ele><time>2026-05-02T06:49:47Z</time></trkpt><trkpt lat="42.415496820018674" lon="14.115349731631373"><ele>116.0</ele><time>2026-05-02T06:49:48Z</time></trkpt><trkpt lat="42.41543608116411" lon="14.115374873511676"><ele>116.00000000000001</ele><time>2026-05-02T06:49:49Z</time></trkpt><trkpt lat="42.41536570446556" lon="14.115404271522507"><ele>116.00000000000001</ele><time>2026-05-02T06:49:51Z</time></trkpt><trkpt lat="42.41528438728211" lon="14.115448064474656"><ele>116.0</ele><time>2026-05-02T06:50:08Z</time></trkpt><trkpt lat="42.415231850651836" lon="14.11549798798715"><ele>116.00000000000001</ele><time>2026-05-02T06:50:09Z</time></trkpt><trkpt lat="42.415180489167604" lon="14.115585726071755"><ele>116.00000000000001</ele><time>2026-05-02T06:50:10Z</time></trkpt><trkpt lat="42.41510432479706" lon="14.115705598837797"><ele>116.0</ele><time>2026-05-02T06:50:11Z</time></trkpt><trkpt lat="42.41502140466664" lon="14.115821639896202"><ele>116.0</ele><time>2026-05-02T06:50:12Z</time></trkpt><trkpt lat="42.4149407663561" lon="14.115927839218351"><ele>116.0</ele><time>2026-05-02T06:50:13Z</time></trkpt><trkpt lat="42.41485479588998" lon="14.116026100423516"><ele>116.0</ele><time>2026-05-02T06:50:14Z</time></trkpt><trkpt lat="42.414758501581346" lon="14.11611688085747"><ele>114.75</ele><time>2026-05-02T06:50:15Z</time></trkpt><trkpt lat="42.414645285626264" lon="14.116211917896749"><ele>113.5</ele><time>2026-05-02T06:50:16Z</time></trkpt><trkpt lat="42.41451101399987" lon="14.116311055089792"><ele>112.25</ele><time>2026-05-02T06:50:17Z</time></trkpt><trkpt lat="42.41436221733591" lon="14.116368692718984"><ele>111.0</ele><time>2026-05-02T06:50:18Z</time></trkpt><trkpt lat="42.41425884888182" lon="14.116514978148412"><ele>110.75</ele><time>2026-05-02T06:50:19Z</time></trkpt><trkpt lat="42.41413033564581" lon="14.116603794524593"><ele>110.5</ele><time>2026-05-02T06:50:20Z</time></trkpt><trkpt lat="42.41401882055389" lon="14.116658957602574"><ele>110.25</ele><time>2026-05-02T06:50:21Z</time></trkpt><trkpt lat="42.41389862758396" lon="14.11672641268676"><ele>110.0</ele><time>2026-05-02T06:50:22Z</time></trkpt><trkpt lat="42.41379070076032" lon="14.116796100186233"><ele>109.25</ele><time>2026-05-02T06:50:23Z</time></trkpt><trkpt lat="42.41368863215838" lon="14.116876328632841"><ele>108.5</ele><time>2026-05-02T06:50:24Z</time></trkpt><trkpt lat="42.41359536079237" lon="14.117011289871197"><ele>107.75</ele><time>2026-05-02T06:50:25Z</time></trkpt><trkpt lat="42.41350456204311" lon="14.117167025250408"><ele>107.0</ele><time>2026-05-02T06:50:25.999Z</time></trkpt><trkpt lat="42.413413464792995" lon="14.117336370879158"><ele>107.5</ele><time>2026-05-02T06:50:26.999Z</time></trkpt><trkpt lat="42.41332354518429" lon="14.117508486527052"><ele>108.0</ele><time>2026-05-02T06:50:27.999Z</time></trkpt><trkpt lat="42.413234347453965" lon="14.117673805544008"><ele>108.5</ele><time>2026-05-02T06:50:28.999Z</time></trkpt><trkpt lat="42.41315257768561" lon="14.117824469816824"><ele>109.0</ele><time>2026-05-02T06:50:29.999Z</time></trkpt><trkpt lat="42.41307509626897" lon="14.117964621204308"><ele>109.0</ele><time>2026-05-02T06:50:30.999Z</time></trkpt><trkpt lat="42.41300004249778" lon="14.118101975892198"><ele>109.0</ele><time>2026-05-02T06:50:31.999Z</time></trkpt><trkpt lat="42.412917379605226" lon="14.118231576621769"><ele>109.0</ele><time>2026-05-02T06:50:32.999Z</time></trkpt><trkpt lat="42.41282718072573" lon="14.118363119435683"><ele>109.0</ele><time>2026-05-02T06:50:33.999Z</time></trkpt><trkpt lat="42.412727819831936" lon="14.118500026569292"><ele>108.5</ele><time>2026-05-02T06:50:34.999Z</time></trkpt><trkpt lat="42.412610614405814" lon="14.118611935741757"><ele>108.0</ele><time>2026-05-02T06:50:35.999Z</time></trkpt><trkpt lat="42.412484861420374" lon="14.118711597646591"><ele>107.5</ele><time>2026-05-02T06:50:36.999Z</time></trkpt><trkpt lat="42.41235657307757" lon="14.118803468900818"><ele>107.0</ele><time>2026-05-02T06:50:37.999Z</time></trkpt><trkpt lat="42.41221937881429" lon="14.118888314036528"><ele>105.75</ele><time>2026-05-02T06:50:38.999Z</time></trkpt><trkpt lat="42.41208823735833" lon="14.11896829077379"><ele>104.5</ele><time>2026-05-02T06:50:39.999Z</time></trkpt><trkpt lat="42.41196311344445" lon="14.119052947806088"><ele>103.25</ele><time>2026-05-02T06:50:40.999Z</time></trkpt><trkpt lat="42.41183655062732" lon="14.119142429019579"><ele>102.0</ele><time>2026-05-02T06:50:41.999Z</time></trkpt><trkpt lat="42.411713221619515" lon="14.119223176991198"><ele>102.0</ele><time>2026-05-02T06:50:42.999Z</time></trkpt><trkpt lat="42.411577459260734" lon="14.119303890795502"><ele>102.0</ele><time>2026-05-02T06:50:44.001Z</time></trkpt><trkpt lat="42.41144469061258" lon="14.119380455186326"><ele>102.0</ele><time>2026-05-02T06:50:45.001Z</time></trkpt><trkpt lat="42.41131669288311" lon="14.119458719206065"><ele>102.0</ele><time>2026-05-02T06:50:46.001Z</time></trkpt><trkpt lat="42.411190816683884" lon="14.119546840989564"><ele>102.25</ele><time>2026-05-02T06:50:47.001Z</time></trkpt><trkpt lat="42.41106485258117" lon="14.119649251861171"><ele>102.5</ele><time>2026-05-02T06:50:48.001Z</time></trkpt><trkpt lat="42.410946956838956" lon="14.119759307217835"><ele>102.75</ele><time>2026-05-02T06:50:49.001Z</time></trkpt><trkpt lat="42.410848841130566" lon="14.119854852272162"><ele>103.0</ele><time>2026-05-02T06:50:50.001Z</time></trkpt><trkpt lat="42.41077830394543" lon="14.119917551191396"><ele>102.0</ele><time>2026-05-02T06:50:51.001Z</time></trkpt><trkpt lat="42.41068811493718" lon="14.119996729480869"><ele>101.0</ele><time>2026-05-02T06:50:53.001Z</time></trkpt><trkpt lat="42.41061957837582" lon="14.12004262888496"><ele>100.0</ele><time>2026-05-02T06:50:56.001Z</time></trkpt><trkpt lat="42.41055849698782" lon="14.120014974169967"><ele>99.0</ele><time>2026-05-02T06:50:59Z</time></trkpt><trkpt lat="42.41044723128673" lon="14.119926456022224"><ele>98.0</ele><time>2026-05-02T06:51:01Z</time></trkpt><trkpt lat="42.410341196869545" lon="14.11982370547676"><ele>97.2</ele><time>2026-05-02T06:51:03Z</time></trkpt><trkpt lat="42.4102754175336" lon="14.119711362852394"><ele>96.4</ele><time>2026-05-02T06:51:05Z</time></trkpt><trkpt lat="42.41024442221781" lon="14.119569259013106"><ele>95.60000000000001</ele><time>2026-05-02T06:51:07Z</time></trkpt><trkpt lat="42.410169636844046" lon="14.119459119261188"><ele>94.80000000000001</ele><time>2026-05-02T06:51:09Z</time></trkpt><trkpt lat="42.41011862509906" lon="14.11936441739532"><ele>94.0</ele><time>2026-05-02T06:51:11Z</time></trkpt><trkpt lat="42.410052352472924" lon="14.119262223925263"><ele>94.0</ele><time>2026-05-02T06:51:13Z</time></trkpt><trkpt lat="42.40995959955468" lon="14.119147506639852"><ele>94.0</ele><time>2026-05-02T06:51:15Z</time></trkpt><trkpt lat="42.4099123064365" lon="14.119090445469121"><ele>94.0</ele><time>2026-05-02T06:51:16Z</time></trkpt><trkpt lat="42.40981342973738" lon="14.119008797685131"><ele>94.0</ele><time>2026-05-02T06:51:18Z</time></trkpt><trkpt lat="42.40971940838818" lon="14.118944008608668"><ele>94.0</ele><time>2026-05-02T06:51:20Z</time></trkpt><trkpt lat="42.409637736919414" lon="14.118883245052032"><ele>92.0</ele><time>2026-05-02T06:51:22Z</time></trkpt><trkpt lat="42.40956046270084" lon="14.118819385251866"><ele>90.0</ele><time>2026-05-02T06:51:24Z</time></trkpt><trkpt lat="42.40948480945922" lon="14.118763094701439"><ele>88.0</ele><time>2026-05-02T06:51:26Z</time></trkpt><trkpt lat="42.40939006149371" lon="14.118698605892142"><ele>86.0</ele><time>2026-05-02T06:51:28Z</time></trkpt><trkpt lat="42.40928833323276" lon="14.118635905791091"><ele>84.0</ele><time>2026-05-02T06:51:30Z</time></trkpt><trkpt lat="42.4092028477971" lon="14.118561539088702"><ele>84.0</ele><time>2026-05-02T06:51:32Z</time></trkpt><trkpt lat="42.40913495918999" lon="14.118491781012013"><ele>84.0</ele><time>2026-05-02T06:51:34Z</time></trkpt><trkpt lat="42.409051449908205" lon="14.118389344549678"><ele>84.0</ele><time>2026-05-02T06:51:36Z</time></trkpt><trkpt lat="42.40898934440598" lon="14.118294835383352"><ele>84.0</ele><time>2026-05-02T06:51:38Z</time></trkpt><trkpt lat="42.40893624183299" lon="14.11817346862645"><ele>84.0</ele><time>2026-05-02T06:51:40Z</time></trkpt><trkpt lat="42.408905019257666" lon="14.118098604322391"><ele>82.60000000000001</ele><time>2026-05-02T06:51:41Z</time></trkpt><trkpt lat="42.40884542860656" lon="14.117957075023268"><ele>81.2</ele><time>2026-05-02T06:51:43Z</time></trkpt><trkpt lat="42.408790758903486" lon="14.117805214338453"><ele>79.80000000000001</ele><time>2026-05-02T06:51:45Z</time></trkpt><trkpt lat="42.40875960207751" lon="14.11772752983208"><ele>78.4</ele><time>2026-05-02T06:51:46Z</time></trkpt><trkpt lat="42.408732140094386" lon="14.117647667180337"><ele>77.0</ele><time>2026-05-02T06:51:47Z</time></trkpt><trkpt lat="42.408677363224356" lon="14.117505040033507"><ele>77.8</ele><time>2026-05-02T06:51:49Z</time></trkpt><trkpt lat="42.408631625246436" lon="14.117381998175784"><ele>78.6</ele><time>2026-05-02T06:51:51Z</time></trkpt><trkpt lat="42.40857948392667" lon="14.1172760354656"><ele>79.39999999999999</ele><time>2026-05-02T06:51:53Z</time></trkpt><trkpt lat="42.408492158019314" lon="14.117197157638271"><ele>80.2</ele><time>2026-05-02T06:51:55Z</time></trkpt><trkpt lat="42.40839149134409" lon="14.117122248384673"><ele>81.0</ele><time>2026-05-02T06:51:57Z</time></trkpt><trkpt lat="42.40833817677969" lon="14.117069075956898"><ele>81.0</ele><time>2026-05-02T06:51:58Z</time></trkpt><trkpt lat="42.40824255171661" lon="14.116948159588345"><ele>81.0</ele><time>2026-05-02T06:52:00Z</time></trkpt><trkpt lat="42.40818449528082" lon="14.116886530322029"><ele>81.0</ele><time>2026-05-02T06:52:01Z</time></trkpt><trkpt lat="42.40812852229084" lon="14.116818926067678"><ele>81.0</ele><time>2026-05-02T06:52:02Z</time></trkpt><trkpt lat="42.4080747922448" lon="14.116767737814767"><ele>81.0</ele><time>2026-05-02T06:52:03Z</time></trkpt><trkpt lat="42.40800611178105" lon="14.11672149824317"><ele>81.0</ele><time>2026-05-02T06:52:04Z</time></trkpt><trkpt lat="42.40794002407099" lon="14.116703796642776"><ele>82.83333333333333</ele><time>2026-05-02T06:52:05Z</time></trkpt><trkpt lat="42.40783965672144" lon="14.116645401400628"><ele>84.66666666666667</ele><time>2026-05-02T06:52:06.999Z</time></trkpt><trkpt lat="42.407752901160656" lon="14.116585429905967"><ele>86.5</ele><time>2026-05-02T06:52:08.999Z</time></trkpt><trkpt lat="42.40768881356748" lon="14.116552802554256"><ele>88.33333333333334</ele><time>2026-05-02T06:52:09.999Z</time></trkpt><trkpt lat="42.40761452407225" lon="14.11652505134951"><ele>90.16666666666667</ele><time>2026-05-02T06:52:10.999Z</time></trkpt><trkpt lat="42.407542663439706" lon="14.116496349828322"><ele>92.0</ele><time>2026-05-02T06:52:11.999Z</time></trkpt><trkpt lat="42.40746102456406" lon="14.11647222598238"><ele>92.5</ele><time>2026-05-02T06:52:12.999Z</time></trkpt><trkpt lat="42.407378170120126" lon="14.116439702191197"><ele>93.0</ele><time>2026-05-02T06:52:13.999Z</time></trkpt><trkpt lat="42.40730699524014" lon="14.116415673185514"><ele>93.5</ele><time>2026-05-02T06:52:14.999Z</time></trkpt><trkpt lat="42.40719949796443" lon="14.116379863635784"><ele>94.0</ele><time>2026-05-02T06:52:16.999Z</time></trkpt><trkpt lat="42.407108231232044" lon="14.116354766448271"><ele>94.5</ele><time>2026-05-02T06:52:18.999Z</time></trkpt><trkpt lat="42.407028713449726" lon="14.11633149255565"><ele>95.0</ele><time>2026-05-02T06:52:20.999Z</time></trkpt><trkpt lat="42.40694707105409" lon="14.116285569768424"><ele>96.6</ele><time>2026-05-02T06:53:37Z</time></trkpt><trkpt lat="42.40688014601092" lon="14.116242553547453"><ele>98.2</ele><time>2026-05-02T06:53:40Z</time></trkpt><trkpt lat="42.406768144983864" lon="14.116166809555715"><ele>99.80000000000001</ele><time>2026-05-02T06:53:59.999Z</time></trkpt><trkpt lat="42.4067085271313" lon="14.11612308500678"><ele>101.4</ele><time>2026-05-02T06:54:00.999Z</time></trkpt><trkpt lat="42.40663406977264" lon="14.11606333493432"><ele>103.0</ele><time>2026-05-02T06:54:01.999Z</time></trkpt><trkpt lat="42.406553075109244" lon="14.11599364078149"><ele>103.0</ele><time>2026-05-02T06:54:02.999Z</time></trkpt><trkpt lat="42.4064609273755" lon="14.115921496301684"><ele>103.0</ele><time>2026-05-02T06:54:03.999Z</time></trkpt><trkpt lat="42.406363864614995" lon="14.115857661885848"><ele>103.0</ele><time>2026-05-02T06:54:04.999Z</time></trkpt><trkpt lat="42.4062637944557" lon="14.115788235036003"><ele>103.0</ele><time>2026-05-02T06:54:05.999Z</time></trkpt><trkpt lat="42.40616397764621" lon="14.115721038276813"><ele>103.0</ele><time>2026-05-02T06:54:06.999Z</time></trkpt><trkpt lat="42.40606756850893" lon="14.115660771413681"><ele>104.2</ele><time>2026-05-02T06:54:07.999Z</time></trkpt><trkpt lat="42.40596947422526" lon="14.115617257117464"><ele>105.4</ele><time>2026-05-02T06:54:08.999Z</time></trkpt><trkpt lat="42.4059077431709" lon="14.115527484896614"><ele>106.60000000000001</ele><time>2026-05-02T06:54:09.999Z</time></trkpt><trkpt lat="42.40584954826671" lon="14.11547910164722"><ele>107.80000000000001</ele><time>2026-05-02T06:54:10.999Z</time></trkpt><trkpt lat="42.405736629739906" lon="14.115437040816138"><ele>109.0</ele><time>2026-05-02T06:54:12.999Z</time></trkpt><trkpt lat="42.40563931001742" lon="14.11545532370336"><ele>109.0</ele><time>2026-05-02T06:54:13.999Z</time></trkpt><trkpt lat="42.40553039787526" lon="14.115490568121292"><ele>109.0</ele><time>2026-05-02T06:54:14.999Z</time></trkpt><trkpt lat="42.4054610655061" lon="14.11551549452183"><ele>109.0</ele><time>2026-05-02T06:54:15.999Z</time></trkpt><trkpt lat="42.405443797875314" lon="14.11560132231566"><ele>109.0</ele><time>2026-05-02T06:54:19.999Z</time></trkpt><trkpt lat="42.40540064960384" lon="14.115787229007582"><ele>109.0</ele><time>2026-05-02T06:54:21.999Z</time></trkpt><trkpt lat="42.40536038996238" lon="14.115888399009522"><ele>107.6</ele><time>2026-05-02T06:54:22.999Z</time></trkpt><trkpt lat="42.40531059119123" lon="14.115982751870419"><ele>106.2</ele><time>2026-05-02T06:54:23.999Z</time></trkpt><trkpt lat="42.405243088934064" lon="14.11608703050204"><ele>104.8</ele><time>2026-05-02T06:54:24.999Z</time></trkpt><trkpt lat="42.40516858851166" lon="14.11618999170894"><ele>103.39999999999999</ele><time>2026-05-02T06:54:25.999Z</time></trkpt><trkpt lat="42.40507473389843" lon="14.116308931767238"><ele>102.0</ele><time>2026-05-02T06:54:26.999Z</time></trkpt><trkpt lat="42.40494854407236" lon="14.116458192689779"><ele>99.33333333333333</ele><time>2026-05-02T06:54:27.999Z</time></trkpt><trkpt lat="42.404817361163374" lon="14.116621934095482"><ele>96.66666666666666</ele><time>2026-05-02T06:54:28.999Z</time></trkpt><trkpt lat="42.40469094480247" lon="14.116781102228698"><ele>94.0</ele><time>2026-05-02T06:54:29.999Z</time></trkpt><trkpt lat="42.40455262780676" lon="14.116938751805877"><ele>92.66666666666666</ele><time>2026-05-02T06:54:30.999Z</time></trkpt><trkpt lat="42.40441135565088" lon="14.117099815245508"><ele>91.33333333333333</ele><time>2026-05-02T06:54:31.999Z</time></trkpt><trkpt lat="42.40427678834505" lon="14.117266542813097"><ele>90.0</ele><time>2026-05-02T06:54:32.999Z</time></trkpt><trkpt lat="42.40414759228913" lon="14.117427332218064"><ele>88.75</ele><time>2026-05-02T06:54:33.999Z</time></trkpt><trkpt lat="42.40403481223847" lon="14.117568600468926"><ele>87.5</ele><time>2026-05-02T06:54:34.999Z</time></trkpt><trkpt lat="42.40392816969796" lon="14.117701858277233"><ele>86.25</ele><time>2026-05-02T06:54:35.999Z</time></trkpt><trkpt lat="42.403826206243075" lon="14.117825023520647"><ele>85.0</ele><time>2026-05-02T06:54:36.999Z</time></trkpt><trkpt lat="42.40372129227417" lon="14.117955066422434"><ele>84.25</ele><time>2026-05-02T06:54:37.999Z</time></trkpt><trkpt lat="42.4036210066716" lon="14.118087682201415"><ele>83.5</ele><time>2026-05-02T06:54:38.999Z</time></trkpt><trkpt lat="42.40351530043049" lon="14.118220970146133"><ele>82.75</ele><time>2026-05-02T06:54:39.999Z</time></trkpt><trkpt lat="42.40341040843972" lon="14.118345830423833"><ele>82.0</ele><time>2026-05-02T06:54:40.999Z</time></trkpt><trkpt lat="42.40331266933939" lon="14.118465972990643"><ele>81.5</ele><time>2026-05-02T06:54:41.999Z</time></trkpt><trkpt lat="42.40321622825603" lon="14.118577319377343"><ele>81.0</ele><time>2026-05-02T06:54:42.999Z</time></trkpt><trkpt lat="42.40312297673504" lon="14.118686931741948"><ele>80.5</ele><time>2026-05-02T06:54:43.999Z</time></trkpt><trkpt lat="42.403031255074815" lon="14.118806041894537"><ele>80.0</ele><time>2026-05-02T06:54:44.999Z</time></trkpt><trkpt lat="42.402938496060116" lon="14.118919755458036"><ele>79.8</ele><time>2026-05-02T06:54:45.999Z</time></trkpt><trkpt lat="42.40286003963577" lon="14.119026722635223"><ele>79.6</ele><time>2026-05-02T06:54:46.999Z</time></trkpt><trkpt lat="42.40278799603329" lon="14.119125244675386"><ele>79.4</ele><time>2026-05-02T06:54:47.999Z</time></trkpt><trkpt lat="42.4027148665076" lon="14.119218055705694"><ele>79.2</ele><time>2026-05-02T06:54:48.999Z</time></trkpt><trkpt lat="42.40263799553542" lon="14.119309081995384"><ele>79.0</ele><time>2026-05-02T06:54:49.999Z</time></trkpt><trkpt lat="42.40254087521687" lon="14.119413914988094"><ele>78.0</ele><time>2026-05-02T06:54:50.999Z</time></trkpt><trkpt lat="42.402434448560356" lon="14.11951159150978"><ele>77.0</ele><time>2026-05-02T06:54:51.999Z</time></trkpt><trkpt lat="42.40232905780342" lon="14.119617141373094"><ele>76.0</ele><time>2026-05-02T06:54:52.999Z</time></trkpt><trkpt lat="42.402223750983325" lon="14.1197188304487"><ele>75.0</ele><time>2026-05-02T06:54:53.999Z</time></trkpt><trkpt lat="42.40211617359629" lon="14.119819615123888"><ele>73.0</ele><time>2026-05-02T06:54:55Z</time></trkpt><trkpt lat="42.40200077507274" lon="14.11991979943134"><ele>71.0</ele><time>2026-05-02T06:54:56Z</time></trkpt><trkpt lat="42.40187614311913" lon="14.120028935209682"><ele>69.0</ele><time>2026-05-02T06:54:57Z</time></trkpt><trkpt lat="42.401756261688114" lon="14.120137159341139"><ele>67.0</ele><time>2026-05-02T06:54:58Z</time></trkpt><trkpt lat="42.40161366050328" lon="14.12026012989203"><ele>67.0</ele><time>2026-05-02T06:54:59Z</time></trkpt><trkpt lat="42.40147345322288" lon="14.120384830653103"><ele>67.0</ele><time>2026-05-02T06:55:00Z</time></trkpt><trkpt lat="42.401350276859795" lon="14.12049509055491"><ele>67.0</ele><time>2026-05-02T06:55:01Z</time></trkpt><trkpt lat="42.401241490394824" lon="14.120595671557892"><ele>67.0</ele><time>2026-05-02T06:55:02Z</time></trkpt><trkpt lat="42.40113660530059" lon="14.12069125572909"><ele>66.25</ele><time>2026-05-02T06:55:03Z</time></trkpt><trkpt lat="42.401030896518805" lon="14.120785011457292"><ele>65.5</ele><time>2026-05-02T06:55:04Z</time></trkpt><trkpt lat="42.40092832231397" lon="14.120878866545597"><ele>64.75</ele><time>2026-05-02T06:55:05Z</time></trkpt><trkpt lat="42.40082407875658" lon="14.120978570806502"><ele>64.0</ele><time>2026-05-02T06:55:06Z</time></trkpt><trkpt lat="42.40071708939017" lon="14.12108438734795"><ele>64.0</ele><time>2026-05-02T06:55:07Z</time></trkpt><trkpt lat="42.400605278616666" lon="14.12119135411425"><ele>64.0</ele><time>2026-05-02T06:55:08Z</time></trkpt><trkpt lat="42.40049288974889" lon="14.121309236925587"><ele>64.0</ele><time>2026-05-02T06:55:09Z</time></trkpt><trkpt lat="42.40037673773221" lon="14.121413581247072"><ele>64.0</ele><time>2026-05-02T06:55:10Z</time></trkpt><trkpt lat="42.40026698283487" lon="14.121497196083437"><ele>63.400000000000006</ele><time>2026-05-02T06:55:11Z</time></trkpt><trkpt lat="42.40017006092732" lon="14.121579565037111"><ele>62.800000000000004</ele><time>2026-05-02T06:55:12Z</time></trkpt><trkpt lat="42.40010401428362" lon="14.121657277964273"><ele>62.199999999999996</ele><time>2026-05-02T06:55:13Z</time></trkpt><trkpt lat="42.40003676760244" lon="14.121751425808784"><ele>61.599999999999994</ele><time>2026-05-02T06:55:14Z</time></trkpt><trkpt lat="42.39997378133229" lon="14.121884943362549"><ele>61.0</ele><time>2026-05-02T06:55:15Z</time></trkpt><trkpt lat="42.399925113087626" lon="14.122047332293677"><ele>61.0</ele><time>2026-05-02T06:55:16Z</time></trkpt><trkpt lat="42.39988119158026" lon="14.122210991869663"><ele>61.0</ele><time>2026-05-02T06:55:17Z</time></trkpt><trkpt lat="42.39982571476191" lon="14.122364371815232"><ele>61.0</ele><time>2026-05-02T06:55:18Z</time></trkpt><trkpt lat="42.399776922305094" lon="14.122505856855621"><ele>61.0</ele><time>2026-05-02T06:55:19Z</time></trkpt><trkpt lat="42.39973565994228" lon="14.122636868971659"><ele>61.0</ele><time>2026-05-02T06:55:20Z</time></trkpt><trkpt lat="42.39970683898254" lon="14.122762710759417"><ele>60.99999999999999</ele><time>2026-05-02T06:55:21Z</time></trkpt><trkpt lat="42.39970489299371" lon="14.122898478281634"><ele>60.99999999999999</ele><time>2026-05-02T06:55:22Z</time></trkpt><trkpt lat="42.3997245692803" lon="14.12304920118911"><ele>61.0</ele><time>2026-05-02T06:55:23Z</time></trkpt><trkpt lat="42.39975521996342" lon="14.123194425691702"><ele>61.0</ele><time>2026-05-02T06:55:24Z</time></trkpt><trkpt lat="42.399767119723585" lon="14.123325104117805"><ele>61.0</ele><time>2026-05-02T06:55:25Z</time></trkpt><trkpt lat="42.399756583418515" lon="14.123453136642528"><ele>60.99999999999999</ele><time>2026-05-02T06:55:26Z</time></trkpt><trkpt lat="42.39971915478632" lon="14.12357317113833"><ele>60.99999999999999</ele><time>2026-05-02T06:55:27Z</time></trkpt><trkpt lat="42.39965701482141" lon="14.123698192814238"><ele>61.0</ele><time>2026-05-02T06:55:28Z</time></trkpt><trkpt lat="42.399592850599944" lon="14.123837990931374"><ele>61.0</ele><time>2026-05-02T06:55:29Z</time></trkpt><trkpt lat="42.3995257063655" lon="14.123996339976511"><ele>58.75</ele><time>2026-05-02T06:55:30Z</time></trkpt><trkpt lat="42.39945177534037" lon="14.12417609200221"><ele>56.5</ele><time>2026-05-02T06:55:31Z</time></trkpt><trkpt lat="42.399381622077996" lon="14.124350703747131"><ele>54.25</ele><time>2026-05-02T06:55:32Z</time></trkpt><trkpt lat="42.39930837422837" lon="14.124514244335773"><ele>52.0</ele><time>2026-05-02T06:55:33Z</time></trkpt><trkpt lat="42.399233143631655" lon="14.12466520817208"><ele>52.0</ele><time>2026-05-02T06:55:34Z</time></trkpt><trkpt lat="42.39914643572758" lon="14.1247992155039"><ele>52.0</ele><time>2026-05-02T06:55:35Z</time></trkpt><trkpt lat="42.39906764563352" lon="14.124934911674707"><ele>52.0</ele><time>2026-05-02T06:55:36Z</time></trkpt><trkpt lat="42.39898845383995" lon="14.125069864290055"><ele>52.0</ele><time>2026-05-02T06:55:37Z</time></trkpt><trkpt lat="42.39890658582008" lon="14.125197375500926"><ele>50.25</ele><time>2026-05-02T06:55:38Z</time></trkpt><trkpt lat="42.39881173253075" lon="14.125297478302663"><ele>48.5</ele><time>2026-05-02T06:55:39Z</time></trkpt><trkpt lat="42.398703976926846" lon="14.125355284536607"><ele>46.75</ele><time>2026-05-02T06:55:40Z</time></trkpt><trkpt lat="42.39858952966024" lon="14.1253782841542"><ele>45.0</ele><time>2026-05-02T06:55:41Z</time></trkpt><trkpt lat="42.3984648891844" lon="14.125370809917735"><ele>45.0</ele><time>2026-05-02T06:55:42Z</time></trkpt><trkpt lat="42.39833861526849" lon="14.125350574292801"><ele>45.0</ele><time>2026-05-02T06:55:43Z</time></trkpt><trkpt lat="42.39821701221748" lon="14.125311939196248"><ele>45.0</ele><time>2026-05-02T06:55:44Z</time></trkpt><trkpt lat="42.3980985039919" lon="14.12527627054094"><ele>45.0</ele><time>2026-05-02T06:55:45Z</time></trkpt><trkpt lat="42.397976310308074" lon="14.125278437831437"><ele>45.25</ele><time>2026-05-02T06:55:46Z</time></trkpt><trkpt lat="42.397860555634324" lon="14.125324447442686"><ele>45.5</ele><time>2026-05-02T06:55:47Z</time></trkpt><trkpt lat="42.39776376338536" lon="14.125435506100013"><ele>45.75</ele><time>2026-05-02T06:55:48Z</time></trkpt><trkpt lat="42.39769178840447" lon="14.125581730798707"><ele>46.0</ele><time>2026-05-02T06:55:49Z</time></trkpt><trkpt lat="42.39764022654331" lon="14.125741035094904"><ele>47.0</ele><time>2026-05-02T06:55:50Z</time></trkpt><trkpt lat="42.39758543579049" lon="14.125881595091665"><ele>48.0</ele><time>2026-05-02T06:55:51Z</time></trkpt><trkpt lat="42.39750760748078" lon="14.125990278688324"><ele>49.0</ele><time>2026-05-02T06:55:52Z</time></trkpt><trkpt lat="42.39741255690127" lon="14.126073338123243"><ele>50.0</ele><time>2026-05-02T06:55:52.999Z</time></trkpt><trkpt lat="42.39730198973798" lon="14.126133583131763"><ele>50.0</ele><time>2026-05-02T06:55:53.999Z</time></trkpt><trkpt lat="42.39718161453719" lon="14.126179061039274"><ele>50.0</ele><time>2026-05-02T06:55:54.999Z</time></trkpt><trkpt lat="42.39705494045506" lon="14.126218811887112"><ele>50.0</ele><time>2026-05-02T06:55:55.999Z</time></trkpt><trkpt lat="42.39692494628181" lon="14.12627329355652"><ele>50.0</ele><time>2026-05-02T06:55:56.999Z</time></trkpt><trkpt lat="42.396791894620954" lon="14.126332764744042"><ele>51.333333333333336</ele><time>2026-05-02T06:55:57.999Z</time></trkpt><trkpt lat="42.39665432284774" lon="14.126404115222623"><ele>52.66666666666667</ele><time>2026-05-02T06:55:58.999Z</time></trkpt><trkpt lat="42.3965187392498" lon="14.1264727975892"><ele>54.0</ele><time>2026-05-02T06:55:59.999Z</time></trkpt><trkpt lat="42.39636532242885" lon="14.126522061956454"><ele>54.0</ele><time>2026-05-02T06:56:00.999Z</time></trkpt><trkpt lat="42.39622706467885" lon="14.126563003430272"><ele>54.0</ele><time>2026-05-02T06:56:01.999Z</time></trkpt><trkpt lat="42.396080520273934" lon="14.126585040574922"><ele>54.0</ele><time>2026-05-02T06:56:02.999Z</time></trkpt><trkpt lat="42.39592443268777" lon="14.126608260266956"><ele>54.0</ele><time>2026-05-02T06:56:03.999Z</time></trkpt><trkpt lat="42.39577270061468" lon="14.126636770838893"><ele>54.0</ele><time>2026-05-02T06:56:04.999Z</time></trkpt><trkpt lat="42.39562939446657" lon="14.126678878429223"><ele>54.0</ele><time>2026-05-02T06:56:05.999Z</time></trkpt><trkpt lat="42.3954870826642" lon="14.126717317953187"><ele>54.0</ele><time>2026-05-02T06:56:06.999Z</time></trkpt><trkpt lat="42.39533160850138" lon="14.126747694874553"><ele>54.0</ele><time>2026-05-02T06:56:07.999Z</time></trkpt><trkpt lat="42.39515811249829" lon="14.12678361207972"><ele>54.0</ele><time>2026-05-02T06:56:08.999Z</time></trkpt><trkpt lat="42.39498739405969" lon="14.126818394262706"><ele>54.0</ele><time>2026-05-02T06:56:09.999Z</time></trkpt><trkpt lat="42.39481960948004" lon="14.126857804640563"><ele>54.0</ele><time>2026-05-02T06:56:10.999Z</time></trkpt><trkpt lat="42.39465327105241" lon="14.12689074170708"><ele>55.0</ele><time>2026-05-02T06:56:11.999Z</time></trkpt><trkpt lat="42.39448943978688" lon="14.126916654478109"><ele>56.0</ele><time>2026-05-02T06:56:12.999Z</time></trkpt><trkpt lat="42.39433325444891" lon="14.126939605340622"><ele>57.0</ele><time>2026-05-02T06:56:13.999Z</time></trkpt><trkpt lat="42.394179783902935" lon="14.126966656710914"><ele>57.0</ele><time>2026-05-02T06:56:14.999Z</time></trkpt><trkpt lat="42.39402221074114" lon="14.127000817424182"><ele>57.0</ele><time>2026-05-02T06:56:15.999Z</time></trkpt><trkpt lat="42.393874960158385" lon="14.127032392440448"><ele>57.0</ele><time>2026-05-02T06:56:16.999Z</time></trkpt><trkpt lat="42.393729763483805" lon="14.127074285407035"><ele>56.33333333333333</ele><time>2026-05-02T06:56:17.999Z</time></trkpt><trkpt lat="42.39358482005123" lon="14.127144651994051"><ele>55.666666666666664</ele><time>2026-05-02T06:56:18.999Z</time></trkpt><trkpt lat="42.3934507816733" lon="14.127255619161566"><ele>55.0</ele><time>2026-05-02T06:56:19.999Z</time></trkpt><trkpt lat="42.39332511443822" lon="14.12741214951055"><ele>54.666666666666664</ele><time>2026-05-02T06:56:20.999Z</time></trkpt><trkpt lat="42.393195915726295" lon="14.127582736445781"><ele>54.33333333333333</ele><time>2026-05-02T06:56:21.999Z</time></trkpt><trkpt lat="42.39305980391355" lon="14.127743510024821"><ele>54.0</ele><time>2026-05-02T06:56:22.999Z</time></trkpt><trkpt lat="42.39292631912856" lon="14.127909810579979"><ele>54.0</ele><time>2026-05-02T06:56:23.999Z</time></trkpt><trkpt lat="42.39278949587392" lon="14.128081214608052"><ele>54.0</ele><time>2026-05-02T06:56:24.999Z</time></trkpt><trkpt lat="42.39265854378728" lon="14.128261270183128"><ele>54.0</ele><time>2026-05-02T06:56:25.999Z</time></trkpt><trkpt lat="42.39253025115169" lon="14.128440631188022"><ele>54.0</ele><time>2026-05-02T06:56:26.999Z</time></trkpt><trkpt lat="42.39241049410208" lon="14.128603650357535"><ele>54.0</ele><time>2026-05-02T06:56:27.999Z</time></trkpt><trkpt lat="42.39229901676579" lon="14.12876262430508"><ele>54.0</ele><time>2026-05-02T06:56:28.999Z</time></trkpt><trkpt lat="42.39219207875973" lon="14.128917481933767"><ele>54.25</ele><time>2026-05-02T06:56:29.999Z</time></trkpt><trkpt lat="42.392093873766726" lon="14.129061522551346"><ele>54.5</ele><time>2026-05-02T06:56:30.999Z</time></trkpt><trkpt lat="42.39201047367818" lon="14.129192699087085"><ele>54.75</ele><time>2026-05-02T06:56:31.999Z</time></trkpt><trkpt lat="42.39193252473102" lon="14.12931245188491"><ele>55.0</ele><time>2026-05-02T06:56:32.999Z</time></trkpt><trkpt lat="42.39185657666826" lon="14.129412965114284"><ele>55.0</ele><time>2026-05-02T06:56:33.999Z</time></trkpt><trkpt lat="42.39178159922729" lon="14.129490476967"><ele>55.0</ele><time>2026-05-02T06:56:34.999Z</time></trkpt><trkpt lat="42.39170322506404" lon="14.129554121374637"><ele>55.0</ele><time>2026-05-02T06:56:35.999Z</time></trkpt><trkpt lat="42.39160272094133" lon="14.129584742098588"><ele>55.0</ele><time>2026-05-02T06:56:36.999Z</time></trkpt><trkpt lat="42.391482855042376" lon="14.129575103349804"><ele>55.0</ele><time>2026-05-02T06:56:37.999Z</time></trkpt><trkpt lat="42.39137184404809" lon="14.129526511702958"><ele>51.75</ele><time>2026-05-02T06:56:38.999Z</time></trkpt><trkpt lat="42.39126442158327" lon="14.129476782476493"><ele>48.5</ele><time>2026-05-02T06:56:39.999Z</time></trkpt><trkpt lat="42.39115584189731" lon="14.12943145153609"><ele>45.25</ele><time>2026-05-02T06:56:40.999Z</time></trkpt><trkpt lat="42.39104509612154" lon="14.129398890823918"><ele>42.0</ele><time>2026-05-02T06:56:41.999Z</time></trkpt><trkpt lat="42.39091848532981" lon="14.129406522992253"><ele>42.0</ele><time>2026-05-02T06:56:42.999Z</time></trkpt><trkpt lat="42.39078115469961" lon="14.129448895543211"><ele>42.0</ele><time>2026-05-02T06:56:43.999Z</time></trkpt><trkpt lat="42.39063735416056" lon="14.129512724456218"><ele>42.0</ele><time>2026-05-02T06:56:44.999Z</time></trkpt><trkpt lat="42.39048938889554" lon="14.129570964053173"><ele>42.0</ele><time>2026-05-02T06:56:45.999Z</time></trkpt><trkpt lat="42.390351294839384" lon="14.129629109950471"><ele>39.0</ele><time>2026-05-02T06:56:46.999Z</time></trkpt><trkpt lat="42.390225627327766" lon="14.12969130933853"><ele>36.0</ele><time>2026-05-02T06:56:47.999Z</time></trkpt><trkpt lat="42.390098063027054" lon="14.129730689755025"><ele>33.0</ele><time>2026-05-02T06:56:48.999Z</time></trkpt><trkpt lat="42.3899816520123" lon="14.129784326688052"><ele>30.0</ele><time>2026-05-02T06:56:49.999Z</time></trkpt><trkpt lat="42.38987638336488" lon="14.129828118673792"><ele>30.0</ele><time>2026-05-02T06:56:50.999Z</time></trkpt><trkpt lat="42.38977338570277" lon="14.12987456786815"><ele>30.0</ele><time>2026-05-02T06:56:51.999Z</time></trkpt><trkpt lat="42.38968256427234" lon="14.129913787192926"><ele>30.0</ele><time>2026-05-02T06:56:52.999Z</time></trkpt><trkpt lat="42.38961203934689" lon="14.129930857442705"><ele>30.0</ele><time>2026-05-02T06:56:53.999Z</time></trkpt><trkpt lat="42.389541290466745" lon="14.12992784009432"><ele>30.0</ele><time>2026-05-02T06:56:55.999Z</time></trkpt><trkpt lat="42.38943775907772" lon="14.129986079050838"><ele>30.0</ele><time>2026-05-02T06:56:57.999Z</time></trkpt><trkpt lat="42.3893681976433" lon="14.130075074777197"><ele>30.0</ele><time>2026-05-02T06:56:58.999Z</time></trkpt><trkpt lat="42.389275875253645" lon="14.130176604115988"><ele>30.0</ele><time>2026-05-02T06:56:59.999Z</time></trkpt><trkpt lat="42.389161688833084" lon="14.130270760942375"><ele>30.0</ele><time>2026-05-02T06:57:01Z</time></trkpt><trkpt lat="42.38905600416389" lon="14.130356398777426"><ele>30.0</ele><time>2026-05-02T06:57:02Z</time></trkpt><trkpt lat="42.38895776943553" lon="14.130435756823218"><ele>30.0</ele><time>2026-05-02T06:57:03Z</time></trkpt><trkpt lat="42.38886726487435" lon="14.130496126789762"><ele>30.0</ele><time>2026-05-02T06:57:04Z</time></trkpt><trkpt lat="42.3887882437427" lon="14.130553070975155"><ele>30.0</ele><time>2026-05-02T06:57:05Z</time></trkpt><trkpt lat="42.38871516658078" lon="14.130610614023702"><ele>30.0</ele><time>2026-05-02T06:57:06Z</time></trkpt><trkpt lat="42.38864359620016" lon="14.130665660901043"><ele>30.0</ele><time>2026-05-02T06:57:07Z</time></trkpt><trkpt lat="42.38857907213074" lon="14.13069568880292"><ele>30.0</ele><time>2026-05-02T06:57:08Z</time></trkpt><trkpt lat="42.38848807481849" lon="14.130708625086566"><ele>30.0</ele><time>2026-05-02T06:57:10Z</time></trkpt><trkpt lat="42.388409203440304" lon="14.130684140672724"><ele>30.0</ele><time>2026-05-02T06:57:11Z</time></trkpt><trkpt lat="42.38832606650504" lon="14.130617859685806"><ele>30.0</ele><time>2026-05-02T06:57:12Z</time></trkpt><trkpt lat="42.3882346637597" lon="14.130563012132317"><ele>30.0</ele><time>2026-05-02T06:57:13Z</time></trkpt><trkpt lat="42.38815573151607" lon="14.130504914278985"><ele>30.0</ele><time>2026-05-02T06:57:14Z</time></trkpt><trkpt lat="42.388097988253605" lon="14.130452131919577"><ele>30.0</ele><time>2026-05-02T06:57:15Z</time></trkpt><trkpt lat="42.38799013732601" lon="14.13037330860722"><ele>30.0</ele><time>2026-05-02T06:57:17Z</time></trkpt><trkpt lat="42.387906173010734" lon="14.13037426321813"><ele>30.0</ele><time>2026-05-02T06:57:18Z</time></trkpt><trkpt lat="42.38781401077379" lon="14.13033733565077"><ele>30.0</ele><time>2026-05-02T06:57:19Z</time></trkpt><trkpt lat="42.38772244613668" lon="14.130261687057551"><ele>30.5</ele><time>2026-05-02T06:57:20Z</time></trkpt><trkpt lat="42.387613720805426" lon="14.130136966339698"><ele>31.0</ele><time>2026-05-02T06:57:21Z</time></trkpt><trkpt lat="42.38749450276395" lon="14.13001938074746"><ele>31.5</ele><time>2026-05-02T06:57:22Z</time></trkpt><trkpt lat="42.387376493044805" lon="14.129908534459117"><ele>32.0</ele><time>2026-05-02T06:57:23Z</time></trkpt><trkpt lat="42.387247952112176" lon="14.129798003458433"><ele>32.33333333333333</ele><time>2026-05-02T06:57:24Z</time></trkpt><trkpt lat="42.38712160475319" lon="14.129675175192121"><ele>32.666666666666664</ele><time>2026-05-02T06:57:25Z</time></trkpt><trkpt lat="42.38699546382375" lon="14.129546853329861"><ele>33.0</ele><time>2026-05-02T06:57:26Z</time></trkpt><trkpt lat="42.38688176347574" lon="14.129413192992832"><ele>33.0</ele><time>2026-05-02T06:57:27Z</time></trkpt><trkpt lat="42.386773379570776" lon="14.129264779461636"><ele>33.0</ele><time>2026-05-02T06:57:28Z</time></trkpt><trkpt lat="42.38667121125227" lon="14.129104067849143"><ele>33.0</ele><time>2026-05-02T06:57:29Z</time></trkpt><trkpt lat="42.386571348714675" lon="14.128929888473307"><ele>33.666666666666664</ele><time>2026-05-02T06:57:30Z</time></trkpt><trkpt lat="42.38645995621597" lon="14.128756185973806"><ele>34.33333333333333</ele><time>2026-05-02T06:57:31Z</time></trkpt><trkpt lat="42.38632718600989" lon="14.12863877991741"><ele>35.0</ele><time>2026-05-02T06:57:32Z</time></trkpt><trkpt lat="42.38623994799229" lon="14.128409794995168"><ele>35.0</ele><time>2026-05-02T06:57:33Z</time></trkpt><trkpt lat="42.38611855200314" lon="14.128262117078833"><ele>35.0</ele><time>2026-05-02T06:57:34Z</time></trkpt><trkpt lat="42.38598497557188" lon="14.128132546469256"><ele>35.0</ele><time>2026-05-02T06:57:35Z</time></trkpt><trkpt lat="42.38584866315825" lon="14.128011590856522"><ele>35.33333333333333</ele><time>2026-05-02T06:57:36Z</time></trkpt><trkpt lat="42.3857135095036" lon="14.127887570492213"><ele>35.666666666666664</ele><time>2026-05-02T06:57:37Z</time></trkpt><trkpt lat="42.38558097120138" lon="14.127756500456599"><ele>36.0</ele><time>2026-05-02T06:57:38Z</time></trkpt><trkpt lat="42.38544916832127" lon="14.127617564930839"><ele>36.0</ele><time>2026-05-02T06:57:39Z</time></trkpt><trkpt lat="42.38531953701059" lon="14.127472197512613"><ele>36.0</ele><time>2026-05-02T06:57:40Z</time></trkpt><trkpt lat="42.385192112566756" lon="14.127325219766664"><ele>36.0</ele><time>2026-05-02T06:57:41Z</time></trkpt><trkpt lat="42.385059762970045" lon="14.127200961054461"><ele>38.0</ele><time>2026-05-02T06:57:42Z</time></trkpt><trkpt lat="42.384912035440585" lon="14.127106070591337"><ele>40.0</ele><time>2026-05-02T06:57:43Z</time></trkpt><trkpt lat="42.38475291449283" lon="14.12702437800057"><ele>42.0</ele><time>2026-05-02T06:57:44Z</time></trkpt><trkpt lat="42.38457952455863" lon="14.12697072373133"><ele>42.0</ele><time>2026-05-02T06:57:45Z</time></trkpt><trkpt lat="42.38440342240122" lon="14.12692255613541"><ele>42.0</ele><time>2026-05-02T06:57:46Z</time></trkpt><trkpt lat="42.38423757702567" lon="14.126873125416594"><ele>42.0</ele><time>2026-05-02T06:57:47Z</time></trkpt><trkpt lat="42.38408586556924" lon="14.126808817409486"><ele>42.0</ele><time>2026-05-02T06:57:47.999Z</time></trkpt><trkpt lat="42.38393691719628" lon="14.126734584009922"><ele>42.0</ele><time>2026-05-02T06:57:48.999Z</time></trkpt><trkpt lat="42.383794015315445" lon="14.126656827825409"><ele>42.0</ele><time>2026-05-02T06:57:49.999Z</time></trkpt><trkpt lat="42.383675953204445" lon="14.126575956885327"><ele>42.0</ele><time>2026-05-02T06:57:50.999Z</time></trkpt><trkpt lat="42.38356996815666" lon="14.126495449464379"><ele>44.75</ele><time>2026-05-02T06:57:51.999Z</time></trkpt><trkpt lat="42.383469919616374" lon="14.126424849578209"><ele>47.5</ele><time>2026-05-02T06:57:52.999Z</time></trkpt><trkpt lat="42.38335376827656" lon="14.126374853722146"><ele>50.25</ele><time>2026-05-02T06:57:53.999Z</time></trkpt><trkpt lat="42.38321656260999" lon="14.126362177584433"><ele>53.0</ele><time>2026-05-02T06:57:54.999Z</time></trkpt><trkpt lat="42.383070286169755" lon="14.126377343247526"><ele>53.0</ele><time>2026-05-02T06:57:55.999Z</time></trkpt><trkpt lat="42.38292674119001" lon="14.126381383603016"><ele>53.0</ele><time>2026-05-02T06:57:56.999Z</time></trkpt><trkpt lat="42.38278784676808" lon="14.126367119451766"><ele>53.0</ele><time>2026-05-02T06:57:57.999Z</time></trkpt><trkpt lat="42.38265343850485" lon="14.126330921908819"><ele>53.0</ele><time>2026-05-02T06:57:58.999Z</time></trkpt><trkpt lat="42.38252058715169" lon="14.126274224751663"><ele>53.0</ele><time>2026-05-02T06:57:59.999Z</time></trkpt><trkpt lat="42.38238839022914" lon="14.12619293811386"><ele>53.0</ele><time>2026-05-02T06:58:00.999Z</time></trkpt><trkpt lat="42.38226214357165" lon="14.126084319332294"><ele>53.0</ele><time>2026-05-02T06:58:01.999Z</time></trkpt><trkpt lat="42.382142098704705" lon="14.125959662726459"><ele>53.0</ele><time>2026-05-02T06:58:02.999Z</time></trkpt><trkpt lat="42.382015268119055" lon="14.125835572994596"><ele>53.0</ele><time>2026-05-02T06:58:03.999Z</time></trkpt><trkpt lat="42.381870437098414" lon="14.12570319252865"><ele>53.0</ele><time>2026-05-02T06:58:04.999Z</time></trkpt><trkpt lat="42.38171347118544" lon="14.125578964325422"><ele>53.0</ele><time>2026-05-02T06:58:05.999Z</time></trkpt><trkpt lat="42.38155753985965" lon="14.125463837619709"><ele>53.0</ele><time>2026-05-02T06:58:06.999Z</time></trkpt><trkpt lat="42.38141195769823" lon="14.125359026024451"><ele>53.0</ele><time>2026-05-02T06:58:07.999Z</time></trkpt><trkpt lat="42.38127155811974" lon="14.125262111410319"><ele>53.0</ele><time>2026-05-02T06:58:08.999Z</time></trkpt><trkpt lat="42.38112955621058" lon="14.125165994513907"><ele>51.333333333333336</ele><time>2026-05-02T06:58:09.999Z</time></trkpt><trkpt lat="42.38098644097219" lon="14.125064357547277"><ele>49.66666666666667</ele><time>2026-05-02T06:58:10.999Z</time></trkpt><trkpt lat="42.38084563842105" lon="14.124955178039253"><ele>48.0</ele><time>2026-05-02T06:58:11.999Z</time></trkpt><trkpt lat="42.38070339869497" lon="14.124848319941592"><ele>49.33333333333333</ele><time>2026-05-02T06:58:12.999Z</time></trkpt><trkpt lat="42.38055728402691" lon="14.12474163011454"><ele>50.666666666666664</ele><time>2026-05-02T06:58:13.999Z</time></trkpt><trkpt lat="42.38041397485649" lon="14.124629450406774"><ele>52.0</ele><time>2026-05-02T06:58:14.999Z</time></trkpt><trkpt lat="42.38027747655076" lon="14.12452925797969"><ele>52.0</ele><time>2026-05-02T06:58:15.999Z</time></trkpt><trkpt lat="42.38015097518039" lon="14.12443893082382"><ele>52.0</ele><time>2026-05-02T06:58:16.999Z</time></trkpt><trkpt lat="42.380034719206634" lon="14.12436301532144"><ele>52.0</ele><time>2026-05-02T06:58:17.999Z</time></trkpt><trkpt lat="42.379933892613636" lon="14.124288915661488"><ele>52.0</ele><time>2026-05-02T06:58:18.999Z</time></trkpt><trkpt lat="42.3798522280747" lon="14.124208624973482"><ele>51.99999999999999</ele><time>2026-05-02T06:58:19.999Z</time></trkpt><trkpt lat="42.37979753041046" lon="14.124111506351822"><ele>52.0</ele><time>2026-05-02T06:58:20.999Z</time></trkpt><trkpt lat="42.37977691404303" lon="14.124001573861653"><ele>52.0</ele><time>2026-05-02T06:58:21.999Z</time></trkpt><trkpt lat="42.379765069166645" lon="14.12387950953385"><ele>52.0</ele><time>2026-05-02T06:58:22.999Z</time></trkpt><trkpt lat="42.37972687861894" lon="14.123778437572064"><ele>51.99999999999999</ele><time>2026-05-02T06:58:23.999Z</time></trkpt><trkpt lat="42.37965282030756" lon="14.12371170678122"><ele>52.0</ele><time>2026-05-02T06:58:24.999Z</time></trkpt><trkpt lat="42.37956024406545" lon="14.123720384487237"><ele>53.75</ele><time>2026-05-02T06:58:25.999Z</time></trkpt><trkpt lat="42.379443387411655" lon="14.12373625260441"><ele>55.5</ele><time>2026-05-02T06:58:26.999Z</time></trkpt><trkpt lat="42.379312513070886" lon="14.123709652344848"><ele>57.25</ele><time>2026-05-02T06:58:27.999Z</time></trkpt><trkpt lat="42.379148644068145" lon="14.12365785731019"><ele>59.0</ele><time>2026-05-02T06:58:28.999Z</time></trkpt><trkpt lat="42.378970899265354" lon="14.12361208751852"><ele>57.66666666666667</ele><time>2026-05-02T06:58:29.999Z</time></trkpt><trkpt lat="42.37879394433766" lon="14.123582849326375"><ele>56.33333333333333</ele><time>2026-05-02T06:58:30.999Z</time></trkpt><trkpt lat="42.37861978537087" lon="14.12355517442932"><ele>55.0</ele><time>2026-05-02T06:58:31.999Z</time></trkpt><trkpt lat="42.3784417488631" lon="14.12352633389853"><ele>55.0</ele><time>2026-05-02T06:58:32.999Z</time></trkpt><trkpt lat="42.37827426739922" lon="14.12349626855685"><ele>55.0</ele><time>2026-05-02T06:58:33.999Z</time></trkpt><trkpt lat="42.378109984080176" lon="14.12346914790656"><ele>55.0</ele><time>2026-05-02T06:58:34.999Z</time></trkpt><trkpt lat="42.37794509502444" lon="14.123443648053442"><ele>52.75</ele><time>2026-05-02T06:58:35.999Z</time></trkpt><trkpt lat="42.37780088674842" lon="14.123414497868344"><ele>50.5</ele><time>2026-05-02T06:58:36.999Z</time></trkpt><trkpt lat="42.37766118155669" lon="14.123395612118864"><ele>48.25</ele><time>2026-05-02T06:58:37.999Z</time></trkpt><trkpt lat="42.37753381349369" lon="14.123373543130436"><ele>46.0</ele><time>2026-05-02T06:58:38.999Z</time></trkpt><trkpt lat="42.37741313730085" lon="14.123360241061288"><ele>46.0</ele><time>2026-05-02T06:58:39.999Z</time></trkpt><trkpt lat="42.37729945416524" lon="14.123371683324507"><ele>46.0</ele><time>2026-05-02T06:58:40.999Z</time></trkpt><trkpt lat="42.377185074914344" lon="14.123429861522098"><ele>46.0</ele><time>2026-05-02T06:58:41.999Z</time></trkpt><trkpt lat="42.37709424320304" lon="14.123542267886178"><ele>46.0</ele><time>2026-05-02T06:58:42.999Z</time></trkpt><trkpt lat="42.37702684880824" lon="14.123688273916741"><ele>45.599999999999994</ele><time>2026-05-02T06:58:43.999Z</time></trkpt><trkpt lat="42.37697062975106" lon="14.123833412690667"><ele>45.2</ele><time>2026-05-02T06:58:44.999Z</time></trkpt><trkpt lat="42.37690752277012" lon="14.123954049452443"><ele>44.8</ele><time>2026-05-02T06:58:45.999Z</time></trkpt><trkpt lat="42.3768386702061" lon="14.124057839516857"><ele>44.400000000000006</ele><time>2026-05-02T06:58:46.999Z</time></trkpt><trkpt lat="42.376766741411444" lon="14.124136903938018"><ele>44.0</ele><time>2026-05-02T06:58:47.999Z</time></trkpt><trkpt lat="42.37668910568582" lon="14.124195183106716"><ele>42.5</ele><time>2026-05-02T06:58:48.999Z</time></trkpt><trkpt lat="42.376594010073624" lon="14.124227815616017"><ele>41.0</ele><time>2026-05-02T06:58:49.999Z</time></trkpt><trkpt lat="42.37648372826343" lon="14.124229629051907"><ele>39.5</ele><time>2026-05-02T06:58:50.999Z</time></trkpt><trkpt lat="42.376365007428234" lon="14.124204506738218"><ele>38.0</ele><time>2026-05-02T06:58:51.999Z</time></trkpt><trkpt lat="42.376242553117976" lon="14.124145087518984"><ele>38.0</ele><time>2026-05-02T06:58:52.999Z</time></trkpt><trkpt lat="42.37612343379557" lon="14.124064328360777"><ele>38.0</ele><time>2026-05-02T06:58:53.999Z</time></trkpt><trkpt lat="42.375982946937" lon="14.124002494917589"><ele>38.0</ele><time>2026-05-02T06:58:54.999Z</time></trkpt><trkpt lat="42.37583488963515" lon="14.123957228703063"><ele>38.0</ele><time>2026-05-02T06:58:55.999Z</time></trkpt><trkpt lat="42.37568438389017" lon="14.123905660009795"><ele>38.33333333333333</ele><time>2026-05-02T06:58:56.999Z</time></trkpt><trkpt lat="42.375532766110524" lon="14.123827014683751"><ele>38.666666666666664</ele><time>2026-05-02T06:58:57.999Z</time></trkpt><trkpt lat="42.37539184276596" lon="14.123721046077003"><ele>39.0</ele><time>2026-05-02T06:58:58.999Z</time></trkpt><trkpt lat="42.37526130121862" lon="14.123617479812928"><ele>39.0</ele><time>2026-05-02T06:58:59.999Z</time></trkpt><trkpt lat="42.37514281688987" lon="14.123513376209727"><ele>39.0</ele><time>2026-05-02T06:59:00.999Z</time></trkpt><trkpt lat="42.37503186565052" lon="14.12341825466984"><ele>39.0</ele><time>2026-05-02T06:59:01.999Z</time></trkpt><trkpt lat="42.37492011571571" lon="14.1233279238011"><ele>39.0</ele><time>2026-05-02T06:59:02.999Z</time></trkpt><trkpt lat="42.37481072731933" lon="14.12324458517711"><ele>39.666666666666664</ele><time>2026-05-02T06:59:03.999Z</time></trkpt><trkpt lat="42.374676618154126" lon="14.123148691194702"><ele>40.33333333333333</ele><time>2026-05-02T06:59:04.998Z</time></trkpt><trkpt lat="42.37454198214871" lon="14.123043463168454"><ele>41.0</ele><time>2026-05-02T06:59:05.998Z</time></trkpt><trkpt lat="42.37441878666655" lon="14.122946821149876"><ele>41.0</ele><time>2026-05-02T06:59:07Z</time></trkpt><trkpt lat="42.37431792444021" lon="14.122850442209806"><ele>41.0</ele><time>2026-05-02T06:59:08Z</time></trkpt><trkpt lat="42.3742324669945" lon="14.122752066251966"><ele>41.0</ele><time>2026-05-02T06:59:09Z</time></trkpt><trkpt lat="42.37415340756994" lon="14.122643825116763"><ele>41.0</ele><time>2026-05-02T06:59:10Z</time></trkpt><trkpt lat="42.37406200634539" lon="14.122569692397144"><ele>41.0</ele><time>2026-05-02T06:59:11Z</time></trkpt><trkpt lat="42.37394105032469" lon="14.122521013069402"><ele>41.0</ele><time>2026-05-02T06:59:12Z</time></trkpt><trkpt lat="42.37380880569268" lon="14.122455249581588"><ele>41.0</ele><time>2026-05-02T06:59:13Z</time></trkpt><trkpt lat="42.37367247566032" lon="14.122362738738472"><ele>41.0</ele><time>2026-05-02T06:59:14Z</time></trkpt><trkpt lat="42.37353646555602" lon="14.122257847416638"><ele>41.0</ele><time>2026-05-02T06:59:15Z</time></trkpt><trkpt lat="42.37339544662093" lon="14.122141635303842"><ele>41.0</ele><time>2026-05-02T06:59:16Z</time></trkpt><trkpt lat="42.37326102422149" lon="14.12202900855652"><ele>41.0</ele><time>2026-05-02T06:59:17Z</time></trkpt><trkpt lat="42.37312472333716" lon="14.121919457332162"><ele>38.666666666666664</ele><time>2026-05-02T06:59:18Z</time></trkpt><trkpt lat="42.37298102066001" lon="14.121801900262465"><ele>36.333333333333336</ele><time>2026-05-02T06:59:19Z</time></trkpt><trkpt lat="42.37284273265118" lon="14.1216958828641"><ele>34.0</ele><time>2026-05-02T06:59:20Z</time></trkpt><trkpt lat="42.37271282420777" lon="14.121593112655287"><ele>36.25</ele><time>2026-05-02T06:59:21Z</time></trkpt><trkpt lat="42.37258762011174" lon="14.121490053315187"><ele>38.5</ele><time>2026-05-02T06:59:22Z</time></trkpt><trkpt lat="42.372464073244686" lon="14.12138535447684"><ele>40.75</ele><time>2026-05-02T06:59:23Z</time></trkpt><trkpt lat="42.37234447769997" lon="14.121294766543413"><ele>43.0</ele><time>2026-05-02T06:59:24Z</time></trkpt><trkpt lat="42.37222227376441" lon="14.121198157616494"><ele>40.5</ele><time>2026-05-02T06:59:25Z</time></trkpt><trkpt lat="42.372098177419936" lon="14.121107384399087"><ele>38.0</ele><time>2026-05-02T06:59:26Z</time></trkpt><trkpt lat="42.371965231627975" lon="14.121026043830037"><ele>35.5</ele><time>2026-05-02T06:59:27Z</time></trkpt><trkpt lat="42.37182195180908" lon="14.120949201415431"><ele>33.0</ele><time>2026-05-02T06:59:28Z</time></trkpt><trkpt lat="42.3716692327551" lon="14.120878825618771"><ele>33.0</ele><time>2026-05-02T06:59:29Z</time></trkpt><trkpt lat="42.371515420871845" lon="14.120814479670356"><ele>33.0</ele><time>2026-05-02T06:59:30Z</time></trkpt><trkpt lat="42.37135877303552" lon="14.120754357359694"><ele>33.0</ele><time>2026-05-02T06:59:31Z</time></trkpt><trkpt lat="42.371199267814305" lon="14.120690680339747"><ele>34.666666666666664</ele><time>2026-05-02T06:59:32Z</time></trkpt><trkpt lat="42.37104171665622" lon="14.12061959020902"><ele>36.33333333333333</ele><time>2026-05-02T06:59:33Z</time></trkpt><trkpt lat="42.370876840065975" lon="14.120567981451893"><ele>38.0</ele><time>2026-05-02T06:59:34Z</time></trkpt><trkpt lat="42.370661127480034" lon="14.120602874740499"><ele>37.666666666666664</ele><time>2026-05-02T06:59:35Z</time></trkpt><trkpt lat="42.37045936074567" lon="14.120661823735144"><ele>37.333333333333336</ele><time>2026-05-02T06:59:36Z</time></trkpt><trkpt lat="42.37037270451508" lon="14.12046236038956"><ele>37.0</ele><time>2026-05-02T06:59:37Z</time></trkpt><trkpt lat="42.370202503563256" lon="14.120443622982734"><ele>37.0</ele><time>2026-05-02T06:59:38Z</time></trkpt><trkpt lat="42.370033697112795" lon="14.120421212253929"><ele>37.0</ele><time>2026-05-02T06:59:39Z</time></trkpt><trkpt lat="42.3698737371777" lon="14.120403817560307"><ele>37.0</ele><time>2026-05-02T06:59:39.999Z</time></trkpt><trkpt lat="42.36971187450969" lon="14.120386893805426"><ele>37.0</ele><time>2026-05-02T06:59:40.999Z</time></trkpt><trkpt lat="42.36954949165953" lon="14.1203666180021"><ele>37.0</ele><time>2026-05-02T06:59:41.999Z</time></trkpt><trkpt lat="42.3693885195014" lon="14.120340221848119"><ele>37.0</ele><time>2026-05-02T06:59:42.999Z</time></trkpt><trkpt lat="42.36923567776603" lon="14.1203234181052"><ele>37.0</ele><time>2026-05-02T06:59:43.999Z</time></trkpt><trkpt lat="42.36908510881457" lon="14.120307687125496"><ele>37.0</ele><time>2026-05-02T06:59:44.999Z</time></trkpt><trkpt lat="42.36893394401249" lon="14.120285923347422"><ele>37.0</ele><time>2026-05-02T06:59:45.999Z</time></trkpt><trkpt lat="42.36878541440257" lon="14.12026352428439"><ele>35.0</ele><time>2026-05-02T06:59:46.999Z</time></trkpt><trkpt lat="42.368639359351796" lon="14.120243168705775"><ele>33.0</ele><time>2026-05-02T06:59:47.999Z</time></trkpt><trkpt lat="42.368489762508496" lon="14.120222120720614"><ele>31.0</ele><time>2026-05-02T06:59:48.999Z</time></trkpt><trkpt lat="42.36834204077582" lon="14.120177755551895"><ele>29.0</ele><time>2026-05-02T06:59:49.999Z</time></trkpt><trkpt lat="42.36819476936124" lon="14.120107664492359"><ele>29.0</ele><time>2026-05-02T06:59:50.999Z</time></trkpt><trkpt lat="42.36805002530852" lon="14.12001409287807"><ele>29.0</ele><time>2026-05-02T06:59:51.999Z</time></trkpt><trkpt lat="42.36790146694679" lon="14.119916341229336"><ele>29.0</ele><time>2026-05-02T06:59:52.999Z</time></trkpt><trkpt lat="42.36775417639206" lon="14.119810460221021"><ele>28.666666666666664</ele><time>2026-05-02T06:59:53.999Z</time></trkpt><trkpt lat="42.36760572351577" lon="14.119706050348904"><ele>28.333333333333336</ele><time>2026-05-02T06:59:54.999Z</time></trkpt><trkpt lat="42.36745482101112" lon="14.119601352146606"><ele>28.0</ele><time>2026-05-02T06:59:55.999Z</time></trkpt><trkpt lat="42.367310440941864" lon="14.119495212582454"><ele>27.666666666666668</ele><time>2026-05-02T06:59:56.999Z</time></trkpt><trkpt lat="42.36716628108824" lon="14.119391599834204"><ele>27.333333333333336</ele><time>2026-05-02T06:59:57.999Z</time></trkpt><trkpt lat="42.36701628059265" lon="14.119284440579317"><ele>27.0</ele><time>2026-05-02T06:59:58.999Z</time></trkpt><trkpt lat="42.36686715477839" lon="14.119183324631138"><ele>27.0</ele><time>2026-05-02T06:59:59.999Z</time></trkpt><trkpt lat="42.36671837535155" lon="14.119073208405075"><ele>27.0</ele><time>2026-05-02T07:00:00.999Z</time></trkpt><trkpt lat="42.36656643100804" lon="14.118963684169046"><ele>27.0</ele><time>2026-05-02T07:00:01.999Z</time></trkpt><trkpt lat="42.366416626140285" lon="14.118862920373552"><ele>27.333333333333336</ele><time>2026-05-02T07:00:02.999Z</time></trkpt><trkpt lat="42.36627097581848" lon="14.118764177729032"><ele>27.666666666666668</ele><time>2026-05-02T07:00:03.999Z</time></trkpt><trkpt lat="42.366120108556885" lon="14.11865781993573"><ele>28.0</ele><time>2026-05-02T07:00:04.999Z</time></trkpt><trkpt lat="42.36597562890164" lon="14.118552462863118"><ele>28.0</ele><time>2026-05-02T07:00:05.999Z</time></trkpt><trkpt lat="42.365822181004546" lon="14.118446953317147"><ele>28.0</ele><time>2026-05-02T07:00:06.999Z</time></trkpt><trkpt lat="42.3656723659548" lon="14.11834994689475"><ele>28.0</ele><time>2026-05-02T07:00:07.999Z</time></trkpt><trkpt lat="42.36552459172402" lon="14.11824597311209"><ele>29.333333333333336</ele><time>2026-05-02T07:00:08.999Z</time></trkpt><trkpt lat="42.36537419796516" lon="14.11814772901115"><ele>30.666666666666664</ele><time>2026-05-02T07:00:09.999Z</time></trkpt><trkpt lat="42.36523064251374" lon="14.118052379769324"><ele>32.0</ele><time>2026-05-02T07:00:10.999Z</time></trkpt><trkpt lat="42.36508622785245" lon="14.117950255995293"><ele>32.0</ele><time>2026-05-02T07:00:11.999Z</time></trkpt><trkpt lat="42.3649418467213" lon="14.117855622488078"><ele>32.0</ele><time>2026-05-02T07:00:12.999Z</time></trkpt><trkpt lat="42.36479313286047" lon="14.1177556360528"><ele>32.0</ele><time>2026-05-02T07:00:13.999Z</time></trkpt><trkpt lat="42.36464390552369" lon="14.11765544314717"><ele>32.33333333333333</ele><time>2026-05-02T07:00:14.999Z</time></trkpt><trkpt lat="42.36449274370174" lon="14.11756341112824"><ele>32.666666666666664</ele><time>2026-05-02T07:00:15.999Z</time></trkpt><trkpt lat="42.36433859197977" lon="14.117493254285396"><ele>33.0</ele><time>2026-05-02T07:00:16.999Z</time></trkpt><trkpt lat="42.364173526686116" lon="14.117447949222303"><ele>33.0</ele><time>2026-05-02T07:00:17.999Z</time></trkpt><trkpt lat="42.363999558732246" lon="14.117432423884129"><ele>33.0</ele><time>2026-05-02T07:00:18.999Z</time></trkpt><trkpt lat="42.36382778903682" lon="14.117437822765758"><ele>33.0</ele><time>2026-05-02T07:00:19.999Z</time></trkpt><trkpt lat="42.36366705956089" lon="14.117439399968266"><ele>32.333333333333336</ele><time>2026-05-02T07:00:20.999Z</time></trkpt><trkpt lat="42.36350857505789" lon="14.117444199082597"><ele>31.666666666666668</ele><time>2026-05-02T07:00:21.999Z</time></trkpt><trkpt lat="42.363344532365666" lon="14.117439171307494"><ele>31.0</ele><time>2026-05-02T07:00:22.999Z</time></trkpt><trkpt lat="42.36317971011624" lon="14.117433730753502"><ele>30.333333333333336</ele><time>2026-05-02T07:00:23.999Z</time></trkpt><trkpt lat="42.36301022935009" lon="14.117427637230186"><ele>29.666666666666664</ele><time>2026-05-02T07:00:24.999Z</time></trkpt><trkpt lat="42.36283716629353" lon="14.117416902100295"><ele>29.0</ele><time>2026-05-02T07:00:25.999Z</time></trkpt><trkpt lat="42.362667025339505" lon="14.117386229477724"><ele>31.333333333333332</ele><time>2026-05-02T07:00:26.999Z</time></trkpt><trkpt lat="42.36250412125821" lon="14.117335165958325"><ele>33.666666666666664</ele><time>2026-05-02T07:00:27.999Z</time></trkpt><trkpt lat="42.3623436272917" lon="14.117257340886885"><ele>36.0</ele><time>2026-05-02T07:00:28.999Z</time></trkpt><trkpt lat="42.362184432347064" lon="14.117178427868046"><ele>36.0</ele><time>2026-05-02T07:00:29.999Z</time></trkpt><trkpt lat="42.36202058841624" lon="14.117097585015054"><ele>36.0</ele><time>2026-05-02T07:00:30.999Z</time></trkpt><trkpt lat="42.36185834531771" lon="14.117024948354205"><ele>36.0</ele><time>2026-05-02T07:00:31.999Z</time></trkpt><trkpt lat="42.36169289308376" lon="14.116948904120477"><ele>36.0</ele><time>2026-05-02T07:00:32.999Z</time></trkpt><trkpt lat="42.361530848565735" lon="14.1168746242481"><ele>36.0</ele><time>2026-05-02T07:00:33.999Z</time></trkpt><trkpt lat="42.36136964400764" lon="14.116808537400104"><ele>36.0</ele><time>2026-05-02T07:00:34.999Z</time></trkpt><trkpt lat="42.36121037035745" lon="14.116741188461193"><ele>34.0</ele><time>2026-05-02T07:00:35.999Z</time></trkpt><trkpt lat="42.36105352444767" lon="14.116663161589077"><ele>32.0</ele><time>2026-05-02T07:00:36.999Z</time></trkpt><trkpt lat="42.360890947992964" lon="14.116586246975075"><ele>30.0</ele><time>2026-05-02T07:00:37.999Z</time></trkpt><trkpt lat="42.36072937651128" lon="14.116510908450673"><ele>32.333333333333336</ele><time>2026-05-02T07:00:38.999Z</time></trkpt><trkpt lat="42.36056370967977" lon="14.116433324806248"><ele>34.66666666666667</ele><time>2026-05-02T07:00:39.999Z</time></trkpt><trkpt lat="42.36039415002611" lon="14.116355030482415"><ele>37.0</ele><time>2026-05-02T07:00:40.999Z</time></trkpt><trkpt lat="42.360221019334" lon="14.116275520167076"><ele>37.0</ele><time>2026-05-02T07:00:41.999Z</time></trkpt><trkpt lat="42.36004670247057" lon="14.116194359815962"><ele>37.0</ele><time>2026-05-02T07:00:42.999Z</time></trkpt><trkpt lat="42.35987228896586" lon="14.116118688655723"><ele>37.0</ele><time>2026-05-02T07:00:43.999Z</time></trkpt><trkpt lat="42.359702394632066" lon="14.116050060030188"><ele>36.66666666666667</ele><time>2026-05-02T07:00:44.999Z</time></trkpt><trkpt lat="42.35953114198548" lon="14.115978429945386"><ele>36.333333333333336</ele><time>2026-05-02T07:00:45.999Z</time></trkpt><trkpt lat="42.359361798830264" lon="14.115907373531268"><ele>36.0</ele><time>2026-05-02T07:00:46.999Z</time></trkpt><trkpt lat="42.35919253686239" lon="14.115837994289643"><ele>36.0</ele><time>2026-05-02T07:00:47.999Z</time></trkpt><trkpt lat="42.35901863398345" lon="14.115759963044692"><ele>36.0</ele><time>2026-05-02T07:00:48.999Z</time></trkpt><trkpt lat="42.35885099843419" lon="14.115688277441933"><ele>36.0</ele><time>2026-05-02T07:00:49.999Z</time></trkpt><trkpt lat="42.35868618681575" lon="14.1156254364042"><ele>37.666666666666664</ele><time>2026-05-02T07:00:50.998Z</time></trkpt><trkpt lat="42.35852634172171" lon="14.115562822841918"><ele>39.33333333333333</ele><time>2026-05-02T07:00:51.998Z</time></trkpt><trkpt lat="42.3583706639114" lon="14.115500196729622"><ele>41.0</ele><time>2026-05-02T07:00:52.998Z</time></trkpt><trkpt lat="42.35820946709669" lon="14.115435239205343"><ele>41.0</ele><time>2026-05-02T07:00:53.998Z</time></trkpt><trkpt lat="42.35805697679461" lon="14.115368433434833"><ele>41.0</ele><time>2026-05-02T07:00:54.998Z</time></trkpt><trkpt lat="42.35790007041481" lon="14.115308030205483"><ele>41.0</ele><time>2026-05-02T07:00:55.998Z</time></trkpt><trkpt lat="42.357743449076025" lon="14.115250227250481"><ele>41.0</ele><time>2026-05-02T07:00:56.998Z</time></trkpt><trkpt lat="42.357591712684474" lon="14.115190956206636"><ele>41.0</ele><time>2026-05-02T07:00:57.998Z</time></trkpt><trkpt lat="42.35744087882362" lon="14.115128610260388"><ele>41.0</ele><time>2026-05-02T07:00:58.998Z</time></trkpt><trkpt lat="42.35728810694333" lon="14.11506857101544"><ele>40.33333333333333</ele><time>2026-05-02T07:00:59.998Z</time></trkpt><trkpt lat="42.357136119891855" lon="14.115006099276373"><ele>39.666666666666664</ele><time>2026-05-02T07:01:00.998Z</time></trkpt><trkpt lat="42.356986610522476" lon="14.114944855646122"><ele>39.0</ele><time>2026-05-02T07:01:01.998Z</time></trkpt><trkpt lat="42.356839158165826" lon="14.114885185685827"><ele>42.33333333333333</ele><time>2026-05-02T07:01:02.998Z</time></trkpt><trkpt lat="42.35669069134282" lon="14.11482412596168"><ele>45.666666666666664</ele><time>2026-05-02T07:01:03.998Z</time></trkpt><trkpt lat="42.35654715352237" lon="14.114760567305892"><ele>49.0</ele><time>2026-05-02T07:01:04.998Z</time></trkpt><trkpt lat="42.35640396032684" lon="14.114708528240326"><ele>48.33333333333333</ele><time>2026-05-02T07:01:05.998Z</time></trkpt><trkpt lat="42.35625577875883" lon="14.11465574449078"><ele>47.666666666666664</ele><time>2026-05-02T07:01:06.998Z</time></trkpt><trkpt lat="42.35610656186702" lon="14.11459550283974"><ele>47.0</ele><time>2026-05-02T07:01:07.998Z</time></trkpt><trkpt lat="42.355956065114405" lon="14.114532932460454"><ele>47.0</ele><time>2026-05-02T07:01:08.998Z</time></trkpt><trkpt lat="42.35580356853004" lon="14.11446958270184"><ele>47.0</ele><time>2026-05-02T07:01:09.998Z</time></trkpt><trkpt lat="42.35565060025576" lon="14.114411259204322"><ele>47.0</ele><time>2026-05-02T07:01:10.998Z</time></trkpt><trkpt lat="42.35550975610322" lon="14.1143402577358"><ele>43.666666666666664</ele><time>2026-05-02T07:01:11.998Z</time></trkpt><trkpt lat="42.35534637184059" lon="14.114289489223601"><ele>40.333333333333336</ele><time>2026-05-02T07:01:13Z</time></trkpt><trkpt lat="42.355192507215264" lon="14.114229470160767"><ele>37.0</ele><time>2026-05-02T07:01:14Z</time></trkpt><trkpt lat="42.355032887311154" lon="14.114166917562239"><ele>37.0</ele><time>2026-05-02T07:01:15Z</time></trkpt><trkpt lat="42.35487941724125" lon="14.114091058726244"><ele>37.0</ele><time>2026-05-02T07:01:16Z</time></trkpt><trkpt lat="42.35475309555761" lon="14.113966186448016"><ele>37.0</ele><time>2026-05-02T07:01:17Z</time></trkpt><trkpt lat="42.354547802236695" lon="14.11396475252995"><ele>36.66666666666667</ele><time>2026-05-02T07:01:18Z</time></trkpt><trkpt lat="42.35438824343267" lon="14.113901829266846"><ele>36.333333333333336</ele><time>2026-05-02T07:01:19Z</time></trkpt><trkpt lat="42.35422950226067" lon="14.113837760893242"><ele>36.0</ele><time>2026-05-02T07:01:20Z</time></trkpt><trkpt lat="42.354070216541245" lon="14.113778673723608"><ele>36.0</ele><time>2026-05-02T07:01:21Z</time></trkpt><trkpt lat="42.35390999933179" lon="14.113717507895846"><ele>36.0</ele><time>2026-05-02T07:01:22Z</time></trkpt><trkpt lat="42.35374649734714" lon="14.11365260728276"><ele>36.0</ele><time>2026-05-02T07:01:23Z</time></trkpt><trkpt lat="42.35358374378142" lon="14.113580982500642"><ele>35.666666666666664</ele><time>2026-05-02T07:01:24Z</time></trkpt><trkpt lat="42.35341933858835" lon="14.11351284188365"><ele>35.33333333333333</ele><time>2026-05-02T07:01:25Z</time></trkpt><trkpt lat="42.353251311051686" lon="14.113451834675727"><ele>35.0</ele><time>2026-05-02T07:01:26Z</time></trkpt><trkpt lat="42.35308381927714" lon="14.113383942461834"><ele>35.0</ele><time>2026-05-02T07:01:27Z</time></trkpt><trkpt lat="42.35291495421009" lon="14.113314547339016"><ele>35.0</ele><time>2026-05-02T07:01:28Z</time></trkpt><trkpt lat="42.35274836882583" lon="14.113246622208392"><ele>35.0</ele><time>2026-05-02T07:01:29Z</time></trkpt><trkpt lat="42.352590507395156" lon="14.113185003897508"><ele>35.0</ele><time>2026-05-02T07:01:30Z</time></trkpt><trkpt lat="42.352434435160845" lon="14.113128186165724"><ele>35.0</ele><time>2026-05-02T07:01:31Z</time></trkpt><trkpt lat="42.352284149872425" lon="14.113068117672507"><ele>35.0</ele><time>2026-05-02T07:01:32Z</time></trkpt><trkpt lat="42.35213427028893" lon="14.113009433550017"><ele>36.666666666666664</ele><time>2026-05-02T07:01:33Z</time></trkpt><trkpt lat="42.3519882995754" lon="14.11294990113408"><ele>38.333333333333336</ele><time>2026-05-02T07:01:34Z</time></trkpt><trkpt lat="42.3518440035989" lon="14.112893178281912"><ele>40.0</ele><time>2026-05-02T07:01:35Z</time></trkpt><trkpt lat="42.35169209988387" lon="14.112830170528468"><ele>40.0</ele><time>2026-05-02T07:01:36Z</time></trkpt><trkpt lat="42.351543997218556" lon="14.112764105528772"><ele>40.0</ele><time>2026-05-02T07:01:37Z</time></trkpt><trkpt lat="42.351395144434974" lon="14.11269551202801"><ele>40.0</ele><time>2026-05-02T07:01:38Z</time></trkpt><trkpt lat="42.35124436090998" lon="14.112633307794868"><ele>41.0</ele><time>2026-05-02T07:01:39Z</time></trkpt><trkpt lat="42.35109687847584" lon="14.11257734064246"><ele>42.0</ele><time>2026-05-02T07:01:40Z</time></trkpt><trkpt lat="42.35095339743387" lon="14.112531903204092"><ele>43.0</ele><time>2026-05-02T07:01:41Z</time></trkpt><trkpt lat="42.35082275355252" lon="14.112493491337528"><ele>44.0</ele><time>2026-05-02T07:01:42Z</time></trkpt><trkpt lat="42.350691319528" lon="14.112468755316701"><ele>44.0</ele><time>2026-05-02T07:01:43Z</time></trkpt><trkpt lat="42.350572563524764" lon="14.112457021969144"><ele>44.0</ele><time>2026-05-02T07:01:44Z</time></trkpt><trkpt lat="42.35046493100874" lon="14.11245554805438"><ele>44.0</ele><time>2026-05-02T07:01:45Z</time></trkpt><trkpt lat="42.350369273400396" lon="14.112454655485715"><ele>44.0</ele><time>2026-05-02T07:01:46Z</time></trkpt><trkpt lat="42.3502885052361" lon="14.112441897129647"><ele>44.0</ele><time>2026-05-02T07:01:47Z</time></trkpt><trkpt lat="42.35021868617991" lon="14.112427196602532"><ele>44.0</ele><time>2026-05-02T07:01:48Z</time></trkpt><trkpt lat="42.350145226383454" lon="14.112407402862235"><ele>44.0</ele><time>2026-05-02T07:01:49.999Z</time></trkpt><trkpt lat="42.35007347010415" lon="14.112388095036145"><ele>44.0</ele><time>2026-05-02T07:01:54.999Z</time></trkpt><trkpt lat="42.34999964771626" lon="14.1123390821321"><ele>44.0</ele><time>2026-05-02T07:01:56.999Z</time></trkpt><trkpt lat="42.3499264936347" lon="14.112372312246993"><ele>44.0</ele><time>2026-05-02T07:01:57.999Z</time></trkpt><trkpt lat="42.349829646462005" lon="14.112491542329785"><ele>44.0</ele><time>2026-05-02T07:01:59.999Z</time></trkpt><trkpt lat="42.34980973903255" lon="14.112593511005379"><ele>44.0</ele><time>2026-05-02T07:02:00.999Z</time></trkpt><trkpt lat="42.34971887217859" lon="14.112631005114864"><ele>44.0</ele><time>2026-05-02T07:02:01.999Z</time></trkpt><trkpt lat="42.349628749531256" lon="14.112715325939662"><ele>44.0</ele><time>2026-05-02T07:02:03.999Z</time></trkpt><trkpt lat="42.349542965035155" lon="14.112775024406814"><ele>44.0</ele><time>2026-05-02T07:02:05.999Z</time></trkpt><trkpt lat="42.34944243813452" lon="14.112722482289264"><ele>44.0</ele><time>2026-05-02T07:02:07.999Z</time></trkpt><trkpt lat="42.34943113483864" lon="14.11261309514995"><ele>43.800000000000004</ele><time>2026-05-02T07:02:08.999Z</time></trkpt><trkpt lat="42.34941555546715" lon="14.112519329873495"><ele>43.6</ele><time>2026-05-02T07:02:09.999Z</time></trkpt><trkpt lat="42.34935051907593" lon="14.11239202898778"><ele>43.4</ele><time>2026-05-02T07:02:11.999Z</time></trkpt><trkpt lat="42.34924680871026" lon="14.112301743447722"><ele>43.2</ele><time>2026-05-02T07:02:13.999Z</time></trkpt><trkpt lat="42.349168777305906" lon="14.11225485861464"><ele>43.0</ele><time>2026-05-02T07:02:14.999Z</time></trkpt><trkpt lat="42.34910171507471" lon="14.112232700986635"><ele>43.0</ele><time>2026-05-02T07:02:15.999Z</time></trkpt><trkpt lat="42.34900996405148" lon="14.112176165620637"><ele>43.0</ele><time>2026-05-02T07:02:17.999Z</time></trkpt><trkpt lat="42.348990151171215" lon="14.111888848247936"><ele>43.0</ele><time>2026-05-02T07:02:20.999Z</time></trkpt><trkpt lat="42.34897798231905" lon="14.111759881678191"><ele>43.0</ele><time>2026-05-02T07:02:21.999Z</time></trkpt><trkpt lat="42.34896635892562" lon="14.111659451261593"><ele>43.0</ele><time>2026-05-02T07:02:22.999Z</time></trkpt><trkpt lat="42.34895593075431" lon="14.11157422549176"><ele>43.0</ele><time>2026-05-02T07:02:23.999Z</time></trkpt><trkpt lat="42.348939248831336" lon="14.111393980156086"><ele>43.0</ele><time>2026-05-02T07:02:25.999Z</time></trkpt><trkpt lat="42.34891839174034" lon="14.111257643423768"><ele>43.0</ele><time>2026-05-02T07:02:26.999Z</time></trkpt><trkpt lat="42.34889800224573" lon="14.111130068238005"><ele>43.0</ele><time>2026-05-02T07:02:27.999Z</time></trkpt><trkpt lat="42.348886655821" lon="14.111016261466547"><ele>43.0</ele><time>2026-05-02T07:02:28.999Z</time></trkpt><trkpt lat="42.34888059188779" lon="14.110918497128901"><ele>43.0</ele><time>2026-05-02T07:02:29.999Z</time></trkpt><trkpt lat="42.34889194876277" lon="14.110756159978287"><ele>43.0</ele><time>2026-05-02T07:02:31.999Z</time></trkpt><trkpt lat="42.348908106264204" lon="14.110663270372651"><ele>43.0</ele><time>2026-05-02T07:02:32.999Z</time></trkpt><trkpt lat="42.34889101708003" lon="14.110517813522385"><ele>43.0</ele><time>2026-05-02T07:02:34.999Z</time></trkpt><trkpt lat="42.34885137166732" lon="14.110354883784979"><ele>42.599999999999994</ele><time>2026-05-02T07:02:36.999Z</time></trkpt><trkpt lat="42.34883729428438" lon="14.110237536426618"><ele>42.199999999999996</ele><time>2026-05-02T07:02:37.999Z</time></trkpt><trkpt lat="42.34882937784064" lon="14.110137650840468"><ele>41.8</ele><time>2026-05-02T07:02:38.999Z</time></trkpt><trkpt lat="42.34878161917581" lon="14.110022177499038"><ele>41.4</ele><time>2026-05-02T07:02:40.999Z</time></trkpt><trkpt lat="42.34866849768168" lon="14.10991826830138"><ele>41.0</ele><time>2026-05-02T07:02:42.999Z</time></trkpt><trkpt lat="42.34859679453214" lon="14.109850775198518"><ele>42.199999999999996</ele><time>2026-05-02T07:02:43.999Z</time></trkpt><trkpt lat="42.34852521310232" lon="14.109810529547936"><ele>43.4</ele><time>2026-05-02T07:02:45.999Z</time></trkpt><trkpt lat="42.34845424572723" lon="14.109767940845744"><ele>44.6</ele><time>2026-05-02T07:03:02.999Z</time></trkpt><trkpt lat="42.348388820575174" lon="14.109711627323135"><ele>45.8</ele><time>2026-05-02T07:03:04.999Z</time></trkpt><trkpt lat="42.348313935340215" lon="14.10961702615281"><ele>47.0</ele><time>2026-05-02T07:03:07.998Z</time></trkpt><trkpt lat="42.34822535975359" lon="14.109483921860951"><ele>47.0</ele><time>2026-05-02T07:03:09.998Z</time></trkpt><trkpt lat="42.34813764557257" lon="14.109333159641652"><ele>47.0</ele><time>2026-05-02T07:03:11.998Z</time></trkpt><trkpt lat="42.34808693137788" lon="14.10923932989382"><ele>47.0</ele><time>2026-05-02T07:03:12.998Z</time></trkpt><trkpt lat="42.34803349625854" lon="14.10915547518786"><ele>47.0</ele><time>2026-05-02T07:03:13.998Z</time></trkpt><trkpt lat="42.34797853931455" lon="14.109094371965737"><ele>47.0</ele><time>2026-05-02T07:03:14.998Z</time></trkpt><trkpt lat="42.34791095775008" lon="14.108957077778836"><ele>46.5</ele><time>2026-05-02T07:03:16.998Z</time></trkpt><trkpt lat="42.34788202396836" lon="14.10886932961799"><ele>46.0</ele><time>2026-05-02T07:03:18Z</time></trkpt><trkpt lat="42.34785278385122" lon="14.108760455649538"><ele>45.5</ele><time>2026-05-02T07:03:19Z</time></trkpt><trkpt lat="42.34781190489813" lon="14.108644914021605"><ele>45.0</ele><time>2026-05-02T07:03:20Z</time></trkpt><trkpt lat="42.34775542851481" lon="14.108554435309927"><ele>44.5</ele><time>2026-05-02T07:03:21Z</time></trkpt><trkpt lat="42.34769028982385" lon="14.108451430599176"><ele>44.0</ele><time>2026-05-02T07:03:22Z</time></trkpt><trkpt lat="42.3476288708119" lon="14.108328047812893"><ele>44.33333333333333</ele><time>2026-05-02T07:03:23Z</time></trkpt><trkpt lat="42.347572147643426" lon="14.10821137649952"><ele>44.666666666666664</ele><time>2026-05-02T07:03:24Z</time></trkpt><trkpt lat="42.347520827988944" lon="14.108110713864491"><ele>45.0</ele><time>2026-05-02T07:03:25Z</time></trkpt><trkpt lat="42.34747980644362" lon="14.108032176441627"><ele>45.333333333333336</ele><time>2026-05-02T07:03:26Z</time></trkpt><trkpt lat="42.34744018235393" lon="14.107954532961887"><ele>45.66666666666667</ele><time>2026-05-02T07:03:27Z</time></trkpt><trkpt lat="42.34741866208389" lon="14.107864582502337"><ele>46.0</ele><time>2026-05-02T07:03:28Z</time></trkpt><trkpt lat="42.34740734545738" lon="14.107752631354796"><ele>46.0</ele><time>2026-05-02T07:03:29Z</time></trkpt><trkpt lat="42.34738467509398" lon="14.107616821480601"><ele>46.0</ele><time>2026-05-02T07:03:30Z</time></trkpt><trkpt lat="42.3473441654085" lon="14.107478498149748"><ele>46.0</ele><time>2026-05-02T07:03:31Z</time></trkpt><trkpt lat="42.347301042235976" lon="14.107364445419519"><ele>46.0</ele><time>2026-05-02T07:03:32Z</time></trkpt><trkpt lat="42.34726029413255" lon="14.10726216865548"><ele>46.0</ele><time>2026-05-02T07:03:33Z</time></trkpt><trkpt lat="42.347220042628564" lon="14.107165390357487"><ele>46.0</ele><time>2026-05-02T07:03:34Z</time></trkpt><trkpt lat="42.347192195442304" lon="14.107073966900336"><ele>46.0</ele><time>2026-05-02T07:03:35Z</time></trkpt><trkpt lat="42.34716320516393" lon="14.10698471313489"><ele>46.0</ele><time>2026-05-02T07:03:36Z</time></trkpt><trkpt lat="42.347168589511405" lon="14.106831383214763"><ele>46.0</ele><time>2026-05-02T07:03:38Z</time></trkpt><trkpt lat="42.34718956705638" lon="14.10674489982823"><ele>46.0</ele><time>2026-05-02T07:03:39Z</time></trkpt><trkpt lat="42.34725010427198" lon="14.106593707555806"><ele>46.0</ele><time>2026-05-02T07:03:41Z</time></trkpt><trkpt lat="42.34729990465782" lon="14.106500743470658"><ele>46.0</ele><time>2026-05-02T07:03:42Z</time></trkpt><trkpt lat="42.34731877851535" lon="14.106407848130443"><ele>46.0</ele><time>2026-05-02T07:03:43Z</time></trkpt><trkpt lat="42.3473344636856" lon="14.106301087211754"><ele>46.0</ele><time>2026-05-02T07:03:44Z</time></trkpt><trkpt lat="42.34736585107643" lon="14.106205611311625"><ele>46.0</ele><time>2026-05-02T07:03:45Z</time></trkpt><trkpt lat="42.34740186396162" lon="14.1061283391354"><ele>46.0</ele><time>2026-05-02T07:03:46Z</time></trkpt><trkpt lat="42.3474246031916" lon="14.1060353620667"><ele>46.0</ele><time>2026-05-02T07:03:47Z</time></trkpt><trkpt lat="42.347439795712496" lon="14.10592307715581"><ele>46.0</ele><time>2026-05-02T07:03:48Z</time></trkpt><trkpt lat="42.34746000317553" lon="14.105838415268758"><ele>46.0</ele><time>2026-05-02T07:03:49Z</time></trkpt><trkpt lat="42.3475028499472" lon="14.105763442985557"><ele>46.0</ele><time>2026-05-02T07:03:50Z</time></trkpt><trkpt lat="42.347566446755316" lon="14.105705393925936"><ele>46.0</ele><time>2026-05-02T07:03:51Z</time></trkpt><trkpt lat="42.34762744903118" lon="14.105622909607211"><ele>46.0</ele><time>2026-05-02T07:03:52Z</time></trkpt><trkpt lat="42.34767964487028" lon="14.105507613441203"><ele>45.8</ele><time>2026-05-02T07:03:53Z</time></trkpt><trkpt lat="42.34773655066781" lon="14.105375721246498"><ele>45.599999999999994</ele><time>2026-05-02T07:03:54Z</time></trkpt><trkpt lat="42.34780008696468" lon="14.105263722250736"><ele>45.4</ele><time>2026-05-02T07:03:55Z</time></trkpt><trkpt lat="42.34785717872603" lon="14.105166608933393"><ele>45.2</ele><time>2026-05-02T07:03:56Z</time></trkpt><trkpt lat="42.34791007954992" lon="14.105081801038327"><ele>45.0</ele><time>2026-05-02T07:03:56.999Z</time></trkpt><trkpt lat="42.34796295214887" lon="14.10499362894655"><ele>45.5</ele><time>2026-05-02T07:03:57.999Z</time></trkpt><trkpt lat="42.34800561247929" lon="14.104897864493834"><ele>46.0</ele><time>2026-05-02T07:03:58.999Z</time></trkpt><trkpt lat="42.34805693866186" lon="14.104814984326067"><ele>46.5</ele><time>2026-05-02T07:03:59.999Z</time></trkpt><trkpt lat="42.34812381588375" lon="14.104740410345883"><ele>47.0</ele><time>2026-05-02T07:04:00.999Z</time></trkpt><trkpt lat="42.34818141501787" lon="14.104673797591891"><ele>47.5</ele><time>2026-05-02T07:04:01.999Z</time></trkpt><trkpt lat="42.34822498494115" lon="14.104574484785998"><ele>48.0</ele><time>2026-05-02T07:04:02.999Z</time></trkpt><trkpt lat="42.34825865016782" lon="14.104478555756657"><ele>47.833333333333336</ele><time>2026-05-02T07:04:03.999Z</time></trkpt><trkpt lat="42.348284971248276" lon="14.104390865215638"><ele>47.666666666666664</ele><time>2026-05-02T07:04:04.999Z</time></trkpt><trkpt lat="42.34830907831521" lon="14.104290296132163"><ele>47.5</ele><time>2026-05-02T07:04:05.999Z</time></trkpt><trkpt lat="42.34833345410563" lon="14.104163311403031"><ele>47.33333333333333</ele><time>2026-05-02T07:04:06.999Z</time></trkpt><trkpt lat="42.34837162448535" lon="14.10403877085924"><ele>47.166666666666664</ele><time>2026-05-02T07:04:07.999Z</time></trkpt><trkpt lat="42.348411469493115" lon="14.10394023543187"><ele>47.0</ele><time>2026-05-02T07:04:08.999Z</time></trkpt><trkpt lat="42.34843912091207" lon="14.103828385232521"><ele>47.0</ele><time>2026-05-02T07:04:09.999Z</time></trkpt><trkpt lat="42.34845065968835" lon="14.103693506333697"><ele>47.0</ele><time>2026-05-02T07:04:10.999Z</time></trkpt><trkpt lat="42.3484738189954" lon="14.103545578357013"><ele>47.0</ele><time>2026-05-02T07:04:11.999Z</time></trkpt><trkpt lat="42.348485375921435" lon="14.103381574839648"><ele>47.0</ele><time>2026-05-02T07:04:12.999Z</time></trkpt><trkpt lat="42.348502284534625" lon="14.103217559425566"><ele>47.25</ele><time>2026-05-02T07:04:13.999Z</time></trkpt><trkpt lat="42.348508318528914" lon="14.103050082801655"><ele>47.5</ele><time>2026-05-02T07:04:14.999Z</time></trkpt><trkpt lat="42.34851736151712" lon="14.102877015203939"><ele>47.75</ele><time>2026-05-02T07:04:15.999Z</time></trkpt><trkpt lat="42.348532420156666" lon="14.102712562550446"><ele>48.0</ele><time>2026-05-02T07:04:16.999Z</time></trkpt><trkpt lat="42.348554455304956" lon="14.102557743752502"><ele>48.0</ele><time>2026-05-02T07:04:17.999Z</time></trkpt><trkpt lat="42.34857612365239" lon="14.10240181708488"><ele>48.0</ele><time>2026-05-02T07:04:18.999Z</time></trkpt><trkpt lat="42.34861246057498" lon="14.10223882448288"><ele>48.0</ele><time>2026-05-02T07:04:19.999Z</time></trkpt><trkpt lat="42.348644225574446" lon="14.102067220298299"><ele>48.0</ele><time>2026-05-02T07:04:20.999Z</time></trkpt><trkpt lat="42.348676833112854" lon="14.101891084293547"><ele>48.0</ele><time>2026-05-02T07:04:21.999Z</time></trkpt><trkpt lat="42.348713206888675" lon="14.10171815401033"><ele>48.0</ele><time>2026-05-02T07:04:22.999Z</time></trkpt><trkpt lat="42.348749289855974" lon="14.101561158041484"><ele>48.0</ele><time>2026-05-02T07:04:23.999Z</time></trkpt><trkpt lat="42.34878176731824" lon="14.101416652630531"><ele>48.0</ele><time>2026-05-02T07:04:24.999Z</time></trkpt><trkpt lat="42.3488097783088" lon="14.10129412077474"><ele>48.4</ele><time>2026-05-02T07:04:25.999Z</time></trkpt><trkpt lat="42.3488409992758" lon="14.101211092033457"><ele>48.8</ele><time>2026-05-02T07:04:26.999Z</time></trkpt><trkpt lat="42.3488853413802" lon="14.101091861509111"><ele>49.2</ele><time>2026-05-02T07:04:28.999Z</time></trkpt><trkpt lat="42.34899587715458" lon="14.10102516449184"><ele>49.6</ele><time>2026-05-02T07:04:30.999Z</time></trkpt><trkpt lat="42.34906213266482" lon="14.100968187404847"><ele>50.0</ele><time>2026-05-02T07:04:31.999Z</time></trkpt><trkpt lat="42.34911923459847" lon="14.100885491749457"><ele>50.4</ele><time>2026-05-02T07:04:32.999Z</time></trkpt><trkpt lat="42.349132597650886" lon="14.100799894275472"><ele>50.8</ele><time>2026-05-02T07:04:33.999Z</time></trkpt><trkpt lat="42.34917410804985" lon="14.100687118944453"><ele>51.2</ele><time>2026-05-02T07:04:35.999Z</time></trkpt><trkpt lat="42.34925255874536" lon="14.100593145408824"><ele>51.6</ele><time>2026-05-02T07:04:37.999Z</time></trkpt><trkpt lat="42.349342226955336" lon="14.100445004486899"><ele>52.0</ele><time>2026-05-02T07:04:39.999Z</time></trkpt><trkpt lat="42.34938905708763" lon="14.100322815693074"><ele>51.99999999999999</ele><time>2026-05-02T07:04:40.999Z</time></trkpt><trkpt lat="42.34942858031056" lon="14.10020162616238"><ele>52.0</ele><time>2026-05-02T07:04:41.999Z</time></trkpt><trkpt lat="42.3494615645588" lon="14.100077591974605"><ele>52.0</ele><time>2026-05-02T07:04:42.999Z</time></trkpt><trkpt lat="42.34949202702441" lon="14.099970633736387"><ele>52.0</ele><time>2026-05-02T07:04:43.999Z</time></trkpt><trkpt lat="42.3495146851317" lon="14.09989018249448"><ele>51.99999999999999</ele><time>2026-05-02T07:04:44.999Z</time></trkpt><trkpt lat="42.34953701315193" lon="14.099776782728423"><ele>52.0</ele><time>2026-05-02T07:04:46.999Z</time></trkpt><trkpt lat="42.34954047647329" lon="14.099689615176743"><ele>51.6</ele><time>2026-05-02T07:05:00.999Z</time></trkpt><trkpt lat="42.349525908496275" lon="14.099574332346018"><ele>51.2</ele><time>2026-05-02T07:05:03.999Z</time></trkpt><trkpt lat="42.34948701472952" lon="14.09947657053808"><ele>50.8</ele><time>2026-05-02T07:05:05.999Z</time></trkpt><trkpt lat="42.34943102257901" lon="14.099339175625305"><ele>50.4</ele><time>2026-05-02T07:05:07.999Z</time></trkpt><trkpt lat="42.349403143474525" lon="14.099200455105695"><ele>50.0</ele><time>2026-05-02T07:05:09.999Z</time></trkpt><trkpt lat="42.349400869071644" lon="14.099069200466985"><ele>50.00000000000001</ele><time>2026-05-02T07:05:11.998Z</time></trkpt><trkpt lat="42.34941800843266" lon="14.098928594138679"><ele>50.0</ele><time>2026-05-02T07:05:13.998Z</time></trkpt><trkpt lat="42.34946208471189" lon="14.098862494571414"><ele>50.0</ele><time>2026-05-02T07:05:14.998Z</time></trkpt><trkpt lat="42.34949087406173" lon="14.098761687781877"><ele>50.0</ele><time>2026-05-02T07:05:15.998Z</time></trkpt><trkpt lat="42.349513925213735" lon="14.098666353530374"><ele>50.00000000000001</ele><time>2026-05-02T07:05:16.998Z</time></trkpt><trkpt lat="42.349532432851944" lon="14.098533055786016"><ele>50.0</ele><time>2026-05-02T07:05:17.998Z</time></trkpt><trkpt lat="42.349570061649345" lon="14.098402514286386"><ele>50.0</ele><time>2026-05-02T07:05:18.998Z</time></trkpt><trkpt lat="42.34959868038553" lon="14.098282105555263"><ele>50.0</ele><time>2026-05-02T07:05:19.998Z</time></trkpt><trkpt lat="42.34962485289592" lon="14.098142703800194"><ele>50.0</ele><time>2026-05-02T07:05:20.998Z</time></trkpt><trkpt lat="42.34964491770168" lon="14.098004386854104"><ele>50.0</ele><time>2026-05-02T07:05:21.998Z</time></trkpt><trkpt lat="42.34967005610392" lon="14.097890660668885"><ele>50.0</ele><time>2026-05-02T07:05:22.998Z</time></trkpt><trkpt lat="42.34970531722997" lon="14.0977732981427"><ele>50.25</ele><time>2026-05-02T07:05:24Z</time></trkpt><trkpt lat="42.34974570451824" lon="14.097634571800935"><ele>50.5</ele><time>2026-05-02T07:05:25Z</time></trkpt><trkpt lat="42.34978625497633" lon="14.097482064018564"><ele>50.75</ele><time>2026-05-02T07:05:26Z</time></trkpt><trkpt lat="42.34982411589565" lon="14.097325464668982"><ele>51.0</ele><time>2026-05-02T07:05:27Z</time></trkpt><trkpt lat="42.34984966444631" lon="14.097163076453601"><ele>51.0</ele><time>2026-05-02T07:05:28Z</time></trkpt><trkpt lat="42.3498749743402" lon="14.097005072049283"><ele>51.0</ele><time>2026-05-02T07:05:29Z</time></trkpt><trkpt lat="42.34989693713518" lon="14.096851464351742"><ele>51.0</ele><time>2026-05-02T07:05:30Z</time></trkpt><trkpt lat="42.34990810023748" lon="14.096701058453752"><ele>51.0</ele><time>2026-05-02T07:05:31Z</time></trkpt><trkpt lat="42.349922607391306" lon="14.096549762963747"><ele>51.25</ele><time>2026-05-02T07:05:32Z</time></trkpt><trkpt lat="42.349933226614844" lon="14.096391102065253"><ele>51.5</ele><time>2026-05-02T07:05:33Z</time></trkpt><trkpt lat="42.34994036040663" lon="14.096225585756816"><ele>51.75</ele><time>2026-05-02T07:05:34Z</time></trkpt><trkpt lat="42.34995469591661" lon="14.096062849148531"><ele>52.0</ele><time>2026-05-02T07:05:35Z</time></trkpt><trkpt lat="42.34997307585596" lon="14.095907336557138"><ele>52.0</ele><time>2026-05-02T07:05:36Z</time></trkpt><trkpt lat="42.349988178980254" lon="14.095739937335242"><ele>52.0</ele><time>2026-05-02T07:05:37Z</time></trkpt><trkpt lat="42.34999434444704" lon="14.095563704783533"><ele>52.0</ele><time>2026-05-02T07:05:38Z</time></trkpt><trkpt lat="42.35000892183322" lon="14.095381087069583"><ele>52.0</ele><time>2026-05-02T07:05:39Z</time></trkpt><trkpt lat="42.35001618808604" lon="14.095217555907842"><ele>52.0</ele><time>2026-05-02T07:05:40Z</time></trkpt><trkpt lat="42.35001693437326" lon="14.095060470438197"><ele>52.0</ele><time>2026-05-02T07:05:41Z</time></trkpt><trkpt lat="42.35000217667493" lon="14.094889715571012"><ele>52.0</ele><time>2026-05-02T07:05:42Z</time></trkpt><trkpt lat="42.34997536139793" lon="14.094714262755248"><ele>52.0</ele><time>2026-05-02T07:05:43Z</time></trkpt><trkpt lat="42.34994368581466" lon="14.094538762203845"><ele>52.0</ele><time>2026-05-02T07:05:44Z</time></trkpt><trkpt lat="42.34990900350961" lon="14.094369096771413"><ele>52.0</ele><time>2026-05-02T07:05:45Z</time></trkpt><trkpt lat="42.3498782600282" lon="14.094212949687869"><ele>52.0</ele><time>2026-05-02T07:05:46Z</time></trkpt><trkpt lat="42.34984270527921" lon="14.094078555887958"><ele>52.0</ele><time>2026-05-02T07:05:47Z</time></trkpt><trkpt lat="42.3498178936173" lon="14.093949476666218"><ele>51.83333333333333</ele><time>2026-05-02T07:05:48Z</time></trkpt><trkpt lat="42.349798487884314" lon="14.093817579745055"><ele>51.666666666666664</ele><time>2026-05-02T07:05:49Z</time></trkpt><trkpt lat="42.34977366645215" lon="14.093684752569931"><ele>51.5</ele><time>2026-05-02T07:05:50Z</time></trkpt><trkpt lat="42.34973686162272" lon="14.09356773622087"><ele>51.33333333333333</ele><time>2026-05-02T07:05:51Z</time></trkpt><trkpt lat="42.34969818849433" lon="14.093496962464124"><ele>51.166666666666664</ele><time>2026-05-02T07:05:52Z</time></trkpt><trkpt lat="42.3496589164314" lon="14.0934215171647"><ele>51.0</ele><time>2026-05-02T07:05:53Z</time></trkpt><trkpt lat="42.349613083040815" lon="14.093267596003413"><ele>51.833333333333336</ele><time>2026-05-02T07:05:55Z</time></trkpt><trkpt lat="42.349605623837604" lon="14.093181875225246"><ele>52.66666666666667</ele><time>2026-05-02T07:05:56Z</time></trkpt><trkpt lat="42.34961169225878" lon="14.093092997829945"><ele>53.5</ele><time>2026-05-02T07:05:57Z</time></trkpt><trkpt lat="42.34960862330653" lon="14.09298593812274"><ele>54.333333333333336</ele><time>2026-05-02T07:05:58Z</time></trkpt><trkpt lat="42.34958200835431" lon="14.092864400192825"><ele>55.16666666666667</ele><time>2026-05-02T07:05:59Z</time></trkpt><trkpt lat="42.34953992077156" lon="14.092756935076729"><ele>56.0</ele><time>2026-05-02T07:06:00Z</time></trkpt><trkpt lat="42.34949613505172" lon="14.09267254377767"><ele>56.00000000000001</ele><time>2026-05-02T07:06:01Z</time></trkpt><trkpt lat="42.34943882165612" lon="14.092583839094997"><ele>56.0</ele><time>2026-05-02T07:06:02Z</time></trkpt><trkpt lat="42.34937927205547" lon="14.09250934100745"><ele>56.0</ele><time>2026-05-02T07:06:03Z</time></trkpt><trkpt lat="42.34933187230932" lon="14.09242212628198"><ele>56.0</ele><time>2026-05-02T07:06:03.999Z</time></trkpt><trkpt lat="42.34930359607713" lon="14.092315760003988"><ele>56.00000000000001</ele><time>2026-05-02T07:06:04.999Z</time></trkpt><trkpt lat="42.34928772517071" lon="14.092203238857122"><ele>56.0</ele><time>2026-05-02T07:06:05.999Z</time></trkpt><trkpt lat="42.34926855898808" lon="14.092066534252016"><ele>56.25</ele><time>2026-05-02T07:06:06.999Z</time></trkpt><trkpt lat="42.34923274251731" lon="14.091912502385032"><ele>56.5</ele><time>2026-05-02T07:06:07.999Z</time></trkpt><trkpt lat="42.34919153599265" lon="14.091764658381868"><ele>56.75</ele><time>2026-05-02T07:06:08.999Z</time></trkpt><trkpt lat="42.34915873657977" lon="14.091613899628982"><ele>57.0</ele><time>2026-05-02T07:06:09.999Z</time></trkpt><trkpt lat="42.34913576710686" lon="14.09146674473335"><ele>57.0</ele><time>2026-05-02T07:06:10.999Z</time></trkpt><trkpt lat="42.34912261350419" lon="14.091327230685897"><ele>57.0</ele><time>2026-05-02T07:06:11.999Z</time></trkpt><trkpt lat="42.34911686783214" lon="14.091202759505771"><ele>57.0</ele><time>2026-05-02T07:06:12.999Z</time></trkpt><trkpt lat="42.349113617979526" lon="14.091089969050175"><ele>57.0</ele><time>2026-05-02T07:06:13.999Z</time></trkpt><trkpt lat="42.34911810171523" lon="14.09098065116481"><ele>57.0</ele><time>2026-05-02T07:06:14.999Z</time></trkpt><trkpt lat="42.34910517073762" lon="14.090854508137014"><ele>56.75</ele><time>2026-05-02T07:06:15.999Z</time></trkpt><trkpt lat="42.349072853928874" lon="14.090705110919576"><ele>56.5</ele><time>2026-05-02T07:06:16.999Z</time></trkpt><trkpt lat="42.349034622542185" lon="14.090546849636882"><ele>56.25</ele><time>2026-05-02T07:06:17.999Z</time></trkpt><trkpt lat="42.348998155149346" lon="14.09038660862261"><ele>56.0</ele><time>2026-05-02T07:06:18.999Z</time></trkpt><trkpt lat="42.348973344056176" lon="14.090237264319288"><ele>56.0</ele><time>2026-05-02T07:06:19.999Z</time></trkpt><trkpt lat="42.34894392586715" lon="14.090090329708643"><ele>56.0</ele><time>2026-05-02T07:06:20.999Z</time></trkpt><trkpt lat="42.34891972665523" lon="14.08993721871617"><ele>56.0</ele><time>2026-05-02T07:06:21.999Z</time></trkpt><trkpt lat="42.34889922097515" lon="14.089764495892558"><ele>56.0</ele><time>2026-05-02T07:06:22.999Z</time></trkpt><trkpt lat="42.34887803389421" lon="14.089602062031307"><ele>57.8</ele><time>2026-05-02T07:06:23.999Z</time></trkpt><trkpt lat="42.348855320371634" lon="14.089469929415996"><ele>59.599999999999994</ele><time>2026-05-02T07:06:24.999Z</time></trkpt><trkpt lat="42.348828621887556" lon="14.089348013422585"><ele>61.4</ele><time>2026-05-02T07:06:25.999Z</time></trkpt><trkpt lat="42.348818026435815" lon="14.089212971271309"><ele>63.2</ele><time>2026-05-02T07:06:26.999Z</time></trkpt><trkpt lat="42.34879174793449" lon="14.08905227376877"><ele>65.0</ele><time>2026-05-02T07:06:27.999Z</time></trkpt><trkpt lat="42.34877155850545" lon="14.088889865300787"><ele>65.0</ele><time>2026-05-02T07:06:28.999Z</time></trkpt><trkpt lat="42.348764250221485" lon="14.088736089023152"><ele>65.0</ele><time>2026-05-02T07:06:29.999Z</time></trkpt><trkpt lat="42.3487752273282" lon="14.088584644693503"><ele>65.0</ele><time>2026-05-02T07:06:30.999Z</time></trkpt><trkpt lat="42.34877449255231" lon="14.088432883292992"><ele>65.0</ele><time>2026-05-02T07:06:31.999Z</time></trkpt><trkpt lat="42.348769257955844" lon="14.08828301054412"><ele>65.0</ele><time>2026-05-02T07:06:32.999Z</time></trkpt><trkpt lat="42.34879481322726" lon="14.088151196373556"><ele>64.4</ele><time>2026-05-02T07:06:33.999Z</time></trkpt><trkpt lat="42.34874990134059" lon="14.088033881332146"><ele>63.8</ele><time>2026-05-02T07:06:34.999Z</time></trkpt><trkpt lat="42.34872290331804" lon="14.087916810417008"><ele>63.2</ele><time>2026-05-02T07:06:35.999Z</time></trkpt><trkpt lat="42.3486807195618" lon="14.08779492300812"><ele>62.6</ele><time>2026-05-02T07:06:36.999Z</time></trkpt><trkpt lat="42.34865690843106" lon="14.087691674973572"><ele>62.0</ele><time>2026-05-02T07:06:37.999Z</time></trkpt><trkpt lat="42.34864359641726" lon="14.087575643312995"><ele>62.0</ele><time>2026-05-02T07:06:38.999Z</time></trkpt><trkpt lat="42.34863932316118" lon="14.087436345520326"><ele>62.0</ele><time>2026-05-02T07:06:39.999Z</time></trkpt><trkpt lat="42.34863875846563" lon="14.087297972184073"><ele>62.0</ele><time>2026-05-02T07:06:40.999Z</time></trkpt><trkpt lat="42.34861222035004" lon="14.087187847996768"><ele>62.0</ele><time>2026-05-02T07:06:41.999Z</time></trkpt><trkpt lat="42.34856726203665" lon="14.087101312977127"><ele>62.0</ele><time>2026-05-02T07:06:42.999Z</time></trkpt><trkpt lat="42.34846499684839" lon="14.087014621333747"><ele>62.16666666666667</ele><time>2026-05-02T07:06:44.999Z</time></trkpt><trkpt lat="42.348402909188295" lon="14.086953371265377"><ele>62.333333333333336</ele><time>2026-05-02T07:06:45.999Z</time></trkpt><trkpt lat="42.34834130990655" lon="14.086886351015599"><ele>62.5</ele><time>2026-05-02T07:06:46.999Z</time></trkpt><trkpt lat="42.348288066770344" lon="14.086835325695017"><ele>62.66666666666667</ele><time>2026-05-02T07:06:47.999Z</time></trkpt><trkpt lat="42.34822212155496" lon="14.086786119236669"><ele>62.833333333333336</ele><time>2026-05-02T07:06:49.999Z</time></trkpt><trkpt lat="42.34817334149035" lon="14.086705497611417"><ele>63.0</ele><time>2026-05-02T07:06:51.999Z</time></trkpt><trkpt lat="42.34814312522889" lon="14.086571745747381"><ele>63.0</ele><time>2026-05-02T07:06:53.999Z</time></trkpt><trkpt lat="42.348122781101296" lon="14.086485285039164"><ele>63.0</ele><time>2026-05-02T07:06:54.999Z</time></trkpt><trkpt lat="42.34809895063195" lon="14.086402569868234"><ele>63.0</ele><time>2026-05-02T07:06:55.999Z</time></trkpt><trkpt lat="42.348080645624414" lon="14.08627467924205"><ele>63.0</ele><time>2026-05-02T07:06:57.999Z</time></trkpt><trkpt lat="42.34807733453858" lon="14.086130291359611"><ele>63.0</ele><time>2026-05-02T07:06:59.999Z</time></trkpt><trkpt lat="42.34807162891498" lon="14.08604391681521"><ele>63.0</ele><time>2026-05-02T07:07:00.999Z</time></trkpt><trkpt lat="42.3480464742503" lon="14.085938584021946"><ele>64.2</ele><time>2026-05-02T07:07:03.999Z</time></trkpt><trkpt lat="42.348022913011256" lon="14.085839429456104"><ele>65.4</ele><time>2026-05-02T07:07:06.999Z</time></trkpt><trkpt lat="42.34799249321486" lon="14.085711100661358"><ele>66.60000000000001</ele><time>2026-05-02T07:07:09.999Z</time></trkpt><trkpt lat="42.34797622432082" lon="14.08556582320564"><ele>67.8</ele><time>2026-05-02T07:07:11.999Z</time></trkpt><trkpt lat="42.34797823041899" lon="14.08543118457538"><ele>69.0</ele><time>2026-05-02T07:07:13.999Z</time></trkpt><trkpt lat="42.34795629832703" lon="14.085344492521232"><ele>69.0</ele><time>2026-05-02T07:07:14.999Z</time></trkpt><trkpt lat="42.34791820618088" lon="14.085263655330838"><ele>69.0</ele><time>2026-05-02T07:07:15.999Z</time></trkpt><trkpt lat="42.34784041389914" lon="14.085136257092572"><ele>69.0</ele><time>2026-05-02T07:07:17.998Z</time></trkpt><trkpt lat="42.347795203619626" lon="14.084967272764647"><ele>69.0</ele><time>2026-05-02T07:07:19.998Z</time></trkpt><trkpt lat="42.347784208005" lon="14.084861124958486"><ele>69.0</ele><time>2026-05-02T07:07:20.998Z</time></trkpt><trkpt lat="42.34778000881324" lon="14.084743692401743"><ele>68.85714285714286</ele><time>2026-05-02T07:07:21.998Z</time></trkpt><trkpt lat="42.347775570637054" lon="14.084657470218374"><ele>68.71428571428572</ele><time>2026-05-02T07:07:22.998Z</time></trkpt><trkpt lat="42.347751241475656" lon="14.08456388984259"><ele>68.57142857142857</ele><time>2026-05-02T07:07:23.998Z</time></trkpt><trkpt lat="42.34771405642792" lon="14.084463413408201"><ele>68.42857142857143</ele><time>2026-05-02T07:07:24.998Z</time></trkpt><trkpt lat="42.34767946657119" lon="14.084373390849375"><ele>68.28571428571428</ele><time>2026-05-02T07:07:25.998Z</time></trkpt><trkpt lat="42.347650539433985" lon="14.084281924487946"><ele>68.14285714285714</ele><time>2026-05-02T07:07:26.998Z</time></trkpt><trkpt lat="42.34762593777691" lon="14.084186828440801"><ele>68.0</ele><time>2026-05-02T07:07:27.998Z</time></trkpt><trkpt lat="42.34760798347848" lon="14.084104514333276"><ele>67.83333333333334</ele><time>2026-05-02T07:07:28.998Z</time></trkpt><trkpt lat="42.347600102527615" lon="14.084011483684174"><ele>67.66666666666667</ele><time>2026-05-02T07:07:30Z</time></trkpt><trkpt lat="42.347592258424925" lon="14.083893037348293"><ele>67.5</ele><time>2026-05-02T07:07:31Z</time></trkpt><trkpt lat="42.347582041100466" lon="14.083789088355898"><ele>67.33333333333333</ele><time>2026-05-02T07:07:32Z</time></trkpt><trkpt lat="42.347576241901585" lon="14.083682492957033"><ele>67.16666666666666</ele><time>2026-05-02T07:07:33Z</time></trkpt><trkpt lat="42.34757460071505" lon="14.083576667131638"><ele>67.0</ele><time>2026-05-02T07:07:34Z</time></trkpt><trkpt lat="42.347564809268086" lon="14.083469855616194"><ele>67.0</ele><time>2026-05-02T07:07:35Z</time></trkpt><trkpt lat="42.34756848689368" lon="14.083345620894685"><ele>67.0</ele><time>2026-05-02T07:07:36Z</time></trkpt><trkpt lat="42.347588912202944" lon="14.08321960887822"><ele>67.0</ele><time>2026-05-02T07:07:37Z</time></trkpt><trkpt lat="42.34761736531947" lon="14.083115008894916"><ele>67.0</ele><time>2026-05-02T07:07:38Z</time></trkpt><trkpt lat="42.34765562455761" lon="14.083023420319575"><ele>67.0</ele><time>2026-05-02T07:07:39Z</time></trkpt><trkpt lat="42.34775043812362" lon="14.082906931461928"><ele>67.2</ele><time>2026-05-02T07:07:41Z</time></trkpt><trkpt lat="42.34782540019145" lon="14.082845709451025"><ele>67.4</ele><time>2026-05-02T07:07:42Z</time></trkpt><trkpt lat="42.3479064760089" lon="14.082766945166139"><ele>67.6</ele><time>2026-05-02T07:07:43Z</time></trkpt><trkpt lat="42.34798114258034" lon="14.08264831066708"><ele>67.8</ele><time>2026-05-02T07:07:44Z</time></trkpt><trkpt lat="42.34804054943124" lon="14.082503583014912"><ele>68.0</ele><time>2026-05-02T07:07:45Z</time></trkpt><trkpt lat="42.34809064900775" lon="14.082352299312895"><ele>67.4</ele><time>2026-05-02T07:07:46Z</time></trkpt><trkpt lat="42.348145244809096" lon="14.082225555722374"><ele>66.8</ele><time>2026-05-02T07:07:47Z</time></trkpt><trkpt lat="42.34817860302154" lon="14.082102425198064"><ele>66.2</ele><time>2026-05-02T07:07:48Z</time></trkpt><trkpt lat="42.34819657000364" lon="14.081973055291398"><ele>65.6</ele><time>2026-05-02T07:07:49Z</time></trkpt><trkpt lat="42.348298308369635" lon="14.081928520005258"><ele>65.0</ele><time>2026-05-02T07:07:50Z</time></trkpt><trkpt lat="42.348320861162" lon="14.081805446795125"><ele>65.0</ele><time>2026-05-02T07:07:51Z</time></trkpt><trkpt lat="42.34833564041161" lon="14.081674330225452"><ele>65.0</ele><time>2026-05-02T07:07:52Z</time></trkpt><trkpt lat="42.34835496137345" lon="14.081578242910167"><ele>65.0</ele><time>2026-05-02T07:07:53Z</time></trkpt><trkpt lat="42.348405568499494" lon="14.08151447984639"><ele>65.0</ele><time>2026-05-02T07:08:10Z</time></trkpt><trkpt lat="42.34834308353551" lon="14.081579821349107"><ele>65.0</ele><time>2026-05-02T07:08:20.999Z</time></trkpt><trkpt lat="42.348321871163435" lon="14.081711578622713"><ele>65.0</ele><time>2026-05-02T07:08:22.999Z</time></trkpt><trkpt lat="42.34830132184453" lon="14.081800518294964"><ele>65.0</ele><time>2026-05-02T07:08:24.999Z</time></trkpt><trkpt lat="42.34829548118725" lon="14.081903375053233"><ele>65.0</ele><time>2026-05-02T07:08:33.999Z</time></trkpt><trkpt lat="42.34833924000425" lon="14.081965141448382"><ele>65.0</ele><time>2026-05-02T07:08:50.999Z</time></trkpt><trkpt lat="42.348411238190735" lon="14.081968016810995"><ele>65.0</ele><time>2026-05-02T07:08:53.999Z</time></trkpt><trkpt lat="42.348476849650716" lon="14.082013653915427"><ele>65.0</ele><time>2026-05-02T07:08:55.999Z</time></trkpt><trkpt lat="42.3485390463476" lon="14.081920533198483"><ele>65.0</ele><time>2026-05-02T07:08:58.999Z</time></trkpt><trkpt lat="42.34857801615536" lon="14.081795689816365"><ele>65.0</ele><time>2026-05-02T07:09:00.999Z</time></trkpt><trkpt lat="42.348585629064054" lon="14.081708783474797"><ele>65.0</ele><time>2026-05-02T07:09:03.999Z</time></trkpt><trkpt lat="42.34859286152167" lon="14.081610779226212"><ele>65.0</ele><time>2026-05-02T07:09:05.999Z</time></trkpt><trkpt lat="42.34867273250775" lon="14.081513635312138"><ele>65.0</ele><time>2026-05-02T07:09:07.999Z</time></trkpt><trkpt lat="42.34877641220667" lon="14.08143975983337"><ele>65.0</ele><time>2026-05-02T07:09:09.999Z</time></trkpt><trkpt lat="42.348839826264204" lon="14.081390255242951"><ele>65.0</ele><time>2026-05-02T07:09:10.999Z</time></trkpt><trkpt lat="42.348911164200345" lon="14.081337483981876"><ele>65.33333333333334</ele><time>2026-05-02T07:09:11.999Z</time></trkpt><trkpt lat="42.348982784725465" lon="14.081290105244136"><ele>65.66666666666667</ele><time>2026-05-02T07:09:12.999Z</time></trkpt><trkpt lat="42.349040637547105" lon="14.081251902829525"><ele>66.0</ele><time>2026-05-02T07:09:13.999Z</time></trkpt><trkpt lat="42.34914492415497" lon="14.081223617647991"><ele>66.33333333333333</ele><time>2026-05-02T07:09:15.999Z</time></trkpt><trkpt lat="42.34926472701291" lon="14.08124697256464"><ele>66.66666666666666</ele><time>2026-05-02T07:09:17.999Z</time></trkpt><trkpt lat="42.34933091364215" lon="14.08126869081886"><ele>67.0</ele><time>2026-05-02T07:09:18.999Z</time></trkpt><trkpt lat="42.349398085248374" lon="14.08128909475018"><ele>67.0</ele><time>2026-05-02T07:09:19.999Z</time></trkpt><trkpt lat="42.34946202804957" lon="14.081304539063623"><ele>67.0</ele><time>2026-05-02T07:09:20.999Z</time></trkpt><trkpt lat="42.34955468739122" lon="14.081306819406471"><ele>67.0</ele><time>2026-05-02T07:09:22.999Z</time></trkpt><trkpt lat="42.34962702286443" lon="14.081235884512097"><ele>67.0</ele><time>2026-05-02T07:09:24.999Z</time></trkpt><trkpt lat="42.34966807523476" lon="14.081152142418373"><ele>67.0</ele><time>2026-05-02T07:09:26.998Z</time></trkpt><trkpt lat="42.34967529996382" lon="14.081052297522556"><ele>67.0</ele><time>2026-05-02T07:09:28.998Z</time></trkpt><trkpt lat="42.34964762416237" lon="14.080936259477962"><ele>67.0</ele><time>2026-05-02T07:09:30.998Z</time></trkpt><trkpt lat="42.34959594956529" lon="14.080835240697978"><ele>67.0</ele><time>2026-05-02T07:09:32.998Z</time></trkpt><trkpt lat="42.349557858153176" lon="14.080744756048249"><ele>67.0</ele><time>2026-05-02T07:09:34.998Z</time></trkpt><trkpt lat="42.34952672333803" lon="14.080633611396962"><ele>67.0</ele><time>2026-05-02T07:09:38Z</time></trkpt><trkpt lat="42.3495732961336" lon="14.080535333196782"><ele>67.0</ele><time>2026-05-02T07:09:40Z</time></trkpt><trkpt lat="42.34967337990306" lon="14.080456410629868"><ele>66.66666666666666</ele><time>2026-05-02T07:09:42Z</time></trkpt><trkpt lat="42.34972829172283" lon="14.08038882264349"><ele>66.33333333333333</ele><time>2026-05-02T07:09:43Z</time></trkpt><trkpt lat="42.34978079726669" lon="14.080315028122266"><ele>66.0</ele><time>2026-05-02T07:09:44Z</time></trkpt><trkpt lat="42.34984616323399" lon="14.080241718299787"><ele>65.66666666666667</ele><time>2026-05-02T07:09:45Z</time></trkpt><trkpt lat="42.349920321926284" lon="14.080171041036996"><ele>65.33333333333334</ele><time>2026-05-02T07:09:46Z</time></trkpt><trkpt lat="42.35000049418516" lon="14.08010569893139"><ele>65.0</ele><time>2026-05-02T07:09:47Z</time></trkpt><trkpt lat="42.35008036707966" lon="14.080051447278716"><ele>65.0</ele><time>2026-05-02T07:09:48Z</time></trkpt><trkpt lat="42.350155173741264" lon="14.079985851792923"><ele>65.0</ele><time>2026-05-02T07:09:49Z</time></trkpt><trkpt lat="42.350220366761874" lon="14.079895487713575"><ele>65.0</ele><time>2026-05-02T07:09:50Z</time></trkpt><trkpt lat="42.35027540189873" lon="14.079777237640586"><ele>65.0</ele><time>2026-05-02T07:09:51Z</time></trkpt><trkpt lat="42.35032534984294" lon="14.079636883505612"><ele>65.0</ele><time>2026-05-02T07:09:52Z</time></trkpt><trkpt lat="42.35036465871604" lon="14.079481138778494"><ele>65.25</ele><time>2026-05-02T07:09:53Z</time></trkpt><trkpt lat="42.35038898727521" lon="14.079318608003613"><ele>65.5</ele><time>2026-05-02T07:09:54Z</time></trkpt><trkpt lat="42.35040905616604" lon="14.079155368235991"><ele>65.75</ele><time>2026-05-02T07:09:55Z</time></trkpt><trkpt lat="42.350435187013815" lon="14.07900312060845"><ele>66.0</ele><time>2026-05-02T07:09:56Z</time></trkpt><trkpt lat="42.35046608973707" lon="14.078876624263144"><ele>66.0</ele><time>2026-05-02T07:09:57Z</time></trkpt><trkpt lat="42.35050898384687" lon="14.07877169253135"><ele>66.0</ele><time>2026-05-02T07:09:58Z</time></trkpt><trkpt lat="42.35054852652253" lon="14.078677374925837"><ele>66.0</ele><time>2026-05-02T07:09:59Z</time></trkpt><trkpt lat="42.35057059470589" lon="14.07859199358815"><ele>66.0</ele><time>2026-05-02T07:10:00Z</time></trkpt><trkpt lat="42.35057311616628" lon="14.078485817328422"><ele>66.0</ele><time>2026-05-02T07:10:01Z</time></trkpt><trkpt lat="42.350564032083035" lon="14.078361657900649"><ele>66.0</ele><time>2026-05-02T07:10:02Z</time></trkpt><trkpt lat="42.35054984017529" lon="14.078236621620883"><ele>66.16666666666667</ele><time>2026-05-02T07:10:03Z</time></trkpt><trkpt lat="42.350521121062094" lon="14.078126819697152"><ele>66.33333333333333</ele><time>2026-05-02T07:10:04Z</time></trkpt><trkpt lat="42.3504859795147" lon="14.078005787647282"><ele>66.5</ele><time>2026-05-02T07:10:05Z</time></trkpt><trkpt lat="42.350464317646995" lon="14.07789054146021"><ele>66.66666666666666</ele><time>2026-05-02T07:10:06Z</time></trkpt><trkpt lat="42.35046628234886" lon="14.07779333221539"><ele>66.83333333333333</ele><time>2026-05-02T07:10:07Z</time></trkpt><trkpt lat="42.35045850759696" lon="14.077686930063718"><ele>67.0</ele><time>2026-05-02T07:10:08Z</time></trkpt><trkpt lat="42.35044476079935" lon="14.077566917029113"><ele>67.2</ele><time>2026-05-02T07:10:09Z</time></trkpt><trkpt lat="42.35043555465734" lon="14.077429651342438"><ele>67.4</ele><time>2026-05-02T07:10:10Z</time></trkpt><trkpt lat="42.35044188513594" lon="14.077282210167597"><ele>67.6</ele><time>2026-05-02T07:10:11Z</time></trkpt><trkpt lat="42.35043689552972" lon="14.077145625952658"><ele>67.8</ele><time>2026-05-02T07:10:12Z</time></trkpt><trkpt lat="42.35043865294002" lon="14.077021855689168"><ele>68.0</ele><time>2026-05-02T07:10:13Z</time></trkpt><trkpt lat="42.35044142159451" lon="14.076904996820904"><ele>68.0</ele><time>2026-05-02T07:10:14Z</time></trkpt><trkpt lat="42.3504290134032" lon="14.076797323000063"><ele>68.0</ele><time>2026-05-02T07:10:15Z</time></trkpt><trkpt lat="42.350426730440056" lon="14.076691689871405"><ele>68.0</ele><time>2026-05-02T07:10:16Z</time></trkpt><trkpt lat="42.35043827144408" lon="14.076577785502995"><ele>68.0</ele><time>2026-05-02T07:10:17Z</time></trkpt><trkpt lat="42.3504682592633" lon="14.076465593258433"><ele>68.0</ele><time>2026-05-02T07:10:18Z</time></trkpt><trkpt lat="42.35048913335242" lon="14.076360887990585"><ele>68.0</ele><time>2026-05-02T07:10:18.999Z</time></trkpt><trkpt lat="42.350488962555296" lon="14.07624069993803"><ele>68.4</ele><time>2026-05-02T07:10:19.999Z</time></trkpt><trkpt lat="42.350465466862005" lon="14.076112070414757"><ele>68.8</ele><time>2026-05-02T07:10:20.999Z</time></trkpt><trkpt lat="42.35043420165573" lon="14.075973078634702"><ele>69.2</ele><time>2026-05-02T07:10:21.999Z</time></trkpt><trkpt lat="42.35040376550341" lon="14.075844924032554"><ele>69.6</ele><time>2026-05-02T07:10:22.999Z</time></trkpt><trkpt lat="42.35039403210243" lon="14.075735750485"><ele>70.0</ele><time>2026-05-02T07:10:23.999Z</time></trkpt><trkpt lat="42.35039364402578" lon="14.075636021002698"><ele>70.2</ele><time>2026-05-02T07:10:24.999Z</time></trkpt><trkpt lat="42.35039961579222" lon="14.075507840447317"><ele>70.4</ele><time>2026-05-02T07:10:26.999Z</time></trkpt><trkpt lat="42.350430458936586" lon="14.07542612183238"><ele>70.6</ele><time>2026-05-02T07:10:28.999Z</time></trkpt><trkpt lat="42.35054529243999" lon="14.075365791651835"><ele>70.8</ele><time>2026-05-02T07:10:30.999Z</time></trkpt><trkpt lat="42.350633852892905" lon="14.075341131009"><ele>71.0</ele><time>2026-05-02T07:10:31.999Z</time></trkpt><trkpt lat="42.35072289147707" lon="14.075312708981043"><ele>71.0</ele><time>2026-05-02T07:10:32.999Z</time></trkpt><trkpt lat="42.350837182866" lon="14.07527742415279"><ele>71.0</ele><time>2026-05-02T07:10:33.999Z</time></trkpt><trkpt lat="42.350956417679235" lon="14.075235689333889"><ele>71.0</ele><time>2026-05-02T07:10:34.999Z</time></trkpt><trkpt lat="42.35108116099093" lon="14.07518874395407"><ele>71.0</ele><time>2026-05-02T07:10:35.999Z</time></trkpt><trkpt lat="42.35119447813016" lon="14.07514586159438"><ele>71.0</ele><time>2026-05-02T07:10:36.999Z</time></trkpt><trkpt lat="42.351278373575155" lon="14.075084428598283"><ele>71.0</ele><time>2026-05-02T07:10:37.999Z</time></trkpt><trkpt lat="42.35139033824804" lon="14.075031468864196"><ele>71.0</ele><time>2026-05-02T07:10:38.999Z</time></trkpt><trkpt lat="42.35146981525894" lon="14.075058871666338"><ele>71.0</ele><time>2026-05-02T07:10:39.999Z</time></trkpt><trkpt lat="42.35157813562317" lon="14.075079988470293"><ele>71.0</ele><time>2026-05-02T07:10:40.999Z</time></trkpt><trkpt lat="42.351705767356755" lon="14.075061782473187"><ele>71.66666666666667</ele><time>2026-05-02T07:10:41.999Z</time></trkpt><trkpt lat="42.351847930521366" lon="14.07508851096087"><ele>72.33333333333333</ele><time>2026-05-02T07:10:42.999Z</time></trkpt><trkpt lat="42.351999953820176" lon="14.07512306989764"><ele>73.0</ele><time>2026-05-02T07:10:43.999Z</time></trkpt><trkpt lat="42.3521525823746" lon="14.075153951774496"><ele>74.33333333333333</ele><time>2026-05-02T07:10:44.999Z</time></trkpt><trkpt lat="42.35230361689549" lon="14.075176104724147"><ele>75.66666666666667</ele><time>2026-05-02T07:10:45.999Z</time></trkpt><trkpt lat="42.352462845379904" lon="14.075187287628161"><ele>77.0</ele><time>2026-05-02T07:10:46.999Z</time></trkpt><trkpt lat="42.352604948973074" lon="14.075207000707872"><ele>77.0</ele><time>2026-05-02T07:10:47.999Z</time></trkpt><trkpt lat="42.35274865984343" lon="14.075228452379484"><ele>77.0</ele><time>2026-05-02T07:10:48.999Z</time></trkpt><trkpt lat="42.352885797672876" lon="14.075256642993113"><ele>77.0</ele><time>2026-05-02T07:10:49.999Z</time></trkpt><trkpt lat="42.35300881584815" lon="14.075287983492263"><ele>77.0</ele><time>2026-05-02T07:10:50.999Z</time></trkpt><trkpt lat="42.35315016371156" lon="14.075314138513498"><ele>80.5</ele><time>2026-05-02T07:10:51.999Z</time></trkpt><trkpt lat="42.35330626944377" lon="14.075311324557171"><ele>84.0</ele><time>2026-05-02T07:10:52.999Z</time></trkpt><trkpt lat="42.35350434664535" lon="14.075267870975045"><ele>87.5</ele><time>2026-05-02T07:10:53.999Z</time></trkpt><trkpt lat="42.35354852662134" lon="14.075359684227266"><ele>91.0</ele><time>2026-05-02T07:10:54.999Z</time></trkpt><trkpt lat="42.35370023541189" lon="14.075321470338032"><ele>91.0</ele><time>2026-05-02T07:10:55.999Z</time></trkpt><trkpt lat="42.353852554000554" lon="14.075277393139448"><ele>91.0</ele><time>2026-05-02T07:10:56.999Z</time></trkpt><trkpt lat="42.35401082099102" lon="14.075241846095803"><ele>91.0</ele><time>2026-05-02T07:10:57.999Z</time></trkpt><trkpt lat="42.354157390091686" lon="14.07520739917255"><ele>93.0</ele><time>2026-05-02T07:10:58.999Z</time></trkpt><trkpt lat="42.35430529472751" lon="14.07516372650161"><ele>95.0</ele><time>2026-05-02T07:10:59.999Z</time></trkpt><trkpt lat="42.35445562410533" lon="14.075121710614024"><ele>97.0</ele><time>2026-05-02T07:11:00.999Z</time></trkpt><trkpt lat="42.35460623927198" lon="14.07507507184754"><ele>100.25</ele><time>2026-05-02T07:11:01.999Z</time></trkpt><trkpt lat="42.35475945259397" lon="14.075031771643568"><ele>103.5</ele><time>2026-05-02T07:11:02.999Z</time></trkpt><trkpt lat="42.3549034720513" lon="14.074999594136806"><ele>106.75</ele><time>2026-05-02T07:11:03.999Z</time></trkpt><trkpt lat="42.355044592582196" lon="14.07496786259895"><ele>110.0</ele><time>2026-05-02T07:11:04.999Z</time></trkpt><trkpt lat="42.35518132948983" lon="14.074953183757158"><ele>110.75</ele><time>2026-05-02T07:11:05.999Z</time></trkpt><trkpt lat="42.35532348398078" lon="14.07493556619922"><ele>111.5</ele><time>2026-05-02T07:11:06.999Z</time></trkpt><trkpt lat="42.35546419036105" lon="14.074910148296759"><ele>112.25</ele><time>2026-05-02T07:11:07.999Z</time></trkpt><trkpt lat="42.355599514238" lon="14.074885307036537"><ele>113.0</ele><time>2026-05-02T07:11:08.999Z</time></trkpt><trkpt lat="42.35573471446092" lon="14.07486475080704"><ele>114.75</ele><time>2026-05-02T07:11:09.999Z</time></trkpt><trkpt lat="42.35586733152708" lon="14.074853511944085"><ele>116.5</ele><time>2026-05-02T07:11:10.999Z</time></trkpt><trkpt lat="42.35600033002003" lon="14.074857248521633"><ele>118.25</ele><time>2026-05-02T07:11:11.999Z</time></trkpt><trkpt lat="42.356148441964315" lon="14.074859363311122"><ele>120.0</ele><time>2026-05-02T07:11:12.999Z</time></trkpt><trkpt lat="42.35631762540621" lon="14.074879139571419"><ele>120.75</ele><time>2026-05-02T07:11:13.999Z</time></trkpt><trkpt lat="42.35646802487976" lon="14.07491066448008"><ele>121.5</ele><time>2026-05-02T07:11:14.999Z</time></trkpt><trkpt lat="42.356596353222265" lon="14.074935845720862"><ele>122.25</ele><time>2026-05-02T07:11:15.999Z</time></trkpt><trkpt lat="42.356711685178" lon="14.074954577749928"><ele>123.0</ele><time>2026-05-02T07:11:16.999Z</time></trkpt><trkpt lat="42.356824947692694" lon="14.074968978044433"><ele>123.0</ele><time>2026-05-02T07:11:17.999Z</time></trkpt><trkpt lat="42.356938714273106" lon="14.074988757747569"><ele>123.0</ele><time>2026-05-02T07:11:18.999Z</time></trkpt><trkpt lat="42.35705066421509" lon="14.07501671638824"><ele>123.0</ele><time>2026-05-02T07:11:19.999Z</time></trkpt><trkpt lat="42.3571662518722" lon="14.075045036086935"><ele>123.0</ele><time>2026-05-02T07:11:20.999Z</time></trkpt><trkpt lat="42.35728518508297" lon="14.075074104850518"><ele>122.75</ele><time>2026-05-02T07:11:21.999Z</time></trkpt><trkpt lat="42.357402355380266" lon="14.075099205001681"><ele>122.5</ele><time>2026-05-02T07:11:22.999Z</time></trkpt><trkpt lat="42.35752158827816" lon="14.075126368639603"><ele>122.25</ele><time>2026-05-02T07:11:23.999Z</time></trkpt><trkpt lat="42.35764288515979" lon="14.075155624078125"><ele>122.0</ele><time>2026-05-02T07:11:24.999Z</time></trkpt><trkpt lat="42.35776640755449" lon="14.075185006849757"><ele>122.0</ele><time>2026-05-02T07:11:25.999Z</time></trkpt><trkpt lat="42.35788874572485" lon="14.075219749883438"><ele>122.0</ele><time>2026-05-02T07:11:26.999Z</time></trkpt><trkpt lat="42.35801009107785" lon="14.075264875688749"><ele>122.0</ele><time>2026-05-02T07:11:27.999Z</time></trkpt><trkpt lat="42.35812158945374" lon="14.075310273810462"><ele>122.0</ele><time>2026-05-02T07:11:28.999Z</time></trkpt><trkpt lat="42.35822734113897" lon="14.075357898314255"><ele>121.8</ele><time>2026-05-02T07:11:29.998Z</time></trkpt><trkpt lat="42.35833283118944" lon="14.07540080081827"><ele>121.6</ele><time>2026-05-02T07:11:30.998Z</time></trkpt><trkpt lat="42.35843303616773" lon="14.075437461625617"><ele>121.39999999999999</ele><time>2026-05-02T07:11:31.998Z</time></trkpt><trkpt lat="42.35852987384386" lon="14.075469864338135"><ele>121.19999999999999</ele><time>2026-05-02T07:11:32.998Z</time></trkpt><trkpt lat="42.35860401518318" lon="14.075496284638175"><ele>121.0</ele><time>2026-05-02T07:11:33.998Z</time></trkpt><trkpt lat="42.358697666792054" lon="14.075547829839367"><ele>121.0</ele><time>2026-05-02T07:11:35.998Z</time></trkpt><trkpt lat="42.358830052965274" lon="14.075520837115802"><ele>121.0</ele><time>2026-05-02T07:11:37.998Z</time></trkpt><trkpt lat="42.358932715998165" lon="14.075450748300021"><ele>121.0</ele><time>2026-05-02T07:11:38.998Z</time></trkpt><trkpt lat="42.35903238448471" lon="14.075356998239865"><ele>121.0</ele><time>2026-05-02T07:11:39.998Z</time></trkpt><trkpt lat="42.35915971877215" lon="14.07528824890699"><ele>122.33333333333334</ele><time>2026-05-02T07:11:40.998Z</time></trkpt><trkpt lat="42.359285332722614" lon="14.075200779496463"><ele>123.66666666666666</ele><time>2026-05-02T07:11:42Z</time></trkpt><trkpt lat="42.359446587448446" lon="14.075092637915523"><ele>125.0</ele><time>2026-05-02T07:11:43Z</time></trkpt><trkpt lat="42.35959719279542" lon="14.074983457717712"><ele>125.75</ele><time>2026-05-02T07:11:44Z</time></trkpt><trkpt lat="42.359742623440084" lon="14.074878539672108"><ele>126.5</ele><time>2026-05-02T07:11:45Z</time></trkpt><trkpt lat="42.35987022781292" lon="14.074789326918294"><ele>127.25</ele><time>2026-05-02T07:11:46Z</time></trkpt><trkpt lat="42.35998769703814" lon="14.074706464138561"><ele>128.0</ele><time>2026-05-02T07:11:47Z</time></trkpt><trkpt lat="42.36010192989335" lon="14.074625743346871"><ele>128.0</ele><time>2026-05-02T07:11:48Z</time></trkpt><trkpt lat="42.36021057795328" lon="14.074556783733954"><ele>128.0</ele><time>2026-05-02T07:11:49Z</time></trkpt><trkpt lat="42.36032152292599" lon="14.074476822956498"><ele>128.0</ele><time>2026-05-02T07:11:50Z</time></trkpt><trkpt lat="42.360434199261476" lon="14.074381685489197"><ele>128.0</ele><time>2026-05-02T07:11:51Z</time></trkpt><trkpt lat="42.360540007412965" lon="14.07425079601338"><ele>129.0</ele><time>2026-05-02T07:11:52Z</time></trkpt><trkpt lat="42.36070332817661" lon="14.074211859348745"><ele>130.0</ele><time>2026-05-02T07:11:53Z</time></trkpt><trkpt lat="42.36083423222621" lon="14.074123005079793"><ele>131.0</ele><time>2026-05-02T07:11:54Z</time></trkpt><trkpt lat="42.360964404580294" lon="14.074041409383963"><ele>131.6</ele><time>2026-05-02T07:11:55Z</time></trkpt><trkpt lat="42.36106954272741" lon="14.073965760704443"><ele>132.2</ele><time>2026-05-02T07:11:56Z</time></trkpt><trkpt lat="42.36116500745051" lon="14.073899625169688"><ele>132.8</ele><time>2026-05-02T07:11:57Z</time></trkpt><trkpt lat="42.36125961547972" lon="14.073832401222026"><ele>133.4</ele><time>2026-05-02T07:11:58Z</time></trkpt><trkpt lat="42.36136097704521" lon="14.073757490424207"><ele>134.0</ele><time>2026-05-02T07:11:59Z</time></trkpt><trkpt lat="42.36146393957822" lon="14.0736755999794"><ele>134.6</ele><time>2026-05-02T07:12:00Z</time></trkpt><trkpt lat="42.36155582619812" lon="14.073605165853483"><ele>135.2</ele><time>2026-05-02T07:12:01Z</time></trkpt><trkpt lat="42.361632485883874" lon="14.073552785097004"><ele>135.79999999999998</ele><time>2026-05-02T07:12:02Z</time></trkpt><trkpt lat="42.36169311390777" lon="14.073517831669236"><ele>136.4</ele><time>2026-05-02T07:12:03Z</time></trkpt><trkpt lat="42.36175457129528" lon="14.073456394596338"><ele>137.0</ele><time>2026-05-02T07:12:08Z</time></trkpt><trkpt lat="42.36168129668345" lon="14.073281966968652"><ele>137.0</ele><time>2026-05-02T07:12:10Z</time></trkpt><trkpt lat="42.36159667146473" lon="14.073171785784382"><ele>137.0</ele><time>2026-05-02T07:12:11Z</time></trkpt><trkpt lat="42.361508705996094" lon="14.07304642336242"><ele>137.0</ele><time>2026-05-02T07:12:12Z</time></trkpt><trkpt lat="42.361427809409534" lon="14.072912311631715"><ele>137.0</ele><time>2026-05-02T07:12:13Z</time></trkpt><trkpt lat="42.36134071014951" lon="14.072777741667872"><ele>136.0</ele><time>2026-05-02T07:12:14Z</time></trkpt><trkpt lat="42.361251113822924" lon="14.07265092610547"><ele>135.0</ele><time>2026-05-02T07:12:15Z</time></trkpt><trkpt lat="42.3611631279944" lon="14.07252193184027"><ele>134.0</ele><time>2026-05-02T07:12:16Z</time></trkpt><trkpt lat="42.36106928276172" lon="14.072379361308517"><ele>133.0</ele><time>2026-05-02T07:12:17Z</time></trkpt><trkpt lat="42.36096528033197" lon="14.072230101790165"><ele>133.0</ele><time>2026-05-02T07:12:18Z</time></trkpt><trkpt lat="42.360861278332415" lon="14.072081731270186"><ele>133.0</ele><time>2026-05-02T07:12:19Z</time></trkpt><trkpt lat="42.36076705093086" lon="14.07191796605663"><ele>133.0</ele><time>2026-05-02T07:12:20Z</time></trkpt><trkpt lat="42.36068581731015" lon="14.071734443586436"><ele>134.33333333333334</ele><time>2026-05-02T07:12:21Z</time></trkpt><trkpt lat="42.36061384685364" lon="14.071532651524983"><ele>135.66666666666666</ele><time>2026-05-02T07:12:21.999Z</time></trkpt><trkpt lat="42.360582292601386" lon="14.071294378773183"><ele>137.0</ele><time>2026-05-02T07:12:22.999Z</time></trkpt><trkpt lat="42.36054365839311" lon="14.07105516781364"><ele>136.33333333333331</ele><time>2026-05-02T07:12:23.999Z</time></trkpt><trkpt lat="42.3604649135208" lon="14.070879691031738"><ele>135.66666666666666</ele><time>2026-05-02T07:12:24.999Z</time></trkpt><trkpt lat="42.3603754109156" lon="14.07071214695543"><ele>135.0</ele><time>2026-05-02T07:12:25.999Z</time></trkpt><trkpt lat="42.36027107766181" lon="14.070548743137287"><ele>135.0</ele><time>2026-05-02T07:12:26.999Z</time></trkpt><trkpt lat="42.360321795180205" lon="14.070202351353643"><ele>135.0</ele><time>2026-05-02T07:12:27.999Z</time></trkpt><trkpt lat="42.360273131144844" lon="14.069980599774805"><ele>135.0</ele><time>2026-05-02T07:12:28.999Z</time></trkpt><trkpt lat="42.36023696687686" lon="14.069771751564206"><ele>136.0</ele><time>2026-05-02T07:12:29.999Z</time></trkpt><trkpt lat="42.36020283505474" lon="14.069567801071399"><ele>137.0</ele><time>2026-05-02T07:12:30.999Z</time></trkpt><trkpt lat="42.36017943251894" lon="14.069362126269784"><ele>138.0</ele><time>2026-05-02T07:12:31.999Z</time></trkpt><trkpt lat="42.36018579373221" lon="14.069152201681792"><ele>138.66666666666666</ele><time>2026-05-02T07:12:32.999Z</time></trkpt><trkpt lat="42.36021893224458" lon="14.068938603108947"><ele>139.33333333333331</ele><time>2026-05-02T07:12:33.999Z</time></trkpt><trkpt lat="42.36027512549004" lon="14.068736235671466"><ele>140.0</ele><time>2026-05-02T07:12:34.999Z</time></trkpt><trkpt lat="42.36035061647868" lon="14.068547307142792"><ele>140.0</ele><time>2026-05-02T07:12:35.999Z</time></trkpt><trkpt lat="42.36044112672364" lon="14.06839081279558"><ele>140.0</ele><time>2026-05-02T07:12:36.999Z</time></trkpt><trkpt lat="42.36053196631702" lon="14.068280259043485"><ele>140.0</ele><time>2026-05-02T07:12:37.999Z</time></trkpt><trkpt lat="42.36060073532018" lon="14.068193313692275"><ele>140.0</ele><time>2026-05-02T07:12:38.999Z</time></trkpt><trkpt lat="42.360653133055806" lon="14.06811301061914"><ele>140.0</ele><time>2026-05-02T07:12:39.999Z</time></trkpt><trkpt lat="42.360690517914406" lon="14.068027199416068"><ele>140.0</ele><time>2026-05-02T07:12:40.999Z</time></trkpt><trkpt lat="42.360710235150336" lon="14.067911091441328"><ele>140.0</ele><time>2026-05-02T07:12:41.999Z</time></trkpt><trkpt lat="42.36072254555501" lon="14.067781940051844"><ele>140.0</ele><time>2026-05-02T07:12:42.999Z</time></trkpt><trkpt lat="42.36072211872729" lon="14.067640126641665"><ele>140.0</ele><time>2026-05-02T07:12:43.999Z</time></trkpt><trkpt lat="42.36068569444779" lon="14.06749271220279"><ele>140.0</ele><time>2026-05-02T07:12:44.999Z</time></trkpt><trkpt lat="42.36061607877087" lon="14.06734960097156"><ele>138.2</ele><time>2026-05-02T07:12:45.999Z</time></trkpt><trkpt lat="42.360523202207624" lon="14.067203177295282"><ele>136.4</ele><time>2026-05-02T07:12:46.999Z</time></trkpt><trkpt lat="42.36045391294043" lon="14.067082737986437"><ele>134.6</ele><time>2026-05-02T07:12:47.999Z</time></trkpt><trkpt lat="42.36040106431224" lon="14.066979481974155"><ele>132.8</ele><time>2026-05-02T07:12:48.999Z</time></trkpt><trkpt lat="42.36037076488247" lon="14.066884570566469"><ele>131.0</ele><time>2026-05-02T07:12:49.999Z</time></trkpt><trkpt lat="42.36036259011655" lon="14.066790487456169"><ele>131.0</ele><time>2026-05-02T07:12:50.999Z</time></trkpt><trkpt lat="42.360353509153" lon="14.066703462922142"><ele>131.0</ele><time>2026-05-02T07:12:51.999Z</time></trkpt><trkpt lat="42.3602703396102" lon="14.066572673273699"><ele>131.0</ele><time>2026-05-02T07:12:53.999Z</time></trkpt><trkpt lat="42.36018698608838" lon="14.066545606464084"><ele>131.0</ele><time>2026-05-02T07:12:54.999Z</time></trkpt><trkpt lat="42.360083294236745" lon="14.066535504826467"><ele>131.0</ele><time>2026-05-02T07:12:55.999Z</time></trkpt><trkpt lat="42.359993166299816" lon="14.066482442906402"><ele>131.0</ele><time>2026-05-02T07:12:56.999Z</time></trkpt><trkpt lat="42.359907435676455" lon="14.066372858127922"><ele>131.0</ele><time>2026-05-02T07:12:57.999Z</time></trkpt><trkpt lat="42.35982978594786" lon="14.066232244893222"><ele>131.0</ele><time>2026-05-02T07:12:58.999Z</time></trkpt><trkpt lat="42.3597526839849" lon="14.066073277159337"><ele>131.0</ele><time>2026-05-02T07:12:59.999Z</time></trkpt><trkpt lat="42.35968631850287" lon="14.065892126366293"><ele>128.66666666666666</ele><time>2026-05-02T07:13:00.999Z</time></trkpt><trkpt lat="42.35959192467193" lon="14.065717750644406"><ele>126.33333333333334</ele><time>2026-05-02T07:13:01.999Z</time></trkpt><trkpt lat="42.35949406593809" lon="14.065557181850457"><ele>124.0</ele><time>2026-05-02T07:13:02.999Z</time></trkpt><trkpt lat="42.35940677159654" lon="14.06540190528906"><ele>124.0</ele><time>2026-05-02T07:13:03.999Z</time></trkpt><trkpt lat="42.35930699158564" lon="14.065259088980731"><ele>124.0</ele><time>2026-05-02T07:13:04.999Z</time></trkpt><trkpt lat="42.35919040980665" lon="14.065134551406699"><ele>124.0</ele><time>2026-05-02T07:13:05.999Z</time></trkpt><trkpt lat="42.3590731539875" lon="14.065033914437635"><ele>124.0</ele><time>2026-05-02T07:13:06.999Z</time></trkpt><trkpt lat="42.35896314608966" lon="14.064900599576298"><ele>123.5</ele><time>2026-05-02T07:13:07.999Z</time></trkpt><trkpt lat="42.35887485016311" lon="14.0647454751675"><ele>123.0</ele><time>2026-05-02T07:13:08.999Z</time></trkpt><trkpt lat="42.358795280623795" lon="14.064585756696337"><ele>122.5</ele><time>2026-05-02T07:13:09.999Z</time></trkpt><trkpt lat="42.3587079371265" lon="14.064429869304233"><ele>122.0</ele><time>2026-05-02T07:13:10.999Z</time></trkpt><trkpt lat="42.35861536225365" lon="14.064286083059853"><ele>121.5</ele><time>2026-05-02T07:13:11.999Z</time></trkpt><trkpt lat="42.358492755669495" lon="14.064191243044299"><ele>121.0</ele><time>2026-05-02T07:13:12.999Z</time></trkpt><trkpt lat="42.358347902284756" lon="14.064123631841573"><ele>120.5</ele><time>2026-05-02T07:13:13.999Z</time></trkpt><trkpt lat="42.35832719888899" lon="14.063943588092885"><ele>120.0</ele><time>2026-05-02T07:13:14.999Z</time></trkpt><trkpt lat="42.35819237269661" lon="14.063917985144634"><ele>117.25</ele><time>2026-05-02T07:13:15.999Z</time></trkpt><trkpt lat="42.35804763227174" lon="14.06393220649925"><ele>114.5</ele><time>2026-05-02T07:13:16.999Z</time></trkpt><trkpt lat="42.357903924833124" lon="14.063983178540004"><ele>111.75</ele><time>2026-05-02T07:13:17.999Z</time></trkpt><trkpt lat="42.357768891620495" lon="14.064020229958475"><ele>109.0</ele><time>2026-05-02T07:13:18.999Z</time></trkpt><trkpt lat="42.357644594962885" lon="14.064004036916664"><ele>108.0</ele><time>2026-05-02T07:13:19.999Z</time></trkpt><trkpt lat="42.357536248790154" lon="14.063927680838402"><ele>107.0</ele><time>2026-05-02T07:13:20.999Z</time></trkpt><trkpt lat="42.35742778677378" lon="14.06381053576801"><ele>106.0</ele><time>2026-05-02T07:13:21.999Z</time></trkpt><trkpt lat="42.35731006412318" lon="14.063706581081997"><ele>105.0</ele><time>2026-05-02T07:13:22.999Z</time></trkpt><trkpt lat="42.35717712745752" lon="14.06362973417597"><ele>103.75</ele><time>2026-05-02T07:13:23.999Z</time></trkpt><trkpt lat="42.35704455840046" lon="14.063577993317466"><ele>102.5</ele><time>2026-05-02T07:13:24.999Z</time></trkpt><trkpt lat="42.35691363638411" lon="14.063541782124569"><ele>101.25</ele><time>2026-05-02T07:13:25.999Z</time></trkpt><trkpt lat="42.356783753153145" lon="14.063529394851592"><ele>100.0</ele><time>2026-05-02T07:13:26.999Z</time></trkpt><trkpt lat="42.35665206032535" lon="14.063546551192632"><ele>100.0</ele><time>2026-05-02T07:13:27.999Z</time></trkpt><trkpt lat="42.35652302907412" lon="14.063587470311804"><ele>100.0</ele><time>2026-05-02T07:13:28.999Z</time></trkpt><trkpt lat="42.35639272507685" lon="14.063654911689635"><ele>100.0</ele><time>2026-05-02T07:13:29.999Z</time></trkpt><trkpt lat="42.356265735344714" lon="14.06373566799935"><ele>100.0</ele><time>2026-05-02T07:13:30.999Z</time></trkpt><trkpt lat="42.35616335547054" lon="14.063816594194657"><ele>98.4</ele><time>2026-05-02T07:13:31.998Z</time></trkpt><trkpt lat="42.356061768150894" lon="14.063881877348331"><ele>96.8</ele><time>2026-05-02T07:13:32.998Z</time></trkpt><trkpt lat="42.35596239708529" lon="14.063912197296395"><ele>95.19999999999999</ele><time>2026-05-02T07:13:33.998Z</time></trkpt><trkpt lat="42.35584780028137" lon="14.063898233771877"><ele>93.6</ele><time>2026-05-02T07:13:34.998Z</time></trkpt><trkpt lat="42.3557404987286" lon="14.063835778537555"><ele>92.0</ele><time>2026-05-02T07:13:35.998Z</time></trkpt><trkpt lat="42.35564963711649" lon="14.063727435411325"><ele>92.0</ele><time>2026-05-02T07:13:36.998Z</time></trkpt><trkpt lat="42.355587595630986" lon="14.063585050873264"><ele>92.0</ele><time>2026-05-02T07:13:37.998Z</time></trkpt><trkpt lat="42.355545767141344" lon="14.063418932462566"><ele>92.0</ele><time>2026-05-02T07:13:38.998Z</time></trkpt><trkpt lat="42.35551451897708" lon="14.063230108541434"><ele>92.0</ele><time>2026-05-02T07:13:39.998Z</time></trkpt><trkpt lat="42.35547068722999" lon="14.063037922100891"><ele>91.5</ele><time>2026-05-02T07:13:40.998Z</time></trkpt><trkpt lat="42.35541093170049" lon="14.062855610486574"><ele>91.0</ele><time>2026-05-02T07:13:41.998Z</time></trkpt><trkpt lat="42.35533650683159" lon="14.062685928356224"><ele>90.5</ele><time>2026-05-02T07:13:42.998Z</time></trkpt><trkpt lat="42.35525130947486" lon="14.062535018459965"><ele>90.0</ele><time>2026-05-02T07:13:43.998Z</time></trkpt><trkpt lat="42.35515460860403" lon="14.062391256589727"><ele>90.0</ele><time>2026-05-02T07:13:44.998Z</time></trkpt><trkpt lat="42.35505911236596" lon="14.062254710136065"><ele>90.0</ele><time>2026-05-02T07:13:45.998Z</time></trkpt><trkpt lat="42.35496987588535" lon="14.062118621422009"><ele>90.0</ele><time>2026-05-02T07:13:46.998Z</time></trkpt><trkpt lat="42.35487654578731" lon="14.061985509976154"><ele>90.0</ele><time>2026-05-02T07:13:48Z</time></trkpt><trkpt lat="42.354774340193934" lon="14.06183857974916"><ele>89.0</ele><time>2026-05-02T07:13:49Z</time></trkpt><trkpt lat="42.35467070787182" lon="14.06167283534419"><ele>88.0</ele><time>2026-05-02T07:13:50Z</time></trkpt><trkpt lat="42.35457171354066" lon="14.061507355195708"><ele>87.0</ele><time>2026-05-02T07:13:51Z</time></trkpt><trkpt lat="42.35447690042936" lon="14.061343260086765"><ele>89.33333333333333</ele><time>2026-05-02T07:13:52Z</time></trkpt><trkpt lat="42.354375183415044" lon="14.061184774245975"><ele>91.66666666666666</ele><time>2026-05-02T07:13:53Z</time></trkpt><trkpt lat="42.354277328198734" lon="14.061017927990333"><ele>94.0</ele><time>2026-05-02T07:13:54Z</time></trkpt><trkpt lat="42.35418785379319" lon="14.060847849973332"><ele>93.5</ele><time>2026-05-02T07:13:55Z</time></trkpt><trkpt lat="42.35409266085925" lon="14.060688081895204"><ele>93.0</ele><time>2026-05-02T07:13:56Z</time></trkpt><trkpt lat="42.35399896566231" lon="14.060530193724071"><ele>92.5</ele><time>2026-05-02T07:13:57Z</time></trkpt><trkpt lat="42.35390903701848" lon="14.060372242342313"><ele>92.0</ele><time>2026-05-02T07:13:58Z</time></trkpt><trkpt lat="42.353815867068185" lon="14.060215730778838"><ele>92.0</ele><time>2026-05-02T07:13:59Z</time></trkpt><trkpt lat="42.35372948479898" lon="14.060060843525957"><ele>92.0</ele><time>2026-05-02T07:14:00Z</time></trkpt><trkpt lat="42.353638710844024" lon="14.059898799261674"><ele>92.0</ele><time>2026-05-02T07:14:01Z</time></trkpt><trkpt lat="42.353553318185476" lon="14.05973230209382"><ele>92.0</ele><time>2026-05-02T07:14:02Z</time></trkpt><trkpt lat="42.353486134942884" lon="14.059563906249394"><ele>92.25</ele><time>2026-05-02T07:14:03Z</time></trkpt><trkpt lat="42.353442705353295" lon="14.059390854339002"><ele>92.5</ele><time>2026-05-02T07:14:04Z</time></trkpt><trkpt lat="42.35344944582662" lon="14.05922917594029"><ele>92.75</ele><time>2026-05-02T07:14:05Z</time></trkpt><trkpt lat="42.35345154720197" lon="14.059039808003247"><ele>93.0</ele><time>2026-05-02T07:14:06Z</time></trkpt><trkpt lat="42.35343702950309" lon="14.05883047780528"><ele>93.0</ele><time>2026-05-02T07:14:07Z</time></trkpt><trkpt lat="42.35339857983699" lon="14.058599994550535"><ele>93.0</ele><time>2026-05-02T07:14:08Z</time></trkpt><trkpt lat="42.353371792533025" lon="14.0583858463378"><ele>93.0</ele><time>2026-05-02T07:14:09Z</time></trkpt><trkpt lat="42.35333040382202" lon="14.058168567848087"><ele>92.75</ele><time>2026-05-02T07:14:10Z</time></trkpt><trkpt lat="42.35328969144778" lon="14.057930829832973"><ele>92.5</ele><time>2026-05-02T07:14:11Z</time></trkpt><trkpt lat="42.353307993694884" lon="14.05780861696368"><ele>92.25</ele><time>2026-05-02T07:14:12Z</time></trkpt><trkpt lat="42.35328630807583" lon="14.057597008913682"><ele>92.0</ele><time>2026-05-02T07:14:13Z</time></trkpt><trkpt lat="42.35326148349784" lon="14.05738340327112"><ele>91.33333333333334</ele><time>2026-05-02T07:14:14Z</time></trkpt><trkpt lat="42.35323245265286" lon="14.05716444297661"><ele>90.66666666666667</ele><time>2026-05-02T07:14:15Z</time></trkpt><trkpt lat="42.35320722819447" lon="14.056938881347092"><ele>90.0</ele><time>2026-05-02T07:14:16Z</time></trkpt><trkpt lat="42.35318383103328" lon="14.056713030034578"><ele>89.66666666666667</ele><time>2026-05-02T07:14:17Z</time></trkpt><trkpt lat="42.35315832170227" lon="14.056483111976792"><ele>89.33333333333334</ele><time>2026-05-02T07:14:18Z</time></trkpt><trkpt lat="42.353136794923444" lon="14.056251278926108"><ele>89.0</ele><time>2026-05-02T07:14:19Z</time></trkpt><trkpt lat="42.35311454353569" lon="14.056027497148113"><ele>89.0</ele><time>2026-05-02T07:14:20Z</time></trkpt><trkpt lat="42.353089922549174" lon="14.05580482045462"><ele>89.0</ele><time>2026-05-02T07:14:21Z</time></trkpt><trkpt lat="42.353071584098444" lon="14.055594823729892"><ele>89.0</ele><time>2026-05-02T07:14:22Z</time></trkpt><trkpt lat="42.353052069230785" lon="14.05539408303151"><ele>89.5</ele><time>2026-05-02T07:14:23Z</time></trkpt><trkpt lat="42.353034020452945" lon="14.055210947115645"><ele>90.0</ele><time>2026-05-02T07:14:23.999Z</time></trkpt><trkpt lat="42.35301518171999" lon="14.055052483984868"><ele>90.5</ele><time>2026-05-02T07:14:24.999Z</time></trkpt><trkpt lat="42.35300038335927" lon="14.05489750203974"><ele>91.0</ele><time>2026-05-02T07:14:25.999Z</time></trkpt><trkpt lat="42.35299876130418" lon="14.054748501936738"><ele>91.19999999999999</ele><time>2026-05-02T07:14:26.999Z</time></trkpt><trkpt lat="42.353013771660194" lon="14.054590740372335"><ele>91.39999999999999</ele><time>2026-05-02T07:14:27.999Z</time></trkpt><trkpt lat="42.35303132344773" lon="14.054435822080261"><ele>91.6</ele><time>2026-05-02T07:14:28.999Z</time></trkpt><trkpt lat="42.353056809117234" lon="14.054299414176132"><ele>91.8</ele><time>2026-05-02T07:14:29.999Z</time></trkpt><trkpt lat="42.353081875539786" lon="14.054152759184317"><ele>92.0</ele><time>2026-05-02T07:14:30.999Z</time></trkpt><trkpt lat="42.35311209849147" lon="14.053996090172665"><ele>94.0</ele><time>2026-05-02T07:14:31.999Z</time></trkpt><trkpt lat="42.353145219315856" lon="14.05383982739595"><ele>96.0</ele><time>2026-05-02T07:14:32.999Z</time></trkpt><trkpt lat="42.35317104116359" lon="14.053703389407456"><ele>98.0</ele><time>2026-05-02T07:14:33.999Z</time></trkpt><trkpt lat="42.353187232231384" lon="14.05358902956847"><ele>100.0</ele><time>2026-05-02T07:14:34.999Z</time></trkpt><trkpt lat="42.35317672799976" lon="14.053440715527472"><ele>102.0</ele><time>2026-05-02T07:14:36.999Z</time></trkpt><trkpt lat="42.353116005579935" lon="14.053291218463494"><ele>102.0</ele><time>2026-05-02T07:14:38.999Z</time></trkpt><trkpt lat="42.35307235210958" lon="14.053185052248434"><ele>102.0</ele><time>2026-05-02T07:14:40.999Z</time></trkpt><trkpt lat="42.35302992757261" lon="14.053102711555184"><ele>102.0</ele><time>2026-05-02T07:14:44.999Z</time></trkpt><trkpt lat="42.35297633852325" lon="14.053013010753586"><ele>102.0</ele><time>2026-05-02T07:14:46.999Z</time></trkpt><trkpt lat="42.35293353500405" lon="14.052914343140063"><ele>102.0</ele><time>2026-05-02T07:14:49.999Z</time></trkpt><trkpt lat="42.35290521628759" lon="14.052818599228164"><ele>102.0</ele><time>2026-05-02T07:14:51.999Z</time></trkpt><trkpt lat="42.35286621613076" lon="14.052677439841549"><ele>102.0</ele><time>2026-05-02T07:14:53.999Z</time></trkpt><trkpt lat="42.3528573317535" lon="14.052574485374908"><ele>102.0</ele><time>2026-05-02T07:14:55.999Z</time></trkpt><trkpt lat="42.352851446490504" lon="14.052416197214999"><ele>102.0</ele><time>2026-05-02T07:14:57.999Z</time></trkpt><trkpt lat="42.35285501917186" lon="14.052291590800552"><ele>102.0</ele><time>2026-05-02T07:14:58.999Z</time></trkpt><trkpt lat="42.35288448783887" lon="14.052174713916568"><ele>102.0</ele><time>2026-05-02T07:14:59.999Z</time></trkpt><trkpt lat="42.35290515397769" lon="14.052081373872879"><ele>102.0</ele><time>2026-05-02T07:15:00.999Z</time></trkpt><trkpt lat="42.352928992302814" lon="14.051991758429038"><ele>103.25</ele><time>2026-05-02T07:15:01.999Z</time></trkpt><trkpt lat="42.35296494560786" lon="14.051866802963872"><ele>104.5</ele><time>2026-05-02T07:15:02.999Z</time></trkpt><trkpt lat="42.35300656115745" lon="14.051704416246457"><ele>105.75</ele><time>2026-05-02T07:15:03.999Z</time></trkpt><trkpt lat="42.3530472073588" lon="14.051528772817951"><ele>107.0</ele><time>2026-05-02T07:15:04.999Z</time></trkpt><trkpt lat="42.3530770865083" lon="14.051317462022329"><ele>108.33333333333333</ele><time>2026-05-02T07:15:05.999Z</time></trkpt><trkpt lat="42.353087314691294" lon="14.051104208374403"><ele>109.66666666666666</ele><time>2026-05-02T07:15:06.999Z</time></trkpt><trkpt lat="42.3530962950189" lon="14.05088452910127"><ele>111.0</ele><time>2026-05-02T07:15:07.999Z</time></trkpt><trkpt lat="42.35312531221673" lon="14.050679725429841"><ele>111.66666666666666</ele><time>2026-05-02T07:15:08.999Z</time></trkpt><trkpt lat="42.35316502243787" lon="14.05047751004563"><ele>112.33333333333333</ele><time>2026-05-02T07:15:09.999Z</time></trkpt><trkpt lat="42.353203232330934" lon="14.05027771981411"><ele>113.0</ele><time>2026-05-02T07:15:10.999Z</time></trkpt><trkpt lat="42.353218937561124" lon="14.050071930861158"><ele>114.66666666666666</ele><time>2026-05-02T07:15:11.999Z</time></trkpt><trkpt lat="42.35321620111329" lon="14.049865445344324"><ele>116.33333333333334</ele><time>2026-05-02T07:15:12.999Z</time></trkpt><trkpt lat="42.353180308359484" lon="14.049648603326244"><ele>118.0</ele><time>2026-05-02T07:15:13.999Z</time></trkpt><trkpt lat="42.35314001477092" lon="14.049415552184286"><ele>118.0</ele><time>2026-05-02T07:15:14.999Z</time></trkpt><trkpt lat="42.35313519980298" lon="14.049154951892637"><ele>118.0</ele><time>2026-05-02T07:15:15.999Z</time></trkpt><trkpt lat="42.35316588476727" lon="14.048859483072405"><ele>118.0</ele><time>2026-05-02T07:15:16.999Z</time></trkpt><trkpt lat="42.35308190058396" lon="14.048778221439772"><ele>118.33333333333334</ele><time>2026-05-02T07:15:17.999Z</time></trkpt><trkpt lat="42.353083159459494" lon="14.048566940201754"><ele>118.66666666666666</ele><time>2026-05-02T07:15:18.999Z</time></trkpt><trkpt lat="42.35305088232985" lon="14.048354972207154"><ele>119.0</ele><time>2026-05-02T07:15:19.999Z</time></trkpt><trkpt lat="42.3529894303651" lon="14.048160094440457"><ele>119.0</ele><time>2026-05-02T07:15:20.999Z</time></trkpt><trkpt lat="42.352944220487295" lon="14.047979484378724"><ele>119.0</ele><time>2026-05-02T07:15:21.999Z</time></trkpt><trkpt lat="42.35293810001156" lon="14.047805621730037"><ele>119.0</ele><time>2026-05-02T07:15:22.999Z</time></trkpt><trkpt lat="42.35298318254641" lon="14.047639985279552"><ele>119.0</ele><time>2026-05-02T07:15:23.999Z</time></trkpt><trkpt lat="42.35306950835885" lon="14.047494117394903"><ele>119.0</ele><time>2026-05-02T07:15:24.999Z</time></trkpt><trkpt lat="42.353170944969406" lon="14.047352534538042"><ele>119.0</ele><time>2026-05-02T07:15:25.999Z</time></trkpt><trkpt lat="42.35326615965245" lon="14.04718297690138"><ele>119.0</ele><time>2026-05-02T07:15:26.999Z</time></trkpt><trkpt lat="42.35334670566687" lon="14.046994127382748"><ele>119.0</ele><time>2026-05-02T07:15:27.999Z</time></trkpt><trkpt lat="42.353414192183884" lon="14.046792623046683"><ele>119.0</ele><time>2026-05-02T07:15:28.999Z</time></trkpt><trkpt lat="42.35348199755914" lon="14.046588207863737"><ele>119.0</ele><time>2026-05-02T07:15:29.999Z</time></trkpt><trkpt lat="42.3535425564526" lon="14.046386548169847"><ele>119.33333333333333</ele><time>2026-05-02T07:15:30.999Z</time></trkpt><trkpt lat="42.35358688363484" lon="14.046162609646238"><ele>119.66666666666666</ele><time>2026-05-02T07:15:31.999Z</time></trkpt><trkpt lat="42.35361433331519" lon="14.04594263942438"><ele>120.0</ele><time>2026-05-02T07:15:32.999Z</time></trkpt><trkpt lat="42.3536325854312" lon="14.04572190625061"><ele>120.0</ele><time>2026-05-02T07:15:33.999Z</time></trkpt><trkpt lat="42.3536456314373" lon="14.045496402542721"><ele>120.0</ele><time>2026-05-02T07:15:34.998Z</time></trkpt><trkpt lat="42.35364819619329" lon="14.045278416776043"><ele>120.0</ele><time>2026-05-02T07:15:35.998Z</time></trkpt><trkpt lat="42.3536372336136" lon="14.045065630789628"><ele>121.66666666666666</ele><time>2026-05-02T07:15:36.998Z</time></trkpt><trkpt lat="42.3536240450731" lon="14.044860317299252"><ele>123.33333333333333</ele><time>2026-05-02T07:15:37.998Z</time></trkpt><trkpt lat="42.353607485873525" lon="14.04465497254545"><ele>125.0</ele><time>2026-05-02T07:15:38.998Z</time></trkpt><trkpt lat="42.35359104718386" lon="14.044452236720591"><ele>125.0</ele><time>2026-05-02T07:15:39.998Z</time></trkpt><trkpt lat="42.35359811610256" lon="14.044252332399127"><ele>125.0</ele><time>2026-05-02T07:15:40.998Z</time></trkpt><trkpt lat="42.353635012946" lon="14.044047111133795"><ele>125.0</ele><time>2026-05-02T07:15:41.998Z</time></trkpt><trkpt lat="42.353685828848405" lon="14.043848171512144"><ele>126.33333333333333</ele><time>2026-05-02T07:15:42.998Z</time></trkpt><trkpt lat="42.35374019985915" lon="14.043649092460262"><ele>127.66666666666666</ele><time>2026-05-02T07:15:43.998Z</time></trkpt><trkpt lat="42.35379745823994" lon="14.043456675923965"><ele>129.0</ele><time>2026-05-02T07:15:44.998Z</time></trkpt><trkpt lat="42.353851331167164" lon="14.04325316979288"><ele>130.0</ele><time>2026-05-02T07:15:45.998Z</time></trkpt><trkpt lat="42.35390019609324" lon="14.043052243260506"><ele>131.0</ele><time>2026-05-02T07:15:46.998Z</time></trkpt><trkpt lat="42.35394564962675" lon="14.042841262667633"><ele>132.0</ele><time>2026-05-02T07:15:47.998Z</time></trkpt><trkpt lat="42.35399088842421" lon="14.042623556045688"><ele>132.0</ele><time>2026-05-02T07:15:48.998Z</time></trkpt><trkpt lat="42.354028420101585" lon="14.04239271029149"><ele>132.0</ele><time>2026-05-02T07:15:49.998Z</time></trkpt><trkpt lat="42.35406420085928" lon="14.042153697151935"><ele>132.0</ele><time>2026-05-02T07:15:50.998Z</time></trkpt><trkpt lat="42.354102173793684" lon="14.041913152434566"><ele>132.0</ele><time>2026-05-02T07:15:51.998Z</time></trkpt><trkpt lat="42.354144806817395" lon="14.041681708606884"><ele>132.0</ele><time>2026-05-02T07:15:53Z</time></trkpt><trkpt lat="42.354180435937536" lon="14.041449218627855"><ele>132.0</ele><time>2026-05-02T07:15:54Z</time></trkpt><trkpt lat="42.35420945536826" lon="14.041238571690862"><ele>133.0</ele><time>2026-05-02T07:15:55Z</time></trkpt><trkpt lat="42.35424831619978" lon="14.041025989565206"><ele>134.0</ele><time>2026-05-02T07:15:56Z</time></trkpt><trkpt lat="42.35427848736622" lon="14.040831760896706"><ele>135.0</ele><time>2026-05-02T07:15:57Z</time></trkpt><trkpt lat="42.35431009196889" lon="14.040639108595865"><ele>136.25</ele><time>2026-05-02T07:15:58Z</time></trkpt><trkpt lat="42.35434585713891" lon="14.040453943712272"><ele>137.5</ele><time>2026-05-02T07:15:59Z</time></trkpt><trkpt lat="42.354374625857254" lon="14.0402831847247"><ele>138.75</ele><time>2026-05-02T07:16:00Z</time></trkpt><trkpt lat="42.3544039499299" lon="14.040118752558394"><ele>140.0</ele><time>2026-05-02T07:16:01Z</time></trkpt><trkpt lat="42.354431688219506" lon="14.039957373148408"><ele>140.25</ele><time>2026-05-02T07:16:02Z</time></trkpt><trkpt lat="42.35445916772065" lon="14.039796379757732"><ele>140.5</ele><time>2026-05-02T07:16:03Z</time></trkpt><trkpt lat="42.35448661599826" lon="14.03962787183458"><ele>140.75</ele><time>2026-05-02T07:16:04Z</time></trkpt><trkpt lat="42.354510754767965" lon="14.039458694696501"><ele>141.0</ele><time>2026-05-02T07:16:05Z</time></trkpt><trkpt lat="42.354539154310515" lon="14.039290991024162"><ele>140.25</ele><time>2026-05-02T07:16:06Z</time></trkpt><trkpt lat="42.35456703143183" lon="14.039124422610863"><ele>139.5</ele><time>2026-05-02T07:16:07Z</time></trkpt><trkpt lat="42.35459299534741" lon="14.038958394895042"><ele>138.75</ele><time>2026-05-02T07:16:08Z</time></trkpt><trkpt lat="42.35461838758427" lon="14.038790599222633"><ele>138.0</ele><time>2026-05-02T07:16:09Z</time></trkpt><trkpt lat="42.354641811696226" lon="14.038619540741823"><ele>138.0</ele><time>2026-05-02T07:16:10Z</time></trkpt><trkpt lat="42.35467301935103" lon="14.03844806086589"><ele>138.0</ele><time>2026-05-02T07:16:11Z</time></trkpt><trkpt lat="42.354703251122324" lon="14.038273993107278"><ele>138.0</ele><time>2026-05-02T07:16:12Z</time></trkpt><trkpt lat="42.354729283308" lon="14.038091266081757"><ele>138.0</ele><time>2026-05-02T07:16:13Z</time></trkpt><trkpt lat="42.35475859888267" lon="14.037903165169247"><ele>136.75</ele><time>2026-05-02T07:16:14Z</time></trkpt><trkpt lat="42.354787461704106" lon="14.03771097764734"><ele>135.5</ele><time>2026-05-02T07:16:15Z</time></trkpt><trkpt lat="42.354819025475486" lon="14.037516143662064"><ele>134.25</ele><time>2026-05-02T07:16:16Z</time></trkpt><trkpt lat="42.35484758103287" lon="14.037318676246835"><ele>133.0</ele><time>2026-05-02T07:16:17Z</time></trkpt><trkpt lat="42.354866496960206" lon="14.037114456900392"><ele>133.0</ele><time>2026-05-02T07:16:18Z</time></trkpt><trkpt lat="42.35488206906655" lon="14.0369178994204"><ele>133.0</ele><time>2026-05-02T07:16:19Z</time></trkpt><trkpt lat="42.35488656431655" lon="14.036716966058092"><ele>133.0</ele><time>2026-05-02T07:16:20Z</time></trkpt><trkpt lat="42.35488496689851" lon="14.036517061750203"><ele>133.0</ele><time>2026-05-02T07:16:21Z</time></trkpt><trkpt lat="42.35488322710209" lon="14.03630797871416"><ele>133.33333333333334</ele><time>2026-05-02T07:16:22Z</time></trkpt><trkpt lat="42.35488026219864" lon="14.036100289672842"><ele>133.66666666666666</ele><time>2026-05-02T07:16:23Z</time></trkpt><trkpt lat="42.3548813791681" lon="14.035892553758401"><ele>134.0</ele><time>2026-05-02T07:16:24Z</time></trkpt><trkpt lat="42.35488056730412" lon="14.035686675460546"><ele>134.75</ele><time>2026-05-02T07:16:25Z</time></trkpt><trkpt lat="42.354876610711514" lon="14.03547536457859"><ele>135.5</ele><time>2026-05-02T07:16:26Z</time></trkpt><trkpt lat="42.354866740739666" lon="14.035269978042473"><ele>136.25</ele><time>2026-05-02T07:16:26.999Z</time></trkpt><trkpt lat="42.35486624929851" lon="14.035082470040042"><ele>137.0</ele><time>2026-05-02T07:16:27.999Z</time></trkpt><trkpt lat="42.354866982834146" lon="14.034903065031264"><ele>137.25</ele><time>2026-05-02T07:16:28.999Z</time></trkpt><trkpt lat="42.35486692391665" lon="14.034724295663615"><ele>137.5</ele><time>2026-05-02T07:16:29.999Z</time></trkpt><trkpt lat="42.3548675709236" lon="14.034535243033144"><ele>137.75</ele><time>2026-05-02T07:16:30.999Z</time></trkpt><trkpt lat="42.35486505133443" lon="14.034342740179513"><ele>138.0</ele><time>2026-05-02T07:16:31.999Z</time></trkpt><trkpt lat="42.35486491802864" lon="14.03415813370327"><ele>138.0</ele><time>2026-05-02T07:16:32.999Z</time></trkpt><trkpt lat="42.35486142394606" lon="14.033986534859054"><ele>138.0</ele><time>2026-05-02T07:16:33.999Z</time></trkpt><trkpt lat="42.35485971229829" lon="14.03382662661579"><ele>138.0</ele><time>2026-05-02T07:16:34.999Z</time></trkpt><trkpt lat="42.35485818568646" lon="14.033669956381203"><ele>138.0</ele><time>2026-05-02T07:16:35.999Z</time></trkpt><trkpt lat="42.354854379731115" lon="14.033524487210464"><ele>138.0</ele><time>2026-05-02T07:16:36.999Z</time></trkpt><trkpt lat="42.35485172091948" lon="14.03338318085652"><ele>138.0</ele><time>2026-05-02T07:16:37.999Z</time></trkpt><trkpt lat="42.354849707168974" lon="14.033243221818552"><ele>138.0</ele><time>2026-05-02T07:16:38.999Z</time></trkpt><trkpt lat="42.354848239987305" lon="14.033090185358631"><ele>138.0</ele><time>2026-05-02T07:16:39.999Z</time></trkpt><trkpt lat="42.35484845342265" lon="14.032930326798095"><ele>138.0</ele><time>2026-05-02T07:16:40.999Z</time></trkpt><trkpt lat="42.35484563089274" lon="14.032764244022731"><ele>138.25</ele><time>2026-05-02T07:16:41.999Z</time></trkpt><trkpt lat="42.35484107767376" lon="14.032594098731995"><ele>138.5</ele><time>2026-05-02T07:16:42.999Z</time></trkpt><trkpt lat="42.35484260085386" lon="14.032418945767716"><ele>138.75</ele><time>2026-05-02T07:16:43.999Z</time></trkpt><trkpt lat="42.354834744138884" lon="14.032244347447682"><ele>139.0</ele><time>2026-05-02T07:16:44.999Z</time></trkpt><trkpt lat="42.35483664348418" lon="14.032074707052763"><ele>139.0</ele><time>2026-05-02T07:16:45.999Z</time></trkpt><trkpt lat="42.35483413224064" lon="14.031911446564271"><ele>139.0</ele><time>2026-05-02T07:16:46.999Z</time></trkpt><trkpt lat="42.354831483634186" lon="14.03175378038613"><ele>139.0</ele><time>2026-05-02T07:16:47.999Z</time></trkpt><trkpt lat="42.35482939994915" lon="14.031612472771048"><ele>139.0</ele><time>2026-05-02T07:16:48.999Z</time></trkpt><trkpt lat="42.35482734468568" lon="14.031483294780264"><ele>139.0</ele><time>2026-05-02T07:16:49.999Z</time></trkpt><trkpt lat="42.354826589834495" lon="14.031362492359678"><ele>139.0</ele><time>2026-05-02T07:16:50.999Z</time></trkpt><trkpt lat="42.35482618297182" lon="14.031248691126693"><ele>139.0</ele><time>2026-05-02T07:16:51.999Z</time></trkpt><trkpt lat="42.35482512346662" lon="14.031139119807918"><ele>139.0</ele><time>2026-05-02T07:16:52.999Z</time></trkpt><trkpt lat="42.35482594288058" lon="14.031032394898471"><ele>139.0</ele><time>2026-05-02T07:16:53.999Z</time></trkpt><trkpt lat="42.354824203786535" lon="14.030922990909003"><ele>139.0</ele><time>2026-05-02T07:16:54.999Z</time></trkpt><trkpt lat="42.354825865747976" lon="14.030810678375675"><ele>139.0</ele><time>2026-05-02T07:16:55.999Z</time></trkpt><trkpt lat="42.354823713656685" lon="14.030693211503637"><ele>139.4</ele><time>2026-05-02T07:16:56.999Z</time></trkpt><trkpt lat="42.354818769779435" lon="14.030560035356242"><ele>139.8</ele><time>2026-05-02T07:16:57.999Z</time></trkpt><trkpt lat="42.354817134690165" lon="14.030419733978036"><ele>140.2</ele><time>2026-05-02T07:16:58.999Z</time></trkpt><trkpt lat="42.35481948294326" lon="14.030265821861304"><ele>140.6</ele><time>2026-05-02T07:16:59.999Z</time></trkpt><trkpt lat="42.35481783291382" lon="14.030104708533571"><ele>141.0</ele><time>2026-05-02T07:17:00.999Z</time></trkpt><trkpt lat="42.35481438460078" lon="14.029944635454754"><ele>142.0</ele><time>2026-05-02T07:17:01.999Z</time></trkpt><trkpt lat="42.35481392745455" lon="14.029789113435932"><ele>143.0</ele><time>2026-05-02T07:17:02.999Z</time></trkpt><trkpt lat="42.354812147933536" lon="14.02964063193738"><ele>144.0</ele><time>2026-05-02T07:17:03.999Z</time></trkpt><trkpt lat="42.35481343428971" lon="14.029483946705813"><ele>145.0</ele><time>2026-05-02T07:17:04.999Z</time></trkpt><trkpt lat="42.35481193608204" lon="14.029322410903418"><ele>145.0</ele><time>2026-05-02T07:17:05.999Z</time></trkpt><trkpt lat="42.35480926502953" lon="14.029157069203162"><ele>145.0</ele><time>2026-05-02T07:17:06.999Z</time></trkpt><trkpt lat="42.354812511885285" lon="14.028983552296161"><ele>145.0</ele><time>2026-05-02T07:17:07.999Z</time></trkpt><trkpt lat="42.35480369644297" lon="14.028810806130938"><ele>145.0</ele><time>2026-05-02T07:17:08.999Z</time></trkpt><trkpt lat="42.35479791336464" lon="14.028638612836522"><ele>145.0</ele><time>2026-05-02T07:17:09.999Z</time></trkpt><trkpt lat="42.35480085949089" lon="14.02846147258854"><ele>145.0</ele><time>2026-05-02T07:17:10.999Z</time></trkpt><trkpt lat="42.35480319882621" lon="14.028278686754506"><ele>145.0</ele><time>2026-05-02T07:17:11.999Z</time></trkpt><trkpt lat="42.35480122831019" lon="14.028097375571502"><ele>145.0</ele><time>2026-05-02T07:17:12.999Z</time></trkpt><trkpt lat="42.35479625830324" lon="14.027914364789767"><ele>145.0</ele><time>2026-05-02T07:17:13.999Z</time></trkpt><trkpt lat="42.35479467730326" lon="14.027731637366278"><ele>145.0</ele><time>2026-05-02T07:17:14.999Z</time></trkpt><trkpt lat="42.35479433802617" lon="14.027556487423725"><ele>145.0</ele><time>2026-05-02T07:17:15.999Z</time></trkpt><trkpt lat="42.35479878408315" lon="14.027391293451583"><ele>145.0</ele><time>2026-05-02T07:17:16.999Z</time></trkpt><trkpt lat="42.35479029939534" lon="14.027228252740398"><ele>145.5</ele><time>2026-05-02T07:17:17.999Z</time></trkpt><trkpt lat="42.35478874964425" lon="14.027070151645"><ele>146.0</ele><time>2026-05-02T07:17:18.999Z</time></trkpt><trkpt lat="42.35479106955865" lon="14.026908815941017"><ele>146.5</ele><time>2026-05-02T07:17:19.999Z</time></trkpt><trkpt lat="42.35479239688627" lon="14.02674120469483"><ele>147.0</ele><time>2026-05-02T07:17:20.999Z</time></trkpt><trkpt lat="42.35478819227065" lon="14.026573839156539"><ele>147.0</ele><time>2026-05-02T07:17:21.999Z</time></trkpt><trkpt lat="42.35478497974897" lon="14.026400867626696"><ele>147.0</ele><time>2026-05-02T07:17:22.999Z</time></trkpt><trkpt lat="42.35478773582758" lon="14.02624003446674"><ele>147.0</ele><time>2026-05-02T07:17:23.999Z</time></trkpt><trkpt lat="42.354785199233035" lon="14.026061631409789"><ele>147.0</ele><time>2026-05-02T07:17:24.999Z</time></trkpt><trkpt lat="42.354781706923724" lon="14.025881907502846"><ele>147.5</ele><time>2026-05-02T07:17:25.999Z</time></trkpt><trkpt lat="42.35477725379851" lon="14.025698986975412"><ele>148.0</ele><time>2026-05-02T07:17:26.999Z</time></trkpt><trkpt lat="42.35477560761414" lon="14.025510685625756"><ele>148.5</ele><time>2026-05-02T07:17:27.999Z</time></trkpt><trkpt lat="42.354775908071474" lon="14.02532145299427"><ele>149.0</ele><time>2026-05-02T07:17:28.999Z</time></trkpt><trkpt lat="42.35478011421941" lon="14.02512258917322"><ele>149.25</ele><time>2026-05-02T07:17:29.999Z</time></trkpt><trkpt lat="42.35478949981158" lon="14.024911929477794"><ele>149.5</ele><time>2026-05-02T07:17:30.999Z</time></trkpt><trkpt lat="42.354800599390266" lon="14.024714278348272"><ele>149.75</ele><time>2026-05-02T07:17:31.999Z</time></trkpt><trkpt lat="42.35481621639276" lon="14.024540667718622"><ele>150.0</ele><time>2026-05-02T07:17:32.999Z</time></trkpt><trkpt lat="42.35485348020523" lon="14.024395252447803"><ele>150.0</ele><time>2026-05-02T07:17:33.999Z</time></trkpt><trkpt lat="42.354867581009586" lon="14.024243145853397"><ele>150.0</ele><time>2026-05-02T07:17:34.999Z</time></trkpt><trkpt lat="42.35485642885319" lon="14.024081493598707"><ele>150.0</ele><time>2026-05-02T07:17:35.999Z</time></trkpt><trkpt lat="42.35486328464789" lon="14.023944247222305"><ele>150.0</ele><time>2026-05-02T07:17:36.999Z</time></trkpt><trkpt lat="42.35487420428803" lon="14.023828753244423"><ele>150.0</ele><time>2026-05-02T07:17:37.999Z</time></trkpt><trkpt lat="42.35487764083703" lon="14.023735412559082"><ele>150.33333333333334</ele><time>2026-05-02T07:17:38.999Z</time></trkpt><trkpt lat="42.3548411271557" lon="14.023651989860902"><ele>150.66666666666666</ele><time>2026-05-02T07:17:40.998Z</time></trkpt><trkpt lat="42.35474671981574" lon="14.023627103730849"><ele>151.0</ele><time>2026-05-02T07:17:42.998Z</time></trkpt><trkpt lat="42.3546913575847" lon="14.023701649593201"><ele>151.33333333333331</ele><time>2026-05-02T07:17:43.998Z</time></trkpt><trkpt lat="42.35463241179891" lon="14.02377834085308"><ele>151.66666666666666</ele><time>2026-05-02T07:17:44.998Z</time></trkpt><trkpt lat="42.35455479924729" lon="14.02384974346533"><ele>152.0</ele><time>2026-05-02T07:17:45.998Z</time></trkpt><trkpt lat="42.35447963663133" lon="14.023942868660514"><ele>152.4</ele><time>2026-05-02T07:17:46.998Z</time></trkpt><trkpt lat="42.354408141157954" lon="14.024025276356783"><ele>152.79999999999998</ele><time>2026-05-02T07:17:47.998Z</time></trkpt><trkpt lat="42.35433254650236" lon="14.024110463087748"><ele>153.2</ele><time>2026-05-02T07:17:48.998Z</time></trkpt><trkpt lat="42.35425084545495" lon="14.024201147037449"><ele>153.6</ele><time>2026-05-02T07:17:49.998Z</time></trkpt><trkpt lat="42.35417805718573" lon="14.024281039538648"><ele>154.0</ele><time>2026-05-02T07:17:50.998Z</time></trkpt><trkpt lat="42.35412313797894" lon="14.024328074625599"><ele>154.0</ele><time>2026-05-02T07:17:51.998Z</time></trkpt><trkpt lat="42.35404493820464" lon="14.024298498790579"><ele>154.0</ele><time>2026-05-02T07:17:53.998Z</time></trkpt><trkpt lat="42.353982266396" lon="14.024255537898858"><ele>154.0</ele><time>2026-05-02T07:17:54.998Z</time></trkpt><trkpt lat="42.35390607192935" lon="14.024200324808126"><ele>154.0</ele><time>2026-05-02T07:17:55.998Z</time></trkpt><trkpt lat="42.35382271829139" lon="14.024142247679881"><ele>154.0</ele><time>2026-05-02T07:17:56.998Z</time></trkpt><trkpt lat="42.35372919504912" lon="14.024089765234336"><ele>154.0</ele><time>2026-05-02T07:17:57.998Z</time></trkpt><trkpt lat="42.35363179281318" lon="14.024069116374775"><ele>154.8</ele><time>2026-05-02T07:17:59Z</time></trkpt><trkpt lat="42.35352569043298" lon="14.024075095488003"><ele>155.60000000000002</ele><time>2026-05-02T07:18:00Z</time></trkpt><trkpt lat="42.35341418753154" lon="14.024065730693371"><ele>156.4</ele><time>2026-05-02T07:18:01Z</time></trkpt><trkpt lat="42.353306036300104" lon="14.024032204728993"><ele>157.20000000000002</ele><time>2026-05-02T07:18:02Z</time></trkpt><trkpt lat="42.3532025323771" lon="14.024011362585574"><ele>158.0</ele><time>2026-05-02T07:18:03Z</time></trkpt><trkpt lat="42.35308764246387" lon="14.023987918904965"><ele>160.0</ele><time>2026-05-02T07:18:04Z</time></trkpt><trkpt lat="42.3529769770055" lon="14.023967702319032"><ele>162.0</ele><time>2026-05-02T07:18:05Z</time></trkpt><trkpt lat="42.352861614350694" lon="14.02394668886384"><ele>164.0</ele><time>2026-05-02T07:18:06Z</time></trkpt><trkpt lat="42.35274484713739" lon="14.023925419567856"><ele>166.0</ele><time>2026-05-02T07:18:07Z</time></trkpt><trkpt lat="42.3526229769333" lon="14.023903220748673"><ele>166.0</ele><time>2026-05-02T07:18:08Z</time></trkpt><trkpt lat="42.35250999998545" lon="14.023885351886832"><ele>166.0</ele><time>2026-05-02T07:18:09Z</time></trkpt><trkpt lat="42.352408985791655" lon="14.023882275284212"><ele>166.0</ele><time>2026-05-02T07:18:10Z</time></trkpt><trkpt lat="42.352306034377825" lon="14.023836154118877"><ele>166.0</ele><time>2026-05-02T07:18:11Z</time></trkpt><trkpt lat="42.352184910686866" lon="14.023860740242425"><ele>166.0</ele><time>2026-05-02T07:18:12Z</time></trkpt><trkpt lat="42.35208038468442" lon="14.023886270254419"><ele>167.4</ele><time>2026-05-02T07:18:13Z</time></trkpt><trkpt lat="42.3519824954234" lon="14.023895923870786"><ele>168.8</ele><time>2026-05-02T07:18:14Z</time></trkpt><trkpt lat="42.35188632288986" lon="14.023933265989559"><ele>170.20000000000002</ele><time>2026-05-02T07:18:15Z</time></trkpt><trkpt lat="42.351780235237996" lon="14.02397314321015"><ele>171.60000000000002</ele><time>2026-05-02T07:18:16Z</time></trkpt><trkpt lat="42.351671129947306" lon="14.024015054407917"><ele>173.0</ele><time>2026-05-02T07:18:17Z</time></trkpt><trkpt lat="42.351585317471994" lon="14.02405314864935"><ele>173.0</ele><time>2026-05-02T07:18:18Z</time></trkpt><trkpt lat="42.35150388855687" lon="14.024047965592443"><ele>173.0</ele><time>2026-05-02T07:18:19Z</time></trkpt><trkpt lat="42.35143413372249" lon="14.024042313733466"><ele>173.0</ele><time>2026-05-02T07:18:20Z</time></trkpt><trkpt lat="42.35136532330333" lon="14.024017500342953"><ele>173.0</ele><time>2026-05-02T07:18:21Z</time></trkpt><trkpt lat="42.351302376691166" lon="14.023984041414517"><ele>173.0</ele><time>2026-05-02T07:18:22Z</time></trkpt><trkpt lat="42.351235263855806" lon="14.02385791160417"><ele>173.0</ele><time>2026-05-02T07:18:24Z</time></trkpt><trkpt lat="42.35117769921391" lon="14.023657335608943"><ele>174.60000000000002</ele><time>2026-05-02T07:18:26Z</time></trkpt><trkpt lat="42.35114013076437" lon="14.023530844412974"><ele>176.20000000000002</ele><time>2026-05-02T07:18:27Z</time></trkpt><trkpt lat="42.35109486609013" lon="14.023399189974237"><ele>177.8</ele><time>2026-05-02T07:18:28Z</time></trkpt><trkpt lat="42.35104097869931" lon="14.0232815406381"><ele>179.4</ele><time>2026-05-02T07:18:29Z</time></trkpt><trkpt lat="42.35096580302581" lon="14.023180157825726"><ele>181.0</ele><time>2026-05-02T07:18:30Z</time></trkpt><trkpt lat="42.350890826631336" lon="14.02309593637153"><ele>182.25</ele><time>2026-05-02T07:18:31Z</time></trkpt><trkpt lat="42.350822897754234" lon="14.02298726903064"><ele>183.5</ele><time>2026-05-02T07:18:32Z</time></trkpt><trkpt lat="42.35074384333394" lon="14.022875505560712"><ele>184.75</ele><time>2026-05-02T07:18:32.999Z</time></trkpt><trkpt lat="42.35066106681602" lon="14.02275525408457"><ele>186.0</ele><time>2026-05-02T07:18:33.999Z</time></trkpt><trkpt lat="42.35057932483055" lon="14.022636505770976"><ele>186.60000000000002</ele><time>2026-05-02T07:18:34.999Z</time></trkpt><trkpt lat="42.35050548044716" lon="14.022521234600784"><ele>187.2</ele><time>2026-05-02T07:18:35.999Z</time></trkpt><trkpt lat="42.35043593285265" lon="14.022435405134306"><ele>187.8</ele><time>2026-05-02T07:18:36.999Z</time></trkpt><trkpt lat="42.350390055771975" lon="14.022355612672994"><ele>188.39999999999998</ele><time>2026-05-02T07:18:37.999Z</time></trkpt><trkpt lat="42.350316217268386" lon="14.02228154900964"><ele>189.0</ele><time>2026-05-02T07:18:38.999Z</time></trkpt><trkpt lat="42.35022545385352" lon="14.022213510948282"><ele>189.0</ele><time>2026-05-02T07:18:39.999Z</time></trkpt><trkpt lat="42.35014040406956" lon="14.022212646562373"><ele>189.0</ele><time>2026-05-02T07:18:40.999Z</time></trkpt><trkpt lat="42.350034286441314" lon="14.022325775153448"><ele>189.0</ele><time>2026-05-02T07:18:42.999Z</time></trkpt><trkpt lat="42.3499496967327" lon="14.022395684066524"><ele>189.0</ele><time>2026-05-02T07:18:43.999Z</time></trkpt><trkpt lat="42.3498543767761" lon="14.022481179256586"><ele>189.0</ele><time>2026-05-02T07:18:44.999Z</time></trkpt><trkpt lat="42.349749395936506" lon="14.022575339723886"><ele>189.33333333333334</ele><time>2026-05-02T07:18:45.999Z</time></trkpt><trkpt lat="42.349627734641054" lon="14.022685246179273"><ele>189.66666666666669</ele><time>2026-05-02T07:18:46.999Z</time></trkpt><trkpt lat="42.349496955987085" lon="14.022805678700093"><ele>190.0</ele><time>2026-05-02T07:18:47.999Z</time></trkpt><trkpt lat="42.34936889014962" lon="14.022924159825363"><ele>190.0</ele><time>2026-05-02T07:18:48.999Z</time></trkpt><trkpt lat="42.349260772558964" lon="14.023031392056346"><ele>190.0</ele><time>2026-05-02T07:18:49.999Z</time></trkpt><trkpt lat="42.34914377543125" lon="14.023102087203563"><ele>190.0</ele><time>2026-05-02T07:18:50.999Z</time></trkpt><trkpt lat="42.349078809351894" lon="14.023205875785887"><ele>190.0</ele><time>2026-05-02T07:18:51.999Z</time></trkpt><trkpt lat="42.34902327955802" lon="14.023260713148618"><ele>190.0</ele><time>2026-05-02T07:18:52.999Z</time></trkpt><trkpt lat="42.34895742209047" lon="14.023312630955992"><ele>190.0</ele><time>2026-05-02T07:18:53.999Z</time></trkpt><trkpt lat="42.348877075307385" lon="14.023313848292677"><ele>190.0</ele><time>2026-05-02T07:18:55.999Z</time></trkpt><trkpt lat="42.348803872291576" lon="14.023198155207469"><ele>190.0</ele><time>2026-05-02T07:18:57.999Z</time></trkpt><trkpt lat="42.34876861186966" lon="14.023120336050951"><ele>190.0</ele><time>2026-05-02T07:18:58.999Z</time></trkpt><trkpt lat="42.3487259641456" lon="14.023036029897"><ele>190.0</ele><time>2026-05-02T07:18:59.999Z</time></trkpt><trkpt lat="42.34866398497809" lon="14.022931422244838"><ele>190.0</ele><time>2026-05-02T07:19:00.999Z</time></trkpt><trkpt lat="42.348584367433155" lon="14.022837145159066"><ele>191.25</ele><time>2026-05-02T07:19:01.999Z</time></trkpt><trkpt lat="42.348562912747354" lon="14.02269469548046"><ele>192.5</ele><time>2026-05-02T07:19:02.999Z</time></trkpt><trkpt lat="42.3485022877512" lon="14.022576753200592"><ele>193.75</ele><time>2026-05-02T07:19:03.999Z</time></trkpt><trkpt lat="42.348426620164275" lon="14.022440083991176"><ele>195.0</ele><time>2026-05-02T07:19:04.999Z</time></trkpt><trkpt lat="42.34833306739708" lon="14.022286085836768"><ele>195.0</ele><time>2026-05-02T07:19:05.999Z</time></trkpt><trkpt lat="42.348229007969074" lon="14.022129266267203"><ele>195.0</ele><time>2026-05-02T07:19:06.999Z</time></trkpt><trkpt lat="42.34811450879077" lon="14.021968728040513"><ele>195.0</ele><time>2026-05-02T07:19:07.999Z</time></trkpt><trkpt lat="42.347991183667574" lon="14.021795815072679"><ele>195.33333333333331</ele><time>2026-05-02T07:19:08.999Z</time></trkpt><trkpt lat="42.34787268812627" lon="14.021629698367871"><ele>195.66666666666666</ele><time>2026-05-02T07:19:09.999Z</time></trkpt><trkpt lat="42.34776009979574" lon="14.021471896794473"><ele>196.0</ele><time>2026-05-02T07:19:10.999Z</time></trkpt><trkpt lat="42.34765299209484" lon="14.021318212548938"><ele>196.0</ele><time>2026-05-02T07:19:11.999Z</time></trkpt><trkpt lat="42.347548973161516" lon="14.021169211626361"><ele>196.0</ele><time>2026-05-02T07:19:12.999Z</time></trkpt><trkpt lat="42.34744205353847" lon="14.021018548710819"><ele>196.0</ele><time>2026-05-02T07:19:13.999Z</time></trkpt><trkpt lat="42.34733914064564" lon="14.020865072456408"><ele>196.66666666666666</ele><time>2026-05-02T07:19:14.999Z</time></trkpt><trkpt lat="42.34724182893149" lon="14.020700123670494"><ele>197.33333333333331</ele><time>2026-05-02T07:19:15.999Z</time></trkpt><trkpt lat="42.34714443293518" lon="14.020530918760684"><ele>198.0</ele><time>2026-05-02T07:19:16.999Z</time></trkpt><trkpt lat="42.347046895946036" lon="14.02036111795493"><ele>198.0</ele><time>2026-05-02T07:19:17.999Z</time></trkpt><trkpt lat="42.34695628302554" lon="14.020193154754466"><ele>198.0</ele><time>2026-05-02T07:19:18.999Z</time></trkpt><trkpt lat="42.346871160328824" lon="14.020020632241785"><ele>198.0</ele><time>2026-05-02T07:19:19.999Z</time></trkpt><trkpt lat="42.34678552511874" lon="14.01984560828825"><ele>197.66666666666669</ele><time>2026-05-02T07:19:20.999Z</time></trkpt><trkpt lat="42.346701505972504" lon="14.019677387785267"><ele>197.33333333333334</ele><time>2026-05-02T07:19:21.999Z</time></trkpt><trkpt lat="42.34661781492916" lon="14.019503095034024"><ele>197.0</ele><time>2026-05-02T07:19:22.999Z</time></trkpt><trkpt lat="42.346538793462244" lon="14.019333711826542"><ele>197.0</ele><time>2026-05-02T07:19:23.999Z</time></trkpt><trkpt lat="42.346461411483276" lon="14.01916457857394"><ele>197.0</ele><time>2026-05-02T07:19:24.999Z</time></trkpt><trkpt lat="42.34638647634767" lon="14.018994016785527"><ele>197.0</ele><time>2026-05-02T07:19:25.999Z</time></trkpt><trkpt lat="42.34631809107722" lon="14.018833141642617"><ele>197.0</ele><time>2026-05-02T07:19:26.999Z</time></trkpt><trkpt lat="42.34624999208668" lon="14.018675614007966"><ele>198.0</ele><time>2026-05-02T07:19:27.999Z</time></trkpt><trkpt lat="42.34617029686429" lon="14.01850915096656"><ele>199.0</ele><time>2026-05-02T07:19:28.999Z</time></trkpt><trkpt lat="42.34608861163361" lon="14.018350724616651"><ele>200.0</ele><time>2026-05-02T07:19:29.999Z</time></trkpt><trkpt lat="42.34599053642899" lon="14.018199225894813"><ele>201.0</ele><time>2026-05-02T07:19:30.999Z</time></trkpt><trkpt lat="42.345901324298616" lon="14.018032884021402"><ele>201.66666666666669</ele><time>2026-05-02T07:19:31.999Z</time></trkpt><trkpt lat="42.34581126896826" lon="14.017869939187724"><ele>202.33333333333334</ele><time>2026-05-02T07:19:32.999Z</time></trkpt><trkpt lat="42.34571868422335" lon="14.017703799145432"><ele>203.0</ele><time>2026-05-02T07:19:33.999Z</time></trkpt><trkpt lat="42.34562617779673" lon="14.017531356795232"><ele>203.5</ele><time>2026-05-02T07:19:34.999Z</time></trkpt><trkpt lat="42.3455393376259" lon="14.017371125991017"><ele>204.0</ele><time>2026-05-02T07:19:35.999Z</time></trkpt><trkpt lat="42.345462110566906" lon="14.017223141623049"><ele>204.5</ele><time>2026-05-02T07:19:36.999Z</time></trkpt><trkpt lat="42.34537666609508" lon="14.017070283892547"><ele>205.0</ele><time>2026-05-02T07:19:37.999Z</time></trkpt><trkpt lat="42.34529192910836" lon="14.016908775399632"><ele>205.0</ele><time>2026-05-02T07:19:38.999Z</time></trkpt><trkpt lat="42.345215948729425" lon="14.016750452401064"><ele>205.0</ele><time>2026-05-02T07:19:39.999Z</time></trkpt><trkpt lat="42.34516118537815" lon="14.016600272502272"><ele>205.0</ele><time>2026-05-02T07:19:40.999Z</time></trkpt><trkpt lat="42.3451110593945" lon="14.016464933345016"><ele>205.0</ele><time>2026-05-02T07:19:41.999Z</time></trkpt><trkpt lat="42.34507236491484" lon="14.016332898128066"><ele>205.4</ele><time>2026-05-02T07:19:42.999Z</time></trkpt><trkpt lat="42.34504589431503" lon="14.016225760465586"><ele>205.8</ele><time>2026-05-02T07:19:43.999Z</time></trkpt><trkpt lat="42.34503259305469" lon="14.016133268988462"><ele>206.2</ele><time>2026-05-02T07:19:44.999Z</time></trkpt><trkpt lat="42.34493107246267" lon="14.016117259536308"><ele>206.6</ele><time>2026-05-02T07:19:45.999Z</time></trkpt><trkpt lat="42.34483989556049" lon="14.016156792455181"><ele>207.0</ele><time>2026-05-02T07:19:46.998Z</time></trkpt><trkpt lat="42.34473527103102" lon="14.016199902579764"><ele>207.0</ele><time>2026-05-02T07:19:47.998Z</time></trkpt><trkpt lat="42.344615184602816" lon="14.016203034531657"><ele>207.0</ele><time>2026-05-02T07:19:48.998Z</time></trkpt><trkpt lat="42.34449315178775" lon="14.016228528735233"><ele>207.0</ele><time>2026-05-02T07:19:49.998Z</time></trkpt><trkpt lat="42.34436273914613" lon="14.016254167149695"><ele>207.0</ele><time>2026-05-02T07:19:50.998Z</time></trkpt><trkpt lat="42.34423965459029" lon="14.016274379530474"><ele>207.0</ele><time>2026-05-02T07:19:51.998Z</time></trkpt><trkpt lat="42.344127866147936" lon="14.016294659432857"><ele>207.0</ele><time>2026-05-02T07:19:52.998Z</time></trkpt><trkpt lat="42.34403071290474" lon="14.016319097451243"><ele>207.0</ele><time>2026-05-02T07:19:53.998Z</time></trkpt><trkpt lat="42.343934311891886" lon="14.016343942493716"><ele>207.0</ele><time>2026-05-02T07:19:54.998Z</time></trkpt><trkpt lat="42.34384471252021" lon="14.016349950081246"><ele>207.0</ele><time>2026-05-02T07:19:55.998Z</time></trkpt><trkpt lat="42.34375186031286" lon="14.016332489996154"><ele>206.39999999999998</ele><time>2026-05-02T07:19:56.998Z</time></trkpt><trkpt lat="42.34365273774502" lon="14.016311870510869"><ele>205.79999999999998</ele><time>2026-05-02T07:19:57.998Z</time></trkpt><trkpt lat="42.34355607757972" lon="14.016291026412334"><ele>205.2</ele><time>2026-05-02T07:19:58.998Z</time></trkpt><trkpt lat="42.34345217883259" lon="14.016264947733697"><ele>204.6</ele><time>2026-05-02T07:19:59.998Z</time></trkpt><trkpt lat="42.34334340083512" lon="14.016233923673076"><ele>204.0</ele><time>2026-05-02T07:20:00.998Z</time></trkpt><trkpt lat="42.34323369350958" lon="14.016197486602248"><ele>204.0</ele><time>2026-05-02T07:20:01.998Z</time></trkpt><trkpt lat="42.3431278375814" lon="14.01618502045928"><ele>204.0</ele><time>2026-05-02T07:20:02.998Z</time></trkpt><trkpt lat="42.34303907001042" lon="14.01614673843169"><ele>204.0</ele><time>2026-05-02T07:20:03.998Z</time></trkpt><trkpt lat="42.34295237112855" lon="14.016115993026535"><ele>204.0</ele><time>2026-05-02T07:20:05Z</time></trkpt><trkpt lat="42.34287075992757" lon="14.016094366426495"><ele>204.0</ele><time>2026-05-02T07:20:06Z</time></trkpt><trkpt lat="42.342793300613266" lon="14.016081743534402"><ele>202.16666666666666</ele><time>2026-05-02T07:20:07Z</time></trkpt><trkpt lat="42.34272371694195" lon="14.016108628648771"><ele>200.33333333333331</ele><time>2026-05-02T07:20:08Z</time></trkpt><trkpt lat="42.34268283733012" lon="14.01618148547265"><ele>198.5</ele><time>2026-05-02T07:20:09Z</time></trkpt><trkpt lat="42.34264947706601" lon="14.016254733108465"><ele>196.66666666666666</ele><time>2026-05-02T07:20:11Z</time></trkpt><trkpt lat="42.34263538915491" lon="14.016357222774952"><ele>194.83333333333331</ele><time>2026-05-02T07:20:19Z</time></trkpt><trkpt lat="42.34258534298142" lon="14.016494758309742"><ele>193.0</ele><time>2026-05-02T07:20:21Z</time></trkpt><trkpt lat="42.34256219659447" lon="14.016578338436211"><ele>192.60000000000002</ele><time>2026-05-02T07:20:22Z</time></trkpt><trkpt lat="42.34253462430979" lon="14.016702168537119"><ele>192.20000000000002</ele><time>2026-05-02T07:20:24Z</time></trkpt><trkpt lat="42.342511549466565" lon="14.016812131613563"><ele>191.8</ele><time>2026-05-02T07:20:26Z</time></trkpt><trkpt lat="42.34249572243344" lon="14.016910006743805"><ele>191.4</ele><time>2026-05-02T07:20:28.999Z</time></trkpt><trkpt lat="42.34238219685738" lon="14.01701976032352"><ele>191.0</ele><time>2026-05-02T07:20:39.999Z</time></trkpt><trkpt lat="42.34230839886495" lon="14.01707225501567"><ele>191.0</ele><time>2026-05-02T07:20:41.999Z</time></trkpt><trkpt lat="42.34221915718117" lon="14.017061791948612"><ele>191.0</ele><time>2026-05-02T07:20:43.999Z</time></trkpt><trkpt lat="42.342110989040904" lon="14.016974905203472"><ele>191.0</ele><time>2026-05-02T07:20:45.999Z</time></trkpt><trkpt lat="42.34205059287588" lon="14.016923676756669"><ele>191.0</ele><time>2026-05-02T07:20:46.999Z</time></trkpt><trkpt lat="42.34197731495805" lon="14.016863462714891"><ele>191.0</ele><time>2026-05-02T07:20:47.999Z</time></trkpt><trkpt lat="42.34190446476625" lon="14.016807301093067"><ele>189.16666666666666</ele><time>2026-05-02T07:20:48.999Z</time></trkpt><trkpt lat="42.34182945723421" lon="14.016747723872852"><ele>187.33333333333331</ele><time>2026-05-02T07:20:49.999Z</time></trkpt><trkpt lat="42.34175712361385" lon="14.016689866183361"><ele>185.5</ele><time>2026-05-02T07:20:50.999Z</time></trkpt><trkpt lat="42.34168419153047" lon="14.016633740402341"><ele>183.66666666666666</ele><time>2026-05-02T07:20:51.999Z</time></trkpt><trkpt lat="42.341616122097115" lon="14.016582616668542"><ele>181.83333333333334</ele><time>2026-05-02T07:20:52.999Z</time></trkpt><trkpt lat="42.341554089378526" lon="14.01653672173743"><ele>180.0</ele><time>2026-05-02T07:20:53.999Z</time></trkpt><trkpt lat="42.34148904430218" lon="14.016486016448376"><ele>179.7142857142857</ele><time>2026-05-02T07:20:54.999Z</time></trkpt><trkpt lat="42.34142845204196" lon="14.016439419841268"><ele>179.42857142857144</ele><time>2026-05-02T07:20:55.999Z</time></trkpt><trkpt lat="42.34136631242839" lon="14.016392754821664"><ele>179.14285714285714</ele><time>2026-05-02T07:20:56.999Z</time></trkpt><trkpt lat="42.34131096205726" lon="14.01635126680305"><ele>178.85714285714283</ele><time>2026-05-02T07:20:57.999Z</time></trkpt><trkpt lat="42.34123885982594" lon="14.016297075409184"><ele>178.57142857142856</ele><time>2026-05-02T07:20:58.999Z</time></trkpt><trkpt lat="42.34117659134374" lon="14.016246461329224"><ele>178.28571428571428</ele><time>2026-05-02T07:20:59.999Z</time></trkpt><trkpt lat="42.34111963465382" lon="14.01619878007097"><ele>178.0</ele><time>2026-05-02T07:21:00.999Z</time></trkpt><trkpt lat="42.34106136041801" lon="14.0161473054963"><ele>178.33333333333334</ele><time>2026-05-02T07:21:01.999Z</time></trkpt><trkpt lat="42.34100609549857" lon="14.016082641667657"><ele>178.66666666666669</ele><time>2026-05-02T07:21:02.999Z</time></trkpt><trkpt lat="42.34094459804129" lon="14.015997159223753"><ele>179.0</ele><time>2026-05-02T07:21:03.999Z</time></trkpt><trkpt lat="42.340889763624794" lon="14.015902639661284"><ele>179.33333333333334</ele><time>2026-05-02T07:21:04.999Z</time></trkpt><trkpt lat="42.34083046996643" lon="14.015802250897256"><ele>179.66666666666666</ele><time>2026-05-02T07:21:05.999Z</time></trkpt><trkpt lat="42.34077513149768" lon="14.015711770358743"><ele>180.0</ele><time>2026-05-02T07:21:06.999Z</time></trkpt><trkpt lat="42.340723050595194" lon="14.015605938585873"><ele>180.0</ele><time>2026-05-02T07:21:07.999Z</time></trkpt><trkpt lat="42.34068940162685" lon="14.015521633652277"><ele>180.0</ele><time>2026-05-02T07:21:08.999Z</time></trkpt><trkpt lat="42.34065800539077" lon="14.015434341249634"><ele>180.0</ele><time>2026-05-02T07:21:09.999Z</time></trkpt><trkpt lat="42.34062311882699" lon="14.015356883297136"><ele>180.0</ele><time>2026-05-02T07:21:10.999Z</time></trkpt><trkpt lat="42.340566743305295" lon="14.015247776486598"><ele>180.0</ele><time>2026-05-02T07:21:12.999Z</time></trkpt><trkpt lat="42.3404676762578" lon="14.015187402186022"><ele>180.0</ele><time>2026-05-02T07:21:14.999Z</time></trkpt><trkpt lat="42.34040337993636" lon="14.015193238911586"><ele>180.66666666666666</ele><time>2026-05-02T07:21:15.999Z</time></trkpt><trkpt lat="42.34034132626719" lon="14.015234541600375"><ele>181.33333333333334</ele><time>2026-05-02T07:21:16.999Z</time></trkpt><trkpt lat="42.34027875789762" lon="14.015297484377141"><ele>182.0</ele><time>2026-05-02T07:21:17.999Z</time></trkpt><trkpt lat="42.34020801717165" lon="14.015352040149727"><ele>182.66666666666669</ele><time>2026-05-02T07:21:18.999Z</time></trkpt><trkpt lat="42.34010664623187" lon="14.015403224328034"><ele>183.33333333333334</ele><time>2026-05-02T07:21:20.999Z</time></trkpt><trkpt lat="42.34001979593086" lon="14.015463375693844"><ele>184.0</ele><time>2026-05-02T07:21:22.999Z</time></trkpt><trkpt lat="42.339937975015445" lon="14.015526285029214"><ele>184.0</ele><time>2026-05-02T07:21:24.999Z</time></trkpt><trkpt lat="42.33984651209036" lon="14.015615045120454"><ele>184.0</ele><time>2026-05-02T07:21:26.999Z</time></trkpt><trkpt lat="42.339755703852006" lon="14.015673436158893"><ele>184.0</ele><time>2026-05-02T07:21:28.999Z</time></trkpt><trkpt lat="42.33965980308543" lon="14.01566170072671"><ele>184.0</ele><time>2026-05-02T07:21:30.999Z</time></trkpt><trkpt lat="42.339550659656155" lon="14.015589281258098"><ele>184.0</ele><time>2026-05-02T07:21:32.999Z</time></trkpt><trkpt lat="42.33948493295451" lon="14.015551114724985"><ele>183.0</ele><time>2026-05-02T07:21:33.999Z</time></trkpt><trkpt lat="42.339422730668794" lon="14.015508242888439"><ele>182.0</ele><time>2026-05-02T07:21:34.999Z</time></trkpt><trkpt lat="42.33934442728852" lon="14.015457307902256"><ele>181.0</ele><time>2026-05-02T07:21:36.999Z</time></trkpt><trkpt lat="42.33928049482726" lon="14.015339639214778"><ele>180.0</ele><time>2026-05-02T07:21:38.998Z</time></trkpt><trkpt lat="42.33923860316891" lon="14.015186719871092"><ele>179.0</ele><time>2026-05-02T07:21:40.998Z</time></trkpt><trkpt lat="42.33920892445118" lon="14.015108645895094"><ele>179.0</ele><time>2026-05-02T07:21:41.998Z</time></trkpt><trkpt lat="42.33917583911803" lon="14.015017593226597"><ele>179.0</ele><time>2026-05-02T07:21:42.998Z</time></trkpt><trkpt lat="42.33914028549113" lon="14.014928549838276"><ele>179.0</ele><time>2026-05-02T07:21:43.998Z</time></trkpt><trkpt lat="42.33909919428207" lon="14.014833430367506"><ele>179.0</ele><time>2026-05-02T07:21:44.998Z</time></trkpt><trkpt lat="42.33905930665422" lon="14.014747242761525"><ele>179.0</ele><time>2026-05-02T07:21:45.998Z</time></trkpt><trkpt lat="42.338998215604526" lon="14.014599929230414"><ele>179.0</ele><time>2026-05-02T07:21:47.998Z</time></trkpt><trkpt lat="42.33895890947951" lon="14.014503464256705"><ele>178.57142857142858</ele><time>2026-05-02T07:21:48.998Z</time></trkpt><trkpt lat="42.338916600652034" lon="14.014400100806995"><ele>178.14285714285714</ele><time>2026-05-02T07:21:49.998Z</time></trkpt><trkpt lat="42.33888407699498" lon="14.014320840050194"><ele>177.71428571428572</ele><time>2026-05-02T07:21:50.998Z</time></trkpt><trkpt lat="42.33884852474618" lon="14.01423252675235"><ele>177.28571428571428</ele><time>2026-05-02T07:21:51.998Z</time></trkpt><trkpt lat="42.338813913082376" lon="14.014139423860902"><ele>176.85714285714286</ele><time>2026-05-02T07:21:52.998Z</time></trkpt><trkpt lat="42.33877275964216" lon="14.014057246700505"><ele>176.42857142857144</ele><time>2026-05-02T07:21:53.998Z</time></trkpt><trkpt lat="42.33873797838184" lon="14.01397498226958"><ele>176.0</ele><time>2026-05-02T07:21:54.998Z</time></trkpt><trkpt lat="42.33870727474074" lon="14.013892144409654"><ele>177.33333333333331</ele><time>2026-05-02T07:21:55.998Z</time></trkpt><trkpt lat="42.33868010471459" lon="14.013809061498117"><ele>178.66666666666666</ele><time>2026-05-02T07:21:56.998Z</time></trkpt><trkpt lat="42.33865150940483" lon="14.013715967418703"><ele>180.0</ele><time>2026-05-02T07:21:57.998Z</time></trkpt><trkpt lat="42.33861408375975" lon="14.013598847068028"><ele>181.33333333333334</ele><time>2026-05-02T07:21:58.998Z</time></trkpt><trkpt lat="42.33858077034507" lon="14.013498489011743"><ele>182.66666666666669</ele><time>2026-05-02T07:21:59.998Z</time></trkpt><trkpt lat="42.33854691661531" lon="14.013397275976882"><ele>184.0</ele><time>2026-05-02T07:22:00.998Z</time></trkpt><trkpt lat="42.33851167429621" lon="14.013302126303238"><ele>185.16666666666669</ele><time>2026-05-02T07:22:01.998Z</time></trkpt><trkpt lat="42.33847525843871" lon="14.01319520033174"><ele>186.33333333333334</ele><time>2026-05-02T07:22:02.998Z</time></trkpt><trkpt lat="42.33844127784295" lon="14.013086268131506"><ele>187.5</ele><time>2026-05-02T07:22:03.998Z</time></trkpt><trkpt lat="42.338410807440006" lon="14.012990806012152"><ele>188.66666666666666</ele><time>2026-05-02T07:22:04.998Z</time></trkpt><trkpt lat="42.338381095531524" lon="14.012905054823666"><ele>189.83333333333331</ele><time>2026-05-02T07:22:05.998Z</time></trkpt><trkpt lat="42.33834096999059" lon="14.01279772905652"><ele>191.0</ele><time>2026-05-02T07:22:07.998Z</time></trkpt><trkpt lat="42.33837226844942" lon="14.012712660864976"><ele>191.0</ele><time>2026-05-02T07:22:11Z</time></trkpt><trkpt lat="42.338432941424685" lon="14.012667266235912"><ele>191.0</ele><time>2026-05-02T07:22:13Z</time></trkpt><trkpt lat="42.33855673085101" lon="14.012612193853583"><ele>191.0</ele><time>2026-05-02T07:22:15Z</time></trkpt><trkpt lat="42.33862682078776" lon="14.01255983128243"><ele>191.0</ele><time>2026-05-02T07:22:16Z</time></trkpt><trkpt lat="42.33868164863173" lon="14.01251763283122"><ele>191.0</ele><time>2026-05-02T07:22:17Z</time></trkpt><trkpt lat="42.33874317144584" lon="14.012481085456963"><ele>191.0</ele><time>2026-05-02T07:22:18Z</time></trkpt><trkpt lat="42.33880180928235" lon="14.012446409767955"><ele>192.4</ele><time>2026-05-02T07:22:19Z</time></trkpt><trkpt lat="42.33886567399243" lon="14.01241026414968"><ele>193.8</ele><time>2026-05-02T07:22:21Z</time></trkpt><trkpt lat="42.33886178972281" lon="14.012323625338423"><ele>195.20000000000002</ele><time>2026-05-02T07:22:24Z</time></trkpt><trkpt lat="42.33877607685648" lon="14.012308240827753"><ele>196.60000000000002</ele><time>2026-05-02T07:22:26Z</time></trkpt><trkpt lat="42.33865288247575" lon="14.012303056335668"><ele>198.0</ele><time>2026-05-02T07:22:27Z</time></trkpt><trkpt lat="42.3385175856309" lon="14.012239445694398"><ele>198.0</ele><time>2026-05-02T07:22:28Z</time></trkpt><trkpt lat="42.33836174115886" lon="14.01214390651548"><ele>198.0</ele><time>2026-05-02T07:22:29Z</time></trkpt><trkpt lat="42.338218032281276" lon="14.012080238734596"><ele>198.0</ele><time>2026-05-02T07:22:30Z</time></trkpt><trkpt lat="42.33809123057906" lon="14.012030263050642"><ele>195.5</ele><time>2026-05-02T07:22:31Z</time></trkpt><trkpt lat="42.33797490466238" lon="14.011971065039301"><ele>193.0</ele><time>2026-05-02T07:22:32Z</time></trkpt><trkpt lat="42.33783993774605" lon="14.011920186196457"><ele>190.5</ele><time>2026-05-02T07:22:33Z</time></trkpt><trkpt lat="42.337724385937676" lon="14.01183376564255"><ele>188.0</ele><time>2026-05-02T07:22:34Z</time></trkpt><trkpt lat="42.33761590312241" lon="14.01173912428515"><ele>189.75</ele><time>2026-05-02T07:22:35Z</time></trkpt><trkpt lat="42.33750549209038" lon="14.01163920970595"><ele>191.5</ele><time>2026-05-02T07:22:36Z</time></trkpt><trkpt lat="42.33740381716214" lon="14.01152302374871"><ele>193.25</ele><time>2026-05-02T07:22:37Z</time></trkpt><trkpt lat="42.337315028147025" lon="14.011387983307603"><ele>195.0</ele><time>2026-05-02T07:22:38Z</time></trkpt><trkpt lat="42.33724347079834" lon="14.011248914846124"><ele>192.2</ele><time>2026-05-02T07:22:39Z</time></trkpt><trkpt lat="42.3371754082431" lon="14.011111697746424"><ele>189.4</ele><time>2026-05-02T07:22:40Z</time></trkpt><trkpt lat="42.337113173791494" lon="14.010990148917909"><ele>186.60000000000002</ele><time>2026-05-02T07:22:40.999Z</time></trkpt><trkpt lat="42.3370365195772" lon="14.010909976202548"><ele>183.8</ele><time>2026-05-02T07:22:41.999Z</time></trkpt><trkpt lat="42.33694438224935" lon="14.010875079306281"><ele>181.0</ele><time>2026-05-02T07:22:42.999Z</time></trkpt><trkpt lat="42.33683612331108" lon="14.010906284226934"><ele>181.0</ele><time>2026-05-02T07:22:43.999Z</time></trkpt><trkpt lat="42.33672838595111" lon="14.010974968755411"><ele>181.0</ele><time>2026-05-02T07:22:44.999Z</time></trkpt><trkpt lat="42.33661826190566" lon="14.011046552152282"><ele>181.0</ele><time>2026-05-02T07:22:45.999Z</time></trkpt><trkpt lat="42.3365078917195" lon="14.01111985796312"><ele>181.0</ele><time>2026-05-02T07:22:46.999Z</time></trkpt><trkpt lat="42.336404978585584" lon="14.011213762255489"><ele>183.75</ele><time>2026-05-02T07:22:47.999Z</time></trkpt><trkpt lat="42.33632773698965" lon="14.011340425366521"><ele>186.5</ele><time>2026-05-02T07:22:48.999Z</time></trkpt><trkpt lat="42.33626791185439" lon="14.011500340184304"><ele>189.25</ele><time>2026-05-02T07:22:49.999Z</time></trkpt><trkpt lat="42.336214824573624" lon="14.011673382996928"><ele>192.0</ele><time>2026-05-02T07:22:50.999Z</time></trkpt><trkpt lat="42.33615636129347" lon="14.011852635768664"><ele>192.5</ele><time>2026-05-02T07:22:51.999Z</time></trkpt><trkpt lat="42.336093212499435" lon="14.012024843630384"><ele>193.0</ele><time>2026-05-02T07:22:52.999Z</time></trkpt><trkpt lat="42.3360380195562" lon="14.012196658562896"><ele>193.5</ele><time>2026-05-02T07:22:53.999Z</time></trkpt><trkpt lat="42.336009717849954" lon="14.012379813918454"><ele>194.0</ele><time>2026-05-02T07:22:54.999Z</time></trkpt><trkpt lat="42.33601046615874" lon="14.012568299363219"><ele>195.25</ele><time>2026-05-02T07:22:55.999Z</time></trkpt><trkpt lat="42.33602182298347" lon="14.012759328358266"><ele>196.5</ele><time>2026-05-02T07:22:56.999Z</time></trkpt><trkpt lat="42.33603825900707" lon="14.012946388347357"><ele>197.75</ele><time>2026-05-02T07:22:57.999Z</time></trkpt><trkpt lat="42.33605337571675" lon="14.013132904411874"><ele>199.0</ele><time>2026-05-02T07:22:58.999Z</time></trkpt><trkpt lat="42.336062188820925" lon="14.01328803265559"><ele>199.79999999999998</ele><time>2026-05-02T07:22:59.999Z</time></trkpt><trkpt lat="42.336064613699136" lon="14.013417862855764"><ele>200.6</ele><time>2026-05-02T07:23:00.999Z</time></trkpt><trkpt lat="42.33606879708702" lon="14.013530877909187"><ele>201.4</ele><time>2026-05-02T07:23:01.999Z</time></trkpt><trkpt lat="42.336072092597725" lon="14.013653967646265"><ele>202.2</ele><time>2026-05-02T07:23:02.999Z</time></trkpt><trkpt lat="42.33607046972116" lon="14.013789605302948"><ele>203.0</ele><time>2026-05-02T07:23:03.999Z</time></trkpt><trkpt lat="42.33606688693955" lon="14.013930099965037"><ele>203.00000000000003</ele><time>2026-05-02T07:23:04.999Z</time></trkpt><trkpt lat="42.336066241300905" lon="14.014072530179018"><ele>203.0</ele><time>2026-05-02T07:23:05.999Z</time></trkpt><trkpt lat="42.336069665327166" lon="14.014192885539055"><ele>203.0</ele><time>2026-05-02T07:23:06.999Z</time></trkpt><trkpt lat="42.33606952325834" lon="14.014303510986153"><ele>203.0</ele><time>2026-05-02T07:23:07.999Z</time></trkpt><trkpt lat="42.336072635707325" lon="14.014410194959531"><ele>203.00000000000003</ele><time>2026-05-02T07:23:08.999Z</time></trkpt><trkpt lat="42.33607925824076" lon="14.014528260269808"><ele>203.0</ele><time>2026-05-02T07:23:09.999Z</time></trkpt><trkpt lat="42.336085569778355" lon="14.0146444080823"><ele>203.14285714285714</ele><time>2026-05-02T07:23:10.999Z</time></trkpt><trkpt lat="42.33610861907607" lon="14.014751018368559"><ele>203.28571428571428</ele><time>2026-05-02T07:23:11.999Z</time></trkpt><trkpt lat="42.336147743855285" lon="14.014837819212984"><ele>203.42857142857144</ele><time>2026-05-02T07:23:12.999Z</time></trkpt><trkpt lat="42.33618325432046" lon="14.014928031844203"><ele>203.57142857142856</ele><time>2026-05-02T07:23:13.999Z</time></trkpt><trkpt lat="42.336202744711166" lon="14.015024064116306"><ele>203.71428571428572</ele><time>2026-05-02T07:23:14.999Z</time></trkpt><trkpt lat="42.33619336047918" lon="14.01511074521336"><ele>203.85714285714286</ele><time>2026-05-02T07:23:15.999Z</time></trkpt><trkpt lat="42.33614199057868" lon="14.015171646410678"><ele>204.0</ele><time>2026-05-02T07:23:16.999Z</time></trkpt><trkpt lat="42.336068350481646" lon="14.015179561427768"><ele>204.0</ele><time>2026-05-02T07:23:17.999Z</time></trkpt><trkpt lat="42.335996741484486" lon="14.0151309850331"><ele>204.0</ele><time>2026-05-02T07:23:18.999Z</time></trkpt><trkpt lat="42.335932837999465" lon="14.015049700791353"><ele>204.0</ele><time>2026-05-02T07:23:19.999Z</time></trkpt><trkpt lat="42.335862489401876" lon="14.014981967928462"><ele>204.0</ele><time>2026-05-02T07:23:20.999Z</time></trkpt><trkpt lat="42.335796303535666" lon="14.01492981134926"><ele>204.0</ele><time>2026-05-02T07:23:21.999Z</time></trkpt><trkpt lat="42.33571864546408" lon="14.014825101854546"><ele>204.0</ele><time>2026-05-02T07:23:23.999Z</time></trkpt><trkpt lat="42.33568295614875" lon="14.014700775925162"><ele>204.0</ele><time>2026-05-02T07:23:25.999Z</time></trkpt><trkpt lat="42.335650825683885" lon="14.01460317587052"><ele>204.0</ele><time>2026-05-02T07:23:27.999Z</time></trkpt><trkpt lat="42.33552522662604" lon="14.014554163891846"><ele>204.0</ele><time>2026-05-02T07:23:29.999Z</time></trkpt><trkpt lat="42.335439373537156" lon="14.014575630435441"><ele>204.0</ele><time>2026-05-02T07:23:30.999Z</time></trkpt><trkpt lat="42.335323078576" lon="14.014572869087463"><ele>204.0</ele><time>2026-05-02T07:23:31.999Z</time></trkpt><trkpt lat="42.3351824935373" lon="14.014552956129016"><ele>204.75</ele><time>2026-05-02T07:23:32.999Z</time></trkpt><trkpt lat="42.335045288953545" lon="14.014541117725754"><ele>205.5</ele><time>2026-05-02T07:23:33.999Z</time></trkpt><trkpt lat="42.33490298292447" lon="14.014516733903575"><ele>206.25</ele><time>2026-05-02T07:23:34.999Z</time></trkpt><trkpt lat="42.33475972763099" lon="14.014497900389603"><ele>207.0</ele><time>2026-05-02T07:23:35.999Z</time></trkpt><trkpt lat="42.33461447150244" lon="14.014482412562064"><ele>205.25</ele><time>2026-05-02T07:23:36.999Z</time></trkpt><trkpt lat="42.334468730951365" lon="14.014463924937614"><ele>203.5</ele><time>2026-05-02T07:23:37.999Z</time></trkpt><trkpt lat="42.334323948223876" lon="14.014445160589235"><ele>201.75</ele><time>2026-05-02T07:23:38.999Z</time></trkpt><trkpt lat="42.33417895353732" lon="14.01442807525602"><ele>200.0</ele><time>2026-05-02T07:23:39.999Z</time></trkpt><trkpt lat="42.33402962329455" lon="14.014409286694365"><ele>198.66666666666669</ele><time>2026-05-02T07:23:40.999Z</time></trkpt><trkpt lat="42.33388060918125" lon="14.014391654474574"><ele>197.33333333333331</ele><time>2026-05-02T07:23:41.999Z</time></trkpt><trkpt lat="42.33372762237635" lon="14.01437910763835"><ele>196.0</ele><time>2026-05-02T07:23:42.999Z</time></trkpt><trkpt lat="42.333581308706876" lon="14.014359561841491"><ele>196.0</ele><time>2026-05-02T07:23:43.999Z</time></trkpt><trkpt lat="42.333431207792444" lon="14.014331967315766"><ele>196.0</ele><time>2026-05-02T07:23:44.999Z</time></trkpt><trkpt lat="42.333285618192505" lon="14.014317588321479"><ele>196.0</ele><time>2026-05-02T07:23:45.999Z</time></trkpt><trkpt lat="42.3331412217617" lon="14.014296092596913"><ele>196.0</ele><time>2026-05-02T07:23:46.999Z</time></trkpt><trkpt lat="42.33299887367064" lon="14.014276301960868"><ele>195.25</ele><time>2026-05-02T07:23:47.999Z</time></trkpt><trkpt lat="42.332856475432806" lon="14.014254484100189"><ele>194.5</ele><time>2026-05-02T07:23:48.999Z</time></trkpt><trkpt lat="42.332715805942215" lon="14.014235745173455"><ele>193.75</ele><time>2026-05-02T07:23:49.999Z</time></trkpt><trkpt lat="42.332580384132505" lon="14.014219926906009"><ele>193.0</ele><time>2026-05-02T07:23:50.999Z</time></trkpt><trkpt lat="42.332439417601265" lon="14.01420068579487"><ele>193.0</ele><time>2026-05-02T07:23:51.999Z</time></trkpt><trkpt lat="42.33230230096198" lon="14.014188288008347"><ele>193.0</ele><time>2026-05-02T07:23:52.999Z</time></trkpt><trkpt lat="42.332125235064424" lon="14.014188623830803"><ele>193.0</ele><time>2026-05-02T07:23:53.999Z</time></trkpt><trkpt lat="42.331931894586205" lon="14.014191121802543"><ele>190.75</ele><time>2026-05-02T07:23:54.999Z</time></trkpt><trkpt lat="42.331886007810475" lon="14.014270797521172"><ele>188.5</ele><time>2026-05-02T07:23:55.999Z</time></trkpt><trkpt lat="42.33175300058195" lon="14.01435827501721"><ele>186.25</ele><time>2026-05-02T07:23:56.999Z</time></trkpt><trkpt lat="42.33162447013358" lon="14.014463204760725"><ele>184.0</ele><time>2026-05-02T07:23:57.999Z</time></trkpt><trkpt lat="42.33149491292094" lon="14.014559844147046"><ele>181.5</ele><time>2026-05-02T07:23:58.999Z</time></trkpt><trkpt lat="42.33137031028789" lon="14.014655670451516"><ele>179.0</ele><time>2026-05-02T07:23:59.999Z</time></trkpt><trkpt lat="42.33124860809928" lon="14.014755133675653"><ele>176.5</ele><time>2026-05-02T07:24:00.999Z</time></trkpt><trkpt lat="42.331135540626846" lon="14.01485039852269"><ele>174.0</ele><time>2026-05-02T07:24:01.998Z</time></trkpt><trkpt lat="42.33102012453814" lon="14.014937430744048"><ele>173.5</ele><time>2026-05-02T07:24:02.998Z</time></trkpt><trkpt lat="42.330906052300314" lon="14.015001201183694"><ele>173.0</ele><time>2026-05-02T07:24:03.998Z</time></trkpt><trkpt lat="42.33078166918135" lon="14.015046897702748"><ele>172.5</ele><time>2026-05-02T07:24:04.998Z</time></trkpt><trkpt lat="42.33065210146548" lon="14.015062301977713"><ele>172.0</ele><time>2026-05-02T07:24:05.998Z</time></trkpt><trkpt lat="42.330517682804285" lon="14.01504279330486"><ele>171.5</ele><time>2026-05-02T07:24:06.998Z</time></trkpt><trkpt lat="42.33038343128581" lon="14.014970946033543"><ele>171.0</ele><time>2026-05-02T07:24:07.998Z</time></trkpt><trkpt lat="42.330265897938084" lon="14.014875507464547"><ele>170.5</ele><time>2026-05-02T07:24:08.998Z</time></trkpt><trkpt lat="42.33015836523784" lon="14.014743413335944"><ele>170.0</ele><time>2026-05-02T07:24:09.998Z</time></trkpt><trkpt lat="42.3300624401438" lon="14.01458770063438"><ele>170.0</ele><time>2026-05-02T07:24:10.998Z</time></trkpt><trkpt lat="42.32995768160774" lon="14.014424477434467"><ele>170.0</ele><time>2026-05-02T07:24:11.998Z</time></trkpt><trkpt lat="42.32984652217561" lon="14.014259509434472"><ele>170.0</ele><time>2026-05-02T07:24:12.998Z</time></trkpt><trkpt lat="42.329737060038084" lon="14.014098612913118"><ele>167.66666666666666</ele><time>2026-05-02T07:24:13.998Z</time></trkpt><trkpt lat="42.329632373927836" lon="14.013940886269156"><ele>165.33333333333334</ele><time>2026-05-02T07:24:14.998Z</time></trkpt><trkpt lat="42.32952680075066" lon="14.013788149734703"><ele>163.0</ele><time>2026-05-02T07:24:15.998Z</time></trkpt><trkpt lat="42.32942534064832" lon="14.013638842212742"><ele>163.0</ele><time>2026-05-02T07:24:17Z</time></trkpt><trkpt lat="42.32933472544541" lon="14.01349768283664"><ele>163.0</ele><time>2026-05-02T07:24:18Z</time></trkpt><trkpt lat="42.3292476257843" lon="14.013354977642328"><ele>163.0</ele><time>2026-05-02T07:24:19Z</time></trkpt><trkpt lat="42.32916863761639" lon="14.01321409749273"><ele>163.0</ele><time>2026-05-02T07:24:20Z</time></trkpt><trkpt lat="42.32909564291637" lon="14.013070800728089"><ele>161.75</ele><time>2026-05-02T07:24:21Z</time></trkpt><trkpt lat="42.329024217309076" lon="14.01293280216409"><ele>160.5</ele><time>2026-05-02T07:24:22Z</time></trkpt><trkpt lat="42.32895018307778" lon="14.012798467180245"><ele>159.25</ele><time>2026-05-02T07:24:23Z</time></trkpt><trkpt lat="42.32887024465902" lon="14.012645495001872"><ele>158.0</ele><time>2026-05-02T07:24:24Z</time></trkpt><trkpt lat="42.32877564773487" lon="14.012509302919671"><ele>158.0</ele><time>2026-05-02T07:24:25Z</time></trkpt><trkpt lat="42.32865572185352" lon="14.012389912382273"><ele>158.0</ele><time>2026-05-02T07:24:26Z</time></trkpt><trkpt lat="42.32852330823936" lon="14.012302820540093"><ele>158.0</ele><time>2026-05-02T07:24:27Z</time></trkpt><trkpt lat="42.32837870832443" lon="14.012243875245614"><ele>158.0</ele><time>2026-05-02T07:24:28Z</time></trkpt><trkpt lat="42.328234366037144" lon="14.012187286985435"><ele>158.0</ele><time>2026-05-02T07:24:29Z</time></trkpt><trkpt lat="42.32809394293157" lon="14.012139673325986"><ele>158.0</ele><time>2026-05-02T07:24:30Z</time></trkpt><trkpt lat="42.32795341560325" lon="14.01208322036091"><ele>158.0</ele><time>2026-05-02T07:24:31Z</time></trkpt><trkpt lat="42.32781668816091" lon="14.012028148138798"><ele>158.0</ele><time>2026-05-02T07:24:32Z</time></trkpt><trkpt lat="42.32767469646676" lon="14.011972712673451"><ele>157.0</ele><time>2026-05-02T07:24:33Z</time></trkpt><trkpt lat="42.327545257199674" lon="14.011923352175849"><ele>156.0</ele><time>2026-05-02T07:24:34Z</time></trkpt><trkpt lat="42.32741724437816" lon="14.011871667508816"><ele>155.0</ele><time>2026-05-02T07:24:35Z</time></trkpt><trkpt lat="42.3272933235231" lon="14.011829789129347"><ele>154.0</ele><time>2026-05-02T07:24:36Z</time></trkpt><trkpt lat="42.32717997790937" lon="14.011799302387285"><ele>153.2</ele><time>2026-05-02T07:24:37Z</time></trkpt><trkpt lat="42.32707692923855" lon="14.011774169841427"><ele>152.4</ele><time>2026-05-02T07:24:38Z</time></trkpt><trkpt lat="42.32697872192498" lon="14.011744161363735"><ele>151.6</ele><time>2026-05-02T07:24:39Z</time></trkpt><trkpt lat="42.32689195524907" lon="14.011710097120835"><ele>150.8</ele><time>2026-05-02T07:24:40Z</time></trkpt><trkpt lat="42.32681319062872" lon="14.011656630846005"><ele>150.0</ele><time>2026-05-02T07:24:41Z</time></trkpt><trkpt lat="42.326733197646746" lon="14.011577067926725"><ele>150.0</ele><time>2026-05-02T07:24:42Z</time></trkpt><trkpt lat="42.32667029963591" lon="14.01145683045823"><ele>150.0</ele><time>2026-05-02T07:24:43Z</time></trkpt><trkpt lat="42.32662501342483" lon="14.011301808890504"><ele>150.0</ele><time>2026-05-02T07:24:44Z</time></trkpt><trkpt lat="42.32657432246967" lon="14.011127489780703"><ele>150.0</ele><time>2026-05-02T07:24:45Z</time></trkpt><trkpt lat="42.32651492404889" lon="14.010920206329988"><ele>149.66666666666666</ele><time>2026-05-02T07:24:46Z</time></trkpt><trkpt lat="42.3264463619981" lon="14.010716441170167"><ele>149.33333333333331</ele><time>2026-05-02T07:24:47Z</time></trkpt><trkpt lat="42.3263756145095" lon="14.010514302669135"><ele>149.0</ele><time>2026-05-02T07:24:48Z</time></trkpt><trkpt lat="42.32630871173677" lon="14.01030872776403"><ele>147.66666666666666</ele><time>2026-05-02T07:24:48.999Z</time></trkpt><trkpt lat="42.32624691738993" lon="14.010109222656599"><ele>146.33333333333334</ele><time>2026-05-02T07:24:49.999Z</time></trkpt><trkpt lat="42.32618359513752" lon="14.009921847305135"><ele>145.0</ele><time>2026-05-02T07:24:50.999Z</time></trkpt><trkpt lat="42.326120973581226" lon="14.009751301661112"><ele>145.0</ele><time>2026-05-02T07:24:51.999Z</time></trkpt><trkpt lat="42.32606357524898" lon="14.00958089024391"><ele>145.0</ele><time>2026-05-02T07:24:52.999Z</time></trkpt><trkpt lat="42.32601146409534" lon="14.00941856130369"><ele>145.0</ele><time>2026-05-02T07:24:53.999Z</time></trkpt><trkpt lat="42.32596514006767" lon="14.009258114844812"><ele>145.0</ele><time>2026-05-02T07:24:54.999Z</time></trkpt><trkpt lat="42.32591382561061" lon="14.009094875013954"><ele>144.5</ele><time>2026-05-02T07:24:55.999Z</time></trkpt><trkpt lat="42.325850249474655" lon="14.008927272181127"><ele>144.0</ele><time>2026-05-02T07:24:56.999Z</time></trkpt><trkpt lat="42.325795563279705" lon="14.008754834806295"><ele>143.5</ele><time>2026-05-02T07:24:57.999Z</time></trkpt><trkpt lat="42.32574199612069" lon="14.0085827680726"><ele>143.0</ele><time>2026-05-02T07:24:58.999Z</time></trkpt><trkpt lat="42.32568798681435" lon="14.00841611245378"><ele>142.0</ele><time>2026-05-02T07:24:59.999Z</time></trkpt><trkpt lat="42.32563256227452" lon="14.008245799424452"><ele>141.0</ele><time>2026-05-02T07:25:00.999Z</time></trkpt><trkpt lat="42.32556462590603" lon="14.008066989813436"><ele>140.0</ele><time>2026-05-02T07:25:01.999Z</time></trkpt><trkpt lat="42.32548272885143" lon="14.007881952466334"><ele>139.0</ele><time>2026-05-02T07:25:02.999Z</time></trkpt><trkpt lat="42.32539442640063" lon="14.007698550395073"><ele>139.0</ele><time>2026-05-02T07:25:03.999Z</time></trkpt><trkpt lat="42.325308664597905" lon="14.007513174921241"><ele>139.0</ele><time>2026-05-02T07:25:04.999Z</time></trkpt><trkpt lat="42.32521961660362" lon="14.00732669904576"><ele>139.0</ele><time>2026-05-02T07:25:05.999Z</time></trkpt><trkpt lat="42.325138772962326" lon="14.007123037114855"><ele>138.0</ele><time>2026-05-02T07:25:06.999Z</time></trkpt><trkpt lat="42.32507616207093" lon="14.006912656974054"><ele>137.0</ele><time>2026-05-02T07:25:07.999Z</time></trkpt><trkpt lat="42.325014967456134" lon="14.00667932806069"><ele>136.0</ele><time>2026-05-02T07:25:08.999Z</time></trkpt><trkpt lat="42.32495835163124" lon="14.006441367599354"><ele>135.66666666666669</ele><time>2026-05-02T07:25:09.999Z</time></trkpt><trkpt lat="42.32489703193568" lon="14.006180303189007"><ele>135.33333333333334</ele><time>2026-05-02T07:25:10.999Z</time></trkpt><trkpt lat="42.32483256678708" lon="14.005905824361408"><ele>135.0</ele><time>2026-05-02T07:25:11.999Z</time></trkpt><trkpt lat="42.32476894244233" lon="14.005644974033334"><ele>135.0</ele><time>2026-05-02T07:25:12.999Z</time></trkpt><trkpt lat="42.32470588250023" lon="14.005398576562289"><ele>135.0</ele><time>2026-05-02T07:25:13.999Z</time></trkpt><trkpt lat="42.32464380726841" lon="14.005151209045298"><ele>135.0</ele><time>2026-05-02T07:25:14.999Z</time></trkpt><trkpt lat="42.32456841428743" lon="14.004900551601613"><ele>135.0</ele><time>2026-05-02T07:25:15.999Z</time></trkpt><trkpt lat="42.32448120858674" lon="14.004657975329458"><ele>135.0</ele><time>2026-05-02T07:25:16.999Z</time></trkpt><trkpt lat="42.324396116245246" lon="14.004410084484354"><ele>135.0</ele><time>2026-05-02T07:25:17.999Z</time></trkpt><trkpt lat="42.3243065449503" lon="14.004166008798197"><ele>136.33333333333334</ele><time>2026-05-02T07:25:18.999Z</time></trkpt><trkpt lat="42.324212241498316" lon="14.003924499219156"><ele>137.66666666666669</ele><time>2026-05-02T07:25:19.999Z</time></trkpt><trkpt lat="42.32411514374715" lon="14.003686260832865"><ele>139.0</ele><time>2026-05-02T07:25:20.999Z</time></trkpt><trkpt lat="42.32402337632576" lon="14.00344886098337"><ele>138.0</ele><time>2026-05-02T07:25:21.999Z</time></trkpt><trkpt lat="42.323931653943" lon="14.00321052067405"><ele>137.0</ele><time>2026-05-02T07:25:22.999Z</time></trkpt><trkpt lat="42.32384793686522" lon="14.002970806333964"><ele>136.0</ele><time>2026-05-02T07:25:23.999Z</time></trkpt><trkpt lat="42.323762135682635" lon="14.002732729376307"><ele>136.66666666666669</ele><time>2026-05-02T07:25:24.999Z</time></trkpt><trkpt lat="42.3236767884975" lon="14.002497689236272"><ele>137.33333333333334</ele><time>2026-05-02T07:25:25.999Z</time></trkpt><trkpt lat="42.32359687269018" lon="14.002263358275666"><ele>138.0</ele><time>2026-05-02T07:25:26.999Z</time></trkpt><trkpt lat="42.323515780631375" lon="14.002032666301124"><ele>138.0</ele><time>2026-05-02T07:25:27.999Z</time></trkpt><trkpt lat="42.323435743306696" lon="14.00179504494895"><ele>138.0</ele><time>2026-05-02T07:25:28.999Z</time></trkpt><trkpt lat="42.323355276286705" lon="14.001554505652289"><ele>138.0</ele><time>2026-05-02T07:25:29.999Z</time></trkpt><trkpt lat="42.32327569856575" lon="14.001315715061137"><ele>138.66666666666666</ele><time>2026-05-02T07:25:30.999Z</time></trkpt><trkpt lat="42.323199469338185" lon="14.001077494768406"><ele>139.33333333333331</ele><time>2026-05-02T07:25:31.999Z</time></trkpt><trkpt lat="42.32312300897575" lon="14.000847166414458"><ele>140.0</ele><time>2026-05-02T07:25:32.999Z</time></trkpt><trkpt lat="42.3230469825145" lon="14.000615824657162"><ele>138.33333333333331</ele><time>2026-05-02T07:25:33.999Z</time></trkpt><trkpt lat="42.32296921643279" lon="14.000380701189195"><ele>136.66666666666666</ele><time>2026-05-02T07:25:34.999Z</time></trkpt><trkpt lat="42.322890079848875" lon="14.000160734912878"><ele>135.0</ele><time>2026-05-02T07:25:35.999Z</time></trkpt><trkpt lat="42.32281721997821" lon="13.999932342106613"><ele>135.0</ele><time>2026-05-02T07:25:36.999Z</time></trkpt><trkpt lat="42.32274769966822" lon="13.999715521461459"><ele>135.0</ele><time>2026-05-02T07:25:37.999Z</time></trkpt><trkpt lat="42.32267692359923" lon="13.999499991247568"><ele>135.0</ele><time>2026-05-02T07:25:38.999Z</time></trkpt><trkpt lat="42.322604251153074" lon="13.999280271058078"><ele>136.33333333333334</ele><time>2026-05-02T07:25:39.999Z</time></trkpt><trkpt lat="42.32253199027619" lon="13.999050914018849"><ele>137.66666666666669</ele><time>2026-05-02T07:25:40.999Z</time></trkpt><trkpt lat="42.322458959468676" lon="13.998824407558411"><ele>139.0</ele><time>2026-05-02T07:25:41.999Z</time></trkpt><trkpt lat="42.32238342272482" lon="13.998600884840924"><ele>139.0</ele><time>2026-05-02T07:25:42.999Z</time></trkpt><trkpt lat="42.32231066470007" lon="13.9983685730077"><ele>139.0</ele><time>2026-05-02T07:25:43.999Z</time></trkpt><trkpt lat="42.32223812613546" lon="13.99814273557483"><ele>139.0</ele><time>2026-05-02T07:25:44.999Z</time></trkpt><trkpt lat="42.32217931489267" lon="13.99790360694875"><ele>137.33333333333334</ele><time>2026-05-02T07:25:45.999Z</time></trkpt><trkpt lat="42.322164236811155" lon="13.997630814097754"><ele>135.66666666666666</ele><time>2026-05-02T07:25:46.999Z</time></trkpt><trkpt lat="42.32216110152996" lon="13.997350919321637"><ele>134.0</ele><time>2026-05-02T07:25:47.999Z</time></trkpt><trkpt lat="42.321957471002285" lon="13.99718712288891"><ele>134.0</ele><time>2026-05-02T07:25:48.999Z</time></trkpt><trkpt lat="42.32188397478736" lon="13.996947584681239"><ele>134.0</ele><time>2026-05-02T07:25:49.999Z</time></trkpt><trkpt lat="42.32180853850577" lon="13.99671078293275"><ele>134.0</ele><time>2026-05-02T07:25:50.999Z</time></trkpt><trkpt lat="42.321731419406625" lon="13.996474729270075"><ele>134.0</ele><time>2026-05-02T07:25:51.999Z</time></trkpt><trkpt lat="42.32165617280844" lon="13.99624023833444"><ele>134.0</ele><time>2026-05-02T07:25:52.999Z</time></trkpt><trkpt lat="42.32157535061795" lon="13.996004572206747"><ele>134.0</ele><time>2026-05-02T07:25:53.999Z</time></trkpt><trkpt lat="42.32149710961093" lon="13.995773892586122"><ele>134.0</ele><time>2026-05-02T07:25:54.999Z</time></trkpt><trkpt lat="42.32141611024573" lon="13.995539849866796"><ele>134.0</ele><time>2026-05-02T07:25:55.999Z</time></trkpt><trkpt lat="42.32133610530838" lon="13.995307445023249"><ele>134.0</ele><time>2026-05-02T07:25:56.999Z</time></trkpt><trkpt lat="42.321252247924804" lon="13.99507980927726"><ele>133.66666666666666</ele><time>2026-05-02T07:25:57.999Z</time></trkpt><trkpt lat="42.32116895035505" lon="13.994850660378445"><ele>133.33333333333334</ele><time>2026-05-02T07:25:58.999Z</time></trkpt><trkpt lat="42.32108538399211" lon="13.994630776291144"><ele>133.0</ele><time>2026-05-02T07:25:59.999Z</time></trkpt><trkpt lat="42.321001440138254" lon="13.994414094346634"><ele>133.0</ele><time>2026-05-02T07:26:00.999Z</time></trkpt><trkpt lat="42.32091647732811" lon="13.994214635015558"><ele>133.0</ele><time>2026-05-02T07:26:01.999Z</time></trkpt><trkpt lat="42.32084588895646" lon="13.994045138891543"><ele>133.0</ele><time>2026-05-02T07:26:02.999Z</time></trkpt><trkpt lat="42.32078149881711" lon="13.993900785444273"><ele>133.0</ele><time>2026-05-02T07:26:03.999Z</time></trkpt><trkpt lat="42.32072534777563" lon="13.993784890383823"><ele>133.20000000000002</ele><time>2026-05-02T07:26:04.999Z</time></trkpt><trkpt lat="42.320678363078336" lon="13.993702203116035"><ele>133.4</ele><time>2026-05-02T07:26:05.999Z</time></trkpt><trkpt lat="42.32063344111116" lon="13.993641668461917"><ele>133.60000000000002</ele><time>2026-05-02T07:26:06.999Z</time></trkpt><trkpt lat="42.32053173374585" lon="13.993623569284184"><ele>133.8</ele><time>2026-05-02T07:26:08.999Z</time></trkpt><trkpt lat="42.32039333192291" lon="13.99376110804328"><ele>134.0</ele><time>2026-05-02T07:26:10.999Z</time></trkpt><trkpt lat="42.32030311040605" lon="13.99383036819425"><ele>135.0</ele><time>2026-05-02T07:26:11.998Z</time></trkpt><trkpt lat="42.320198829506175" lon="13.993906158047313"><ele>136.0</ele><time>2026-05-02T07:26:12.998Z</time></trkpt><trkpt lat="42.32010875211985" lon="13.994002438940669"><ele>137.0</ele><time>2026-05-02T07:26:13.998Z</time></trkpt><trkpt lat="42.32002964885061" lon="13.994139138226297"><ele>138.0</ele><time>2026-05-02T07:26:14.998Z</time></trkpt><trkpt lat="42.31996493811691" lon="13.99428962210897"><ele>138.0</ele><time>2026-05-02T07:26:15.998Z</time></trkpt><trkpt lat="42.31988684782551" lon="13.994439212941364"><ele>138.0</ele><time>2026-05-02T07:26:16.998Z</time></trkpt><trkpt lat="42.31979596085832" lon="13.994592495382106"><ele>138.0</ele><time>2026-05-02T07:26:17.998Z</time></trkpt><trkpt lat="42.31969842543071" lon="13.994735618754378"><ele>138.0</ele><time>2026-05-02T07:26:18.998Z</time></trkpt><trkpt lat="42.31959994836919" lon="13.994880112249819"><ele>139.0</ele><time>2026-05-02T07:26:19.998Z</time></trkpt><trkpt lat="42.319505989655305" lon="13.995046933689654"><ele>140.0</ele><time>2026-05-02T07:26:20.998Z</time></trkpt><trkpt lat="42.31941902032838" lon="13.995221293925542"><ele>141.0</ele><time>2026-05-02T07:26:21.998Z</time></trkpt><trkpt lat="42.31934230216094" lon="13.995390593720014"><ele>141.0</ele><time>2026-05-02T07:26:23Z</time></trkpt><trkpt lat="42.31925827024782" lon="13.995573808967054"><ele>141.0</ele><time>2026-05-02T07:26:24Z</time></trkpt><trkpt lat="42.319170857495116" lon="13.99576092363425"><ele>141.0</ele><time>2026-05-02T07:26:25Z</time></trkpt><trkpt lat="42.31908569597595" lon="13.995955725334458"><ele>140.66666666666666</ele><time>2026-05-02T07:26:26Z</time></trkpt><trkpt lat="42.31900178130267" lon="13.996147360664626"><ele>140.33333333333331</ele><time>2026-05-02T07:26:27Z</time></trkpt><trkpt lat="42.31891152806437" lon="13.99633666279466"><ele>140.0</ele><time>2026-05-02T07:26:28Z</time></trkpt><trkpt lat="42.318826936055736" lon="13.996520750120204"><ele>142.0</ele><time>2026-05-02T07:26:29Z</time></trkpt><trkpt lat="42.318749565132826" lon="13.996690519042525"><ele>144.0</ele><time>2026-05-02T07:26:30Z</time></trkpt><trkpt lat="42.31867909156946" lon="13.996838324894174"><ele>146.0</ele><time>2026-05-02T07:26:31Z</time></trkpt><trkpt lat="42.31863397647169" lon="13.997002059200263"><ele>148.0</ele><time>2026-05-02T07:26:32Z</time></trkpt><trkpt lat="42.31860262879211" lon="13.997249631064983"><ele>147.66666666666669</ele><time>2026-05-02T07:26:33Z</time></trkpt><trkpt lat="42.31857019290787" lon="13.997528254720123"><ele>147.33333333333334</ele><time>2026-05-02T07:26:34Z</time></trkpt><trkpt lat="42.318546568442635" lon="13.997779800108674"><ele>147.0</ele><time>2026-05-02T07:26:36Z</time></trkpt><trkpt lat="42.318521616201025" lon="13.997964644562217"><ele>147.0</ele><time>2026-05-02T07:26:37Z</time></trkpt><trkpt lat="42.318503367989734" lon="13.998150381244955"><ele>147.0</ele><time>2026-05-02T07:26:38Z</time></trkpt><trkpt lat="42.31848642145286" lon="13.998338929676597"><ele>147.0</ele><time>2026-05-02T07:26:39Z</time></trkpt><trkpt lat="42.31846640997438" lon="13.998508012168301"><ele>147.0</ele><time>2026-05-02T07:26:39.999Z</time></trkpt><trkpt lat="42.31845041066537" lon="13.998678731468303"><ele>146.5</ele><time>2026-05-02T07:26:40.999Z</time></trkpt><trkpt lat="42.31844020689413" lon="13.998849525574224"><ele>146.0</ele><time>2026-05-02T07:26:41.999Z</time></trkpt><trkpt lat="42.31842732118125" lon="13.999007547061668"><ele>145.5</ele><time>2026-05-02T07:26:42.999Z</time></trkpt><trkpt lat="42.31842036301767" lon="13.999179569030872"><ele>145.0</ele><time>2026-05-02T07:26:43.999Z</time></trkpt><trkpt lat="42.31841298957464" lon="13.99935398989443"><ele>143.5</ele><time>2026-05-02T07:26:44.999Z</time></trkpt><trkpt lat="42.31840352063464" lon="13.999530110717906"><ele>142.0</ele><time>2026-05-02T07:26:45.999Z</time></trkpt><trkpt lat="42.3183917132565" lon="13.999711867473557"><ele>140.5</ele><time>2026-05-02T07:26:46.999Z</time></trkpt><trkpt lat="42.31838440260398" lon="13.999894006359215"><ele>139.0</ele><time>2026-05-02T07:26:47.999Z</time></trkpt><trkpt lat="42.31837822604764" lon="14.000063018203857"><ele>139.0</ele><time>2026-05-02T07:26:48.999Z</time></trkpt><trkpt lat="42.31837738862008" lon="14.000214884045988"><ele>139.0</ele><time>2026-05-02T07:26:49.999Z</time></trkpt><trkpt lat="42.31837361133559" lon="14.00038976317655"><ele>139.0</ele><time>2026-05-02T07:26:50.999Z</time></trkpt><trkpt lat="42.31836233983687" lon="14.000582583185817"><ele>139.0</ele><time>2026-05-02T07:26:51.999Z</time></trkpt><trkpt lat="42.318352278425756" lon="14.000770457895605"><ele>138.2</ele><time>2026-05-02T07:26:52.999Z</time></trkpt><trkpt lat="42.31833957541785" lon="14.000935683620948"><ele>137.4</ele><time>2026-05-02T07:26:53.999Z</time></trkpt><trkpt lat="42.318332241948376" lon="14.001086246664784"><ele>136.6</ele><time>2026-05-02T07:26:54.999Z</time></trkpt><trkpt lat="42.31831971570639" lon="14.001214531304141"><ele>135.8</ele><time>2026-05-02T07:26:55.999Z</time></trkpt><trkpt lat="42.318295160645704" lon="14.001337381919198"><ele>135.0</ele><time>2026-05-02T07:26:56.998Z</time></trkpt><trkpt lat="42.318267144621345" lon="14.001445215214039"><ele>135.0</ele><time>2026-05-02T07:26:57.998Z</time></trkpt><trkpt lat="42.31822956961824" lon="14.00154367000363"><ele>135.0</ele><time>2026-05-02T07:26:58.998Z</time></trkpt><trkpt lat="42.31819920926624" lon="14.001636791132333"><ele>135.0</ele><time>2026-05-02T07:26:59.998Z</time></trkpt><trkpt lat="42.318190869454966" lon="14.001746914181842"><ele>135.0</ele><time>2026-05-02T07:27:00.998Z</time></trkpt><trkpt lat="42.318202746232636" lon="14.001847802145148"><ele>135.0</ele><time>2026-05-02T07:27:01.998Z</time></trkpt><trkpt lat="42.318224801313406" lon="14.001955756943072"><ele>135.0</ele><time>2026-05-02T07:27:02.998Z</time></trkpt><trkpt lat="42.318251756933286" lon="14.002054958221596"><ele>134.2</ele><time>2026-05-02T07:27:03.998Z</time></trkpt><trkpt lat="42.318281314223974" lon="14.002159852718757"><ele>133.4</ele><time>2026-05-02T07:27:04.998Z</time></trkpt><trkpt lat="42.31830757638891" lon="14.00226973699219"><ele>132.6</ele><time>2026-05-02T07:27:05.998Z</time></trkpt><trkpt lat="42.31833363625273" lon="14.002402155275279"><ele>131.8</ele><time>2026-05-02T07:27:06.998Z</time></trkpt><trkpt lat="42.31835219972888" lon="14.002517946305975"><ele>131.0</ele><time>2026-05-02T07:27:07.998Z</time></trkpt><trkpt lat="42.31837828393817" lon="14.002640679499693"><ele>129.6</ele><time>2026-05-02T07:27:08.998Z</time></trkpt><trkpt lat="42.318400245553576" lon="14.002779934346687"><ele>128.2</ele><time>2026-05-02T07:27:09.998Z</time></trkpt><trkpt lat="42.318410562362985" lon="14.002918129357978"><ele>126.80000000000001</ele><time>2026-05-02T07:27:10.998Z</time></trkpt><trkpt lat="42.31841623652169" lon="14.003062668165908"><ele>125.4</ele><time>2026-05-02T07:27:11.998Z</time></trkpt><trkpt lat="42.318435597385196" lon="14.003212997088854"><ele>124.0</ele><time>2026-05-02T07:27:12.998Z</time></trkpt><trkpt lat="42.31847235509692" lon="14.003387988102299"><ele>123.2</ele><time>2026-05-02T07:27:13.998Z</time></trkpt><trkpt lat="42.31851803641243" lon="14.00356165482656"><ele>122.4</ele><time>2026-05-02T07:27:14.998Z</time></trkpt><trkpt lat="42.31843091722739" lon="14.003624584945781"><ele>121.6</ele><time>2026-05-02T07:27:15.998Z</time></trkpt><trkpt lat="42.31839965857687" lon="14.00375372026887"><ele>120.8</ele><time>2026-05-02T07:27:16.998Z</time></trkpt><trkpt lat="42.31836185989099" lon="14.003889294887236"><ele>120.0</ele><time>2026-05-02T07:27:17.998Z</time></trkpt><trkpt lat="42.318318054249296" lon="14.004027148803896"><ele>120.0</ele><time>2026-05-02T07:27:18.998Z</time></trkpt><trkpt lat="42.318263967364715" lon="14.004158687977453"><ele>120.0</ele><time>2026-05-02T07:27:19.998Z</time></trkpt><trkpt lat="42.31820783913323" lon="14.004310812378487"><ele>120.0</ele><time>2026-05-02T07:27:20.998Z</time></trkpt><trkpt lat="42.31815199440664" lon="14.004474727084592"><ele>120.0</ele><time>2026-05-02T07:27:21.998Z</time></trkpt><trkpt lat="42.31809205857386" lon="14.004639598075816"><ele>119.25</ele><time>2026-05-02T07:27:22.998Z</time></trkpt><trkpt lat="42.31803260293368" lon="14.004787794310628"><ele>118.5</ele><time>2026-05-02T07:27:23.998Z</time></trkpt><trkpt lat="42.31796890462354" lon="14.004955780376038"><ele>117.75</ele><time>2026-05-02T07:27:24.998Z</time></trkpt><trkpt lat="42.31790383053046" lon="14.00513206909758"><ele>117.0</ele><time>2026-05-02T07:27:25.998Z</time></trkpt><trkpt lat="42.317841210379385" lon="14.00531971456486"><ele>117.0</ele><time>2026-05-02T07:27:26.998Z</time></trkpt><trkpt lat="42.31777626242202" lon="14.005509644464366"><ele>117.0</ele><time>2026-05-02T07:27:27.998Z</time></trkpt><trkpt lat="42.3177146485111" lon="14.005672692821902"><ele>117.0</ele><time>2026-05-02T07:27:28.998Z</time></trkpt><trkpt lat="42.317668067864545" lon="14.005814208581521"><ele>117.0</ele><time>2026-05-02T07:27:29.998Z</time></trkpt><trkpt lat="42.31762080886886" lon="14.00594384015924"><ele>117.75</ele><time>2026-05-02T07:27:30.998Z</time></trkpt><trkpt lat="42.31756255162471" lon="14.006079650054746"><ele>118.5</ele><time>2026-05-02T07:27:31.998Z</time></trkpt><trkpt lat="42.317512619592854" lon="14.006228058790795"><ele>119.25</ele><time>2026-05-02T07:27:32.998Z</time></trkpt><trkpt lat="42.31747320770088" lon="14.006383777655348"><ele>120.0</ele><time>2026-05-02T07:27:33.998Z</time></trkpt><trkpt lat="42.317440099501766" lon="14.006545489392932"><ele>120.0</ele><time>2026-05-02T07:27:34.998Z</time></trkpt><trkpt lat="42.31739986092904" lon="14.006695573487304"><ele>120.0</ele><time>2026-05-02T07:27:35.998Z</time></trkpt><trkpt lat="42.31735578290228" lon="14.006819470178534"><ele>120.0</ele><time>2026-05-02T07:27:36.998Z</time></trkpt><trkpt lat="42.317310751990874" lon="14.006951356094932"><ele>120.0</ele><time>2026-05-02T07:27:37.998Z</time></trkpt><trkpt lat="42.31725676605328" lon="14.007091137494864"><ele>120.0</ele><time>2026-05-02T07:27:38.998Z</time></trkpt><trkpt lat="42.31720922068911" lon="14.007212156543574"><ele>120.0</ele><time>2026-05-02T07:27:39.998Z</time></trkpt><trkpt lat="42.31717682356931" lon="14.007305816964056"><ele>120.0</ele><time>2026-05-02T07:27:40.998Z</time></trkpt><trkpt lat="42.31714410684764" lon="14.007403347430254"><ele>120.0</ele><time>2026-05-02T07:27:42.998Z</time></trkpt><trkpt lat="42.317127378278585" lon="14.00753056878439"><ele>120.0</ele><time>2026-05-02T07:27:44.998Z</time></trkpt><trkpt lat="42.31710747630134" lon="14.007625962220132"><ele>120.0</ele><time>2026-05-02T07:27:45.998Z</time></trkpt><trkpt lat="42.317069241574465" lon="14.007736203061501"><ele>120.0</ele><time>2026-05-02T07:27:46.998Z</time></trkpt><trkpt lat="42.31702404266893" lon="14.007831478028463"><ele>120.0</ele><time>2026-05-02T07:27:47.997Z</time></trkpt><trkpt lat="42.31697855580348" lon="14.0079067561277"><ele>120.0</ele><time>2026-05-02T07:27:48.997Z</time></trkpt><trkpt lat="42.31692845322601" lon="14.007974299496754"><ele>120.0</ele><time>2026-05-02T07:27:49.997Z</time></trkpt><trkpt lat="42.316871994366466" lon="14.008034781181433"><ele>120.0</ele><time>2026-05-02T07:27:50.997Z</time></trkpt><trkpt lat="42.31679845060892" lon="14.008105276229525"><ele>120.0</ele><time>2026-05-02T07:27:51.997Z</time></trkpt><trkpt lat="42.31672135698541" lon="14.008184425889237"><ele>120.0</ele><time>2026-05-02T07:27:52.997Z</time></trkpt><trkpt lat="42.316630811435765" lon="14.008276007887458"><ele>118.6</ele><time>2026-05-02T07:27:53.997Z</time></trkpt><trkpt lat="42.3165448823644" lon="14.008364883627587"><ele>117.2</ele><time>2026-05-02T07:27:54.997Z</time></trkpt><trkpt lat="42.31645452319514" lon="14.008454269722879"><ele>115.80000000000001</ele><time>2026-05-02T07:27:55.997Z</time></trkpt><trkpt lat="42.31637408944712" lon="14.008535449445512"><ele>114.4</ele><time>2026-05-02T07:27:56.997Z</time></trkpt><trkpt lat="42.316306838081466" lon="14.008610655342231"><ele>113.0</ele><time>2026-05-02T07:27:57.997Z</time></trkpt><trkpt lat="42.31625524377902" lon="14.008674994475472"><ele>112.60000000000001</ele><time>2026-05-02T07:27:58.997Z</time></trkpt><trkpt lat="42.31619240397379" lon="14.008774044027206"><ele>112.20000000000002</ele><time>2026-05-02T07:28:00.997Z</time></trkpt><trkpt lat="42.31611723172297" lon="14.008861553051215"><ele>111.8</ele><time>2026-05-02T07:28:02.997Z</time></trkpt><trkpt lat="42.31602480520762" lon="14.008912792763843"><ele>111.4</ele><time>2026-05-02T07:28:03.997Z</time></trkpt><trkpt lat="42.31589761801643" lon="14.00897428819898"><ele>111.0</ele><time>2026-05-02T07:28:04.997Z</time></trkpt><trkpt lat="42.315771394287744" lon="14.009058357072234"><ele>109.66666666666666</ele><time>2026-05-02T07:28:05.997Z</time></trkpt><trkpt lat="42.315646440478815" lon="14.00916265477393"><ele>108.33333333333333</ele><time>2026-05-02T07:28:06.997Z</time></trkpt><trkpt lat="42.315502064692296" lon="14.009273800060155"><ele>107.0</ele><time>2026-05-02T07:28:07.997Z</time></trkpt><trkpt lat="42.31534800608231" lon="14.009401025479649"><ele>107.0</ele><time>2026-05-02T07:28:08.997Z</time></trkpt><trkpt lat="42.315199248406444" lon="14.009531951176154"><ele>107.0</ele><time>2026-05-02T07:28:09.997Z</time></trkpt><trkpt lat="42.315048295484026" lon="14.009658718255878"><ele>107.0</ele><time>2026-05-02T07:28:10.997Z</time></trkpt><trkpt lat="42.31489682410641" lon="14.009787849649493"><ele>107.0</ele><time>2026-05-02T07:28:11.997Z</time></trkpt><trkpt lat="42.3147549177961" lon="14.009898730536646"><ele>107.0</ele><time>2026-05-02T07:28:12.997Z</time></trkpt><trkpt lat="42.31457639532515" lon="14.009992329044268"><ele>107.0</ele><time>2026-05-02T07:28:13.997Z</time></trkpt><trkpt lat="42.314384517751336" lon="14.010080925133149"><ele>106.25</ele><time>2026-05-02T07:28:14.997Z</time></trkpt><trkpt lat="42.31435141086887" lon="14.01021896438316"><ele>105.5</ele><time>2026-05-02T07:28:15.997Z</time></trkpt><trkpt lat="42.31422052254276" lon="14.010329589162868"><ele>104.75</ele><time>2026-05-02T07:28:16.997Z</time></trkpt><trkpt lat="42.31407504398949" lon="14.010452139626487"><ele>104.0</ele><time>2026-05-02T07:28:17.997Z</time></trkpt><trkpt lat="42.31392535756303" lon="14.010571854282793"><ele>104.0</ele><time>2026-05-02T07:28:18.997Z</time></trkpt><trkpt lat="42.31377882426053" lon="14.010698771649228"><ele>104.0</ele><time>2026-05-02T07:28:19.997Z</time></trkpt><trkpt lat="42.31363832536386" lon="14.010810521740263"><ele>104.0</ele><time>2026-05-02T07:28:20.997Z</time></trkpt><trkpt lat="42.313498820952425" lon="14.0109265583714"><ele>103.33333333333333</ele><time>2026-05-02T07:28:21.997Z</time></trkpt><trkpt lat="42.31334517973177" lon="14.011014106278992"><ele>102.66666666666666</ele><time>2026-05-02T07:28:22.997Z</time></trkpt><trkpt lat="42.31318270002174" lon="14.011068408926628"><ele>102.0</ele><time>2026-05-02T07:28:23.997Z</time></trkpt><trkpt lat="42.31301514143983" lon="14.011093725660952"><ele>102.0</ele><time>2026-05-02T07:28:24.997Z</time></trkpt><trkpt lat="42.312841934766446" lon="14.011117545295278"><ele>102.0</ele><time>2026-05-02T07:28:25.997Z</time></trkpt><trkpt lat="42.312673962702796" lon="14.011138549978915"><ele>102.0</ele><time>2026-05-02T07:28:26.997Z</time></trkpt><trkpt lat="42.312500483922285" lon="14.011158005633963"><ele>102.0</ele><time>2026-05-02T07:28:27.997Z</time></trkpt><trkpt lat="42.31232860896674" lon="14.011170127878119"><ele>102.0</ele><time>2026-05-02T07:28:28.998Z</time></trkpt><trkpt lat="42.31215358989701" lon="14.01116994879392"><ele>102.0</ele><time>2026-05-02T07:28:29.998Z</time></trkpt><trkpt lat="42.31197523132629" lon="14.01115311603732"><ele>102.33333333333334</ele><time>2026-05-02T07:28:30.998Z</time></trkpt><trkpt lat="42.31179717209993" lon="14.011123622095536"><ele>102.66666666666667</ele><time>2026-05-02T07:28:31.999Z</time></trkpt><trkpt lat="42.311623071991214" lon="14.011079514733057"><ele>103.0</ele><time>2026-05-02T07:28:32.999Z</time></trkpt><trkpt lat="42.31144391150376" lon="14.011035424237665"><ele>102.33333333333334</ele><time>2026-05-02T07:28:33.999Z</time></trkpt><trkpt lat="42.31126236692217" lon="14.011004601944665"><ele>101.66666666666666</ele><time>2026-05-02T07:28:34.999Z</time></trkpt><trkpt lat="42.311080677521346" lon="14.01097695823793"><ele>101.0</ele><time>2026-05-02T07:28:35.999Z</time></trkpt><trkpt lat="42.31089692116074" lon="14.01093984031122"><ele>101.0</ele><time>2026-05-02T07:28:36.999Z</time></trkpt><trkpt lat="42.31071090680813" lon="14.010907962964664"><ele>101.0</ele><time>2026-05-02T07:28:37.999Z</time></trkpt><trkpt lat="42.31052464121958" lon="14.010872718972557"><ele>101.0</ele><time>2026-05-02T07:28:38.999Z</time></trkpt><trkpt lat="42.310339501999856" lon="14.010833887477437"><ele>101.33333333333333</ele><time>2026-05-02T07:28:39.999Z</time></trkpt><trkpt lat="42.31015658404661" lon="14.010794494925696"><ele>101.66666666666666</ele><time>2026-05-02T07:28:40.999Z</time></trkpt><trkpt lat="42.309969170766195" lon="14.010760812452178"><ele>102.0</ele><time>2026-05-02T07:28:41.999Z</time></trkpt><trkpt lat="42.30978716516663" lon="14.010731812455077"><ele>102.33333333333334</ele><time>2026-05-02T07:28:42.999Z</time></trkpt><trkpt lat="42.3096017773494" lon="14.010702046170492"><ele>102.66666666666667</ele><time>2026-05-02T07:28:43.999Z</time></trkpt><trkpt lat="42.3094192076563" lon="14.010664844629499"><ele>103.0</ele><time>2026-05-02T07:28:44.999Z</time></trkpt><trkpt lat="42.30924136215792" lon="14.010623220988647"><ele>103.0</ele><time>2026-05-02T07:28:45.999Z</time></trkpt><trkpt lat="42.30906248497538" lon="14.010585736045597"><ele>103.0</ele><time>2026-05-02T07:28:46.999Z</time></trkpt><trkpt lat="42.308879591426496" lon="14.010548296147222"><ele>103.0</ele><time>2026-05-02T07:28:47.999Z</time></trkpt><trkpt lat="42.308704511881714" lon="14.010508615158976"><ele>105.33333333333334</ele><time>2026-05-02T07:28:48.999Z</time></trkpt><trkpt lat="42.30853633390585" lon="14.01048658482953"><ele>107.66666666666666</ele><time>2026-05-02T07:28:49.999Z</time></trkpt><trkpt lat="42.30837489514275" lon="14.010507598896426"><ele>110.0</ele><time>2026-05-02T07:28:50.999Z</time></trkpt><trkpt lat="42.30822632117895" lon="14.010575686773098"><ele>110.0</ele><time>2026-05-02T07:28:51.999Z</time></trkpt><trkpt lat="42.30810449977411" lon="14.010650135312819"><ele>110.0</ele><time>2026-05-02T07:28:52.999Z</time></trkpt><trkpt lat="42.30798890029271" lon="14.01078930375256"><ele>110.0</ele><time>2026-05-02T07:28:53.999Z</time></trkpt><trkpt lat="42.3078709792494" lon="14.01090402518186"><ele>110.0</ele><time>2026-05-02T07:28:54.999Z</time></trkpt><trkpt lat="42.30774966073469" lon="14.01096787844062"><ele>111.0</ele><time>2026-05-02T07:28:55.999Z</time></trkpt><trkpt lat="42.30761158698972" lon="14.010970929216944"><ele>112.0</ele><time>2026-05-02T07:28:56.999Z</time></trkpt><trkpt lat="42.3074709759785" lon="14.010911505990622"><ele>113.0</ele><time>2026-05-02T07:28:57.999Z</time></trkpt><trkpt lat="42.30733640030867" lon="14.010818653942964"><ele>114.0</ele><time>2026-05-02T07:28:58.999Z</time></trkpt><trkpt lat="42.307201345077615" lon="14.010754224958598"><ele>116.75</ele><time>2026-05-02T07:28:59.999Z</time></trkpt><trkpt lat="42.30708928170911" lon="14.010695361383496"><ele>119.5</ele><time>2026-05-02T07:29:01Z</time></trkpt><trkpt lat="42.306987761855346" lon="14.01060531715638"><ele>122.25</ele><time>2026-05-02T07:29:02Z</time></trkpt><trkpt lat="42.30690113880806" lon="14.010473425716572"><ele>125.0</ele><time>2026-05-02T07:29:03Z</time></trkpt><trkpt lat="42.306837604408955" lon="14.010299628202185"><ele>125.0</ele><time>2026-05-02T07:29:04Z</time></trkpt><trkpt lat="42.30679075899352" lon="14.010104217005683"><ele>125.0</ele><time>2026-05-02T07:29:05Z</time></trkpt><trkpt lat="42.30674379477989" lon="14.009903254508478"><ele>125.0</ele><time>2026-05-02T07:29:05.999Z</time></trkpt><trkpt lat="42.306690026052316" lon="14.009699598375516"><ele>126.0</ele><time>2026-05-02T07:29:06.999Z</time></trkpt><trkpt lat="42.30663181182675" lon="14.009493491796674"><ele>127.0</ele><time>2026-05-02T07:29:07.999Z</time></trkpt><trkpt lat="42.30657659431588" lon="14.009278883976288"><ele>128.0</ele><time>2026-05-02T07:29:08.999Z</time></trkpt><trkpt lat="42.3065399618028" lon="14.009066298903573"><ele>129.66666666666666</ele><time>2026-05-02T07:29:09.999Z</time></trkpt><trkpt lat="42.306517383086735" lon="14.008845577257087"><ele>131.33333333333334</ele><time>2026-05-02T07:29:10.999Z</time></trkpt><trkpt lat="42.30639491096725" lon="14.008621050986273"><ele>133.0</ele><time>2026-05-02T07:29:11.999Z</time></trkpt><trkpt lat="42.30633199328901" lon="14.008390762626814"><ele>137.33333333333334</ele><time>2026-05-02T07:29:12.999Z</time></trkpt><trkpt lat="42.306272278783496" lon="14.008160737729558"><ele>141.66666666666666</ele><time>2026-05-02T07:29:13.999Z</time></trkpt><trkpt lat="42.30621561924128" lon="14.007929913379854"><ele>146.0</ele><time>2026-05-02T07:29:14.999Z</time></trkpt><trkpt lat="42.30615675958097" lon="14.00770369467927"><ele>147.0</ele><time>2026-05-02T07:29:15.999Z</time></trkpt><trkpt lat="42.30609547938538" lon="14.007486979729531"><ele>148.0</ele><time>2026-05-02T07:29:16.999Z</time></trkpt><trkpt lat="42.306029989606145" lon="14.007269582490881"><ele>149.0</ele><time>2026-05-02T07:29:17.999Z</time></trkpt><trkpt lat="42.305959053687445" lon="14.007056801196693"><ele>149.0</ele><time>2026-05-02T07:29:18.999Z</time></trkpt><trkpt lat="42.30588508844907" lon="14.00684405611656"><ele>149.0</ele><time>2026-05-02T07:29:19.999Z</time></trkpt><trkpt lat="42.30580243157026" lon="14.006646512125435"><ele>149.0</ele><time>2026-05-02T07:29:20.999Z</time></trkpt><trkpt lat="42.30570519552743" lon="14.00644918689331"><ele>148.66666666666666</ele><time>2026-05-02T07:29:21.999Z</time></trkpt><trkpt lat="42.305597591509006" lon="14.006262624992987"><ele>148.33333333333334</ele><time>2026-05-02T07:29:22.999Z</time></trkpt><trkpt lat="42.305487618863765" lon="14.00607938216767"><ele>148.0</ele><time>2026-05-02T07:29:23.999Z</time></trkpt><trkpt lat="42.30537641721652" lon="14.005899916439404"><ele>153.0</ele><time>2026-05-02T07:29:24.999Z</time></trkpt><trkpt lat="42.30526255130574" lon="14.00571781408922"><ele>158.0</ele><time>2026-05-02T07:29:25.999Z</time></trkpt><trkpt lat="42.305156780149275" lon="14.005529600077413"><ele>163.0</ele><time>2026-05-02T07:29:26.999Z</time></trkpt><trkpt lat="42.30505918748037" lon="14.005332943786902"><ele>163.0</ele><time>2026-05-02T07:29:27.999Z</time></trkpt><trkpt lat="42.304971228512436" lon="14.005125093628196"><ele>163.0</ele><time>2026-05-02T07:29:28.999Z</time></trkpt><trkpt lat="42.30489594421579" lon="14.004920903760938"><ele>163.0</ele><time>2026-05-02T07:29:29.999Z</time></trkpt><trkpt lat="42.304812230538026" lon="14.004715916715945"><ele>165.33333333333334</ele><time>2026-05-02T07:29:30.999Z</time></trkpt><trkpt lat="42.30472409780498" lon="14.004515699964134"><ele>167.66666666666666</ele><time>2026-05-02T07:29:31.999Z</time></trkpt><trkpt lat="42.30463975558941" lon="14.004325498484969"><ele>170.0</ele><time>2026-05-02T07:29:32.999Z</time></trkpt><trkpt lat="42.30455484476664" lon="14.004153662045624"><ele>170.0</ele><time>2026-05-02T07:29:33.999Z</time></trkpt><trkpt lat="42.30446122675654" lon="14.004003728748232"><ele>170.0</ele><time>2026-05-02T07:29:34.999Z</time></trkpt><trkpt lat="42.30436296502198" lon="14.003891059636622"><ele>170.0</ele><time>2026-05-02T07:29:35.999Z</time></trkpt><trkpt lat="42.3042603976324" lon="14.003826892229114"><ele>170.0</ele><time>2026-05-02T07:29:36.999Z</time></trkpt><trkpt lat="42.30414834225963" lon="14.003803461517402"><ele>170.0</ele><time>2026-05-02T07:29:37.999Z</time></trkpt><trkpt lat="42.30401415682176" lon="14.00378056799785"><ele>170.0</ele><time>2026-05-02T07:29:38.999Z</time></trkpt><trkpt lat="42.303879362994735" lon="14.003719904552808"><ele>170.0</ele><time>2026-05-02T07:29:39.999Z</time></trkpt><trkpt lat="42.30375633650023" lon="14.003628330222515"><ele>170.0</ele><time>2026-05-02T07:29:40.999Z</time></trkpt><trkpt lat="42.303641350933674" lon="14.003527592755447"><ele>169.0</ele><time>2026-05-02T07:29:41.999Z</time></trkpt><trkpt lat="42.30351357059401" lon="14.003465256952236"><ele>168.0</ele><time>2026-05-02T07:29:42.999Z</time></trkpt><trkpt lat="42.30339041837979" lon="14.00338090678102"><ele>167.0</ele><time>2026-05-02T07:29:43.999Z</time></trkpt><trkpt lat="42.303226849018635" lon="14.003324779434596"><ele>166.0</ele><time>2026-05-02T07:29:44.999Z</time></trkpt><trkpt lat="42.303080808521294" lon="14.0032671695202"><ele>166.75</ele><time>2026-05-02T07:29:45.999Z</time></trkpt><trkpt lat="42.30299197413878" lon="14.003179510187602"><ele>167.5</ele><time>2026-05-02T07:29:46.999Z</time></trkpt><trkpt lat="42.30285866094257" lon="14.00313239408879"><ele>168.25</ele><time>2026-05-02T07:29:47.999Z</time></trkpt><trkpt lat="42.30273877267028" lon="14.003051144497602"><ele>169.0</ele><time>2026-05-02T07:29:48.999Z</time></trkpt><trkpt lat="42.302627183639714" lon="14.002956499160494"><ele>169.0</ele><time>2026-05-02T07:29:49.999Z</time></trkpt><trkpt lat="42.30245031519146" lon="14.003069755542553"><ele>169.0</ele><time>2026-05-02T07:29:50.999Z</time></trkpt><trkpt lat="42.30230342720519" lon="14.003072506757967"><ele>169.0</ele><time>2026-05-02T07:29:51.999Z</time></trkpt><trkpt lat="42.30215501048592" lon="14.00306716153647"><ele>166.5</ele><time>2026-05-02T07:29:52.999Z</time></trkpt><trkpt lat="42.30201425192644" lon="14.003057833844283"><ele>164.0</ele><time>2026-05-02T07:29:53.999Z</time></trkpt><trkpt lat="42.30188146208453" lon="14.003040051270702"><ele>161.5</ele><time>2026-05-02T07:29:54.999Z</time></trkpt><trkpt lat="42.301751381885666" lon="14.00298874632581"><ele>159.0</ele><time>2026-05-02T07:29:55.999Z</time></trkpt><trkpt lat="42.30164132180924" lon="14.002899867745"><ele>159.0</ele><time>2026-05-02T07:29:56.999Z</time></trkpt><trkpt lat="42.30154412170984" lon="14.002795157439579"><ele>159.0</ele><time>2026-05-02T07:29:57.999Z</time></trkpt><trkpt lat="42.30146053384686" lon="14.002707683790511"><ele>159.0</ele><time>2026-05-02T07:29:58.999Z</time></trkpt><trkpt lat="42.30140053515427" lon="14.002665776596633"><ele>159.0</ele><time>2026-05-02T07:29:59.999Z</time></trkpt><trkpt lat="42.3013131495513" lon="14.002654300351617"><ele>159.0</ele><time>2026-05-02T07:30:01.999Z</time></trkpt><trkpt lat="42.30122771945133" lon="14.002691066585147"><ele>157.2</ele><time>2026-05-02T07:30:03.999Z</time></trkpt><trkpt lat="42.30111301482351" lon="14.002720857559291"><ele>155.4</ele><time>2026-05-02T07:30:05.999Z</time></trkpt><trkpt lat="42.301048623788326" lon="14.002748542964497"><ele>153.6</ele><time>2026-05-02T07:30:06.999Z</time></trkpt><trkpt lat="42.300937958443455" lon="14.002799822700135"><ele>151.8</ele><time>2026-05-02T07:30:07.999Z</time></trkpt><trkpt lat="42.30080804254865" lon="14.002861481613968"><ele>150.0</ele><time>2026-05-02T07:30:08.999Z</time></trkpt><trkpt lat="42.300701731775156" lon="14.002893983455916"><ele>150.0</ele><time>2026-05-02T07:30:09.999Z</time></trkpt><trkpt lat="42.30062228833525" lon="14.002908056500004"><ele>150.0</ele><time>2026-05-02T07:30:10.999Z</time></trkpt><trkpt lat="42.30050428986551" lon="14.00294081595006"><ele>150.0</ele><time>2026-05-02T07:30:12.999Z</time></trkpt><trkpt lat="42.30058299730691" lon="14.002967886447191"><ele>150.0</ele><time>2026-05-02T07:30:19.999Z</time></trkpt><trkpt lat="42.30066619137022" lon="14.002926192834332"><ele>150.0</ele><time>2026-05-02T07:30:20.999Z</time></trkpt><trkpt lat="42.30076746740098" lon="14.002880955887743"><ele>150.0</ele><time>2026-05-02T07:30:21.999Z</time></trkpt><trkpt lat="42.30089748037774" lon="14.002833224860913"><ele>150.0</ele><time>2026-05-02T07:30:22.999Z</time></trkpt><trkpt lat="42.30102689165106" lon="14.002785543034504"><ele>150.0</ele><time>2026-05-02T07:30:23.999Z</time></trkpt><trkpt lat="42.301140707606905" lon="14.002747195217198"><ele>150.0</ele><time>2026-05-02T07:30:24.999Z</time></trkpt><trkpt lat="42.30123799806657" lon="14.002712781866197"><ele>150.0</ele><time>2026-05-02T07:30:25.999Z</time></trkpt><trkpt lat="42.30130794897834" lon="14.002692370957973"><ele>150.0</ele><time>2026-05-02T07:30:26.999Z</time></trkpt><trkpt lat="42.30139825020822" lon="14.00268586186911"><ele>150.0</ele><time>2026-05-02T07:30:28.999Z</time></trkpt><trkpt lat="42.301467132981394" lon="14.00260775785596"><ele>150.0</ele><time>2026-05-02T07:30:32.999Z</time></trkpt><trkpt lat="42.30145366312386" lon="14.002514413785518"><ele>150.0</ele><time>2026-05-02T07:30:33.999Z</time></trkpt><trkpt lat="42.30141205949753" lon="14.0023981799311"><ele>150.0</ele><time>2026-05-02T07:30:35Z</time></trkpt><trkpt lat="42.301370982773626" lon="14.002247121626478"><ele>151.25</ele><time>2026-05-02T07:30:36Z</time></trkpt><trkpt lat="42.30134707367892" lon="14.002075013542012"><ele>152.5</ele><time>2026-05-02T07:30:37Z</time></trkpt><trkpt lat="42.30132229524201" lon="14.001879376108677"><ele>153.75</ele><time>2026-05-02T07:30:38Z</time></trkpt><trkpt lat="42.301270282543314" lon="14.001683307555545"><ele>155.0</ele><time>2026-05-02T07:30:39Z</time></trkpt><trkpt lat="42.30120619984622" lon="14.001496025087834"><ele>157.0</ele><time>2026-05-02T07:30:40Z</time></trkpt><trkpt lat="42.30114316170571" lon="14.001308898741636"><ele>159.0</ele><time>2026-05-02T07:30:41Z</time></trkpt><trkpt lat="42.30107260753853" lon="14.001122446508994"><ele>161.0</ele><time>2026-05-02T07:30:42Z</time></trkpt><trkpt lat="42.30098097418337" lon="14.000957997466157"><ele>163.75</ele><time>2026-05-02T07:30:43Z</time></trkpt><trkpt lat="42.30090851928833" lon="14.000797019548303"><ele>166.5</ele><time>2026-05-02T07:30:44Z</time></trkpt><trkpt lat="42.30084239716402" lon="14.000640234538775"><ele>169.25</ele><time>2026-05-02T07:30:45Z</time></trkpt><trkpt lat="42.300827899454546" lon="14.00048989734538"><ele>172.0</ele><time>2026-05-02T07:30:46Z</time></trkpt><trkpt lat="42.300835370398055" lon="14.000333085309203"><ele>167.33333333333334</ele><time>2026-05-02T07:30:47Z</time></trkpt><trkpt lat="42.30056858730328" lon="14.000244418765277"><ele>162.66666666666666</ele><time>2026-05-02T07:30:48Z</time></trkpt><trkpt lat="42.30046314177165" lon="14.000121863887113"><ele>158.0</ele><time>2026-05-02T07:30:49Z</time></trkpt><trkpt lat="42.30036768134495" lon="14.000001078616709"><ele>158.0</ele><time>2026-05-02T07:30:50Z</time></trkpt><trkpt lat="42.30027811406804" lon="13.999862630090565"><ele>158.0</ele><time>2026-05-02T07:30:51Z</time></trkpt><trkpt lat="42.30020767898165" lon="13.999713122525993"><ele>158.0</ele><time>2026-05-02T07:30:52Z</time></trkpt><trkpt lat="42.30014697740905" lon="13.999567169700894"><ele>158.0</ele><time>2026-05-02T07:30:53Z</time></trkpt><trkpt lat="42.300084195143235" lon="13.999416073835068"><ele>158.0</ele><time>2026-05-02T07:30:54Z</time></trkpt><trkpt lat="42.30001674754306" lon="13.9992645469677"><ele>158.0</ele><time>2026-05-02T07:30:55Z</time></trkpt><trkpt lat="42.29994653302595" lon="13.999119995094432"><ele>158.0</ele><time>2026-05-02T07:30:56Z</time></trkpt><trkpt lat="42.2998707812791" lon="13.998982088564746"><ele>158.0</ele><time>2026-05-02T07:30:57Z</time></trkpt><trkpt lat="42.29979758040938" lon="13.998839372656613"><ele>158.0</ele><time>2026-05-02T07:30:58Z</time></trkpt><trkpt lat="42.29972097542359" lon="13.99868860047906"><ele>158.0</ele><time>2026-05-02T07:30:59Z</time></trkpt><trkpt lat="42.29964094215909" lon="13.998534277914954"><ele>158.0</ele><time>2026-05-02T07:31:00Z</time></trkpt><trkpt lat="42.29955587772716" lon="13.99837343037327"><ele>158.0</ele><time>2026-05-02T07:31:01Z</time></trkpt><trkpt lat="42.29947327830031" lon="13.998220489888455"><ele>158.0</ele><time>2026-05-02T07:31:02Z</time></trkpt><trkpt lat="42.299386071997525" lon="13.998065427657629"><ele>158.0</ele><time>2026-05-02T07:31:03Z</time></trkpt><trkpt lat="42.299302266225254" lon="13.997913063077789"><ele>158.0</ele><time>2026-05-02T07:31:04Z</time></trkpt><trkpt lat="42.29923499234982" lon="13.997771499067827"><ele>158.0</ele><time>2026-05-02T07:31:05Z</time></trkpt><trkpt lat="42.29919579504865" lon="13.997634452510008"><ele>158.0</ele><time>2026-05-02T07:31:06Z</time></trkpt><trkpt lat="42.29916812688899" lon="13.997476004892704"><ele>158.0</ele><time>2026-05-02T07:31:07Z</time></trkpt><trkpt lat="42.29915159418062" lon="13.997304298301668"><ele>158.0</ele><time>2026-05-02T07:31:08Z</time></trkpt><trkpt lat="42.29914694067119" lon="13.997126646366649"><ele>158.0</ele><time>2026-05-02T07:31:09Z</time></trkpt><trkpt lat="42.299163413119274" lon="13.996947427753645"><ele>158.0</ele><time>2026-05-02T07:31:10Z</time></trkpt><trkpt lat="42.29915494815728" lon="13.996766925130633"><ele>158.0</ele><time>2026-05-02T07:31:11Z</time></trkpt><trkpt lat="42.29911737760475" lon="13.996596036482702"><ele>158.0</ele><time>2026-05-02T07:31:12Z</time></trkpt><trkpt lat="42.29904922777853" lon="13.99644286789017"><ele>158.0</ele><time>2026-05-02T07:31:13Z</time></trkpt><trkpt lat="42.2989644032863" lon="13.996309291287256"><ele>156.0</ele><time>2026-05-02T07:31:14Z</time></trkpt><trkpt lat="42.29887263770957" lon="13.996186750409688"><ele>154.0</ele><time>2026-05-02T07:31:15Z</time></trkpt><trkpt lat="42.29876592302719" lon="13.996077061256479"><ele>152.0</ele><time>2026-05-02T07:31:16Z</time></trkpt><trkpt lat="42.298679825293526" lon="13.995968712144434"><ele>150.0</ele><time>2026-05-02T07:31:17Z</time></trkpt><trkpt lat="42.298624555063604" lon="13.995849478018823"><ele>150.0</ele><time>2026-05-02T07:31:18Z</time></trkpt><trkpt lat="42.29858848273997" lon="13.995727022069556"><ele>150.0</ele><time>2026-05-02T07:31:19Z</time></trkpt><trkpt lat="42.29855857138808" lon="13.995620027510281"><ele>150.0</ele><time>2026-05-02T07:31:20Z</time></trkpt><trkpt lat="42.29851777895526" lon="13.995520865408723"><ele>150.0</ele><time>2026-05-02T07:31:21Z</time></trkpt><trkpt lat="42.298459201438085" lon="13.99541819623128"><ele>150.0</ele><time>2026-05-02T07:31:22Z</time></trkpt><trkpt lat="42.29839390380485" lon="13.995303434007761"><ele>150.0</ele><time>2026-05-02T07:31:23Z</time></trkpt><trkpt lat="42.29832962532675" lon="13.995184125633644"><ele>150.0</ele><time>2026-05-02T07:31:24Z</time></trkpt><trkpt lat="42.29826421968166" lon="13.99504868705657"><ele>150.0</ele><time>2026-05-02T07:31:25Z</time></trkpt><trkpt lat="42.29818959641905" lon="13.99491545299307"><ele>150.0</ele><time>2026-05-02T07:31:26Z</time></trkpt><trkpt lat="42.29810440648156" lon="13.994784184948122"><ele>147.5</ele><time>2026-05-02T07:31:26.999Z</time></trkpt><trkpt lat="42.29801673749511" lon="13.994645513128319"><ele>145.0</ele><time>2026-05-02T07:31:27.999Z</time></trkpt><trkpt lat="42.297932510889574" lon="13.994520663900465"><ele>142.5</ele><time>2026-05-02T07:31:28.999Z</time></trkpt><trkpt lat="42.29786919882541" lon="13.994385756321174"><ele>140.0</ele><time>2026-05-02T07:31:29.999Z</time></trkpt><trkpt lat="42.297813430110956" lon="13.994238182514506"><ele>140.25</ele><time>2026-05-02T07:31:30.999Z</time></trkpt><trkpt lat="42.29775324408318" lon="13.99408301626296"><ele>140.5</ele><time>2026-05-02T07:31:31.999Z</time></trkpt><trkpt lat="42.29769367840749" lon="13.99392777949102"><ele>140.75</ele><time>2026-05-02T07:31:32.999Z</time></trkpt><trkpt lat="42.29763096468735" lon="13.993774885950186"><ele>141.0</ele><time>2026-05-02T07:31:33.999Z</time></trkpt><trkpt lat="42.297556295641094" lon="13.993636872274566"><ele>141.0</ele><time>2026-05-02T07:31:34.999Z</time></trkpt><trkpt lat="42.297483950720434" lon="13.993493585496294"><ele>141.0</ele><time>2026-05-02T07:31:35.999Z</time></trkpt><trkpt lat="42.29741231274157" lon="13.9933503557583"><ele>141.0</ele><time>2026-05-02T07:31:36.999Z</time></trkpt><trkpt lat="42.29733649222475" lon="13.993211766135314"><ele>141.0</ele><time>2026-05-02T07:31:37.999Z</time></trkpt><trkpt lat="42.29726171503941" lon="13.993076651420257"><ele>139.25</ele><time>2026-05-02T07:31:38.999Z</time></trkpt><trkpt lat="42.29719651890628" lon="13.992932056185388"><ele>137.5</ele><time>2026-05-02T07:31:39.999Z</time></trkpt><trkpt lat="42.29713052885686" lon="13.992787025695696"><ele>135.75</ele><time>2026-05-02T07:31:40.999Z</time></trkpt><trkpt lat="42.29705503893841" lon="13.992645892725907"><ele>134.0</ele><time>2026-05-02T07:31:41.999Z</time></trkpt><trkpt lat="42.296983317350865" lon="13.992507686799414"><ele>134.75</ele><time>2026-05-02T07:31:42.999Z</time></trkpt><trkpt lat="42.296919071478555" lon="13.992361117722103"><ele>135.5</ele><time>2026-05-02T07:31:43.999Z</time></trkpt><trkpt lat="42.296866846537036" lon="13.992195128393151"><ele>136.25</ele><time>2026-05-02T07:31:44.999Z</time></trkpt><trkpt lat="42.29682333996247" lon="13.992013231494521"><ele>137.0</ele><time>2026-05-02T07:31:45.999Z</time></trkpt><trkpt lat="42.29677272138582" lon="13.99182978912477"><ele>137.5</ele><time>2026-05-02T07:31:46.999Z</time></trkpt><trkpt lat="42.296726687408245" lon="13.991660844995819"><ele>138.0</ele><time>2026-05-02T07:31:47.999Z</time></trkpt><trkpt lat="42.29669120675819" lon="13.991492173720172"><ele>138.5</ele><time>2026-05-02T07:31:48.999Z</time></trkpt><trkpt lat="42.29667018789101" lon="13.991325589248376"><ele>139.0</ele><time>2026-05-02T07:31:49.999Z</time></trkpt><trkpt lat="42.29666376891295" lon="13.99115665555079"><ele>139.0</ele><time>2026-05-02T07:31:50.999Z</time></trkpt><trkpt lat="42.296647337701245" lon="13.99099074315933"><ele>139.0</ele><time>2026-05-02T07:31:51.999Z</time></trkpt><trkpt lat="42.29664090656186" lon="13.990830510312659"><ele>139.0</ele><time>2026-05-02T07:31:52.999Z</time></trkpt><trkpt lat="42.29663644490238" lon="13.990680688407453"><ele>139.0</ele><time>2026-05-02T07:31:53.999Z</time></trkpt><trkpt lat="42.29663020336335" lon="13.990533582260564"><ele>138.75</ele><time>2026-05-02T07:31:54.999Z</time></trkpt><trkpt lat="42.29661015329029" lon="13.990389081243212"><ele>138.5</ele><time>2026-05-02T07:31:55.999Z</time></trkpt><trkpt lat="42.29656737013981" lon="13.990249193112634"><ele>138.25</ele><time>2026-05-02T07:31:56.999Z</time></trkpt><trkpt lat="42.296499232258505" lon="13.990119724973276"><ele>138.0</ele><time>2026-05-02T07:31:57.999Z</time></trkpt><trkpt lat="42.29642229687559" lon="13.990009832797456"><ele>136.0</ele><time>2026-05-02T07:31:58.999Z</time></trkpt><trkpt lat="42.29634001480261" lon="13.989925359719109"><ele>134.0</ele><time>2026-05-02T07:31:59.999Z</time></trkpt><trkpt lat="42.29624232304537" lon="13.98987828437587"><ele>132.0</ele><time>2026-05-02T07:32:00.999Z</time></trkpt><trkpt lat="42.296138020671044" lon="13.989859648116061"><ele>130.0</ele><time>2026-05-02T07:32:01.999Z</time></trkpt><trkpt lat="42.29604177098401" lon="13.989837092944123"><ele>128.0</ele><time>2026-05-02T07:32:02.999Z</time></trkpt><trkpt lat="42.29594623087814" lon="13.98980160005692"><ele>128.0</ele><time>2026-05-02T07:32:03.999Z</time></trkpt><trkpt lat="42.29585366148487" lon="13.989751706373967"><ele>128.0</ele><time>2026-05-02T07:32:04.999Z</time></trkpt><trkpt lat="42.29576407563978" lon="13.989665964218814"><ele>128.0</ele><time>2026-05-02T07:32:05.999Z</time></trkpt><trkpt lat="42.29567029164895" lon="13.989583205455867"><ele>128.0</ele><time>2026-05-02T07:32:06.999Z</time></trkpt><trkpt lat="42.29557227728995" lon="13.989503729184772"><ele>128.0</ele><time>2026-05-02T07:32:07.999Z</time></trkpt><trkpt lat="42.29547424925503" lon="13.989434452018209"><ele>127.66666666666666</ele><time>2026-05-02T07:32:08.999Z</time></trkpt><trkpt lat="42.295387609501404" lon="13.989378527983128"><ele>127.33333333333333</ele><time>2026-05-02T07:32:09.999Z</time></trkpt><trkpt lat="42.2953196304032" lon="13.989335661614376"><ele>127.0</ele><time>2026-05-02T07:32:10.999Z</time></trkpt><trkpt lat="42.29523238107368" lon="13.989272265478919"><ele>126.66666666666666</ele><time>2026-05-02T07:32:12.999Z</time></trkpt><trkpt lat="42.29516733880219" lon="13.989251984445005"><ele>126.33333333333333</ele><time>2026-05-02T07:32:22.999Z</time></trkpt><trkpt lat="42.29510422666739" lon="13.989310354484092"><ele>126.0</ele><time>2026-05-02T07:32:23.999Z</time></trkpt><trkpt lat="42.2950479661213" lon="13.989357419183442"><ele>126.0</ele><time>2026-05-02T07:32:24.999Z</time></trkpt><trkpt lat="42.29498308906195" lon="13.989306913603793"><ele>126.0</ele><time>2026-05-02T07:32:26.999Z</time></trkpt><trkpt lat="42.294971773177075" lon="13.989207698005506"><ele>126.0</ele><time>2026-05-02T07:32:28.999Z</time></trkpt><trkpt lat="42.29496069041428" lon="13.989077420459385"><ele>126.0</ele><time>2026-05-02T07:32:42Z</time></trkpt><trkpt lat="42.29494254760313" lon="13.988992302760483"><ele>126.0</ele><time>2026-05-02T07:32:43Z</time></trkpt><trkpt lat="42.29491618802061" lon="13.988880345347976"><ele>126.0</ele><time>2026-05-02T07:32:44Z</time></trkpt><trkpt lat="42.29488713391355" lon="13.988767153541442"><ele>127.0</ele><time>2026-05-02T07:32:45Z</time></trkpt><trkpt lat="42.294849249613655" lon="13.98863145280427"><ele>128.0</ele><time>2026-05-02T07:32:46Z</time></trkpt><trkpt lat="42.29480783119034" lon="13.988479578305832"><ele>129.0</ele><time>2026-05-02T07:32:47Z</time></trkpt><trkpt lat="42.29476762625955" lon="13.988316434556115"><ele>130.0</ele><time>2026-05-02T07:32:48Z</time></trkpt><trkpt lat="42.294724677997266" lon="13.988154357897034"><ele>130.75</ele><time>2026-05-02T07:32:49Z</time></trkpt><trkpt lat="42.29468254914654" lon="13.987998173132654"><ele>131.5</ele><time>2026-05-02T07:32:50Z</time></trkpt><trkpt lat="42.29463547156927" lon="13.98784322549"><ele>132.25</ele><time>2026-05-02T07:32:51Z</time></trkpt><trkpt lat="42.294593506136785" lon="13.987692955131521"><ele>133.0</ele><time>2026-05-02T07:32:52Z</time></trkpt><trkpt lat="42.294553654705865" lon="13.987547293344035"><ele>133.4</ele><time>2026-05-02T07:32:53Z</time></trkpt><trkpt lat="42.29450815853796" lon="13.987403134057807"><ele>133.8</ele><time>2026-05-02T07:32:54Z</time></trkpt><trkpt lat="42.29446174309337" lon="13.987258472535022"><ele>134.2</ele><time>2026-05-02T07:32:55Z</time></trkpt><trkpt lat="42.294420382251765" lon="13.987117791651588"><ele>134.6</ele><time>2026-05-02T07:32:56Z</time></trkpt><trkpt lat="42.2943864427056" lon="13.986989656613598"><ele>135.0</ele><time>2026-05-02T07:32:57Z</time></trkpt><trkpt lat="42.29436583546388" lon="13.98688560752435"><ele>135.0</ele><time>2026-05-02T07:32:58Z</time></trkpt><trkpt lat="42.29438576841242" lon="13.986744089796389"><ele>135.0</ele><time>2026-05-02T07:33:00Z</time></trkpt><trkpt lat="42.294397074701244" lon="13.986637375082124"><ele>135.0</ele><time>2026-05-02T07:33:03Z</time></trkpt><trkpt lat="42.2943391353017" lon="13.986544487623762"><ele>135.0</ele><time>2026-05-02T07:33:06Z</time></trkpt><trkpt lat="42.29428525745285" lon="13.986373342277053"><ele>135.0</ele><time>2026-05-02T07:33:08Z</time></trkpt><trkpt lat="42.294247337007675" lon="13.986250318526286"><ele>135.75</ele><time>2026-05-02T07:33:09Z</time></trkpt><trkpt lat="42.294206279329416" lon="13.986112833645867"><ele>136.5</ele><time>2026-05-02T07:33:10Z</time></trkpt><trkpt lat="42.294162920861744" lon="13.98596202459336"><ele>137.25</ele><time>2026-05-02T07:33:11Z</time></trkpt><trkpt lat="42.294125163144855" lon="13.98579487237932"><ele>138.0</ele><time>2026-05-02T07:33:12Z</time></trkpt><trkpt lat="42.294077430215175" lon="13.985624124082888"><ele>138.75</ele><time>2026-05-02T07:33:13Z</time></trkpt><trkpt lat="42.29402776921454" lon="13.985452925477121"><ele>139.5</ele><time>2026-05-02T07:33:14Z</time></trkpt><trkpt lat="42.29397823901749" lon="13.985279745277115"><ele>140.25</ele><time>2026-05-02T07:33:15Z</time></trkpt><trkpt lat="42.29390487701935" lon="13.985123603793136"><ele>141.0</ele><time>2026-05-02T07:33:16Z</time></trkpt><trkpt lat="42.293833982947696" lon="13.984982557487092"><ele>142.4</ele><time>2026-05-02T07:33:17Z</time></trkpt><trkpt lat="42.29382526041256" lon="13.984840212469265"><ele>143.8</ele><time>2026-05-02T07:33:18Z</time></trkpt><trkpt lat="42.29379262001558" lon="13.984725079319778"><ele>145.20000000000002</ele><time>2026-05-02T07:33:19Z</time></trkpt><trkpt lat="42.29375697520543" lon="13.984610634598171"><ele>146.6</ele><time>2026-05-02T07:33:20Z</time></trkpt><trkpt lat="42.29368035742695" lon="13.984504520988917"><ele>148.0</ele><time>2026-05-02T07:33:21Z</time></trkpt><trkpt lat="42.29360673668969" lon="13.984385186308835"><ele>148.0</ele><time>2026-05-02T07:33:22Z</time></trkpt><trkpt lat="42.293530860392124" lon="13.984264285829044"><ele>148.0</ele><time>2026-05-02T07:33:23Z</time></trkpt><trkpt lat="42.29346370583889" lon="13.984155814047165"><ele>148.0</ele><time>2026-05-02T07:33:24Z</time></trkpt><trkpt lat="42.293403630912266" lon="13.98406286423863"><ele>148.0</ele><time>2026-05-02T07:33:25Z</time></trkpt><trkpt lat="42.29333118057707" lon="13.983977031657421"><ele>148.0</ele><time>2026-05-02T07:33:26Z</time></trkpt><trkpt lat="42.2932509502886" lon="13.983908743716547"><ele>148.4</ele><time>2026-05-02T07:33:27Z</time></trkpt><trkpt lat="42.293157506096726" lon="13.983839743076008"><ele>148.8</ele><time>2026-05-02T07:33:28Z</time></trkpt><trkpt lat="42.29306186513431" lon="13.983767685907155"><ele>149.2</ele><time>2026-05-02T07:33:29Z</time></trkpt><trkpt lat="42.29298412080076" lon="13.983678130966359"><ele>149.6</ele><time>2026-05-02T07:33:29.999Z</time></trkpt><trkpt lat="42.29291449031182" lon="13.983567709171705"><ele>150.0</ele><time>2026-05-02T07:33:30.999Z</time></trkpt><trkpt lat="42.29284868789247" lon="13.983434170697183"><ele>152.5</ele><time>2026-05-02T07:33:31.999Z</time></trkpt><trkpt lat="42.29278113772584" lon="13.983288506011867"><ele>155.0</ele><time>2026-05-02T07:33:32.999Z</time></trkpt><trkpt lat="42.292710525772776" lon="13.983139749792898"><ele>157.5</ele><time>2026-05-02T07:33:33.999Z</time></trkpt><trkpt lat="42.292633257111994" lon="13.983002960324537"><ele>160.0</ele><time>2026-05-02T07:33:34.999Z</time></trkpt><trkpt lat="42.292568887758215" lon="13.982877524102964"><ele>160.0</ele><time>2026-05-02T07:33:35.999Z</time></trkpt><trkpt lat="42.29250815367988" lon="13.98276078631282"><ele>160.0</ele><time>2026-05-02T07:33:36.999Z</time></trkpt><trkpt lat="42.29244969792301" lon="13.982659882567864"><ele>160.0</ele><time>2026-05-02T07:33:37.999Z</time></trkpt><trkpt lat="42.29237744744994" lon="13.982534722888623"><ele>160.0</ele><time>2026-05-02T07:33:38.999Z</time></trkpt><trkpt lat="42.29230454948431" lon="13.982413788670552"><ele>160.0</ele><time>2026-05-02T07:33:39.999Z</time></trkpt><trkpt lat="42.292242366858176" lon="13.982309026812919"><ele>161.5</ele><time>2026-05-02T07:33:40.999Z</time></trkpt><trkpt lat="42.29219615337289" lon="13.982225982247908"><ele>163.0</ele><time>2026-05-02T07:33:41.999Z</time></trkpt><trkpt lat="42.292122508332355" lon="13.982103017669598"><ele>164.5</ele><time>2026-05-02T07:33:43.999Z</time></trkpt><trkpt lat="42.292081256417234" lon="13.982036744374666"><ele>166.0</ele><time>2026-05-02T07:33:44.999Z</time></trkpt><trkpt lat="42.292037238702775" lon="13.981965434266211"><ele>167.5</ele><time>2026-05-02T07:33:45.999Z</time></trkpt><trkpt lat="42.29198746695588" lon="13.981883887260691"><ele>169.0</ele><time>2026-05-02T07:33:46.999Z</time></trkpt><trkpt lat="42.29190465876647" lon="13.981765274561203"><ele>168.6</ele><time>2026-05-02T07:33:48.999Z</time></trkpt><trkpt lat="42.291823356250895" lon="13.981643139488558"><ele>168.2</ele><time>2026-05-02T07:33:50.999Z</time></trkpt><trkpt lat="42.29177132076967" lon="13.98156957660838"><ele>167.79999999999998</ele><time>2026-05-02T07:33:51.999Z</time></trkpt><trkpt lat="42.291707317625615" lon="13.981487255548899"><ele>167.39999999999998</ele><time>2026-05-02T07:33:52.999Z</time></trkpt><trkpt lat="42.29164113647538" lon="13.981398906404415"><ele>167.0</ele><time>2026-05-02T07:33:53.999Z</time></trkpt><trkpt lat="42.29158403510556" lon="13.981301906249403"><ele>167.0</ele><time>2026-05-02T07:33:54.999Z</time></trkpt><trkpt lat="42.29153607869141" lon="13.981232222116786"><ele>167.0</ele><time>2026-05-02T07:33:55.999Z</time></trkpt><trkpt lat="42.291440030397624" lon="13.98113241833715"><ele>167.0</ele><time>2026-05-02T07:33:57.999Z</time></trkpt><trkpt lat="42.29132467768217" lon="13.981097954070423"><ele>167.0</ele><time>2026-05-02T07:33:59.999Z</time></trkpt><trkpt lat="42.291244348059095" lon="13.98110400683498"><ele>167.0</ele><time>2026-05-02T07:34:01.999Z</time></trkpt><trkpt lat="42.291161731173" lon="13.98111760722109"><ele>167.33333333333331</ele><time>2026-05-02T07:34:03.999Z</time></trkpt><trkpt lat="42.29108586326089" lon="13.981088548740043"><ele>167.66666666666666</ele><time>2026-05-02T07:34:05.999Z</time></trkpt><trkpt lat="42.29102216278112" lon="13.981044578972567"><ele>168.0</ele><time>2026-05-02T07:34:07.999Z</time></trkpt><trkpt lat="42.29095336676714" lon="13.980980362565681"><ele>168.33333333333334</ele><time>2026-05-02T07:34:09.999Z</time></trkpt><trkpt lat="42.29089779953478" lon="13.980834950152849"><ele>168.66666666666669</ele><time>2026-05-02T07:34:11.999Z</time></trkpt><trkpt lat="42.290890630687386" lon="13.980726595692937"><ele>169.0</ele><time>2026-05-02T07:34:12.999Z</time></trkpt><trkpt lat="42.29088897917284" lon="13.980603546583152"><ele>169.0</ele><time>2026-05-02T07:34:13.999Z</time></trkpt><trkpt lat="42.29088297144281" lon="13.980472226541997"><ele>169.0</ele><time>2026-05-02T07:34:14.999Z</time></trkpt><trkpt lat="42.29087430747157" lon="13.980333741143301"><ele>169.0</ele><time>2026-05-02T07:34:15.999Z</time></trkpt><trkpt lat="42.29085629590234" lon="13.980187736804938"><ele>169.0</ele><time>2026-05-02T07:34:16.999Z</time></trkpt><trkpt lat="42.29081501472848" lon="13.980049552277018"><ele>169.0</ele><time>2026-05-02T07:34:17.999Z</time></trkpt><trkpt lat="42.29075044070758" lon="13.979913051189834"><ele>169.5</ele><time>2026-05-02T07:34:18.999Z</time></trkpt><trkpt lat="42.29067104356793" lon="13.979786987236906"><ele>170.0</ele><time>2026-05-02T07:34:19.999Z</time></trkpt><trkpt lat="42.290578340499145" lon="13.979683234795932"><ele>170.5</ele><time>2026-05-02T07:34:20.999Z</time></trkpt><trkpt lat="42.29047428219523" lon="13.979603920358297"><ele>171.0</ele><time>2026-05-02T07:34:21.999Z</time></trkpt><trkpt lat="42.29037642839542" lon="13.979532718203501"><ele>173.33333333333334</ele><time>2026-05-02T07:34:22.999Z</time></trkpt><trkpt lat="42.290305035837136" lon="13.979458953866374"><ele>175.66666666666666</ele><time>2026-05-02T07:34:23.999Z</time></trkpt><trkpt lat="42.29027914078921" lon="13.979365077423212"><ele>178.0</ele><time>2026-05-02T07:34:24.999Z</time></trkpt><trkpt lat="42.290282607384114" lon="13.979258074947234"><ele>180.33333333333331</ele><time>2026-05-02T07:34:25.999Z</time></trkpt><trkpt lat="42.29031148369791" lon="13.97913274733655"><ele>182.66666666666666</ele><time>2026-05-02T07:34:26.999Z</time></trkpt><trkpt lat="42.29036095992982" lon="13.979013876975719"><ele>185.0</ele><time>2026-05-02T07:34:27.999Z</time></trkpt><trkpt lat="42.29040988288328" lon="13.97888578960051"><ele>185.0</ele><time>2026-05-02T07:34:28.999Z</time></trkpt><trkpt lat="42.290437256016126" lon="13.978760408319149"><ele>185.0</ele><time>2026-05-02T07:34:29.999Z</time></trkpt><trkpt lat="42.29042964443131" lon="13.978647536831014"><ele>185.0</ele><time>2026-05-02T07:34:30.999Z</time></trkpt><trkpt lat="42.29038152316806" lon="13.978579015980488"><ele>185.0</ele><time>2026-05-02T07:34:31.999Z</time></trkpt><trkpt lat="42.2903032337991" lon="13.978563605594735"><ele>185.0</ele><time>2026-05-02T07:34:32.999Z</time></trkpt><trkpt lat="42.290222859003855" lon="13.978600320435548"><ele>185.0</ele><time>2026-05-02T07:34:33.999Z</time></trkpt><trkpt lat="42.290146696177246" lon="13.978666753504752"><ele>185.0</ele><time>2026-05-02T07:34:34.999Z</time></trkpt><trkpt lat="42.29005976172673" lon="13.97875201979495"><ele>185.0</ele><time>2026-05-02T07:34:35.999Z</time></trkpt><trkpt lat="42.289964848518174" lon="13.97881470968792"><ele>185.0</ele><time>2026-05-02T07:34:36.999Z</time></trkpt><trkpt lat="42.2898681381223" lon="13.978859714572058"><ele>185.0</ele><time>2026-05-02T07:34:37.999Z</time></trkpt><trkpt lat="42.28978666769482" lon="13.978910044911792"><ele>185.0</ele><time>2026-05-02T07:34:38.999Z</time></trkpt><trkpt lat="42.28971834101959" lon="13.978934569396031"><ele>187.6</ele><time>2026-05-02T07:34:39.999Z</time></trkpt><trkpt lat="42.28960353538726" lon="13.978867432623778"><ele>190.2</ele><time>2026-05-02T07:34:41.999Z</time></trkpt><trkpt lat="42.28955663229147" lon="13.97876991526815"><ele>192.8</ele><time>2026-05-02T07:34:42.999Z</time></trkpt><trkpt lat="42.28952649876353" lon="13.978656837880457"><ele>195.4</ele><time>2026-05-02T07:34:43.999Z</time></trkpt><trkpt lat="42.28950665956099" lon="13.978526793268706"><ele>198.0</ele><time>2026-05-02T07:34:44.999Z</time></trkpt><trkpt lat="42.28949578177338" lon="13.97839079582588"><ele>198.5</ele><time>2026-05-02T07:34:45.999Z</time></trkpt><trkpt lat="42.28948126877137" lon="13.978266955609564"><ele>199.0</ele><time>2026-05-02T07:34:47Z</time></trkpt><trkpt lat="42.28947588255642" lon="13.978152307893799"><ele>199.5</ele><time>2026-05-02T07:34:48Z</time></trkpt><trkpt lat="42.289460811686126" lon="13.978064367696533"><ele>200.0</ele><time>2026-05-02T07:34:49Z</time></trkpt><trkpt lat="42.28940758474867" lon="13.977943728308311"><ele>200.5</ele><time>2026-05-02T07:34:51Z</time></trkpt><trkpt lat="42.2893424602027" lon="13.977878580602386"><ele>201.0</ele><time>2026-05-02T07:34:53Z</time></trkpt><trkpt lat="42.289240491673795" lon="13.977854243972264"><ele>201.0</ele><time>2026-05-02T07:34:55Z</time></trkpt><trkpt lat="42.289126640629036" lon="13.977903108745366"><ele>201.0</ele><time>2026-05-02T07:34:57Z</time></trkpt><trkpt lat="42.28905799917451" lon="13.97795560623071"><ele>201.0</ele><time>2026-05-02T07:34:58Z</time></trkpt><trkpt lat="42.28899991236313" lon="13.978001676628107"><ele>201.0</ele><time>2026-05-02T07:34:59Z</time></trkpt><trkpt lat="42.28893477313044" lon="13.978039270593333"><ele>201.0</ele><time>2026-05-02T07:35:00Z</time></trkpt><trkpt lat="42.28886775456668" lon="13.978102849936297"><ele>201.0</ele><time>2026-05-02T07:35:01Z</time></trkpt><trkpt lat="42.288813087985176" lon="13.978179292256783"><ele>203.16666666666666</ele><time>2026-05-02T07:35:02Z</time></trkpt><trkpt lat="42.2887745586496" lon="13.978261077446335"><ele>205.33333333333331</ele><time>2026-05-02T07:35:03Z</time></trkpt><trkpt lat="42.288740157036386" lon="13.978352125040276"><ele>207.5</ele><time>2026-05-02T07:35:04Z</time></trkpt><trkpt lat="42.288716697609885" lon="13.978438218709792"><ele>209.66666666666666</ele><time>2026-05-02T07:35:05Z</time></trkpt><trkpt lat="42.28868694097387" lon="13.978567416574695"><ele>211.83333333333331</ele><time>2026-05-02T07:35:07Z</time></trkpt><trkpt lat="42.28864251722805" lon="13.978636509200935"><ele>214.0</ele><time>2026-05-02T07:35:08Z</time></trkpt><trkpt lat="42.28858939624685" lon="13.978720051543874"><ele>213.99999999999997</ele><time>2026-05-02T07:35:09Z</time></trkpt><trkpt lat="42.28853495810516" lon="13.97881838995037"><ele>214.0</ele><time>2026-05-02T07:35:10Z</time></trkpt><trkpt lat="42.28848900294665" lon="13.978903636700556"><ele>214.0</ele><time>2026-05-02T07:35:11Z</time></trkpt><trkpt lat="42.288425288728924" lon="13.97902221997543"><ele>214.0</ele><time>2026-05-02T07:35:13Z</time></trkpt><trkpt lat="42.28841892037225" lon="13.979153408816204"><ele>213.99999999999997</ele><time>2026-05-02T07:35:15Z</time></trkpt><trkpt lat="42.288415050735495" lon="13.979240750948573"><ele>214.0</ele><time>2026-05-02T07:35:16Z</time></trkpt><trkpt lat="42.28840118687341" lon="13.979343282577117"><ele>214.66666666666666</ele><time>2026-05-02T07:35:17Z</time></trkpt><trkpt lat="42.288389993751856" lon="13.97944844456449"><ele>215.33333333333331</ele><time>2026-05-02T07:35:18Z</time></trkpt><trkpt lat="42.28838321815971" lon="13.979541464221096"><ele>216.0</ele><time>2026-05-02T07:35:19Z</time></trkpt><trkpt lat="42.288376191366254" lon="13.979650370030539"><ele>216.66666666666669</ele><time>2026-05-02T07:35:20Z</time></trkpt><trkpt lat="42.2883657069067" lon="13.979771517203446"><ele>217.33333333333334</ele><time>2026-05-02T07:35:21Z</time></trkpt><trkpt lat="42.28835936439784" lon="13.979870492761714"><ele>218.0</ele><time>2026-05-02T07:35:22Z</time></trkpt><trkpt lat="42.28833784428993" lon="13.980030224724525"><ele>218.42857142857144</ele><time>2026-05-02T07:35:24Z</time></trkpt><trkpt lat="42.28833890373755" lon="13.980119701722094"><ele>218.85714285714286</ele><time>2026-05-02T07:35:25Z</time></trkpt><trkpt lat="42.288359872819626" lon="13.980213940416656"><ele>219.28571428571428</ele><time>2026-05-02T07:35:26Z</time></trkpt><trkpt lat="42.288390233578106" lon="13.980296814721463"><ele>219.71428571428572</ele><time>2026-05-02T07:35:27Z</time></trkpt><trkpt lat="42.288433301051306" lon="13.980361631549814"><ele>220.14285714285714</ele><time>2026-05-02T07:35:28Z</time></trkpt><trkpt lat="42.2884879124243" lon="13.98047380692975"><ele>220.57142857142858</ele><time>2026-05-02T07:35:29.999Z</time></trkpt><trkpt lat="42.28850729211295" lon="13.980558085604374"><ele>221.0</ele><time>2026-05-02T07:35:30.999Z</time></trkpt><trkpt lat="42.288506328947264" lon="13.980659703024262"><ele>221.00000000000003</ele><time>2026-05-02T07:35:31.999Z</time></trkpt><trkpt lat="42.28847821053385" lon="13.980752689126788"><ele>221.0</ele><time>2026-05-02T07:35:32.999Z</time></trkpt><trkpt lat="42.288432893207336" lon="13.980816297435837"><ele>221.0</ele><time>2026-05-02T07:35:33.999Z</time></trkpt><trkpt lat="42.2883682936655" lon="13.980847464348123"><ele>221.0</ele><time>2026-05-02T07:35:34.999Z</time></trkpt><trkpt lat="42.288302085534845" lon="13.980842797962081"><ele>221.0</ele><time>2026-05-02T07:35:35.999Z</time></trkpt><trkpt lat="42.288235659767814" lon="13.980814394030155"><ele>221.00000000000003</ele><time>2026-05-02T07:35:36.999Z</time></trkpt><trkpt lat="42.28818557366828" lon="13.980754004246755"><ele>221.0</ele><time>2026-05-02T07:35:37.999Z</time></trkpt><trkpt lat="42.288153876947206" lon="13.9806692720899"><ele>221.0</ele><time>2026-05-02T07:35:38.999Z</time></trkpt><trkpt lat="42.28813375304967" lon="13.980581459076857"><ele>221.00000000000003</ele><time>2026-05-02T07:35:39.999Z</time></trkpt><trkpt lat="42.28806552619156" lon="13.98048986045245"><ele>221.00000000000003</ele><time>2026-05-02T07:35:41.999Z</time></trkpt><trkpt lat="42.28795289400826" lon="13.980523156544931"><ele>221.0</ele><time>2026-05-02T07:35:43.999Z</time></trkpt><trkpt lat="42.28791379106201" lon="13.980591829003348"><ele>221.0</ele><time>2026-05-02T07:35:44.999Z</time></trkpt><trkpt lat="42.28792831351378" lon="13.980748016869379"><ele>226.33333333333334</ele><time>2026-05-02T07:35:46.999Z</time></trkpt><trkpt lat="42.287949743338764" lon="13.98088996633216"><ele>231.66666666666669</ele><time>2026-05-02T07:35:48.999Z</time></trkpt><trkpt lat="42.28795937803303" lon="13.980983115470618"><ele>237.0</ele><time>2026-05-02T07:35:49.999Z</time></trkpt><trkpt lat="42.287977648872136" lon="13.981080098507384"><ele>242.33333333333331</ele><time>2026-05-02T07:35:50.999Z</time></trkpt><trkpt lat="42.287995969301605" lon="13.981180443066693"><ele>247.66666666666666</ele><time>2026-05-02T07:35:51.999Z</time></trkpt><trkpt lat="42.2880147412507" lon="13.98127145219715"><ele>253.0</ele><time>2026-05-02T07:35:52.999Z</time></trkpt><trkpt lat="42.2880116177975" lon="13.981415426431154"><ele>253.0</ele><time>2026-05-02T07:35:54.999Z</time></trkpt><trkpt lat="42.28796542786676" lon="13.981474618714943"><ele>253.0</ele><time>2026-05-02T07:35:56.999Z</time></trkpt><trkpt lat="42.28787833259076" lon="13.981476499450869"><ele>253.0</ele><time>2026-05-02T07:35:58.999Z</time></trkpt><trkpt lat="42.28780428610255" lon="13.981355151881873"><ele>253.0</ele><time>2026-05-02T07:36:00.999Z</time></trkpt><trkpt lat="42.28778543083615" lon="13.981262263001442"><ele>253.0</ele><time>2026-05-02T07:36:01.999Z</time></trkpt><trkpt lat="42.28773924597929" lon="13.98112477301326"><ele>253.00000000000003</ele><time>2026-05-02T07:36:03.999Z</time></trkpt><trkpt lat="42.28765431811665" lon="13.9810949058776"><ele>253.0</ele><time>2026-05-02T07:36:05.999Z</time></trkpt><trkpt lat="42.28759143057714" lon="13.981072940057533"><ele>253.00000000000003</ele><time>2026-05-02T07:36:06.999Z</time></trkpt><trkpt lat="42.287529124684305" lon="13.981056415179273"><ele>253.00000000000003</ele><time>2026-05-02T07:36:07.999Z</time></trkpt><trkpt lat="42.287459893438175" lon="13.98103045206469"><ele>253.0</ele><time>2026-05-02T07:36:08.999Z</time></trkpt><trkpt lat="42.287386933635915" lon="13.98101164110324"><ele>253.00000000000003</ele><time>2026-05-02T07:36:09.999Z</time></trkpt><trkpt lat="42.28730694332968" lon="13.980986265235812"><ele>253.00000000000003</ele><time>2026-05-02T07:36:10.999Z</time></trkpt><trkpt lat="42.28722015966241" lon="13.980955361654289"><ele>253.66666666666666</ele><time>2026-05-02T07:36:11.999Z</time></trkpt><trkpt lat="42.2871332665135" lon="13.980917974895853"><ele>254.33333333333331</ele><time>2026-05-02T07:36:12.999Z</time></trkpt><trkpt lat="42.28706303998162" lon="13.980895458071625"><ele>255.0</ele><time>2026-05-02T07:36:13.999Z</time></trkpt><trkpt lat="42.28698002828961" lon="13.980809837466644"><ele>255.66666666666669</ele><time>2026-05-02T07:36:15.999Z</time></trkpt><trkpt lat="42.28695935538072" lon="13.980677740934839"><ele>256.33333333333337</ele><time>2026-05-02T07:36:17.999Z</time></trkpt><trkpt lat="42.286958431491946" lon="13.980582884583653"><ele>257.0</ele><time>2026-05-02T07:36:18.999Z</time></trkpt><trkpt lat="42.28696289964435" lon="13.98048091110638"><ele>257.0</ele><time>2026-05-02T07:36:19.999Z</time></trkpt><trkpt lat="42.28697353838292" lon="13.980384331691523"><ele>257.0</ele><time>2026-05-02T07:36:20.999Z</time></trkpt><trkpt lat="42.2869843435417" lon="13.980288366190948"><ele>257.0</ele><time>2026-05-02T07:36:21.999Z</time></trkpt><trkpt lat="42.286989093285996" lon="13.980187422779403"><ele>257.0</ele><time>2026-05-02T07:36:22.999Z</time></trkpt><trkpt lat="42.286987854248295" lon="13.980075884969708"><ele>257.0</ele><time>2026-05-02T07:36:23.999Z</time></trkpt><trkpt lat="42.28697984361608" lon="13.979972145088025"><ele>257.0</ele><time>2026-05-02T07:36:24.999Z</time></trkpt><trkpt lat="42.28696302626515" lon="13.979875565009158"><ele>257.1666666666667</ele><time>2026-05-02T07:36:25.999Z</time></trkpt><trkpt lat="42.28693688429096" lon="13.979793525692973"><ele>257.33333333333337</ele><time>2026-05-02T07:36:26.999Z</time></trkpt><trkpt lat="42.28688383480328" lon="13.97963245835332"><ele>257.5</ele><time>2026-05-02T07:36:28.999Z</time></trkpt><trkpt lat="42.28685717665666" lon="13.979538096531208"><ele>257.6666666666667</ele><time>2026-05-02T07:36:29.999Z</time></trkpt><trkpt lat="42.28684566622116" lon="13.97942714873806"><ele>257.8333333333333</ele><time>2026-05-02T07:36:30.999Z</time></trkpt><trkpt lat="42.286845956773924" lon="13.979317625936206"><ele>258.0</ele><time>2026-05-02T07:36:31.999Z</time></trkpt><trkpt lat="42.2868394806279" lon="13.979190681870838"><ele>257.6</ele><time>2026-05-02T07:36:32.999Z</time></trkpt><trkpt lat="42.286821795795" lon="13.979070525382468"><ele>257.20000000000005</ele><time>2026-05-02T07:36:33.999Z</time></trkpt><trkpt lat="42.28680775157518" lon="13.978944454303246"><ele>256.8</ele><time>2026-05-02T07:36:34.999Z</time></trkpt><trkpt lat="42.2867903902624" lon="13.978815825861414"><ele>256.40000000000003</ele><time>2026-05-02T07:36:35.999Z</time></trkpt><trkpt lat="42.28675854415306" lon="13.978703044538632"><ele>256.0</ele><time>2026-05-02T07:36:36.999Z</time></trkpt><trkpt lat="42.28673208731014" lon="13.97859015644717"><ele>256.0</ele><time>2026-05-02T07:36:37.999Z</time></trkpt><trkpt lat="42.28669285899662" lon="13.97847681898109"><ele>256.0</ele><time>2026-05-02T07:36:38.999Z</time></trkpt><trkpt lat="42.28663857117769" lon="13.978356889492934"><ele>256.0</ele><time>2026-05-02T07:36:39.999Z</time></trkpt><trkpt lat="42.28657333387976" lon="13.978244869552105"><ele>256.0</ele><time>2026-05-02T07:36:40.999Z</time></trkpt><trkpt lat="42.28650790231493" lon="13.978146565257457"><ele>256.0</ele><time>2026-05-02T07:36:41.999Z</time></trkpt><trkpt lat="42.286423315133185" lon="13.978073273650994"><ele>257.8</ele><time>2026-05-02T07:36:42.999Z</time></trkpt><trkpt lat="42.286344506386264" lon="13.977998330294938"><ele>259.6</ele><time>2026-05-02T07:36:43.999Z</time></trkpt><trkpt lat="42.286263812046876" lon="13.977908616154139"><ele>261.4</ele><time>2026-05-02T07:36:44.999Z</time></trkpt><trkpt lat="42.28619299847585" lon="13.977807416046254"><ele>263.2</ele><time>2026-05-02T07:36:45.999Z</time></trkpt><trkpt lat="42.286116895910105" lon="13.977701159137224"><ele>265.0</ele><time>2026-05-02T07:36:46.999Z</time></trkpt><trkpt lat="42.28606110686352" lon="13.977584915291626"><ele>264.8</ele><time>2026-05-02T07:36:47.999Z</time></trkpt><trkpt lat="42.286025913857635" lon="13.977463743053754"><ele>264.6</ele><time>2026-05-02T07:36:48.999Z</time></trkpt><trkpt lat="42.28597581518705" lon="13.977369091381963"><ele>264.4</ele><time>2026-05-02T07:36:49.999Z</time></trkpt><trkpt lat="42.28589858036541" lon="13.977269235241048"><ele>264.2</ele><time>2026-05-02T07:36:50.999Z</time></trkpt><trkpt lat="42.28578674727013" lon="13.977179970559337"><ele>264.0</ele><time>2026-05-02T07:36:51.998Z</time></trkpt><trkpt lat="42.28569841867421" lon="13.977091720640225"><ele>264.0</ele><time>2026-05-02T07:36:53Z</time></trkpt><trkpt lat="42.28562921325727" lon="13.977020259546633"><ele>264.0</ele><time>2026-05-02T07:36:54Z</time></trkpt><trkpt lat="42.285581207287244" lon="13.976964899020718"><ele>264.0</ele><time>2026-05-02T07:36:55Z</time></trkpt><trkpt lat="42.28550048581113" lon="13.976918169798275"><ele>264.0</ele><time>2026-05-02T07:36:56Z</time></trkpt><trkpt lat="42.285442338418854" lon="13.976861047100098"><ele>264.0</ele><time>2026-05-02T07:36:57Z</time></trkpt><trkpt lat="42.28539174347291" lon="13.976786836345896"><ele>264.0</ele><time>2026-05-02T07:36:58Z</time></trkpt><trkpt lat="42.285356084759414" lon="13.97670075059836"><ele>264.8333333333333</ele><time>2026-05-02T07:36:59Z</time></trkpt><trkpt lat="42.28534557512281" lon="13.976614695511165"><ele>265.6666666666667</ele><time>2026-05-02T07:37:00Z</time></trkpt><trkpt lat="42.28535431659363" lon="13.976503011379746"><ele>266.5</ele><time>2026-05-02T07:37:01Z</time></trkpt><trkpt lat="42.28538245909279" lon="13.976379092993582"><ele>267.33333333333337</ele><time>2026-05-02T07:37:02Z</time></trkpt><trkpt lat="42.28540563211648" lon="13.976242860948373"><ele>268.1666666666667</ele><time>2026-05-02T07:37:03Z</time></trkpt><trkpt lat="42.285422694874306" lon="13.976113740212249"><ele>269.0</ele><time>2026-05-02T07:37:04Z</time></trkpt><trkpt lat="42.28543954522349" lon="13.9760018212291"><ele>269.0</ele><time>2026-05-02T07:37:05Z</time></trkpt><trkpt lat="42.28543417440291" lon="13.975898833914334"><ele>269.0</ele><time>2026-05-02T07:37:06Z</time></trkpt><trkpt lat="42.28542044747727" lon="13.975783917269144"><ele>269.0</ele><time>2026-05-02T07:37:07Z</time></trkpt><trkpt lat="42.28540184296026" lon="13.975656618433522"><ele>269.0</ele><time>2026-05-02T07:37:08Z</time></trkpt><trkpt lat="42.28538104833549" lon="13.975537895694508"><ele>269.0</ele><time>2026-05-02T07:37:09Z</time></trkpt><trkpt lat="42.28536505605583" lon="13.975419147359732"><ele>269.0</ele><time>2026-05-02T07:37:10Z</time></trkpt><trkpt lat="42.28534996517556" lon="13.975307396334102"><ele>270.0</ele><time>2026-05-02T07:37:11Z</time></trkpt><trkpt lat="42.28532988638942" lon="13.97519476790787"><ele>271.0</ele><time>2026-05-02T07:37:12Z</time></trkpt><trkpt lat="42.28530277096594" lon="13.97507827136912"><ele>272.0</ele><time>2026-05-02T07:37:13Z</time></trkpt><trkpt lat="42.28527052175633" lon="13.974956401650969"><ele>273.0</ele><time>2026-05-02T07:37:14Z</time></trkpt><trkpt lat="42.28522819675765" lon="13.974840715524012"><ele>274.0</ele><time>2026-05-02T07:37:15Z</time></trkpt><trkpt lat="42.28517094262579" lon="13.974725257166826"><ele>274.5</ele><time>2026-05-02T07:37:16Z</time></trkpt><trkpt lat="42.28509682782489" lon="13.974615400417047"><ele>275.0</ele><time>2026-05-02T07:37:17Z</time></trkpt><trkpt lat="42.28503194973634" lon="13.974442772596749"><ele>275.5</ele><time>2026-05-02T07:37:18Z</time></trkpt><trkpt lat="42.28495318438815" lon="13.97427408578622"><ele>276.0</ele><time>2026-05-02T07:37:19Z</time></trkpt><trkpt lat="42.28488311602137" lon="13.97410873593631"><ele>276.25</ele><time>2026-05-02T07:37:20Z</time></trkpt><trkpt lat="42.28481385714067" lon="13.973940161707961"><ele>276.5</ele><time>2026-05-02T07:37:21Z</time></trkpt><trkpt lat="42.28474735802577" lon="13.973775222317116"><ele>276.75</ele><time>2026-05-02T07:37:22Z</time></trkpt><trkpt lat="42.284683065835125" lon="13.973617599263847"><ele>277.0</ele><time>2026-05-02T07:37:23Z</time></trkpt><trkpt lat="42.284628242482604" lon="13.973471171906523"><ele>279.3333333333333</ele><time>2026-05-02T07:37:24Z</time></trkpt><trkpt lat="42.28457818021305" lon="13.973350391501464"><ele>281.66666666666663</ele><time>2026-05-02T07:37:25Z</time></trkpt><trkpt lat="42.28452873045747" lon="13.97325511068533"><ele>284.0</ele><time>2026-05-02T07:37:26Z</time></trkpt><trkpt lat="42.28448364053267" lon="13.973176111440791"><ele>286.3333333333333</ele><time>2026-05-02T07:37:27Z</time></trkpt><trkpt lat="42.28442522332719" lon="13.973104167342406"><ele>288.6666666666667</ele><time>2026-05-02T07:37:28Z</time></trkpt><trkpt lat="42.28434172884368" lon="13.973025959991846"><ele>291.0</ele><time>2026-05-02T07:37:29Z</time></trkpt><trkpt lat="42.28425153440789" lon="13.972967517272107"><ele>291.0</ele><time>2026-05-02T07:37:30Z</time></trkpt><trkpt lat="42.28415586764599" lon="13.972918665877536"><ele>291.0</ele><time>2026-05-02T07:37:31Z</time></trkpt><trkpt lat="42.284081179324865" lon="13.972859680094684"><ele>291.0</ele><time>2026-05-02T07:37:32Z</time></trkpt><trkpt lat="42.28401625509159" lon="13.972813816814762"><ele>291.0</ele><time>2026-05-02T07:37:33Z</time></trkpt><trkpt lat="42.28391981162319" lon="13.972764698674045"><ele>291.0</ele><time>2026-05-02T07:37:35Z</time></trkpt><trkpt lat="42.28385563008527" lon="13.972731097811659"><ele>291.0</ele><time>2026-05-02T07:37:38Z</time></trkpt><trkpt lat="42.28378479077443" lon="13.972715712334049"><ele>292.2</ele><time>2026-05-02T07:38:30.999Z</time></trkpt><trkpt lat="42.28372359583229" lon="13.972673701169365"><ele>293.40000000000003</ele><time>2026-05-02T07:38:31.999Z</time></trkpt><trkpt lat="42.28364480184314" lon="13.972633465584362"><ele>294.6</ele><time>2026-05-02T07:38:32.999Z</time></trkpt><trkpt lat="42.28356188679456" lon="13.972589441911614"><ele>295.8</ele><time>2026-05-02T07:38:33.999Z</time></trkpt><trkpt lat="42.283465369619336" lon="13.972542361355664"><ele>297.0</ele><time>2026-05-02T07:38:34.999Z</time></trkpt><trkpt lat="42.28336021739205" lon="13.97253373232751"><ele>297.0</ele><time>2026-05-02T07:38:35.999Z</time></trkpt><trkpt lat="42.28325572254534" lon="13.972532520942945"><ele>297.0</ele><time>2026-05-02T07:38:36.999Z</time></trkpt><trkpt lat="42.283165148267656" lon="13.972508433301352"><ele>297.0</ele><time>2026-05-02T07:38:37.999Z</time></trkpt><trkpt lat="42.28309764470817" lon="13.972437155197294"><ele>297.0</ele><time>2026-05-02T07:38:38.999Z</time></trkpt><trkpt lat="42.283042766513056" lon="13.972324625499706"><ele>297.0</ele><time>2026-05-02T07:38:39.999Z</time></trkpt><trkpt lat="42.28298612842874" lon="13.972215693340493"><ele>297.6666666666667</ele><time>2026-05-02T07:38:40.999Z</time></trkpt><trkpt lat="42.28293405615424" lon="13.972133095530179"><ele>298.3333333333333</ele><time>2026-05-02T07:38:41.999Z</time></trkpt><trkpt lat="42.28288591971793" lon="13.972043180871742"><ele>299.0</ele><time>2026-05-02T07:38:43.999Z</time></trkpt><trkpt lat="42.28290750512625" lon="13.971935167337268"><ele>299.66666666666663</ele><time>2026-05-02T07:38:45.999Z</time></trkpt><trkpt lat="42.28295413871399" lon="13.971861038546958"><ele>300.3333333333333</ele><time>2026-05-02T07:38:46.999Z</time></trkpt><trkpt lat="42.28300995235215" lon="13.97176908658959"><ele>301.0</ele><time>2026-05-02T07:38:47.999Z</time></trkpt><trkpt lat="42.28306661180347" lon="13.971642245676652"><ele>299.0</ele><time>2026-05-02T07:38:48.999Z</time></trkpt><trkpt lat="42.28311206647951" lon="13.971496197146893"><ele>297.0</ele><time>2026-05-02T07:38:49.999Z</time></trkpt><trkpt lat="42.28315178317364" lon="13.971354243491772"><ele>295.0</ele><time>2026-05-02T07:38:50.999Z</time></trkpt><trkpt lat="42.28319100808343" lon="13.971224735733193"><ele>293.0</ele><time>2026-05-02T07:38:51.999Z</time></trkpt><trkpt lat="42.28324448255422" lon="13.971111243460882"><ele>291.0</ele><time>2026-05-02T07:38:52.999Z</time></trkpt><trkpt lat="42.28332329399339" lon="13.97100932298507"><ele>291.0</ele><time>2026-05-02T07:38:53.999Z</time></trkpt><trkpt lat="42.283416666771274" lon="13.970916789421459"><ele>291.0</ele><time>2026-05-02T07:38:54.999Z</time></trkpt><trkpt lat="42.28350800841345" lon="13.970826809631337"><ele>291.0</ele><time>2026-05-02T07:38:55.999Z</time></trkpt><trkpt lat="42.28358587896515" lon="13.97073018078049"><ele>291.0</ele><time>2026-05-02T07:38:56.999Z</time></trkpt><trkpt lat="42.2836660152461" lon="13.970631515826556"><ele>291.0</ele><time>2026-05-02T07:38:57.999Z</time></trkpt><trkpt lat="42.28375163129179" lon="13.970554335300342"><ele>290.8</ele><time>2026-05-02T07:38:59Z</time></trkpt><trkpt lat="42.28384479880472" lon="13.97052015373392"><ele>290.6</ele><time>2026-05-02T07:39:00Z</time></trkpt><trkpt lat="42.28395014211295" lon="13.97052406835253"><ele>290.4</ele><time>2026-05-02T07:39:01Z</time></trkpt><trkpt lat="42.284067226855136" lon="13.970533208475642"><ele>290.2</ele><time>2026-05-02T07:39:02Z</time></trkpt><trkpt lat="42.28419108825003" lon="13.970525578469124"><ele>290.0</ele><time>2026-05-02T07:39:03Z</time></trkpt><trkpt lat="42.2843254543116" lon="13.970514808054435"><ele>289.5</ele><time>2026-05-02T07:39:04Z</time></trkpt><trkpt lat="42.28446387350211" lon="13.970473550292853"><ele>289.0</ele><time>2026-05-02T07:39:05Z</time></trkpt><trkpt lat="42.284578817181476" lon="13.970388108344475"><ele>288.5</ele><time>2026-05-02T07:39:06Z</time></trkpt><trkpt lat="42.284696550819966" lon="13.970295773210328"><ele>288.0</ele><time>2026-05-02T07:39:07Z</time></trkpt><trkpt lat="42.284899394671996" lon="13.970349727920189"><ele>288.0</ele><time>2026-05-02T07:39:08Z</time></trkpt><trkpt lat="42.28502993593379" lon="13.970298817383673"><ele>288.0</ele><time>2026-05-02T07:39:09Z</time></trkpt><trkpt lat="42.28514930730072" lon="13.970258141616863"><ele>288.0</ele><time>2026-05-02T07:39:10Z</time></trkpt><trkpt lat="42.28524198095391" lon="13.970226194566688"><ele>288.0</ele><time>2026-05-02T07:39:11Z</time></trkpt><trkpt lat="42.285302461346184" lon="13.970190438747228"><ele>288.0</ele><time>2026-05-02T07:39:12Z</time></trkpt><trkpt lat="42.285398680115385" lon="13.970036306874208"><ele>288.0</ele><time>2026-05-02T07:39:14Z</time></trkpt><trkpt lat="42.28545304651393" lon="13.969925114219256"><ele>288.0</ele><time>2026-05-02T07:39:15Z</time></trkpt><trkpt lat="42.2855033181148" lon="13.96978445324949"><ele>288.0</ele><time>2026-05-02T07:39:16Z</time></trkpt><trkpt lat="42.285554860608464" lon="13.96962989587891"><ele>288.0</ele><time>2026-05-02T07:39:17Z</time></trkpt><trkpt lat="42.285617111918064" lon="13.969470130306593"><ele>288.0</ele><time>2026-05-02T07:39:18Z</time></trkpt><trkpt lat="42.28567504105876" lon="13.969308324947916"><ele>288.0</ele><time>2026-05-02T07:39:19Z</time></trkpt><trkpt lat="42.285722517013454" lon="13.969174284561184"><ele>288.0</ele><time>2026-05-02T07:39:20Z</time></trkpt><trkpt lat="42.285764610589425" lon="13.969056184334866"><ele>288.0</ele><time>2026-05-02T07:39:21Z</time></trkpt><trkpt lat="42.2857987115246" lon="13.968954989915684"><ele>288.0</ele><time>2026-05-02T07:39:22Z</time></trkpt><trkpt lat="42.28582775289708" lon="13.96884526835824"><ele>289.3333333333333</ele><time>2026-05-02T07:39:23Z</time></trkpt><trkpt lat="42.28586239905562" lon="13.96874843493761"><ele>290.6666666666667</ele><time>2026-05-02T07:39:24Z</time></trkpt><trkpt lat="42.28590410110963" lon="13.968667295743426"><ele>292.0</ele><time>2026-05-02T07:39:25Z</time></trkpt><trkpt lat="42.28595665518472" lon="13.96860163579377"><ele>293.33333333333337</ele><time>2026-05-02T07:39:26Z</time></trkpt><trkpt lat="42.2860193635668" lon="13.968533911371429"><ele>294.6666666666667</ele><time>2026-05-02T07:39:27Z</time></trkpt><trkpt lat="42.28608575980615" lon="13.968462573464459"><ele>296.0</ele><time>2026-05-02T07:39:28Z</time></trkpt><trkpt lat="42.28614863517491" lon="13.968378810753222"><ele>297.2</ele><time>2026-05-02T07:39:29Z</time></trkpt><trkpt lat="42.28621278408163" lon="13.968280677448174"><ele>298.40000000000003</ele><time>2026-05-02T07:39:30Z</time></trkpt><trkpt lat="42.28627613534514" lon="13.968174561561264"><ele>299.6</ele><time>2026-05-02T07:39:31Z</time></trkpt><trkpt lat="42.28633121807377" lon="13.968078294828524"><ele>300.8</ele><time>2026-05-02T07:39:32Z</time></trkpt><trkpt lat="42.2863910317782" lon="13.967970292619299"><ele>302.0</ele><time>2026-05-02T07:39:33Z</time></trkpt><trkpt lat="42.2864511303085" lon="13.967853308256355"><ele>300.8</ele><time>2026-05-02T07:39:34Z</time></trkpt><trkpt lat="42.286502369373224" lon="13.967742918531691"><ele>299.6</ele><time>2026-05-02T07:39:35Z</time></trkpt><trkpt lat="42.28655083961138" lon="13.967629993280365"><ele>298.40000000000003</ele><time>2026-05-02T07:39:36Z</time></trkpt><trkpt lat="42.28661549965402" lon="13.96751184337962"><ele>297.2</ele><time>2026-05-02T07:39:37Z</time></trkpt><trkpt lat="42.28667633164848" lon="13.967403983420173"><ele>296.0</ele><time>2026-05-02T07:39:38Z</time></trkpt><trkpt lat="42.286744861354876" lon="13.967296393620712"><ele>296.0</ele><time>2026-05-02T07:39:39Z</time></trkpt><trkpt lat="42.286811645568015" lon="13.967203543479114"><ele>296.0</ele><time>2026-05-02T07:39:40Z</time></trkpt><trkpt lat="42.28687392768427" lon="13.967115491710453"><ele>296.0</ele><time>2026-05-02T07:39:41Z</time></trkpt><trkpt lat="42.286922139321334" lon="13.967030428057386"><ele>296.0</ele><time>2026-05-02T07:39:42Z</time></trkpt><trkpt lat="42.28695826456082" lon="13.966946659839792"><ele>296.0</ele><time>2026-05-02T07:39:43Z</time></trkpt><trkpt lat="42.286989317328036" lon="13.96683604931382"><ele>296.0</ele><time>2026-05-02T07:39:44Z</time></trkpt><trkpt lat="42.28699528641202" lon="13.966716267554755"><ele>298.2</ele><time>2026-05-02T07:39:45Z</time></trkpt><trkpt lat="42.286978348803075" lon="13.96658640396942"><ele>300.40000000000003</ele><time>2026-05-02T07:39:46Z</time></trkpt><trkpt lat="42.286942729463014" lon="13.966466947066836"><ele>302.6</ele><time>2026-05-02T07:39:47Z</time></trkpt><trkpt lat="42.28690436146059" lon="13.966341688777378"><ele>304.8</ele><time>2026-05-02T07:39:48Z</time></trkpt><trkpt lat="42.28686559861937" lon="13.966207511417679"><ele>307.0</ele><time>2026-05-02T07:39:49Z</time></trkpt><trkpt lat="42.286822930044764" lon="13.966074136770827"><ele>307.0</ele><time>2026-05-02T07:39:50Z</time></trkpt><trkpt lat="42.286779168227135" lon="13.965930738846605"><ele>307.0</ele><time>2026-05-02T07:39:51Z</time></trkpt><trkpt lat="42.286741275808566" lon="13.965767935663294"><ele>307.0</ele><time>2026-05-02T07:39:52Z</time></trkpt><trkpt lat="42.2867010664338" lon="13.965606394459277"><ele>307.0</ele><time>2026-05-02T07:39:52.999Z</time></trkpt><trkpt lat="42.28665855909672" lon="13.965457968066989"><ele>308.0</ele><time>2026-05-02T07:39:53.999Z</time></trkpt><trkpt lat="42.28661646562637" lon="13.965332548001761"><ele>309.0</ele><time>2026-05-02T07:39:54.999Z</time></trkpt><trkpt lat="42.286582147754004" lon="13.965220775830268"><ele>310.0</ele><time>2026-05-02T07:39:55.999Z</time></trkpt><trkpt lat="42.28655474194406" lon="13.965094245661522"><ele>311.0</ele><time>2026-05-02T07:39:56.999Z</time></trkpt><trkpt lat="42.28654700755091" lon="13.964964425934081"><ele>312.0</ele><time>2026-05-02T07:39:57.999Z</time></trkpt><trkpt lat="42.286547863429114" lon="13.96481775631857"><ele>312.2</ele><time>2026-05-02T07:39:58.999Z</time></trkpt><trkpt lat="42.286549673041215" lon="13.964669111549256"><ele>312.4</ele><time>2026-05-02T07:39:59.999Z</time></trkpt><trkpt lat="42.286559279329474" lon="13.96453738548133"><ele>312.6</ele><time>2026-05-02T07:40:00.999Z</time></trkpt><trkpt lat="42.28657477434253" lon="13.964423708794696"><ele>312.8</ele><time>2026-05-02T07:40:01.999Z</time></trkpt><trkpt lat="42.286596477362615" lon="13.96431027388735"><ele>313.0</ele><time>2026-05-02T07:40:02.999Z</time></trkpt><trkpt lat="42.28663013297651" lon="13.964218488285871"><ele>313.3333333333333</ele><time>2026-05-02T07:40:03.999Z</time></trkpt><trkpt lat="42.28667885267138" lon="13.96411451822855"><ele>313.66666666666663</ele><time>2026-05-02T07:40:04.999Z</time></trkpt><trkpt lat="42.28673486726793" lon="13.964018058113867"><ele>314.0</ele><time>2026-05-02T07:40:05.999Z</time></trkpt><trkpt lat="42.28679281594469" lon="13.96393692613144"><ele>314.3333333333333</ele><time>2026-05-02T07:40:06.999Z</time></trkpt><trkpt lat="42.28684620177308" lon="13.96387299676182"><ele>314.6666666666667</ele><time>2026-05-02T07:40:07.999Z</time></trkpt><trkpt lat="42.28689069942177" lon="13.96379671618951"><ele>315.0</ele><time>2026-05-02T07:40:08.999Z</time></trkpt><trkpt lat="42.28692493256129" lon="13.96369970508856"><ele>315.0</ele><time>2026-05-02T07:40:09.999Z</time></trkpt><trkpt lat="42.286938955435076" lon="13.963580897256382"><ele>315.0</ele><time>2026-05-02T07:40:10.999Z</time></trkpt><trkpt lat="42.28692039959057" lon="13.963456346761332"><ele>315.0</ele><time>2026-05-02T07:40:11.999Z</time></trkpt><trkpt lat="42.28688418564403" lon="13.963347354389864"><ele>315.0</ele><time>2026-05-02T07:40:12.999Z</time></trkpt><trkpt lat="42.28682334074977" lon="13.963241489374893"><ele>315.0</ele><time>2026-05-02T07:40:13.999Z</time></trkpt><trkpt lat="42.28675809851451" lon="13.963133279882495"><ele>313.75</ele><time>2026-05-02T07:40:14.999Z</time></trkpt><trkpt lat="42.2866985915437" lon="13.963000634931813"><ele>312.5</ele><time>2026-05-02T07:40:15.999Z</time></trkpt><trkpt lat="42.28665208583264" lon="13.96285912034256"><ele>311.25</ele><time>2026-05-02T07:40:16.999Z</time></trkpt><trkpt lat="42.28661340332056" lon="13.962708077295941"><ele>310.0</ele><time>2026-05-02T07:40:17.999Z</time></trkpt><trkpt lat="42.28656187177526" lon="13.962547568133074"><ele>310.0</ele><time>2026-05-02T07:40:18.999Z</time></trkpt><trkpt lat="42.286502596541624" lon="13.962364068716457"><ele>310.0</ele><time>2026-05-02T07:40:19.999Z</time></trkpt><trkpt lat="42.286437429603325" lon="13.962177211266463"><ele>310.0</ele><time>2026-05-02T07:40:20.999Z</time></trkpt><trkpt lat="42.286381486337824" lon="13.962000306552063"><ele>310.0</ele><time>2026-05-02T07:40:21.999Z</time></trkpt><trkpt lat="42.286346030022976" lon="13.961829517687752"><ele>310.0</ele><time>2026-05-02T07:40:22.999Z</time></trkpt><trkpt lat="42.286279594175504" lon="13.961703818035724"><ele>310.0</ele><time>2026-05-02T07:40:23.999Z</time></trkpt><trkpt lat="42.286206153728465" lon="13.961612851654184"><ele>310.0</ele><time>2026-05-02T07:40:24.999Z</time></trkpt><trkpt lat="42.28614356103307" lon="13.961507885100973"><ele>310.0</ele><time>2026-05-02T07:40:25.999Z</time></trkpt><trkpt lat="42.28614831601658" lon="13.961332425931921"><ele>310.0</ele><time>2026-05-02T07:40:26.999Z</time></trkpt><trkpt lat="42.286131020708176" lon="13.961200223649342"><ele>309.2</ele><time>2026-05-02T07:40:27.999Z</time></trkpt><trkpt lat="42.28612208384854" lon="13.961059645926555"><ele>308.4</ele><time>2026-05-02T07:40:28.999Z</time></trkpt><trkpt lat="42.28610806105758" lon="13.960918839209198"><ele>307.6</ele><time>2026-05-02T07:40:29.999Z</time></trkpt><trkpt lat="42.286108805926624" lon="13.960777304715592"><ele>306.8</ele><time>2026-05-02T07:40:30.999Z</time></trkpt><trkpt lat="42.28612028808958" lon="13.960628643835621"><ele>306.0</ele><time>2026-05-02T07:40:31.999Z</time></trkpt><trkpt lat="42.2861444295544" lon="13.960489709477434"><ele>305.5</ele><time>2026-05-02T07:40:32.999Z</time></trkpt><trkpt lat="42.286179882802756" lon="13.960342889849958"><ele>305.0</ele><time>2026-05-02T07:40:33.999Z</time></trkpt><trkpt lat="42.286207992763586" lon="13.960181104256558"><ele>304.5</ele><time>2026-05-02T07:40:34.999Z</time></trkpt><trkpt lat="42.28623243532337" lon="13.960020872980568"><ele>304.0</ele><time>2026-05-02T07:40:35.999Z</time></trkpt><trkpt lat="42.286246808477784" lon="13.959896280288639"><ele>304.0</ele><time>2026-05-02T07:40:36.999Z</time></trkpt><trkpt lat="42.28625077034834" lon="13.959784834427776"><ele>304.0</ele><time>2026-05-02T07:40:38.999Z</time></trkpt><trkpt lat="42.286270163256" lon="13.95963744071477"><ele>304.0</ele><time>2026-05-02T07:40:48.999Z</time></trkpt><trkpt lat="42.28627271033014" lon="13.959541253503962"><ele>304.0</ele><time>2026-05-02T07:40:49.999Z</time></trkpt><trkpt lat="42.28625594442204" lon="13.959430620928575"><ele>304.0</ele><time>2026-05-02T07:40:50.999Z</time></trkpt><trkpt lat="42.28623769636556" lon="13.959312352465819"><ele>304.0</ele><time>2026-05-02T07:40:51.999Z</time></trkpt><trkpt lat="42.286199875203" lon="13.959195299664596"><ele>302.4</ele><time>2026-05-02T07:40:52.999Z</time></trkpt><trkpt lat="42.286147283975765" lon="13.959089477286765"><ele>300.79999999999995</ele><time>2026-05-02T07:40:53.999Z</time></trkpt><trkpt lat="42.28608790915044" lon="13.95899292612014"><ele>299.20000000000005</ele><time>2026-05-02T07:40:54.999Z</time></trkpt><trkpt lat="42.28601713518877" lon="13.95890789902204"><ele>297.6</ele><time>2026-05-02T07:40:55.999Z</time></trkpt><trkpt lat="42.28594050553317" lon="13.958824207782234"><ele>296.0</ele><time>2026-05-02T07:40:56.999Z</time></trkpt><trkpt lat="42.28587230035267" lon="13.958742886044844"><ele>296.0</ele><time>2026-05-02T07:40:57.999Z</time></trkpt><trkpt lat="42.285803265179034" lon="13.958659795089096"><ele>296.0</ele><time>2026-05-02T07:40:58.999Z</time></trkpt><trkpt lat="42.28574659651118" lon="13.958577786402083"><ele>296.0</ele><time>2026-05-02T07:40:59.999Z</time></trkpt><trkpt lat="42.28570037100323" lon="13.958510688009092"><ele>296.0</ele><time>2026-05-02T07:41:00.999Z</time></trkpt><trkpt lat="42.285631972607376" lon="13.958420961055266"><ele>296.0</ele><time>2026-05-02T07:41:02.999Z</time></trkpt><trkpt lat="42.285612640419856" lon="13.958334736252416"><ele>296.0</ele><time>2026-05-02T07:41:06Z</time></trkpt><trkpt lat="42.28555009767762" lon="13.958219358016526"><ele>295.5</ele><time>2026-05-02T07:41:08Z</time></trkpt><trkpt lat="42.285483098235545" lon="13.958168645683566"><ele>295.0</ele><time>2026-05-02T07:41:09Z</time></trkpt><trkpt lat="42.28539819000445" lon="13.958125208281668"><ele>294.5</ele><time>2026-05-02T07:41:10Z</time></trkpt><trkpt lat="42.28531611179362" lon="13.958088781424046"><ele>294.0</ele><time>2026-05-02T07:41:11Z</time></trkpt><trkpt lat="42.28523903279416" lon="13.958048228807009"><ele>293.5</ele><time>2026-05-02T07:41:12Z</time></trkpt><trkpt lat="42.28516522082051" lon="13.95800577582973"><ele>293.0</ele><time>2026-05-02T07:41:13Z</time></trkpt><trkpt lat="42.285095732545564" lon="13.957957144502112"><ele>293.0</ele><time>2026-05-02T07:41:14Z</time></trkpt><trkpt lat="42.28500639971428" lon="13.957904604145924"><ele>293.0</ele><time>2026-05-02T07:41:15Z</time></trkpt><trkpt lat="42.28490982460207" lon="13.957845090546197"><ele>293.0</ele><time>2026-05-02T07:41:16Z</time></trkpt><trkpt lat="42.284813303966004" lon="13.957792794713304"><ele>293.0</ele><time>2026-05-02T07:41:17Z</time></trkpt><trkpt lat="42.284719648748585" lon="13.95773180878661"><ele>293.0</ele><time>2026-05-02T07:41:18Z</time></trkpt><trkpt lat="42.28462354941625" lon="13.957668013593425"><ele>291.75</ele><time>2026-05-02T07:41:19Z</time></trkpt><trkpt lat="42.2845255886149" lon="13.957599950964315"><ele>290.5</ele><time>2026-05-02T07:41:20Z</time></trkpt><trkpt lat="42.2844166732773" lon="13.957533826975277"><ele>289.25</ele><time>2026-05-02T07:41:21Z</time></trkpt><trkpt lat="42.284310987974116" lon="13.957454273299863"><ele>288.0</ele><time>2026-05-02T07:41:22Z</time></trkpt><trkpt lat="42.28420737689412" lon="13.957363632515388"><ele>287.25</ele><time>2026-05-02T07:41:23Z</time></trkpt><trkpt lat="42.28411358997716" lon="13.957252242996121"><ele>286.5</ele><time>2026-05-02T07:41:24Z</time></trkpt><trkpt lat="42.28401966256244" lon="13.957123999993627"><ele>285.75</ele><time>2026-05-02T07:41:25Z</time></trkpt><trkpt lat="42.283921126561864" lon="13.95698903324184"><ele>285.0</ele><time>2026-05-02T07:41:26Z</time></trkpt><trkpt lat="42.283822848105146" lon="13.956842973262427"><ele>283.0</ele><time>2026-05-02T07:41:27Z</time></trkpt><trkpt lat="42.28371863428693" lon="13.956702444432096"><ele>281.0</ele><time>2026-05-02T07:41:28Z</time></trkpt><trkpt lat="42.283609302446095" lon="13.956568560173842"><ele>279.0</ele><time>2026-05-02T07:41:29Z</time></trkpt><trkpt lat="42.28351601024615" lon="13.956431597037755"><ele>277.0</ele><time>2026-05-02T07:41:30Z</time></trkpt><trkpt lat="42.28342544589591" lon="13.95629009549508"><ele>277.0</ele><time>2026-05-02T07:41:31Z</time></trkpt><trkpt lat="42.28331666261445" lon="13.956148608112212"><ele>277.0</ele><time>2026-05-02T07:41:32Z</time></trkpt><trkpt lat="42.28324127625112" lon="13.956005280015031"><ele>277.0</ele><time>2026-05-02T07:41:33Z</time></trkpt><trkpt lat="42.283154550969336" lon="13.955866939923016"><ele>277.0</ele><time>2026-05-02T07:41:34Z</time></trkpt><trkpt lat="42.283020930029764" lon="13.955751197382313"><ele>275.0</ele><time>2026-05-02T07:41:35Z</time></trkpt><trkpt lat="42.28291063042968" lon="13.955626132087131"><ele>273.0</ele><time>2026-05-02T07:41:36Z</time></trkpt><trkpt lat="42.28280168254179" lon="13.955502409060704"><ele>271.0</ele><time>2026-05-02T07:41:37Z</time></trkpt><trkpt lat="42.28269918827206" lon="13.955380505667614"><ele>269.0</ele><time>2026-05-02T07:41:38Z</time></trkpt><trkpt lat="42.28260995690113" lon="13.95526434585239"><ele>269.0</ele><time>2026-05-02T07:41:39Z</time></trkpt><trkpt lat="42.282516840477356" lon="13.955148670441327"><ele>269.0</ele><time>2026-05-02T07:41:40Z</time></trkpt><trkpt lat="42.282424269598174" lon="13.955044457637538"><ele>269.0</ele><time>2026-05-02T07:41:41Z</time></trkpt><trkpt lat="42.28233158926095" lon="13.954959105392513"><ele>269.0</ele><time>2026-05-02T07:41:42Z</time></trkpt><trkpt lat="42.28222496809835" lon="13.954905982558403"><ele>267.0</ele><time>2026-05-02T07:41:43Z</time></trkpt><trkpt lat="42.28210776691222" lon="13.954893454756776"><ele>265.0</ele><time>2026-05-02T07:41:44Z</time></trkpt><trkpt lat="42.28198227751931" lon="13.954898576690335"><ele>263.0</ele><time>2026-05-02T07:41:45Z</time></trkpt><trkpt lat="42.28185637725811" lon="13.954918011387619"><ele>261.0</ele><time>2026-05-02T07:41:46Z</time></trkpt><trkpt lat="42.28173832914422" lon="13.95494066687529"><ele>261.0</ele><time>2026-05-02T07:41:47Z</time></trkpt><trkpt lat="42.28162590553179" lon="13.954943595648915"><ele>261.0</ele><time>2026-05-02T07:41:48Z</time></trkpt><trkpt lat="42.28151892588322" lon="13.954922345555447"><ele>261.0</ele><time>2026-05-02T07:41:49Z</time></trkpt><trkpt lat="42.281420618327246" lon="13.954883487333468"><ele>261.0</ele><time>2026-05-02T07:41:50Z</time></trkpt><trkpt lat="42.28132876103187" lon="13.95480984567533"><ele>261.0</ele><time>2026-05-02T07:41:51Z</time></trkpt><trkpt lat="42.28123993579186" lon="13.954706579359916"><ele>260.25</ele><time>2026-05-02T07:41:52Z</time></trkpt><trkpt lat="42.28115206438886" lon="13.954593117551228"><ele>259.5</ele><time>2026-05-02T07:41:53Z</time></trkpt><trkpt lat="42.281058149718255" lon="13.954492399816985"><ele>258.75</ele><time>2026-05-02T07:41:54Z</time></trkpt><trkpt lat="42.28094834550427" lon="13.954404838891673"><ele>258.0</ele><time>2026-05-02T07:41:55Z</time></trkpt><trkpt lat="42.280831553755306" lon="13.954342115226869"><ele>258.0</ele><time>2026-05-02T07:41:56Z</time></trkpt><trkpt lat="42.280708121093326" lon="13.954291832015327"><ele>258.0</ele><time>2026-05-02T07:41:57Z</time></trkpt><trkpt lat="42.280591738573214" lon="13.954220900429423"><ele>258.0</ele><time>2026-05-02T07:41:58Z</time></trkpt><trkpt lat="42.28048006629876" lon="13.954131277958734"><ele>258.0</ele><time>2026-05-02T07:41:59Z</time></trkpt><trkpt lat="42.28037438052174" lon="13.954038875540496"><ele>254.5</ele><time>2026-05-02T07:42:00Z</time></trkpt><trkpt lat="42.28025976295534" lon="13.953976739633708"><ele>251.0</ele><time>2026-05-02T07:42:01Z</time></trkpt><trkpt lat="42.28014856676717" lon="13.953934544167362"><ele>247.5</ele><time>2026-05-02T07:42:02Z</time></trkpt><trkpt lat="42.2800360644623" lon="13.953914069771677"><ele>244.0</ele><time>2026-05-02T07:42:03Z</time></trkpt><trkpt lat="42.27992434513175" lon="13.953913631658237"><ele>244.0</ele><time>2026-05-02T07:42:04Z</time></trkpt><trkpt lat="42.279818797546966" lon="13.953915692908618"><ele>243.99999999999997</ele><time>2026-05-02T07:42:05Z</time></trkpt><trkpt lat="42.279717951408124" lon="13.953898186696575"><ele>243.99999999999997</ele><time>2026-05-02T07:42:05.999Z</time></trkpt><trkpt lat="42.27961514278906" lon="13.953849516289125"><ele>244.0</ele><time>2026-05-02T07:42:06.999Z</time></trkpt><trkpt lat="42.279506451487464" lon="13.953791186866326"><ele>244.0</ele><time>2026-05-02T07:42:07.999Z</time></trkpt><trkpt lat="42.279386158390004" lon="13.953741347747236"><ele>243.75</ele><time>2026-05-02T07:42:08.999Z</time></trkpt><trkpt lat="42.27926107031389" lon="13.953693139285846"><ele>243.5</ele><time>2026-05-02T07:42:09.999Z</time></trkpt><trkpt lat="42.27913526283239" lon="13.953651081985916"><ele>243.25</ele><time>2026-05-02T07:42:10.999Z</time></trkpt><trkpt lat="42.27900653182224" lon="13.953615006988219"><ele>243.0</ele><time>2026-05-02T07:42:11.999Z</time></trkpt><trkpt lat="42.27887875975528" lon="13.953575856813721"><ele>244.25</ele><time>2026-05-02T07:42:12.999Z</time></trkpt><trkpt lat="42.278753368002896" lon="13.953538466695582"><ele>245.5</ele><time>2026-05-02T07:42:13.999Z</time></trkpt><trkpt lat="42.278626537250084" lon="13.953483832388505"><ele>246.75</ele><time>2026-05-02T07:42:14.999Z</time></trkpt><trkpt lat="42.278495423353895" lon="13.953443241178157"><ele>248.0</ele><time>2026-05-02T07:42:15.999Z</time></trkpt><trkpt lat="42.27837601253054" lon="13.95341350695376"><ele>245.25</ele><time>2026-05-02T07:42:16.999Z</time></trkpt><trkpt lat="42.27825884216862" lon="13.953365369443853"><ele>242.5</ele><time>2026-05-02T07:42:17.999Z</time></trkpt><trkpt lat="42.27814232428737" lon="13.953323549855142"><ele>239.75</ele><time>2026-05-02T07:42:18.999Z</time></trkpt><trkpt lat="42.27802506477543" lon="13.953290249573207"><ele>237.0</ele><time>2026-05-02T07:42:19.999Z</time></trkpt><trkpt lat="42.27790742559766" lon="13.953258512896337"><ele>237.0</ele><time>2026-05-02T07:42:20.999Z</time></trkpt><trkpt lat="42.277787422718234" lon="13.953228646975104"><ele>237.0</ele><time>2026-05-02T07:42:21.999Z</time></trkpt><trkpt lat="42.2776656947296" lon="13.95320288701765"><ele>237.0</ele><time>2026-05-02T07:42:22.999Z</time></trkpt><trkpt lat="42.27754816667723" lon="13.953174230013785"><ele>237.0</ele><time>2026-05-02T07:42:23.999Z</time></trkpt><trkpt lat="42.27744399064938" lon="13.953150032619808"><ele>237.0</ele><time>2026-05-02T07:42:24.999Z</time></trkpt><trkpt lat="42.277356046255235" lon="13.953116432791472"><ele>237.0</ele><time>2026-05-02T07:42:25.999Z</time></trkpt><trkpt lat="42.2772799110922" lon="13.953083671324217"><ele>237.0</ele><time>2026-05-02T07:42:26.999Z</time></trkpt><trkpt lat="42.27720347238962" lon="13.953034133782516"><ele>237.0</ele><time>2026-05-02T07:42:28.999Z</time></trkpt><trkpt lat="42.27722856176346" lon="13.952939898964893"><ele>237.0</ele><time>2026-05-02T07:42:32.999Z</time></trkpt><trkpt lat="42.27733839539625" lon="13.952960187175787"><ele>237.0</ele><time>2026-05-02T07:42:35.999Z</time></trkpt><trkpt lat="42.27741295651521" lon="13.952998916677156"><ele>237.0</ele><time>2026-05-02T07:42:36.999Z</time></trkpt><trkpt lat="42.277488847915386" lon="13.953017494850759"><ele>237.0</ele><time>2026-05-02T07:42:37.999Z</time></trkpt><trkpt lat="42.27756225411898" lon="13.95302162272788"><ele>237.0</ele><time>2026-05-02T07:42:38.999Z</time></trkpt><trkpt lat="42.277632261201155" lon="13.953013464990665"><ele>237.0</ele><time>2026-05-02T07:42:39.999Z</time></trkpt><trkpt lat="42.27774183874825" lon="13.95295015587603"><ele>237.0</ele><time>2026-05-02T07:42:41.999Z</time></trkpt><trkpt lat="42.277819029033175" lon="13.952848263319986"><ele>237.0</ele><time>2026-05-02T07:42:43.999Z</time></trkpt><trkpt lat="42.277844517020476" lon="13.95267451963683"><ele>237.0</ele><time>2026-05-02T07:42:45.999Z</time></trkpt><trkpt lat="42.27783438174257" lon="13.95258232236057"><ele>237.0</ele><time>2026-05-02T07:42:46.999Z</time></trkpt><trkpt lat="42.27780562838748" lon="13.95249517229705"><ele>237.0</ele><time>2026-05-02T07:42:47.999Z</time></trkpt><trkpt lat="42.27776953246293" lon="13.952423006392914"><ele>237.0</ele><time>2026-05-02T07:42:48.999Z</time></trkpt><trkpt lat="42.27767396857196" lon="13.9523334621658"><ele>237.0</ele><time>2026-05-02T07:42:50.999Z</time></trkpt><trkpt lat="42.27755976700285" lon="13.952278556304378"><ele>237.0</ele><time>2026-05-02T07:42:52.999Z</time></trkpt><trkpt lat="42.277463612912264" lon="13.952213787746173"><ele>235.28571428571425</ele><time>2026-05-02T07:42:54.999Z</time></trkpt><trkpt lat="42.27740596751732" lon="13.952170564011887"><ele>233.57142857142856</ele><time>2026-05-02T07:42:56.999Z</time></trkpt><trkpt lat="42.27735828667619" lon="13.9521018552501"><ele>231.85714285714286</ele><time>2026-05-02T07:43:00.999Z</time></trkpt><trkpt lat="42.277328974151885" lon="13.951981325875625"><ele>230.14285714285714</ele><time>2026-05-02T07:43:03.999Z</time></trkpt><trkpt lat="42.27732980384768" lon="13.951887639101749"><ele>228.42857142857144</ele><time>2026-05-02T07:43:05.999Z</time></trkpt><trkpt lat="42.27733757249182" lon="13.95180156627528"><ele>226.71428571428575</ele><time>2026-05-02T07:43:07.999Z</time></trkpt><trkpt lat="42.27734868373865" lon="13.95171707603557"><ele>225.00000000000003</ele><time>2026-05-02T07:43:09.999Z</time></trkpt><trkpt lat="42.277368420011996" lon="13.951619845292903"><ele>223.0</ele><time>2026-05-02T07:43:13Z</time></trkpt><trkpt lat="42.27739300866057" lon="13.951515743514344"><ele>221.0</ele><time>2026-05-02T07:43:19Z</time></trkpt><trkpt lat="42.27746606736647" lon="13.951456445392285"><ele>219.0</ele><time>2026-05-02T07:43:23Z</time></trkpt><trkpt lat="42.27753783593052" lon="13.951470034952013"><ele>217.0</ele><time>2026-05-02T07:43:25Z</time></trkpt><trkpt lat="42.2776168997244" lon="13.95151599163832"><ele>215.0</ele><time>2026-05-02T07:43:27Z</time></trkpt><trkpt lat="42.277692641356914" lon="13.95153798431383"><ele>213.0</ele><time>2026-05-02T07:43:29Z</time></trkpt><trkpt lat="42.27776635223544" lon="13.951498891501146"><ele>213.0</ele><time>2026-05-02T07:43:32Z</time></trkpt><trkpt lat="42.277767458593814" lon="13.951410976131367"><ele>213.0</ele><time>2026-05-02T07:43:34Z</time></trkpt><trkpt lat="42.27772392157545" lon="13.95132764434904"><ele>213.0</ele><time>2026-05-02T07:43:36Z</time></trkpt><trkpt lat="42.27767718811939" lon="13.95122942438408"><ele>213.0</ele><time>2026-05-02T07:43:38Z</time></trkpt><trkpt lat="42.27761525048647" lon="13.951117847694595"><ele>213.0</ele><time>2026-05-02T07:43:40Z</time></trkpt><trkpt lat="42.27757834262798" lon="13.951041628425033"><ele>213.0</ele><time>2026-05-02T07:43:41Z</time></trkpt><trkpt lat="42.2775451100481" lon="13.950964942364513"><ele>213.0</ele><time>2026-05-02T07:43:42Z</time></trkpt><trkpt lat="42.277514255841275" lon="13.950888265874378"><ele>213.0</ele><time>2026-05-02T07:43:43Z</time></trkpt><trkpt lat="42.27744403210718" lon="13.950749808912578"><ele>213.0</ele><time>2026-05-02T07:43:45Z</time></trkpt><trkpt lat="42.27740690123928" lon="13.950676615414713"><ele>213.0</ele><time>2026-05-02T07:43:46Z</time></trkpt><trkpt lat="42.277371882597414" lon="13.950601866084527"><ele>213.0</ele><time>2026-05-02T07:43:47Z</time></trkpt><trkpt lat="42.27730674965208" lon="13.950455618070512"><ele>213.0</ele><time>2026-05-02T07:43:49Z</time></trkpt><trkpt lat="42.277265164875544" lon="13.950376233069964"><ele>211.0</ele><time>2026-05-02T07:43:50Z</time></trkpt><trkpt lat="42.27721819651154" lon="13.95029209402824"><ele>209.0</ele><time>2026-05-02T07:43:51Z</time></trkpt><trkpt lat="42.27717312203095" lon="13.950226781319305"><ele>207.0</ele><time>2026-05-02T07:43:52Z</time></trkpt><trkpt lat="42.277085298747224" lon="13.950123537002861"><ele>205.0</ele><time>2026-05-02T07:43:54Z</time></trkpt><trkpt lat="42.27700594349521" lon="13.950054112983416"><ele>203.0</ele><time>2026-05-02T07:43:56Z</time></trkpt><trkpt lat="42.27693698886963" lon="13.950008256625441"><ele>201.0</ele><time>2026-05-02T07:43:58Z</time></trkpt><trkpt lat="42.27690949921327" lon="13.949907531982824"><ele>199.4</ele><time>2026-05-02T07:44:02Z</time></trkpt><trkpt lat="42.27697975151469" lon="13.949841064308172"><ele>197.8</ele><time>2026-05-02T07:44:05Z</time></trkpt><trkpt lat="42.277090331065374" lon="13.949857447979836"><ele>196.20000000000002</ele><time>2026-05-02T07:44:07Z</time></trkpt><trkpt lat="42.27716313842051" lon="13.949869077530451"><ele>194.60000000000002</ele><time>2026-05-02T07:44:08Z</time></trkpt><trkpt lat="42.277231250664364" lon="13.949865781739442"><ele>193.0</ele><time>2026-05-02T07:44:09Z</time></trkpt><trkpt lat="42.27734376408151" lon="13.949806737559742"><ele>192.99999999999997</ele><time>2026-05-02T07:44:11Z</time></trkpt><trkpt lat="42.27738817881673" lon="13.949727711114171"><ele>193.0</ele><time>2026-05-02T07:44:12Z</time></trkpt><trkpt lat="42.277407173124914" lon="13.949627243480833"><ele>193.0</ele><time>2026-05-02T07:44:13Z</time></trkpt><trkpt lat="42.277405174586825" lon="13.949517547446757"><ele>193.0</ele><time>2026-05-02T07:44:13.999Z</time></trkpt><trkpt lat="42.277387737488155" lon="13.949432243396915"><ele>192.99999999999997</ele><time>2026-05-02T07:44:14.999Z</time></trkpt><trkpt lat="42.27727539256301" lon="13.949329912703796"><ele>193.0</ele><time>2026-05-02T07:44:16.999Z</time></trkpt><trkpt lat="42.27719902544647" lon="13.949304748832592"><ele>192.99999999999997</ele><time>2026-05-02T07:44:17.999Z</time></trkpt><trkpt lat="42.277118285156405" lon="13.949294920683164"><ele>193.0</ele><time>2026-05-02T07:44:18.999Z</time></trkpt><trkpt lat="42.27704463691445" lon="13.949274867668057"><ele>193.0</ele><time>2026-05-02T07:44:19.999Z</time></trkpt><trkpt lat="42.276986400524024" lon="13.949222085598773"><ele>193.0</ele><time>2026-05-02T07:44:20.999Z</time></trkpt><trkpt lat="42.27692435518657" lon="13.94915070938797"><ele>192.99999999999997</ele><time>2026-05-02T07:44:21.999Z</time></trkpt><trkpt lat="42.27685221165052" lon="13.949069635880562"><ele>193.0</ele><time>2026-05-02T07:44:22.999Z</time></trkpt><trkpt lat="42.276790136353114" lon="13.948992943528031"><ele>192.66666666666666</ele><time>2026-05-02T07:44:23.999Z</time></trkpt><trkpt lat="42.276726423470265" lon="13.948922679822605"><ele>192.33333333333331</ele><time>2026-05-02T07:44:24.999Z</time></trkpt><trkpt lat="42.27667163686511" lon="13.948841407816829"><ele>192.0</ele><time>2026-05-02T07:44:25.999Z</time></trkpt><trkpt lat="42.276629524866486" lon="13.94873619885541"><ele>191.66666666666666</ele><time>2026-05-02T07:44:26.999Z</time></trkpt><trkpt lat="42.27660991971596" lon="13.9486247920582"><ele>191.33333333333331</ele><time>2026-05-02T07:44:27.999Z</time></trkpt><trkpt lat="42.276581215346106" lon="13.948494587056954"><ele>191.0</ele><time>2026-05-02T07:44:28.999Z</time></trkpt><trkpt lat="42.276544466065644" lon="13.948355319314327"><ele>191.0</ele><time>2026-05-02T07:44:29.999Z</time></trkpt><trkpt lat="42.276511948364664" lon="13.948221484618823"><ele>191.0</ele><time>2026-05-02T07:44:30.999Z</time></trkpt><trkpt lat="42.2765018424232" lon="13.948077431640511"><ele>191.0</ele><time>2026-05-02T07:44:31.999Z</time></trkpt><trkpt lat="42.27649751745732" lon="13.947926497753006"><ele>191.0</ele><time>2026-05-02T07:44:32.999Z</time></trkpt><trkpt lat="42.27652666913014" lon="13.947749081268407"><ele>191.0</ele><time>2026-05-02T07:44:33.999Z</time></trkpt><trkpt lat="42.27655831510003" lon="13.947547966135337"><ele>191.0</ele><time>2026-05-02T07:44:34.999Z</time></trkpt><trkpt lat="42.27643064378469" lon="13.947515638188863"><ele>191.0</ele><time>2026-05-02T07:44:35.999Z</time></trkpt><trkpt lat="42.27641299186244" lon="13.947385540142394"><ele>191.0</ele><time>2026-05-02T07:44:36.999Z</time></trkpt><trkpt lat="42.276390585720925" lon="13.94724454954718"><ele>191.60000000000002</ele><time>2026-05-02T07:44:37.999Z</time></trkpt><trkpt lat="42.276369993384904" lon="13.94709295390567"><ele>192.2</ele><time>2026-05-02T07:44:38.999Z</time></trkpt><trkpt lat="42.27634970857432" lon="13.946939343606557"><ele>192.8</ele><time>2026-05-02T07:44:39.999Z</time></trkpt><trkpt lat="42.2763310200829" lon="13.946796380610479"><ele>193.39999999999998</ele><time>2026-05-02T07:44:40.999Z</time></trkpt><trkpt lat="42.27630303646196" lon="13.946669520851001"><ele>194.0</ele><time>2026-05-02T07:44:41.999Z</time></trkpt><trkpt lat="42.27627985726527" lon="13.946560725072844"><ele>194.00000000000003</ele><time>2026-05-02T07:44:42.999Z</time></trkpt><trkpt lat="42.27625857200353" lon="13.946453953951279"><ele>194.0</ele><time>2026-05-02T07:44:43.999Z</time></trkpt><trkpt lat="42.27623717113462" lon="13.9463472100793"><ele>194.0</ele><time>2026-05-02T07:44:44.999Z</time></trkpt><trkpt lat="42.27620390739879" lon="13.94624949055148"><ele>194.0</ele><time>2026-05-02T07:44:45.999Z</time></trkpt><trkpt lat="42.276160684864074" lon="13.946186275193702"><ele>194.00000000000003</ele><time>2026-05-02T07:44:46.999Z</time></trkpt><trkpt lat="42.27609362216606" lon="13.94612443360318"><ele>194.0</ele><time>2026-05-02T07:44:47.999Z</time></trkpt><trkpt lat="42.276013715144394" lon="13.94607608819325"><ele>194.0</ele><time>2026-05-02T07:44:48.999Z</time></trkpt><trkpt lat="42.2759270657279" lon="13.946030565670045"><ele>194.0</ele><time>2026-05-02T07:44:49.999Z</time></trkpt><trkpt lat="42.27583403873191" lon="13.945976759348284"><ele>194.0</ele><time>2026-05-02T07:44:50.999Z</time></trkpt><trkpt lat="42.275738336024055" lon="13.945914873889262"><ele>194.0</ele><time>2026-05-02T07:44:51.999Z</time></trkpt><trkpt lat="42.27564354775682" lon="13.945849727473792"><ele>194.0</ele><time>2026-05-02T07:44:52.999Z</time></trkpt><trkpt lat="42.27556342239368" lon="13.945787281086998"><ele>193.79999999999998</ele><time>2026-05-02T07:44:53.999Z</time></trkpt><trkpt lat="42.27550549831263" lon="13.94573034440705"><ele>193.6</ele><time>2026-05-02T07:44:54.999Z</time></trkpt><trkpt lat="42.27543971148866" lon="13.945595991607478"><ele>193.4</ele><time>2026-05-02T07:44:56.999Z</time></trkpt><trkpt lat="42.275451555340275" lon="13.94542747782949"><ele>193.2</ele><time>2026-05-02T07:44:58.999Z</time></trkpt><trkpt lat="42.275543850815765" lon="13.945345720301834"><ele>193.0</ele><time>2026-05-02T07:45:00.999Z</time></trkpt><trkpt lat="42.27567448329451" lon="13.945330210182785"><ele>196.2</ele><time>2026-05-02T07:45:02.999Z</time></trkpt><trkpt lat="42.275753652919455" lon="13.945335368639071"><ele>199.4</ele><time>2026-05-02T07:45:03.999Z</time></trkpt><trkpt lat="42.27584334257421" lon="13.945319988114797"><ele>202.6</ele><time>2026-05-02T07:45:04.999Z</time></trkpt><trkpt lat="42.27593503866697" lon="13.945301279855709"><ele>205.79999999999998</ele><time>2026-05-02T07:45:05.999Z</time></trkpt><trkpt lat="42.27604264856141" lon="13.94526319588371"><ele>209.0</ele><time>2026-05-02T07:45:06.999Z</time></trkpt><trkpt lat="42.27614091681175" lon="13.945238962107306"><ele>209.0</ele><time>2026-05-02T07:45:07.999Z</time></trkpt><trkpt lat="42.27624968422976" lon="13.945216886218331"><ele>209.0</ele><time>2026-05-02T07:45:08.999Z</time></trkpt><trkpt lat="42.27635703182323" lon="13.9451986154413"><ele>209.0</ele><time>2026-05-02T07:45:09.999Z</time></trkpt><trkpt lat="42.276452806354584" lon="13.945189947589007"><ele>209.0</ele><time>2026-05-02T07:45:10.999Z</time></trkpt><trkpt lat="42.276542057466614" lon="13.945181261334453"><ele>209.0</ele><time>2026-05-02T07:45:11.999Z</time></trkpt><trkpt lat="42.27662713663862" lon="13.945147685772385"><ele>210.6</ele><time>2026-05-02T07:45:12.999Z</time></trkpt><trkpt lat="42.27672545869994" lon="13.945121337396424"><ele>212.2</ele><time>2026-05-02T07:45:13.999Z</time></trkpt><trkpt lat="42.27682351783582" lon="13.945092917579066"><ele>213.79999999999998</ele><time>2026-05-02T07:45:14.999Z</time></trkpt><trkpt lat="42.27690677410824" lon="13.945067172556445"><ele>215.39999999999998</ele><time>2026-05-02T07:45:15.999Z</time></trkpt><trkpt lat="42.27696332360252" lon="13.945022278436511"><ele>217.0</ele><time>2026-05-02T07:45:17Z</time></trkpt><trkpt lat="42.27701547255076" lon="13.94484890771746"><ele>217.83333333333331</ele><time>2026-05-02T07:45:19Z</time></trkpt><trkpt lat="42.2770356748676" lon="13.944746114410371"><ele>218.66666666666666</ele><time>2026-05-02T07:45:20Z</time></trkpt><trkpt lat="42.27705426633306" lon="13.944643216495408"><ele>219.5</ele><time>2026-05-02T07:45:21Z</time></trkpt><trkpt lat="42.277077235962714" lon="13.944528335657232"><ele>220.33333333333331</ele><time>2026-05-02T07:45:22Z</time></trkpt><trkpt lat="42.27709781240501" lon="13.944397851436714"><ele>221.16666666666666</ele><time>2026-05-02T07:45:24Z</time></trkpt><trkpt lat="42.27712486476834" lon="13.944288287747515"><ele>222.0</ele><time>2026-05-02T07:45:26Z</time></trkpt><trkpt lat="42.27713844921639" lon="13.944200219491222"><ele>222.2</ele><time>2026-05-02T07:45:27Z</time></trkpt><trkpt lat="42.277155043507484" lon="13.94410152627117"><ele>222.39999999999998</ele><time>2026-05-02T07:45:28Z</time></trkpt><trkpt lat="42.27717055925237" lon="13.943981026691567"><ele>222.60000000000002</ele><time>2026-05-02T07:45:29Z</time></trkpt><trkpt lat="42.27718723300466" lon="13.943845394775396"><ele>222.8</ele><time>2026-05-02T07:45:30Z</time></trkpt><trkpt lat="42.27718837244726" lon="13.943707032006259"><ele>223.0</ele><time>2026-05-02T07:45:31Z</time></trkpt><trkpt lat="42.27717525006747" lon="13.9435770997542"><ele>222.99999999999997</ele><time>2026-05-02T07:45:32Z</time></trkpt><trkpt lat="42.277153020458194" lon="13.94347130491771"><ele>223.0</ele><time>2026-05-02T07:45:33Z</time></trkpt><trkpt lat="42.27713385812947" lon="13.943377766104671"><ele>223.0</ele><time>2026-05-02T07:45:34Z</time></trkpt><trkpt lat="42.27710548532493" lon="13.943293240280322"><ele>223.0</ele><time>2026-05-02T07:45:35Z</time></trkpt><trkpt lat="42.277059946379886" lon="13.943209449812807"><ele>222.99999999999997</ele><time>2026-05-02T07:45:36Z</time></trkpt><trkpt lat="42.277007908129015" lon="13.94315038154863"><ele>223.0</ele><time>2026-05-02T07:45:37Z</time></trkpt><trkpt lat="42.276930569951375" lon="13.943081841498527"><ele>224.2</ele><time>2026-05-02T07:45:39Z</time></trkpt><trkpt lat="42.27682425183233" lon="13.943019750127233"><ele>225.4</ele><time>2026-05-02T07:45:41Z</time></trkpt><trkpt lat="42.276754572492145" lon="13.94299626598415"><ele>226.59999999999997</ele><time>2026-05-02T07:45:43Z</time></trkpt><trkpt lat="42.2766804829268" lon="13.942970248594957"><ele>227.79999999999998</ele><time>2026-05-02T07:45:45Z</time></trkpt><trkpt lat="42.27656920457986" lon="13.942946878829586"><ele>229.0</ele><time>2026-05-02T07:45:47Z</time></trkpt><trkpt lat="42.27644783410095" lon="13.942921596025238"><ele>229.49999999999997</ele><time>2026-05-02T07:45:49Z</time></trkpt><trkpt lat="42.276382560897034" lon="13.942907140108815"><ele>230.0</ele><time>2026-05-02T07:45:50Z</time></trkpt><trkpt lat="42.27630525697733" lon="13.942893903332843"><ele>230.5</ele><time>2026-05-02T07:45:51Z</time></trkpt><trkpt lat="42.27622904701999" lon="13.942866559679699"><ele>231.0</ele><time>2026-05-02T07:45:52Z</time></trkpt><trkpt lat="42.27616148781329" lon="13.942825081670616"><ele>231.49999999999997</ele><time>2026-05-02T07:45:53Z</time></trkpt><trkpt lat="42.27609252360494" lon="13.94271102349322"><ele>232.0</ele><time>2026-05-02T07:45:55Z</time></trkpt><trkpt lat="42.276049494557505" lon="13.942544323351484"><ele>231.99999999999997</ele><time>2026-05-02T07:45:57Z</time></trkpt><trkpt lat="42.276015397002546" lon="13.942442025454959"><ele>232.0</ele><time>2026-05-02T07:45:58Z</time></trkpt><trkpt lat="42.275978054147906" lon="13.942325414456022"><ele>232.0</ele><time>2026-05-02T07:45:59Z</time></trkpt><trkpt lat="42.275943753836785" lon="13.94223566171483"><ele>232.0</ele><time>2026-05-02T07:46:00Z</time></trkpt><trkpt lat="42.27590516474038" lon="13.942132859437326"><ele>231.99999999999997</ele><time>2026-05-02T07:46:01Z</time></trkpt><trkpt lat="42.275864675535495" lon="13.942017058735342"><ele>232.0</ele><time>2026-05-02T07:46:02Z</time></trkpt><trkpt lat="42.27582868563597" lon="13.941891300421974"><ele>231.99999999999997</ele><time>2026-05-02T07:46:03Z</time></trkpt><trkpt lat="42.2757952285352" lon="13.941784053145591"><ele>232.0</ele><time>2026-05-02T07:46:04Z</time></trkpt><trkpt lat="42.2757658709523" lon="13.941707924612746"><ele>232.0</ele><time>2026-05-02T07:46:05Z</time></trkpt><trkpt lat="42.27570673391471" lon="13.941582188507688"><ele>232.0</ele><time>2026-05-02T07:46:07Z</time></trkpt><trkpt lat="42.27569828857034" lon="13.94144367168195"><ele>231.99999999999997</ele><time>2026-05-02T07:46:09Z</time></trkpt><trkpt lat="42.27569085667082" lon="13.941355558328814"><ele>232.0</ele><time>2026-05-02T07:46:10Z</time></trkpt><trkpt lat="42.27566806395028" lon="13.941257185771939"><ele>231.99999999999997</ele><time>2026-05-02T07:46:11Z</time></trkpt><trkpt lat="42.275638290174285" lon="13.941153238721467"><ele>232.0</ele><time>2026-05-02T07:46:12Z</time></trkpt><trkpt lat="42.27561107830067" lon="13.94104808487494"><ele>232.0</ele><time>2026-05-02T07:46:13Z</time></trkpt><trkpt lat="42.27559901663056" lon="13.940956422345954"><ele>232.0</ele><time>2026-05-02T07:46:14Z</time></trkpt><trkpt lat="42.275586906426746" lon="13.940871056895105"><ele>231.99999999999997</ele><time>2026-05-02T07:46:15Z</time></trkpt><trkpt lat="42.27557085279633" lon="13.940717175634049"><ele>232.0</ele><time>2026-05-02T07:46:17Z</time></trkpt><trkpt lat="42.275577100814836" lon="13.940571551171871"><ele>231.99999999999997</ele><time>2026-05-02T07:46:18.999Z</time></trkpt><trkpt lat="42.27558045773684" lon="13.940484720034538"><ele>232.0</ele><time>2026-05-02T07:46:19.999Z</time></trkpt><trkpt lat="42.2756012188085" lon="13.940324909003934"><ele>232.0</ele><time>2026-05-02T07:46:21.999Z</time></trkpt><trkpt lat="42.27562497525934" lon="13.940186283143136"><ele>232.0</ele><time>2026-05-02T07:46:23.999Z</time></trkpt><trkpt lat="42.27564372346074" lon="13.94009187640418"><ele>231.99999999999997</ele><time>2026-05-02T07:46:25.999Z</time></trkpt><trkpt lat="42.27556790886177" lon="13.94007483431655"><ele>232.0</ele><time>2026-05-02T07:46:31.999Z</time></trkpt><trkpt lat="42.27547961301478" lon="13.940123557241098"><ele>232.0</ele><time>2026-05-02T07:46:33.999Z</time></trkpt><trkpt lat="42.27536103586204" lon="13.940185291865316"><ele>232.0</ele><time>2026-05-02T07:46:35.999Z</time></trkpt><trkpt lat="42.27528594811967" lon="13.940220470839652"><ele>232.0</ele><time>2026-05-02T07:46:36.999Z</time></trkpt><trkpt lat="42.27520173487254" lon="13.940276779511246"><ele>232.0</ele><time>2026-05-02T07:46:37.999Z</time></trkpt><trkpt lat="42.275111562159815" lon="13.940342399715819"><ele>232.0</ele><time>2026-05-02T07:46:38.999Z</time></trkpt><trkpt lat="42.27502171139812" lon="13.94040590825314"><ele>232.0</ele><time>2026-05-02T07:46:39.999Z</time></trkpt><trkpt lat="42.27492513601439" lon="13.940472222426573"><ele>232.0</ele><time>2026-05-02T07:46:40.999Z</time></trkpt><trkpt lat="42.274828568914835" lon="13.94054062849594"><ele>232.0</ele><time>2026-05-02T07:46:41.999Z</time></trkpt><trkpt lat="42.27474002810771" lon="13.940596969889372"><ele>232.0</ele><time>2026-05-02T07:46:42.999Z</time></trkpt><trkpt lat="42.27465484886715" lon="13.940640472033174"><ele>232.0</ele><time>2026-05-02T07:46:43.999Z</time></trkpt><trkpt lat="42.27456888450468" lon="13.94068400567661"><ele>230.33333333333331</ele><time>2026-05-02T07:46:44.999Z</time></trkpt><trkpt lat="42.27447565436762" lon="13.940728507817612"><ele>228.66666666666666</ele><time>2026-05-02T07:46:45.999Z</time></trkpt><trkpt lat="42.27438779947877" lon="13.940762484454194"><ele>227.0</ele><time>2026-05-02T07:46:46.999Z</time></trkpt><trkpt lat="42.274299562464165" lon="13.940792970453224"><ele>225.33333333333331</ele><time>2026-05-02T07:46:47.999Z</time></trkpt><trkpt lat="42.27421483151025" lon="13.94081732723843"><ele>223.66666666666666</ele><time>2026-05-02T07:46:48.999Z</time></trkpt><trkpt lat="42.27414143209939" lon="13.940825123290583"><ele>222.0</ele><time>2026-05-02T07:46:49.999Z</time></trkpt><trkpt lat="42.27406202616523" lon="13.94083024047935"><ele>222.0</ele><time>2026-05-02T07:46:50.999Z</time></trkpt><trkpt lat="42.273991830571156" lon="13.940818888676425"><ele>222.0</ele><time>2026-05-02T07:46:51.999Z</time></trkpt><trkpt lat="42.27392339590835" lon="13.940806045323342"><ele>222.0</ele><time>2026-05-02T07:46:52.999Z</time></trkpt><trkpt lat="42.27384764526669" lon="13.940782443312699"><ele>222.0</ele><time>2026-05-02T07:46:53.999Z</time></trkpt><trkpt lat="42.27376914353598" lon="13.940751471303386"><ele>222.0</ele><time>2026-05-02T07:46:54.999Z</time></trkpt><trkpt lat="42.273679606357646" lon="13.940726795663258"><ele>222.0</ele><time>2026-05-02T07:46:55.999Z</time></trkpt><trkpt lat="42.273595405524745" lon="13.940703702184306"><ele>219.2</ele><time>2026-05-02T07:46:56.999Z</time></trkpt><trkpt lat="42.27350509731153" lon="13.940674951769115"><ele>216.39999999999998</ele><time>2026-05-02T07:46:57.999Z</time></trkpt><trkpt lat="42.27341668003416" lon="13.940652358075834"><ele>213.60000000000002</ele><time>2026-05-02T07:46:58.999Z</time></trkpt><trkpt lat="42.273325131952845" lon="13.940632700753396"><ele>210.8</ele><time>2026-05-02T07:46:59.999Z</time></trkpt><trkpt lat="42.27323200534951" lon="13.940620306389794"><ele>208.0</ele><time>2026-05-02T07:47:00.999Z</time></trkpt><trkpt lat="42.27313651833863" lon="13.940604269491581"><ele>205.8</ele><time>2026-05-02T07:47:01.999Z</time></trkpt><trkpt lat="42.27303518886303" lon="13.94058039826709"><ele>203.60000000000002</ele><time>2026-05-02T07:47:02.999Z</time></trkpt><trkpt lat="42.272929021016175" lon="13.940556336961533"><ele>201.39999999999998</ele><time>2026-05-02T07:47:03.999Z</time></trkpt><trkpt lat="42.27281722890111" lon="13.940532133847583"><ele>199.2</ele><time>2026-05-02T07:47:04.999Z</time></trkpt><trkpt lat="42.27270414077819" lon="13.940510773775149"><ele>197.0</ele><time>2026-05-02T07:47:05.999Z</time></trkpt><trkpt lat="42.27259678281787" lon="13.940498654377384"><ele>197.0</ele><time>2026-05-02T07:47:06.999Z</time></trkpt><trkpt lat="42.27251045923237" lon="13.940483449554554"><ele>197.0</ele><time>2026-05-02T07:47:07.999Z</time></trkpt><trkpt lat="42.272418772446144" lon="13.940452130054922"><ele>197.0</ele><time>2026-05-02T07:47:09.999Z</time></trkpt><trkpt lat="42.27237090080366" lon="13.940343457478809"><ele>197.0</ele><time>2026-05-02T07:47:12.999Z</time></trkpt><trkpt lat="42.27243277025613" lon="13.940205112924827"><ele>197.0</ele><time>2026-05-02T07:47:14.999Z</time></trkpt><trkpt lat="42.27249419976291" lon="13.940134381193824"><ele>197.00000000000003</ele><time>2026-05-02T07:47:15.999Z</time></trkpt><trkpt lat="42.272555868227826" lon="13.940054194560634"><ele>197.0</ele><time>2026-05-02T07:47:16.999Z</time></trkpt><trkpt lat="42.27261678018398" lon="13.93996605031857"><ele>197.0</ele><time>2026-05-02T07:47:17.999Z</time></trkpt><trkpt lat="42.27267891855238" lon="13.939889059744672"><ele>197.0</ele><time>2026-05-02T07:47:18.999Z</time></trkpt><trkpt lat="42.27274042877061" lon="13.939821175380137"><ele>197.00000000000003</ele><time>2026-05-02T07:47:19.999Z</time></trkpt><trkpt lat="42.272800636764416" lon="13.939756828864176"><ele>197.0</ele><time>2026-05-02T07:47:20.999Z</time></trkpt><trkpt lat="42.272848244333346" lon="13.939694166377736"><ele>196.83333333333334</ele><time>2026-05-02T07:47:21.999Z</time></trkpt><trkpt lat="42.272895267336665" lon="13.939634020752063"><ele>196.66666666666669</ele><time>2026-05-02T07:47:23Z</time></trkpt><trkpt lat="42.272935376195015" lon="13.939566920777054"><ele>196.5</ele><time>2026-05-02T07:47:24Z</time></trkpt><trkpt lat="42.27295736082679" lon="13.939408818903852"><ele>196.33333333333331</ele><time>2026-05-02T07:47:26Z</time></trkpt><trkpt lat="42.27294502331776" lon="13.939317379039872"><ele>196.16666666666666</ele><time>2026-05-02T07:47:27Z</time></trkpt><trkpt lat="42.27291929198274" lon="13.939233695106312"><ele>196.0</ele><time>2026-05-02T07:47:28Z</time></trkpt><trkpt lat="42.27286017992686" lon="13.939103396706562"><ele>194.60000000000002</ele><time>2026-05-02T07:47:30Z</time></trkpt><trkpt lat="42.27277413594228" lon="13.93898888931944"><ele>193.2</ele><time>2026-05-02T07:47:32Z</time></trkpt><trkpt lat="42.27273145063091" lon="13.93892326120001"><ele>191.8</ele><time>2026-05-02T07:47:33Z</time></trkpt><trkpt lat="42.272682492537676" lon="13.93885140900545"><ele>190.39999999999998</ele><time>2026-05-02T07:47:34Z</time></trkpt><trkpt lat="42.272630148601074" lon="13.938778850961645"><ele>189.0</ele><time>2026-05-02T07:47:35Z</time></trkpt><trkpt lat="42.27254335692296" lon="13.938666276751011"><ele>189.0</ele><time>2026-05-02T07:47:37Z</time></trkpt><trkpt lat="42.2724424191675" lon="13.938590031401278"><ele>189.0</ele><time>2026-05-02T07:47:39Z</time></trkpt><trkpt lat="42.27238025360987" lon="13.93855524990822"><ele>189.0</ele><time>2026-05-02T07:47:40Z</time></trkpt><trkpt lat="42.27231777642294" lon="13.938519732118397"><ele>189.0</ele><time>2026-05-02T07:47:41Z</time></trkpt><trkpt lat="42.27224933151028" lon="13.938487565523689"><ele>189.0</ele><time>2026-05-02T07:47:42Z</time></trkpt><trkpt lat="42.27218446114408" lon="13.938459628478473"><ele>189.0</ele><time>2026-05-02T07:47:43Z</time></trkpt><trkpt lat="42.272116552747605" lon="13.938436206354663"><ele>188.0</ele><time>2026-05-02T07:47:44Z</time></trkpt><trkpt lat="42.2720524181323" lon="13.9384225239597"><ele>187.0</ele><time>2026-05-02T07:47:45Z</time></trkpt><trkpt lat="42.271989428457694" lon="13.938406212725907"><ele>186.0</ele><time>2026-05-02T07:47:46Z</time></trkpt><trkpt lat="42.27188582307301" lon="13.938400120734995"><ele>185.0</ele><time>2026-05-02T07:47:48Z</time></trkpt><trkpt lat="42.27181515154636" lon="13.93839173724705"><ele>184.0</ele><time>2026-05-02T07:47:50Z</time></trkpt><trkpt lat="42.271762096997925" lon="13.938328931261445"><ele>183.0</ele><time>2026-05-02T07:47:53Z</time></trkpt><trkpt lat="42.27172315691163" lon="13.938202082524255"><ele>181.2</ele><time>2026-05-02T07:47:56Z</time></trkpt><trkpt lat="42.271705404706864" lon="13.938056281974553"><ele>179.4</ele><time>2026-05-02T07:47:58Z</time></trkpt><trkpt lat="42.27164047276252" lon="13.937921745051174"><ele>177.6</ele><time>2026-05-02T07:48:00Z</time></trkpt><trkpt lat="42.27152531488564" lon="13.93786254408852"><ele>175.79999999999998</ele><time>2026-05-02T07:48:02Z</time></trkpt><trkpt lat="42.27145565866991" lon="13.937855129977057"><ele>174.0</ele><time>2026-05-02T07:48:03Z</time></trkpt><trkpt lat="42.27133799996316" lon="13.937864271573622"><ele>173.0</ele><time>2026-05-02T07:48:05Z</time></trkpt><trkpt lat="42.27121872377716" lon="13.937870089532002"><ele>172.0</ele><time>2026-05-02T07:48:07Z</time></trkpt><trkpt lat="42.27109951192597" lon="13.937947932740418"><ele>171.0</ele><time>2026-05-02T07:48:09Z</time></trkpt><trkpt lat="42.27103866220777" lon="13.93802478458322"><ele>170.0</ele><time>2026-05-02T07:48:10Z</time></trkpt><trkpt lat="42.270985421590574" lon="13.93812811418589"><ele>169.0</ele><time>2026-05-02T07:48:11Z</time></trkpt><trkpt lat="42.27093980149973" lon="13.938250653645776"><ele>169.0</ele><time>2026-05-02T07:48:12Z</time></trkpt><trkpt lat="42.27090753813601" lon="13.93835235079025"><ele>169.0</ele><time>2026-05-02T07:48:13Z</time></trkpt><trkpt lat="42.270873010923644" lon="13.938465853180166"><ele>169.0</ele><time>2026-05-02T07:48:14Z</time></trkpt><trkpt lat="42.27084234488558" lon="13.938596902746351"><ele>169.0</ele><time>2026-05-02T07:48:15Z</time></trkpt><trkpt lat="42.27081197135986" lon="13.938731262084433"><ele>169.0</ele><time>2026-05-02T07:48:16Z</time></trkpt><trkpt lat="42.27078861630187" lon="13.938853784103106"><ele>169.39999999999998</ele><time>2026-05-02T07:48:17Z</time></trkpt><trkpt lat="42.27075415161971" lon="13.938966232356451"><ele>169.8</ele><time>2026-05-02T07:48:18Z</time></trkpt><trkpt lat="42.27071606741263" lon="13.93908306765045"><ele>170.2</ele><time>2026-05-02T07:48:19Z</time></trkpt><trkpt lat="42.27068901960887" lon="13.939221223196888"><ele>170.60000000000002</ele><time>2026-05-02T07:48:20Z</time></trkpt><trkpt lat="42.270665769407046" lon="13.93936419466176"><ele>171.0</ele><time>2026-05-02T07:48:21Z</time></trkpt><trkpt lat="42.2706524164725" lon="13.939493945551318"><ele>171.20000000000002</ele><time>2026-05-02T07:48:22Z</time></trkpt><trkpt lat="42.270637546614786" lon="13.939621215279445"><ele>171.4</ele><time>2026-05-02T07:48:22.999Z</time></trkpt><trkpt lat="42.270609405261546" lon="13.939747579583075"><ele>171.6</ele><time>2026-05-02T07:48:23.999Z</time></trkpt><trkpt lat="42.27056419147231" lon="13.939873347635068"><ele>171.8</ele><time>2026-05-02T07:48:24.999Z</time></trkpt><trkpt lat="42.27050945277933" lon="13.940005114659668"><ele>172.0</ele><time>2026-05-02T07:48:25.999Z</time></trkpt><trkpt lat="42.27045821670504" lon="13.940139846929034"><ele>169.0</ele><time>2026-05-02T07:48:26.999Z</time></trkpt><trkpt lat="42.27040896830841" lon="13.940258832201183"><ele>166.0</ele><time>2026-05-02T07:48:27.999Z</time></trkpt><trkpt lat="42.27036195995025" lon="13.94038038514364"><ele>163.0</ele><time>2026-05-02T07:48:28.999Z</time></trkpt><trkpt lat="42.27031774445843" lon="13.940509386773385"><ele>160.0</ele><time>2026-05-02T07:48:29.999Z</time></trkpt><trkpt lat="42.270278571258984" lon="13.940641448126662"><ele>157.0</ele><time>2026-05-02T07:48:30.999Z</time></trkpt><trkpt lat="42.27023128661908" lon="13.940771398064816"><ele>157.0</ele><time>2026-05-02T07:48:31.999Z</time></trkpt><trkpt lat="42.27019555467178" lon="13.940901352310972"><ele>157.0</ele><time>2026-05-02T07:48:32.999Z</time></trkpt><trkpt lat="42.27015712400365" lon="13.94102325157829"><ele>157.0</ele><time>2026-05-02T07:48:33.999Z</time></trkpt><trkpt lat="42.270126592778354" lon="13.941117072527268"><ele>157.0</ele><time>2026-05-02T07:48:34.999Z</time></trkpt><trkpt lat="42.27009328129914" lon="13.941190733530345"><ele>157.0</ele><time>2026-05-02T07:48:35.999Z</time></trkpt><trkpt lat="42.2700462331683" lon="13.941267928751268"><ele>157.0</ele><time>2026-05-02T07:48:36.999Z</time></trkpt><trkpt lat="42.26999811643542" lon="13.941324672117306"><ele>157.0</ele><time>2026-05-02T07:48:37.999Z</time></trkpt><trkpt lat="42.26994216951183" lon="13.94138973530054"><ele>157.0</ele><time>2026-05-02T07:48:38.999Z</time></trkpt><trkpt lat="42.26990393916951" lon="13.94147833518688"><ele>157.0</ele><time>2026-05-02T07:48:39.999Z</time></trkpt><trkpt lat="42.269889523047794" lon="13.941582923747525"><ele>157.0</ele><time>2026-05-02T07:48:40.999Z</time></trkpt><trkpt lat="42.26990362449243" lon="13.94170032819774"><ele>157.0</ele><time>2026-05-02T07:48:41.999Z</time></trkpt><trkpt lat="42.26992454578057" lon="13.941813706615346"><ele>157.0</ele><time>2026-05-02T07:48:42.999Z</time></trkpt><trkpt lat="42.269943824970674" lon="13.941908200484441"><ele>156.42857142857142</ele><time>2026-05-02T07:48:43.999Z</time></trkpt><trkpt lat="42.26995212809319" lon="13.942006480593973"><ele>155.85714285714286</ele><time>2026-05-02T07:48:44.999Z</time></trkpt><trkpt lat="42.269946976076604" lon="13.942095704232239"><ele>155.28571428571428</ele><time>2026-05-02T07:48:45.999Z</time></trkpt><trkpt lat="42.269928888109156" lon="13.942180596496879"><ele>154.71428571428572</ele><time>2026-05-02T07:48:46.999Z</time></trkpt><trkpt lat="42.26988419762218" lon="13.942254006345985"><ele>154.14285714285714</ele><time>2026-05-02T07:48:47.999Z</time></trkpt><trkpt lat="42.26981946639695" lon="13.94231509566062"><ele>153.57142857142856</ele><time>2026-05-02T07:48:48.999Z</time></trkpt><trkpt lat="42.26974699964748" lon="13.942359625442647"><ele>153.0</ele><time>2026-05-02T07:48:49.999Z</time></trkpt><trkpt lat="42.26968263630134" lon="13.942384043774107"><ele>152.16666666666666</ele><time>2026-05-02T07:48:50.999Z</time></trkpt><trkpt lat="42.269610022761206" lon="13.94240581925507"><ele>151.33333333333334</ele><time>2026-05-02T07:48:51.999Z</time></trkpt><trkpt lat="42.269525438658526" lon="13.942434044863932"><ele>150.5</ele><time>2026-05-02T07:48:52.999Z</time></trkpt><trkpt lat="42.26943066944314" lon="13.942467754322449"><ele>149.66666666666669</ele><time>2026-05-02T07:48:53.999Z</time></trkpt><trkpt lat="42.2693538297384" lon="13.942490324643064"><ele>148.83333333333334</ele><time>2026-05-02T07:48:54.999Z</time></trkpt><trkpt lat="42.26927621274714" lon="13.942511037398644"><ele>148.0</ele><time>2026-05-02T07:48:55.999Z</time></trkpt><trkpt lat="42.269192416551434" lon="13.942533884046044"><ele>148.20000000000002</ele><time>2026-05-02T07:48:56.999Z</time></trkpt><trkpt lat="42.26910560095166" lon="13.942564165233946"><ele>148.4</ele><time>2026-05-02T07:48:57.999Z</time></trkpt><trkpt lat="42.26901555393379" lon="13.942590745915478"><ele>148.60000000000002</ele><time>2026-05-02T07:48:58.999Z</time></trkpt><trkpt lat="42.26892310056587" lon="13.94262316305104"><ele>148.8</ele><time>2026-05-02T07:48:59.999Z</time></trkpt><trkpt lat="42.26884611091329" lon="13.942649559044193"><ele>149.0</ele><time>2026-05-02T07:49:00.999Z</time></trkpt><trkpt lat="42.268741666341406" lon="13.942685640612659"><ele>148.4</ele><time>2026-05-02T07:49:02.999Z</time></trkpt><trkpt lat="42.26860728933338" lon="13.94269359915355"><ele>147.8</ele><time>2026-05-02T07:49:04.999Z</time></trkpt><trkpt lat="42.26853537283423" lon="13.942676740582762"><ele>147.2</ele><time>2026-05-02T07:49:05.999Z</time></trkpt><trkpt lat="42.268468453660105" lon="13.94264593838191"><ele>146.6</ele><time>2026-05-02T07:49:06.999Z</time></trkpt><trkpt lat="42.26838809584163" lon="13.94261727354046"><ele>146.0</ele><time>2026-05-02T07:49:07.999Z</time></trkpt><trkpt lat="42.26830660342388" lon="13.942565303984418"><ele>146.28571428571428</ele><time>2026-05-02T07:49:08.999Z</time></trkpt><trkpt lat="42.26824032551674" lon="13.942497944854914"><ele>146.57142857142858</ele><time>2026-05-02T07:49:09.999Z</time></trkpt><trkpt lat="42.26818906640552" lon="13.942428285716932"><ele>146.85714285714286</ele><time>2026-05-02T07:49:10.999Z</time></trkpt><trkpt lat="42.26814307914608" lon="13.942363060450548"><ele>147.14285714285714</ele><time>2026-05-02T07:49:11.999Z</time></trkpt><trkpt lat="42.268087374615284" lon="13.942316597382504"><ele>147.42857142857142</ele><time>2026-05-02T07:49:12.999Z</time></trkpt><trkpt lat="42.268017371344115" lon="13.942296588363089"><ele>147.71428571428572</ele><time>2026-05-02T07:49:13.999Z</time></trkpt><trkpt lat="42.26793501742235" lon="13.942317483583057"><ele>148.0</ele><time>2026-05-02T07:49:14.999Z</time></trkpt><trkpt lat="42.26785645735767" lon="13.94233768023211"><ele>150.20000000000002</ele><time>2026-05-02T07:49:15.999Z</time></trkpt><trkpt lat="42.26777052160922" lon="13.942312176209338"><ele>152.4</ele><time>2026-05-02T07:49:17.999Z</time></trkpt><trkpt lat="42.267719562907565" lon="13.942206269926174"><ele>154.60000000000002</ele><time>2026-05-02T07:49:19.999Z</time></trkpt><trkpt lat="42.267703376508706" lon="13.942038511912163"><ele>156.8</ele><time>2026-05-02T07:49:21.999Z</time></trkpt><trkpt lat="42.267678544473966" lon="13.941879457085427"><ele>159.0</ele><time>2026-05-02T07:49:23.999Z</time></trkpt><trkpt lat="42.26763950304797" lon="13.941764090498939"><ele>158.83333333333334</ele><time>2026-05-02T07:49:25.999Z</time></trkpt><trkpt lat="42.2676211653042" lon="13.941676804641322"><ele>158.66666666666666</ele><time>2026-05-02T07:49:26.999Z</time></trkpt><trkpt lat="42.2675950327258" lon="13.94159216806917"><ele>158.5</ele><time>2026-05-02T07:49:28Z</time></trkpt><trkpt lat="42.2675458983277" lon="13.941474256100493"><ele>158.33333333333331</ele><time>2026-05-02T07:49:30Z</time></trkpt><trkpt lat="42.26748186424061" lon="13.941354447185601"><ele>158.16666666666666</ele><time>2026-05-02T07:49:32Z</time></trkpt><trkpt lat="42.267435133285055" lon="13.941282295673588"><ele>158.0</ele><time>2026-05-02T07:49:33Z</time></trkpt><trkpt lat="42.26738415762641" lon="13.941200894248723"><ele>158.0</ele><time>2026-05-02T07:49:34Z</time></trkpt><trkpt lat="42.26734073689544" lon="13.941121373441034"><ele>158.0</ele><time>2026-05-02T07:49:35Z</time></trkpt><trkpt lat="42.26728926783607" lon="13.941030876605092"><ele>158.0</ele><time>2026-05-02T07:49:36Z</time></trkpt><trkpt lat="42.267242296433544" lon="13.940939744672425"><ele>158.0</ele><time>2026-05-02T07:49:37Z</time></trkpt><trkpt lat="42.26718522576231" lon="13.940846533910086"><ele>158.0</ele><time>2026-05-02T07:49:38Z</time></trkpt><trkpt lat="42.26713826433731" lon="13.940760825503142"><ele>158.0</ele><time>2026-05-02T07:49:39Z</time></trkpt><trkpt lat="42.267092273702204" lon="13.940655608748331"><ele>160.66666666666666</ele><time>2026-05-02T07:49:40Z</time></trkpt><trkpt lat="42.26705586165911" lon="13.94056672617231"><ele>163.33333333333331</ele><time>2026-05-02T07:49:41Z</time></trkpt><trkpt lat="42.267013878547914" lon="13.940482950285382"><ele>166.0</ele><time>2026-05-02T07:49:42Z</time></trkpt><trkpt lat="42.26697136064509" lon="13.940397383792389"><ele>168.66666666666666</ele><time>2026-05-02T07:49:43Z</time></trkpt><trkpt lat="42.26693756561405" lon="13.940305246339797"><ele>171.33333333333334</ele><time>2026-05-02T07:49:44Z</time></trkpt><trkpt lat="42.26690555175885" lon="13.940213820200167"><ele>174.0</ele><time>2026-05-02T07:49:45Z</time></trkpt><trkpt lat="42.26684406972535" lon="13.94012186304909"><ele>174.0</ele><time>2026-05-02T07:49:47Z</time></trkpt><trkpt lat="42.26674948747865" lon="13.94017524415742"><ele>174.0</ele><time>2026-05-02T07:49:49Z</time></trkpt><trkpt lat="42.26669417014464" lon="13.940298181211197"><ele>174.0</ele><time>2026-05-02T07:49:51Z</time></trkpt><trkpt lat="42.26668498886149" lon="13.940385802280272"><ele>174.0</ele><time>2026-05-02T07:49:52Z</time></trkpt><trkpt lat="42.26665272818926" lon="13.940531656936589"><ele>174.0</ele><time>2026-05-02T07:49:54Z</time></trkpt><trkpt lat="42.26661434273406" lon="13.940629230018498"><ele>174.0</ele><time>2026-05-02T07:49:55Z</time></trkpt><trkpt lat="42.266571156150164" lon="13.940729993108672"><ele>174.0</ele><time>2026-05-02T07:49:56Z</time></trkpt><trkpt lat="42.26653455283204" lon="13.940841777294038"><ele>174.0</ele><time>2026-05-02T07:49:57Z</time></trkpt><trkpt lat="42.26649516668372" lon="13.940949907208392"><ele>174.0</ele><time>2026-05-02T07:49:58Z</time></trkpt><trkpt lat="42.2664696825756" lon="13.941060887406026"><ele>174.0</ele><time>2026-05-02T07:49:59Z</time></trkpt><trkpt lat="42.2664411531983" lon="13.941163346921236"><ele>174.0</ele><time>2026-05-02T07:50:00Z</time></trkpt><trkpt lat="42.266402595765896" lon="13.941270750941754"><ele>177.79999999999998</ele><time>2026-05-02T07:50:01Z</time></trkpt><trkpt lat="42.26635762870467" lon="13.941390546888645"><ele>181.6</ele><time>2026-05-02T07:50:02Z</time></trkpt><trkpt lat="42.26633215561246" lon="13.941503489267303"><ele>185.4</ele><time>2026-05-02T07:50:03Z</time></trkpt><trkpt lat="42.26632620810091" lon="13.94167977602615"><ele>189.2</ele><time>2026-05-02T07:50:05Z</time></trkpt><trkpt lat="42.266347491234846" lon="13.941797882151489"><ele>193.0</ele><time>2026-05-02T07:50:06Z</time></trkpt><trkpt lat="42.26637100753191" lon="13.941929366564567"><ele>193.66666666666666</ele><time>2026-05-02T07:50:07Z</time></trkpt><trkpt lat="42.26638779891273" lon="13.942046951133449"><ele>194.33333333333331</ele><time>2026-05-02T07:50:08Z</time></trkpt><trkpt lat="42.266404543838924" lon="13.942152298924226"><ele>195.0</ele><time>2026-05-02T07:50:09Z</time></trkpt><trkpt lat="42.266417408664864" lon="13.942254138229234"><ele>195.66666666666669</ele><time>2026-05-02T07:50:10Z</time></trkpt><trkpt lat="42.26642721526745" lon="13.942365263847048"><ele>196.33333333333334</ele><time>2026-05-02T07:50:11Z</time></trkpt><trkpt lat="42.266439037718676" lon="13.942473108793118"><ele>197.0</ele><time>2026-05-02T07:50:12Z</time></trkpt><trkpt lat="42.26645196377387" lon="13.942579039941913"><ele>194.00000000000003</ele><time>2026-05-02T07:50:13Z</time></trkpt><trkpt lat="42.2664684795653" lon="13.942685606405421"><ele>191.0</ele><time>2026-05-02T07:50:14Z</time></trkpt><trkpt lat="42.26648354282307" lon="13.942790923927054"><ele>188.0</ele><time>2026-05-02T07:50:15Z</time></trkpt><trkpt lat="42.2664994104122" lon="13.942880601222669"><ele>185.0</ele><time>2026-05-02T07:50:16Z</time></trkpt><trkpt lat="42.266505417044975" lon="13.94297943354829"><ele>182.0</ele><time>2026-05-02T07:50:17Z</time></trkpt><trkpt lat="42.26651496336936" lon="13.94306678432751"><ele>179.0</ele><time>2026-05-02T07:50:18Z</time></trkpt><trkpt lat="42.26652685237349" lon="13.943202448572954"><ele>179.0</ele><time>2026-05-02T07:50:20Z</time></trkpt><trkpt lat="42.26650647031009" lon="13.943285703744717"><ele>179.0</ele><time>2026-05-02T07:50:21.999Z</time></trkpt><trkpt lat="42.266445357737446" lon="13.943321863781012"><ele>179.0</ele><time>2026-05-02T07:50:23.999Z</time></trkpt><trkpt lat="42.266371002613226" lon="13.943315996494212"><ele>179.0</ele><time>2026-05-02T07:50:26.999Z</time></trkpt><trkpt lat="42.2662757932168" lon="13.943316884144549"><ele>179.0</ele><time>2026-05-02T07:50:29.999Z</time></trkpt><trkpt lat="42.26615236599847" lon="13.943332013338813"><ele>179.0</ele><time>2026-05-02T07:50:31.999Z</time></trkpt><trkpt lat="42.266077578638075" lon="13.943337581659021"><ele>181.16666666666666</ele><time>2026-05-02T07:50:32.999Z</time></trkpt><trkpt lat="42.26600046858111" lon="13.943348407740103"><ele>183.33333333333331</ele><time>2026-05-02T07:50:33.999Z</time></trkpt><trkpt lat="42.2659259697505" lon="13.943356207970822"><ele>185.5</ele><time>2026-05-02T07:50:34.999Z</time></trkpt><trkpt lat="42.26585809479349" lon="13.943363578529429"><ele>187.66666666666666</ele><time>2026-05-02T07:50:35.999Z</time></trkpt><trkpt lat="42.265732436119116" lon="13.943350728691447"><ele>189.83333333333334</ele><time>2026-05-02T07:50:37.999Z</time></trkpt><trkpt lat="42.265667545296566" lon="13.943300702793458"><ele>192.0</ele><time>2026-05-02T07:50:38.999Z</time></trkpt><trkpt lat="42.26560281127869" lon="13.943236858179707"><ele>192.0</ele><time>2026-05-02T07:50:39.999Z</time></trkpt><trkpt lat="42.26552976712234" lon="13.943166477259421"><ele>192.0</ele><time>2026-05-02T07:50:40.999Z</time></trkpt><trkpt lat="42.26545363868168" lon="13.943088308683391"><ele>192.0</ele><time>2026-05-02T07:50:41.999Z</time></trkpt><trkpt lat="42.26539255614576" lon="13.943021224362417"><ele>192.0</ele><time>2026-05-02T07:50:42.999Z</time></trkpt><trkpt lat="42.265318797308645" lon="13.942885628211616"><ele>192.0</ele><time>2026-05-02T07:50:44.999Z</time></trkpt><trkpt lat="42.265289437936275" lon="13.942798949193222"><ele>191.99999999999997</ele><time>2026-05-02T07:50:45.999Z</time></trkpt><trkpt lat="42.26525885716902" lon="13.942700848824046"><ele>192.0</ele><time>2026-05-02T07:50:46.999Z</time></trkpt><trkpt lat="42.26522537863895" lon="13.942607296234101"><ele>192.0</ele><time>2026-05-02T07:50:47.999Z</time></trkpt><trkpt lat="42.26518701342066" lon="13.942529289807995"><ele>192.0</ele><time>2026-05-02T07:50:48.999Z</time></trkpt><trkpt lat="42.26514441410273" lon="13.942425003061437"><ele>192.0</ele><time>2026-05-02T07:50:50.999Z</time></trkpt><trkpt lat="42.26511152852662" lon="13.942341590704464"><ele>191.99999999999997</ele><time>2026-05-02T07:50:53.999Z</time></trkpt><trkpt lat="42.26508173635957" lon="13.942263014621071"><ele>192.0</ele><time>2026-05-02T07:51:34Z</time></trkpt><trkpt lat="42.26504935364902" lon="13.942172004031551"><ele>194.5</ele><time>2026-05-02T07:51:38Z</time></trkpt><trkpt lat="42.26501931736007" lon="13.942091063346062"><ele>197.0</ele><time>2026-05-02T07:51:41Z</time></trkpt><trkpt lat="42.26498821538974" lon="13.942003604282258"><ele>199.5</ele><time>2026-05-02T07:51:43Z</time></trkpt><trkpt lat="42.26493743606888" lon="13.941888677665586"><ele>202.0</ele><time>2026-05-02T07:51:45Z</time></trkpt><trkpt lat="42.26489320482039" lon="13.941783412792189"><ele>204.5</ele><time>2026-05-02T07:51:47Z</time></trkpt><trkpt lat="42.26485906758211" lon="13.94171006951289"><ele>207.0</ele><time>2026-05-02T07:51:48Z</time></trkpt><trkpt lat="42.26479630184205" lon="13.94156591683446"><ele>207.5</ele><time>2026-05-02T07:51:50Z</time></trkpt><trkpt lat="42.26476936507588" lon="13.94147813769045"><ele>208.0</ele><time>2026-05-02T07:51:51Z</time></trkpt><trkpt lat="42.26475124623592" lon="13.94138018524633"><ele>208.5</ele><time>2026-05-02T07:51:52Z</time></trkpt><trkpt lat="42.2647350057078" lon="13.941272165614794"><ele>209.0</ele><time>2026-05-02T07:51:53Z</time></trkpt><trkpt lat="42.26472633245392" lon="13.941166779568468"><ele>209.5</ele><time>2026-05-02T07:51:54Z</time></trkpt><trkpt lat="42.26473085319677" lon="13.941059992249363"><ele>210.0</ele><time>2026-05-02T07:51:55Z</time></trkpt><trkpt lat="42.26473351424768" lon="13.940962876293337"><ele>212.0</ele><time>2026-05-02T07:51:56Z</time></trkpt><trkpt lat="42.26472285324552" lon="13.940851303764378"><ele>214.0</ele><time>2026-05-02T07:51:57Z</time></trkpt><trkpt lat="42.26470125579612" lon="13.940741317790847"><ele>216.0</ele><time>2026-05-02T07:51:58Z</time></trkpt><trkpt lat="42.264676908703095" lon="13.940632425344075"><ele>218.0</ele><time>2026-05-02T07:51:59Z</time></trkpt><trkpt lat="42.264653354360554" lon="13.940527651560021"><ele>220.0</ele><time>2026-05-02T07:52:00Z</time></trkpt><trkpt lat="42.264630868918374" lon="13.940425917439192"><ele>222.0</ele><time>2026-05-02T07:52:01Z</time></trkpt><trkpt lat="42.26460540438985" lon="13.940310272129913"><ele>222.0</ele><time>2026-05-02T07:52:02Z</time></trkpt><trkpt lat="42.264578998116" lon="13.940188370802396"><ele>222.0</ele><time>2026-05-02T07:52:03Z</time></trkpt><trkpt lat="42.26455833139177" lon="13.940063645568657"><ele>222.0</ele><time>2026-05-02T07:52:04Z</time></trkpt><trkpt lat="42.264540964119995" lon="13.939924549352142"><ele>222.0</ele><time>2026-05-02T07:52:05Z</time></trkpt><trkpt lat="42.26452838817502" lon="13.939786331255217"><ele>222.0</ele><time>2026-05-02T07:52:06Z</time></trkpt><trkpt lat="42.264508635184825" lon="13.93966385764775"><ele>222.71428571428572</ele><time>2026-05-02T07:52:07Z</time></trkpt><trkpt lat="42.26450021269458" lon="13.939558283345455"><ele>223.42857142857144</ele><time>2026-05-02T07:52:08Z</time></trkpt><trkpt lat="42.2644825363263" lon="13.939473421571464"><ele>224.14285714285717</ele><time>2026-05-02T07:52:09Z</time></trkpt><trkpt lat="42.26444596760738" lon="13.939383974746693"><ele>224.85714285714286</ele><time>2026-05-02T07:52:10Z</time></trkpt><trkpt lat="42.26440900538892" lon="13.939301460598735"><ele>225.5714285714286</ele><time>2026-05-02T07:52:11Z</time></trkpt><trkpt lat="42.26437557838528" lon="13.939210620809401"><ele>226.2857142857143</ele><time>2026-05-02T07:52:12Z</time></trkpt><trkpt lat="42.264352993857685" lon="13.939121969913147"><ele>227.0</ele><time>2026-05-02T07:52:13Z</time></trkpt><trkpt lat="42.26428376582716" lon="13.93897984129458"><ele>228.66666666666669</ele><time>2026-05-02T07:52:15Z</time></trkpt><trkpt lat="42.26422461679654" lon="13.93891024879764"><ele>230.33333333333334</ele><time>2026-05-02T07:52:16Z</time></trkpt><trkpt lat="42.264167009886236" lon="13.938837694061045"><ele>232.0</ele><time>2026-05-02T07:52:17Z</time></trkpt><trkpt lat="42.26413877742991" lon="13.938729363295119"><ele>233.66666666666669</ele><time>2026-05-02T07:52:18Z</time></trkpt><trkpt lat="42.26408562644639" lon="13.938646876750923"><ele>235.33333333333334</ele><time>2026-05-02T07:52:19Z</time></trkpt><trkpt lat="42.264023647770735" lon="13.938560286161346"><ele>237.0</ele><time>2026-05-02T07:52:20Z</time></trkpt><trkpt lat="42.26395174322988" lon="13.938481827695329"><ele>237.39999999999998</ele><time>2026-05-02T07:52:21Z</time></trkpt><trkpt lat="42.26387884793376" lon="13.938396566886924"><ele>237.79999999999998</ele><time>2026-05-02T07:52:22Z</time></trkpt><trkpt lat="42.263808592478426" lon="13.938306807437971"><ele>238.2</ele><time>2026-05-02T07:52:23Z</time></trkpt><trkpt lat="42.263747713300404" lon="13.938210262175918"><ele>238.6</ele><time>2026-05-02T07:52:24Z</time></trkpt><trkpt lat="42.263694554986074" lon="13.938119081338003"><ele>239.0</ele><time>2026-05-02T07:52:25Z</time></trkpt><trkpt lat="42.26364378344761" lon="13.938026566257024"><ele>239.0</ele><time>2026-05-02T07:52:26Z</time></trkpt><trkpt lat="42.26359181998973" lon="13.937921959070843"><ele>238.99999999999997</ele><time>2026-05-02T07:52:26.999Z</time></trkpt><trkpt lat="42.26354790696771" lon="13.937810296298474"><ele>238.99999999999997</ele><time>2026-05-02T07:52:27.999Z</time></trkpt><trkpt lat="42.26348935757255" lon="13.937708511370012"><ele>239.0</ele><time>2026-05-02T07:52:28.999Z</time></trkpt><trkpt lat="42.26345788931579" lon="13.937593194507071"><ele>239.0</ele><time>2026-05-02T07:52:29.999Z</time></trkpt><trkpt lat="42.26341284841988" lon="13.9374840299808"><ele>242.79999999999998</ele><time>2026-05-02T07:52:30.999Z</time></trkpt><trkpt lat="42.26336071489052" lon="13.93737636595599"><ele>246.59999999999997</ele><time>2026-05-02T07:52:31.999Z</time></trkpt><trkpt lat="42.26333346920948" lon="13.937252132660534"><ele>250.4</ele><time>2026-05-02T07:52:32.999Z</time></trkpt><trkpt lat="42.26332003451686" lon="13.93711799863047"><ele>254.2</ele><time>2026-05-02T07:52:33.999Z</time></trkpt><trkpt lat="42.263304499942045" lon="13.936993899799049"><ele>258.0</ele><time>2026-05-02T07:52:34.999Z</time></trkpt><trkpt lat="42.263281721622974" lon="13.936859988272204"><ele>258.0</ele><time>2026-05-02T07:52:35.999Z</time></trkpt><trkpt lat="42.263259794308844" lon="13.936739409234168"><ele>258.0</ele><time>2026-05-02T07:52:36.999Z</time></trkpt><trkpt lat="42.26322621762779" lon="13.936636925987814"><ele>258.0</ele><time>2026-05-02T07:52:37.999Z</time></trkpt><trkpt lat="42.26318376227437" lon="13.93656150834089"><ele>258.0</ele><time>2026-05-02T07:52:38.999Z</time></trkpt><trkpt lat="42.26313359297806" lon="13.93649208405557"><ele>258.0</ele><time>2026-05-02T07:52:39.999Z</time></trkpt><trkpt lat="42.263031600243835" lon="13.936423680945833"><ele>258.0</ele><time>2026-05-02T07:52:41.999Z</time></trkpt><trkpt lat="42.26295670554469" lon="13.936441374552786"><ele>258.99999999999994</ele><time>2026-05-02T07:52:42.999Z</time></trkpt><trkpt lat="42.26288333968419" lon="13.936416074926534"><ele>260.0</ele><time>2026-05-02T07:52:43.999Z</time></trkpt><trkpt lat="42.26280831854223" lon="13.93639753144759"><ele>261.0</ele><time>2026-05-02T07:52:44.999Z</time></trkpt><trkpt lat="42.26273997169008" lon="13.936360843766204"><ele>262.0</ele><time>2026-05-02T07:52:45.999Z</time></trkpt><trkpt lat="42.26267924554917" lon="13.936322956039934"><ele>263.0</ele><time>2026-05-02T07:52:46.999Z</time></trkpt><trkpt lat="42.26263366171685" lon="13.936256123373546"><ele>263.99999999999994</ele><time>2026-05-02T07:52:47.999Z</time></trkpt><trkpt lat="42.262589615762096" lon="13.93618428134427"><ele>265.0</ele><time>2026-05-02T07:52:48.999Z</time></trkpt><trkpt lat="42.2625318629085" lon="13.936098474577793"><ele>265.0</ele><time>2026-05-02T07:52:49.999Z</time></trkpt><trkpt lat="42.26246220194329" lon="13.936007065645008"><ele>265.0</ele><time>2026-05-02T07:52:50.999Z</time></trkpt><trkpt lat="42.262374933003976" lon="13.935919322373628"><ele>265.0</ele><time>2026-05-02T07:52:51.999Z</time></trkpt><trkpt lat="42.26230525929446" lon="13.935814638562471"><ele>265.0</ele><time>2026-05-02T07:52:52.999Z</time></trkpt><trkpt lat="42.26221072946685" lon="13.935742635331932"><ele>265.0</ele><time>2026-05-02T07:52:53.999Z</time></trkpt><trkpt lat="42.26214827430618" lon="13.935664088509373"><ele>267.0</ele><time>2026-05-02T07:52:54.999Z</time></trkpt><trkpt lat="42.2621083125853" lon="13.935593425425077"><ele>269.0</ele><time>2026-05-02T07:52:55.999Z</time></trkpt><trkpt lat="42.26207486992136" lon="13.935428674548199"><ele>271.0</ele><time>2026-05-02T07:52:57.999Z</time></trkpt><trkpt lat="42.26210868630374" lon="13.935319615984493"><ele>273.0</ele><time>2026-05-02T07:52:58.999Z</time></trkpt><trkpt lat="42.2621036716302" lon="13.935186068768445"><ele>275.0</ele><time>2026-05-02T07:52:59.999Z</time></trkpt><trkpt lat="42.26209808452525" lon="13.935026724390159"><ele>276.4</ele><time>2026-05-02T07:53:00.999Z</time></trkpt><trkpt lat="42.26209398569416" lon="13.934849681096246"><ele>277.8</ele><time>2026-05-02T07:53:01.999Z</time></trkpt><trkpt lat="42.26209811079501" lon="13.934679204399174"><ele>279.2</ele><time>2026-05-02T07:53:02.999Z</time></trkpt><trkpt lat="42.26209728135057" lon="13.934546413731908"><ele>280.6</ele><time>2026-05-02T07:53:03.999Z</time></trkpt><trkpt lat="42.262098968044135" lon="13.934427093468223"><ele>282.0</ele><time>2026-05-02T07:53:04.999Z</time></trkpt><trkpt lat="42.262115793178104" lon="13.934330534888504"><ele>282.0</ele><time>2026-05-02T07:53:05.999Z</time></trkpt><trkpt lat="42.262100169369205" lon="13.93424757215882"><ele>282.0</ele><time>2026-05-02T07:53:06.999Z</time></trkpt><trkpt lat="42.26209328262421" lon="13.934118399834759"><ele>282.0</ele><time>2026-05-02T07:53:08.999Z</time></trkpt><trkpt lat="42.26196868640161" lon="13.934057434229462"><ele>282.0</ele><time>2026-05-02T07:53:11.999Z</time></trkpt><trkpt lat="42.26184366521317" lon="13.93406407297347"><ele>282.0</ele><time>2026-05-02T07:53:13.999Z</time></trkpt><trkpt lat="42.261768975023664" lon="13.934061004044086"><ele>282.0</ele><time>2026-05-02T07:53:14.999Z</time></trkpt><trkpt lat="42.261703582952656" lon="13.934046505754521"><ele>282.0</ele><time>2026-05-02T07:53:15.999Z</time></trkpt><trkpt lat="42.261632544627524" lon="13.934023522095591"><ele>282.0</ele><time>2026-05-02T07:53:16.999Z</time></trkpt><trkpt lat="42.261528654701046" lon="13.933987365308361"><ele>282.0</ele><time>2026-05-02T07:53:17.999Z</time></trkpt><trkpt lat="42.26141392798066" lon="13.933942006781695"><ele>282.0</ele><time>2026-05-02T07:53:18.999Z</time></trkpt><trkpt lat="42.261291088031044" lon="13.933887873053111"><ele>282.0</ele><time>2026-05-02T07:53:19.999Z</time></trkpt><trkpt lat="42.261171495777674" lon="13.933832291948516"><ele>282.0</ele><time>2026-05-02T07:53:20.999Z</time></trkpt><trkpt lat="42.261063469059394" lon="13.933781713628111"><ele>282.0</ele><time>2026-05-02T07:53:21.999Z</time></trkpt><trkpt lat="42.26096857078271" lon="13.933735491584104"><ele>282.0</ele><time>2026-05-02T07:53:22.999Z</time></trkpt><trkpt lat="42.260883450624945" lon="13.933695051526835"><ele>282.0</ele><time>2026-05-02T07:53:23.999Z</time></trkpt><trkpt lat="42.260808972320525" lon="13.933661772733764"><ele>282.0</ele><time>2026-05-02T07:53:24.999Z</time></trkpt><trkpt lat="42.26072549163605" lon="13.93362281987881"><ele>282.0</ele><time>2026-05-02T07:53:25.999Z</time></trkpt><trkpt lat="42.260635956245025" lon="13.933574445269493"><ele>282.0</ele><time>2026-05-02T07:53:26.999Z</time></trkpt><trkpt lat="42.26052761286563" lon="13.933525747372125"><ele>282.0</ele><time>2026-05-02T07:53:27.999Z</time></trkpt><trkpt lat="42.26041309262583" lon="13.933498936521632"><ele>282.0</ele><time>2026-05-02T07:53:28.999Z</time></trkpt><trkpt lat="42.26029965862526" lon="13.933498472289742"><ele>282.4</ele><time>2026-05-02T07:53:29.999Z</time></trkpt><trkpt lat="42.260187690087186" lon="13.933504870491872"><ele>282.79999999999995</ele><time>2026-05-02T07:53:30.999Z</time></trkpt><trkpt lat="42.260077563764995" lon="13.93351873234383"><ele>283.2</ele><time>2026-05-02T07:53:31.999Z</time></trkpt><trkpt lat="42.259963997696666" lon="13.93353296454168"><ele>283.59999999999997</ele><time>2026-05-02T07:53:32.999Z</time></trkpt><trkpt lat="42.259852491485404" lon="13.93353878037757"><ele>284.0</ele><time>2026-05-02T07:53:33.999Z</time></trkpt><trkpt lat="42.25973436775215" lon="13.933537127187313"><ele>283.0</ele><time>2026-05-02T07:53:34.999Z</time></trkpt><trkpt lat="42.25962451548359" lon="13.93353453938495"><ele>282.0</ele><time>2026-05-02T07:53:35.999Z</time></trkpt><trkpt lat="42.25953817974747" lon="13.933516418404988"><ele>281.0</ele><time>2026-05-02T07:53:36.999Z</time></trkpt><trkpt lat="42.25946525006305" lon="13.933468501148614"><ele>280.0</ele><time>2026-05-02T07:53:37.999Z</time></trkpt><trkpt lat="42.25939233933758" lon="13.933424304295164"><ele>279.0</ele><time>2026-05-02T07:53:38.999Z</time></trkpt><trkpt lat="42.25930836987107" lon="13.933362610026771"><ele>282.75</ele><time>2026-05-02T07:53:40Z</time></trkpt><trkpt lat="42.25921167288444" lon="13.933295734584311"><ele>286.5</ele><time>2026-05-02T07:53:41Z</time></trkpt><trkpt lat="42.259099886692574" lon="13.93322131224554"><ele>290.25</ele><time>2026-05-02T07:53:42Z</time></trkpt><trkpt lat="42.25898727804343" lon="13.933153672560175"><ele>294.0</ele><time>2026-05-02T07:53:43Z</time></trkpt><trkpt lat="42.25887834331491" lon="13.93309366476343"><ele>294.0</ele><time>2026-05-02T07:53:44Z</time></trkpt><trkpt lat="42.258758028559306" lon="13.93304901732722"><ele>294.0</ele><time>2026-05-02T07:53:45Z</time></trkpt><trkpt lat="42.2586378197863" lon="13.9330334494819"><ele>294.0</ele><time>2026-05-02T07:53:46Z</time></trkpt><trkpt lat="42.258511793274025" lon="13.933043070644409"><ele>294.0</ele><time>2026-05-02T07:53:47Z</time></trkpt><trkpt lat="42.258398961754274" lon="13.933066491332141"><ele>294.0</ele><time>2026-05-02T07:53:48Z</time></trkpt><trkpt lat="42.258309035584034" lon="13.933076800065967"><ele>294.0</ele><time>2026-05-02T07:53:49Z</time></trkpt><trkpt lat="42.258230264089704" lon="13.933084769383726"><ele>294.0</ele><time>2026-05-02T07:53:50Z</time></trkpt><trkpt lat="42.258148821859855" lon="13.933094252828662"><ele>294.0</ele><time>2026-05-02T07:53:51Z</time></trkpt><trkpt lat="42.25805387985902" lon="13.933104025075716"><ele>294.0</ele><time>2026-05-02T07:53:52Z</time></trkpt><trkpt lat="42.257942311263875" lon="13.933102930433746"><ele>295.25</ele><time>2026-05-02T07:53:53Z</time></trkpt><trkpt lat="42.257818023070264" lon="13.933081406717223"><ele>296.5</ele><time>2026-05-02T07:53:54Z</time></trkpt><trkpt lat="42.257700902246256" lon="13.933067013433893"><ele>297.75</ele><time>2026-05-02T07:53:55Z</time></trkpt><trkpt lat="42.25757757320056" lon="13.933084368062483"><ele>299.0</ele><time>2026-05-02T07:53:56Z</time></trkpt><trkpt lat="42.25745735593694" lon="13.933117755223476"><ele>299.0</ele><time>2026-05-02T07:53:57Z</time></trkpt><trkpt lat="42.2573269341573" lon="13.933143299240538"><ele>299.0</ele><time>2026-05-02T07:53:58Z</time></trkpt><trkpt lat="42.257201784283694" lon="13.933171108766798"><ele>299.0</ele><time>2026-05-02T07:53:59Z</time></trkpt><trkpt lat="42.25707696550364" lon="13.933207602910414"><ele>299.0</ele><time>2026-05-02T07:54:00Z</time></trkpt><trkpt lat="42.256963243318644" lon="13.933256024469655"><ele>300.25</ele><time>2026-05-02T07:54:01Z</time></trkpt><trkpt lat="42.25684685657672" lon="13.933296462532722"><ele>301.5</ele><time>2026-05-02T07:54:02Z</time></trkpt><trkpt lat="42.25673011325313" lon="13.933333860739188"><ele>302.75</ele><time>2026-05-02T07:54:03Z</time></trkpt><trkpt lat="42.25661652303158" lon="13.933320520397805"><ele>304.0</ele><time>2026-05-02T07:54:04Z</time></trkpt><trkpt lat="42.25651018649484" lon="13.933288065648556"><ele>303.75</ele><time>2026-05-02T07:54:05Z</time></trkpt><trkpt lat="42.256391535058825" lon="13.93325244151485"><ele>303.5</ele><time>2026-05-02T07:54:06Z</time></trkpt><trkpt lat="42.25628280070228" lon="13.93320765450958"><ele>303.25</ele><time>2026-05-02T07:54:07Z</time></trkpt><trkpt lat="42.2561759855954" lon="13.93316228502046"><ele>303.0</ele><time>2026-05-02T07:54:08Z</time></trkpt><trkpt lat="42.25607740977989" lon="13.933122294068964"><ele>303.0</ele><time>2026-05-02T07:54:09Z</time></trkpt><trkpt lat="42.255992389697425" lon="13.933089121818153"><ele>303.0</ele><time>2026-05-02T07:54:10Z</time></trkpt><trkpt lat="42.25592317187784" lon="13.933062114812993"><ele>303.0</ele><time>2026-05-02T07:54:11Z</time></trkpt><trkpt lat="42.255849565508925" lon="13.9330416389658"><ele>303.0</ele><time>2026-05-02T07:54:12Z</time></trkpt><trkpt lat="42.25577127722659" lon="13.933012638814494"><ele>303.0</ele><time>2026-05-02T07:54:13Z</time></trkpt><trkpt lat="42.25570156114756" lon="13.932980046540557"><ele>303.0</ele><time>2026-05-02T07:54:14Z</time></trkpt><trkpt lat="42.25565679700354" lon="13.932901704901575"><ele>303.0</ele><time>2026-05-02T07:54:15Z</time></trkpt><trkpt lat="42.25565418545418" lon="13.932781625503425"><ele>303.0</ele><time>2026-05-02T07:54:16Z</time></trkpt><trkpt lat="42.25563559434322" lon="13.932659533500063"><ele>303.0</ele><time>2026-05-02T07:54:17Z</time></trkpt><trkpt lat="42.25564115525481" lon="13.932515895120897"><ele>303.0</ele><time>2026-05-02T07:54:18Z</time></trkpt><trkpt lat="42.25563052724819" lon="13.932386098658737"><ele>303.0</ele><time>2026-05-02T07:54:19Z</time></trkpt><trkpt lat="42.25560095566316" lon="13.932265970484725"><ele>300.0</ele><time>2026-05-02T07:54:20Z</time></trkpt><trkpt lat="42.25556793349483" lon="13.932144914428191"><ele>297.0</ele><time>2026-05-02T07:54:21Z</time></trkpt><trkpt lat="42.25549359024542" lon="13.932052537879217"><ele>294.0</ele><time>2026-05-02T07:54:22Z</time></trkpt><trkpt lat="42.2554393672191" lon="13.931933515960015"><ele>291.0</ele><time>2026-05-02T07:54:23Z</time></trkpt><trkpt lat="42.2553653815115" lon="13.931840637819624"><ele>288.0</ele><time>2026-05-02T07:54:24Z</time></trkpt><trkpt lat="42.2552821247221" lon="13.931756047389518"><ele>289.6</ele><time>2026-05-02T07:54:25Z</time></trkpt><trkpt lat="42.25517770768732" lon="13.931703568686876"><ele>291.20000000000005</ele><time>2026-05-02T07:54:26Z</time></trkpt><trkpt lat="42.25507530582503" lon="13.931681809782244"><ele>292.8</ele><time>2026-05-02T07:54:27Z</time></trkpt><trkpt lat="42.25497693914078" lon="13.931668758918653"><ele>294.40000000000003</ele><time>2026-05-02T07:54:28Z</time></trkpt><trkpt lat="42.2548862686453" lon="13.9316352921395"><ele>296.0</ele><time>2026-05-02T07:54:29Z</time></trkpt><trkpt lat="42.25480401372311" lon="13.931586459257026"><ele>295.0</ele><time>2026-05-02T07:54:30Z</time></trkpt><trkpt lat="42.25476306483522" lon="13.931466959208173"><ele>294.0</ele><time>2026-05-02T07:54:31Z</time></trkpt><trkpt lat="42.2546985922863" lon="13.93140367278846"><ele>293.0</ele><time>2026-05-02T07:54:32Z</time></trkpt><trkpt lat="42.2545967503745" lon="13.931417117062686"><ele>292.0</ele><time>2026-05-02T07:54:33Z</time></trkpt><trkpt lat="42.25450348133184" lon="13.931448580475044"><ele>291.0</ele><time>2026-05-02T07:54:34Z</time></trkpt><trkpt lat="42.25439626129942" lon="13.931486007660322"><ele>291.0</ele><time>2026-05-02T07:54:35Z</time></trkpt><trkpt lat="42.254291462790526" lon="13.931521465884039"><ele>291.0</ele><time>2026-05-02T07:54:36Z</time></trkpt><trkpt lat="42.254181340288994" lon="13.931552076482841"><ele>291.0</ele><time>2026-05-02T07:54:37Z</time></trkpt><trkpt lat="42.254075348138805" lon="13.931577801912468"><ele>291.0</ele><time>2026-05-02T07:54:38Z</time></trkpt><trkpt lat="42.25397219720019" lon="13.931596869221016"><ele>291.0</ele><time>2026-05-02T07:54:38.999Z</time></trkpt><trkpt lat="42.25387404279556" lon="13.931600682089636"><ele>290.40000000000003</ele><time>2026-05-02T07:54:39.999Z</time></trkpt><trkpt lat="42.253775381074156" lon="13.931593233054617"><ele>289.8</ele><time>2026-05-02T07:54:40.999Z</time></trkpt><trkpt lat="42.253680690562874" lon="13.931568862945648"><ele>289.20000000000005</ele><time>2026-05-02T07:54:41.999Z</time></trkpt><trkpt lat="42.2535991710454" lon="13.931533388659025"><ele>288.6</ele><time>2026-05-02T07:54:42.999Z</time></trkpt><trkpt lat="42.25352953448627" lon="13.931478013482371"><ele>288.0</ele><time>2026-05-02T07:54:43.999Z</time></trkpt><trkpt lat="42.25344097817106" lon="13.931411465639446"><ele>288.0</ele><time>2026-05-02T07:54:44.999Z</time></trkpt><trkpt lat="42.25334229966981" lon="13.93134668595432"><ele>288.0</ele><time>2026-05-02T07:54:45.999Z</time></trkpt><trkpt lat="42.2532312859182" lon="13.931291966291733"><ele>288.0</ele><time>2026-05-02T07:54:46.999Z</time></trkpt><trkpt lat="42.25313359532687" lon="13.93124426474425"><ele>288.0</ele><time>2026-05-02T07:54:47.999Z</time></trkpt><trkpt lat="42.253032892804654" lon="13.931201036124385"><ele>288.0</ele><time>2026-05-02T07:54:48.999Z</time></trkpt><trkpt lat="42.25294067290596" lon="13.931169961437782"><ele>287.0</ele><time>2026-05-02T07:54:49.999Z</time></trkpt><trkpt lat="42.25285562661628" lon="13.931146398904447"><ele>286.0</ele><time>2026-05-02T07:54:50.999Z</time></trkpt><trkpt lat="42.25277141974891" lon="13.931124463617573"><ele>285.0</ele><time>2026-05-02T07:54:51.999Z</time></trkpt><trkpt lat="42.25269014921054" lon="13.931106428020623"><ele>284.0</ele><time>2026-05-02T07:54:52.999Z</time></trkpt><trkpt lat="42.25260304098827" lon="13.931092928490308"><ele>283.0</ele><time>2026-05-02T07:54:53.999Z</time></trkpt><trkpt lat="42.25251754792225" lon="13.93107639958088"><ele>282.0</ele><time>2026-05-02T07:54:54.999Z</time></trkpt><trkpt lat="42.2524436640518" lon="13.93104107271609"><ele>282.0</ele><time>2026-05-02T07:54:55.999Z</time></trkpt><trkpt lat="42.252373184156134" lon="13.930992351962061"><ele>282.0</ele><time>2026-05-02T07:54:56.999Z</time></trkpt><trkpt lat="42.252313642477844" lon="13.930931171812965"><ele>282.0</ele><time>2026-05-02T07:54:57.999Z</time></trkpt><trkpt lat="42.252311609488906" lon="13.930805906810948"><ele>282.0</ele><time>2026-05-02T07:54:58.999Z</time></trkpt><trkpt lat="42.252285452407456" lon="13.930682791401255"><ele>282.0</ele><time>2026-05-02T07:54:59.999Z</time></trkpt><trkpt lat="42.25226652509751" lon="13.930533217962255"><ele>280.6</ele><time>2026-05-02T07:55:00.999Z</time></trkpt><trkpt lat="42.252230804008235" lon="13.930402459336683"><ele>279.2</ele><time>2026-05-02T07:55:01.999Z</time></trkpt><trkpt lat="42.25217967965959" lon="13.930280929837762"><ele>277.8</ele><time>2026-05-02T07:55:02.999Z</time></trkpt><trkpt lat="42.25212692330328" lon="13.93016043690794"><ele>276.4</ele><time>2026-05-02T07:55:03.999Z</time></trkpt><trkpt lat="42.25205398399865" lon="13.930068144558538"><ele>275.0</ele><time>2026-05-02T07:55:04.999Z</time></trkpt><trkpt lat="42.25198243592793" lon="13.929982159055184"><ele>275.0</ele><time>2026-05-02T07:55:05.999Z</time></trkpt><trkpt lat="42.2518988482079" lon="13.929920158179916"><ele>275.0</ele><time>2026-05-02T07:55:06.999Z</time></trkpt><trkpt lat="42.25178886246668" lon="13.929894909893118"><ele>275.0</ele><time>2026-05-02T07:55:07.999Z</time></trkpt><trkpt lat="42.25168270883552" lon="13.929872312805394"><ele>275.0</ele><time>2026-05-02T07:55:08.999Z</time></trkpt><trkpt lat="42.251576513801375" lon="13.929845369570799"><ele>275.0</ele><time>2026-05-02T07:55:09.999Z</time></trkpt><trkpt lat="42.25147926617515" lon="13.929814534237247"><ele>271.83333333333337</ele><time>2026-05-02T07:55:10.999Z</time></trkpt><trkpt lat="42.251390707776686" lon="13.92979397901445"><ele>268.6666666666667</ele><time>2026-05-02T07:55:11.999Z</time></trkpt><trkpt lat="42.251342747044845" lon="13.9296829400531"><ele>265.5</ele><time>2026-05-02T07:55:12.999Z</time></trkpt><trkpt lat="42.251280132527405" lon="13.929636983283048"><ele>262.3333333333333</ele><time>2026-05-02T07:55:13.999Z</time></trkpt><trkpt lat="42.25121501732734" lon="13.92960772496989"><ele>259.16666666666663</ele><time>2026-05-02T07:55:14.999Z</time></trkpt><trkpt lat="42.25113608676234" lon="13.929650035812196"><ele>256.0</ele><time>2026-05-02T07:55:15.999Z</time></trkpt><trkpt lat="42.251072149835295" lon="13.929734207847833"><ele>255.99999999999997</ele><time>2026-05-02T07:55:16.999Z</time></trkpt><trkpt lat="42.25102870660245" lon="13.929814798892059"><ele>256.0</ele><time>2026-05-02T07:55:17.999Z</time></trkpt><trkpt lat="42.25093599425364" lon="13.929876338097058"><ele>256.0</ele><time>2026-05-02T07:55:19.999Z</time></trkpt><trkpt lat="42.25089075724707" lon="13.929810036650913"><ele>256.0</ele><time>2026-05-02T07:55:20.999Z</time></trkpt><trkpt lat="42.250903154238955" lon="13.929671245515834"><ele>255.99999999999997</ele><time>2026-05-02T07:55:22.999Z</time></trkpt><trkpt lat="42.25094419746812" lon="13.92958359243679"><ele>256.0</ele><time>2026-05-02T07:55:23.999Z</time></trkpt><trkpt lat="42.25100386417809" lon="13.92949430807094"><ele>255.99999999999997</ele><time>2026-05-02T07:55:24.999Z</time></trkpt><trkpt lat="42.25105479681763" lon="13.929381557453276"><ele>256.0</ele><time>2026-05-02T07:55:25.999Z</time></trkpt><trkpt lat="42.25109182268718" lon="13.929251740720268"><ele>256.0</ele><time>2026-05-02T07:55:26.999Z</time></trkpt><trkpt lat="42.25112150241975" lon="13.929142462709585"><ele>256.0</ele><time>2026-05-02T07:55:27.999Z</time></trkpt><trkpt lat="42.2511487531382" lon="13.929042513671666"><ele>255.99999999999997</ele><time>2026-05-02T07:55:28.999Z</time></trkpt><trkpt lat="42.25116846202821" lon="13.928959738327782"><ele>256.0</ele><time>2026-05-02T07:55:29.999Z</time></trkpt><trkpt lat="42.251155251918256" lon="13.92885502228647"><ele>256.0</ele><time>2026-05-02T07:55:31.999Z</time></trkpt><trkpt lat="42.25107141938904" lon="13.928905313089782"><ele>256.0</ele><time>2026-05-02T07:55:34.999Z</time></trkpt><trkpt lat="42.251039167369676" lon="13.928995067589751"><ele>256.0</ele><time>2026-05-02T07:55:35.999Z</time></trkpt><trkpt lat="42.25099914055784" lon="13.92912076560001"><ele>256.0</ele><time>2026-05-02T07:55:36.999Z</time></trkpt><trkpt lat="42.25093363827319" lon="13.929221791855348"><ele>256.0</ele><time>2026-05-02T07:55:37.999Z</time></trkpt><trkpt lat="42.250846575886975" lon="13.929315184064498"><ele>256.0</ele><time>2026-05-02T07:55:38.999Z</time></trkpt><trkpt lat="42.25075437170019" lon="13.929407967686986"><ele>256.0</ele><time>2026-05-02T07:55:39.999Z</time></trkpt><trkpt lat="42.25066496953011" lon="13.929506188199635"><ele>256.0</ele><time>2026-05-02T07:55:40.999Z</time></trkpt><trkpt lat="42.25059561120333" lon="13.929636623061452"><ele>256.0</ele><time>2026-05-02T07:55:41.999Z</time></trkpt><trkpt lat="42.25052822476159" lon="13.92979815767003"><ele>254.25</ele><time>2026-05-02T07:55:42.999Z</time></trkpt><trkpt lat="42.250519732895114" lon="13.929978897520463"><ele>252.5</ele><time>2026-05-02T07:55:43.999Z</time></trkpt><trkpt lat="42.25053218645231" lon="13.930155277075778"><ele>250.75</ele><time>2026-05-02T07:55:45Z</time></trkpt><trkpt lat="42.25057813681933" lon="13.93031728398598"><ele>249.0</ele><time>2026-05-02T07:55:46Z</time></trkpt><trkpt lat="42.25065443985602" lon="13.930448191127565"><ele>249.0</ele><time>2026-05-02T07:55:47Z</time></trkpt><trkpt lat="42.25072936990529" lon="13.930573716301685"><ele>249.0</ele><time>2026-05-02T07:55:48Z</time></trkpt><trkpt lat="42.25078751135999" lon="13.930701919256437"><ele>249.0</ele><time>2026-05-02T07:55:49Z</time></trkpt><trkpt lat="42.250817068087045" lon="13.930887989760759"><ele>249.0</ele><time>2026-05-02T07:55:50Z</time></trkpt><trkpt lat="42.25077732939743" lon="13.931069572755165"><ele>249.25</ele><time>2026-05-02T07:55:51Z</time></trkpt><trkpt lat="42.25074443881799" lon="13.931248779808914"><ele>249.5</ele><time>2026-05-02T07:55:52Z</time></trkpt><trkpt lat="42.25070399495599" lon="13.93142257170786"><ele>249.75</ele><time>2026-05-02T07:55:53Z</time></trkpt><trkpt lat="42.250640330683865" lon="13.931602189143863"><ele>250.0</ele><time>2026-05-02T07:55:54Z</time></trkpt><trkpt lat="42.25057140731216" lon="13.931777732749064"><ele>243.75</ele><time>2026-05-02T07:55:55Z</time></trkpt><trkpt lat="42.25051645000806" lon="13.931954819533535"><ele>237.5</ele><time>2026-05-02T07:55:56Z</time></trkpt><trkpt lat="42.25045817778398" lon="13.932105997244216"><ele>231.25</ele><time>2026-05-02T07:55:57Z</time></trkpt><trkpt lat="42.250393991676624" lon="13.932238393436988"><ele>225.0</ele><time>2026-05-02T07:55:58Z</time></trkpt><trkpt lat="42.25036338757705" lon="13.932376569455725"><ele>225.0</ele><time>2026-05-02T07:55:59Z</time></trkpt><trkpt lat="42.2503375461007" lon="13.932501995186648"><ele>225.0</ele><time>2026-05-02T07:56:00Z</time></trkpt><trkpt lat="42.25031837656956" lon="13.932606811356079"><ele>225.0</ele><time>2026-05-02T07:56:01Z</time></trkpt><trkpt lat="42.25028323881503" lon="13.932736303614849"><ele>225.0</ele><time>2026-05-02T07:56:03Z</time></trkpt><trkpt lat="42.25027497665166" lon="13.932826272449297"><ele>225.0</ele><time>2026-05-02T07:56:05Z</time></trkpt><trkpt lat="42.25032932698201" lon="13.932958737583986"><ele>223.5</ele><time>2026-05-02T07:56:07Z</time></trkpt><trkpt lat="42.25044333912738" lon="13.933042879157144"><ele>222.0</ele><time>2026-05-02T07:56:09Z</time></trkpt><trkpt lat="42.25052748685099" lon="13.9331185920837"><ele>220.5</ele><time>2026-05-02T07:56:10Z</time></trkpt><trkpt lat="42.250629845318535" lon="13.933202542071067"><ele>219.0</ele><time>2026-05-02T07:56:11Z</time></trkpt><trkpt lat="42.25074296627145" lon="13.933286862829608"><ele>218.0</ele><time>2026-05-02T07:56:12Z</time></trkpt><trkpt lat="42.250823113591295" lon="13.9333453208872"><ele>216.99999999999997</ele><time>2026-05-02T07:56:13Z</time></trkpt><trkpt lat="42.25090099631583" lon="13.93340117390634"><ele>215.99999999999997</ele><time>2026-05-02T07:56:14Z</time></trkpt><trkpt lat="42.250995583277216" lon="13.93343209768117"><ele>215.0</ele><time>2026-05-02T07:56:15Z</time></trkpt><trkpt lat="42.25109990156916" lon="13.933468054332444"><ele>214.0</ele><time>2026-05-02T07:56:16Z</time></trkpt><trkpt lat="42.25120664276732" lon="13.93351177384495"><ele>214.0</ele><time>2026-05-02T07:56:17Z</time></trkpt><trkpt lat="42.25131594968" lon="13.933564590175783"><ele>213.99999999999997</ele><time>2026-05-02T07:56:18Z</time></trkpt><trkpt lat="42.25141333178206" lon="13.933634011449112"><ele>213.99999999999997</ele><time>2026-05-02T07:56:19Z</time></trkpt><trkpt lat="42.25149132536139" lon="13.933699568725363"><ele>214.0</ele><time>2026-05-02T07:56:20Z</time></trkpt><trkpt lat="42.25157627269724" lon="13.933750105906817"><ele>214.0</ele><time>2026-05-02T07:56:21Z</time></trkpt><trkpt lat="42.251663244959516" lon="13.933800151100781"><ele>216.79999999999998</ele><time>2026-05-02T07:56:22Z</time></trkpt><trkpt lat="42.2517484018905" lon="13.933843934746832"><ele>219.59999999999997</ele><time>2026-05-02T07:56:23Z</time></trkpt><trkpt lat="42.25184136452147" lon="13.933894594894229"><ele>222.4</ele><time>2026-05-02T07:56:24Z</time></trkpt><trkpt lat="42.2519414740985" lon="13.933948405330371"><ele>225.2</ele><time>2026-05-02T07:56:25Z</time></trkpt><trkpt lat="42.25204223331431" lon="13.93400486264523"><ele>228.0</ele><time>2026-05-02T07:56:26Z</time></trkpt><trkpt lat="42.25213938298931" lon="13.934055216002147"><ele>228.0</ele><time>2026-05-02T07:56:27Z</time></trkpt><trkpt lat="42.252238129912655" lon="13.934107214192895"><ele>228.0</ele><time>2026-05-02T07:56:28Z</time></trkpt><trkpt lat="42.2523325379005" lon="13.934160444232951"><ele>228.0</ele><time>2026-05-02T07:56:29Z</time></trkpt><trkpt lat="42.25241774563617" lon="13.934210740733809"><ele>228.0</ele><time>2026-05-02T07:56:30Z</time></trkpt><trkpt lat="42.25247467369906" lon="13.934306375219444"><ele>228.0</ele><time>2026-05-02T07:56:31Z</time></trkpt><trkpt lat="42.25249850694543" lon="13.934407201102378"><ele>230.83333333333334</ele><time>2026-05-02T07:56:32Z</time></trkpt><trkpt lat="42.252477936884816" lon="13.934495779631414"><ele>233.66666666666669</ele><time>2026-05-02T07:56:33Z</time></trkpt><trkpt lat="42.252449232147654" lon="13.93459901748814"><ele>236.5</ele><time>2026-05-02T07:56:34Z</time></trkpt><trkpt lat="42.25243689375909" lon="13.934700613814192"><ele>239.33333333333334</ele><time>2026-05-02T07:56:35Z</time></trkpt><trkpt lat="42.25243012555524" lon="13.934861322699257"><ele>242.16666666666669</ele><time>2026-05-02T07:56:37Z</time></trkpt><trkpt lat="42.25242224980371" lon="13.934961396854566"><ele>245.0</ele><time>2026-05-02T07:56:39Z</time></trkpt><trkpt lat="42.25240248713917" lon="13.935080796407314"><ele>245.00000000000003</ele><time>2026-05-02T07:56:51.999Z</time></trkpt><trkpt lat="42.2524604200649" lon="13.934970526107133"><ele>245.0</ele><time>2026-05-02T07:57:04.999Z</time></trkpt><trkpt lat="42.25245753457779" lon="13.934873276113771"><ele>245.0</ele><time>2026-05-02T07:57:05.999Z</time></trkpt><trkpt lat="42.25245104158662" lon="13.934743301625414"><ele>245.0</ele><time>2026-05-02T07:57:07.999Z</time></trkpt><trkpt lat="42.25238265120756" lon="13.934730247926874"><ele>245.00000000000003</ele><time>2026-05-02T07:57:10.999Z</time></trkpt><trkpt lat="42.25231467025479" lon="13.934738649253198"><ele>245.0</ele><time>2026-05-02T07:57:12.999Z</time></trkpt><trkpt lat="42.2522227455452" lon="13.934744141189999"><ele>242.28571428571428</ele><time>2026-05-02T07:57:15.999Z</time></trkpt><trkpt lat="42.252152816339574" lon="13.934754127255015"><ele>239.57142857142856</ele><time>2026-05-02T07:57:19.999Z</time></trkpt><trkpt lat="42.252090061479706" lon="13.934767608484554"><ele>236.85714285714286</ele><time>2026-05-02T07:57:24.999Z</time></trkpt><trkpt lat="42.25202587471084" lon="13.934786533685859"><ele>234.14285714285714</ele><time>2026-05-02T07:57:30.999Z</time></trkpt><trkpt lat="42.251959977690404" lon="13.934795907059058"><ele>231.42857142857142</ele><time>2026-05-02T07:57:36.999Z</time></trkpt><trkpt lat="42.251897156270445" lon="13.934802893343791"><ele>228.71428571428572</ele><time>2026-05-02T07:57:41.999Z</time></trkpt><trkpt lat="42.25182841736816" lon="13.934805839266504"><ele>226.0</ele><time>2026-05-02T07:57:49.999Z</time></trkpt><trkpt lat="42.25176493031181" lon="13.934794252953592"><ele>226.0</ele><time>2026-05-02T07:58:00Z</time></trkpt><trkpt lat="42.25169522900077" lon="13.934794308768739"><ele>226.0</ele><time>2026-05-02T07:58:09Z</time></trkpt><trkpt lat="42.25163132028797" lon="13.93479226049573"><ele>226.0</ele><time>2026-05-02T07:58:14Z</time></trkpt><trkpt lat="42.251556360453066" lon="13.934798825536753"><ele>226.0</ele><time>2026-05-02T07:58:20Z</time></trkpt><trkpt lat="42.25147727586982" lon="13.93481029283712"><ele>226.0</ele><time>2026-05-02T07:58:24Z</time></trkpt><trkpt lat="42.25140834253954" lon="13.93481616260139"><ele>226.0</ele><time>2026-05-02T07:58:28Z</time></trkpt><trkpt lat="42.251339669679325" lon="13.934812100281833"><ele>226.0</ele><time>2026-05-02T07:58:32Z</time></trkpt><trkpt lat="42.251272395089885" lon="13.93481654468836"><ele>222.83333333333331</ele><time>2026-05-02T07:58:36Z</time></trkpt><trkpt lat="42.2511995036929" lon="13.934839404684062"><ele>219.66666666666666</ele><time>2026-05-02T07:58:40Z</time></trkpt><trkpt lat="42.25112601348217" lon="13.934871681552195"><ele>216.5</ele><time>2026-05-02T07:58:44Z</time></trkpt><trkpt lat="42.25105016754264" lon="13.93490096042554"><ele>213.33333333333331</ele><time>2026-05-02T07:58:48Z</time></trkpt><trkpt lat="42.2509628837797" lon="13.9349249749083"><ele>210.16666666666666</ele><time>2026-05-02T07:58:51.999Z</time></trkpt><trkpt lat="42.250885993473105" lon="13.934928636329378"><ele>207.0</ele><time>2026-05-02T07:58:54.999Z</time></trkpt><trkpt lat="42.25079595603931" lon="13.93493039264806"><ele>207.0</ele><time>2026-05-02T07:58:56.999Z</time></trkpt><trkpt lat="42.25070171168181" lon="13.93492545317025"><ele>207.0</ele><time>2026-05-02T07:58:58.999Z</time></trkpt><trkpt lat="42.25061494927572" lon="13.934913905799698"><ele>207.0</ele><time>2026-05-02T07:59:00.999Z</time></trkpt><trkpt lat="42.250507880583605" lon="13.934896757155068"><ele>207.0</ele><time>2026-05-02T07:59:02.999Z</time></trkpt><trkpt lat="42.25039436294126" lon="13.934894819041727"><ele>207.0</ele><time>2026-05-02T07:59:04.999Z</time></trkpt><trkpt lat="42.25030369895364" lon="13.934910498311048"><ele>204.2</ele><time>2026-05-02T07:59:06.999Z</time></trkpt><trkpt lat="42.25021477019789" lon="13.934956147164147"><ele>201.39999999999998</ele><time>2026-05-02T07:59:08.999Z</time></trkpt><trkpt lat="42.25009447829842" lon="13.93499155432342"><ele>198.60000000000002</ele><time>2026-05-02T07:59:10.999Z</time></trkpt><trkpt lat="42.25000660662112" lon="13.934973200322592"><ele>195.8</ele><time>2026-05-02T07:59:13.999Z</time></trkpt><trkpt lat="42.24992985479879" lon="13.93493932076785"><ele>193.0</ele><time>2026-05-02T07:59:17.999Z</time></trkpt><trkpt lat="42.24985876790979" lon="13.93490795939345"><ele>192.99999999999997</ele><time>2026-05-02T07:59:24.999Z</time></trkpt><trkpt lat="42.24979399569483" lon="13.934880210455413"><ele>193.0</ele><time>2026-05-02T07:59:29.999Z</time></trkpt><trkpt lat="42.24972209365325" lon="13.934862783060952"><ele>193.0</ele><time>2026-05-02T07:59:34.999Z</time></trkpt><trkpt lat="42.249635414701395" lon="13.93487486066214"><ele>193.0</ele><time>2026-05-02T07:59:38.999Z</time></trkpt><trkpt lat="42.24956079381768" lon="13.934906888218265"><ele>192.99999999999997</ele><time>2026-05-02T07:59:41.999Z</time></trkpt><trkpt lat="42.24949548106937" lon="13.934943482688348"><ele>193.0</ele><time>2026-05-02T07:59:44.999Z</time></trkpt><trkpt lat="42.249425698658264" lon="13.934981561475247"><ele>191.14285714285717</ele><time>2026-05-02T07:59:49.999Z</time></trkpt><trkpt lat="42.24935466192891" lon="13.93500219961156"><ele>189.28571428571428</ele><time>2026-05-02T07:59:53.999Z</time></trkpt><trkpt lat="42.24928218772212" lon="13.935012896494067"><ele>187.42857142857144</ele><time>2026-05-02T07:59:58Z</time></trkpt><trkpt lat="42.24920635687994" lon="13.9350181426089"><ele>185.57142857142858</ele><time>2026-05-02T08:00:01Z</time></trkpt><trkpt lat="42.249134075043465" lon="13.935028499003948"><ele>183.71428571428572</ele><time>2026-05-02T08:00:04Z</time></trkpt><trkpt lat="42.24906694494856" lon="13.935023121268644"><ele>181.85714285714286</ele><time>2026-05-02T08:00:07Z</time></trkpt><trkpt lat="42.24900403435284" lon="13.934968808492172"><ele>180.0</ele><time>2026-05-02T08:00:12Z</time></trkpt><trkpt lat="42.24893004725551" lon="13.934938177784208"><ele>178.5</ele><time>2026-05-02T08:00:17Z</time></trkpt><trkpt lat="42.24886529954953" lon="13.934956428774022"><ele>177.0</ele><time>2026-05-02T08:00:19Z</time></trkpt><trkpt lat="42.248794645966434" lon="13.934986766653896"><ele>175.5</ele><time>2026-05-02T08:00:21Z</time></trkpt><trkpt lat="42.24871678520432" lon="13.935016391941431"><ele>174.0</ele><time>2026-05-02T08:00:23Z</time></trkpt><trkpt lat="42.24865099165142" lon="13.935064303678962"><ele>172.5</ele><time>2026-05-02T08:00:25Z</time></trkpt><trkpt lat="42.24860151828235" lon="13.935148737255911"><ele>171.0</ele><time>2026-05-02T08:00:27Z</time></trkpt><trkpt lat="42.248558864128896" lon="13.935240279171602"><ele>169.16666666666666</ele><time>2026-05-02T08:00:29Z</time></trkpt><trkpt lat="42.24851461370038" lon="13.935325437418697"><ele>167.33333333333334</ele><time>2026-05-02T08:00:31Z</time></trkpt><trkpt lat="42.24845235042201" lon="13.935387238596944"><ele>165.5</ele><time>2026-05-02T08:00:33Z</time></trkpt><trkpt lat="42.24837325981593" lon="13.935438457343327"><ele>163.66666666666669</ele><time>2026-05-02T08:00:35Z</time></trkpt><trkpt lat="42.24829412650241" lon="13.935456532436191"><ele>161.83333333333334</ele><time>2026-05-02T08:00:37Z</time></trkpt><trkpt lat="42.248221556851625" lon="13.935493267623924"><ele>160.0</ele><time>2026-05-02T08:00:39Z</time></trkpt><trkpt lat="42.24817757540056" lon="13.935566958651224"><ele>160.0</ele><time>2026-05-02T08:01:33.999Z</time></trkpt><trkpt lat="42.248166808754334" lon="13.935693071292283"><ele>160.0</ele><time>2026-05-02T08:01:37.999Z</time></trkpt><trkpt lat="42.24818466061533" lon="13.935810237065972"><ele>160.0</ele><time>2026-05-02T08:01:39.999Z</time></trkpt><trkpt lat="42.24820126289688" lon="13.935944600895247"><ele>160.0</ele><time>2026-05-02T08:01:41.999Z</time></trkpt><trkpt lat="42.2482193282717" lon="13.936087656683283"><ele>160.0</ele><time>2026-05-02T08:01:43.999Z</time></trkpt><trkpt lat="42.248224256336115" lon="13.936234673013642"><ele>159.4</ele><time>2026-05-02T08:01:45.999Z</time></trkpt><trkpt lat="42.2482142344876" lon="13.93638785578643"><ele>158.8</ele><time>2026-05-02T08:01:47.999Z</time></trkpt><trkpt lat="42.24817035212961" lon="13.936522969519535"><ele>158.2</ele><time>2026-05-02T08:01:49.999Z</time></trkpt><trkpt lat="42.248129228944215" lon="13.93667240604818"><ele>157.6</ele><time>2026-05-02T08:01:51.999Z</time></trkpt><trkpt lat="42.248096292262524" lon="13.936748519966391"><ele>157.0</ele><time>2026-05-02T08:01:52.999Z</time></trkpt><trkpt lat="42.24806055107953" lon="13.936820674535932"><ele>153.79999999999998</ele><time>2026-05-02T08:01:53.999Z</time></trkpt><trkpt lat="42.24797408357564" lon="13.936931377815235"><ele>150.6</ele><time>2026-05-02T08:01:55.999Z</time></trkpt><trkpt lat="42.247918726231475" lon="13.936984077772811"><ele>147.39999999999998</ele><time>2026-05-02T08:01:56.999Z</time></trkpt><trkpt lat="42.24784188951179" lon="13.937051139323668"><ele>144.2</ele><time>2026-05-02T08:01:58.999Z</time></trkpt><trkpt lat="42.24773155641677" lon="13.93712939237517"><ele>141.0</ele><time>2026-05-02T08:02:01Z</time></trkpt><trkpt lat="42.24767021238303" lon="13.937162867102055"><ele>141.0</ele><time>2026-05-02T08:02:02Z</time></trkpt><trkpt lat="42.24757821476426" lon="13.93723694650113"><ele>141.0</ele><time>2026-05-02T08:02:04Z</time></trkpt><trkpt lat="42.247494133287276" lon="13.937303417851842"><ele>141.0</ele><time>2026-05-02T08:02:06Z</time></trkpt><trkpt lat="42.24743157492527" lon="13.93732006181177"><ele>141.0</ele><time>2026-05-02T08:02:07Z</time></trkpt><trkpt lat="42.24730874776407" lon="13.937294545365317"><ele>141.0</ele><time>2026-05-02T08:02:09Z</time></trkpt><trkpt lat="42.24724524719974" lon="13.937262108220398"><ele>141.33333333333334</ele><time>2026-05-02T08:02:10Z</time></trkpt><trkpt lat="42.24719074433415" lon="13.937211799079131"><ele>141.66666666666666</ele><time>2026-05-02T08:02:11Z</time></trkpt><trkpt lat="42.247130710024614" lon="13.937112614409108"><ele>142.0</ele><time>2026-05-02T08:02:13Z</time></trkpt><trkpt lat="42.24709055070442" lon="13.93700485653673"><ele>142.33333333333331</ele><time>2026-05-02T08:02:15Z</time></trkpt><trkpt lat="42.247116745044885" lon="13.936919893196437"><ele>142.66666666666666</ele><time>2026-05-02T08:02:25Z</time></trkpt><trkpt lat="42.247182532019885" lon="13.936977792061235"><ele>143.0</ele><time>2026-05-02T08:02:29Z</time></trkpt><trkpt lat="42.24717332374519" lon="13.937077485733706"><ele>143.0</ele><time>2026-05-02T08:02:32Z</time></trkpt><trkpt lat="42.24710293932515" lon="13.937085973273218"><ele>143.0</ele><time>2026-05-02T08:02:46Z</time></trkpt><trkpt lat="42.247007793698195" lon="13.937057063122003"><ele>143.0</ele><time>2026-05-02T08:02:49Z</time></trkpt><trkpt lat="42.246943463253494" lon="13.9370165966455"><ele>143.0</ele><time>2026-05-02T08:02:52Z</time></trkpt><trkpt lat="42.24687959412024" lon="13.936941693052104"><ele>143.0</ele><time>2026-05-02T08:03:04Z</time></trkpt><trkpt lat="42.24683593488779" lon="13.93686126493293"><ele>143.0</ele><time>2026-05-02T08:03:13.999Z</time></trkpt><trkpt lat="42.246812618793946" lon="13.936780114373159"><ele>142.83333333333331</ele><time>2026-05-02T08:03:15.999Z</time></trkpt><trkpt lat="42.246762547170356" lon="13.936701308648585"><ele>142.66666666666666</ele><time>2026-05-02T08:03:18.999Z</time></trkpt><trkpt lat="42.24674172695607" lon="13.936592257033865"><ele>142.5</ele><time>2026-05-02T08:03:20.999Z</time></trkpt><trkpt lat="42.24668939263889" lon="13.936462407773723"><ele>142.33333333333334</ele><time>2026-05-02T08:03:22.999Z</time></trkpt><trkpt lat="42.24663704308804" lon="13.936368807137374"><ele>142.16666666666669</ele><time>2026-05-02T08:03:24.999Z</time></trkpt><trkpt lat="42.24658531053536" lon="13.936281944465387"><ele>142.0</ele><time>2026-05-02T08:03:39.999Z</time></trkpt><trkpt lat="42.246511403419454" lon="13.936215715998651"><ele>144.0</ele><time>2026-05-02T08:03:41.999Z</time></trkpt><trkpt lat="42.246446198399255" lon="13.936286064801715"><ele>146.0</ele><time>2026-05-02T08:03:44.999Z</time></trkpt><trkpt lat="42.24639167523054" lon="13.936395389014972"><ele>148.0</ele><time>2026-05-02T08:03:46.999Z</time></trkpt><trkpt lat="42.24633036606557" lon="13.936537118128516"><ele>150.0</ele><time>2026-05-02T08:03:48.999Z</time></trkpt><trkpt lat="42.24626675043128" lon="13.93662875217941"><ele>152.0</ele><time>2026-05-02T08:03:50.999Z</time></trkpt><trkpt lat="42.24621031052029" lon="13.936760340670347"><ele>152.33333333333331</ele><time>2026-05-02T08:03:52.999Z</time></trkpt><trkpt lat="42.24620627278508" lon="13.936872949854713"><ele>152.66666666666666</ele><time>2026-05-02T08:03:53.999Z</time></trkpt><trkpt lat="42.24623669801353" lon="13.93698825224639"><ele>153.0</ele><time>2026-05-02T08:03:54.999Z</time></trkpt><trkpt lat="42.246267645555385" lon="13.937087828597434"><ele>153.33333333333334</ele><time>2026-05-02T08:03:55.999Z</time></trkpt><trkpt lat="42.246266517507955" lon="13.937181227539305"><ele>153.66666666666669</ele><time>2026-05-02T08:03:56.999Z</time></trkpt><trkpt lat="42.246243446854876" lon="13.937274012764735"><ele>154.0</ele><time>2026-05-02T08:03:57.999Z</time></trkpt><trkpt lat="42.24619729620148" lon="13.93737096643278"><ele>154.0</ele><time>2026-05-02T08:03:58.999Z</time></trkpt><trkpt lat="42.246136503547795" lon="13.937470516200841"><ele>154.0</ele><time>2026-05-02T08:03:59.999Z</time></trkpt><trkpt lat="42.246069072202474" lon="13.937562854762431"><ele>154.0</ele><time>2026-05-02T08:04:00.999Z</time></trkpt><trkpt lat="42.24600316718623" lon="13.937650894591124"><ele>154.0</ele><time>2026-05-02T08:04:01.999Z</time></trkpt><trkpt lat="42.24595453438022" lon="13.93771392294294"><ele>154.0</ele><time>2026-05-02T08:04:02.999Z</time></trkpt><trkpt lat="42.24589284984829" lon="13.937794588738736"><ele>154.0</ele><time>2026-05-02T08:04:04.999Z</time></trkpt><trkpt lat="42.24581736753592" lon="13.93775120903109"><ele>154.0</ele><time>2026-05-02T08:04:08Z</time></trkpt><trkpt lat="42.24579532017304" lon="13.937661518827538"><ele>154.0</ele><time>2026-05-02T08:04:09Z</time></trkpt><trkpt lat="42.245765030097715" lon="13.937536928888289"><ele>154.0</ele><time>2026-05-02T08:04:10Z</time></trkpt><trkpt lat="42.24571957861718" lon="13.937410748135852"><ele>154.0</ele><time>2026-05-02T08:04:11Z</time></trkpt><trkpt lat="42.24566088939084" lon="13.937237442343868"><ele>154.0</ele><time>2026-05-02T08:04:12Z</time></trkpt><trkpt lat="42.24560151863186" lon="13.937071148296738"><ele>154.33333333333334</ele><time>2026-05-02T08:04:13Z</time></trkpt><trkpt lat="42.24554229912276" lon="13.936906632072448"><ele>154.66666666666666</ele><time>2026-05-02T08:04:14Z</time></trkpt><trkpt lat="42.24547699702609" lon="13.936716922301377"><ele>155.0</ele><time>2026-05-02T08:04:15Z</time></trkpt><trkpt lat="42.2454124014932" lon="13.93651783616028"><ele>155.66666666666666</ele><time>2026-05-02T08:04:16Z</time></trkpt><trkpt lat="42.24533575084275" lon="13.93629649835463"><ele>156.33333333333334</ele><time>2026-05-02T08:04:17Z</time></trkpt><trkpt lat="42.24524885926518" lon="13.936078902067647"><ele>157.0</ele><time>2026-05-02T08:04:18Z</time></trkpt><trkpt lat="42.245173276198656" lon="13.935887033580663"><ele>157.75</ele><time>2026-05-02T08:04:19Z</time></trkpt><trkpt lat="42.245081021744106" lon="13.93575685550977"><ele>158.5</ele><time>2026-05-02T08:04:20Z</time></trkpt><trkpt lat="42.24501359624165" lon="13.93561731036079"><ele>159.25</ele><time>2026-05-02T08:04:21Z</time></trkpt><trkpt lat="42.24501115976758" lon="13.935439013921897"><ele>160.0</ele><time>2026-05-02T08:04:22Z</time></trkpt><trkpt lat="42.244976979096165" lon="13.935278526058655"><ele>160.0</ele><time>2026-05-02T08:04:23Z</time></trkpt><trkpt lat="42.244928804588326" lon="13.935141447678705"><ele>160.0</ele><time>2026-05-02T08:04:25Z</time></trkpt><trkpt lat="42.244862856911205" lon="13.935084877016136"><ele>160.0</ele><time>2026-05-02T08:04:26Z</time></trkpt><trkpt lat="42.24477412554224" lon="13.935076314321892"><ele>160.0</ele><time>2026-05-02T08:04:27Z</time></trkpt><trkpt lat="42.244671836326305" lon="13.93509558165479"><ele>160.0</ele><time>2026-05-02T08:04:28Z</time></trkpt><trkpt lat="42.24461048522241" lon="13.935061945735825"><ele>160.0</ele><time>2026-05-02T08:04:29Z</time></trkpt><trkpt lat="42.24450274963606" lon="13.935068674666034"><ele>162.0</ele><time>2026-05-02T08:04:30Z</time></trkpt><trkpt lat="42.244419836787166" lon="13.935058746073608"><ele>164.0</ele><time>2026-05-02T08:04:31Z</time></trkpt><trkpt lat="42.244326873440755" lon="13.935302521407218"><ele>166.0</ele><time>2026-05-02T08:04:32Z</time></trkpt><trkpt lat="42.244289676643355" lon="13.935551533123327"><ele>166.0</ele><time>2026-05-02T08:04:34Z</time></trkpt><trkpt lat="42.2442642897431" lon="13.935747917437961"><ele>166.0</ele><time>2026-05-02T08:04:35Z</time></trkpt><trkpt lat="42.2442350809613" lon="13.935926250502881"><ele>166.0</ele><time>2026-05-02T08:04:36Z</time></trkpt><trkpt lat="42.24419683494303" lon="13.936121578360815"><ele>166.0</ele><time>2026-05-02T08:04:37Z</time></trkpt><trkpt lat="42.24415463186435" lon="13.936315284629844"><ele>165.0</ele><time>2026-05-02T08:04:38Z</time></trkpt><trkpt lat="42.24412646214748" lon="13.936531154079614"><ele>164.0</ele><time>2026-05-02T08:04:39Z</time></trkpt><trkpt lat="42.244101613895644" lon="13.93670744904962"><ele>163.0</ele><time>2026-05-02T08:04:40Z</time></trkpt><trkpt lat="42.24407725937483" lon="13.936823678388333"><ele>162.0</ele><time>2026-05-02T08:04:41Z</time></trkpt><trkpt lat="42.24402933056456" lon="13.936936910211521"><ele>162.5</ele><time>2026-05-02T08:04:42Z</time></trkpt><trkpt lat="42.24395961677203" lon="13.936966808956576"><ele>163.0</ele><time>2026-05-02T08:04:43Z</time></trkpt><trkpt lat="42.24389549188568" lon="13.936918059251907"><ele>163.5</ele><time>2026-05-02T08:04:44Z</time></trkpt><trkpt lat="42.24384931226798" lon="13.936823931497049"><ele>164.0</ele><time>2026-05-02T08:04:45Z</time></trkpt><trkpt lat="42.24381341685001" lon="13.93669467694498"><ele>164.5</ele><time>2026-05-02T08:04:46Z</time></trkpt><trkpt lat="42.243781971415125" lon="13.936562179020038"><ele>165.0</ele><time>2026-05-02T08:04:47Z</time></trkpt><trkpt lat="42.243749109031164" lon="13.9364204802413"><ele>165.0</ele><time>2026-05-02T08:04:48Z</time></trkpt><trkpt lat="42.243707716283865" lon="13.93625416205705"><ele>165.0</ele><time>2026-05-02T08:04:49Z</time></trkpt><trkpt lat="42.24365840175353" lon="13.936059789505837"><ele>165.0</ele><time>2026-05-02T08:04:50Z</time></trkpt><trkpt lat="42.24360636983464" lon="13.935848792492255"><ele>165.0</ele><time>2026-05-02T08:04:51Z</time></trkpt><trkpt lat="42.243560377019264" lon="13.9356579676711"><ele>165.5</ele><time>2026-05-02T08:04:52Z</time></trkpt><trkpt lat="42.24351632447962" lon="13.935474661111323"><ele>166.0</ele><time>2026-05-02T08:04:53Z</time></trkpt><trkpt lat="42.24347482250059" lon="13.935290205992091"><ele>166.5</ele><time>2026-05-02T08:04:54Z</time></trkpt><trkpt lat="42.24342979361532" lon="13.93511615977401"><ele>167.0</ele><time>2026-05-02T08:04:55Z</time></trkpt><trkpt lat="42.24338827046778" lon="13.934943222641651"><ele>167.5</ele><time>2026-05-02T08:04:56Z</time></trkpt><trkpt lat="42.2433462548025" lon="13.934767644787946"><ele>168.0</ele><time>2026-05-02T08:04:57Z</time></trkpt><trkpt lat="42.24330451572831" lon="13.934590824540143"><ele>168.5</ele><time>2026-05-02T08:04:58Z</time></trkpt><trkpt lat="42.24326299638366" lon="13.934414836179599"><ele>169.0</ele><time>2026-05-02T08:04:59Z</time></trkpt><trkpt lat="42.24322010302381" lon="13.934238488171465"><ele>169.25</ele><time>2026-05-02T08:05:00Z</time></trkpt><trkpt lat="42.24317498626455" lon="13.93406244612855"><ele>169.5</ele><time>2026-05-02T08:05:01Z</time></trkpt><trkpt lat="42.24312976972295" lon="13.93388110969063"><ele>169.75</ele><time>2026-05-02T08:05:02Z</time></trkpt><trkpt lat="42.24308726581166" lon="13.93370403120458"><ele>170.0</ele><time>2026-05-02T08:05:03Z</time></trkpt><trkpt lat="42.243034106381025" lon="13.933530278551025"><ele>171.75</ele><time>2026-05-02T08:05:04Z</time></trkpt><trkpt lat="42.242992898795585" lon="13.933364594593023"><ele>173.5</ele><time>2026-05-02T08:05:05Z</time></trkpt><trkpt lat="42.242946019169146" lon="13.933201513883724"><ele>175.25</ele><time>2026-05-02T08:05:06Z</time></trkpt><trkpt lat="42.242906884753694" lon="13.933025323351126"><ele>177.0</ele><time>2026-05-02T08:05:07Z</time></trkpt><trkpt lat="42.242865251605316" lon="13.93285327864244"><ele>177.0</ele><time>2026-05-02T08:05:08Z</time></trkpt><trkpt lat="42.242819097546175" lon="13.932684679143454"><ele>177.0</ele><time>2026-05-02T08:05:09Z</time></trkpt><trkpt lat="42.24277469527758" lon="13.932508914401469"><ele>177.0</ele><time>2026-05-02T08:05:10Z</time></trkpt><trkpt lat="42.24273452264742" lon="13.93235289023264"><ele>177.0</ele><time>2026-05-02T08:05:11Z</time></trkpt><trkpt lat="42.24270298163884" lon="13.932200088720604"><ele>177.5</ele><time>2026-05-02T08:05:12Z</time></trkpt><trkpt lat="42.242661316930004" lon="13.932054021435329"><ele>178.0</ele><time>2026-05-02T08:05:12.999Z</time></trkpt><trkpt lat="42.24262465202352" lon="13.931884331019265"><ele>178.5</ele><time>2026-05-02T08:05:13.999Z</time></trkpt><trkpt lat="42.24257560532688" lon="13.931735720324772"><ele>179.0</ele><time>2026-05-02T08:05:14.999Z</time></trkpt><trkpt lat="42.24253058313367" lon="13.931578103198957"><ele>179.5</ele><time>2026-05-02T08:05:15.999Z</time></trkpt><trkpt lat="42.24249481124887" lon="13.931411373505487"><ele>180.0</ele><time>2026-05-02T08:05:16.999Z</time></trkpt><trkpt lat="42.242459084808765" lon="13.93123368432722"><ele>180.5</ele><time>2026-05-02T08:05:17.999Z</time></trkpt><trkpt lat="42.24241803028954" lon="13.931054714059869"><ele>181.0</ele><time>2026-05-02T08:05:18.999Z</time></trkpt><trkpt lat="42.24237468664193" lon="13.930873712044411"><ele>181.25</ele><time>2026-05-02T08:05:19.999Z</time></trkpt><trkpt lat="42.24233179860081" lon="13.9306980096544"><ele>181.5</ele><time>2026-05-02T08:05:20.999Z</time></trkpt><trkpt lat="42.242286736035126" lon="13.930525035374247"><ele>181.75</ele><time>2026-05-02T08:05:21.999Z</time></trkpt><trkpt lat="42.24224314206481" lon="13.930352430934855"><ele>182.0</ele><time>2026-05-02T08:05:22.999Z</time></trkpt><trkpt lat="42.2421974502748" lon="13.930209033684017"><ele>182.0</ele><time>2026-05-02T08:05:23.999Z</time></trkpt><trkpt lat="42.24215984659342" lon="13.930076393602874"><ele>182.0</ele><time>2026-05-02T08:05:24.999Z</time></trkpt><trkpt lat="42.24212980387493" lon="13.929956465406471"><ele>182.0</ele><time>2026-05-02T08:05:25.999Z</time></trkpt><trkpt lat="42.24210255981806" lon="13.929837698978433"><ele>182.0</ele><time>2026-05-02T08:05:26.999Z</time></trkpt><trkpt lat="42.242076828739435" lon="13.929742933761672"><ele>182.0</ele><time>2026-05-02T08:05:27.999Z</time></trkpt><trkpt lat="42.24204555811831" lon="13.929658381548096"><ele>182.0</ele><time>2026-05-02T08:05:28.999Z</time></trkpt><trkpt lat="42.24202257613169" lon="13.92957810510445"><ele>182.0</ele><time>2026-05-02T08:05:29.999Z</time></trkpt><trkpt lat="42.24197423616322" lon="13.929439673329572"><ele>182.0</ele><time>2026-05-02T08:05:31.999Z</time></trkpt><trkpt lat="42.24196092791027" lon="13.92935014317164"><ele>182.0</ele><time>2026-05-02T08:05:32.999Z</time></trkpt><trkpt lat="42.241936982545255" lon="13.929241104898175"><ele>182.0</ele><time>2026-05-02T08:05:33.999Z</time></trkpt><trkpt lat="42.24190703790289" lon="13.929109366799926"><ele>182.0</ele><time>2026-05-02T08:05:34.999Z</time></trkpt><trkpt lat="42.24187506389921" lon="13.928956706828476"><ele>182.0</ele><time>2026-05-02T08:05:35.999Z</time></trkpt><trkpt lat="42.24182804513288" lon="13.928790871175682"><ele>182.0</ele><time>2026-05-02T08:05:36.999Z</time></trkpt><trkpt lat="42.241777615736424" lon="13.928625645750051"><ele>182.0</ele><time>2026-05-02T08:05:37.999Z</time></trkpt><trkpt lat="42.241729544100814" lon="13.928448284415722"><ele>182.0</ele><time>2026-05-02T08:05:38.999Z</time></trkpt><trkpt lat="42.2416973236271" lon="13.928259745260755"><ele>183.0</ele><time>2026-05-02T08:05:39.999Z</time></trkpt><trkpt lat="42.24166376780355" lon="13.928078812140775"><ele>184.0</ele><time>2026-05-02T08:05:40.999Z</time></trkpt><trkpt lat="42.241623431317876" lon="13.927893392350894"><ele>185.0</ele><time>2026-05-02T08:05:41.999Z</time></trkpt><trkpt lat="42.241580440234415" lon="13.927706051987325"><ele>186.0</ele><time>2026-05-02T08:05:42.999Z</time></trkpt><trkpt lat="42.241531671306745" lon="13.927535583381863"><ele>186.0</ele><time>2026-05-02T08:05:43.999Z</time></trkpt><trkpt lat="42.24149130667685" lon="13.927377918653846"><ele>186.0</ele><time>2026-05-02T08:05:44.999Z</time></trkpt><trkpt lat="42.24145689978534" lon="13.927239568395052"><ele>186.0</ele><time>2026-05-02T08:05:45.999Z</time></trkpt><trkpt lat="42.24142524133704" lon="13.92709756167792"><ele>186.0</ele><time>2026-05-02T08:05:46.999Z</time></trkpt><trkpt lat="42.24139716203554" lon="13.926971970404828"><ele>186.0</ele><time>2026-05-02T08:05:47.999Z</time></trkpt><trkpt lat="42.241373753949404" lon="13.926870036503388"><ele>186.66666666666666</ele><time>2026-05-02T08:05:48.999Z</time></trkpt><trkpt lat="42.24133968824976" lon="13.926726703160707"><ele>187.33333333333334</ele><time>2026-05-02T08:05:50.999Z</time></trkpt><trkpt lat="42.24131025576905" lon="13.92663419982379"><ele>188.0</ele><time>2026-05-02T08:06:28Z</time></trkpt><trkpt lat="42.24128231461361" lon="13.926531263622286"><ele>188.66666666666669</ele><time>2026-05-02T08:06:30Z</time></trkpt><trkpt lat="42.241271611377734" lon="13.926435769862351"><ele>189.33333333333334</ele><time>2026-05-02T08:06:31Z</time></trkpt><trkpt lat="42.24129364174857" lon="13.926352635097082"><ele>190.0</ele><time>2026-05-02T08:06:32Z</time></trkpt><trkpt lat="42.24142708415258" lon="13.926318893645506"><ele>189.4</ele><time>2026-05-02T08:06:34Z</time></trkpt><trkpt lat="42.24152228753056" lon="13.926347031794233"><ele>188.8</ele><time>2026-05-02T08:06:35Z</time></trkpt><trkpt lat="42.24162262505953" lon="13.92636780574431"><ele>188.2</ele><time>2026-05-02T08:06:36Z</time></trkpt><trkpt lat="42.24173553893517" lon="13.926379869671017"><ele>187.6</ele><time>2026-05-02T08:06:37Z</time></trkpt><trkpt lat="42.24184138602076" lon="13.926391807651486"><ele>187.0</ele><time>2026-05-02T08:06:38Z</time></trkpt><trkpt lat="42.24194011227129" lon="13.926417007324122"><ele>187.0</ele><time>2026-05-02T08:06:39Z</time></trkpt><trkpt lat="42.242034102896284" lon="13.926452770615564"><ele>187.0</ele><time>2026-05-02T08:06:40Z</time></trkpt><trkpt lat="42.24212038023215" lon="13.926501380909722"><ele>187.0</ele><time>2026-05-02T08:06:41Z</time></trkpt><trkpt lat="42.24219661137451" lon="13.926561191127407"><ele>187.0</ele><time>2026-05-02T08:06:42Z</time></trkpt><trkpt lat="42.24227361760147" lon="13.92662892930406"><ele>187.0</ele><time>2026-05-02T08:06:43Z</time></trkpt><trkpt lat="42.24234482393461" lon="13.926703154905173"><ele>186.6</ele><time>2026-05-02T08:06:44Z</time></trkpt><trkpt lat="42.24242479855527" lon="13.926784309878892"><ele>186.2</ele><time>2026-05-02T08:06:45Z</time></trkpt><trkpt lat="42.242499207452" lon="13.926872090005185"><ele>185.8</ele><time>2026-05-02T08:06:46Z</time></trkpt><trkpt lat="42.24257159570056" lon="13.926962066303725"><ele>185.4</ele><time>2026-05-02T08:06:47Z</time></trkpt><trkpt lat="42.24264421241785" lon="13.92705642231914"><ele>185.0</ele><time>2026-05-02T08:06:48Z</time></trkpt><trkpt lat="42.242712296533576" lon="13.92715289351475"><ele>185.0</ele><time>2026-05-02T08:06:49Z</time></trkpt><trkpt lat="42.24278029918586" lon="13.927253516833423"><ele>185.0</ele><time>2026-05-02T08:06:50Z</time></trkpt><trkpt lat="42.242852679359984" lon="13.927355520614627"><ele>185.0</ele><time>2026-05-02T08:06:51Z</time></trkpt><trkpt lat="42.242926850811195" lon="13.927456179455266"><ele>185.0</ele><time>2026-05-02T08:06:52Z</time></trkpt><trkpt lat="42.243001137946635" lon="13.927550835373243"><ele>185.0</ele><time>2026-05-02T08:06:53Z</time></trkpt><trkpt lat="42.24307426975724" lon="13.927642953119925"><ele>184.33333333333331</ele><time>2026-05-02T08:06:54Z</time></trkpt><trkpt lat="42.243143238502476" lon="13.927737772817524"><ele>183.66666666666666</ele><time>2026-05-02T08:06:55Z</time></trkpt><trkpt lat="42.243204262772515" lon="13.927827304443733"><ele>183.0</ele><time>2026-05-02T08:06:56Z</time></trkpt><trkpt lat="42.2432639853098" lon="13.927906033356747"><ele>182.33333333333334</ele><time>2026-05-02T08:06:57Z</time></trkpt><trkpt lat="42.24331900957679" lon="13.927977850663723"><ele>181.66666666666669</ele><time>2026-05-02T08:06:58Z</time></trkpt><trkpt lat="42.243377207735115" lon="13.928046358167474"><ele>181.0</ele><time>2026-05-02T08:06:59Z</time></trkpt><trkpt lat="42.243431142716524" lon="13.92810818618875"><ele>181.0</ele><time>2026-05-02T08:07:00Z</time></trkpt><trkpt lat="42.24348489554466" lon="13.928181442556207"><ele>181.0</ele><time>2026-05-02T08:07:01Z</time></trkpt><trkpt lat="42.24353396926751" lon="13.928253696889053"><ele>181.0</ele><time>2026-05-02T08:07:02Z</time></trkpt><trkpt lat="42.243582213208356" lon="13.928323405607566"><ele>181.0</ele><time>2026-05-02T08:07:03Z</time></trkpt><trkpt lat="42.24365976574553" lon="13.92835897319221"><ele>181.0</ele><time>2026-05-02T08:07:04Z</time></trkpt><trkpt lat="42.24373144703447" lon="13.928389878015448"><ele>181.0</ele><time>2026-05-02T08:07:05Z</time></trkpt><trkpt lat="42.24380449878217" lon="13.928399106213789"><ele>181.0</ele><time>2026-05-02T08:07:06Z</time></trkpt><trkpt lat="42.24388937637312" lon="13.92839988144985"><ele>181.0</ele><time>2026-05-02T08:07:07Z</time></trkpt><trkpt lat="42.24396312027178" lon="13.928378706417847"><ele>181.0</ele><time>2026-05-02T08:07:08Z</time></trkpt><trkpt lat="42.24403996920747" lon="13.92834846947507"><ele>181.0</ele><time>2026-05-02T08:07:09Z</time></trkpt><trkpt lat="42.24412125382597" lon="13.928317113673904"><ele>181.0</ele><time>2026-05-02T08:07:10Z</time></trkpt><trkpt lat="42.24419290010658" lon="13.928272786259301"><ele>181.0</ele><time>2026-05-02T08:07:11Z</time></trkpt><trkpt lat="42.244260443950395" lon="13.928229175006452"><ele>180.5</ele><time>2026-05-02T08:07:12Z</time></trkpt><trkpt lat="42.24430970672524" lon="13.92817328282966"><ele>180.0</ele><time>2026-05-02T08:07:13Z</time></trkpt><trkpt lat="42.244373529968385" lon="13.928060524902062"><ele>179.5</ele><time>2026-05-02T08:07:15Z</time></trkpt><trkpt lat="42.244415071059585" lon="13.927961922001533"><ele>179.0</ele><time>2026-05-02T08:07:16.999Z</time></trkpt><trkpt lat="42.24443850579447" lon="13.927855064507611"><ele>178.5</ele><time>2026-05-02T08:07:18.999Z</time></trkpt><trkpt lat="42.24445264718499" lon="13.927753170855354"><ele>178.0</ele><time>2026-05-02T08:07:20.999Z</time></trkpt><trkpt lat="42.244460677053134" lon="13.927647349483278"><ele>179.4</ele><time>2026-05-02T08:07:22.999Z</time></trkpt><trkpt lat="42.24446687075481" lon="13.92755520040883"><ele>180.8</ele><time>2026-05-02T08:07:24.999Z</time></trkpt><trkpt lat="42.24448129036642" lon="13.927438104036304"><ele>182.2</ele><time>2026-05-02T08:07:28.999Z</time></trkpt><trkpt lat="42.24451265613429" lon="13.927258960439236"><ele>183.6</ele><time>2026-05-02T08:07:30.999Z</time></trkpt><trkpt lat="42.244532598217305" lon="13.927165923627156"><ele>185.0</ele><time>2026-05-02T08:07:31.999Z</time></trkpt><trkpt lat="42.24455882301843" lon="13.927005187558768"><ele>185.0</ele><time>2026-05-02T08:07:33.999Z</time></trkpt><trkpt lat="42.24459471014051" lon="13.926842213690694"><ele>185.0</ele><time>2026-05-02T08:07:35.999Z</time></trkpt><trkpt lat="42.244626583056146" lon="13.926760733521894"><ele>185.0</ele><time>2026-05-02T08:07:36.999Z</time></trkpt><trkpt lat="42.24466995362557" lon="13.926689741711447"><ele>185.0</ele><time>2026-05-02T08:07:37.999Z</time></trkpt><trkpt lat="42.24472158001025" lon="13.926626419702854"><ele>185.0</ele><time>2026-05-02T08:07:38.999Z</time></trkpt><trkpt lat="42.24476990879722" lon="13.92656629990549"><ele>185.0</ele><time>2026-05-02T08:07:39.999Z</time></trkpt><trkpt lat="42.2448213231689" lon="13.926470387781684"><ele>184.99999999999997</ele><time>2026-05-02T08:07:41.999Z</time></trkpt><trkpt lat="42.244846601573705" lon="13.926382718078425"><ele>185.0</ele><time>2026-05-02T08:07:45.999Z</time></trkpt><trkpt lat="42.244802644399726" lon="13.92646940774413"><ele>185.0</ele><time>2026-05-02T08:10:12.999Z</time></trkpt><trkpt lat="42.244759193690555" lon="13.92653579401977"><ele>185.0</ele><time>2026-05-02T08:10:17.999Z</time></trkpt><trkpt lat="42.24471866086281" lon="13.926605229633816"><ele>185.0</ele><time>2026-05-02T08:10:23.999Z</time></trkpt><trkpt lat="42.24468011388776" lon="13.926674987572072"><ele>184.99999999999997</ele><time>2026-05-02T08:10:29.999Z</time></trkpt><trkpt lat="42.24463262909542" lon="13.926743015041154"><ele>185.0</ele><time>2026-05-02T08:10:37Z</time></trkpt><trkpt lat="42.24460929509843" lon="13.926823259192211"><ele>184.99999999999997</ele><time>2026-05-02T08:10:43Z</time></trkpt><trkpt lat="42.24456053912272" lon="13.9268906156137"><ele>185.0</ele><time>2026-05-02T08:10:49Z</time></trkpt><trkpt lat="42.244530994867425" lon="13.926966728313685"><ele>185.0</ele><time>2026-05-02T08:10:55Z</time></trkpt><trkpt lat="42.24452329075761" lon="13.92706087539298"><ele>185.0</ele><time>2026-05-02T08:11:01.999Z</time></trkpt><trkpt lat="42.24453337958136" lon="13.927148660138515"><ele>185.0</ele><time>2026-05-02T08:11:07.999Z</time></trkpt><trkpt lat="42.24452814885456" lon="13.927242286380235"><ele>184.99999999999997</ele><time>2026-05-02T08:11:12.999Z</time></trkpt><trkpt lat="42.24450837459292" lon="13.927335342047744"><ele>185.0</ele><time>2026-05-02T08:11:18.999Z</time></trkpt><trkpt lat="42.24451003979349" lon="13.927420901982039"><ele>184.99999999999997</ele><time>2026-05-02T08:11:24.999Z</time></trkpt><trkpt lat="42.24448071763711" lon="13.927503024455548"><ele>185.0</ele><time>2026-05-02T08:11:30.999Z</time></trkpt><trkpt lat="42.244463592911345" lon="13.927597467605432"><ele>185.0</ele><time>2026-05-02T08:11:36.999Z</time></trkpt><trkpt lat="42.24445474792511" lon="13.927686287942398"><ele>185.0</ele><time>2026-05-02T08:11:42.999Z</time></trkpt><trkpt lat="42.24447170316103" lon="13.927783560489488"><ele>185.0</ele><time>2026-05-02T08:11:48.999Z</time></trkpt><trkpt lat="42.24445939189903" lon="13.92788190961184"><ele>184.99999999999997</ele><time>2026-05-02T08:11:55.999Z</time></trkpt><trkpt lat="42.24444087302174" lon="13.92796482999855"><ele>185.0</ele><time>2026-05-02T08:12:00.999Z</time></trkpt><trkpt lat="42.244435682873075" lon="13.928059522642119"><ele>183.99999999999997</ele><time>2026-05-02T08:12:06.999Z</time></trkpt><trkpt lat="42.244422224683454" lon="13.928159105722997"><ele>183.0</ele><time>2026-05-02T08:12:16.999Z</time></trkpt><trkpt lat="42.24443196669123" lon="13.92824436450842"><ele>182.0</ele><time>2026-05-02T08:12:22.999Z</time></trkpt><trkpt lat="42.2444315866877" lon="13.928335133955823"><ele>181.0</ele><time>2026-05-02T08:12:27.999Z</time></trkpt><trkpt lat="42.24446254225876" lon="13.92841361619737"><ele>180.0</ele><time>2026-05-02T08:12:34Z</time></trkpt><trkpt lat="42.24449039054831" lon="13.928499002011478"><ele>178.99999999999997</ele><time>2026-05-02T08:12:41Z</time></trkpt><trkpt lat="42.244491200088284" lon="13.928585491771047"><ele>178.0</ele><time>2026-05-02T08:12:55Z</time></trkpt><trkpt lat="42.24451232592225" lon="13.928673006817165"><ele>177.60000000000002</ele><time>2026-05-02T08:13:02Z</time></trkpt><trkpt lat="42.24453466282069" lon="13.928754312086282"><ele>177.20000000000002</ele><time>2026-05-02T08:13:08Z</time></trkpt><trkpt lat="42.24455354419077" lon="13.928843662513131"><ele>176.8</ele><time>2026-05-02T08:13:14Z</time></trkpt><trkpt lat="42.24444244648029" lon="13.928923894976341"><ele>176.4</ele><time>2026-05-02T08:13:37.999Z</time></trkpt><trkpt lat="42.24456759902877" lon="13.928776510038231"><ele>176.0</ele><time>2026-05-02T08:13:51.817Z</time></trkpt><trkpt lat="42.24460116990763" lon="13.928868039510041"><ele>176.0</ele><time>2026-05-02T08:15:08.998Z</time></trkpt><trkpt lat="42.2445873480339" lon="13.92877616716515"><ele>176.0</ele><time>2026-05-02T08:20:34Z</time></trkpt><trkpt lat="42.2445383312042" lon="13.92870355660484"><ele>176.0</ele><time>2026-05-02T08:20:41Z</time></trkpt><trkpt lat="42.244506843353506" lon="13.928629294148257"><ele>176.0</ele><time>2026-05-02T08:20:49Z</time></trkpt><trkpt lat="42.24444392025157" lon="13.928585129879465"><ele>176.0</ele><time>2026-05-02T08:20:54.999Z</time></trkpt><trkpt lat="42.244418199682606" lon="13.928505861234273"><ele>176.0</ele><time>2026-05-02T08:21:02.999Z</time></trkpt><trkpt lat="42.24439120164337" lon="13.928403650099659"><ele>176.0</ele><time>2026-05-02T08:21:09.999Z</time></trkpt><trkpt lat="42.24440509426473" lon="13.928311428395963"><ele>176.28571428571428</ele><time>2026-05-02T08:21:14.999Z</time></trkpt><trkpt lat="42.24441486801496" lon="13.928207418128492"><ele>176.57142857142856</ele><time>2026-05-02T08:21:19.999Z</time></trkpt><trkpt lat="42.24441636982622" lon="13.928122214910442"><ele>176.85714285714283</ele><time>2026-05-02T08:21:25.999Z</time></trkpt><trkpt lat="42.24443453294516" lon="13.928039871257385"><ele>177.14285714285714</ele><time>2026-05-02T08:21:31.001Z</time></trkpt><trkpt lat="42.24443824800816" lon="13.927948387227838"><ele>177.42857142857142</ele><time>2026-05-02T08:21:37.001Z</time></trkpt><trkpt lat="42.24442106902889" lon="13.927848609357012"><ele>177.7142857142857</ele><time>2026-05-02T08:21:45.001Z</time></trkpt><trkpt lat="42.24443387977183" lon="13.927763141071788"><ele>178.0</ele><time>2026-05-02T08:21:51Z</time></trkpt><trkpt lat="42.24444948564617" lon="13.927671907257627"><ele>177.99999999999997</ele><time>2026-05-02T08:21:57Z</time></trkpt><trkpt lat="42.244466938728614" lon="13.927572727850652"><ele>178.0</ele><time>2026-05-02T08:22:04Z</time></trkpt><trkpt lat="42.244462676220714" lon="13.927484819635165"><ele>178.0</ele><time>2026-05-02T08:22:11Z</time></trkpt><trkpt lat="42.24447517931773" lon="13.927401272460987"><ele>178.0</ele><time>2026-05-02T08:22:18Z</time></trkpt><trkpt lat="42.244499399384274" lon="13.927309163264978"><ele>178.0</ele><time>2026-05-02T08:22:25Z</time></trkpt><trkpt lat="42.24451826006375" lon="13.92722202780503"><ele>177.99999999999997</ele><time>2026-05-02T08:22:32Z</time></trkpt><trkpt lat="42.24453694150649" lon="13.927126261284187"><ele>178.0</ele><time>2026-05-02T08:22:40Z</time></trkpt><trkpt lat="42.244554671144684" lon="13.927035297919861"><ele>178.99999999999997</ele><time>2026-05-02T08:22:46Z</time></trkpt><trkpt lat="42.244553971615574" lon="13.926949373619012"><ele>180.0</ele><time>2026-05-02T08:22:55.999Z</time></trkpt><trkpt lat="42.24457507474351" lon="13.926861738817166"><ele>181.0</ele><time>2026-05-02T08:23:03.999Z</time></trkpt><trkpt lat="42.24462629222151" lon="13.926793579452069"><ele>182.0</ele><time>2026-05-02T08:23:09.999Z</time></trkpt><trkpt lat="42.244677438278764" lon="13.92672080487067"><ele>183.0</ele><time>2026-05-02T08:23:18.999Z</time></trkpt><trkpt lat="42.24470113225361" lon="13.926629422028029"><ele>183.99999999999997</ele><time>2026-05-02T08:23:24.999Z</time></trkpt><trkpt lat="42.24471402693738" lon="13.926528675110164"><ele>185.0</ele><time>2026-05-02T08:23:29.999Z</time></trkpt><trkpt lat="42.2447384763894" lon="13.926443593843501"><ele>186.33333333333331</ele><time>2026-05-02T08:23:36.001Z</time></trkpt><trkpt lat="42.24480580317807" lon="13.92642287686735"><ele>187.66666666666666</ele><time>2026-05-02T08:23:41.001Z</time></trkpt><trkpt lat="42.2448338934961" lon="13.926344337074836"><ele>189.0</ele><time>2026-05-02T08:23:48.001Z</time></trkpt><trkpt lat="42.24482223618013" lon="13.92644520290796"><ele>190.33333333333331</ele><time>2026-05-02T08:27:22.999Z</time></trkpt><trkpt lat="42.24475664293504" lon="13.92645772724702"><ele>191.66666666666666</ele><time>2026-05-02T08:27:32.999Z</time></trkpt><trkpt lat="42.24471360243103" lon="13.926550069137582"><ele>193.0</ele><time>2026-05-02T08:27:34.999Z</time></trkpt><trkpt lat="42.244664302338" lon="13.926680074575108"><ele>191.66666666666666</ele><time>2026-05-02T08:27:36.999Z</time></trkpt><trkpt lat="42.24463489252893" lon="13.926760249688877"><ele>190.33333333333331</ele><time>2026-05-02T08:27:37.999Z</time></trkpt><trkpt lat="42.24461025041162" lon="13.926842801822662"><ele>189.0</ele><time>2026-05-02T08:27:38.999Z</time></trkpt><trkpt lat="42.24454272940391" lon="13.926927611599536"><ele>187.66666666666666</ele><time>2026-05-02T08:27:40.999Z</time></trkpt><trkpt lat="42.24454588671351" lon="13.927018011238783"><ele>186.33333333333331</ele><time>2026-05-02T08:27:42.999Z</time></trkpt><trkpt lat="42.2446986223248" lon="13.927008046132462"><ele>185.0</ele><time>2026-05-02T08:27:44.999Z</time></trkpt><trkpt lat="42.244765054201615" lon="13.926972614053366"><ele>182.0</ele><time>2026-05-02T08:27:45.999Z</time></trkpt><trkpt lat="42.24484081642334" lon="13.926947398571285"><ele>179.0</ele><time>2026-05-02T08:27:46.999Z</time></trkpt><trkpt lat="42.24491319742747" lon="13.926928956721524"><ele>176.0</ele><time>2026-05-02T08:27:48Z</time></trkpt><trkpt lat="42.24501915512165" lon="13.926905299035626"><ele>173.0</ele><time>2026-05-02T08:27:50Z</time></trkpt><trkpt lat="42.24511872594011" lon="13.926896053230195"><ele>170.0</ele><time>2026-05-02T08:27:52Z</time></trkpt><trkpt lat="42.2451997191912" lon="13.926883178118445"><ele>167.0</ele><time>2026-05-02T08:27:53Z</time></trkpt><trkpt lat="42.245283517377416" lon="13.926863214411012"><ele>167.0</ele><time>2026-05-02T08:27:54Z</time></trkpt><trkpt lat="42.24535877601753" lon="13.926865863435028"><ele>167.0</ele><time>2026-05-02T08:27:55Z</time></trkpt><trkpt lat="42.245421834394406" lon="13.92686374074497"><ele>167.0</ele><time>2026-05-02T08:27:56Z</time></trkpt><trkpt lat="42.24555071195429" lon="13.926852416424186"><ele>167.0</ele><time>2026-05-02T08:27:58Z</time></trkpt><trkpt lat="42.245620438731926" lon="13.926848819002846"><ele>167.0</ele><time>2026-05-02T08:27:59Z</time></trkpt><trkpt lat="42.24569220062702" lon="13.926843808710585"><ele>167.0</ele><time>2026-05-02T08:28:00Z</time></trkpt><trkpt lat="42.24576260011677" lon="13.926839167903758"><ele>166.0</ele><time>2026-05-02T08:28:01Z</time></trkpt><trkpt lat="42.24582948735903" lon="13.926834061631494"><ele>165.0</ele><time>2026-05-02T08:28:02Z</time></trkpt><trkpt lat="42.2458925003891" lon="13.926831153199526"><ele>164.0</ele><time>2026-05-02T08:28:03Z</time></trkpt><trkpt lat="42.245955575734335" lon="13.926827825156348"><ele>163.0</ele><time>2026-05-02T08:28:04Z</time></trkpt><trkpt lat="42.24602038637262" lon="13.926833555588182"><ele>162.0</ele><time>2026-05-02T08:28:05Z</time></trkpt><trkpt lat="42.24612131006574" lon="13.92686970474998"><ele>161.0</ele><time>2026-05-02T08:28:07Z</time></trkpt><trkpt lat="42.24618227586829" lon="13.926730329507604"><ele>160.8</ele><time>2026-05-02T08:28:09Z</time></trkpt><trkpt lat="42.24621395451345" lon="13.926638287398731"><ele>160.60000000000002</ele><time>2026-05-02T08:28:11Z</time></trkpt><trkpt lat="42.24612140529615" lon="13.92652242860556"><ele>160.4</ele><time>2026-05-02T08:28:13Z</time></trkpt><trkpt lat="42.24600930017211" lon="13.926569366291353"><ele>160.2</ele><time>2026-05-02T08:28:14Z</time></trkpt><trkpt lat="42.245938017330815" lon="13.926568514785336"><ele>160.0</ele><time>2026-05-02T08:28:15Z</time></trkpt><trkpt lat="42.245868979348785" lon="13.926567420526041"><ele>160.0</ele><time>2026-05-02T08:28:16Z</time></trkpt><trkpt lat="42.24579988267313" lon="13.926559972388374"><ele>160.0</ele><time>2026-05-02T08:28:17Z</time></trkpt><trkpt lat="42.24568947996246" lon="13.926521170377505"><ele>160.0</ele><time>2026-05-02T08:28:19Z</time></trkpt><trkpt lat="42.2456391504316" lon="13.926361887808351"><ele>160.0</ele><time>2026-05-02T08:28:21Z</time></trkpt><trkpt lat="42.245654355809464" lon="13.926268210318561"><ele>160.0</ele><time>2026-05-02T08:28:22Z</time></trkpt><trkpt lat="42.24563346364978" lon="13.926165490890586"><ele>160.0</ele><time>2026-05-02T08:28:23Z</time></trkpt><trkpt lat="42.24563885337779" lon="13.926054578590197"><ele>160.0</ele><time>2026-05-02T08:28:24Z</time></trkpt><trkpt lat="42.24562854015486" lon="13.925947563927028"><ele>160.0</ele><time>2026-05-02T08:28:25Z</time></trkpt><trkpt lat="42.24561682308562" lon="13.925846203976493"><ele>160.0</ele><time>2026-05-02T08:28:26Z</time></trkpt><trkpt lat="42.24560891687701" lon="13.92573893814344"><ele>160.0</ele><time>2026-05-02T08:28:27Z</time></trkpt><trkpt lat="42.245603927130276" lon="13.925624624011991"><ele>160.0</ele><time>2026-05-02T08:28:28Z</time></trkpt><trkpt lat="42.245600940676795" lon="13.92549094393429"><ele>160.66666666666669</ele><time>2026-05-02T08:28:29Z</time></trkpt><trkpt lat="42.24560085749015" lon="13.925369756675222"><ele>161.33333333333334</ele><time>2026-05-02T08:28:30Z</time></trkpt><trkpt lat="42.24560101227028" lon="13.925255235150503"><ele>162.0</ele><time>2026-05-02T08:28:31Z</time></trkpt><trkpt lat="42.24561402985572" lon="13.925143125359774"><ele>162.66666666666666</ele><time>2026-05-02T08:28:32Z</time></trkpt><trkpt lat="42.24563412459652" lon="13.925014918710357"><ele>163.33333333333331</ele><time>2026-05-02T08:28:33Z</time></trkpt><trkpt lat="42.24565642816467" lon="13.924918725737603"><ele>164.0</ele><time>2026-05-02T08:28:34Z</time></trkpt><trkpt lat="42.2456789782095" lon="13.924822037612442"><ele>164.0</ele><time>2026-05-02T08:28:35Z</time></trkpt><trkpt lat="42.2456997243044" lon="13.92472951375158"><ele>164.0</ele><time>2026-05-02T08:28:36Z</time></trkpt><trkpt lat="42.24571884211901" lon="13.924634022415118"><ele>164.0</ele><time>2026-05-02T08:28:37Z</time></trkpt><trkpt lat="42.24574851280189" lon="13.924529778293325"><ele>164.0</ele><time>2026-05-02T08:28:38Z</time></trkpt><trkpt lat="42.24578001120087" lon="13.924442477298417"><ele>164.0</ele><time>2026-05-02T08:28:39Z</time></trkpt><trkpt lat="42.245817979927615" lon="13.924361222298272"><ele>164.0</ele><time>2026-05-02T08:28:40Z</time></trkpt><trkpt lat="42.24587356055394" lon="13.92428323754493"><ele>164.0</ele><time>2026-05-02T08:28:41Z</time></trkpt><trkpt lat="42.245938365004754" lon="13.924204558097"><ele>164.0</ele><time>2026-05-02T08:28:42Z</time></trkpt><trkpt lat="42.246017581263224" lon="13.9241343681105"><ele>164.0</ele><time>2026-05-02T08:28:43Z</time></trkpt><trkpt lat="42.246074456216796" lon="13.924018009610682"><ele>164.0</ele><time>2026-05-02T08:28:44Z</time></trkpt><trkpt lat="42.2461165882748" lon="13.923911549964558"><ele>164.0</ele><time>2026-05-02T08:28:45Z</time></trkpt><trkpt lat="42.246148508025975" lon="13.923816386520079"><ele>164.0</ele><time>2026-05-02T08:28:46Z</time></trkpt><trkpt lat="42.246169489995566" lon="13.923696999105758"><ele>164.0</ele><time>2026-05-02T08:28:47Z</time></trkpt><trkpt lat="42.24617249099023" lon="13.923562766999863"><ele>164.0</ele><time>2026-05-02T08:28:48Z</time></trkpt><trkpt lat="42.246171088110984" lon="13.923425968831332"><ele>164.0</ele><time>2026-05-02T08:28:49Z</time></trkpt><trkpt lat="42.24616925451937" lon="13.923290647213305"><ele>164.0</ele><time>2026-05-02T08:28:50Z</time></trkpt><trkpt lat="42.24616925451953" lon="13.923162766440498"><ele>164.39999999999998</ele><time>2026-05-02T08:28:51Z</time></trkpt><trkpt lat="42.246166986425486" lon="13.923027391749988"><ele>164.8</ele><time>2026-05-02T08:28:52Z</time></trkpt><trkpt lat="42.246161980617224" lon="13.9228866974925"><ele>165.2</ele><time>2026-05-02T08:28:53Z</time></trkpt><trkpt lat="42.24613484120035" lon="13.922737591161784"><ele>165.60000000000002</ele><time>2026-05-02T08:28:54Z</time></trkpt><trkpt lat="42.24613068345612" lon="13.922589532333065"><ele>166.0</ele><time>2026-05-02T08:28:55Z</time></trkpt><trkpt lat="42.24612183862531" lon="13.922444480116916"><ele>166.20000000000002</ele><time>2026-05-02T08:28:55.999Z</time></trkpt><trkpt lat="42.24612138051191" lon="13.922294152700223"><ele>166.4</ele><time>2026-05-02T08:28:56.999Z</time></trkpt><trkpt lat="42.24612181937553" lon="13.922131721918618"><ele>166.6</ele><time>2026-05-02T08:28:57.999Z</time></trkpt><trkpt lat="42.246121493303214" lon="13.92199616529587"><ele>166.8</ele><time>2026-05-02T08:28:58.999Z</time></trkpt><trkpt lat="42.24610254696316" lon="13.921872658120794"><ele>167.0</ele><time>2026-05-02T08:28:59.999Z</time></trkpt><trkpt lat="42.24606847992661" lon="13.92175716679047"><ele>167.39999999999998</ele><time>2026-05-02T08:29:00.999Z</time></trkpt><trkpt lat="42.24602444540798" lon="13.921646452913604"><ele>167.79999999999998</ele><time>2026-05-02T08:29:01.999Z</time></trkpt><trkpt lat="42.245985468601084" lon="13.921516102864246"><ele>168.2</ele><time>2026-05-02T08:29:02.999Z</time></trkpt><trkpt lat="42.245947269355206" lon="13.921376520480704"><ele>168.6</ele><time>2026-05-02T08:29:03.999Z</time></trkpt><trkpt lat="42.24593622165349" lon="13.921234554417607"><ele>169.0</ele><time>2026-05-02T08:29:04.999Z</time></trkpt><trkpt lat="42.24590879493912" lon="13.92109551489902"><ele>169.0</ele><time>2026-05-02T08:29:05.999Z</time></trkpt><trkpt lat="42.245860224200385" lon="13.92098097591203"><ele>169.0</ele><time>2026-05-02T08:29:06.999Z</time></trkpt><trkpt lat="42.24582234967602" lon="13.920858272286127"><ele>169.0</ele><time>2026-05-02T08:29:07.999Z</time></trkpt><trkpt lat="42.24576784252457" lon="13.920733155796688"><ele>169.0</ele><time>2026-05-02T08:29:08.999Z</time></trkpt><trkpt lat="42.24571102307117" lon="13.920630447286038"><ele>169.0</ele><time>2026-05-02T08:29:09.999Z</time></trkpt><trkpt lat="42.24564136166864" lon="13.920524162011302"><ele>170.33333333333334</ele><time>2026-05-02T08:29:10.999Z</time></trkpt><trkpt lat="42.24558202181266" lon="13.920421711321788"><ele>171.66666666666669</ele><time>2026-05-02T08:29:11.999Z</time></trkpt><trkpt lat="42.24554739819093" lon="13.92031222538138"><ele>173.0</ele><time>2026-05-02T08:29:12.999Z</time></trkpt><trkpt lat="42.24551954521355" lon="13.92021004244744"><ele>174.33333333333334</ele><time>2026-05-02T08:29:13.999Z</time></trkpt><trkpt lat="42.24551139525204" lon="13.920093883065894"><ele>175.66666666666666</ele><time>2026-05-02T08:29:14.999Z</time></trkpt><trkpt lat="42.2455044393917" lon="13.919980972522412"><ele>177.0</ele><time>2026-05-02T08:29:15.999Z</time></trkpt><trkpt lat="42.24549322031812" lon="13.91987227801985"><ele>177.0</ele><time>2026-05-02T08:29:16.999Z</time></trkpt><trkpt lat="42.24546194627734" lon="13.919758944484347"><ele>177.0</ele><time>2026-05-02T08:29:17.999Z</time></trkpt><trkpt lat="42.24538264885232" lon="13.919681212565964"><ele>177.0</ele><time>2026-05-02T08:29:18.999Z</time></trkpt><trkpt lat="42.24533563244099" lon="13.919597840503132"><ele>177.0</ele><time>2026-05-02T08:29:19.999Z</time></trkpt><trkpt lat="42.24530064710716" lon="13.9194996567946"><ele>177.0</ele><time>2026-05-02T08:29:20.999Z</time></trkpt><trkpt lat="42.24529718347035" lon="13.919374790556189"><ele>177.0</ele><time>2026-05-02T08:29:21.999Z</time></trkpt><trkpt lat="42.245268319835034" lon="13.919265778857238"><ele>176.6</ele><time>2026-05-02T08:29:22.999Z</time></trkpt><trkpt lat="42.24524379896788" lon="13.919168466484962"><ele>176.2</ele><time>2026-05-02T08:29:23.999Z</time></trkpt><trkpt lat="42.24525002108266" lon="13.919048019998517"><ele>175.8</ele><time>2026-05-02T08:29:24.999Z</time></trkpt><trkpt lat="42.24526905217426" lon="13.918927264943054"><ele>175.4</ele><time>2026-05-02T08:29:25.999Z</time></trkpt><trkpt lat="42.245286194376746" lon="13.91879637198255"><ele>175.0</ele><time>2026-05-02T08:29:26.999Z</time></trkpt><trkpt lat="42.24530470475375" lon="13.918664200625257"><ele>175.0</ele><time>2026-05-02T08:29:27.999Z</time></trkpt><trkpt lat="42.245326335076776" lon="13.918550876000245"><ele>175.0</ele><time>2026-05-02T08:29:28.999Z</time></trkpt><trkpt lat="42.24535873998354" lon="13.918429842339501"><ele>175.0</ele><time>2026-05-02T08:29:29.999Z</time></trkpt><trkpt lat="42.245383235554144" lon="13.918304029500742"><ele>175.0</ele><time>2026-05-02T08:29:30.999Z</time></trkpt><trkpt lat="42.245411896400675" lon="13.918184560011065"><ele>175.0</ele><time>2026-05-02T08:29:31.999Z</time></trkpt><trkpt lat="42.24543387568331" lon="13.918068571234176"><ele>174.8</ele><time>2026-05-02T08:29:32.999Z</time></trkpt><trkpt lat="42.24544869195555" lon="13.91795922193073"><ele>174.6</ele><time>2026-05-02T08:29:33.999Z</time></trkpt><trkpt lat="42.24545826787813" lon="13.917840736712657"><ele>174.39999999999998</ele><time>2026-05-02T08:29:34.999Z</time></trkpt><trkpt lat="42.245445709460796" lon="13.91771990963173"><ele>174.2</ele><time>2026-05-02T08:29:35.999Z</time></trkpt><trkpt lat="42.24542139709164" lon="13.9175943389894"><ele>174.0</ele><time>2026-05-02T08:29:36.999Z</time></trkpt><trkpt lat="42.24537670708671" lon="13.917475965463403"><ele>174.0</ele><time>2026-05-02T08:29:37.999Z</time></trkpt><trkpt lat="42.24531883056204" lon="13.917377702922042"><ele>174.0</ele><time>2026-05-02T08:29:38.999Z</time></trkpt><trkpt lat="42.24525493078138" lon="13.917280938410654"><ele>174.0</ele><time>2026-05-02T08:29:39.999Z</time></trkpt><trkpt lat="42.24518858900786" lon="13.917184564766188"><ele>174.0</ele><time>2026-05-02T08:29:40.999Z</time></trkpt><trkpt lat="42.245114128916185" lon="13.9171033232083"><ele>174.0</ele><time>2026-05-02T08:29:41.999Z</time></trkpt><trkpt lat="42.24504484799176" lon="13.917005578140767"><ele>174.0</ele><time>2026-05-02T08:29:42.999Z</time></trkpt><trkpt lat="42.24500352124778" lon="13.916900373983458"><ele>174.0</ele><time>2026-05-02T08:29:43.999Z</time></trkpt><trkpt lat="42.24494558890937" lon="13.916821911487776"><ele>174.0</ele><time>2026-05-02T08:29:44.999Z</time></trkpt><trkpt lat="42.2449002332288" lon="13.916711105259468"><ele>174.0</ele><time>2026-05-02T08:29:45.999Z</time></trkpt><trkpt lat="42.24485697730018" lon="13.916592824603262"><ele>174.0</ele><time>2026-05-02T08:29:46.999Z</time></trkpt><trkpt lat="42.24481783274585" lon="13.916485376229323"><ele>175.0</ele><time>2026-05-02T08:29:47.999Z</time></trkpt><trkpt lat="42.24478213440558" lon="13.91639675059739"><ele>176.0</ele><time>2026-05-02T08:29:48.999Z</time></trkpt><trkpt lat="42.24470535565248" lon="13.916323526845543"><ele>177.0</ele><time>2026-05-02T08:29:49.999Z</time></trkpt><trkpt lat="42.24459934894963" lon="13.916343595221305"><ele>178.0</ele><time>2026-05-02T08:29:50.999Z</time></trkpt><trkpt lat="42.24451195839344" lon="13.916328844370886"><ele>179.0</ele><time>2026-05-02T08:29:51.999Z</time></trkpt><trkpt lat="42.244429027734704" lon="13.916289102256913"><ele>179.0</ele><time>2026-05-02T08:29:52.999Z</time></trkpt><trkpt lat="42.24437154394661" lon="13.916248768604106"><ele>179.0</ele><time>2026-05-02T08:29:54Z</time></trkpt><trkpt lat="42.24432312933678" lon="13.91619109193707"><ele>179.0</ele><time>2026-05-02T08:29:55Z</time></trkpt><trkpt lat="42.24428605109098" lon="13.916104523409855"><ele>179.0</ele><time>2026-05-02T08:29:56Z</time></trkpt><trkpt lat="42.24426074597658" lon="13.915997018798501"><ele>179.0</ele><time>2026-05-02T08:29:57Z</time></trkpt><trkpt lat="42.24424415703749" lon="13.9158813196052"><ele>179.0</ele><time>2026-05-02T08:29:58Z</time></trkpt><trkpt lat="42.24422491645684" lon="13.915759187997246"><ele>179.2</ele><time>2026-05-02T08:29:59Z</time></trkpt><trkpt lat="42.244189551296245" lon="13.915630573067975"><ele>179.39999999999998</ele><time>2026-05-02T08:30:00Z</time></trkpt><trkpt lat="42.24413335198221" lon="13.91550935016597"><ele>179.6</ele><time>2026-05-02T08:30:01Z</time></trkpt><trkpt lat="42.2440735947118" lon="13.91539854680058"><ele>179.8</ele><time>2026-05-02T08:30:02Z</time></trkpt><trkpt lat="42.24403947910929" lon="13.91528787936541"><ele>180.0</ele><time>2026-05-02T08:30:03Z</time></trkpt><trkpt lat="42.243981656505184" lon="13.915195712197585"><ele>180.6</ele><time>2026-05-02T08:30:04Z</time></trkpt><trkpt lat="42.24386493215665" lon="13.915141668925097"><ele>181.2</ele><time>2026-05-02T08:30:05Z</time></trkpt><trkpt lat="42.243785253380665" lon="13.915085203571023"><ele>181.8</ele><time>2026-05-02T08:30:06Z</time></trkpt><trkpt lat="42.2436989209382" lon="13.915031086303651"><ele>182.4</ele><time>2026-05-02T08:30:07Z</time></trkpt><trkpt lat="42.243624122668315" lon="13.914956456372215"><ele>183.0</ele><time>2026-05-02T08:30:08Z</time></trkpt><trkpt lat="42.243559005342185" lon="13.914887563090367"><ele>183.5</ele><time>2026-05-02T08:30:09Z</time></trkpt><trkpt lat="42.24353116552703" lon="13.91478219986854"><ele>184.0</ele><time>2026-05-02T08:30:10Z</time></trkpt><trkpt lat="42.243474686655794" lon="13.914705709920629"><ele>184.5</ele><time>2026-05-02T08:30:11Z</time></trkpt><trkpt lat="42.24340266770755" lon="13.914643670719869"><ele>185.0</ele><time>2026-05-02T08:30:12Z</time></trkpt><trkpt lat="42.24334145777775" lon="13.914576324559386"><ele>185.5</ele><time>2026-05-02T08:30:13Z</time></trkpt><trkpt lat="42.24329014044287" lon="13.91450814578021"><ele>186.0</ele><time>2026-05-02T08:30:15Z</time></trkpt><trkpt lat="42.24327861321111" lon="13.914350217313062"><ele>186.0</ele><time>2026-05-02T08:30:17Z</time></trkpt><trkpt lat="42.243257709425365" lon="13.914259221682565"><ele>186.0</ele><time>2026-05-02T08:30:18Z</time></trkpt><trkpt lat="42.24324923090786" lon="13.914161704346485"><ele>186.0</ele><time>2026-05-02T08:30:19Z</time></trkpt><trkpt lat="42.24322666766177" lon="13.914052023677769"><ele>186.0</ele><time>2026-05-02T08:30:20Z</time></trkpt><trkpt lat="42.24321016147644" lon="13.913925555764356"><ele>186.0</ele><time>2026-05-02T08:30:21Z</time></trkpt><trkpt lat="42.24319764818713" lon="13.913783705187267"><ele>186.0</ele><time>2026-05-02T08:30:22Z</time></trkpt><trkpt lat="42.24319366758315" lon="13.913646420908096"><ele>186.83333333333334</ele><time>2026-05-02T08:30:23Z</time></trkpt><trkpt lat="42.24318208268498" lon="13.913534095025168"><ele>187.66666666666666</ele><time>2026-05-02T08:30:24Z</time></trkpt><trkpt lat="42.24315779354184" lon="13.913425713054455"><ele>188.5</ele><time>2026-05-02T08:30:25Z</time></trkpt><trkpt lat="42.24313281844344" lon="13.913318261059464"><ele>189.33333333333331</ele><time>2026-05-02T08:30:26Z</time></trkpt><trkpt lat="42.243106282528245" lon="13.913207456803137"><ele>190.16666666666666</ele><time>2026-05-02T08:30:27Z</time></trkpt><trkpt lat="42.24306424037991" lon="13.913091204548858"><ele>191.0</ele><time>2026-05-02T08:30:28Z</time></trkpt><trkpt lat="42.243007459538134" lon="13.912995021352877"><ele>191.0</ele><time>2026-05-02T08:30:29Z</time></trkpt><trkpt lat="42.242943982109736" lon="13.912901625599211"><ele>191.0</ele><time>2026-05-02T08:30:30Z</time></trkpt><trkpt lat="42.24288284055392" lon="13.912810111555254"><ele>191.0</ele><time>2026-05-02T08:30:31Z</time></trkpt><trkpt lat="42.242829555446825" lon="13.912713410821597"><ele>191.0</ele><time>2026-05-02T08:30:32Z</time></trkpt><trkpt lat="42.24278656681456" lon="13.912599896280959"><ele>191.0</ele><time>2026-05-02T08:30:33Z</time></trkpt><trkpt lat="42.2427590407548" lon="13.912492200882777"><ele>191.20000000000002</ele><time>2026-05-02T08:30:34Z</time></trkpt><trkpt lat="42.242726396713906" lon="13.912360682236177"><ele>191.4</ele><time>2026-05-02T08:30:35Z</time></trkpt><trkpt lat="42.24268544629724" lon="13.9122660091816"><ele>191.6</ele><time>2026-05-02T08:30:36Z</time></trkpt><trkpt lat="42.242627962103235" lon="13.91216201012491"><ele>191.8</ele><time>2026-05-02T08:30:38Z</time></trkpt><trkpt lat="42.242591275312506" lon="13.912065271735237"><ele>192.0</ele><time>2026-05-02T08:30:41Z</time></trkpt><trkpt lat="42.24246084212967" lon="13.912117913508704"><ele>192.0</ele><time>2026-05-02T08:30:43Z</time></trkpt><trkpt lat="42.24239643907035" lon="13.912193708550447"><ele>192.0</ele><time>2026-05-02T08:30:44Z</time></trkpt><trkpt lat="42.242328494971" lon="13.91227485137871"><ele>192.0</ele><time>2026-05-02T08:30:45Z</time></trkpt><trkpt lat="42.242260618259785" lon="13.912357632410654"><ele>192.0</ele><time>2026-05-02T08:30:46Z</time></trkpt><trkpt lat="42.24219229981825" lon="13.912438860411783"><ele>192.0</ele><time>2026-05-02T08:30:46.999Z</time></trkpt><trkpt lat="42.2421240374977" lon="13.912541018746929"><ele>194.8</ele><time>2026-05-02T08:30:47.999Z</time></trkpt><trkpt lat="42.24209664469408" lon="13.912675599647285"><ele>197.6</ele><time>2026-05-02T08:30:48.999Z</time></trkpt><trkpt lat="42.242077961753715" lon="13.912799266931925"><ele>200.4</ele><time>2026-05-02T08:30:49.999Z</time></trkpt><trkpt lat="42.242036846310455" lon="13.912936393369502"><ele>203.20000000000002</ele><time>2026-05-02T08:30:50.999Z</time></trkpt><trkpt lat="42.242011372686235" lon="13.913080476018406"><ele>206.0</ele><time>2026-05-02T08:30:51.999Z</time></trkpt><trkpt lat="42.2419878354698" lon="13.913213097430281"><ele>206.0</ele><time>2026-05-02T08:30:52.999Z</time></trkpt><trkpt lat="42.241962386989904" lon="13.913356487440145"><ele>206.0</ele><time>2026-05-02T08:30:53.999Z</time></trkpt><trkpt lat="42.241937926335446" lon="13.91349831249119"><ele>206.0</ele><time>2026-05-02T08:30:54.999Z</time></trkpt><trkpt lat="42.24192866431904" lon="13.913643917284483"><ele>206.0</ele><time>2026-05-02T08:30:55.999Z</time></trkpt><trkpt lat="42.24189953818496" lon="13.913783852811381"><ele>206.0</ele><time>2026-05-02T08:30:56.999Z</time></trkpt><trkpt lat="42.2418934804386" lon="13.913932166621812"><ele>205.66666666666669</ele><time>2026-05-02T08:30:57.999Z</time></trkpt><trkpt lat="42.24188574244728" lon="13.91406732801016"><ele>205.33333333333334</ele><time>2026-05-02T08:30:58.999Z</time></trkpt><trkpt lat="42.24190170626226" lon="13.914196283892988"><ele>205.0</ele><time>2026-05-02T08:30:59.999Z</time></trkpt><trkpt lat="42.24189014556787" lon="13.914311182096588"><ele>204.66666666666669</ele><time>2026-05-02T08:31:00.999Z</time></trkpt><trkpt lat="42.24189014555727" lon="13.914413287170476"><ele>204.33333333333334</ele><time>2026-05-02T08:31:01.999Z</time></trkpt><trkpt lat="42.24189014555726" lon="13.914505150676941"><ele>204.0</ele><time>2026-05-02T08:31:02.999Z</time></trkpt><trkpt lat="42.24185277803057" lon="13.914590441897255"><ele>203.66666666666666</ele><time>2026-05-02T08:31:03.999Z</time></trkpt><trkpt lat="42.241800323116394" lon="13.914670793801456"><ele>203.33333333333331</ele><time>2026-05-02T08:31:04.999Z</time></trkpt><trkpt lat="42.241746443365656" lon="13.91475797963987"><ele>203.0</ele><time>2026-05-02T08:31:05.999Z</time></trkpt><trkpt lat="42.241695304877425" lon="13.914825263959766"><ele>202.66666666666666</ele><time>2026-05-02T08:31:06.999Z</time></trkpt><trkpt lat="42.241609954215576" lon="13.914888949839854"><ele>202.33333333333331</ele><time>2026-05-02T08:31:08.999Z</time></trkpt><trkpt lat="42.24153050140021" lon="13.914789713019983"><ele>202.0</ele><time>2026-05-02T08:31:10.999Z</time></trkpt><trkpt lat="42.24149473914695" lon="13.914693430227322"><ele>203.99999999999997</ele><time>2026-05-02T08:31:11.999Z</time></trkpt><trkpt lat="42.24143184831577" lon="13.914599552710822"><ele>206.0</ele><time>2026-05-02T08:31:12.999Z</time></trkpt><trkpt lat="42.241374143036786" lon="13.914502210640638"><ele>208.0</ele><time>2026-05-02T08:31:13.999Z</time></trkpt><trkpt lat="42.24131184315826" lon="13.914441191846969"><ele>210.0</ele><time>2026-05-02T08:31:14.999Z</time></trkpt><trkpt lat="42.241259387635175" lon="13.914381788658746"><ele>211.99999999999997</ele><time>2026-05-02T08:31:15.999Z</time></trkpt><trkpt lat="42.241208411616284" lon="13.914316493219742"><ele>214.0</ele><time>2026-05-02T08:31:16.999Z</time></trkpt><trkpt lat="42.24119279485406" lon="13.914215899401821"><ele>214.79999999999998</ele><time>2026-05-02T08:31:17.999Z</time></trkpt><trkpt lat="42.24115112536361" lon="13.914103985076633"><ele>215.59999999999997</ele><time>2026-05-02T08:31:18.999Z</time></trkpt><trkpt lat="42.241111364659695" lon="13.91398023242924"><ele>216.4</ele><time>2026-05-02T08:31:19.999Z</time></trkpt><trkpt lat="42.24107081873284" lon="13.913861646922863"><ele>217.2</ele><time>2026-05-02T08:31:20.999Z</time></trkpt><trkpt lat="42.24104389383444" lon="13.913739989653715"><ele>218.0</ele><time>2026-05-02T08:31:21.999Z</time></trkpt><trkpt lat="42.24101901346395" lon="13.913628961221756"><ele>218.0</ele><time>2026-05-02T08:31:22.999Z</time></trkpt><trkpt lat="42.24100317531393" lon="13.913512305174867"><ele>218.0</ele><time>2026-05-02T08:31:23.999Z</time></trkpt><trkpt lat="42.240954474055165" lon="13.91341075601428"><ele>218.0</ele><time>2026-05-02T08:31:24.999Z</time></trkpt><trkpt lat="42.240909731501006" lon="13.913308629921074"><ele>218.0</ele><time>2026-05-02T08:31:25.999Z</time></trkpt><trkpt lat="42.240855284069085" lon="13.913211374314903"><ele>218.0</ele><time>2026-05-02T08:31:26.999Z</time></trkpt><trkpt lat="42.24079359671952" lon="13.913113215907865"><ele>219.60000000000002</ele><time>2026-05-02T08:31:27.999Z</time></trkpt><trkpt lat="42.240725913243786" lon="13.913012085838428"><ele>221.20000000000002</ele><time>2026-05-02T08:31:28.999Z</time></trkpt><trkpt lat="42.240668354177245" lon="13.91290424957989"><ele>222.8</ele><time>2026-05-02T08:31:29.999Z</time></trkpt><trkpt lat="42.24060558759944" lon="13.912799166360807"><ele>224.4</ele><time>2026-05-02T08:31:30.999Z</time></trkpt><trkpt lat="42.24054012763214" lon="13.91269739531049"><ele>226.0</ele><time>2026-05-02T08:31:31.999Z</time></trkpt><trkpt lat="42.24046576100777" lon="13.912611895830741"><ele>228.4</ele><time>2026-05-02T08:31:32.999Z</time></trkpt><trkpt lat="42.24038258125659" lon="13.91253373015829"><ele>230.8</ele><time>2026-05-02T08:31:33.999Z</time></trkpt><trkpt lat="42.24030529818554" lon="13.912447476810632"><ele>233.20000000000002</ele><time>2026-05-02T08:31:34.999Z</time></trkpt><trkpt lat="42.240223380719485" lon="13.91233972108286"><ele>235.60000000000002</ele><time>2026-05-02T08:31:35.999Z</time></trkpt><trkpt lat="42.240145232730704" lon="13.91221900785284"><ele>238.0</ele><time>2026-05-02T08:31:36.999Z</time></trkpt><trkpt lat="42.240071154615435" lon="13.912111935347452"><ele>238.0</ele><time>2026-05-02T08:31:37.999Z</time></trkpt><trkpt lat="42.24001038692763" lon="13.912023120144926"><ele>238.0</ele><time>2026-05-02T08:31:38.999Z</time></trkpt><trkpt lat="42.2399544413335" lon="13.91194676265116"><ele>238.0</ele><time>2026-05-02T08:31:39.999Z</time></trkpt><trkpt lat="42.23990582730634" lon="13.911884621282457"><ele>238.0</ele><time>2026-05-02T08:31:40.999Z</time></trkpt><trkpt lat="42.2398253341321" lon="13.911736574870238"><ele>238.0</ele><time>2026-05-02T08:31:42.999Z</time></trkpt><trkpt lat="42.23979379846685" lon="13.911627394959414"><ele>240.2</ele><time>2026-05-02T08:31:43.999Z</time></trkpt><trkpt lat="42.23976316829611" lon="13.911524078469471"><ele>242.4</ele><time>2026-05-02T08:31:44.999Z</time></trkpt><trkpt lat="42.23972594745199" lon="13.91138750213613"><ele>244.59999999999997</ele><time>2026-05-02T08:31:46.999Z</time></trkpt><trkpt lat="42.23968523776489" lon="13.911243507083844"><ele>246.79999999999998</ele><time>2026-05-02T08:31:48.999Z</time></trkpt><trkpt lat="42.23965080287528" lon="13.911154071390055"><ele>249.0</ele><time>2026-05-02T08:31:49.999Z</time></trkpt><trkpt lat="42.23961864478844" lon="13.911065177685304"><ele>249.0</ele><time>2026-05-02T08:31:50.999Z</time></trkpt><trkpt lat="42.239579344702044" lon="13.910975221000644"><ele>249.0</ele><time>2026-05-02T08:31:51.999Z</time></trkpt><trkpt lat="42.23953482450373" lon="13.910867040053853"><ele>249.0</ele><time>2026-05-02T08:31:52.999Z</time></trkpt><trkpt lat="42.23949726412299" lon="13.910776841232362"><ele>249.0</ele><time>2026-05-02T08:31:53.999Z</time></trkpt><trkpt lat="42.239456602113954" lon="13.910702301394362"><ele>249.0</ele><time>2026-05-02T08:31:54.999Z</time></trkpt><trkpt lat="42.239399987625" lon="13.910636169091223"><ele>249.0</ele><time>2026-05-02T08:31:55.999Z</time></trkpt><trkpt lat="42.23933044981542" lon="13.91058387499382"><ele>249.16666666666666</ele><time>2026-05-02T08:31:56.999Z</time></trkpt><trkpt lat="42.23926366938825" lon="13.910526344256052"><ele>249.33333333333331</ele><time>2026-05-02T08:31:57.999Z</time></trkpt><trkpt lat="42.23921299883349" lon="13.910440789077622"><ele>249.5</ele><time>2026-05-02T08:31:59Z</time></trkpt><trkpt lat="42.23916367871646" lon="13.910335618776516"><ele>249.66666666666666</ele><time>2026-05-02T08:32:00Z</time></trkpt><trkpt lat="42.2391012694603" lon="13.91023027297723"><ele>249.83333333333331</ele><time>2026-05-02T08:32:01Z</time></trkpt><trkpt lat="42.239037011356714" lon="13.910133126139053"><ele>250.0</ele><time>2026-05-02T08:32:02Z</time></trkpt><trkpt lat="42.2389681687646" lon="13.910037303501085"><ele>252.49999999999997</ele><time>2026-05-02T08:32:03Z</time></trkpt><trkpt lat="42.23891034396794" lon="13.909956220955328"><ele>255.0</ele><time>2026-05-02T08:32:04Z</time></trkpt><trkpt lat="42.23885270840862" lon="13.909879992126486"><ele>257.5</ele><time>2026-05-02T08:32:05Z</time></trkpt><trkpt lat="42.23879162379157" lon="13.909813899382351"><ele>260.0</ele><time>2026-05-02T08:32:06Z</time></trkpt><trkpt lat="42.238724757522654" lon="13.909763995583354"><ele>262.5</ele><time>2026-05-02T08:32:07Z</time></trkpt><trkpt lat="42.23864617829111" lon="13.909720270014608"><ele>265.0</ele><time>2026-05-02T08:32:08Z</time></trkpt><trkpt lat="42.23856704373417" lon="13.909676065269585"><ele>265.0</ele><time>2026-05-02T08:32:09Z</time></trkpt><trkpt lat="42.238491445910796" lon="13.90961770111717"><ele>265.0</ele><time>2026-05-02T08:32:10Z</time></trkpt><trkpt lat="42.23842573582608" lon="13.909546534063132"><ele>265.0</ele><time>2026-05-02T08:32:11Z</time></trkpt><trkpt lat="42.238362929373544" lon="13.909475294583224"><ele>265.0</ele><time>2026-05-02T08:32:12Z</time></trkpt><trkpt lat="42.2383086309931" lon="13.909403614735934"><ele>265.0</ele><time>2026-05-02T08:32:13Z</time></trkpt><trkpt lat="42.2382544820193" lon="13.909324594497134"><ele>265.0</ele><time>2026-05-02T08:32:14Z</time></trkpt><trkpt lat="42.23819796451199" lon="13.90925834498071"><ele>265.2857142857143</ele><time>2026-05-02T08:32:15Z</time></trkpt><trkpt lat="42.23813820946088" lon="13.90920100104613"><ele>265.57142857142856</ele><time>2026-05-02T08:32:16Z</time></trkpt><trkpt lat="42.23807191319434" lon="13.909157529311297"><ele>265.8571428571429</ele><time>2026-05-02T08:32:17Z</time></trkpt><trkpt lat="42.237995667175625" lon="13.909132810414798"><ele>266.1428571428571</ele><time>2026-05-02T08:32:18Z</time></trkpt><trkpt lat="42.23791929947313" lon="13.909129907994744"><ele>266.42857142857144</ele><time>2026-05-02T08:32:19Z</time></trkpt><trkpt lat="42.23784425653753" lon="13.90913998233986"><ele>266.7142857142857</ele><time>2026-05-02T08:32:20Z</time></trkpt><trkpt lat="42.23777742857901" lon="13.909159987751655"><ele>267.0</ele><time>2026-05-02T08:32:21Z</time></trkpt><trkpt lat="42.237702071871254" lon="13.909180240003556"><ele>268.8</ele><time>2026-05-02T08:32:23Z</time></trkpt><trkpt lat="42.23764919070935" lon="13.909113826492536"><ele>270.6</ele><time>2026-05-02T08:32:25Z</time></trkpt><trkpt lat="42.23761480432086" lon="13.908955670736445"><ele>272.40000000000003</ele><time>2026-05-02T08:32:27Z</time></trkpt><trkpt lat="42.23758351431583" lon="13.908857227132149"><ele>274.2</ele><time>2026-05-02T08:32:28Z</time></trkpt><trkpt lat="42.23753991306554" lon="13.908749162863593"><ele>276.0</ele><time>2026-05-02T08:32:29Z</time></trkpt><trkpt lat="42.23749403129999" lon="13.908636845367946"><ele>276.0</ele><time>2026-05-02T08:32:30Z</time></trkpt><trkpt lat="42.237449323477314" lon="13.908513605910828"><ele>276.0</ele><time>2026-05-02T08:32:31Z</time></trkpt><trkpt lat="42.23741875065811" lon="13.908400464314457"><ele>276.0</ele><time>2026-05-02T08:32:32Z</time></trkpt><trkpt lat="42.23737889695358" lon="13.908305120931137"><ele>276.0</ele><time>2026-05-02T08:32:33Z</time></trkpt><trkpt lat="42.23733717027818" lon="13.90822564938583"><ele>276.0</ele><time>2026-05-02T08:32:34Z</time></trkpt><trkpt lat="42.23729739279942" lon="13.908143364083804"><ele>276.0</ele><time>2026-05-02T08:32:35Z</time></trkpt><trkpt lat="42.237259096708044" lon="13.908047739175624"><ele>276.6</ele><time>2026-05-02T08:32:36Z</time></trkpt><trkpt lat="42.23721389866854" lon="13.907951912663975"><ele>277.20000000000005</ele><time>2026-05-02T08:32:37Z</time></trkpt><trkpt lat="42.237162519681455" lon="13.907847373390831"><ele>277.79999999999995</ele><time>2026-05-02T08:32:38Z</time></trkpt><trkpt lat="42.23710845130587" lon="13.907738765926588"><ele>278.4</ele><time>2026-05-02T08:32:39Z</time></trkpt><trkpt lat="42.2370542285256" lon="13.907623678198105"><ele>279.0</ele><time>2026-05-02T08:32:40Z</time></trkpt><trkpt lat="42.2369987452689" lon="13.907505511642233"><ele>279.0</ele><time>2026-05-02T08:32:41Z</time></trkpt><trkpt lat="42.23694585484683" lon="13.907399997467842"><ele>279.0</ele><time>2026-05-02T08:32:42Z</time></trkpt><trkpt lat="42.23688608002828" lon="13.907303605000115"><ele>279.0</ele><time>2026-05-02T08:32:43Z</time></trkpt><trkpt lat="42.23685036694302" lon="13.907209827726556"><ele>279.0</ele><time>2026-05-02T08:32:44Z</time></trkpt><trkpt lat="42.236802924506044" lon="13.907098726330133"><ele>279.0</ele><time>2026-05-02T08:32:45Z</time></trkpt><trkpt lat="42.236769250759025" lon="13.906983160808702"><ele>279.0</ele><time>2026-05-02T08:32:46Z</time></trkpt><trkpt lat="42.23672869156597" lon="13.906880018808415"><ele>279.0</ele><time>2026-05-02T08:32:47Z</time></trkpt><trkpt lat="42.23666788997149" lon="13.90676092568819"><ele>279.0</ele><time>2026-05-02T08:32:48Z</time></trkpt><trkpt lat="42.2366000362496" lon="13.906648937937558"><ele>279.0</ele><time>2026-05-02T08:32:49Z</time></trkpt><trkpt lat="42.23652942684932" lon="13.906561639104785"><ele>279.0</ele><time>2026-05-02T08:32:50Z</time></trkpt><trkpt lat="42.23645778299687" lon="13.90648167763526"><ele>278.5</ele><time>2026-05-02T08:32:51Z</time></trkpt><trkpt lat="42.236408443165644" lon="13.906405992170956"><ele>278.0</ele><time>2026-05-02T08:32:52Z</time></trkpt><trkpt lat="42.23636009910805" lon="13.906349961725066"><ele>277.5</ele><time>2026-05-02T08:32:53Z</time></trkpt><trkpt lat="42.236298778272854" lon="13.906273906358825"><ele>277.0</ele><time>2026-05-02T08:32:55Z</time></trkpt><trkpt lat="42.23625765026232" lon="13.90612512891172"><ele>276.5</ele><time>2026-05-02T08:32:57Z</time></trkpt><trkpt lat="42.236224353307904" lon="13.90599107320029"><ele>276.0</ele><time>2026-05-02T08:32:58.999Z</time></trkpt><trkpt lat="42.23620047832269" lon="13.905907142686013"><ele>278.40000000000003</ele><time>2026-05-02T08:32:59.999Z</time></trkpt><trkpt lat="42.236179264334076" lon="13.905808415449947"><ele>280.8</ele><time>2026-05-02T08:33:00.999Z</time></trkpt><trkpt lat="42.23615698682998" lon="13.905703171469826"><ele>283.20000000000005</ele><time>2026-05-02T08:33:01.999Z</time></trkpt><trkpt lat="42.23612793553512" lon="13.905593286930184"><ele>285.6</ele><time>2026-05-02T08:33:02.999Z</time></trkpt><trkpt lat="42.236088915221416" lon="13.90546676139971"><ele>288.0</ele><time>2026-05-02T08:33:03.999Z</time></trkpt><trkpt lat="42.23604472814978" lon="13.905333566969722"><ele>288.0</ele><time>2026-05-02T08:33:04.999Z</time></trkpt><trkpt lat="42.23598196271037" lon="13.905188785173372"><ele>288.0</ele><time>2026-05-02T08:33:05.999Z</time></trkpt><trkpt lat="42.235917447719025" lon="13.905047232383678"><ele>288.0</ele><time>2026-05-02T08:33:06.999Z</time></trkpt><trkpt lat="42.235855003503936" lon="13.904896447601242"><ele>288.0</ele><time>2026-05-02T08:33:07.999Z</time></trkpt><trkpt lat="42.235786925119314" lon="13.904749054901327"><ele>287.5</ele><time>2026-05-02T08:33:08.999Z</time></trkpt><trkpt lat="42.23571948123006" lon="13.904593958487574"><ele>287.0</ele><time>2026-05-02T08:33:09.999Z</time></trkpt><trkpt lat="42.23565590968944" lon="13.904449672094382"><ele>286.5</ele><time>2026-05-02T08:33:10.999Z</time></trkpt><trkpt lat="42.23559150810148" lon="13.904322730158997"><ele>286.0</ele><time>2026-05-02T08:33:11.999Z</time></trkpt><trkpt lat="42.235530362906275" lon="13.904187260567062"><ele>287.75</ele><time>2026-05-02T08:33:12.999Z</time></trkpt><trkpt lat="42.2354709218085" lon="13.904055715944457"><ele>289.5</ele><time>2026-05-02T08:33:13.999Z</time></trkpt><trkpt lat="42.23541745923648" lon="13.903925365067542"><ele>291.25</ele><time>2026-05-02T08:33:14.999Z</time></trkpt><trkpt lat="42.23538259223774" lon="13.90377749259754"><ele>293.0</ele><time>2026-05-02T08:33:15.999Z</time></trkpt><trkpt lat="42.2353576217982" lon="13.903609926072045"><ele>293.0</ele><time>2026-05-02T08:33:16.999Z</time></trkpt><trkpt lat="42.235335625894315" lon="13.903432289498143"><ele>293.0</ele><time>2026-05-02T08:33:17.999Z</time></trkpt><trkpt lat="42.23530679677252" lon="13.903257873822525"><ele>293.0</ele><time>2026-05-02T08:33:18.999Z</time></trkpt><trkpt lat="42.23527979800552" lon="13.903101419411078"><ele>293.0</ele><time>2026-05-02T08:33:19.999Z</time></trkpt><trkpt lat="42.23525348766553" lon="13.90296828383671"><ele>293.33333333333337</ele><time>2026-05-02T08:33:20.999Z</time></trkpt><trkpt lat="42.23524068259022" lon="13.9028552042589"><ele>293.6666666666667</ele><time>2026-05-02T08:33:21.999Z</time></trkpt><trkpt lat="42.235249314452794" lon="13.90276176980321"><ele>294.0</ele><time>2026-05-02T08:33:22.999Z</time></trkpt><trkpt lat="42.235360885482855" lon="13.902723667655241"><ele>294.3333333333333</ele><time>2026-05-02T08:33:24.999Z</time></trkpt><trkpt lat="42.2354120127749" lon="13.902807246117648"><ele>294.66666666666663</ele><time>2026-05-02T08:33:25.999Z</time></trkpt><trkpt lat="42.235433053406055" lon="13.902927508879655"><ele>295.0</ele><time>2026-05-02T08:33:26.999Z</time></trkpt><trkpt lat="42.235445498519034" lon="13.903070667194001"><ele>295.0</ele><time>2026-05-02T08:33:27.999Z</time></trkpt><trkpt lat="42.235477377833995" lon="13.903217254209098"><ele>295.0</ele><time>2026-05-02T08:33:28.999Z</time></trkpt><trkpt lat="42.23550827903547" lon="13.903364345415687"><ele>295.0</ele><time>2026-05-02T08:33:29.999Z</time></trkpt><trkpt lat="42.235542894642" lon="13.903493251590632"><ele>295.0</ele><time>2026-05-02T08:33:30.999Z</time></trkpt><trkpt lat="42.23559920469533" lon="13.903617624925172"><ele>295.0</ele><time>2026-05-02T08:33:31.999Z</time></trkpt><trkpt lat="42.23564885165833" lon="13.903734652902818"><ele>296.16666666666663</ele><time>2026-05-02T08:33:32.999Z</time></trkpt><trkpt lat="42.235712608571056" lon="13.90384031759173"><ele>297.3333333333333</ele><time>2026-05-02T08:33:33.999Z</time></trkpt><trkpt lat="42.235785795893214" lon="13.903908403610256"><ele>298.5</ele><time>2026-05-02T08:33:34.999Z</time></trkpt><trkpt lat="42.235863195061654" lon="13.903904058409386"><ele>299.6666666666667</ele><time>2026-05-02T08:33:35.999Z</time></trkpt><trkpt lat="42.23592235809872" lon="13.903832437736986"><ele>300.83333333333337</ele><time>2026-05-02T08:33:36.999Z</time></trkpt><trkpt lat="42.23594954090353" lon="13.903716978288626"><ele>302.0</ele><time>2026-05-02T08:33:37.999Z</time></trkpt><trkpt lat="42.23593821978477" lon="13.903580987020106"><ele>302.0</ele><time>2026-05-02T08:33:38.999Z</time></trkpt><trkpt lat="42.235908377187755" lon="13.903429326196449"><ele>302.0</ele><time>2026-05-02T08:33:39.999Z</time></trkpt><trkpt lat="42.23588328215823" lon="13.90327262948892"><ele>302.0</ele><time>2026-05-02T08:33:40.999Z</time></trkpt><trkpt lat="42.23588024631484" lon="13.903089511548927"><ele>302.0</ele><time>2026-05-02T08:33:41.999Z</time></trkpt><trkpt lat="42.235887603300625" lon="13.902889437740958"><ele>303.5</ele><time>2026-05-02T08:33:42.999Z</time></trkpt><trkpt lat="42.2359052435298" lon="13.902698092305595"><ele>305.0</ele><time>2026-05-02T08:33:43.999Z</time></trkpt><trkpt lat="42.23583618283096" lon="13.902506759493791"><ele>306.5</ele><time>2026-05-02T08:33:44.999Z</time></trkpt><trkpt lat="42.23582343801725" lon="13.90231561349218"><ele>308.0</ele><time>2026-05-02T08:33:45.999Z</time></trkpt><trkpt lat="42.235807557544504" lon="13.90212163115184"><ele>310.0</ele><time>2026-05-02T08:33:46.999Z</time></trkpt><trkpt lat="42.23579523612055" lon="13.901942164411707"><ele>312.0</ele><time>2026-05-02T08:33:47.999Z</time></trkpt><trkpt lat="42.23578187350095" lon="13.901769810219852"><ele>314.0</ele><time>2026-05-02T08:33:48.999Z</time></trkpt><trkpt lat="42.235760685102285" lon="13.901603438817347"><ele>316.0</ele><time>2026-05-02T08:33:49.999Z</time></trkpt><trkpt lat="42.23573784928104" lon="13.901436203097928"><ele>317.5</ele><time>2026-05-02T08:33:50.999Z</time></trkpt><trkpt lat="42.23572201602652" lon="13.901273636560166"><ele>319.0</ele><time>2026-05-02T08:33:51.999Z</time></trkpt><trkpt lat="42.235714287023136" lon="13.901104511514458"><ele>320.5</ele><time>2026-05-02T08:33:52.999Z</time></trkpt><trkpt lat="42.23571208706789" lon="13.900944153205188"><ele>322.0</ele><time>2026-05-02T08:33:53.999Z</time></trkpt><trkpt lat="42.235707746289606" lon="13.900785152157123"><ele>323.75</ele><time>2026-05-02T08:33:54.999Z</time></trkpt><trkpt lat="42.23569624774112" lon="13.900626523099081"><ele>325.5</ele><time>2026-05-02T08:33:55.999Z</time></trkpt><trkpt lat="42.23569075267613" lon="13.900472492273913"><ele>327.25</ele><time>2026-05-02T08:33:56.999Z</time></trkpt><trkpt lat="42.23567880570529" lon="13.900315958560123"><ele>329.0</ele><time>2026-05-02T08:33:57.999Z</time></trkpt><trkpt lat="42.235671918719966" lon="13.900163840355093"><ele>329.6</ele><time>2026-05-02T08:33:58.999Z</time></trkpt><trkpt lat="42.23566368207904" lon="13.900009653038012"><ele>330.2</ele><time>2026-05-02T08:33:59.999Z</time></trkpt><trkpt lat="42.235664497364894" lon="13.899858693455226"><ele>330.8</ele><time>2026-05-02T08:34:00.999Z</time></trkpt><trkpt lat="42.235679628906716" lon="13.899704941509285"><ele>331.40000000000003</ele><time>2026-05-02T08:34:01.999Z</time></trkpt><trkpt lat="42.23570231943031" lon="13.899583391876861"><ele>332.0</ele><time>2026-05-02T08:34:02.999Z</time></trkpt><trkpt lat="42.23572605110108" lon="13.899450604364516"><ele>332.0</ele><time>2026-05-02T08:34:03.999Z</time></trkpt><trkpt lat="42.23574680768391" lon="13.899326419344469"><ele>332.0</ele><time>2026-05-02T08:34:05Z</time></trkpt><trkpt lat="42.23575775156954" lon="13.899206271130804"><ele>332.0</ele><time>2026-05-02T08:34:06Z</time></trkpt><trkpt lat="42.235748949023176" lon="13.899112891471589"><ele>332.0</ele><time>2026-05-02T08:34:07Z</time></trkpt><trkpt lat="42.235736999330264" lon="13.898942195524482"><ele>332.0</ele><time>2026-05-02T08:34:09Z</time></trkpt><trkpt lat="42.235746226044014" lon="13.898827651476108"><ele>333.6</ele><time>2026-05-02T08:34:10Z</time></trkpt><trkpt lat="42.23574180690928" lon="13.8986888584328"><ele>335.20000000000005</ele><time>2026-05-02T08:34:11Z</time></trkpt><trkpt lat="42.23572466292091" lon="13.89853148341282"><ele>336.8</ele><time>2026-05-02T08:34:12Z</time></trkpt><trkpt lat="42.2357278381075" lon="13.89841020908861"><ele>338.4</ele><time>2026-05-02T08:34:13Z</time></trkpt><trkpt lat="42.23572420901348" lon="13.89829792109107"><ele>340.0</ele><time>2026-05-02T08:34:14Z</time></trkpt><trkpt lat="42.23571300092309" lon="13.898187909087198"><ele>341.6</ele><time>2026-05-02T08:34:15Z</time></trkpt><trkpt lat="42.23569915382036" lon="13.898087756776686"><ele>343.2</ele><time>2026-05-02T08:34:16Z</time></trkpt><trkpt lat="42.235672816241184" lon="13.898003703685461"><ele>344.79999999999995</ele><time>2026-05-02T08:34:17Z</time></trkpt><trkpt lat="42.2356435578881" lon="13.89787765888443"><ele>346.4</ele><time>2026-05-02T08:34:18Z</time></trkpt><trkpt lat="42.23563171683729" lon="13.89772885967568"><ele>348.0</ele><time>2026-05-02T08:34:19Z</time></trkpt><trkpt lat="42.235639272791566" lon="13.897578778233974"><ele>348.8333333333333</ele><time>2026-05-02T08:34:20Z</time></trkpt><trkpt lat="42.23566620543708" lon="13.89745270828683"><ele>349.6666666666667</ele><time>2026-05-02T08:34:21Z</time></trkpt><trkpt lat="42.23569356982368" lon="13.897353100711783"><ele>350.5</ele><time>2026-05-02T08:34:22Z</time></trkpt><trkpt lat="42.235710396606486" lon="13.897257770313326"><ele>351.33333333333337</ele><time>2026-05-02T08:34:23Z</time></trkpt><trkpt lat="42.23572270307408" lon="13.897150834012118"><ele>352.1666666666667</ele><time>2026-05-02T08:34:24Z</time></trkpt><trkpt lat="42.23574604814814" lon="13.89704234262824"><ele>353.0</ele><time>2026-05-02T08:34:25Z</time></trkpt><trkpt lat="42.235768880872264" lon="13.896937248300963"><ele>353.0</ele><time>2026-05-02T08:34:26Z</time></trkpt><trkpt lat="42.235792225428206" lon="13.896827924081506"><ele>353.0</ele><time>2026-05-02T08:34:27Z</time></trkpt><trkpt lat="42.23582507106422" lon="13.896709863844736"><ele>353.0</ele><time>2026-05-02T08:34:28Z</time></trkpt><trkpt lat="42.23585549041563" lon="13.896606626267555"><ele>353.0</ele><time>2026-05-02T08:34:29Z</time></trkpt><trkpt lat="42.235882492915" lon="13.896492069744625"><ele>353.0</ele><time>2026-05-02T08:34:30Z</time></trkpt><trkpt lat="42.23590523538258" lon="13.896364480698422"><ele>353.0</ele><time>2026-05-02T08:34:31Z</time></trkpt><trkpt lat="42.23592911976887" lon="13.896242968859639"><ele>353.0</ele><time>2026-05-02T08:34:32Z</time></trkpt><trkpt lat="42.23594914403889" lon="13.89611589250156"><ele>353.0</ele><time>2026-05-02T08:34:33Z</time></trkpt><trkpt lat="42.23596276362686" lon="13.895983854013352"><ele>353.0</ele><time>2026-05-02T08:34:34Z</time></trkpt><trkpt lat="42.235967445553875" lon="13.89585341113889"><ele>353.0</ele><time>2026-05-02T08:34:35Z</time></trkpt><trkpt lat="42.235972973011386" lon="13.895724027101686"><ele>353.0</ele><time>2026-05-02T08:34:36Z</time></trkpt><trkpt lat="42.23599001529546" lon="13.895607386379567"><ele>352.33333333333337</ele><time>2026-05-02T08:34:37Z</time></trkpt><trkpt lat="42.23601310676891" lon="13.89550043687941"><ele>351.6666666666667</ele><time>2026-05-02T08:34:38Z</time></trkpt><trkpt lat="42.236029305966596" lon="13.895397739580977"><ele>351.0</ele><time>2026-05-02T08:34:39Z</time></trkpt><trkpt lat="42.23604296117923" lon="13.895294611698306"><ele>350.3333333333333</ele><time>2026-05-02T08:34:40Z</time></trkpt><trkpt lat="42.23605685225606" lon="13.8951827176108"><ele>349.66666666666663</ele><time>2026-05-02T08:34:41Z</time></trkpt><trkpt lat="42.23607310164859" lon="13.895060929576626"><ele>349.0</ele><time>2026-05-02T08:34:42Z</time></trkpt><trkpt lat="42.23608035793501" lon="13.894933780646195"><ele>348.66666666666663</ele><time>2026-05-02T08:34:43Z</time></trkpt><trkpt lat="42.236083733427286" lon="13.894812317626961"><ele>348.3333333333333</ele><time>2026-05-02T08:34:44Z</time></trkpt><trkpt lat="42.23609225807202" lon="13.894696863493511"><ele>348.0</ele><time>2026-05-02T08:34:45Z</time></trkpt><trkpt lat="42.236100625905856" lon="13.894585221643204"><ele>347.6666666666667</ele><time>2026-05-02T08:34:46Z</time></trkpt><trkpt lat="42.236111146824705" lon="13.894486820534533"><ele>347.33333333333337</ele><time>2026-05-02T08:34:47Z</time></trkpt><trkpt lat="42.23613043276143" lon="13.894388527740718"><ele>347.0</ele><time>2026-05-02T08:34:48Z</time></trkpt><trkpt lat="42.23616967177491" lon="13.894294018653664"><ele>346.6</ele><time>2026-05-02T08:34:49Z</time></trkpt><trkpt lat="42.236215407751914" lon="13.894181149023035"><ele>346.20000000000005</ele><time>2026-05-02T08:34:50Z</time></trkpt><trkpt lat="42.23626124529782" lon="13.894053625671836"><ele>345.8</ele><time>2026-05-02T08:34:51Z</time></trkpt><trkpt lat="42.236276740052666" lon="13.89391706779535"><ele>345.4</ele><time>2026-05-02T08:34:52Z</time></trkpt><trkpt lat="42.23626813512091" lon="13.893770450491157"><ele>345.0</ele><time>2026-05-02T08:34:53Z</time></trkpt><trkpt lat="42.2362538166155" lon="13.893623168966448"><ele>345.0</ele><time>2026-05-02T08:34:54Z</time></trkpt><trkpt lat="42.236250374284616" lon="13.893465471191126"><ele>345.0</ele><time>2026-05-02T08:34:55Z</time></trkpt><trkpt lat="42.23624652258126" lon="13.893304036142368"><ele>345.0</ele><time>2026-05-02T08:34:56Z</time></trkpt><trkpt lat="42.23624663387715" lon="13.893142760155172"><ele>345.0</ele><time>2026-05-02T08:34:57Z</time></trkpt><trkpt lat="42.23624642365572" lon="13.892975654389344"><ele>345.25</ele><time>2026-05-02T08:34:58Z</time></trkpt><trkpt lat="42.23624355047145" lon="13.89280209752946"><ele>345.5</ele><time>2026-05-02T08:34:59Z</time></trkpt><trkpt lat="42.236239242692115" lon="13.892622204124802"><ele>345.75</ele><time>2026-05-02T08:35:00Z</time></trkpt><trkpt lat="42.23622816352246" lon="13.892439664719038"><ele>346.0</ele><time>2026-05-02T08:35:01Z</time></trkpt><trkpt lat="42.23621235478256" lon="13.892272817831863"><ele>347.5</ele><time>2026-05-02T08:35:02Z</time></trkpt><trkpt lat="42.236191570794155" lon="13.892130946418378"><ele>349.0</ele><time>2026-05-02T08:35:03Z</time></trkpt><trkpt lat="42.23615842142332" lon="13.89197888477024"><ele>350.5</ele><time>2026-05-02T08:35:04Z</time></trkpt><trkpt lat="42.23611839689403" lon="13.891816980607837"><ele>352.0</ele><time>2026-05-02T08:35:05Z</time></trkpt><trkpt lat="42.236061837577275" lon="13.891660911564026"><ele>354.0</ele><time>2026-05-02T08:35:06Z</time></trkpt><trkpt lat="42.23599772839873" lon="13.891501231344431"><ele>356.0</ele><time>2026-05-02T08:35:07Z</time></trkpt><trkpt lat="42.23592617058197" lon="13.891351243556025"><ele>358.0</ele><time>2026-05-02T08:35:08Z</time></trkpt><trkpt lat="42.23585276309137" lon="13.891207608912952"><ele>360.0</ele><time>2026-05-02T08:35:09Z</time></trkpt><trkpt lat="42.23579471708234" lon="13.891049439148164"><ele>362.5</ele><time>2026-05-02T08:35:10Z</time></trkpt><trkpt lat="42.2357525176633" lon="13.890875115887415"><ele>365.0</ele><time>2026-05-02T08:35:10.999Z</time></trkpt><trkpt lat="42.235723699607504" lon="13.890681936887978"><ele>367.5</ele><time>2026-05-02T08:35:11.999Z</time></trkpt><trkpt lat="42.235702001401826" lon="13.890479697128171"><ele>370.0</ele><time>2026-05-02T08:35:12.999Z</time></trkpt><trkpt lat="42.23567985570346" lon="13.89027523673336"><ele>369.0</ele><time>2026-05-02T08:35:13.999Z</time></trkpt><trkpt lat="42.23564697387365" lon="13.890069934846128"><ele>368.0</ele><time>2026-05-02T08:35:14.999Z</time></trkpt><trkpt lat="42.23559107360893" lon="13.889879135473475"><ele>367.0</ele><time>2026-05-02T08:35:15.999Z</time></trkpt><trkpt lat="42.23550832886075" lon="13.889703382194119"><ele>366.66666666666663</ele><time>2026-05-02T08:35:16.999Z</time></trkpt><trkpt lat="42.23541812624054" lon="13.889539487255233"><ele>366.3333333333333</ele><time>2026-05-02T08:35:17.999Z</time></trkpt><trkpt lat="42.235330674915225" lon="13.889371385130383"><ele>366.0</ele><time>2026-05-02T08:35:18.999Z</time></trkpt><trkpt lat="42.23524438720085" lon="13.889184807639797"><ele>369.3333333333333</ele><time>2026-05-02T08:35:19.999Z</time></trkpt><trkpt lat="42.23516478161229" lon="13.888991716828079"><ele>372.66666666666663</ele><time>2026-05-02T08:35:20.999Z</time></trkpt><trkpt lat="42.235049373923104" lon="13.888804130304214"><ele>376.0</ele><time>2026-05-02T08:35:21.999Z</time></trkpt><trkpt lat="42.23493029259084" lon="13.888646865317531"><ele>376.0</ele><time>2026-05-02T08:35:22.999Z</time></trkpt><trkpt lat="42.23486031703368" lon="13.888463840556488"><ele>376.0</ele><time>2026-05-02T08:35:23.999Z</time></trkpt><trkpt lat="42.23476299196293" lon="13.88830162236044"><ele>376.0</ele><time>2026-05-02T08:35:24.999Z</time></trkpt><trkpt lat="42.234668426484845" lon="13.888136951732987"><ele>378.0</ele><time>2026-05-02T08:35:25.999Z</time></trkpt><trkpt lat="42.23457134719459" lon="13.887982781115381"><ele>380.0</ele><time>2026-05-02T08:35:26.999Z</time></trkpt><trkpt lat="42.234470811157195" lon="13.887826801386739"><ele>382.0</ele><time>2026-05-02T08:35:27.999Z</time></trkpt><trkpt lat="42.234373822064306" lon="13.887675597426139"><ele>386.75</ele><time>2026-05-02T08:35:28.999Z</time></trkpt><trkpt lat="42.234281106837486" lon="13.88752019898453"><ele>391.5</ele><time>2026-05-02T08:35:29.999Z</time></trkpt><trkpt lat="42.234193486625706" lon="13.887371126427889"><ele>396.25</ele><time>2026-05-02T08:35:30.999Z</time></trkpt><trkpt lat="42.2341047233474" lon="13.887225184359735"><ele>401.0</ele><time>2026-05-02T08:35:31.999Z</time></trkpt><trkpt lat="42.234013146674" lon="13.88707091724903"><ele>401.25</ele><time>2026-05-02T08:35:32.999Z</time></trkpt><trkpt lat="42.23390712528172" lon="13.886928422610415"><ele>401.5</ele><time>2026-05-02T08:35:33.999Z</time></trkpt><trkpt lat="42.2338093201323" lon="13.886796909065405"><ele>401.75</ele><time>2026-05-02T08:35:34.999Z</time></trkpt><trkpt lat="42.233710618925905" lon="13.886696714589181"><ele>402.0</ele><time>2026-05-02T08:35:35.999Z</time></trkpt><trkpt lat="42.23361216342654" lon="13.886631642151674"><ele>402.0</ele><time>2026-05-02T08:35:36.999Z</time></trkpt><trkpt lat="42.23352233007358" lon="13.886559430852412"><ele>402.0</ele><time>2026-05-02T08:35:37.999Z</time></trkpt><trkpt lat="42.233463173669335" lon="13.886460139294957"><ele>402.0</ele><time>2026-05-02T08:35:38.999Z</time></trkpt><trkpt lat="42.233459815853756" lon="13.88634466155286"><ele>402.0</ele><time>2026-05-02T08:35:39.999Z</time></trkpt><trkpt lat="42.23350628019753" lon="13.886243412308504"><ele>402.0</ele><time>2026-05-02T08:35:40.999Z</time></trkpt><trkpt lat="42.23358942846187" lon="13.886198005691439"><ele>402.0</ele><time>2026-05-02T08:35:41.999Z</time></trkpt><trkpt lat="42.23368794782469" lon="13.886209798510377"><ele>402.0</ele><time>2026-05-02T08:35:42.999Z</time></trkpt><trkpt lat="42.233787477260805" lon="13.88627543442924"><ele>402.0</ele><time>2026-05-02T08:35:43.999Z</time></trkpt><trkpt lat="42.23389081587995" lon="13.88637017293599"><ele>402.0</ele><time>2026-05-02T08:35:44.999Z</time></trkpt><trkpt lat="42.234001508811026" lon="13.886473338312872"><ele>401.75</ele><time>2026-05-02T08:35:45.999Z</time></trkpt><trkpt lat="42.23412039590104" lon="13.886582975931438"><ele>401.5</ele><time>2026-05-02T08:35:46.999Z</time></trkpt><trkpt lat="42.234246031521806" lon="13.886680118184358"><ele>401.25</ele><time>2026-05-02T08:35:47.999Z</time></trkpt><trkpt lat="42.234326680387596" lon="13.88683409290353"><ele>401.0</ele><time>2026-05-02T08:35:48.999Z</time></trkpt><trkpt lat="42.2344147514187" lon="13.886951064939248"><ele>400.99999999999994</ele><time>2026-05-02T08:35:49.999Z</time></trkpt><trkpt lat="42.23449831575219" lon="13.887039371569891"><ele>401.0</ele><time>2026-05-02T08:35:50.999Z</time></trkpt><trkpt lat="42.234582982030624" lon="13.887058398195222"><ele>401.0</ele><time>2026-05-02T08:35:51.999Z</time></trkpt><trkpt lat="42.234660610367975" lon="13.887024545118784"><ele>401.0</ele><time>2026-05-02T08:35:52.999Z</time></trkpt><trkpt lat="42.23470740984371" lon="13.886930446684476"><ele>400.99999999999994</ele><time>2026-05-02T08:35:53.999Z</time></trkpt><trkpt lat="42.23472826381764" lon="13.886821647000387"><ele>401.0</ele><time>2026-05-02T08:35:54.999Z</time></trkpt><trkpt lat="42.234699579959035" lon="13.886697143398102"><ele>405.0</ele><time>2026-05-02T08:35:55.999Z</time></trkpt><trkpt lat="42.23462505372295" lon="13.886581459187926"><ele>409.0</ele><time>2026-05-02T08:35:56.999Z</time></trkpt><trkpt lat="42.23452896797592" lon="13.886502891142111"><ele>413.0</ele><time>2026-05-02T08:35:57.999Z</time></trkpt><trkpt lat="42.23443175940892" lon="13.886421952094137"><ele>417.0</ele><time>2026-05-02T08:35:58.999Z</time></trkpt><trkpt lat="42.23434211427964" lon="13.886309312411868"><ele>417.0</ele><time>2026-05-02T08:35:59.999Z</time></trkpt><trkpt lat="42.23426530717701" lon="13.886169113171128"><ele>417.0</ele><time>2026-05-02T08:36:00.999Z</time></trkpt><trkpt lat="42.23419974047041" lon="13.88601105263781"><ele>417.0</ele><time>2026-05-02T08:36:01.999Z</time></trkpt><trkpt lat="42.234124348634765" lon="13.885856927431872"><ele>417.0</ele><time>2026-05-02T08:36:02.999Z</time></trkpt><trkpt lat="42.23401684533231" lon="13.885702060014307"><ele>416.25</ele><time>2026-05-02T08:36:03.999Z</time></trkpt><trkpt lat="42.234017488441154" lon="13.885522930221981"><ele>415.5</ele><time>2026-05-02T08:36:04.999Z</time></trkpt><trkpt lat="42.23398210974651" lon="13.885345622791332"><ele>414.75</ele><time>2026-05-02T08:36:05.999Z</time></trkpt><trkpt lat="42.233955972462034" lon="13.885153153075684"><ele>414.0</ele><time>2026-05-02T08:36:06.999Z</time></trkpt><trkpt lat="42.23393573382091" lon="13.884968838092277"><ele>417.5</ele><time>2026-05-02T08:36:07.999Z</time></trkpt><trkpt lat="42.233910188997875" lon="13.884775707125934"><ele>421.0</ele><time>2026-05-02T08:36:08.999Z</time></trkpt><trkpt lat="42.233879293460014" lon="13.884586169855323"><ele>424.5</ele><time>2026-05-02T08:36:09.999Z</time></trkpt><trkpt lat="42.23384798177983" lon="13.884393028515829"><ele>428.0</ele><time>2026-05-02T08:36:11Z</time></trkpt><trkpt lat="42.23381745998713" lon="13.884196887847452"><ele>432.25</ele><time>2026-05-02T08:36:12Z</time></trkpt><trkpt lat="42.23378072272749" lon="13.884010246674272"><ele>436.5</ele><time>2026-05-02T08:36:13Z</time></trkpt><trkpt lat="42.233738037209946" lon="13.883822710603432"><ele>440.75</ele><time>2026-05-02T08:36:14Z</time></trkpt><trkpt lat="42.233697920477255" lon="13.883641295921281"><ele>445.0</ele><time>2026-05-02T08:36:15Z</time></trkpt><trkpt lat="42.23365257713966" lon="13.883455458120109"><ele>450.33333333333337</ele><time>2026-05-02T08:36:16Z</time></trkpt><trkpt lat="42.23361433699819" lon="13.88326748510906"><ele>455.66666666666663</ele><time>2026-05-02T08:36:17Z</time></trkpt><trkpt lat="42.23357246989966" lon="13.883072986719434"><ele>461.0</ele><time>2026-05-02T08:36:18Z</time></trkpt><trkpt lat="42.23353829395384" lon="13.882865665907"><ele>461.0</ele><time>2026-05-02T08:36:19Z</time></trkpt><trkpt lat="42.233527097744634" lon="13.882656012466905"><ele>461.0</ele><time>2026-05-02T08:36:20Z</time></trkpt><trkpt lat="42.2335468636232" lon="13.882453611505836"><ele>461.0</ele><time>2026-05-02T08:36:21Z</time></trkpt><trkpt lat="42.233578865933126" lon="13.882248735736146"><ele>465.66666666666663</ele><time>2026-05-02T08:36:22Z</time></trkpt><trkpt lat="42.233611826376745" lon="13.882039571366231"><ele>470.33333333333337</ele><time>2026-05-02T08:36:23Z</time></trkpt><trkpt lat="42.23364196307826" lon="13.881834224531087"><ele>475.0</ele><time>2026-05-02T08:36:24Z</time></trkpt><trkpt lat="42.23366266236584" lon="13.881623417209214"><ele>476.33333333333337</ele><time>2026-05-02T08:36:25Z</time></trkpt><trkpt lat="42.23368773336516" lon="13.881406286125324"><ele>477.66666666666663</ele><time>2026-05-02T08:36:26Z</time></trkpt><trkpt lat="42.23372972597265" lon="13.881184786429047"><ele>479.0</ele><time>2026-05-02T08:36:27Z</time></trkpt><trkpt lat="42.23377769056359" lon="13.880979845804434"><ele>478.66666666666663</ele><time>2026-05-02T08:36:28Z</time></trkpt><trkpt lat="42.23381982631704" lon="13.880776509067289"><ele>478.33333333333337</ele><time>2026-05-02T08:36:29Z</time></trkpt><trkpt lat="42.233849318768975" lon="13.880570814203784"><ele>478.0</ele><time>2026-05-02T08:36:30Z</time></trkpt><trkpt lat="42.23384323970084" lon="13.88035751725925"><ele>478.0</ele><time>2026-05-02T08:36:31Z</time></trkpt><trkpt lat="42.23381573021463" lon="13.880171476059196"><ele>478.0</ele><time>2026-05-02T08:36:32Z</time></trkpt><trkpt lat="42.23377870793312" lon="13.879991306719056"><ele>478.0</ele><time>2026-05-02T08:36:33Z</time></trkpt><trkpt lat="42.233737617561296" lon="13.879814687559088"><ele>478.0</ele><time>2026-05-02T08:36:34Z</time></trkpt><trkpt lat="42.23370578994356" lon="13.87964014918186"><ele>477.5</ele><time>2026-05-02T08:36:35Z</time></trkpt><trkpt lat="42.23369387807703" lon="13.879455110677254"><ele>477.0</ele><time>2026-05-02T08:36:36Z</time></trkpt><trkpt lat="42.233708144452514" lon="13.879262521784419"><ele>476.5</ele><time>2026-05-02T08:36:37Z</time></trkpt><trkpt lat="42.233748610916166" lon="13.879074172549851"><ele>476.0</ele><time>2026-05-02T08:36:38Z</time></trkpt><trkpt lat="42.233801447313596" lon="13.878882740567974"><ele>475.66666666666663</ele><time>2026-05-02T08:36:39Z</time></trkpt><trkpt lat="42.233861993720446" lon="13.878695091741823"><ele>475.33333333333337</ele><time>2026-05-02T08:36:40Z</time></trkpt><trkpt lat="42.233907883816414" lon="13.87849554553629"><ele>475.0</ele><time>2026-05-02T08:36:41Z</time></trkpt><trkpt lat="42.23395139353403" lon="13.87828733361148"><ele>468.6666666666667</ele><time>2026-05-02T08:36:42Z</time></trkpt><trkpt lat="42.233983827215546" lon="13.87807666071827"><ele>462.33333333333337</ele><time>2026-05-02T08:36:43Z</time></trkpt><trkpt lat="42.23401352774381" lon="13.877871688237628"><ele>456.0</ele><time>2026-05-02T08:36:44Z</time></trkpt><trkpt lat="42.23404859807157" lon="13.87767252919884"><ele>458.0</ele><time>2026-05-02T08:36:45Z</time></trkpt><trkpt lat="42.234085455876524" lon="13.87747952409449"><ele>460.0</ele><time>2026-05-02T08:36:46Z</time></trkpt><trkpt lat="42.23411335065512" lon="13.877282783960215"><ele>462.0</ele><time>2026-05-02T08:36:47Z</time></trkpt><trkpt lat="42.234125433998656" lon="13.87708616628902"><ele>464.0</ele><time>2026-05-02T08:36:48Z</time></trkpt><trkpt lat="42.23412901217585" lon="13.87689194363365"><ele>464.5</ele><time>2026-05-02T08:36:49Z</time></trkpt><trkpt lat="42.234145275901064" lon="13.876703568887994"><ele>465.0</ele><time>2026-05-02T08:36:50Z</time></trkpt><trkpt lat="42.234175090639795" lon="13.876517657701077"><ele>465.5</ele><time>2026-05-02T08:36:51Z</time></trkpt><trkpt lat="42.23422623780224" lon="13.876335831540676"><ele>466.0</ele><time>2026-05-02T08:36:52Z</time></trkpt><trkpt lat="42.23430017221492" lon="13.876158273254857"><ele>466.0</ele><time>2026-05-02T08:36:53Z</time></trkpt><trkpt lat="42.234387526873704" lon="13.8759864457761"><ele>466.0</ele><time>2026-05-02T08:36:54Z</time></trkpt><trkpt lat="42.23449067597067" lon="13.875825490365072"><ele>466.0</ele><time>2026-05-02T08:36:55Z</time></trkpt><trkpt lat="42.2345989307832" lon="13.875659118615298"><ele>466.33333333333337</ele><time>2026-05-02T08:36:56Z</time></trkpt><trkpt lat="42.234715369707175" lon="13.87549490076316"><ele>466.66666666666663</ele><time>2026-05-02T08:36:57Z</time></trkpt><trkpt lat="42.234829849815696" lon="13.87532096463554"><ele>467.0</ele><time>2026-05-02T08:36:58Z</time></trkpt><trkpt lat="42.23494794253701" lon="13.875062424365435"><ele>467.0</ele><time>2026-05-02T08:36:59Z</time></trkpt><trkpt lat="42.23506002773691" lon="13.874743259172844"><ele>467.0</ele><time>2026-05-02T08:37:00Z</time></trkpt><trkpt lat="42.23521842255126" lon="13.874949129686213"><ele>467.0</ele><time>2026-05-02T08:37:01Z</time></trkpt><trkpt lat="42.23534795709349" lon="13.874848035798692"><ele>467.0</ele><time>2026-05-02T08:37:02Z</time></trkpt><trkpt lat="42.23547151170495" lon="13.874743723822352"><ele>467.0</ele><time>2026-05-02T08:37:03Z</time></trkpt><trkpt lat="42.235576483704854" lon="13.874638508259359"><ele>467.0</ele><time>2026-05-02T08:37:04Z</time></trkpt><trkpt lat="42.23566377278577" lon="13.874523653074027"><ele>465.20000000000005</ele><time>2026-05-02T08:37:05Z</time></trkpt><trkpt lat="42.23573310471159" lon="13.874407027693348"><ele>463.40000000000003</ele><time>2026-05-02T08:37:06Z</time></trkpt><trkpt lat="42.23576487862657" lon="13.874286466145044"><ele>461.59999999999997</ele><time>2026-05-02T08:37:07Z</time></trkpt><trkpt lat="42.23574713197455" lon="13.874159690079308"><ele>459.79999999999995</ele><time>2026-05-02T08:37:08Z</time></trkpt><trkpt lat="42.23567252818057" lon="13.874048169323244"><ele>458.0</ele><time>2026-05-02T08:37:09Z</time></trkpt><trkpt lat="42.23556860991703" lon="13.873974498288197"><ele>462.79999999999995</ele><time>2026-05-02T08:37:10Z</time></trkpt><trkpt lat="42.235465369222496" lon="13.873900351883924"><ele>467.59999999999997</ele><time>2026-05-02T08:37:11Z</time></trkpt><trkpt lat="42.23539166116254" lon="13.87380638948796"><ele>472.40000000000003</ele><time>2026-05-02T08:37:12Z</time></trkpt><trkpt lat="42.23534604338602" lon="13.873699317287182"><ele>477.20000000000005</ele><time>2026-05-02T08:37:13Z</time></trkpt><trkpt lat="42.23533381964755" lon="13.87357957574522"><ele>482.0</ele><time>2026-05-02T08:37:14Z</time></trkpt><trkpt lat="42.23536673206446" lon="13.873453767171219"><ele>480.75</ele><time>2026-05-02T08:37:15Z</time></trkpt><trkpt lat="42.23544219781016" lon="13.873349831638581"><ele>479.5</ele><time>2026-05-02T08:37:16Z</time></trkpt><trkpt lat="42.235527927621035" lon="13.873249551996551"><ele>478.25</ele><time>2026-05-02T08:37:17Z</time></trkpt><trkpt lat="42.23562896493872" lon="13.873161452048052"><ele>477.0</ele><time>2026-05-02T08:37:18Z</time></trkpt><trkpt lat="42.23574665750086" lon="13.87314305041363"><ele>473.0</ele><time>2026-05-02T08:37:19Z</time></trkpt><trkpt lat="42.23587694430774" lon="13.873162256056185"><ele>469.0</ele><time>2026-05-02T08:37:20Z</time></trkpt><trkpt lat="42.236010075292185" lon="13.87320367128956"><ele>465.0</ele><time>2026-05-02T08:37:21Z</time></trkpt><trkpt lat="42.236145021235714" lon="13.873259266594001"><ele>461.0</ele><time>2026-05-02T08:37:22Z</time></trkpt><trkpt lat="42.236283443460906" lon="13.873315006379022"><ele>461.0</ele><time>2026-05-02T08:37:23Z</time></trkpt><trkpt lat="42.23643111807841" lon="13.873362964030004"><ele>461.0</ele><time>2026-05-02T08:37:24Z</time></trkpt><trkpt lat="42.23658954788141" lon="13.873397603089753"><ele>461.0</ele><time>2026-05-02T08:37:25Z</time></trkpt><trkpt lat="42.236744091500135" lon="13.873400813211353"><ele>461.3333333333333</ele><time>2026-05-02T08:37:26Z</time></trkpt><trkpt lat="42.236897242194026" lon="13.873383451842653"><ele>461.66666666666663</ele><time>2026-05-02T08:37:27Z</time></trkpt><trkpt lat="42.23704274795038" lon="13.873343344608738"><ele>462.0</ele><time>2026-05-02T08:37:28Z</time></trkpt><trkpt lat="42.237181410608905" lon="13.873270649186749"><ele>460.75</ele><time>2026-05-02T08:37:29Z</time></trkpt><trkpt lat="42.237312126379756" lon="13.87317281080783"><ele>459.5</ele><time>2026-05-02T08:37:30Z</time></trkpt><trkpt lat="42.23744211505243" lon="13.87307636346045"><ele>458.25</ele><time>2026-05-02T08:37:31Z</time></trkpt><trkpt lat="42.237565337624275" lon="13.872972323691233"><ele>457.0</ele><time>2026-05-02T08:37:32Z</time></trkpt><trkpt lat="42.237682397079766" lon="13.872860972417877"><ele>457.0</ele><time>2026-05-02T08:37:33Z</time></trkpt><trkpt lat="42.23777915073548" lon="13.872733562851671"><ele>457.0</ele><time>2026-05-02T08:37:33.999Z</time></trkpt><trkpt lat="42.23784499737056" lon="13.872570174378918"><ele>457.0</ele><time>2026-05-02T08:37:34.999Z</time></trkpt><trkpt lat="42.23788321664127" lon="13.872389454720086"><ele>457.0</ele><time>2026-05-02T08:37:35.999Z</time></trkpt><trkpt lat="42.237874936995176" lon="13.872161319951815"><ele>462.33333333333337</ele><time>2026-05-02T08:37:36.999Z</time></trkpt><trkpt lat="42.237871631593364" lon="13.871943439950941"><ele>467.66666666666663</ele><time>2026-05-02T08:37:37.999Z</time></trkpt><trkpt lat="42.238022221002225" lon="13.871883422543076"><ele>473.0</ele><time>2026-05-02T08:37:38.999Z</time></trkpt><trkpt lat="42.238087360893175" lon="13.871728522112198"><ele>473.25</ele><time>2026-05-02T08:37:39.999Z</time></trkpt><trkpt lat="42.2381521177084" lon="13.871570711437291"><ele>473.5</ele><time>2026-05-02T08:37:40.999Z</time></trkpt><trkpt lat="42.23822492829766" lon="13.871423687610218"><ele>473.75</ele><time>2026-05-02T08:37:41.999Z</time></trkpt><trkpt lat="42.23830609930229" lon="13.871291377275703"><ele>474.0</ele><time>2026-05-02T08:37:42.999Z</time></trkpt><trkpt lat="42.2383914583185" lon="13.871168763053198"><ele>474.0</ele><time>2026-05-02T08:37:43.999Z</time></trkpt><trkpt lat="42.23847048129858" lon="13.871056681506026"><ele>474.0</ele><time>2026-05-02T08:37:44.999Z</time></trkpt><trkpt lat="42.23853502344662" lon="13.870963758333572"><ele>474.0</ele><time>2026-05-02T08:37:45.999Z</time></trkpt><trkpt lat="42.23859045809648" lon="13.870884978539133"><ele>474.0</ele><time>2026-05-02T08:37:46.999Z</time></trkpt><trkpt lat="42.23863195423393" lon="13.87081502238484"><ele>474.0</ele><time>2026-05-02T08:37:47.999Z</time></trkpt><trkpt lat="42.23871481013483" lon="13.870708225048528"><ele>476.6666666666667</ele><time>2026-05-02T08:37:49.999Z</time></trkpt><trkpt lat="42.23870978104768" lon="13.870590343258366"><ele>479.33333333333337</ele><time>2026-05-02T08:37:51.999Z</time></trkpt><trkpt lat="42.23864397374102" lon="13.87058374371816"><ele>482.0</ele><time>2026-05-02T08:37:52.999Z</time></trkpt><trkpt lat="42.238567029629394" lon="13.870617450986067"><ele>484.6666666666667</ele><time>2026-05-02T08:37:53.999Z</time></trkpt><trkpt lat="42.23847232950596" lon="13.870647970211124"><ele>487.33333333333337</ele><time>2026-05-02T08:37:54.999Z</time></trkpt><trkpt lat="42.23836541603537" lon="13.870671720124344"><ele>490.0</ele><time>2026-05-02T08:37:55.999Z</time></trkpt><trkpt lat="42.23826089143262" lon="13.87069017203782"><ele>490.0</ele><time>2026-05-02T08:37:56.999Z</time></trkpt><trkpt lat="42.238136707261475" lon="13.870715426589342"><ele>490.0</ele><time>2026-05-02T08:37:57.999Z</time></trkpt><trkpt lat="42.23800742530354" lon="13.870753542431514"><ele>490.0</ele><time>2026-05-02T08:37:58.999Z</time></trkpt><trkpt lat="42.237893767956265" lon="13.870806846541157"><ele>490.0</ele><time>2026-05-02T08:37:59.999Z</time></trkpt><trkpt lat="42.2378025521925" lon="13.870893304429023"><ele>489.33333333333337</ele><time>2026-05-02T08:38:00.999Z</time></trkpt><trkpt lat="42.23772865757421" lon="13.870965698287709"><ele>488.6666666666667</ele><time>2026-05-02T08:38:01.999Z</time></trkpt><trkpt lat="42.2376624657" lon="13.871012088948932"><ele>488.0</ele><time>2026-05-02T08:38:02.999Z</time></trkpt><trkpt lat="42.23759773149438" lon="13.871021770695856"><ele>487.33333333333337</ele><time>2026-05-02T08:38:03.999Z</time></trkpt><trkpt lat="42.23748128463287" lon="13.870967779418057"><ele>486.6666666666667</ele><time>2026-05-02T08:38:05.999Z</time></trkpt><trkpt lat="42.237485413451836" lon="13.870868659730451"><ele>486.0</ele><time>2026-05-02T08:38:06.999Z</time></trkpt><trkpt lat="42.237521724237624" lon="13.870765927061187"><ele>488.8</ele><time>2026-05-02T08:38:07.999Z</time></trkpt><trkpt lat="42.23758843322953" lon="13.87067321393071"><ele>491.6</ele><time>2026-05-02T08:38:08.999Z</time></trkpt><trkpt lat="42.23766130588956" lon="13.870582950150968"><ele>494.4</ele><time>2026-05-02T08:38:09.999Z</time></trkpt><trkpt lat="42.237736517924866" lon="13.870484305533253"><ele>497.2</ele><time>2026-05-02T08:38:10.999Z</time></trkpt><trkpt lat="42.23781011541138" lon="13.870381531271494"><ele>500.0</ele><time>2026-05-02T08:38:11.999Z</time></trkpt><trkpt lat="42.2378774768948" lon="13.87027904385785"><ele>500.0</ele><time>2026-05-02T08:38:12.999Z</time></trkpt><trkpt lat="42.23794982194361" lon="13.87018563753761"><ele>500.0</ele><time>2026-05-02T08:38:13.999Z</time></trkpt><trkpt lat="42.23800182070299" lon="13.87008803592005"><ele>500.0</ele><time>2026-05-02T08:38:14.999Z</time></trkpt><trkpt lat="42.23803132696421" lon="13.87000406962347"><ele>500.0</ele><time>2026-05-02T08:38:15.999Z</time></trkpt><trkpt lat="42.237985209998136" lon="13.869826975481432"><ele>500.0</ele><time>2026-05-02T08:38:18Z</time></trkpt><trkpt lat="42.23791726241155" lon="13.869767753838689"><ele>503.0</ele><time>2026-05-02T08:38:19Z</time></trkpt><trkpt lat="42.237835146330916" lon="13.869734016857414"><ele>506.0</ele><time>2026-05-02T08:38:20Z</time></trkpt><trkpt lat="42.23774342554062" lon="13.869708553411034"><ele>509.0</ele><time>2026-05-02T08:38:21Z</time></trkpt><trkpt lat="42.2376496734599" lon="13.869677652908498"><ele>512.0</ele><time>2026-05-02T08:38:22Z</time></trkpt><trkpt lat="42.237555887123186" lon="13.869627104589107"><ele>515.0</ele><time>2026-05-02T08:38:23Z</time></trkpt><trkpt lat="42.23746431050651" lon="13.869573716341565"><ele>515.0</ele><time>2026-05-02T08:38:24Z</time></trkpt><trkpt lat="42.2373754450609" lon="13.869506494154725"><ele>515.0</ele><time>2026-05-02T08:38:25Z</time></trkpt><trkpt lat="42.23728188060473" lon="13.869440682430433"><ele>515.0</ele><time>2026-05-02T08:38:26Z</time></trkpt><trkpt lat="42.23717474811952" lon="13.869381002966863"><ele>515.0</ele><time>2026-05-02T08:38:27Z</time></trkpt><trkpt lat="42.237064959528865" lon="13.8693278712697"><ele>515.0</ele><time>2026-05-02T08:38:28Z</time></trkpt><trkpt lat="42.236962357687894" lon="13.869267772432174"><ele>518.8</ele><time>2026-05-02T08:38:29Z</time></trkpt><trkpt lat="42.23686040358088" lon="13.869210100375547"><ele>522.6</ele><time>2026-05-02T08:38:30Z</time></trkpt><trkpt lat="42.23676410005374" lon="13.869142571165032"><ele>526.4</ele><time>2026-05-02T08:38:31Z</time></trkpt><trkpt lat="42.236666887793454" lon="13.869071544962805"><ele>530.2</ele><time>2026-05-02T08:38:32Z</time></trkpt><trkpt lat="42.23656796787281" lon="13.868997416416123"><ele>534.0</ele><time>2026-05-02T08:38:33Z</time></trkpt><trkpt lat="42.23647025387285" lon="13.868916682136621"><ele>533.0</ele><time>2026-05-02T08:38:34Z</time></trkpt><trkpt lat="42.23637827382662" lon="13.86884168286792"><ele>532.0</ele><time>2026-05-02T08:38:35Z</time></trkpt><trkpt lat="42.23629359080141" lon="13.868775953952568"><ele>531.0</ele><time>2026-05-02T08:38:36Z</time></trkpt><trkpt lat="42.236230484968544" lon="13.868714368262166"><ele>530.0</ele><time>2026-05-02T08:38:37Z</time></trkpt><trkpt lat="42.2361967122593" lon="13.86863873244868"><ele>529.0</ele><time>2026-05-02T08:38:38Z</time></trkpt><trkpt lat="42.23620411722158" lon="13.868544933180095"><ele>528.0</ele><time>2026-05-02T08:38:39Z</time></trkpt><trkpt lat="42.236252590622094" lon="13.868464091918428"><ele>530.0</ele><time>2026-05-02T08:38:40Z</time></trkpt><trkpt lat="42.23633466923252" lon="13.86841624861913"><ele>532.0</ele><time>2026-05-02T08:38:41Z</time></trkpt><trkpt lat="42.23643122430444" lon="13.868394143384384"><ele>534.0</ele><time>2026-05-02T08:38:42Z</time></trkpt><trkpt lat="42.23652577677888" lon="13.868359614660063"><ele>536.0</ele><time>2026-05-02T08:38:43Z</time></trkpt><trkpt lat="42.23661621766057" lon="13.868308293622494"><ele>538.0</ele><time>2026-05-02T08:38:44Z</time></trkpt><trkpt lat="42.23670302909486" lon="13.868251450568525"><ele>540.0</ele><time>2026-05-02T08:38:45Z</time></trkpt><trkpt lat="42.23679062323927" lon="13.868207169661384"><ele>542.0</ele><time>2026-05-02T08:38:46Z</time></trkpt><trkpt lat="42.23688014354622" lon="13.868151582338808"><ele>544.0</ele><time>2026-05-02T08:38:47Z</time></trkpt><trkpt lat="42.236957223271645" lon="13.868128208337595"><ele>546.0</ele><time>2026-05-02T08:38:48Z</time></trkpt><trkpt lat="42.23701980964992" lon="13.868102963603421"><ele>548.0</ele><time>2026-05-02T08:38:49Z</time></trkpt><trkpt lat="42.237089168659296" lon="13.867991714371948"><ele>550.0</ele><time>2026-05-02T08:38:51Z</time></trkpt><trkpt lat="42.2370647656929" lon="13.867906073765347"><ele>550.0</ele><time>2026-05-02T08:38:52Z</time></trkpt><trkpt lat="42.2369905408465" lon="13.86784120268072"><ele>550.0</ele><time>2026-05-02T08:38:53Z</time></trkpt><trkpt lat="42.23690237764502" lon="13.86780455853027"><ele>550.0</ele><time>2026-05-02T08:38:54Z</time></trkpt><trkpt lat="42.236802892214655" lon="13.867763875849425"><ele>550.0</ele><time>2026-05-02T08:38:55Z</time></trkpt><trkpt lat="42.23671409675628" lon="13.867700905671892"><ele>550.0</ele><time>2026-05-02T08:38:56Z</time></trkpt><trkpt lat="42.2366270673507" lon="13.867637994742207"><ele>551.4</ele><time>2026-05-02T08:38:57Z</time></trkpt><trkpt lat="42.23654428977622" lon="13.86756016012897"><ele>552.8</ele><time>2026-05-02T08:38:58Z</time></trkpt><trkpt lat="42.236469459469895" lon="13.8674647085198"><ele>554.2</ele><time>2026-05-02T08:38:59Z</time></trkpt><trkpt lat="42.23641539502635" lon="13.867359712358038"><ele>555.6</ele><time>2026-05-02T08:39:00Z</time></trkpt><trkpt lat="42.2363671900408" lon="13.867251759896142"><ele>557.0</ele><time>2026-05-02T08:39:01Z</time></trkpt><trkpt lat="42.23632903244696" lon="13.86713600316544"><ele>557.0</ele><time>2026-05-02T08:39:02Z</time></trkpt><trkpt lat="42.23628251487663" lon="13.867029070194564"><ele>557.0</ele><time>2026-05-02T08:39:03Z</time></trkpt><trkpt lat="42.23623299371198" lon="13.86691261504686"><ele>557.0</ele><time>2026-05-02T08:39:04Z</time></trkpt><trkpt lat="42.23615864741651" lon="13.866823193923336"><ele>557.0</ele><time>2026-05-02T08:39:05Z</time></trkpt><trkpt lat="42.23606867260156" lon="13.866772715462261"><ele>557.0</ele><time>2026-05-02T08:39:06Z</time></trkpt><trkpt lat="42.23596942323064" lon="13.866749785795134"><ele>557.0</ele><time>2026-05-02T08:39:07Z</time></trkpt><trkpt lat="42.235865846699" lon="13.866785078002572"><ele>557.0</ele><time>2026-05-02T08:39:08Z</time></trkpt><trkpt lat="42.23576659502079" lon="13.866820330983916"><ele>557.0</ele><time>2026-05-02T08:39:09Z</time></trkpt><trkpt lat="42.23567753727193" lon="13.866872455432683"><ele>557.0</ele><time>2026-05-02T08:39:10Z</time></trkpt><trkpt lat="42.23558512526043" lon="13.866901599458469"><ele>557.0</ele><time>2026-05-02T08:39:11Z</time></trkpt><trkpt lat="42.23550128100276" lon="13.866906860084105"><ele>556.0</ele><time>2026-05-02T08:39:12Z</time></trkpt><trkpt lat="42.235401669960694" lon="13.866855818962733"><ele>555.0</ele><time>2026-05-02T08:39:14Z</time></trkpt><trkpt lat="42.235409275830136" lon="13.866745233885215"><ele>554.0</ele><time>2026-05-02T08:39:17Z</time></trkpt><trkpt lat="42.23552819610841" lon="13.866642374237856"><ele>553.0</ele><time>2026-05-02T08:39:19Z</time></trkpt><trkpt lat="42.23560188407151" lon="13.866612752827931"><ele>552.0</ele><time>2026-05-02T08:39:20Z</time></trkpt><trkpt lat="42.235656312755474" lon="13.866521292656465"><ele>556.8000000000001</ele><time>2026-05-02T08:39:22Z</time></trkpt><trkpt lat="42.23558261435151" lon="13.866459355279694"><ele>561.6</ele><time>2026-05-02T08:39:24Z</time></trkpt><trkpt lat="42.23545198669744" lon="13.866447881447534"><ele>566.4000000000001</ele><time>2026-05-02T08:39:26Z</time></trkpt><trkpt lat="42.23537290942942" lon="13.866416275708172"><ele>571.2</ele><time>2026-05-02T08:39:27Z</time></trkpt><trkpt lat="42.23529931224847" lon="13.86635288459768"><ele>576.0</ele><time>2026-05-02T08:39:28Z</time></trkpt><trkpt lat="42.235245377742615" lon="13.86626373798803"><ele>576.0</ele><time>2026-05-02T08:39:29Z</time></trkpt><trkpt lat="42.23519628565895" lon="13.86616373693891"><ele>576.0</ele><time>2026-05-02T08:39:30Z</time></trkpt><trkpt lat="42.235139579025386" lon="13.866071724352837"><ele>576.0</ele><time>2026-05-02T08:39:31Z</time></trkpt><trkpt lat="42.23508233601716" lon="13.865967578251327"><ele>576.0</ele><time>2026-05-02T08:39:32Z</time></trkpt><trkpt lat="42.23502828521253" lon="13.8658631683668"><ele>576.0</ele><time>2026-05-02T08:39:33Z</time></trkpt><trkpt lat="42.23497987523878" lon="13.865765032013817"><ele>575.0</ele><time>2026-05-02T08:39:34Z</time></trkpt><trkpt lat="42.23492750372975" lon="13.865659009564768"><ele>574.0</ele><time>2026-05-02T08:39:35Z</time></trkpt><trkpt lat="42.23485881463734" lon="13.865556597048208"><ele>573.0</ele><time>2026-05-02T08:39:36Z</time></trkpt><trkpt lat="42.234791830821436" lon="13.865457368461385"><ele>572.0</ele><time>2026-05-02T08:39:37Z</time></trkpt><trkpt lat="42.23470919221807" lon="13.86537013790159"><ele>571.0</ele><time>2026-05-02T08:39:38Z</time></trkpt><trkpt lat="42.234608480619144" lon="13.8652829548303"><ele>571.0</ele><time>2026-05-02T08:39:39Z</time></trkpt><trkpt lat="42.23451579885358" lon="13.865186180225566"><ele>571.0</ele><time>2026-05-02T08:39:40Z</time></trkpt><trkpt lat="42.23444020680829" lon="13.865077515137521"><ele>571.0</ele><time>2026-05-02T08:39:40.999Z</time></trkpt><trkpt lat="42.23439074473559" lon="13.864957450690799"><ele>571.0</ele><time>2026-05-02T08:39:41.999Z</time></trkpt><trkpt lat="42.23435188436493" lon="13.86482448442499"><ele>571.0</ele><time>2026-05-02T08:39:42.999Z</time></trkpt><trkpt lat="42.23430228272262" lon="13.864689784317997"><ele>574.6</ele><time>2026-05-02T08:39:43.999Z</time></trkpt><trkpt lat="42.23423083374746" lon="13.864568570830711"><ele>578.2</ele><time>2026-05-02T08:39:44.999Z</time></trkpt><trkpt lat="42.234155289041624" lon="13.864452074600944"><ele>581.8</ele><time>2026-05-02T08:39:45.999Z</time></trkpt><trkpt lat="42.234091231727284" lon="13.864336396902411"><ele>585.4</ele><time>2026-05-02T08:39:46.999Z</time></trkpt><trkpt lat="42.234052985076126" lon="13.864207235229559"><ele>589.0</ele><time>2026-05-02T08:39:47.999Z</time></trkpt><trkpt lat="42.234014940210294" lon="13.864065890711032"><ele>588.75</ele><time>2026-05-02T08:39:48.999Z</time></trkpt><trkpt lat="42.23396823304901" lon="13.863923078592869"><ele>588.5</ele><time>2026-05-02T08:39:49.999Z</time></trkpt><trkpt lat="42.23391863826465" lon="13.863782670952277"><ele>588.25</ele><time>2026-05-02T08:39:50.999Z</time></trkpt><trkpt lat="42.23386759572206" lon="13.863642817097286"><ele>588.0</ele><time>2026-05-02T08:39:51.999Z</time></trkpt><trkpt lat="42.23381419466518" lon="13.863513806174904"><ele>591.5</ele><time>2026-05-02T08:39:52.999Z</time></trkpt><trkpt lat="42.233742562165844" lon="13.863391556805066"><ele>595.0</ele><time>2026-05-02T08:39:53.999Z</time></trkpt><trkpt lat="42.23366139196883" lon="13.863275322283014"><ele>598.5</ele><time>2026-05-02T08:39:54.999Z</time></trkpt><trkpt lat="42.23357915078428" lon="13.863156616081788"><ele>602.0</ele><time>2026-05-02T08:39:55.999Z</time></trkpt><trkpt lat="42.23349366828934" lon="13.863029407466989"><ele>602.0</ele><time>2026-05-02T08:39:56.999Z</time></trkpt><trkpt lat="42.23340380684509" lon="13.8629058732357"><ele>602.0</ele><time>2026-05-02T08:39:57.999Z</time></trkpt><trkpt lat="42.233304362789504" lon="13.862791469472766"><ele>602.0</ele><time>2026-05-02T08:39:58.999Z</time></trkpt><trkpt lat="42.2332053173167" lon="13.862684209935155"><ele>602.0</ele><time>2026-05-02T08:39:59.999Z</time></trkpt><trkpt lat="42.233110901584304" lon="13.862580429667265"><ele>602.0</ele><time>2026-05-02T08:40:00.999Z</time></trkpt><trkpt lat="42.233025465630604" lon="13.862485683252924"><ele>602.0</ele><time>2026-05-02T08:40:01.999Z</time></trkpt><trkpt lat="42.23295536883676" lon="13.862381939467427"><ele>602.0</ele><time>2026-05-02T08:40:02.999Z</time></trkpt><trkpt lat="42.23289882833638" lon="13.8622677141072"><ele>602.0</ele><time>2026-05-02T08:40:03.999Z</time></trkpt><trkpt lat="42.232859483066285" lon="13.862134807931824"><ele>602.0</ele><time>2026-05-02T08:40:04.999Z</time></trkpt><trkpt lat="42.23282614045516" lon="13.861996693623006"><ele>602.0</ele><time>2026-05-02T08:40:05.999Z</time></trkpt><trkpt lat="42.232784350034485" lon="13.861868103192064"><ele>602.0</ele><time>2026-05-02T08:40:06.999Z</time></trkpt><trkpt lat="42.23274572860241" lon="13.861731076102132"><ele>602.0</ele><time>2026-05-02T08:40:07.999Z</time></trkpt><trkpt lat="42.232701737950876" lon="13.861607171634585"><ele>602.0</ele><time>2026-05-02T08:40:08.999Z</time></trkpt><trkpt lat="42.2326578524591" lon="13.861460782010745"><ele>602.0</ele><time>2026-05-02T08:40:09.999Z</time></trkpt><trkpt lat="42.23260234929114" lon="13.861325020865273"><ele>605.0</ele><time>2026-05-02T08:40:10.999Z</time></trkpt><trkpt lat="42.23254205530795" lon="13.861195164840185"><ele>608.0</ele><time>2026-05-02T08:40:11.999Z</time></trkpt><trkpt lat="42.23248821356782" lon="13.861079521411177"><ele>611.0</ele><time>2026-05-02T08:40:12.999Z</time></trkpt><trkpt lat="42.23243969747196" lon="13.860961105373248"><ele>614.0</ele><time>2026-05-02T08:40:13.999Z</time></trkpt><trkpt lat="42.232407469833696" lon="13.860828445376612"><ele>617.0</ele><time>2026-05-02T08:40:14.999Z</time></trkpt><trkpt lat="42.23239285725088" lon="13.860685273956067"><ele>618.3333333333333</ele><time>2026-05-02T08:40:15.999Z</time></trkpt><trkpt lat="42.23238493146404" lon="13.860537375770528"><ele>619.6666666666666</ele><time>2026-05-02T08:40:16.999Z</time></trkpt><trkpt lat="42.23238435363013" lon="13.860396942972606"><ele>621.0</ele><time>2026-05-02T08:40:17.999Z</time></trkpt><trkpt lat="42.23238976281947" lon="13.86028682672115"><ele>622.3333333333334</ele><time>2026-05-02T08:40:18.999Z</time></trkpt><trkpt lat="42.23239998018597" lon="13.860185224889644"><ele>623.6666666666667</ele><time>2026-05-02T08:40:19.999Z</time></trkpt><trkpt lat="42.232406801316436" lon="13.860089160911249"><ele>625.0</ele><time>2026-05-02T08:40:20.999Z</time></trkpt><trkpt lat="42.23239728375565" lon="13.859985905878325"><ele>626.0</ele><time>2026-05-02T08:40:21.999Z</time></trkpt><trkpt lat="42.23235235792883" lon="13.859895085367238"><ele>627.0</ele><time>2026-05-02T08:40:23Z</time></trkpt><trkpt lat="42.23227626286415" lon="13.85984548803971"><ele>628.0</ele><time>2026-05-02T08:40:24Z</time></trkpt><trkpt lat="42.232184809079506" lon="13.859837297707159"><ele>629.0</ele><time>2026-05-02T08:40:25Z</time></trkpt><trkpt lat="42.23209402419881" lon="13.859859640152578"><ele>630.0</ele><time>2026-05-02T08:40:26Z</time></trkpt><trkpt lat="42.232008552472294" lon="13.859869680525897"><ele>631.0</ele><time>2026-05-02T08:40:27Z</time></trkpt><trkpt lat="42.2319223577527" lon="13.859844136362796"><ele>631.6</ele><time>2026-05-02T08:40:28Z</time></trkpt><trkpt lat="42.231833921569894" lon="13.859797299736138"><ele>632.2</ele><time>2026-05-02T08:40:29Z</time></trkpt><trkpt lat="42.23174545257921" lon="13.859768881748543"><ele>632.8</ele><time>2026-05-02T08:40:30Z</time></trkpt><trkpt lat="42.231658273952796" lon="13.859772028116678"><ele>633.4</ele><time>2026-05-02T08:40:31Z</time></trkpt><trkpt lat="42.23156557226579" lon="13.859805066528688"><ele>634.0</ele><time>2026-05-02T08:40:32Z</time></trkpt><trkpt lat="42.2314674796897" lon="13.859844666641882"><ele>636.0</ele><time>2026-05-02T08:40:33Z</time></trkpt><trkpt lat="42.231370905041224" lon="13.859897671631977"><ele>638.0</ele><time>2026-05-02T08:40:34Z</time></trkpt><trkpt lat="42.231283769828345" lon="13.859951083538283"><ele>640.0</ele><time>2026-05-02T08:40:35Z</time></trkpt><trkpt lat="42.23121237024885" lon="13.859989385672261"><ele>642.0</ele><time>2026-05-02T08:40:36Z</time></trkpt><trkpt lat="42.23114147216682" lon="13.860008958266926"><ele>644.0</ele><time>2026-05-02T08:40:37Z</time></trkpt><trkpt lat="42.23101533397235" lon="13.859970843145646"><ele>644.0</ele><time>2026-05-02T08:40:39Z</time></trkpt><trkpt lat="42.230968662853414" lon="13.859896276989415"><ele>644.0</ele><time>2026-05-02T08:40:40Z</time></trkpt><trkpt lat="42.23094011527485" lon="13.859799747881544"><ele>644.0</ele><time>2026-05-02T08:40:41Z</time></trkpt><trkpt lat="42.230923420868784" lon="13.859717150224983"><ele>644.0</ele><time>2026-05-02T08:40:42Z</time></trkpt><trkpt lat="42.230860455859364" lon="13.859644584888011"><ele>644.0</ele><time>2026-05-02T08:40:44Z</time></trkpt><trkpt lat="42.23079027256595" lon="13.859599458000908"><ele>644.0</ele><time>2026-05-02T08:40:46Z</time></trkpt><trkpt lat="42.23071495565254" lon="13.859545869133546"><ele>644.6</ele><time>2026-05-02T08:40:48Z</time></trkpt><trkpt lat="42.23061563016368" lon="13.859497610514557"><ele>645.2</ele><time>2026-05-02T08:40:50Z</time></trkpt><trkpt lat="42.23055277788436" lon="13.859465851235912"><ele>645.8000000000001</ele><time>2026-05-02T08:40:51Z</time></trkpt><trkpt lat="42.23046521980886" lon="13.859416383478477"><ele>646.4000000000001</ele><time>2026-05-02T08:40:53Z</time></trkpt><trkpt lat="42.23038847090454" lon="13.85933068512643"><ele>647.0</ele><time>2026-05-02T08:40:55Z</time></trkpt><trkpt lat="42.23031614306392" lon="13.859264993415021"><ele>649.5</ele><time>2026-05-02T08:40:57Z</time></trkpt><trkpt lat="42.230254313702275" lon="13.85923053206527"><ele>652.0</ele><time>2026-05-02T08:41:00Z</time></trkpt><trkpt lat="42.2301976707882" lon="13.859187102243846"><ele>654.5</ele><time>2026-05-02T08:41:07Z</time></trkpt><trkpt lat="42.230111725780034" lon="13.859122631993007"><ele>657.0</ele><time>2026-05-02T08:41:09Z</time></trkpt><trkpt lat="42.230053112858734" lon="13.859064756104864"><ele>659.5</ele><time>2026-05-02T08:41:10Z</time></trkpt><trkpt lat="42.22997571497532" lon="13.859020598698159"><ele>662.0</ele><time>2026-05-02T08:41:12Z</time></trkpt><trkpt lat="42.22991738770104" lon="13.858968819473562"><ele>662.0</ele><time>2026-05-02T08:41:14Z</time></trkpt><trkpt lat="42.2298205039468" lon="13.85892638658602"><ele>662.0</ele><time>2026-05-02T08:41:17Z</time></trkpt><trkpt lat="42.22972137201664" lon="13.858943564522004"><ele>662.0</ele><time>2026-05-02T08:41:19Z</time></trkpt><trkpt lat="42.22960282284964" lon="13.858900290184671"><ele>662.0</ele><time>2026-05-02T08:41:21Z</time></trkpt><trkpt lat="42.22953868134039" lon="13.858874707798709"><ele>662.0</ele><time>2026-05-02T08:41:22Z</time></trkpt><trkpt lat="42.22946565659487" lon="13.85884638626471"><ele>664.2</ele><time>2026-05-02T08:41:23Z</time></trkpt><trkpt lat="42.22936271797379" lon="13.85879439309977"><ele>666.4000000000001</ele><time>2026-05-02T08:41:25Z</time></trkpt><trkpt lat="42.22928460902973" lon="13.858678758724954"><ele>668.5999999999999</ele><time>2026-05-02T08:41:28Z</time></trkpt><trkpt lat="42.22921494787636" lon="13.858561173902897"><ele>670.8</ele><time>2026-05-02T08:41:30Z</time></trkpt><trkpt lat="42.22918098290606" lon="13.85845734141992"><ele>673.0</ele><time>2026-05-02T08:41:33Z</time></trkpt><trkpt lat="42.229143910884524" lon="13.85838503906066"><ele>675.5</ele><time>2026-05-02T08:41:34Z</time></trkpt><trkpt lat="42.22910968467035" lon="13.858304007806442"><ele>678.0</ele><time>2026-05-02T08:41:35Z</time></trkpt><trkpt lat="42.22903348926433" lon="13.858190160288732"><ele>680.5</ele><time>2026-05-02T08:41:37Z</time></trkpt><trkpt lat="42.228982143747686" lon="13.858107950087524"><ele>683.0</ele><time>2026-05-02T08:41:38Z</time></trkpt><trkpt lat="42.22893014049082" lon="13.858019451649932"><ele>685.5</ele><time>2026-05-02T08:41:39Z</time></trkpt><trkpt lat="42.22887105288094" lon="13.857941020997277"><ele>688.0</ele><time>2026-05-02T08:41:40Z</time></trkpt><trkpt lat="42.228807971478545" lon="13.85787423223924"><ele>689.0</ele><time>2026-05-02T08:41:41Z</time></trkpt><trkpt lat="42.2287394622614" lon="13.857817249845356"><ele>690.0</ele><time>2026-05-02T08:41:42Z</time></trkpt><trkpt lat="42.22867568340067" lon="13.857763791203897"><ele>691.0</ele><time>2026-05-02T08:41:43Z</time></trkpt><trkpt lat="42.22859772883961" lon="13.85770790052099"><ele>692.0</ele><time>2026-05-02T08:41:44Z</time></trkpt><trkpt lat="42.22852783270969" lon="13.85765669584318"><ele>693.0</ele><time>2026-05-02T08:41:45Z</time></trkpt><trkpt lat="42.22846366276837" lon="13.857635900205537"><ele>694.0</ele><time>2026-05-02T08:41:46Z</time></trkpt><trkpt lat="42.22835727040938" lon="13.857696970731817"><ele>694.0</ele><time>2026-05-02T08:41:48Z</time></trkpt><trkpt lat="42.22830210093747" lon="13.857743858940395"><ele>694.0</ele><time>2026-05-02T08:41:49Z</time></trkpt><trkpt lat="42.228220162498104" lon="13.857757626416538"><ele>694.0</ele><time>2026-05-02T08:41:51Z</time></trkpt><trkpt lat="42.22811680761817" lon="13.857688963755605"><ele>694.0</ele><time>2026-05-02T08:41:59.999Z</time></trkpt><trkpt lat="42.22805276132066" lon="13.857622806203596"><ele>694.0</ele><time>2026-05-02T08:42:00.999Z</time></trkpt><trkpt lat="42.22799002755856" lon="13.857577915553373"><ele>694.0</ele><time>2026-05-02T08:42:01.999Z</time></trkpt><trkpt lat="42.22793063772714" lon="13.857537155729766"><ele>700.6</ele><time>2026-05-02T08:42:02.999Z</time></trkpt><trkpt lat="42.22787751788715" lon="13.857484979595212"><ele>707.2</ele><time>2026-05-02T08:42:03.999Z</time></trkpt><trkpt lat="42.22783192366495" lon="13.857385559884568"><ele>713.8000000000001</ele><time>2026-05-02T08:42:05.999Z</time></trkpt><trkpt lat="42.227767205343234" lon="13.857287049595561"><ele>720.4000000000001</ele><time>2026-05-02T08:42:07.999Z</time></trkpt><trkpt lat="42.22769004072123" lon="13.857184919651623"><ele>727.0</ele><time>2026-05-02T08:42:09.999Z</time></trkpt><trkpt lat="42.22761856728252" lon="13.857034372932882"><ele>727.0</ele><time>2026-05-02T08:42:11.999Z</time></trkpt><trkpt lat="42.227595156776154" lon="13.856942647043091"><ele>727.0</ele><time>2026-05-02T08:42:12.999Z</time></trkpt><trkpt lat="42.22756625161389" lon="13.856846979638842"><ele>727.0</ele><time>2026-05-02T08:42:13.999Z</time></trkpt><trkpt lat="42.22752343288733" lon="13.856767430902273"><ele>727.0</ele><time>2026-05-02T08:42:14.999Z</time></trkpt><trkpt lat="42.22742576494986" lon="13.856712948536574"><ele>727.0</ele><time>2026-05-02T08:42:16.999Z</time></trkpt><trkpt lat="42.22735555780286" lon="13.856718217783907"><ele>727.0</ele><time>2026-05-02T08:42:17.999Z</time></trkpt><trkpt lat="42.227289489457945" lon="13.856717652506012"><ele>732.2</ele><time>2026-05-02T08:42:18.999Z</time></trkpt><trkpt lat="42.227214329596784" lon="13.856710629163436"><ele>737.4000000000001</ele><time>2026-05-02T08:42:19.999Z</time></trkpt><trkpt lat="42.227145164190375" lon="13.856710723178656"><ele>742.5999999999999</ele><time>2026-05-02T08:42:20.999Z</time></trkpt><trkpt lat="42.22707798588704" lon="13.856718443358895"><ele>747.8</ele><time>2026-05-02T08:42:21.999Z</time></trkpt><trkpt lat="42.22696932926525" lon="13.856664389163278"><ele>753.0</ele><time>2026-05-02T08:42:23.999Z</time></trkpt><trkpt lat="42.226860643971435" lon="13.856574076016484"><ele>753.0</ele><time>2026-05-02T08:42:25.999Z</time></trkpt><trkpt lat="42.22680377322785" lon="13.856509430642811"><ele>753.0</ele><time>2026-05-02T08:42:26.999Z</time></trkpt><trkpt lat="42.22674485338935" lon="13.85644912821343"><ele>753.0</ele><time>2026-05-02T08:42:27.999Z</time></trkpt><trkpt lat="42.226681266030525" lon="13.856394645181789"><ele>753.0</ele><time>2026-05-02T08:42:29Z</time></trkpt><trkpt lat="42.22662928509635" lon="13.856341783680687"><ele>753.0</ele><time>2026-05-02T08:42:30Z</time></trkpt><trkpt lat="42.22659170005618" lon="13.856272499739106"><ele>753.0</ele><time>2026-05-02T08:42:31Z</time></trkpt><trkpt lat="42.22655970457025" lon="13.85618174208246"><ele>753.0</ele><time>2026-05-02T08:42:32Z</time></trkpt><trkpt lat="42.22653080144652" lon="13.856089701543418"><ele>753.0</ele><time>2026-05-02T08:42:33Z</time></trkpt><trkpt lat="42.22649674487746" lon="13.856003140724061"><ele>753.0</ele><time>2026-05-02T08:42:34Z</time></trkpt><trkpt lat="42.22644504839187" lon="13.85593083002785"><ele>753.0</ele><time>2026-05-02T08:42:35Z</time></trkpt><trkpt lat="42.2263726831474" lon="13.85585513140207"><ele>753.0</ele><time>2026-05-02T08:42:36Z</time></trkpt><trkpt lat="42.22630942892068" lon="13.855765716057729"><ele>753.0</ele><time>2026-05-02T08:42:37Z</time></trkpt><trkpt lat="42.226260346086896" lon="13.855676714185488"><ele>753.0</ele><time>2026-05-02T08:42:38Z</time></trkpt><trkpt lat="42.22621863612379" lon="13.855604800816218"><ele>755.6666666666666</ele><time>2026-05-02T08:42:39Z</time></trkpt><trkpt lat="42.226163057639674" lon="13.855530183153528"><ele>758.3333333333333</ele><time>2026-05-02T08:42:40Z</time></trkpt><trkpt lat="42.22609966304828" lon="13.855464082734839"><ele>761.0</ele><time>2026-05-02T08:42:41Z</time></trkpt><trkpt lat="42.22602705834016" lon="13.855402458896366"><ele>763.6666666666666</ele><time>2026-05-02T08:42:42Z</time></trkpt><trkpt lat="42.225947073264024" lon="13.85534878589889"><ele>766.3333333333333</ele><time>2026-05-02T08:42:43Z</time></trkpt><trkpt lat="42.225854825805136" lon="13.855289666392533"><ele>769.0</ele><time>2026-05-02T08:42:44Z</time></trkpt><trkpt lat="42.225755725902374" lon="13.855254042433351"><ele>768.9999999999999</ele><time>2026-05-02T08:42:45Z</time></trkpt><trkpt lat="42.22566062739029" lon="13.855248248554657"><ele>769.0</ele><time>2026-05-02T08:42:46Z</time></trkpt><trkpt lat="42.22558786756584" lon="13.855238107802041"><ele>769.0</ele><time>2026-05-02T08:42:47Z</time></trkpt><trkpt lat="42.2254988723422" lon="13.855227569042885"><ele>769.0</ele><time>2026-05-02T08:42:49Z</time></trkpt><trkpt lat="42.22543596380696" lon="13.855187687155606"><ele>768.9999999999999</ele><time>2026-05-02T08:43:04Z</time></trkpt><trkpt lat="42.225395165252884" lon="13.855092875697789"><ele>769.0</ele><time>2026-05-02T08:43:19Z</time></trkpt><trkpt lat="42.22535041365883" lon="13.855008367793062"><ele>771.3333333333333</ele><time>2026-05-02T08:43:24Z</time></trkpt><trkpt lat="42.22527529946652" lon="13.8550184153122"><ele>773.6666666666666</ele><time>2026-05-02T08:43:26Z</time></trkpt><trkpt lat="42.225374060859984" lon="13.855016407781777"><ele>776.0</ele><time>2026-05-02T08:43:27Z</time></trkpt><trkpt lat="42.225332803893004" lon="13.854935897759702"><ele>778.3333333333333</ele><time>2026-05-02T08:45:32Z</time></trkpt><trkpt lat="42.225297205283965" lon="13.854860363969527"><ele>780.6666666666666</ele><time>2026-05-02T08:46:34.999Z</time></trkpt><trkpt lat="42.225283488892686" lon="13.854767728136004"><ele>783.0</ele><time>2026-05-02T08:46:38.999Z</time></trkpt><trkpt lat="42.225252445108644" lon="13.854676284508916"><ele>783.0</ele><time>2026-05-02T08:46:43Z</time></trkpt><trkpt lat="42.225234465240206" lon="13.854592076526124"><ele>783.0</ele><time>2026-05-02T08:46:49Z</time></trkpt><trkpt lat="42.22521409820436" lon="13.85449708235477"><ele>783.0</ele><time>2026-05-02T08:47:24Z</time></trkpt><trkpt lat="42.22514488761569" lon="13.85433685346492"><ele>783.0</ele><time>2026-05-02T08:49:00.001Z</time></trkpt><trkpt lat="42.22511333281037" lon="13.85423755963925"><ele>783.0</ele><time>2026-05-02T08:49:03.001Z</time></trkpt><trkpt lat="42.225075339024734" lon="13.854124514872364"><ele>783.0</ele><time>2026-05-02T08:49:05.001Z</time></trkpt><trkpt lat="42.22503689011649" lon="13.854033705489355"><ele>784.0</ele><time>2026-05-02T08:49:08.001Z</time></trkpt><trkpt lat="42.22502082408909" lon="13.853890021422512"><ele>785.0</ele><time>2026-05-02T08:49:10.001Z</time></trkpt><trkpt lat="42.22501236963933" lon="13.853745327522246"><ele>786.0</ele><time>2026-05-02T08:49:12.001Z</time></trkpt><trkpt lat="42.22499300869788" lon="13.85364896787562"><ele>787.0</ele><time>2026-05-02T08:49:14.001Z</time></trkpt><trkpt lat="42.224993032409735" lon="13.853537630296307"><ele>788.0</ele><time>2026-05-02T08:49:17.001Z</time></trkpt><trkpt lat="42.22498662218866" lon="13.853622362028498"><ele>789.0</ele><time>2026-05-02T08:50:23Z</time></trkpt><trkpt lat="42.22499828809096" lon="13.853726848686188"><ele>788.9999999999999</ele><time>2026-05-02T08:50:28Z</time></trkpt><trkpt lat="42.22501558694403" lon="13.853809345211191"><ele>789.0</ele><time>2026-05-02T08:50:33Z</time></trkpt><trkpt lat="42.22501824240931" lon="13.853901321106845"><ele>789.0</ele><time>2026-05-02T08:50:38Z</time></trkpt><trkpt lat="42.225034037641564" lon="13.854000072459266"><ele>789.0</ele><time>2026-05-02T08:50:43Z</time></trkpt><trkpt lat="42.22505240331065" lon="13.854084752009118"><ele>789.0</ele><time>2026-05-02T08:50:48Z</time></trkpt><trkpt lat="42.22508240014039" lon="13.854168481541121"><ele>788.9999999999999</ele><time>2026-05-02T08:50:54.001Z</time></trkpt><trkpt lat="42.22514434160725" lon="13.854224014546551"><ele>789.0</ele><time>2026-05-02T08:51:39Z</time></trkpt><trkpt lat="42.22508195788084" lon="13.854173737382899"><ele>788.9999999999999</ele><time>2026-05-02T08:52:20Z</time></trkpt><trkpt lat="42.22504764777188" lon="13.85408335776856"><ele>789.0</ele><time>2026-05-02T08:52:25Z</time></trkpt><trkpt lat="42.22501990185039" lon="13.85398482028078"><ele>789.0</ele><time>2026-05-02T08:52:30Z</time></trkpt><trkpt lat="42.22500711386551" lon="13.853879929999929"><ele>789.0</ele><time>2026-05-02T08:52:35Z</time></trkpt><trkpt lat="42.22500990002879" lon="13.853787155268838"><ele>789.0</ele><time>2026-05-02T08:52:40Z</time></trkpt><trkpt lat="42.22500369387758" lon="13.85369408111371"><ele>788.9999999999999</ele><time>2026-05-02T08:52:44Z</time></trkpt><trkpt lat="42.224981971515994" lon="13.853598743611263"><ele>789.0</ele><time>2026-05-02T08:52:48.999Z</time></trkpt><trkpt lat="42.22497945379442" lon="13.853498341937682"><ele>789.1666666666666</ele><time>2026-05-02T08:52:53.999Z</time></trkpt><trkpt lat="42.22499854129162" lon="13.853411653674952"><ele>789.3333333333333</ele><time>2026-05-02T08:54:36Z</time></trkpt><trkpt lat="42.22501661862862" lon="13.853316670029917"><ele>789.5</ele><time>2026-05-02T08:54:37Z</time></trkpt><trkpt lat="42.22505310238917" lon="13.853189751958983"><ele>789.6666666666666</ele><time>2026-05-02T08:54:39Z</time></trkpt><trkpt lat="42.22510805702068" lon="13.853046171601656"><ele>789.8333333333333</ele><time>2026-05-02T08:54:41Z</time></trkpt><trkpt lat="42.22514344497327" lon="13.852960048890267"><ele>790.0</ele><time>2026-05-02T08:54:41.999Z</time></trkpt><trkpt lat="42.22519002511867" lon="13.852864600329658"><ele>789.9999999999999</ele><time>2026-05-02T08:54:42.999Z</time></trkpt><trkpt lat="42.225239561366735" lon="13.852760695231204"><ele>790.0</ele><time>2026-05-02T08:54:43.999Z</time></trkpt><trkpt lat="42.22529374634945" lon="13.852659001655208"><ele>790.0</ele><time>2026-05-02T08:54:44.999Z</time></trkpt><trkpt lat="42.225350701478675" lon="13.85259812467034"><ele>790.0</ele><time>2026-05-02T08:54:45.999Z</time></trkpt><trkpt lat="42.2254070645454" lon="13.852545344379303"><ele>789.9999999999999</ele><time>2026-05-02T08:54:46.999Z</time></trkpt><trkpt lat="42.225463326626915" lon="13.852479929473319"><ele>790.0</ele><time>2026-05-02T08:54:47.999Z</time></trkpt><trkpt lat="42.22550045640062" lon="13.852405199367295"><ele>790.4</ele><time>2026-05-02T08:54:48.999Z</time></trkpt><trkpt lat="42.225529078907705" lon="13.852324503462384"><ele>790.8</ele><time>2026-05-02T08:54:49.999Z</time></trkpt><trkpt lat="42.225552938686285" lon="13.852238788809224"><ele>791.2</ele><time>2026-05-02T08:54:50.999Z</time></trkpt><trkpt lat="42.22558705628005" lon="13.852080168650795"><ele>791.6</ele><time>2026-05-02T08:54:52.999Z</time></trkpt><trkpt lat="42.225603190993276" lon="13.851896647777842"><ele>792.0</ele><time>2026-05-02T08:54:54.999Z</time></trkpt><trkpt lat="42.22561232112097" lon="13.851792803519869"><ele>794.1666666666666</ele><time>2026-05-02T08:54:55.999Z</time></trkpt><trkpt lat="42.2256197578308" lon="13.851699895945012"><ele>796.3333333333333</ele><time>2026-05-02T08:54:56.999Z</time></trkpt><trkpt lat="42.22562980669421" lon="13.851591380367601"><ele>798.5</ele><time>2026-05-02T08:54:57.999Z</time></trkpt><trkpt lat="42.22563907638716" lon="13.851476076553011"><ele>800.6666666666666</ele><time>2026-05-02T08:54:58.999Z</time></trkpt><trkpt lat="42.225649149229476" lon="13.85137158317963"><ele>802.8333333333333</ele><time>2026-05-02T08:54:59.999Z</time></trkpt><trkpt lat="42.225657725532066" lon="13.851260164092833"><ele>805.0</ele><time>2026-05-02T08:55:00.999Z</time></trkpt><trkpt lat="42.22566402160462" lon="13.85116217623282"><ele>806.4999999999999</ele><time>2026-05-02T08:55:01.999Z</time></trkpt><trkpt lat="42.22565950124852" lon="13.85106275243283"><ele>808.0</ele><time>2026-05-02T08:55:02.999Z</time></trkpt><trkpt lat="42.22565439711207" lon="13.850956310637859"><ele>809.5</ele><time>2026-05-02T08:55:03.999Z</time></trkpt><trkpt lat="42.225655569203745" lon="13.850858849230782"><ele>811.0</ele><time>2026-05-02T08:55:05Z</time></trkpt><trkpt lat="42.22564088711511" lon="13.850756231106653"><ele>812.4999999999999</ele><time>2026-05-02T08:55:06Z</time></trkpt><trkpt lat="42.22562420448783" lon="13.850655459874861"><ele>814.0</ele><time>2026-05-02T08:55:07Z</time></trkpt><trkpt lat="42.225611850724434" lon="13.850555644102986"><ele>815.1666666666666</ele><time>2026-05-02T08:55:08Z</time></trkpt><trkpt lat="42.22560169567866" lon="13.850445799269991"><ele>816.3333333333333</ele><time>2026-05-02T08:55:09Z</time></trkpt><trkpt lat="42.225589292876" lon="13.850338157433306"><ele>817.5</ele><time>2026-05-02T08:55:10Z</time></trkpt><trkpt lat="42.22557655444134" lon="13.850225973218043"><ele>818.6666666666667</ele><time>2026-05-02T08:55:11Z</time></trkpt><trkpt lat="42.22556828944137" lon="13.850123365047155"><ele>819.8333333333334</ele><time>2026-05-02T08:55:12Z</time></trkpt><trkpt lat="42.22556276615472" lon="13.85002975447683"><ele>821.0</ele><time>2026-05-02T08:55:13Z</time></trkpt><trkpt lat="42.22555313846982" lon="13.849922882729256"><ele>823.8333333333334</ele><time>2026-05-02T08:55:14Z</time></trkpt><trkpt lat="42.2255370341691" lon="13.849822990340758"><ele>826.6666666666667</ele><time>2026-05-02T08:55:15Z</time></trkpt><trkpt lat="42.22550890911921" lon="13.849712756867687"><ele>829.5</ele><time>2026-05-02T08:55:16Z</time></trkpt><trkpt lat="42.22548958969299" lon="13.849612937357227"><ele>832.3333333333333</ele><time>2026-05-02T08:55:17Z</time></trkpt><trkpt lat="42.22548123241322" lon="13.849477763048192"><ele>835.1666666666666</ele><time>2026-05-02T08:55:19Z</time></trkpt><trkpt lat="42.22554993892778" lon="13.849378835402925"><ele>838.0</ele><time>2026-05-02T08:55:21Z</time></trkpt><trkpt lat="42.22566546033683" lon="13.849327410137992"><ele>839.8571428571428</ele><time>2026-05-02T08:55:23Z</time></trkpt><trkpt lat="42.22573662912868" lon="13.849299204753466"><ele>841.7142857142857</ele><time>2026-05-02T08:55:24Z</time></trkpt><trkpt lat="42.22580896298283" lon="13.849295974889891"><ele>843.5714285714286</ele><time>2026-05-02T08:55:25Z</time></trkpt><trkpt lat="42.22587993109643" lon="13.849281363037454"><ele>845.4285714285713</ele><time>2026-05-02T08:55:26Z</time></trkpt><trkpt lat="42.225952007933316" lon="13.849233474336724"><ele>847.2857142857143</ele><time>2026-05-02T08:55:27Z</time></trkpt><trkpt lat="42.22601970512192" lon="13.849183218339569"><ele>849.1428571428571</ele><time>2026-05-02T08:55:28Z</time></trkpt><trkpt lat="42.22608284809824" lon="13.849162533817955"><ele>851.0</ele><time>2026-05-02T08:55:29Z</time></trkpt><trkpt lat="42.22616427961388" lon="13.849133788498705"><ele>853.7142857142858</ele><time>2026-05-02T08:55:30Z</time></trkpt><trkpt lat="42.226240403699954" lon="13.849114593773907"><ele>856.4285714285714</ele><time>2026-05-02T08:55:31Z</time></trkpt><trkpt lat="42.226314303459986" lon="13.8491045995448"><ele>859.1428571428571</ele><time>2026-05-02T08:55:32Z</time></trkpt><trkpt lat="42.226385396519014" lon="13.849095786376443"><ele>861.8571428571429</ele><time>2026-05-02T08:55:33Z</time></trkpt><trkpt lat="42.22645164494416" lon="13.84908794176291"><ele>864.5714285714286</ele><time>2026-05-02T08:55:34Z</time></trkpt><trkpt lat="42.226524726094546" lon="13.849070444760823"><ele>867.2857142857143</ele><time>2026-05-02T08:55:35Z</time></trkpt><trkpt lat="42.22659099494992" lon="13.849046540738048"><ele>870.0</ele><time>2026-05-02T08:55:36Z</time></trkpt><trkpt lat="42.22665921796576" lon="13.849025005406846"><ele>870.0</ele><time>2026-05-02T08:55:37Z</time></trkpt><trkpt lat="42.22674523301707" lon="13.84900907040958"><ele>870.0</ele><time>2026-05-02T08:55:38Z</time></trkpt><trkpt lat="42.22682415875178" lon="13.84899754864727"><ele>870.0</ele><time>2026-05-02T08:55:39Z</time></trkpt><trkpt lat="42.22689798440876" lon="13.848986411416922"><ele>870.0</ele><time>2026-05-02T08:55:40Z</time></trkpt><trkpt lat="42.22698524379493" lon="13.848974321696991"><ele>870.0</ele><time>2026-05-02T08:55:41Z</time></trkpt><trkpt lat="42.22708680068259" lon="13.848954680924095"><ele>870.0</ele><time>2026-05-02T08:55:42Z</time></trkpt><trkpt lat="42.227189584552974" lon="13.84891757307853"><ele>870.0</ele><time>2026-05-02T08:55:43Z</time></trkpt><trkpt lat="42.22727461558594" lon="13.848901907986203"><ele>870.0</ele><time>2026-05-02T08:55:44Z</time></trkpt><trkpt lat="42.227414344482405" lon="13.848843985291248"><ele>870.0</ele><time>2026-05-02T08:55:46Z</time></trkpt><trkpt lat="42.22750716149873" lon="13.848812394465865"><ele>870.0</ele><time>2026-05-02T08:55:47Z</time></trkpt><trkpt lat="42.227601285850355" lon="13.848822971931108"><ele>870.0</ele><time>2026-05-02T08:55:48Z</time></trkpt><trkpt lat="42.22770187412019" lon="13.848849528023816"><ele>870.2</ele><time>2026-05-02T08:55:49Z</time></trkpt><trkpt lat="42.22781155556403" lon="13.848890885662694"><ele>870.4</ele><time>2026-05-02T08:55:50Z</time></trkpt><trkpt lat="42.22791791869338" lon="13.848927687173603"><ele>870.5999999999999</ele><time>2026-05-02T08:55:51Z</time></trkpt><trkpt lat="42.22802016945515" lon="13.848964930666753"><ele>870.8</ele><time>2026-05-02T08:55:52Z</time></trkpt><trkpt lat="42.228093789059955" lon="13.848986829027988"><ele>871.0</ele><time>2026-05-02T08:55:53Z</time></trkpt><trkpt lat="42.2281815201239" lon="13.848997510323315"><ele>871.0</ele><time>2026-05-02T08:55:54Z</time></trkpt><trkpt lat="42.22828686924684" lon="13.848990087549547"><ele>870.9999999999999</ele><time>2026-05-02T08:55:55Z</time></trkpt><trkpt lat="42.228377764620106" lon="13.849009763598936"><ele>870.9999999999999</ele><time>2026-05-02T08:55:56Z</time></trkpt><trkpt lat="42.228460616750645" lon="13.849009541135185"><ele>871.0</ele><time>2026-05-02T08:55:57Z</time></trkpt><trkpt lat="42.22855084107494" lon="13.848982766802413"><ele>871.0</ele><time>2026-05-02T08:55:58Z</time></trkpt><trkpt lat="42.22864433020777" lon="13.84893686887178"><ele>871.0</ele><time>2026-05-02T08:55:59Z</time></trkpt><trkpt lat="42.2287423846906" lon="13.84889828813994"><ele>870.9999999999999</ele><time>2026-05-02T08:56:00Z</time></trkpt><trkpt lat="42.228829856574116" lon="13.848914830679071"><ele>870.9999999999999</ele><time>2026-05-02T08:56:01Z</time></trkpt><trkpt lat="42.22891964403815" lon="13.848975688392246"><ele>871.0</ele><time>2026-05-02T08:56:02Z</time></trkpt><trkpt lat="42.229007710408304" lon="13.849046400242528"><ele>871.0</ele><time>2026-05-02T08:56:03Z</time></trkpt><trkpt lat="42.2291290604316" lon="13.8491246189522"><ele>873.1999999999999</ele><time>2026-05-02T08:56:04Z</time></trkpt><trkpt lat="42.2292364165987" lon="13.849183226074354"><ele>875.3999999999999</ele><time>2026-05-02T08:56:05Z</time></trkpt><trkpt lat="42.22932850613108" lon="13.849245034459061"><ele>877.6</ele><time>2026-05-02T08:56:06Z</time></trkpt><trkpt lat="42.22939691570978" lon="13.84934308036965"><ele>879.8</ele><time>2026-05-02T08:56:07Z</time></trkpt><trkpt lat="42.229457731275545" lon="13.849390758583976"><ele>882.0</ele><time>2026-05-02T08:56:08Z</time></trkpt><trkpt lat="42.22953041502873" lon="13.84939036150382"><ele>882.0</ele><time>2026-05-02T08:56:09Z</time></trkpt><trkpt lat="42.22960645631652" lon="13.849347093234186"><ele>882.0</ele><time>2026-05-02T08:56:10Z</time></trkpt><trkpt lat="42.22968769482858" lon="13.849278999301584"><ele>882.0</ele><time>2026-05-02T08:56:11Z</time></trkpt><trkpt lat="42.22977442726041" lon="13.849195899719549"><ele>882.0</ele><time>2026-05-02T08:56:12Z</time></trkpt><trkpt lat="42.2298674617148" lon="13.849156923447103"><ele>882.0</ele><time>2026-05-02T08:56:13Z</time></trkpt><trkpt lat="42.22995671134472" lon="13.849140169425525"><ele>883.0</ele><time>2026-05-02T08:56:14Z</time></trkpt><trkpt lat="42.230084816321785" lon="13.849112200869712"><ele>884.0</ele><time>2026-05-02T08:56:15Z</time></trkpt><trkpt lat="42.23019804953567" lon="13.849123321821317"><ele>885.0</ele><time>2026-05-02T08:56:16Z</time></trkpt><trkpt lat="42.23027978509759" lon="13.84898088777373"><ele>886.0</ele><time>2026-05-02T08:56:17Z</time></trkpt><trkpt lat="42.230411399676306" lon="13.848914869293406"><ele>886.0</ele><time>2026-05-02T08:56:18Z</time></trkpt><trkpt lat="42.230533528594734" lon="13.848879123639662"><ele>886.0</ele><time>2026-05-02T08:56:19Z</time></trkpt><trkpt lat="42.23062832669045" lon="13.848811571457386"><ele>886.0</ele><time>2026-05-02T08:56:20Z</time></trkpt><trkpt lat="42.23073013663098" lon="13.84875446215626"><ele>886.0</ele><time>2026-05-02T08:56:21Z</time></trkpt><trkpt lat="42.230835880985744" lon="13.848704837172473"><ele>886.0</ele><time>2026-05-02T08:56:22Z</time></trkpt><trkpt lat="42.23095107374881" lon="13.848666517025668"><ele>886.0</ele><time>2026-05-02T08:56:23Z</time></trkpt><trkpt lat="42.231078921470285" lon="13.8486026783033"><ele>886.0</ele><time>2026-05-02T08:56:24Z</time></trkpt><trkpt lat="42.2312052323492" lon="13.848545890344242"><ele>886.0</ele><time>2026-05-02T08:56:25Z</time></trkpt><trkpt lat="42.23132408070318" lon="13.84849119241181"><ele>890.0</ele><time>2026-05-02T08:56:26Z</time></trkpt><trkpt lat="42.23142577776135" lon="13.84842649404971"><ele>893.9999999999999</ele><time>2026-05-02T08:56:27Z</time></trkpt><trkpt lat="42.231517006599475" lon="13.84838880019837"><ele>897.9999999999999</ele><time>2026-05-02T08:56:28Z</time></trkpt><trkpt lat="42.23161351223588" lon="13.848386822751321"><ele>902.0</ele><time>2026-05-02T08:56:29Z</time></trkpt><trkpt lat="42.23169898816596" lon="13.848402023736686"><ele>906.0</ele><time>2026-05-02T08:56:30Z</time></trkpt><trkpt lat="42.231774492381994" lon="13.848403564341695"><ele>906.0</ele><time>2026-05-02T08:56:31Z</time></trkpt><trkpt lat="42.231852919305965" lon="13.84839793401151"><ele>906.0</ele><time>2026-05-02T08:56:32Z</time></trkpt><trkpt lat="42.23193731772043" lon="13.848375300335023"><ele>906.0</ele><time>2026-05-02T08:56:33Z</time></trkpt><trkpt lat="42.23201115989589" lon="13.84835197566027"><ele>906.0</ele><time>2026-05-02T08:56:34Z</time></trkpt><trkpt lat="42.232071868603924" lon="13.848306655557566"><ele>906.0</ele><time>2026-05-02T08:56:35Z</time></trkpt><trkpt lat="42.23212472533651" lon="13.848216724159133"><ele>906.0</ele><time>2026-05-02T08:56:36Z</time></trkpt><trkpt lat="42.23217523602446" lon="13.848123486684962"><ele>905.9999999999999</ele><time>2026-05-02T08:56:37Z</time></trkpt><trkpt lat="42.232234512183716" lon="13.84806778891054"><ele>906.0</ele><time>2026-05-02T08:56:38Z</time></trkpt><trkpt lat="42.23230619582384" lon="13.848034957600678"><ele>905.9999999999999</ele><time>2026-05-02T08:56:39Z</time></trkpt><trkpt lat="42.23237239738895" lon="13.848027704421991"><ele>905.9999999999999</ele><time>2026-05-02T08:56:40Z</time></trkpt><trkpt lat="42.23245538604466" lon="13.848036396201309"><ele>906.0</ele><time>2026-05-02T08:56:40.999Z</time></trkpt><trkpt lat="42.232531536606686" lon="13.848046052391958"><ele>905.9999999999999</ele><time>2026-05-02T08:56:41.999Z</time></trkpt><trkpt lat="42.23259382102709" lon="13.847999471709059"><ele>905.9999999999999</ele><time>2026-05-02T08:56:47.999Z</time></trkpt><trkpt lat="42.23250961691418" lon="13.847928227231119"><ele>906.0</ele><time>2026-05-02T08:57:02.999Z</time></trkpt><trkpt lat="42.23245306710812" lon="13.847881733691853"><ele>906.0</ele><time>2026-05-02T08:57:03.999Z</time></trkpt><trkpt lat="42.232382766971234" lon="13.847818399163424"><ele>906.0</ele><time>2026-05-02T08:57:04.999Z</time></trkpt><trkpt lat="42.232330521653786" lon="13.847710536221786"><ele>906.0</ele><time>2026-05-02T08:57:05.999Z</time></trkpt><trkpt lat="42.23225789640905" lon="13.84766471281426"><ele>906.0</ele><time>2026-05-02T08:57:06.999Z</time></trkpt><trkpt lat="42.23215985582407" lon="13.847601335941908"><ele>906.0</ele><time>2026-05-02T08:57:07.999Z</time></trkpt><trkpt lat="42.23206276526545" lon="13.847520416211614"><ele>911.0</ele><time>2026-05-02T08:57:08.999Z</time></trkpt><trkpt lat="42.231964626477094" lon="13.84741865419816"><ele>915.9999999999999</ele><time>2026-05-02T08:57:09.999Z</time></trkpt><trkpt lat="42.23185944919751" lon="13.847336708298906"><ele>920.9999999999999</ele><time>2026-05-02T08:57:11Z</time></trkpt><trkpt lat="42.23175814813326" lon="13.847295625595612"><ele>926.0</ele><time>2026-05-02T08:57:12Z</time></trkpt><trkpt lat="42.23167465609357" lon="13.847275848664225"><ele>931.0</ele><time>2026-05-02T08:57:13Z</time></trkpt><trkpt lat="42.231591820022985" lon="13.847248729024631"><ele>930.9999999999999</ele><time>2026-05-02T08:57:14Z</time></trkpt><trkpt lat="42.23151012755403" lon="13.847229304564362"><ele>931.0</ele><time>2026-05-02T08:57:15Z</time></trkpt><trkpt lat="42.23142272252844" lon="13.847208521352984"><ele>931.0</ele><time>2026-05-02T08:57:16Z</time></trkpt><trkpt lat="42.231345010771896" lon="13.847177223086955"><ele>931.0</ele><time>2026-05-02T08:57:17Z</time></trkpt><trkpt lat="42.23127609688204" lon="13.847132105953536"><ele>930.9999999999999</ele><time>2026-05-02T08:57:18Z</time></trkpt><trkpt lat="42.23120084943839" lon="13.847058200999651"><ele>931.0</ele><time>2026-05-02T08:57:19Z</time></trkpt><trkpt lat="42.23111166071235" lon="13.84697740614817"><ele>931.0</ele><time>2026-05-02T08:57:20Z</time></trkpt><trkpt lat="42.23101763084808" lon="13.846931864514557"><ele>930.9999999999999</ele><time>2026-05-02T08:57:21Z</time></trkpt><trkpt lat="42.23093245838502" lon="13.846904571193273"><ele>930.9999999999999</ele><time>2026-05-02T08:57:22Z</time></trkpt><trkpt lat="42.230850514925365" lon="13.846911405855513"><ele>931.0</ele><time>2026-05-02T08:57:23Z</time></trkpt><trkpt lat="42.23076601658548" lon="13.846919576978452"><ele>931.0</ele><time>2026-05-02T08:57:24Z</time></trkpt><trkpt lat="42.23066964205652" lon="13.846954845052094"><ele>931.5999999999999</ele><time>2026-05-02T08:57:25Z</time></trkpt><trkpt lat="42.23057294141879" lon="13.846993404199763"><ele>932.1999999999999</ele><time>2026-05-02T08:57:26Z</time></trkpt><trkpt lat="42.230477430709314" lon="13.847028454683228"><ele>932.8000000000001</ele><time>2026-05-02T08:57:27Z</time></trkpt><trkpt lat="42.230385974952014" lon="13.847059336395805"><ele>933.4000000000001</ele><time>2026-05-02T08:57:28Z</time></trkpt><trkpt lat="42.23029815382286" lon="13.847088990702769"><ele>934.0</ele><time>2026-05-02T08:57:29Z</time></trkpt><trkpt lat="42.23020954592268" lon="13.847119802960885"><ele>934.0</ele><time>2026-05-02T08:57:30Z</time></trkpt><trkpt lat="42.23012091134551" lon="13.847151266806668"><ele>934.0000000000001</ele><time>2026-05-02T08:57:31Z</time></trkpt><trkpt lat="42.23002834283049" lon="13.84718788714116"><ele>934.0000000000001</ele><time>2026-05-02T08:57:32Z</time></trkpt><trkpt lat="42.22993410985606" lon="13.847232355594482"><ele>934.0</ele><time>2026-05-02T08:57:33Z</time></trkpt><trkpt lat="42.229835189838965" lon="13.847280858257538"><ele>934.0</ele><time>2026-05-02T08:57:34Z</time></trkpt><trkpt lat="42.22973405440429" lon="13.847329283541004"><ele>935.2</ele><time>2026-05-02T08:57:35Z</time></trkpt><trkpt lat="42.22964858072173" lon="13.84739802709381"><ele>936.4000000000001</ele><time>2026-05-02T08:57:36Z</time></trkpt><trkpt lat="42.22955836826946" lon="13.847441091953874"><ele>937.6</ele><time>2026-05-02T08:57:37Z</time></trkpt><trkpt lat="42.22946361190896" lon="13.847488606314474"><ele>938.8</ele><time>2026-05-02T08:57:38Z</time></trkpt><trkpt lat="42.2293499600184" lon="13.847542281622303"><ele>940.0</ele><time>2026-05-02T08:57:39Z</time></trkpt><trkpt lat="42.22923636340097" lon="13.847590259480102"><ele>940.0</ele><time>2026-05-02T08:57:40Z</time></trkpt><trkpt lat="42.229116912196524" lon="13.847620726044717"><ele>940.0</ele><time>2026-05-02T08:57:41Z</time></trkpt><trkpt lat="42.22899570181763" lon="13.847639796769323"><ele>940.0</ele><time>2026-05-02T08:57:42Z</time></trkpt><trkpt lat="42.228878348487484" lon="13.847658851675783"><ele>940.0</ele><time>2026-05-02T08:57:43Z</time></trkpt><trkpt lat="42.22876939926544" lon="13.84768491230211"><ele>933.2</ele><time>2026-05-02T08:57:44Z</time></trkpt><trkpt lat="42.22866604511776" lon="13.847714096857079"><ele>926.4</ele><time>2026-05-02T08:57:45Z</time></trkpt><trkpt lat="42.2285731480391" lon="13.847741344393853"><ele>919.5999999999999</ele><time>2026-05-02T08:57:46Z</time></trkpt><trkpt lat="42.22848634014512" lon="13.847765184475936"><ele>912.8</ele><time>2026-05-02T08:57:47Z</time></trkpt><trkpt lat="42.228394091084695" lon="13.84778375845996"><ele>906.0</ele><time>2026-05-02T08:57:48Z</time></trkpt><trkpt lat="42.228299653675634" lon="13.847795133573168"><ele>906.0</ele><time>2026-05-02T08:57:49Z</time></trkpt><trkpt lat="42.22820402597512" lon="13.847800333701894"><ele>905.9999999999999</ele><time>2026-05-02T08:57:50Z</time></trkpt><trkpt lat="42.228096363417784" lon="13.847808454430968"><ele>905.9999999999999</ele><time>2026-05-02T08:57:51Z</time></trkpt><trkpt lat="42.2279907070088" lon="13.847821984789366"><ele>906.0</ele><time>2026-05-02T08:57:52Z</time></trkpt><trkpt lat="42.227890010691944" lon="13.847823095969886"><ele>906.0</ele><time>2026-05-02T08:57:53Z</time></trkpt><trkpt lat="42.22777592983549" lon="13.847818692052098"><ele>905.25</ele><time>2026-05-02T08:57:54Z</time></trkpt><trkpt lat="42.227655128603644" lon="13.847811512775774"><ele>904.5</ele><time>2026-05-02T08:57:55Z</time></trkpt><trkpt lat="42.227518554163915" lon="13.84780179769711"><ele>903.75</ele><time>2026-05-02T08:57:56Z</time></trkpt><trkpt lat="42.2273727426778" lon="13.847793548225445"><ele>903.0</ele><time>2026-05-02T08:57:57Z</time></trkpt><trkpt lat="42.2272174196414" lon="13.847783745532885"><ele>903.0</ele><time>2026-05-02T08:57:58Z</time></trkpt><trkpt lat="42.22705341035282" lon="13.847767222934522"><ele>903.0</ele><time>2026-05-02T08:57:59Z</time></trkpt><trkpt lat="42.22690133764848" lon="13.847771340089892"><ele>903.0</ele><time>2026-05-02T08:58:00Z</time></trkpt><trkpt lat="42.22675589385683" lon="13.847778918284424"><ele>903.0</ele><time>2026-05-02T08:58:01Z</time></trkpt><trkpt lat="42.22661351391163" lon="13.847787774925742"><ele>903.0</ele><time>2026-05-02T08:58:02Z</time></trkpt><trkpt lat="42.22646585441726" lon="13.847792346910703"><ele>903.0</ele><time>2026-05-02T08:58:03Z</time></trkpt><trkpt lat="42.22631634276133" lon="13.847800518027263"><ele>903.0</ele><time>2026-05-02T08:58:04Z</time></trkpt><trkpt lat="42.226172498140414" lon="13.84779874492318"><ele>903.5</ele><time>2026-05-02T08:58:05Z</time></trkpt><trkpt lat="42.22603764806191" lon="13.847791370684886"><ele>904.0</ele><time>2026-05-02T08:58:06Z</time></trkpt><trkpt lat="42.22592241780948" lon="13.847758639404788"><ele>904.5</ele><time>2026-05-02T08:58:07Z</time></trkpt><trkpt lat="42.225805814352455" lon="13.847767326648816"><ele>905.0</ele><time>2026-05-02T08:58:08Z</time></trkpt><trkpt lat="42.225688550686144" lon="13.847772928903687"><ele>902.4</ele><time>2026-05-02T08:58:09Z</time></trkpt><trkpt lat="42.22558409729447" lon="13.847747155808396"><ele>899.8</ele><time>2026-05-02T08:58:10Z</time></trkpt><trkpt lat="42.22549189745799" lon="13.847698935528825"><ele>897.2</ele><time>2026-05-02T08:58:11Z</time></trkpt><trkpt lat="42.225395915201226" lon="13.847637712159004"><ele>894.6</ele><time>2026-05-02T08:58:12Z</time></trkpt><trkpt lat="42.225298274320984" lon="13.84756282303957"><ele>892.0</ele><time>2026-05-02T08:58:13Z</time></trkpt><trkpt lat="42.22518239971272" lon="13.84752019239253"><ele>893.8</ele><time>2026-05-02T08:58:14Z</time></trkpt><trkpt lat="42.225055303330684" lon="13.847497625392688"><ele>895.6</ele><time>2026-05-02T08:58:15Z</time></trkpt><trkpt lat="42.224957666258256" lon="13.847458851269373"><ele>897.3999999999999</ele><time>2026-05-02T08:58:16Z</time></trkpt><trkpt lat="42.22487384041427" lon="13.847407285904952"><ele>899.1999999999999</ele><time>2026-05-02T08:58:17Z</time></trkpt><trkpt lat="42.22478616759258" lon="13.847357550374026"><ele>901.0</ele><time>2026-05-02T08:58:18Z</time></trkpt><trkpt lat="42.22471654654113" lon="13.847307066913212"><ele>900.9999999999999</ele><time>2026-05-02T08:58:19Z</time></trkpt><trkpt lat="42.22466591091336" lon="13.84725356024038"><ele>901.0</ele><time>2026-05-02T08:58:20Z</time></trkpt><trkpt lat="42.22463209727721" lon="13.847103923677498"><ele>901.0</ele><time>2026-05-02T08:58:22Z</time></trkpt><trkpt lat="42.22462231917004" lon="13.847005275609993"><ele>901.0</ele><time>2026-05-02T08:58:23Z</time></trkpt><trkpt lat="42.22461725431938" lon="13.84689628843953"><ele>900.9999999999999</ele><time>2026-05-02T08:58:24Z</time></trkpt><trkpt lat="42.22461799864901" lon="13.846804314739915"><ele>901.0</ele><time>2026-05-02T08:58:25Z</time></trkpt><trkpt lat="42.22465018461507" lon="13.84671910606256"><ele>904.8</ele><time>2026-05-02T08:58:26Z</time></trkpt><trkpt lat="42.224706487282845" lon="13.846642101080715"><ele>908.5999999999999</ele><time>2026-05-02T08:58:27Z</time></trkpt><trkpt lat="42.224768526353316" lon="13.846562860743324"><ele>912.4</ele><time>2026-05-02T08:58:28Z</time></trkpt><trkpt lat="42.224830002497995" lon="13.846471970348176"><ele>916.2</ele><time>2026-05-02T08:58:29Z</time></trkpt><trkpt lat="42.2248969600049" lon="13.846357195463955"><ele>920.0</ele><time>2026-05-02T08:58:30Z</time></trkpt><trkpt lat="42.22496808864906" lon="13.846251046785335"><ele>924.25</ele><time>2026-05-02T08:58:31Z</time></trkpt><trkpt lat="42.22505162332896" lon="13.846155518626949"><ele>928.5</ele><time>2026-05-02T08:58:32Z</time></trkpt><trkpt lat="42.22513442565342" lon="13.846061729082491"><ele>932.75</ele><time>2026-05-02T08:58:33Z</time></trkpt><trkpt lat="42.22518671095364" lon="13.845917196606392"><ele>937.0</ele><time>2026-05-02T08:58:34Z</time></trkpt><trkpt lat="42.225245376961865" lon="13.845781178702168"><ele>939.75</ele><time>2026-05-02T08:58:35Z</time></trkpt><trkpt lat="42.22538914294683" lon="13.845865316177958"><ele>942.5</ele><time>2026-05-02T08:58:36Z</time></trkpt><trkpt lat="42.225487635700134" lon="13.845807020545394"><ele>945.25</ele><time>2026-05-02T08:58:37Z</time></trkpt><trkpt lat="42.2255779267676" lon="13.845743234808111"><ele>948.0</ele><time>2026-05-02T08:58:38Z</time></trkpt><trkpt lat="42.225675459190825" lon="13.845680469438344"><ele>948.4</ele><time>2026-05-02T08:58:39Z</time></trkpt><trkpt lat="42.2257724577501" lon="13.845621466012382"><ele>948.8</ele><time>2026-05-02T08:58:40Z</time></trkpt><trkpt lat="42.225871227907625" lon="13.845565317776385"><ele>949.2</ele><time>2026-05-02T08:58:41Z</time></trkpt><trkpt lat="42.225964790360656" lon="13.845493068915651"><ele>949.6</ele><time>2026-05-02T08:58:42Z</time></trkpt><trkpt lat="42.226055662436956" lon="13.845410260437777"><ele>950.0</ele><time>2026-05-02T08:58:43Z</time></trkpt><trkpt lat="42.226150358998574" lon="13.845324154452872"><ele>950.0</ele><time>2026-05-02T08:58:44Z</time></trkpt><trkpt lat="42.22624146795966" lon="13.845237318245848"><ele>950.0</ele><time>2026-05-02T08:58:45Z</time></trkpt><trkpt lat="42.226332357750195" lon="13.845140163628924"><ele>950.0</ele><time>2026-05-02T08:58:45.999Z</time></trkpt><trkpt lat="42.22642764486092" lon="13.84504470927941"><ele>950.0</ele><time>2026-05-02T08:58:46.999Z</time></trkpt><trkpt lat="42.22652569037337" lon="13.844948511015824"><ele>953.5</ele><time>2026-05-02T08:58:47.999Z</time></trkpt><trkpt lat="42.22663947413358" lon="13.844842449286741"><ele>957.0</ele><time>2026-05-02T08:58:48.999Z</time></trkpt><trkpt lat="42.2267586472395" lon="13.844738065595786"><ele>960.5</ele><time>2026-05-02T08:58:49.999Z</time></trkpt><trkpt lat="42.226882834254134" lon="13.844636334000088"><ele>964.0</ele><time>2026-05-02T08:58:50.999Z</time></trkpt><trkpt lat="42.2270087298857" lon="13.844535547362575"><ele>964.0</ele><time>2026-05-02T08:58:51.999Z</time></trkpt><trkpt lat="42.22713672062904" lon="13.844432044668377"><ele>964.0</ele><time>2026-05-02T08:58:52.999Z</time></trkpt><trkpt lat="42.227254773543756" lon="13.844338119362398"><ele>964.0</ele><time>2026-05-02T08:58:53.999Z</time></trkpt><trkpt lat="42.227361370509065" lon="13.844257905347172"><ele>964.0</ele><time>2026-05-02T08:58:54.999Z</time></trkpt><trkpt lat="42.227448669114935" lon="13.844197961562184"><ele>966.4999999999999</ele><time>2026-05-02T08:58:55.999Z</time></trkpt><trkpt lat="42.227515742997106" lon="13.844152689685583"><ele>969.0</ele><time>2026-05-02T08:58:56.999Z</time></trkpt><trkpt lat="42.227579152134574" lon="13.844106567370396"><ele>971.5</ele><time>2026-05-02T08:58:57.999Z</time></trkpt><trkpt lat="42.22763347678338" lon="13.844061395352437"><ele>974.0</ele><time>2026-05-02T08:58:58.999Z</time></trkpt><trkpt lat="42.22768486068659" lon="13.843919814706569"><ele>976.4999999999999</ele><time>2026-05-02T08:59:00.999Z</time></trkpt><trkpt lat="42.22763103542683" lon="13.843788088771014"><ele>979.0</ele><time>2026-05-02T08:59:02.999Z</time></trkpt><trkpt lat="42.22750426685167" lon="13.843746651348782"><ele>978.9999999999999</ele><time>2026-05-02T08:59:04.999Z</time></trkpt><trkpt lat="42.2274317079376" lon="13.843775547589448"><ele>979.0</ele><time>2026-05-02T08:59:05.999Z</time></trkpt><trkpt lat="42.227358667080495" lon="13.843809527398221"><ele>979.0</ele><time>2026-05-02T08:59:06.999Z</time></trkpt><trkpt lat="42.2272808350149" lon="13.843831725053253"><ele>979.0</ele><time>2026-05-02T08:59:07.999Z</time></trkpt><trkpt lat="42.22719211468839" lon="13.843850355962454"><ele>978.9999999999999</ele><time>2026-05-02T08:59:08.999Z</time></trkpt><trkpt lat="42.22709490320696" lon="13.84386114277094"><ele>979.0</ele><time>2026-05-02T08:59:09.999Z</time></trkpt><trkpt lat="42.226993228403266" lon="13.843856972730142"><ele>980.2</ele><time>2026-05-02T08:59:10.999Z</time></trkpt><trkpt lat="42.22688499253237" lon="13.843846540721767"><ele>981.4000000000001</ele><time>2026-05-02T08:59:11.999Z</time></trkpt><trkpt lat="42.22678545433574" lon="13.843832824454017"><ele>982.6</ele><time>2026-05-02T08:59:12.999Z</time></trkpt><trkpt lat="42.22670943488299" lon="13.843815558635358"><ele>983.8</ele><time>2026-05-02T08:59:13.999Z</time></trkpt><trkpt lat="42.22662405236262" lon="13.843806437655463"><ele>985.0</ele><time>2026-05-02T08:59:15.999Z</time></trkpt><trkpt lat="42.226551007516264" lon="13.843883585291733"><ele>985.0</ele><time>2026-05-02T08:59:21.001Z</time></trkpt><trkpt lat="42.22648691181326" lon="13.843938146736058"><ele>985.0</ele><time>2026-05-02T08:59:22.001Z</time></trkpt><trkpt lat="42.22638342185332" lon="13.843976007632131"><ele>985.0</ele><time>2026-05-02T08:59:23.001Z</time></trkpt><trkpt lat="42.226276508362574" lon="13.844012217725837"><ele>985.0</ele><time>2026-05-02T08:59:24.001Z</time></trkpt><trkpt lat="42.226166403499725" lon="13.84406311750774"><ele>985.0</ele><time>2026-05-02T08:59:25.001Z</time></trkpt><trkpt lat="42.22604673384796" lon="13.844120398572423"><ele>986.25</ele><time>2026-05-02T08:59:26.001Z</time></trkpt><trkpt lat="42.22592563359381" lon="13.844177525756383"><ele>987.5</ele><time>2026-05-02T08:59:27.001Z</time></trkpt><trkpt lat="42.22579961851177" lon="13.844222488903709"><ele>988.75</ele><time>2026-05-02T08:59:28.001Z</time></trkpt><trkpt lat="42.22568133796955" lon="13.84427262303386"><ele>990.0</ele><time>2026-05-02T08:59:29.001Z</time></trkpt><trkpt lat="42.2255720910111" lon="13.844321735724403"><ele>986.4</ele><time>2026-05-02T08:59:30.001Z</time></trkpt><trkpt lat="42.22547854655647" lon="13.844385707097825"><ele>982.8</ele><time>2026-05-02T08:59:31.001Z</time></trkpt><trkpt lat="42.22541024243986" lon="13.84443401546384"><ele>979.2</ele><time>2026-05-02T08:59:32.001Z</time></trkpt><trkpt lat="42.225355648530496" lon="13.844484937679066"><ele>975.6</ele><time>2026-05-02T08:59:33.001Z</time></trkpt><trkpt lat="42.22520593524894" lon="13.844569180081534"><ele>972.0</ele><time>2026-05-02T08:59:35.001Z</time></trkpt><trkpt lat="42.22511330459087" lon="13.844581096224074"><ele>972.0</ele><time>2026-05-02T08:59:36.001Z</time></trkpt><trkpt lat="42.22501514657459" lon="13.844585142843396"><ele>972.0</ele><time>2026-05-02T08:59:37.001Z</time></trkpt><trkpt lat="42.2249197585704" lon="13.84459394460298"><ele>972.0</ele><time>2026-05-02T08:59:38.001Z</time></trkpt><trkpt lat="42.22483294965885" lon="13.844600261287637"><ele>972.0</ele><time>2026-05-02T08:59:39.001Z</time></trkpt><trkpt lat="42.22474927781182" lon="13.844597888758049"><ele>972.0</ele><time>2026-05-02T08:59:40.001Z</time></trkpt><trkpt lat="42.22467951429902" lon="13.844574279610192"><ele>972.0</ele><time>2026-05-02T08:59:41Z</time></trkpt><trkpt lat="42.22462282921086" lon="13.844530563492876"><ele>970.1666666666666</ele><time>2026-05-02T08:59:42Z</time></trkpt><trkpt lat="42.22459029276204" lon="13.844457577626"><ele>968.3333333333333</ele><time>2026-05-02T08:59:43Z</time></trkpt><trkpt lat="42.22457891885999" lon="13.844370817974628"><ele>966.5</ele><time>2026-05-02T08:59:44Z</time></trkpt><trkpt lat="42.224592869902295" lon="13.844277324114866"><ele>964.6666666666666</ele><time>2026-05-02T08:59:45Z</time></trkpt><trkpt lat="42.22462576381292" lon="13.844174223124135"><ele>962.8333333333333</ele><time>2026-05-02T08:59:46Z</time></trkpt><trkpt lat="42.22467451266087" lon="13.844064862874678"><ele>961.0</ele><time>2026-05-02T08:59:47Z</time></trkpt><trkpt lat="42.224723294176336" lon="13.843933945346505"><ele>959.75</ele><time>2026-05-02T08:59:48Z</time></trkpt><trkpt lat="42.224769761286105" lon="13.843788002295863"><ele>958.5</ele><time>2026-05-02T08:59:49Z</time></trkpt><trkpt lat="42.224795945122246" lon="13.843629032463566"><ele>957.25</ele><time>2026-05-02T08:59:50Z</time></trkpt><trkpt lat="42.22488291037148" lon="13.843497020879456"><ele>956.0</ele><time>2026-05-02T08:59:51Z</time></trkpt><trkpt lat="42.22493892552766" lon="13.843361211732748"><ele>959.0</ele><time>2026-05-02T08:59:52Z</time></trkpt><trkpt lat="42.225008040348946" lon="13.843247751632601"><ele>961.9999999999999</ele><time>2026-05-02T08:59:53Z</time></trkpt><trkpt lat="42.22508647136237" lon="13.843143244611301"><ele>964.9999999999999</ele><time>2026-05-02T08:59:54Z</time></trkpt><trkpt lat="42.22516584539179" lon="13.843055995763969"><ele>968.0</ele><time>2026-05-02T08:59:55Z</time></trkpt><trkpt lat="42.22524330211786" lon="13.842966288881932"><ele>971.0</ele><time>2026-05-02T08:59:56Z</time></trkpt><trkpt lat="42.22532242132805" lon="13.842873507695744"><ele>971.0</ele><time>2026-05-02T08:59:57Z</time></trkpt><trkpt lat="42.22539363945714" lon="13.842772049414954"><ele>970.9999999999999</ele><time>2026-05-02T08:59:58Z</time></trkpt><trkpt lat="42.225462740770865" lon="13.84266373537075"><ele>970.9999999999999</ele><time>2026-05-02T08:59:59Z</time></trkpt><trkpt lat="42.22553368864736" lon="13.842555114259996"><ele>971.0</ele><time>2026-05-02T09:00:00Z</time></trkpt><trkpt lat="42.2256091278259" lon="13.842454909261168"><ele>971.0</ele><time>2026-05-02T09:00:01Z</time></trkpt><trkpt lat="42.22568944186317" lon="13.842364427218662"><ele>970.4</ele><time>2026-05-02T09:00:02Z</time></trkpt><trkpt lat="42.225773444015104" lon="13.842278078654243"><ele>969.8</ele><time>2026-05-02T09:00:03Z</time></trkpt><trkpt lat="42.22585958433774" lon="13.842203126372171"><ele>969.1999999999999</ele><time>2026-05-02T09:00:04Z</time></trkpt><trkpt lat="42.22594847849627" lon="13.842144372837017"><ele>968.5999999999999</ele><time>2026-05-02T09:00:05Z</time></trkpt><trkpt lat="42.22604398622585" lon="13.842104064180756"><ele>968.0</ele><time>2026-05-02T09:00:06Z</time></trkpt><trkpt lat="42.22613744092838" lon="13.842076648303182"><ele>968.0</ele><time>2026-05-02T09:00:07Z</time></trkpt><trkpt lat="42.22622627996005" lon="13.84206102309141"><ele>968.0</ele><time>2026-05-02T09:00:08Z</time></trkpt><trkpt lat="42.226313025108645" lon="13.842069048430377"><ele>968.0</ele><time>2026-05-02T09:00:09Z</time></trkpt><trkpt lat="42.22640674875034" lon="13.842083320567506"><ele>968.0</ele><time>2026-05-02T09:00:10Z</time></trkpt><trkpt lat="42.22650732471391" lon="13.842086144860131"><ele>968.0</ele><time>2026-05-02T09:00:11Z</time></trkpt><trkpt lat="42.226613641672664" lon="13.842080889207223"><ele>969.0</ele><time>2026-05-02T09:00:12Z</time></trkpt><trkpt lat="42.22672429000624" lon="13.842067224024033"><ele>970.0</ele><time>2026-05-02T09:00:13Z</time></trkpt><trkpt lat="42.22684093979444" lon="13.842089121252824"><ele>971.0</ele><time>2026-05-02T09:00:14Z</time></trkpt><trkpt lat="42.22695669962905" lon="13.842208797885307"><ele>972.0</ele><time>2026-05-02T09:00:15Z</time></trkpt><trkpt lat="42.22705979621969" lon="13.842035080591378"><ele>972.0</ele><time>2026-05-02T09:00:16Z</time></trkpt><trkpt lat="42.22716751930415" lon="13.842026975244197"><ele>972.0</ele><time>2026-05-02T09:00:17Z</time></trkpt><trkpt lat="42.22727775246986" lon="13.84201614107071"><ele>972.0</ele><time>2026-05-02T09:00:18Z</time></trkpt><trkpt lat="42.22738836051412" lon="13.842010207847276"><ele>972.0</ele><time>2026-05-02T09:00:19Z</time></trkpt><trkpt lat="42.227499626279666" lon="13.84199861552232"><ele>972.0</ele><time>2026-05-02T09:00:20Z</time></trkpt><trkpt lat="42.227607201269294" lon="13.84198505680403"><ele>971.4000000000001</ele><time>2026-05-02T09:00:21Z</time></trkpt><trkpt lat="42.22771817566183" lon="13.841972403200534"><ele>970.8000000000001</ele><time>2026-05-02T09:00:22Z</time></trkpt><trkpt lat="42.22782544189451" lon="13.841955578062091"><ele>970.2</ele><time>2026-05-02T09:00:23Z</time></trkpt><trkpt lat="42.22793405022465" lon="13.841930536845002"><ele>969.6</ele><time>2026-05-02T09:00:24Z</time></trkpt><trkpt lat="42.22804016904315" lon="13.841897298897708"><ele>969.0</ele><time>2026-05-02T09:00:25Z</time></trkpt><trkpt lat="42.22814589306365" lon="13.841851087710776"><ele>969.0</ele><time>2026-05-02T09:00:26Z</time></trkpt><trkpt lat="42.22825377096333" lon="13.841804676542498"><ele>969.0000000000001</ele><time>2026-05-02T09:00:27Z</time></trkpt><trkpt lat="42.22835630549304" lon="13.841766672220434"><ele>969.0000000000001</ele><time>2026-05-02T09:00:28Z</time></trkpt><trkpt lat="42.22845271744942" lon="13.841723010752077"><ele>969.0</ele><time>2026-05-02T09:00:29Z</time></trkpt><trkpt lat="42.22853419870326" lon="13.841664862424857"><ele>969.0</ele><time>2026-05-02T09:00:30Z</time></trkpt><trkpt lat="42.22860553096481" lon="13.841590145158627"><ele>961.6</ele><time>2026-05-02T09:00:31Z</time></trkpt><trkpt lat="42.22866610581101" lon="13.84149830758895"><ele>954.2</ele><time>2026-05-02T09:00:32Z</time></trkpt><trkpt lat="42.22871450002999" lon="13.841380594252596"><ele>946.8000000000001</ele><time>2026-05-02T09:00:33Z</time></trkpt><trkpt lat="42.228765341644376" lon="13.8412546504421"><ele>939.4000000000001</ele><time>2026-05-02T09:00:34Z</time></trkpt><trkpt lat="42.22881083391473" lon="13.841128024772585"><ele>932.0</ele><time>2026-05-02T09:00:35Z</time></trkpt><trkpt lat="42.228859084487276" lon="13.84099497344211"><ele>933.25</ele><time>2026-05-02T09:00:36Z</time></trkpt><trkpt lat="42.22890479434896" lon="13.840854785893907"><ele>934.5</ele><time>2026-05-02T09:00:37Z</time></trkpt><trkpt lat="42.22895050015611" lon="13.840701898754803"><ele>935.75</ele><time>2026-05-02T09:00:38Z</time></trkpt><trkpt lat="42.22899611352913" lon="13.840549555944635"><ele>937.0</ele><time>2026-05-02T09:00:39Z</time></trkpt><trkpt lat="42.22904292563759" lon="13.840401693825717"><ele>937.0</ele><time>2026-05-02T09:00:40Z</time></trkpt><trkpt lat="42.2290889157577" lon="13.84025554739708"><ele>937.0</ele><time>2026-05-02T09:00:41Z</time></trkpt><trkpt lat="42.229137133499336" lon="13.84011103231087"><ele>937.0</ele><time>2026-05-02T09:00:42Z</time></trkpt><trkpt lat="42.22919676747853" lon="13.839972927457454"><ele>937.0</ele><time>2026-05-02T09:00:43Z</time></trkpt><trkpt lat="42.229256217628745" lon="13.839837619951956"><ele>932.4000000000001</ele><time>2026-05-02T09:00:44Z</time></trkpt><trkpt lat="42.22931313786816" lon="13.839702196494368"><ele>927.8000000000001</ele><time>2026-05-02T09:00:45Z</time></trkpt><trkpt lat="42.22937073935257" lon="13.839576634729694"><ele>923.2</ele><time>2026-05-02T09:00:46Z</time></trkpt><trkpt lat="42.22942959494353" lon="13.83945978018838"><ele>918.6</ele><time>2026-05-02T09:00:47Z</time></trkpt><trkpt lat="42.22948827022242" lon="13.839365758786915"><ele>914.0</ele><time>2026-05-02T09:00:48Z</time></trkpt><trkpt lat="42.2295518722565" lon="13.839276761128641"><ele>917.2</ele><time>2026-05-02T09:00:49Z</time></trkpt><trkpt lat="42.22962001563637" lon="13.839189692058468"><ele>920.4000000000001</ele><time>2026-05-02T09:00:50Z</time></trkpt><trkpt lat="42.22968370599742" lon="13.839097939506678"><ele>923.6</ele><time>2026-05-02T09:00:51Z</time></trkpt><trkpt lat="42.22974711630419" lon="13.8389967906659"><ele>926.8</ele><time>2026-05-02T09:00:52Z</time></trkpt><trkpt lat="42.229811035237105" lon="13.838889366208853"><ele>930.0</ele><time>2026-05-02T09:00:53Z</time></trkpt><trkpt lat="42.22987899552304" lon="13.838787081939286"><ele>930.0</ele><time>2026-05-02T09:00:54Z</time></trkpt><trkpt lat="42.22994198879701" lon="13.83868083514399"><ele>930.0</ele><time>2026-05-02T09:00:55Z</time></trkpt><trkpt lat="42.23000560580668" lon="13.83856524522925"><ele>930.0</ele><time>2026-05-02T09:00:56Z</time></trkpt><trkpt lat="42.23005681659751" lon="13.838455378886472"><ele>930.0</ele><time>2026-05-02T09:00:57Z</time></trkpt><trkpt lat="42.23010602946317" lon="13.838357423552283"><ele>930.0</ele><time>2026-05-02T09:00:58Z</time></trkpt><trkpt lat="42.23014303168358" lon="13.838257621003098"><ele>921.5</ele><time>2026-05-02T09:00:59Z</time></trkpt><trkpt lat="42.23018506070132" lon="13.838164802010404"><ele>913.0</ele><time>2026-05-02T09:01:00Z</time></trkpt><trkpt lat="42.230331786163134" lon="13.837899669580466"><ele>904.5</ele><time>2026-05-02T09:01:02.999Z</time></trkpt><trkpt lat="42.230393010372445" lon="13.837836792771762"><ele>896.0</ele><time>2026-05-02T09:01:03.999Z</time></trkpt><trkpt lat="42.230462496301826" lon="13.837778505564172"><ele>896.0000000000001</ele><time>2026-05-02T09:01:04.999Z</time></trkpt><trkpt lat="42.23052786938607" lon="13.837723285104634"><ele>896.0</ele><time>2026-05-02T09:01:05.999Z</time></trkpt><trkpt lat="42.23059305736611" lon="13.837665091704146"><ele>896.0</ele><time>2026-05-02T09:01:06.999Z</time></trkpt><trkpt lat="42.230665039706246" lon="13.837607803878877"><ele>896.0</ele><time>2026-05-02T09:01:07.999Z</time></trkpt><trkpt lat="42.23074140046878" lon="13.837552253302682"><ele>896.0000000000001</ele><time>2026-05-02T09:01:08.999Z</time></trkpt><trkpt lat="42.230819423703466" lon="13.83749668984506"><ele>896.0</ele><time>2026-05-02T09:01:09.999Z</time></trkpt><trkpt lat="42.23089929453006" lon="13.837441717960248"><ele>894.8</ele><time>2026-05-02T09:01:10.999Z</time></trkpt><trkpt lat="42.23097774867396" lon="13.83738914288754"><ele>893.5999999999999</ele><time>2026-05-02T09:01:11.999Z</time></trkpt><trkpt lat="42.23106775051315" lon="13.83734607305101"><ele>892.4</ele><time>2026-05-02T09:01:12.999Z</time></trkpt><trkpt lat="42.231152994000446" lon="13.837320167830859"><ele>891.2</ele><time>2026-05-02T09:01:13.999Z</time></trkpt><trkpt lat="42.2312533866308" lon="13.837297437108548"><ele>890.0</ele><time>2026-05-02T09:01:14.999Z</time></trkpt><trkpt lat="42.23135578630108" lon="13.83726298142972"><ele>890.0</ele><time>2026-05-02T09:01:15.999Z</time></trkpt><trkpt lat="42.23146201893514" lon="13.837231336250369"><ele>890.0</ele><time>2026-05-02T09:01:16.999Z</time></trkpt><trkpt lat="42.231574478396" lon="13.83720285999191"><ele>890.0</ele><time>2026-05-02T09:01:17.999Z</time></trkpt><trkpt lat="42.23168582567199" lon="13.83721886418162"><ele>890.0</ele><time>2026-05-02T09:01:18.999Z</time></trkpt><trkpt lat="42.23178854134179" lon="13.837250208293248"><ele>890.0</ele><time>2026-05-02T09:01:19.999Z</time></trkpt><trkpt lat="42.2318930379068" lon="13.837291759384655"><ele>892.5</ele><time>2026-05-02T09:01:20.999Z</time></trkpt><trkpt lat="42.23198456233491" lon="13.837104392199906"><ele>895.0</ele><time>2026-05-02T09:01:21.999Z</time></trkpt><trkpt lat="42.23208614699179" lon="13.837091051003357"><ele>897.5</ele><time>2026-05-02T09:01:23.001Z</time></trkpt><trkpt lat="42.232187091807575" lon="13.837084255207847"><ele>900.0</ele><time>2026-05-02T09:01:24.001Z</time></trkpt><trkpt lat="42.232278896200995" lon="13.837090450334742"><ele>898.0</ele><time>2026-05-02T09:01:25.001Z</time></trkpt><trkpt lat="42.23235571779396" lon="13.837111585716157"><ele>896.0</ele><time>2026-05-02T09:01:26.001Z</time></trkpt><trkpt lat="42.232417235375856" lon="13.837134157584495"><ele>894.0</ele><time>2026-05-02T09:01:27.001Z</time></trkpt><trkpt lat="42.2325262963314" lon="13.837152228818926"><ele>892.0</ele><time>2026-05-02T09:01:29.001Z</time></trkpt><trkpt lat="42.23255656150156" lon="13.837061388619693"><ele>890.0</ele><time>2026-05-02T09:01:31.001Z</time></trkpt><trkpt lat="42.232454339272515" lon="13.836973706898968"><ele>888.0</ele><time>2026-05-02T09:01:33.001Z</time></trkpt><trkpt lat="42.23236208385298" lon="13.836963967484888"><ele>890.4</ele><time>2026-05-02T09:01:34.001Z</time></trkpt><trkpt lat="42.232264146739325" lon="13.836942776853087"><ele>892.8</ele><time>2026-05-02T09:01:35.001Z</time></trkpt><trkpt lat="42.23215426427473" lon="13.836905293013395"><ele>895.2</ele><time>2026-05-02T09:01:36.001Z</time></trkpt><trkpt lat="42.23204485841884" lon="13.836870834273338"><ele>897.6</ele><time>2026-05-02T09:01:37.001Z</time></trkpt><trkpt lat="42.231927516099745" lon="13.836835819418388"><ele>900.0</ele><time>2026-05-02T09:01:38.001Z</time></trkpt><trkpt lat="42.23181790481935" lon="13.8367959870726"><ele>892.4</ele><time>2026-05-02T09:01:39.001Z</time></trkpt><trkpt lat="42.23170732116064" lon="13.836770795903963"><ele>884.8</ele><time>2026-05-02T09:01:40.001Z</time></trkpt><trkpt lat="42.23159796831609" lon="13.836750935015026"><ele>877.2</ele><time>2026-05-02T09:01:41.001Z</time></trkpt><trkpt lat="42.23149288366858" lon="13.836723281210855"><ele>869.6</ele><time>2026-05-02T09:01:42.001Z</time></trkpt><trkpt lat="42.23138796845639" lon="13.83669396043011"><ele>862.0</ele><time>2026-05-02T09:01:43.001Z</time></trkpt><trkpt lat="42.23128213172721" lon="13.83666796109834"><ele>860.2</ele><time>2026-05-02T09:01:44.001Z</time></trkpt><trkpt lat="42.23117495832388" lon="13.8366507599898"><ele>858.4000000000001</ele><time>2026-05-02T09:01:45.001Z</time></trkpt><trkpt lat="42.231069830935674" lon="13.836638992781475"><ele>856.5999999999999</ele><time>2026-05-02T09:01:46.001Z</time></trkpt><trkpt lat="42.23096492495077" lon="13.836633754227673"><ele>854.8</ele><time>2026-05-02T09:01:47.001Z</time></trkpt><trkpt lat="42.230857266430235" lon="13.836644411800505"><ele>853.0</ele><time>2026-05-02T09:01:48.001Z</time></trkpt><trkpt lat="42.23075735428451" lon="13.836675940390176"><ele>853.0</ele><time>2026-05-02T09:01:49.001Z</time></trkpt><trkpt lat="42.230654778709976" lon="13.836723036087799"><ele>853.0</ele><time>2026-05-02T09:01:50.001Z</time></trkpt><trkpt lat="42.23055292316374" lon="13.836780046044721"><ele>853.0</ele><time>2026-05-02T09:01:51.001Z</time></trkpt><trkpt lat="42.23044115236146" lon="13.83684335321856"><ele>853.0</ele><time>2026-05-02T09:01:52Z</time></trkpt><trkpt lat="42.23030607624149" lon="13.836914525781696"><ele>855.5</ele><time>2026-05-02T09:01:53Z</time></trkpt><trkpt lat="42.230167944846556" lon="13.836993560465103"><ele>858.0</ele><time>2026-05-02T09:01:53.999Z</time></trkpt><trkpt lat="42.23003143963464" lon="13.837065118568535"><ele>860.5</ele><time>2026-05-02T09:01:54.999Z</time></trkpt><trkpt lat="42.22990301694419" lon="13.837136383850849"><ele>863.0</ele><time>2026-05-02T09:01:55.999Z</time></trkpt><trkpt lat="42.22977471336135" lon="13.837204050368364"><ele>856.75</ele><time>2026-05-02T09:01:56.999Z</time></trkpt><trkpt lat="42.22965033739763" lon="13.837274298831849"><ele>850.5</ele><time>2026-05-02T09:01:57.999Z</time></trkpt><trkpt lat="42.22953119054557" lon="13.83733848305113"><ele>844.25</ele><time>2026-05-02T09:01:58.999Z</time></trkpt><trkpt lat="42.229412473411" lon="13.837398898726025"><ele>838.0</ele><time>2026-05-02T09:01:59.999Z</time></trkpt><trkpt lat="42.22929183224068" lon="13.837448328035581"><ele>838.0</ele><time>2026-05-02T09:02:00.999Z</time></trkpt><trkpt lat="42.22917505146803" lon="13.837501472255044"><ele>838.0</ele><time>2026-05-02T09:02:01.999Z</time></trkpt><trkpt lat="42.22906994116974" lon="13.837555866733808"><ele>838.0</ele><time>2026-05-02T09:02:02.999Z</time></trkpt><trkpt lat="42.22895920163513" lon="13.8376149400358"><ele>838.0</ele><time>2026-05-02T09:02:03.999Z</time></trkpt><trkpt lat="42.2288578143425" lon="13.837672398782024"><ele>840.6666666666666</ele><time>2026-05-02T09:02:04.999Z</time></trkpt><trkpt lat="42.22876810046669" lon="13.837725602634565"><ele>843.3333333333333</ele><time>2026-05-02T09:02:05.999Z</time></trkpt><trkpt lat="42.22868941755988" lon="13.837778723691466"><ele>846.0</ele><time>2026-05-02T09:02:06.999Z</time></trkpt><trkpt lat="42.228620522015014" lon="13.837828722741644"><ele>848.6666666666667</ele><time>2026-05-02T09:02:07.999Z</time></trkpt><trkpt lat="42.22856135855688" lon="13.837867074764835"><ele>851.3333333333334</ele><time>2026-05-02T09:02:08.999Z</time></trkpt><trkpt lat="42.22848040593273" lon="13.83784858082611"><ele>854.0</ele><time>2026-05-02T09:02:10.999Z</time></trkpt><trkpt lat="42.2284971417406" lon="13.837712979736104"><ele>854.0</ele><time>2026-05-02T09:02:12.999Z</time></trkpt><trkpt lat="42.22855655560346" lon="13.837652718644762"><ele>854.0000000000001</ele><time>2026-05-02T09:02:13.999Z</time></trkpt><trkpt lat="42.22864153813066" lon="13.83761922304733"><ele>854.0000000000001</ele><time>2026-05-02T09:02:14.999Z</time></trkpt><trkpt lat="42.228734743976375" lon="13.837572421029304"><ele>854.0</ele><time>2026-05-02T09:02:15.999Z</time></trkpt><trkpt lat="42.228824717602976" lon="13.837487944114484"><ele>854.0</ele><time>2026-05-02T09:02:16.999Z</time></trkpt><trkpt lat="42.22891664090368" lon="13.837385711545053"><ele>850.0</ele><time>2026-05-02T09:02:17.999Z</time></trkpt><trkpt lat="42.229005575626026" lon="13.837295281859491"><ele>846.0</ele><time>2026-05-02T09:02:18.999Z</time></trkpt><trkpt lat="42.22909951971685" lon="13.837209433463201"><ele>842.0</ele><time>2026-05-02T09:02:19.999Z</time></trkpt><trkpt lat="42.22919741896651" lon="13.83712551739526"><ele>838.0</ele><time>2026-05-02T09:02:20.999Z</time></trkpt><trkpt lat="42.22929349997571" lon="13.837039896630547"><ele>838.0</ele><time>2026-05-02T09:02:21.999Z</time></trkpt><trkpt lat="42.229387689698015" lon="13.836958729450329"><ele>838.0</ele><time>2026-05-02T09:02:22.999Z</time></trkpt><trkpt lat="42.22947664706458" lon="13.836874715043994"><ele>838.0</ele><time>2026-05-02T09:02:23.999Z</time></trkpt><trkpt lat="42.22956160825143" lon="13.836794666123089"><ele>838.0</ele><time>2026-05-02T09:02:24.999Z</time></trkpt><trkpt lat="42.229642655572164" lon="13.836706392126727"><ele>838.0</ele><time>2026-05-02T09:02:25.999Z</time></trkpt><trkpt lat="42.229719080791774" lon="13.836605623613023"><ele>836.0</ele><time>2026-05-02T09:02:26.999Z</time></trkpt><trkpt lat="42.2298009339273" lon="13.836496477949902"><ele>834.0</ele><time>2026-05-02T09:02:27.999Z</time></trkpt><trkpt lat="42.229883303061676" lon="13.83639022059056"><ele>832.0</ele><time>2026-05-02T09:02:28.999Z</time></trkpt><trkpt lat="42.22997258480934" lon="13.836285685322085"><ele>830.0</ele><time>2026-05-02T09:02:29.999Z</time></trkpt><trkpt lat="42.230059085900436" lon="13.836175512003908"><ele>830.0</ele><time>2026-05-02T09:02:30.999Z</time></trkpt><trkpt lat="42.23014848024639" lon="13.836072419397405"><ele>830.0</ele><time>2026-05-02T09:02:31.999Z</time></trkpt><trkpt lat="42.23024671032118" lon="13.835974988675977"><ele>830.0</ele><time>2026-05-02T09:02:32.999Z</time></trkpt><trkpt lat="42.23034437535916" lon="13.835879466907826"><ele>830.0</ele><time>2026-05-02T09:02:33.999Z</time></trkpt><trkpt lat="42.230443140824285" lon="13.835780297976118"><ele>827.75</ele><time>2026-05-02T09:02:34.999Z</time></trkpt><trkpt lat="42.23054591716943" lon="13.835684132041317"><ele>825.5</ele><time>2026-05-02T09:02:35.999Z</time></trkpt><trkpt lat="42.23064510215737" lon="13.835594916749455"><ele>823.25</ele><time>2026-05-02T09:02:36.999Z</time></trkpt><trkpt lat="42.23074808181439" lon="13.835517362117894"><ele>821.0</ele><time>2026-05-02T09:02:37.999Z</time></trkpt><trkpt lat="42.23085051017343" lon="13.835452892273857"><ele>821.0</ele><time>2026-05-02T09:02:38.999Z</time></trkpt><trkpt lat="42.23095258736546" lon="13.83538830029421"><ele>821.0</ele><time>2026-05-02T09:02:39.999Z</time></trkpt><trkpt lat="42.23105242398565" lon="13.835329132469449"><ele>821.0</ele><time>2026-05-02T09:02:40.999Z</time></trkpt><trkpt lat="42.231155277878266" lon="13.835288584049268"><ele>821.0</ele><time>2026-05-02T09:02:41.999Z</time></trkpt><trkpt lat="42.23126225110971" lon="13.8352613771126"><ele>821.0</ele><time>2026-05-02T09:02:42.999Z</time></trkpt><trkpt lat="42.23137184352168" lon="13.835236705420325"><ele>823.0</ele><time>2026-05-02T09:02:43.999Z</time></trkpt><trkpt lat="42.23148354493763" lon="13.835219568197882"><ele>825.0</ele><time>2026-05-02T09:02:44.999Z</time></trkpt><trkpt lat="42.231596919056095" lon="13.835200211566734"><ele>827.0</ele><time>2026-05-02T09:02:45.999Z</time></trkpt><trkpt lat="42.23169624835109" lon="13.835178847982112"><ele>829.0</ele><time>2026-05-02T09:02:46.999Z</time></trkpt><trkpt lat="42.23178407029528" lon="13.83516041700651"><ele>831.0</ele><time>2026-05-02T09:02:47.999Z</time></trkpt><trkpt lat="42.231860982768374" lon="13.835149068823256"><ele>825.4</ele><time>2026-05-02T09:02:48.999Z</time></trkpt><trkpt lat="42.231969265274316" lon="13.835121817462092"><ele>819.8</ele><time>2026-05-02T09:02:50.999Z</time></trkpt><trkpt lat="42.231970004081035" lon="13.834992753230846"><ele>814.1999999999999</ele><time>2026-05-02T09:02:52.999Z</time></trkpt><trkpt lat="42.23190209642974" lon="13.834963608472208"><ele>808.5999999999999</ele><time>2026-05-02T09:02:53.999Z</time></trkpt><trkpt lat="42.231810946881026" lon="13.834980412286344"><ele>803.0</ele><time>2026-05-02T09:02:54.999Z</time></trkpt><trkpt lat="42.23170947925977" lon="13.835005129580837"><ele>803.0</ele><time>2026-05-02T09:02:55.999Z</time></trkpt><trkpt lat="42.23158781562755" lon="13.835006823433801"><ele>803.0</ele><time>2026-05-02T09:02:56.999Z</time></trkpt><trkpt lat="42.2314762216211" lon="13.834989918292827"><ele>803.0</ele><time>2026-05-02T09:02:57.999Z</time></trkpt><trkpt lat="42.23136819943209" lon="13.834964221161863"><ele>803.0</ele><time>2026-05-02T09:02:58.999Z</time></trkpt><trkpt lat="42.2312689547283" lon="13.834947186747796"><ele>803.0</ele><time>2026-05-02T09:02:59.999Z</time></trkpt><trkpt lat="42.231174722168724" lon="13.834914518310265"><ele>800.8</ele><time>2026-05-02T09:03:00.999Z</time></trkpt><trkpt lat="42.231079036115595" lon="13.834885761026552"><ele>798.5999999999999</ele><time>2026-05-02T09:03:01.999Z</time></trkpt><trkpt lat="42.230977806104406" lon="13.834884059442372"><ele>796.4000000000001</ele><time>2026-05-02T09:03:02.999Z</time></trkpt><trkpt lat="42.230873424533556" lon="13.834908013613472"><ele>794.2</ele><time>2026-05-02T09:03:03.999Z</time></trkpt><trkpt lat="42.230763546735" lon="13.834935358016063"><ele>792.0</ele><time>2026-05-02T09:03:04.999Z</time></trkpt><trkpt lat="42.230651944694415" lon="13.834959522058291"><ele>788.75</ele><time>2026-05-02T09:03:05.999Z</time></trkpt><trkpt lat="42.23053712128346" lon="13.83499092727163"><ele>785.5</ele><time>2026-05-02T09:03:06.999Z</time></trkpt><trkpt lat="42.23040603243009" lon="13.835029726514167"><ele>782.25</ele><time>2026-05-02T09:03:07.999Z</time></trkpt><trkpt lat="42.23028211966736" lon="13.835071009777291"><ele>779.0</ele><time>2026-05-02T09:03:08.999Z</time></trkpt><trkpt lat="42.230161393841634" lon="13.83510321266503"><ele>779.25</ele><time>2026-05-02T09:03:09.999Z</time></trkpt><trkpt lat="42.23003897049911" lon="13.835148978605456"><ele>779.5</ele><time>2026-05-02T09:03:10.998Z</time></trkpt><trkpt lat="42.229918141250415" lon="13.835186729154762"><ele>779.75</ele><time>2026-05-02T09:03:11.998Z</time></trkpt><trkpt lat="42.229800818971704" lon="13.835225915210332"><ele>780.0</ele><time>2026-05-02T09:03:12.998Z</time></trkpt><trkpt lat="42.22968654722905" lon="13.835272717556927"><ele>780.0</ele><time>2026-05-02T09:03:13.998Z</time></trkpt><trkpt lat="42.22956545345828" lon="13.835332036266225"><ele>780.0</ele><time>2026-05-02T09:03:14.998Z</time></trkpt><trkpt lat="42.229446707514064" lon="13.83538912003006"><ele>780.0</ele><time>2026-05-02T09:03:15.998Z</time></trkpt><trkpt lat="42.229324198985374" lon="13.835449221043802"><ele>780.0</ele><time>2026-05-02T09:03:16.998Z</time></trkpt><trkpt lat="42.22921499398585" lon="13.835507272583683"><ele>780.0</ele><time>2026-05-02T09:03:17.998Z</time></trkpt><trkpt lat="42.22911047533002" lon="13.835572720859911"><ele>780.0</ele><time>2026-05-02T09:03:18.998Z</time></trkpt><trkpt lat="42.22901257798678" lon="13.835659925564824"><ele>780.0</ele><time>2026-05-02T09:03:19.998Z</time></trkpt><trkpt lat="42.22891587406466" lon="13.835745027083128"><ele>780.0</ele><time>2026-05-02T09:03:20.998Z</time></trkpt><trkpt lat="42.22881579720281" lon="13.835823965010489"><ele>777.8</ele><time>2026-05-02T09:03:21.998Z</time></trkpt><trkpt lat="42.22871494380487" lon="13.83587479956996"><ele>775.6</ele><time>2026-05-02T09:03:22.998Z</time></trkpt><trkpt lat="42.22862971360907" lon="13.83591929085715"><ele>773.4000000000001</ele><time>2026-05-02T09:03:23.998Z</time></trkpt><trkpt lat="42.22853350267846" lon="13.835966149280686"><ele>771.2</ele><time>2026-05-02T09:03:24.998Z</time></trkpt><trkpt lat="42.22845233961797" lon="13.83601655497008"><ele>769.0</ele><time>2026-05-02T09:03:25.998Z</time></trkpt><trkpt lat="42.22838253341306" lon="13.836057775001843"><ele>769.8000000000001</ele><time>2026-05-02T09:03:26.998Z</time></trkpt><trkpt lat="42.228314429260756" lon="13.836081947923072"><ele>770.6</ele><time>2026-05-02T09:03:27.998Z</time></trkpt><trkpt lat="42.22824203418399" lon="13.836065405212244"><ele>771.4</ele><time>2026-05-02T09:03:29Z</time></trkpt><trkpt lat="42.22816063366379" lon="13.836013136229518"><ele>772.2</ele><time>2026-05-02T09:03:30Z</time></trkpt><trkpt lat="42.228068012846656" lon="13.835939438645038"><ele>773.0</ele><time>2026-05-02T09:03:31Z</time></trkpt><trkpt lat="42.22796600335254" lon="13.83585802500721"><ele>773.0</ele><time>2026-05-02T09:03:32Z</time></trkpt><trkpt lat="42.22785229799461" lon="13.835803804800896"><ele>773.0</ele><time>2026-05-02T09:03:33Z</time></trkpt><trkpt lat="42.22773120948552" lon="13.835717885103138"><ele>773.0</ele><time>2026-05-02T09:03:34Z</time></trkpt><trkpt lat="42.22761334273972" lon="13.835642382798738"><ele>773.0</ele><time>2026-05-02T09:03:35Z</time></trkpt><trkpt lat="42.227502649798936" lon="13.83557101827005"><ele>773.0</ele><time>2026-05-02T09:03:36Z</time></trkpt><trkpt lat="42.227393579256535" lon="13.835503852824084"><ele>773.0</ele><time>2026-05-02T09:03:37Z</time></trkpt><trkpt lat="42.22728688897404" lon="13.835448045656456"><ele>773.0</ele><time>2026-05-02T09:03:38Z</time></trkpt><trkpt lat="42.227183544876176" lon="13.835403724026952"><ele>773.0</ele><time>2026-05-02T09:03:39Z</time></trkpt><trkpt lat="42.227094735589134" lon="13.835377079982607"><ele>773.0</ele><time>2026-05-02T09:03:40Z</time></trkpt><trkpt lat="42.22701237657075" lon="13.835354832063269"><ele>772.1666666666667</ele><time>2026-05-02T09:03:41Z</time></trkpt><trkpt lat="42.226938880301695" lon="13.835347064048772"><ele>771.3333333333334</ele><time>2026-05-02T09:03:42Z</time></trkpt><trkpt lat="42.22686313844704" lon="13.835364394512837"><ele>770.5</ele><time>2026-05-02T09:03:43Z</time></trkpt><trkpt lat="42.22678546162365" lon="13.835375668601882"><ele>769.6666666666667</ele><time>2026-05-02T09:03:44Z</time></trkpt><trkpt lat="42.22670025829337" lon="13.83539648908427"><ele>768.8333333333334</ele><time>2026-05-02T09:03:45Z</time></trkpt><trkpt lat="42.22659670785639" lon="13.83542386784071"><ele>768.0</ele><time>2026-05-02T09:03:46Z</time></trkpt><trkpt lat="42.22648620060225" lon="13.83545637786611"><ele>764.4</ele><time>2026-05-02T09:03:47Z</time></trkpt><trkpt lat="42.22638142301801" lon="13.835489679878233"><ele>760.8</ele><time>2026-05-02T09:03:48Z</time></trkpt><trkpt lat="42.22628205449132" lon="13.835528092973966"><ele>757.2</ele><time>2026-05-02T09:03:49Z</time></trkpt><trkpt lat="42.226192785401814" lon="13.835562449707862"><ele>753.6</ele><time>2026-05-02T09:03:50Z</time></trkpt><trkpt lat="42.226100763997266" lon="13.835599661556824"><ele>750.0</ele><time>2026-05-02T09:03:51Z</time></trkpt><trkpt lat="42.22601165487754" lon="13.835630759045513"><ele>750.0</ele><time>2026-05-02T09:03:52Z</time></trkpt><trkpt lat="42.225917808857055" lon="13.835667055164105"><ele>750.0</ele><time>2026-05-02T09:03:53Z</time></trkpt><trkpt lat="42.22582509294329" lon="13.835720373223015"><ele>750.0</ele><time>2026-05-02T09:03:54Z</time></trkpt><trkpt lat="42.225729585834095" lon="13.835783613610863"><ele>750.0</ele><time>2026-05-02T09:03:55Z</time></trkpt><trkpt lat="42.225634936440535" lon="13.835842062346897"><ele>750.0</ele><time>2026-05-02T09:03:56Z</time></trkpt><trkpt lat="42.225551007037886" lon="13.835885927111423"><ele>748.4</ele><time>2026-05-02T09:03:57Z</time></trkpt><trkpt lat="42.22546822803173" lon="13.83593612726676"><ele>746.8</ele><time>2026-05-02T09:03:58Z</time></trkpt><trkpt lat="42.225388621568484" lon="13.835998807304843"><ele>745.2</ele><time>2026-05-02T09:03:59Z</time></trkpt><trkpt lat="42.22531316965301" lon="13.836077248116943"><ele>743.6</ele><time>2026-05-02T09:04:00Z</time></trkpt><trkpt lat="42.22522690693015" lon="13.83616108198892"><ele>742.0</ele><time>2026-05-02T09:04:01Z</time></trkpt><trkpt lat="42.225134784945" lon="13.836246395623679"><ele>742.0</ele><time>2026-05-02T09:04:02Z</time></trkpt><trkpt lat="42.2250400351462" lon="13.836330029359527"><ele>742.0</ele><time>2026-05-02T09:04:03Z</time></trkpt><trkpt lat="42.224938971896634" lon="13.836413545452883"><ele>742.0</ele><time>2026-05-02T09:04:03.999Z</time></trkpt><trkpt lat="42.22483425547506" lon="13.836492249362575"><ele>742.0</ele><time>2026-05-02T09:04:04.999Z</time></trkpt><trkpt lat="42.224741200657895" lon="13.836574722970383"><ele>738.4000000000001</ele><time>2026-05-02T09:04:05.999Z</time></trkpt><trkpt lat="42.22465491251778" lon="13.836666899289092"><ele>734.8000000000001</ele><time>2026-05-02T09:04:06.999Z</time></trkpt><trkpt lat="42.224577338421014" lon="13.83677134836935"><ele>731.2</ele><time>2026-05-02T09:04:07.999Z</time></trkpt><trkpt lat="42.22451130727006" lon="13.836890364019668"><ele>727.6</ele><time>2026-05-02T09:04:08.999Z</time></trkpt><trkpt lat="42.2244532970214" lon="13.83702125429072"><ele>724.0</ele><time>2026-05-02T09:04:09.999Z</time></trkpt><trkpt lat="42.224401286992915" lon="13.837152072601327"><ele>724.0</ele><time>2026-05-02T09:04:10.999Z</time></trkpt><trkpt lat="42.22433092937697" lon="13.837266890304399"><ele>724.0</ele><time>2026-05-02T09:04:11.999Z</time></trkpt><trkpt lat="42.22425462098366" lon="13.8373647425909"><ele>724.0</ele><time>2026-05-02T09:04:12.999Z</time></trkpt><trkpt lat="42.22418657371989" lon="13.837467744580175"><ele>724.0</ele><time>2026-05-02T09:04:13.999Z</time></trkpt><trkpt lat="42.224127199939225" lon="13.8375780291431"><ele>724.0</ele><time>2026-05-02T09:04:14.999Z</time></trkpt><trkpt lat="42.22407184587965" lon="13.837699683015398"><ele>726.6</ele><time>2026-05-02T09:04:15.999Z</time></trkpt><trkpt lat="42.224022378933945" lon="13.837824388575397"><ele>729.2</ele><time>2026-05-02T09:04:16.999Z</time></trkpt><trkpt lat="42.22396752592555" lon="13.837943484485738"><ele>731.8000000000001</ele><time>2026-05-02T09:04:17.999Z</time></trkpt><trkpt lat="42.223909204364475" lon="13.838044659133237"><ele>734.4000000000001</ele><time>2026-05-02T09:04:18.999Z</time></trkpt><trkpt lat="42.22384687381735" lon="13.838140083455407"><ele>737.0</ele><time>2026-05-02T09:04:19.999Z</time></trkpt><trkpt lat="42.22378059518977" lon="13.838220392595984"><ele>736.0</ele><time>2026-05-02T09:04:20.999Z</time></trkpt><trkpt lat="42.223705739199445" lon="13.838288467011564"><ele>735.0</ele><time>2026-05-02T09:04:21.999Z</time></trkpt><trkpt lat="42.223619558915026" lon="13.838360657737217"><ele>734.0</ele><time>2026-05-02T09:04:22.999Z</time></trkpt><trkpt lat="42.22353316940253" lon="13.838424580063545"><ele>733.0</ele><time>2026-05-02T09:04:23.999Z</time></trkpt><trkpt lat="42.223442926122" lon="13.838487229327534"><ele>732.0</ele><time>2026-05-02T09:04:24.999Z</time></trkpt><trkpt lat="42.2233469054538" lon="13.838538615672455"><ele>732.0</ele><time>2026-05-02T09:04:25.999Z</time></trkpt><trkpt lat="42.22324335100883" lon="13.838587565821072"><ele>732.0</ele><time>2026-05-02T09:04:26.999Z</time></trkpt><trkpt lat="42.223135459382455" lon="13.838632363227616"><ele>732.0</ele><time>2026-05-02T09:04:27.999Z</time></trkpt><trkpt lat="42.22302151374902" lon="13.838677707389532"><ele>732.0</ele><time>2026-05-02T09:04:28.999Z</time></trkpt><trkpt lat="42.22291291446887" lon="13.83872279143556"><ele>727.6</ele><time>2026-05-02T09:04:29.999Z</time></trkpt><trkpt lat="42.22280514827401" lon="13.838765345962377"><ele>723.2</ele><time>2026-05-02T09:04:30.999Z</time></trkpt><trkpt lat="42.22269882645757" lon="13.838803169259569"><ele>718.8</ele><time>2026-05-02T09:04:31.999Z</time></trkpt><trkpt lat="42.22259706768444" lon="13.838842911974593"><ele>714.4</ele><time>2026-05-02T09:04:32.999Z</time></trkpt><trkpt lat="42.22249618250039" lon="13.838892488341264"><ele>710.0</ele><time>2026-05-02T09:04:33.999Z</time></trkpt><trkpt lat="42.22239462842595" lon="13.838952117291845"><ele>708.4</ele><time>2026-05-02T09:04:34.999Z</time></trkpt><trkpt lat="42.22229851606838" lon="13.83902494170961"><ele>706.8</ele><time>2026-05-02T09:04:35.999Z</time></trkpt><trkpt lat="42.22221101470499" lon="13.839107492673074"><ele>705.2</ele><time>2026-05-02T09:04:36.999Z</time></trkpt><trkpt lat="42.222147143352814" lon="13.839191525219691"><ele>703.6</ele><time>2026-05-02T09:04:37.999Z</time></trkpt><trkpt lat="42.22209979255983" lon="13.839255709792997"><ele>702.0</ele><time>2026-05-02T09:04:38.999Z</time></trkpt><trkpt lat="42.22202250723846" lon="13.839348352598977"><ele>699.1666666666666</ele><time>2026-05-02T09:04:40.999Z</time></trkpt><trkpt lat="42.221935455542756" lon="13.839255511876846"><ele>696.3333333333334</ele><time>2026-05-02T09:04:42.999Z</time></trkpt><trkpt lat="42.22193084678236" lon="13.839158255871036"><ele>693.5</ele><time>2026-05-02T09:04:43.999Z</time></trkpt><trkpt lat="42.22196493182426" lon="13.839059807005768"><ele>690.6666666666667</ele><time>2026-05-02T09:04:44.999Z</time></trkpt><trkpt lat="42.222013644386614" lon="13.838958874013207"><ele>687.8333333333334</ele><time>2026-05-02T09:04:45.999Z</time></trkpt><trkpt lat="42.222066687787155" lon="13.838850035043121"><ele>685.0</ele><time>2026-05-02T09:04:46.999Z</time></trkpt><trkpt lat="42.22211514513449" lon="13.838725763531354"><ele>685.0</ele><time>2026-05-02T09:04:47.999Z</time></trkpt><trkpt lat="42.22216086739383" lon="13.83860688291261"><ele>685.0</ele><time>2026-05-02T09:04:48.999Z</time></trkpt><trkpt lat="42.22220807431715" lon="13.838488993444015"><ele>685.0</ele><time>2026-05-02T09:04:49.999Z</time></trkpt><trkpt lat="42.222266551727365" lon="13.838389621938957"><ele>685.0</ele><time>2026-05-02T09:04:50.999Z</time></trkpt><trkpt lat="42.22232947998027" lon="13.838293028386687"><ele>685.0</ele><time>2026-05-02T09:04:51.999Z</time></trkpt><trkpt lat="42.2223970150416" lon="13.838208286496766"><ele>686.8</ele><time>2026-05-02T09:04:52.999Z</time></trkpt><trkpt lat="42.22246695447833" lon="13.838121444038704"><ele>688.6</ele><time>2026-05-02T09:04:53.999Z</time></trkpt><trkpt lat="42.222532101563154" lon="13.838028806562479"><ele>690.4000000000001</ele><time>2026-05-02T09:04:54.999Z</time></trkpt><trkpt lat="42.22260530864461" lon="13.8379340679397"><ele>692.2</ele><time>2026-05-02T09:04:55.999Z</time></trkpt><trkpt lat="42.222682032608425" lon="13.837842581840635"><ele>694.0</ele><time>2026-05-02T09:04:56.999Z</time></trkpt><trkpt lat="42.22275201966778" lon="13.837740216523363"><ele>694.0</ele><time>2026-05-02T09:04:57.999Z</time></trkpt><trkpt lat="42.22281996400184" lon="13.83764601492683"><ele>694.0</ele><time>2026-05-02T09:04:58.999Z</time></trkpt><trkpt lat="42.2228799734702" lon="13.83754811856181"><ele>694.0</ele><time>2026-05-02T09:04:59.999Z</time></trkpt><trkpt lat="42.222928073889605" lon="13.837444156613815"><ele>694.0</ele><time>2026-05-02T09:05:00.999Z</time></trkpt><trkpt lat="42.22296298041373" lon="13.83732529852317"><ele>694.0</ele><time>2026-05-02T09:05:01.999Z</time></trkpt><trkpt lat="42.22298952228044" lon="13.837194244255343"><ele>689.2</ele><time>2026-05-02T09:05:02.999Z</time></trkpt><trkpt lat="42.22301077400495" lon="13.837070421224002"><ele>684.4000000000001</ele><time>2026-05-02T09:05:03.999Z</time></trkpt><trkpt lat="42.22303562955968" lon="13.836943572509451"><ele>679.6</ele><time>2026-05-02T09:05:04.999Z</time></trkpt><trkpt lat="42.223054954763505" lon="13.836816196728238"><ele>674.8</ele><time>2026-05-02T09:05:05.999Z</time></trkpt><trkpt lat="42.223064843334605" lon="13.836692172126972"><ele>670.0</ele><time>2026-05-02T09:05:06.999Z</time></trkpt><trkpt lat="42.223069573819934" lon="13.83656349392152"><ele>668.0</ele><time>2026-05-02T09:05:07.999Z</time></trkpt><trkpt lat="42.22306225643715" lon="13.836429808043652"><ele>666.0</ele><time>2026-05-02T09:05:08.999Z</time></trkpt><trkpt lat="42.223068365943135" lon="13.836310299848696"><ele>664.0</ele><time>2026-05-02T09:05:09.999Z</time></trkpt><trkpt lat="42.22307028405576" lon="13.836208506433309"><ele>662.0</ele><time>2026-05-02T09:05:10.999Z</time></trkpt><trkpt lat="42.22307309662772" lon="13.836113882213505"><ele>660.0</ele><time>2026-05-02T09:05:11.999Z</time></trkpt><trkpt lat="42.223052788878796" lon="13.83598045246943"><ele>658.0</ele><time>2026-05-02T09:05:13.999Z</time></trkpt><trkpt lat="42.222930587073144" lon="13.836013452143145"><ele>658.0</ele><time>2026-05-02T09:05:15.999Z</time></trkpt><trkpt lat="42.222885119118224" lon="13.836105832817564"><ele>658.0</ele><time>2026-05-02T09:05:16.999Z</time></trkpt><trkpt lat="42.222835723603154" lon="13.83621535805121"><ele>658.0</ele><time>2026-05-02T09:05:17.998Z</time></trkpt><trkpt lat="42.222777999542934" lon="13.836333368857899"><ele>658.0</ele><time>2026-05-02T09:05:18.998Z</time></trkpt><trkpt lat="42.222726030617736" lon="13.83644468623964"><ele>658.0</ele><time>2026-05-02T09:05:19.998Z</time></trkpt><trkpt lat="42.22267379698688" lon="13.836556031207369"><ele>658.0</ele><time>2026-05-02T09:05:20.998Z</time></trkpt><trkpt lat="42.22261423678212" lon="13.836652170919624"><ele>658.0</ele><time>2026-05-02T09:05:21.998Z</time></trkpt><trkpt lat="42.22255461772826" lon="13.836732334149364"><ele>658.0</ele><time>2026-05-02T09:05:22.998Z</time></trkpt><trkpt lat="42.22247925331074" lon="13.836792158914415"><ele>658.0</ele><time>2026-05-02T09:05:23.998Z</time></trkpt><trkpt lat="42.222403110612206" lon="13.836836029283905"><ele>658.0</ele><time>2026-05-02T09:05:24.998Z</time></trkpt><trkpt lat="42.22232182758795" lon="13.836888954159685"><ele>658.0</ele><time>2026-05-02T09:05:25.998Z</time></trkpt><trkpt lat="42.222237808882966" lon="13.836940663034797"><ele>657.8</ele><time>2026-05-02T09:05:26.998Z</time></trkpt><trkpt lat="42.22214778026123" lon="13.836987505599966"><ele>657.5999999999999</ele><time>2026-05-02T09:05:27.998Z</time></trkpt><trkpt lat="42.22205910918762" lon="13.837043848353334"><ele>657.4000000000001</ele><time>2026-05-02T09:05:28.998Z</time></trkpt><trkpt lat="42.22196815516127" lon="13.837099307370647"><ele>657.2</ele><time>2026-05-02T09:05:29.998Z</time></trkpt><trkpt lat="42.22187025646262" lon="13.837156614232521"><ele>657.0</ele><time>2026-05-02T09:05:30.998Z</time></trkpt><trkpt lat="42.22177674131756" lon="13.837209337906096"><ele>657.0</ele><time>2026-05-02T09:05:31.998Z</time></trkpt><trkpt lat="42.22168523171259" lon="13.837264270923415"><ele>657.0</ele><time>2026-05-02T09:05:32.998Z</time></trkpt><trkpt lat="42.221597428850096" lon="13.837319143431262"><ele>657.0</ele><time>2026-05-02T09:05:33.998Z</time></trkpt><trkpt lat="42.22150962262928" lon="13.837366315463171"><ele>657.0</ele><time>2026-05-02T09:05:35Z</time></trkpt><trkpt lat="42.22142474601279" lon="13.837417621816739"><ele>657.0</ele><time>2026-05-02T09:05:36Z</time></trkpt><trkpt lat="42.22134606026281" lon="13.837464762262345"><ele>651.4</ele><time>2026-05-02T09:05:37Z</time></trkpt><trkpt lat="42.22127763797984" lon="13.837506541814493"><ele>645.8000000000001</ele><time>2026-05-02T09:05:38Z</time></trkpt><trkpt lat="42.221178297984444" lon="13.837518706304838"><ele>640.2</ele><time>2026-05-02T09:05:40Z</time></trkpt><trkpt lat="42.221191904428586" lon="13.837356814466126"><ele>634.6</ele><time>2026-05-02T09:05:42Z</time></trkpt><trkpt lat="42.221265195646524" lon="13.83728640143829"><ele>629.0</ele><time>2026-05-02T09:05:43Z</time></trkpt><trkpt lat="42.22135508448501" lon="13.837217032379144"><ele>629.0</ele><time>2026-05-02T09:05:44Z</time></trkpt><trkpt lat="42.221454844632476" lon="13.837125288082207"><ele>629.0</ele><time>2026-05-02T09:05:45Z</time></trkpt><trkpt lat="42.22154617060391" lon="13.837006423335731"><ele>629.0</ele><time>2026-05-02T09:05:46Z</time></trkpt><trkpt lat="42.22163013242807" lon="13.836883888139962"><ele>629.0</ele><time>2026-05-02T09:05:47Z</time></trkpt><trkpt lat="42.221707519295315" lon="13.836770268603683"><ele>631.4</ele><time>2026-05-02T09:05:48Z</time></trkpt><trkpt lat="42.22177909347856" lon="13.836669436715825"><ele>633.8</ele><time>2026-05-02T09:05:49Z</time></trkpt><trkpt lat="42.221813768950796" lon="13.836514469130467"><ele>636.1999999999999</ele><time>2026-05-02T09:05:50Z</time></trkpt><trkpt lat="42.221908099947" lon="13.83645768060755"><ele>638.5999999999999</ele><time>2026-05-02T09:05:51Z</time></trkpt><trkpt lat="42.221961444203636" lon="13.836338867537576"><ele>641.0</ele><time>2026-05-02T09:05:52Z</time></trkpt><trkpt lat="42.22200902274829" lon="13.836239762857822"><ele>641.0</ele><time>2026-05-02T09:05:53Z</time></trkpt><trkpt lat="42.2220496131659" lon="13.836159056709239"><ele>641.0</ele><time>2026-05-02T09:05:54Z</time></trkpt><trkpt lat="42.222091605000465" lon="13.836090615309782"><ele>641.0</ele><time>2026-05-02T09:05:55Z</time></trkpt><trkpt lat="42.22212654332905" lon="13.835965566202644"><ele>641.0</ele><time>2026-05-02T09:05:57Z</time></trkpt><trkpt lat="42.22200011547295" lon="13.835936317608377"><ele>641.0</ele><time>2026-05-02T09:05:59Z</time></trkpt><trkpt lat="42.22192284510455" lon="13.836005985980742"><ele>641.0</ele><time>2026-05-02T09:06:00Z</time></trkpt><trkpt lat="42.22185125419076" lon="13.836121566950286"><ele>641.0</ele><time>2026-05-02T09:06:01Z</time></trkpt><trkpt lat="42.22176081530773" lon="13.836235440249178"><ele>641.0</ele><time>2026-05-02T09:06:02Z</time></trkpt><trkpt lat="42.221656967494454" lon="13.836335816463173"><ele>641.0</ele><time>2026-05-02T09:06:03Z</time></trkpt><trkpt lat="42.22156045583812" lon="13.836431465446669"><ele>633.75</ele><time>2026-05-02T09:06:04Z</time></trkpt><trkpt lat="42.22146312305863" lon="13.836523793492773"><ele>626.5</ele><time>2026-05-02T09:06:05Z</time></trkpt><trkpt lat="42.22136655342554" lon="13.836609685424447"><ele>619.25</ele><time>2026-05-02T09:06:06Z</time></trkpt><trkpt lat="42.221266147420195" lon="13.836680741618505"><ele>612.0</ele><time>2026-05-02T09:06:07Z</time></trkpt><trkpt lat="42.221164750895326" lon="13.83674354764255"><ele>615.4</ele><time>2026-05-02T09:06:07.999Z</time></trkpt><trkpt lat="42.22106968566625" lon="13.836813283372882"><ele>618.8000000000001</ele><time>2026-05-02T09:06:08.999Z</time></trkpt><trkpt lat="42.22097440309807" lon="13.836885595001823"><ele>622.2</ele><time>2026-05-02T09:06:09.999Z</time></trkpt><trkpt lat="42.22088781960848" lon="13.836963838594546"><ele>625.6</ele><time>2026-05-02T09:06:10.999Z</time></trkpt><trkpt lat="42.220812431094735" lon="13.837067305579492"><ele>629.0</ele><time>2026-05-02T09:06:11.999Z</time></trkpt><trkpt lat="42.220743318380556" lon="13.837178717592908"><ele>629.0</ele><time>2026-05-02T09:06:12.999Z</time></trkpt><trkpt lat="42.22067758314685" lon="13.837289550994875"><ele>629.0</ele><time>2026-05-02T09:06:13.999Z</time></trkpt><trkpt lat="42.22061122838999" lon="13.837409267424455"><ele>629.0</ele><time>2026-05-02T09:06:14.999Z</time></trkpt><trkpt lat="42.22054508441564" lon="13.837532094069237"><ele>629.0</ele><time>2026-05-02T09:06:15.999Z</time></trkpt><trkpt lat="42.22048553421111" lon="13.837661347923834"><ele>629.0</ele><time>2026-05-02T09:06:16.999Z</time></trkpt><trkpt lat="42.22044093798775" lon="13.837797770420389"><ele>623.0</ele><time>2026-05-02T09:06:17.999Z</time></trkpt><trkpt lat="42.22040274773004" lon="13.837938756075799"><ele>617.0</ele><time>2026-05-02T09:06:18.999Z</time></trkpt><trkpt lat="42.22036433541748" lon="13.83807746403948"><ele>611.0</ele><time>2026-05-02T09:06:19.999Z</time></trkpt><trkpt lat="42.220329280879504" lon="13.838219167726121"><ele>605.0</ele><time>2026-05-02T09:06:20.999Z</time></trkpt><trkpt lat="42.220300071815196" lon="13.83836290466496"><ele>599.0</ele><time>2026-05-02T09:06:21.999Z</time></trkpt><trkpt lat="42.22027279086436" lon="13.838487619160384"><ele>599.0</ele><time>2026-05-02T09:06:22.999Z</time></trkpt><trkpt lat="42.22026378895576" lon="13.838604568620086"><ele>599.0</ele><time>2026-05-02T09:06:23.999Z</time></trkpt><trkpt lat="42.22028585926454" lon="13.838722924714508"><ele>599.0</ele><time>2026-05-02T09:06:24.999Z</time></trkpt><trkpt lat="42.22031289688366" lon="13.838829367760361"><ele>599.0</ele><time>2026-05-02T09:06:25.999Z</time></trkpt><trkpt lat="42.22028994923339" lon="13.838932325404318"><ele>599.0</ele><time>2026-05-02T09:06:26.999Z</time></trkpt><trkpt lat="42.22023965539764" lon="13.839016805640288"><ele>599.0</ele><time>2026-05-02T09:06:27.999Z</time></trkpt><trkpt lat="42.22017989924603" lon="13.839103197644171"><ele>599.0</ele><time>2026-05-02T09:06:28.999Z</time></trkpt><trkpt lat="42.220117008494356" lon="13.839210799278282"><ele>599.0</ele><time>2026-05-02T09:06:29.999Z</time></trkpt><trkpt lat="42.220059620148255" lon="13.839337230384382"><ele>599.0</ele><time>2026-05-02T09:06:30.999Z</time></trkpt><trkpt lat="42.21999869907235" lon="13.83946604928366"><ele>599.0</ele><time>2026-05-02T09:06:31.999Z</time></trkpt><trkpt lat="42.21992712292007" lon="13.839577171571857"><ele>599.0</ele><time>2026-05-02T09:06:32.999Z</time></trkpt><trkpt lat="42.21984408246175" lon="13.83967523191315"><ele>592.5</ele><time>2026-05-02T09:06:33.999Z</time></trkpt><trkpt lat="42.2197627136218" lon="13.839776445337261"><ele>586.0</ele><time>2026-05-02T09:06:34.999Z</time></trkpt><trkpt lat="42.21967888912989" lon="13.83987865686894"><ele>579.5</ele><time>2026-05-02T09:06:35.999Z</time></trkpt><trkpt lat="42.219594574371776" lon="13.839983571933072"><ele>573.0</ele><time>2026-05-02T09:06:36.999Z</time></trkpt><trkpt lat="42.21950747403874" lon="13.84008859240508"><ele>578.8</ele><time>2026-05-02T09:06:37.999Z</time></trkpt><trkpt lat="42.219426400344666" lon="13.840196286031114"><ele>584.5999999999999</ele><time>2026-05-02T09:06:38.999Z</time></trkpt><trkpt lat="42.219347157918996" lon="13.840304171534697"><ele>590.4000000000001</ele><time>2026-05-02T09:06:39.999Z</time></trkpt><trkpt lat="42.21927682025589" lon="13.840414706253124"><ele>596.2</ele><time>2026-05-02T09:06:40.999Z</time></trkpt><trkpt lat="42.21922155862171" lon="13.840509298868124"><ele>602.0</ele><time>2026-05-02T09:06:41.999Z</time></trkpt><trkpt lat="42.219174939063066" lon="13.840600335262327"><ele>602.0</ele><time>2026-05-02T09:06:42.999Z</time></trkpt><trkpt lat="42.21909454393954" lon="13.840704729497334"><ele>602.0</ele><time>2026-05-02T09:06:44.999Z</time></trkpt><trkpt lat="42.21901439565015" lon="13.84065426448397"><ele>602.0</ele><time>2026-05-02T09:06:46.999Z</time></trkpt><trkpt lat="42.21900726741511" lon="13.84055241139853"><ele>602.0</ele><time>2026-05-02T09:06:47.999Z</time></trkpt><trkpt lat="42.21904881105057" lon="13.840450299905234"><ele>602.0</ele><time>2026-05-02T09:06:48.999Z</time></trkpt><trkpt lat="42.21911859591764" lon="13.840347656879828"><ele>602.0</ele><time>2026-05-02T09:06:49.999Z</time></trkpt><trkpt lat="42.219188370697694" lon="13.840238382252977"><ele>602.0</ele><time>2026-05-02T09:06:50.999Z</time></trkpt><trkpt lat="42.21924548597095" lon="13.840111036939783"><ele>602.0</ele><time>2026-05-02T09:06:51.999Z</time></trkpt><trkpt lat="42.21929199725896" lon="13.839974333718212"><ele>602.0</ele><time>2026-05-02T09:06:52.999Z</time></trkpt><trkpt lat="42.21934301708278" lon="13.839839398988932"><ele>602.0</ele><time>2026-05-02T09:06:53.999Z</time></trkpt><trkpt lat="42.219395005355715" lon="13.839707093851962"><ele>596.2</ele><time>2026-05-02T09:06:54.999Z</time></trkpt><trkpt lat="42.21944212560203" lon="13.839582978922518"><ele>590.4000000000001</ele><time>2026-05-02T09:06:55.999Z</time></trkpt><trkpt lat="42.21949219569661" lon="13.839453707191442"><ele>584.5999999999999</ele><time>2026-05-02T09:06:56.999Z</time></trkpt><trkpt lat="42.21953602590848" lon="13.839324160431312"><ele>578.8</ele><time>2026-05-02T09:06:57.999Z</time></trkpt><trkpt lat="42.219583271444165" lon="13.839200530274578"><ele>573.0</ele><time>2026-05-02T09:06:58.999Z</time></trkpt><trkpt lat="42.21960416412014" lon="13.839051937885003"><ele>569.6666666666666</ele><time>2026-05-02T09:06:59.999Z</time></trkpt><trkpt lat="42.21966141522288" lon="13.838970758289008"><ele>566.3333333333334</ele><time>2026-05-02T09:07:00.999Z</time></trkpt><trkpt lat="42.21972113063006" lon="13.838896124372209"><ele>563.0</ele><time>2026-05-02T09:07:01.999Z</time></trkpt><trkpt lat="42.219754110332154" lon="13.838800819242323"><ele>559.6666666666667</ele><time>2026-05-02T09:07:02.999Z</time></trkpt><trkpt lat="42.21976300929761" lon="13.83869475969423"><ele>556.3333333333334</ele><time>2026-05-02T09:07:03.999Z</time></trkpt><trkpt lat="42.219752025997686" lon="13.838586231663571"><ele>553.0</ele><time>2026-05-02T09:07:04.999Z</time></trkpt><trkpt lat="42.21972557155038" lon="13.838475166981489"><ele>549.1999999999999</ele><time>2026-05-02T09:07:05.999Z</time></trkpt><trkpt lat="42.219706135207915" lon="13.838365196976614"><ele>545.4</ele><time>2026-05-02T09:07:06.999Z</time></trkpt><trkpt lat="42.219687043308326" lon="13.83823951135445"><ele>541.5999999999999</ele><time>2026-05-02T09:07:07.999Z</time></trkpt><trkpt lat="42.219675736447996" lon="13.83811128763565"><ele>537.8</ele><time>2026-05-02T09:07:08.999Z</time></trkpt><trkpt lat="42.21966955574723" lon="13.837972228751282"><ele>534.0</ele><time>2026-05-02T09:07:09.999Z</time></trkpt><trkpt lat="42.21966719282347" lon="13.837826589320281"><ele>534.0</ele><time>2026-05-02T09:07:10.999Z</time></trkpt><trkpt lat="42.21966095551278" lon="13.837683321433468"><ele>534.0</ele><time>2026-05-02T09:07:11.999Z</time></trkpt><trkpt lat="42.2196582671928" lon="13.837539584697078"><ele>534.0</ele><time>2026-05-02T09:07:12.999Z</time></trkpt><trkpt lat="42.21966105669973" lon="13.837402934286313"><ele>534.0</ele><time>2026-05-02T09:07:13.999Z</time></trkpt><trkpt lat="42.219676493929086" lon="13.837270317330141"><ele>534.0</ele><time>2026-05-02T09:07:14.999Z</time></trkpt><trkpt lat="42.21970122222967" lon="13.837144413081514"><ele>532.2</ele><time>2026-05-02T09:07:15.999Z</time></trkpt><trkpt lat="42.21972154509576" lon="13.837015205154607"><ele>530.4</ele><time>2026-05-02T09:07:16.998Z</time></trkpt><trkpt lat="42.21974039699785" lon="13.836887303842868"><ele>528.6</ele><time>2026-05-02T09:07:17.998Z</time></trkpt><trkpt lat="42.219763344967454" lon="13.836764499993137"><ele>526.8</ele><time>2026-05-02T09:07:18.998Z</time></trkpt><trkpt lat="42.21979640659468" lon="13.8366431148055"><ele>525.0</ele><time>2026-05-02T09:07:19.998Z</time></trkpt><trkpt lat="42.21983808381753" lon="13.836519385778251"><ele>532.2</ele><time>2026-05-02T09:07:20.998Z</time></trkpt><trkpt lat="42.219884299493096" lon="13.836388936776563"><ele>539.4</ele><time>2026-05-02T09:07:21.998Z</time></trkpt><trkpt lat="42.21993362309714" lon="13.83626458213955"><ele>546.6</ele><time>2026-05-02T09:07:22.998Z</time></trkpt><trkpt lat="42.2199779056132" lon="13.836145003270344"><ele>553.8</ele><time>2026-05-02T09:07:23.998Z</time></trkpt><trkpt lat="42.220028132737454" lon="13.836047869392353"><ele>561.0</ele><time>2026-05-02T09:07:24.998Z</time></trkpt><trkpt lat="42.2200804136041" lon="13.835976503801836"><ele>556.0</ele><time>2026-05-02T09:07:25.998Z</time></trkpt><trkpt lat="42.220167935533155" lon="13.835881878058018"><ele>551.0</ele><time>2026-05-02T09:07:27.998Z</time></trkpt><trkpt lat="42.22012386841681" lon="13.835786455029819"><ele>546.0</ele><time>2026-05-02T09:07:29.998Z</time></trkpt><trkpt lat="42.22005698733808" lon="13.83579726477125"><ele>541.0</ele><time>2026-05-02T09:07:30.998Z</time></trkpt><trkpt lat="42.21998638908932" lon="13.835864547178312"><ele>536.0</ele><time>2026-05-02T09:07:31.998Z</time></trkpt><trkpt lat="42.2199159338465" lon="13.835961833665914"><ele>542.25</ele><time>2026-05-02T09:07:32.998Z</time></trkpt><trkpt lat="42.21983632883571" lon="13.836064489706262"><ele>548.5</ele><time>2026-05-02T09:07:33.998Z</time></trkpt><trkpt lat="42.21975210712426" lon="13.836172874049353"><ele>554.75</ele><time>2026-05-02T09:07:34.998Z</time></trkpt><trkpt lat="42.219646283128796" lon="13.83623887800616"><ele>561.0</ele><time>2026-05-02T09:07:35.998Z</time></trkpt><trkpt lat="42.219538373707536" lon="13.8362970449647"><ele>552.0</ele><time>2026-05-02T09:07:36.998Z</time></trkpt><trkpt lat="42.21954231816181" lon="13.836559783729271"><ele>543.0</ele><time>2026-05-02T09:07:37.998Z</time></trkpt><trkpt lat="42.21947638547284" lon="13.836686668885728"><ele>534.0</ele><time>2026-05-02T09:07:38.998Z</time></trkpt><trkpt lat="42.21941012913967" lon="13.836823945713112"><ele>525.0</ele><time>2026-05-02T09:07:40Z</time></trkpt><trkpt lat="42.219342627747515" lon="13.836960217648738"><ele>525.0</ele><time>2026-05-02T09:07:41Z</time></trkpt><trkpt lat="42.219283836174164" lon="13.83709946326544"><ele>525.0</ele><time>2026-05-02T09:07:42Z</time></trkpt><trkpt lat="42.21922957403364" lon="13.837239130878968"><ele>525.0</ele><time>2026-05-02T09:07:43Z</time></trkpt><trkpt lat="42.21917100445116" lon="13.837379031053919"><ele>525.0</ele><time>2026-05-02T09:07:44Z</time></trkpt><trkpt lat="42.219114315155345" lon="13.837511535217264"><ele>526.8</ele><time>2026-05-02T09:07:45Z</time></trkpt><trkpt lat="42.21906994757129" lon="13.837645286556496"><ele>528.6</ele><time>2026-05-02T09:07:46Z</time></trkpt><trkpt lat="42.219045465914455" lon="13.837783841121057"><ele>530.4</ele><time>2026-05-02T09:07:47Z</time></trkpt><trkpt lat="42.21902812956865" lon="13.837927369985318"><ele>532.2</ele><time>2026-05-02T09:07:48Z</time></trkpt><trkpt lat="42.21901300660827" lon="13.838069110363561"><ele>534.0</ele><time>2026-05-02T09:07:49Z</time></trkpt><trkpt lat="42.21900512528236" lon="13.838210086315193"><ele>534.0</ele><time>2026-05-02T09:07:50Z</time></trkpt><trkpt lat="42.21899134386481" lon="13.838340405450882"><ele>534.0</ele><time>2026-05-02T09:07:51Z</time></trkpt><trkpt lat="42.21896096708261" lon="13.838454469153321"><ele>534.0</ele><time>2026-05-02T09:07:52Z</time></trkpt><trkpt lat="42.2189087349137" lon="13.83854501259445"><ele>534.0</ele><time>2026-05-02T09:07:53Z</time></trkpt><trkpt lat="42.218830462148624" lon="13.838612346581531"><ele>534.0</ele><time>2026-05-02T09:07:54Z</time></trkpt><trkpt lat="42.21874337573112" lon="13.838678295535592"><ele>526.75</ele><time>2026-05-02T09:07:55Z</time></trkpt><trkpt lat="42.218651500062876" lon="13.83876104294598"><ele>519.5</ele><time>2026-05-02T09:07:56Z</time></trkpt><trkpt lat="42.21856459785984" lon="13.838862600873451"><ele>512.25</ele><time>2026-05-02T09:07:57Z</time></trkpt><trkpt lat="42.21847993497218" lon="13.838975400075613"><ele>505.0</ele><time>2026-05-02T09:07:58Z</time></trkpt><trkpt lat="42.21839340814031" lon="13.839077220495636"><ele>505.0</ele><time>2026-05-02T09:07:59Z</time></trkpt><trkpt lat="42.21831012472463" lon="13.839183953865398"><ele>505.0</ele><time>2026-05-02T09:08:00Z</time></trkpt><trkpt lat="42.21822309873581" lon="13.839292502983676"><ele>505.0</ele><time>2026-05-02T09:08:01Z</time></trkpt><trkpt lat="42.21813793987791" lon="13.839399743894916"><ele>505.0</ele><time>2026-05-02T09:08:02Z</time></trkpt><trkpt lat="42.21805333474078" lon="13.839506359614758"><ele>501.5</ele><time>2026-05-02T09:08:03Z</time></trkpt><trkpt lat="42.21796860091874" lon="13.839618214589697"><ele>498.0</ele><time>2026-05-02T09:08:03.999Z</time></trkpt><trkpt lat="42.21788373895119" lon="13.839724794781375"><ele>494.5</ele><time>2026-05-02T09:08:04.999Z</time></trkpt><trkpt lat="42.217798989290465" lon="13.839825514815669"><ele>491.0</ele><time>2026-05-02T09:08:05.999Z</time></trkpt><trkpt lat="42.21770735665283" lon="13.839927461728514"><ele>491.0</ele><time>2026-05-02T09:08:06.999Z</time></trkpt><trkpt lat="42.21761100124648" lon="13.840017938435746"><ele>491.0</ele><time>2026-05-02T09:08:07.999Z</time></trkpt><trkpt lat="42.21750796569609" lon="13.840106283960065"><ele>491.0</ele><time>2026-05-02T09:08:08.999Z</time></trkpt><trkpt lat="42.217406278148644" lon="13.840200737687791"><ele>491.0</ele><time>2026-05-02T09:08:09.999Z</time></trkpt><trkpt lat="42.217305729983366" lon="13.840293656671847"><ele>488.25</ele><time>2026-05-02T09:08:10.999Z</time></trkpt><trkpt lat="42.21720644717133" lon="13.840385811769476"><ele>485.5</ele><time>2026-05-02T09:08:11.999Z</time></trkpt><trkpt lat="42.217106312145205" lon="13.840476853536329"><ele>482.75</ele><time>2026-05-02T09:08:12.999Z</time></trkpt><trkpt lat="42.2170081626506" lon="13.840559807921682"><ele>480.0</ele><time>2026-05-02T09:08:13.999Z</time></trkpt><trkpt lat="42.21690588102577" lon="13.840634187649226"><ele>480.0</ele><time>2026-05-02T09:08:14.999Z</time></trkpt><trkpt lat="42.2168018396632" lon="13.840703458307184"><ele>480.0</ele><time>2026-05-02T09:08:15.999Z</time></trkpt><trkpt lat="42.216694917128486" lon="13.840761653410727"><ele>480.0</ele><time>2026-05-02T09:08:16.999Z</time></trkpt><trkpt lat="42.2165995657578" lon="13.840822536471526"><ele>480.0</ele><time>2026-05-02T09:08:17.999Z</time></trkpt><trkpt lat="42.21651738226462" lon="13.84087610042967"><ele>480.0</ele><time>2026-05-02T09:08:18.999Z</time></trkpt><trkpt lat="42.216446187806476" lon="13.840938280020524"><ele>477.5</ele><time>2026-05-02T09:08:19.999Z</time></trkpt><trkpt lat="42.21630986298083" lon="13.840989021510467"><ele>475.0</ele><time>2026-05-02T09:08:20.999Z</time></trkpt><trkpt lat="42.21620853710715" lon="13.84103984437212"><ele>472.5</ele><time>2026-05-02T09:08:21.999Z</time></trkpt><trkpt lat="42.21611322286771" lon="13.841102778146867"><ele>470.0</ele><time>2026-05-02T09:08:22.999Z</time></trkpt><trkpt lat="42.21601418636917" lon="13.841155914218122"><ele>470.0</ele><time>2026-05-02T09:08:23.999Z</time></trkpt><trkpt lat="42.21591319635341" lon="13.84120421819427"><ele>470.0</ele><time>2026-05-02T09:08:24.999Z</time></trkpt><trkpt lat="42.215810472205916" lon="13.841248905166122"><ele>470.0</ele><time>2026-05-02T09:08:25.999Z</time></trkpt><trkpt lat="42.21571404991143" lon="13.841282085123728"><ele>470.0</ele><time>2026-05-02T09:08:26.999Z</time></trkpt><trkpt lat="42.215625177834774" lon="13.84129155051606"><ele>470.0</ele><time>2026-05-02T09:08:27.999Z</time></trkpt><trkpt lat="42.215555469572244" lon="13.841292864823066"><ele>466.3333333333333</ele><time>2026-05-02T09:08:28.999Z</time></trkpt><trkpt lat="42.21548829738881" lon="13.841283178860191"><ele>462.66666666666663</ele><time>2026-05-02T09:08:29.999Z</time></trkpt><trkpt lat="42.215423902920385" lon="13.84125572936548"><ele>459.0</ele><time>2026-05-02T09:08:30.999Z</time></trkpt><trkpt lat="42.21536560209587" lon="13.841191535590584"><ele>455.33333333333337</ele><time>2026-05-02T09:08:31.999Z</time></trkpt><trkpt lat="42.21531738317005" lon="13.84108407868779"><ele>451.6666666666667</ele><time>2026-05-02T09:08:32.999Z</time></trkpt><trkpt lat="42.21527946100462" lon="13.840956786388636"><ele>448.0</ele><time>2026-05-02T09:08:33.999Z</time></trkpt><trkpt lat="42.215241487115414" lon="13.840827926299443"><ele>446.83333333333337</ele><time>2026-05-02T09:08:34.999Z</time></trkpt><trkpt lat="42.215197520502485" lon="13.840715293055823"><ele>445.6666666666667</ele><time>2026-05-02T09:08:35.999Z</time></trkpt><trkpt lat="42.21515417862681" lon="13.840610041728361"><ele>444.5</ele><time>2026-05-02T09:08:36.999Z</time></trkpt><trkpt lat="42.2151165466439" lon="13.840508562806601"><ele>443.33333333333337</ele><time>2026-05-02T09:08:37.999Z</time></trkpt><trkpt lat="42.215108618119004" lon="13.84041567487208"><ele>442.1666666666667</ele><time>2026-05-02T09:08:38.999Z</time></trkpt><trkpt lat="42.21513534365305" lon="13.840311083789613"><ele>441.0</ele><time>2026-05-02T09:08:39.999Z</time></trkpt><trkpt lat="42.21519632947602" lon="13.840216781322807"><ele>441.0</ele><time>2026-05-02T09:08:40.999Z</time></trkpt><trkpt lat="42.21527820961916" lon="13.840141292742635"><ele>441.0</ele><time>2026-05-02T09:08:41.999Z</time></trkpt><trkpt lat="42.21536253784788" lon="13.840072204585258"><ele>441.0</ele><time>2026-05-02T09:08:42.999Z</time></trkpt><trkpt lat="42.21545191491753" lon="13.84000473177455"><ele>441.0</ele><time>2026-05-02T09:08:43.999Z</time></trkpt><trkpt lat="42.21555204830133" lon="13.839934277011603"><ele>441.0</ele><time>2026-05-02T09:08:44.999Z</time></trkpt><trkpt lat="42.21563637579968" lon="13.83986733079054"><ele>442.0</ele><time>2026-05-02T09:08:45.999Z</time></trkpt><trkpt lat="42.215716876102704" lon="13.8397967200773"><ele>443.0</ele><time>2026-05-02T09:08:46.999Z</time></trkpt><trkpt lat="42.215787372179896" lon="13.839714019641084"><ele>444.0</ele><time>2026-05-02T09:08:47.999Z</time></trkpt><trkpt lat="42.215848260616944" lon="13.839615685525239"><ele>445.0</ele><time>2026-05-02T09:08:48.999Z</time></trkpt><trkpt lat="42.21589628883251" lon="13.839507333598597"><ele>446.0</ele><time>2026-05-02T09:08:49.999Z</time></trkpt><trkpt lat="42.21594103336981" lon="13.839393474996488"><ele>443.6</ele><time>2026-05-02T09:08:50.999Z</time></trkpt><trkpt lat="42.21598803902826" lon="13.839275893885308"><ele>441.20000000000005</ele><time>2026-05-02T09:08:51.999Z</time></trkpt><trkpt lat="42.21603664492018" lon="13.83915324229696"><ele>438.79999999999995</ele><time>2026-05-02T09:08:52.999Z</time></trkpt><trkpt lat="42.216090991816074" lon="13.839035369274155"><ele>436.4</ele><time>2026-05-02T09:08:53.999Z</time></trkpt><trkpt lat="42.216136770277146" lon="13.838914402558064"><ele>434.0</ele><time>2026-05-02T09:08:54.999Z</time></trkpt><trkpt lat="42.21618300344812" lon="13.838783266648429"><ele>434.0</ele><time>2026-05-02T09:08:55.999Z</time></trkpt><trkpt lat="42.2162251355167" lon="13.838655603835972"><ele>434.0</ele><time>2026-05-02T09:08:56.999Z</time></trkpt><trkpt lat="42.21626902509519" lon="13.83852085831865"><ele>434.0</ele><time>2026-05-02T09:08:57.999Z</time></trkpt><trkpt lat="42.216311788207186" lon="13.83837258480194"><ele>434.0</ele><time>2026-05-02T09:08:58.999Z</time></trkpt><trkpt lat="42.21635596024889" lon="13.83820998491578"><ele>431.25</ele><time>2026-05-02T09:08:59.999Z</time></trkpt><trkpt lat="42.216394872439544" lon="13.838048286880866"><ele>428.5</ele><time>2026-05-02T09:09:00.999Z</time></trkpt><trkpt lat="42.21643188262485" lon="13.837883156513488"><ele>425.75</ele><time>2026-05-02T09:09:01.999Z</time></trkpt><trkpt lat="42.21647546437524" lon="13.837722806491646"><ele>423.0</ele><time>2026-05-02T09:09:02.999Z</time></trkpt><trkpt lat="42.216508922056754" lon="13.83755945790692"><ele>423.0</ele><time>2026-05-02T09:09:03.999Z</time></trkpt><trkpt lat="42.21654997696946" lon="13.83739449203014"><ele>423.0</ele><time>2026-05-02T09:09:04.999Z</time></trkpt><trkpt lat="42.21658167408574" lon="13.837233591359746"><ele>423.0</ele><time>2026-05-02T09:09:05.999Z</time></trkpt><trkpt lat="42.21661916711557" lon="13.837077621327841"><ele>423.0</ele><time>2026-05-02T09:09:06.999Z</time></trkpt><trkpt lat="42.216654546750384" lon="13.836925226962643"><ele>420.0</ele><time>2026-05-02T09:09:07.999Z</time></trkpt><trkpt lat="42.21669486014441" lon="13.836770240749328"><ele>417.0</ele><time>2026-05-02T09:09:08.999Z</time></trkpt><trkpt lat="42.21673974926625" lon="13.836618792235596"><ele>414.0</ele><time>2026-05-02T09:09:09.999Z</time></trkpt><trkpt lat="42.21679049033363" lon="13.836466292085104"><ele>411.0</ele><time>2026-05-02T09:09:10.999Z</time></trkpt><trkpt lat="42.21684538040081" lon="13.836314632362969"><ele>411.0</ele><time>2026-05-02T09:09:11.998Z</time></trkpt><trkpt lat="42.21691083333992" lon="13.836167957170812"><ele>411.0</ele><time>2026-05-02T09:09:12.998Z</time></trkpt><trkpt lat="42.21698211076015" lon="13.83602647444477"><ele>411.0</ele><time>2026-05-02T09:09:13.998Z</time></trkpt><trkpt lat="42.217047497433455" lon="13.835880171052898"><ele>411.0</ele><time>2026-05-02T09:09:14.998Z</time></trkpt><trkpt lat="42.217122461100196" lon="13.835740898923364"><ele>411.0</ele><time>2026-05-02T09:09:15.998Z</time></trkpt><trkpt lat="42.21719823010071" lon="13.835602595147863"><ele>411.0</ele><time>2026-05-02T09:09:16.998Z</time></trkpt><trkpt lat="42.21728142931765" lon="13.835475076094635"><ele>411.0</ele><time>2026-05-02T09:09:17.998Z</time></trkpt><trkpt lat="42.21735195762899" lon="13.83535178710543"><ele>411.0</ele><time>2026-05-02T09:09:18.998Z</time></trkpt><trkpt lat="42.217418867484895" lon="13.83523622019697"><ele>408.6</ele><time>2026-05-02T09:09:19.998Z</time></trkpt><trkpt lat="42.217484988995665" lon="13.835123884403258"><ele>406.20000000000005</ele><time>2026-05-02T09:09:20.998Z</time></trkpt><trkpt lat="42.21753895462841" lon="13.83501311074089"><ele>403.79999999999995</ele><time>2026-05-02T09:09:21.998Z</time></trkpt><trkpt lat="42.217571485879255" lon="13.83488945895761"><ele>401.4</ele><time>2026-05-02T09:09:22.998Z</time></trkpt><trkpt lat="42.21757746736635" lon="13.834748541892887"><ele>399.0</ele><time>2026-05-02T09:09:23.998Z</time></trkpt><trkpt lat="42.21755971655659" lon="13.834594469857592"><ele>399.0</ele><time>2026-05-02T09:09:24.998Z</time></trkpt><trkpt lat="42.21753216568182" lon="13.83443516116416"><ele>399.0</ele><time>2026-05-02T09:09:25.998Z</time></trkpt><trkpt lat="42.217510070838706" lon="13.834271969957364"><ele>399.0</ele><time>2026-05-02T09:09:26.998Z</time></trkpt><trkpt lat="42.21749456915311" lon="13.834104913840811"><ele>399.0</ele><time>2026-05-02T09:09:27.998Z</time></trkpt><trkpt lat="42.217478723914525" lon="13.833938512737452"><ele>397.0</ele><time>2026-05-02T09:09:28.998Z</time></trkpt><trkpt lat="42.21746028791603" lon="13.833774387503563"><ele>395.0</ele><time>2026-05-02T09:09:29.998Z</time></trkpt><trkpt lat="42.21744325497499" lon="13.833610857502896"><ele>393.0</ele><time>2026-05-02T09:09:30.998Z</time></trkpt><trkpt lat="42.21742240382284" lon="13.833449654464337"><ele>391.0</ele><time>2026-05-02T09:09:31.998Z</time></trkpt><trkpt lat="42.21740569258194" lon="13.833289920080148"><ele>389.0</ele><time>2026-05-02T09:09:32.998Z</time></trkpt><trkpt lat="42.217399412963005" lon="13.833134459034804"><ele>387.0</ele><time>2026-05-02T09:09:33.998Z</time></trkpt><trkpt lat="42.21740073796946" lon="13.832974603023294"><ele>385.0</ele><time>2026-05-02T09:09:34.998Z</time></trkpt><trkpt lat="42.21740980884872" lon="13.832815858695252"><ele>383.0</ele><time>2026-05-02T09:09:35.998Z</time></trkpt><trkpt lat="42.21742213753175" lon="13.83265239459983"><ele>381.25</ele><time>2026-05-02T09:09:36.998Z</time></trkpt><trkpt lat="42.217433926576525" lon="13.832484434217331"><ele>379.5</ele><time>2026-05-02T09:09:37.998Z</time></trkpt><trkpt lat="42.21744906954793" lon="13.83230911264244"><ele>377.75</ele><time>2026-05-02T09:09:38.998Z</time></trkpt><trkpt lat="42.217459479115654" lon="13.832125230835038"><ele>376.0</ele><time>2026-05-02T09:09:39.998Z</time></trkpt><trkpt lat="42.217472463586425" lon="13.831939316659104"><ele>375.0</ele><time>2026-05-02T09:09:40.998Z</time></trkpt><trkpt lat="42.21748784537531" lon="13.831756265475246"><ele>374.0</ele><time>2026-05-02T09:09:41.998Z</time></trkpt><trkpt lat="42.217502394067004" lon="13.831578268604092"><ele>373.0</ele><time>2026-05-02T09:09:42.998Z</time></trkpt><trkpt lat="42.217522573523084" lon="13.831402326862893"><ele>372.0</ele><time>2026-05-02T09:09:43.998Z</time></trkpt><trkpt lat="42.217553014253575" lon="13.83122416930142"><ele>372.0</ele><time>2026-05-02T09:09:44.998Z</time></trkpt><trkpt lat="42.21759912965294" lon="13.831051404770637"><ele>372.0</ele><time>2026-05-02T09:09:46Z</time></trkpt><trkpt lat="42.21764661176769" lon="13.830886591155991"><ele>372.0</ele><time>2026-05-02T09:09:47Z</time></trkpt><trkpt lat="42.21770173445506" lon="13.83073686301869"><ele>372.0</ele><time>2026-05-02T09:09:48Z</time></trkpt><trkpt lat="42.21774574915184" lon="13.830595213342438"><ele>371.40000000000003</ele><time>2026-05-02T09:09:48.999Z</time></trkpt><trkpt lat="42.21778906199247" lon="13.83045590724753"><ele>370.8</ele><time>2026-05-02T09:09:49.999Z</time></trkpt><trkpt lat="42.217839180479416" lon="13.83033090621146"><ele>370.2</ele><time>2026-05-02T09:09:50.999Z</time></trkpt><trkpt lat="42.21789622810974" lon="13.830195124008448"><ele>369.6</ele><time>2026-05-02T09:09:51.999Z</time></trkpt><trkpt lat="42.21794723499824" lon="13.830060510564028"><ele>369.0</ele><time>2026-05-02T09:09:52.999Z</time></trkpt><trkpt lat="42.217991295614134" lon="13.829914450016705"><ele>367.75</ele><time>2026-05-02T09:09:53.999Z</time></trkpt><trkpt lat="42.21801700504174" lon="13.829748256397892"><ele>366.5</ele><time>2026-05-02T09:09:54.999Z</time></trkpt><trkpt lat="42.218026999159065" lon="13.829567164164482"><ele>365.25</ele><time>2026-05-02T09:09:55.999Z</time></trkpt><trkpt lat="42.21801593368991" lon="13.829372672952124"><ele>364.0</ele><time>2026-05-02T09:09:56.999Z</time></trkpt><trkpt lat="42.21797046977872" lon="13.82917403023046"><ele>363.25</ele><time>2026-05-02T09:09:57.999Z</time></trkpt><trkpt lat="42.217905122492866" lon="13.828958678788215"><ele>362.5</ele><time>2026-05-02T09:09:58.999Z</time></trkpt><trkpt lat="42.21796377351541" lon="13.828824120583436"><ele>361.75</ele><time>2026-05-02T09:09:59.999Z</time></trkpt><trkpt lat="42.21794581354465" lon="13.8286477893955"><ele>361.0</ele><time>2026-05-02T09:10:00.999Z</time></trkpt><trkpt lat="42.2179326417723" lon="13.828475032996256"><ele>359.75</ele><time>2026-05-02T09:10:01.999Z</time></trkpt><trkpt lat="42.21791874800702" lon="13.828298175771815"><ele>358.5</ele><time>2026-05-02T09:10:02.999Z</time></trkpt><trkpt lat="42.21790253273214" lon="13.828116987944819"><ele>357.25</ele><time>2026-05-02T09:10:03.999Z</time></trkpt><trkpt lat="42.217890227927946" lon="13.827944958388194"><ele>356.0</ele><time>2026-05-02T09:10:04.999Z</time></trkpt><trkpt lat="42.21788266716148" lon="13.827768455253281"><ele>354.25</ele><time>2026-05-02T09:10:05.999Z</time></trkpt><trkpt lat="42.2178701534869" lon="13.827590564784707"><ele>352.5</ele><time>2026-05-02T09:10:06.999Z</time></trkpt><trkpt lat="42.21786086966608" lon="13.827422381516582"><ele>350.75</ele><time>2026-05-02T09:10:07.999Z</time></trkpt><trkpt lat="42.217858039875665" lon="13.827264508156462"><ele>349.0</ele><time>2026-05-02T09:10:08.999Z</time></trkpt><trkpt lat="42.217858685847446" lon="13.827123481073574"><ele>349.0</ele><time>2026-05-02T09:10:09.999Z</time></trkpt><trkpt lat="42.21786721822673" lon="13.82699064876004"><ele>349.0</ele><time>2026-05-02T09:10:10.999Z</time></trkpt><trkpt lat="42.21786004178745" lon="13.826867786281456"><ele>349.0</ele><time>2026-05-02T09:10:11.999Z</time></trkpt><trkpt lat="42.21781672591936" lon="13.826758947416211"><ele>349.0</ele><time>2026-05-02T09:10:12.999Z</time></trkpt><trkpt lat="42.21772847285729" lon="13.826683805293762"><ele>349.0</ele><time>2026-05-02T09:10:13.999Z</time></trkpt><trkpt lat="42.217628261443906" lon="13.826636125916234"><ele>347.8333333333333</ele><time>2026-05-02T09:10:14.999Z</time></trkpt><trkpt lat="42.2175295733368" lon="13.826589972804904"><ele>346.66666666666663</ele><time>2026-05-02T09:10:15.999Z</time></trkpt><trkpt lat="42.217449730016966" lon="13.826544788888093"><ele>345.5</ele><time>2026-05-02T09:10:16.999Z</time></trkpt><trkpt lat="42.21738413947824" lon="13.82649961103981"><ele>344.3333333333333</ele><time>2026-05-02T09:10:17.999Z</time></trkpt><trkpt lat="42.21733052048873" lon="13.826440264715748"><ele>343.1666666666667</ele><time>2026-05-02T09:10:18.999Z</time></trkpt><trkpt lat="42.21730502873979" lon="13.826350841095943"><ele>342.0</ele><time>2026-05-02T09:10:19.999Z</time></trkpt><trkpt lat="42.21733144715764" lon="13.82624041886539"><ele>342.0</ele><time>2026-05-02T09:10:20.999Z</time></trkpt><trkpt lat="42.21742830441967" lon="13.826136975979384"><ele>342.0</ele><time>2026-05-02T09:10:21.999Z</time></trkpt><trkpt lat="42.21751791861246" lon="13.826040448163832"><ele>342.0</ele><time>2026-05-02T09:10:22.999Z</time></trkpt><trkpt lat="42.2175955283538" lon="13.825931879073607"><ele>342.0</ele><time>2026-05-02T09:10:23.999Z</time></trkpt><trkpt lat="42.21766682908736" lon="13.825816985223979"><ele>339.8</ele><time>2026-05-02T09:10:24.999Z</time></trkpt><trkpt lat="42.2177266534821" lon="13.825698065992427"><ele>337.6</ele><time>2026-05-02T09:10:25.999Z</time></trkpt><trkpt lat="42.21776477237737" lon="13.825575337861892"><ele>335.40000000000003</ele><time>2026-05-02T09:10:26.999Z</time></trkpt><trkpt lat="42.217768605774914" lon="13.82544381552657"><ele>333.20000000000005</ele><time>2026-05-02T09:10:27.999Z</time></trkpt><trkpt lat="42.21773151005677" lon="13.825315253060571"><ele>331.0</ele><time>2026-05-02T09:10:28.999Z</time></trkpt><trkpt lat="42.21766480608803" lon="13.825208420286865"><ele>331.0</ele><time>2026-05-02T09:10:29.999Z</time></trkpt><trkpt lat="42.21757135995682" lon="13.825145978646937"><ele>331.0</ele><time>2026-05-02T09:10:30.999Z</time></trkpt><trkpt lat="42.217466992442084" lon="13.825141116213729"><ele>331.0</ele><time>2026-05-02T09:10:31.999Z</time></trkpt><trkpt lat="42.21736198656066" lon="13.825146229056811"><ele>331.0</ele><time>2026-05-02T09:10:32.999Z</time></trkpt><trkpt lat="42.2172684171347" lon="13.825130787814107"><ele>331.0</ele><time>2026-05-02T09:10:33.999Z</time></trkpt><trkpt lat="42.21718846730998" lon="13.825094811683485"><ele>329.20000000000005</ele><time>2026-05-02T09:10:34.999Z</time></trkpt><trkpt lat="42.217117601710186" lon="13.825042222962601"><ele>327.40000000000003</ele><time>2026-05-02T09:10:35.999Z</time></trkpt><trkpt lat="42.21705886011436" lon="13.8249530517791"><ele>325.6</ele><time>2026-05-02T09:10:36.999Z</time></trkpt><trkpt lat="42.216999639763706" lon="13.824849064127607"><ele>323.8</ele><time>2026-05-02T09:10:37.999Z</time></trkpt><trkpt lat="42.21693334159191" lon="13.824725644489625"><ele>322.0</ele><time>2026-05-02T09:10:38.999Z</time></trkpt><trkpt lat="42.21686922870417" lon="13.824587463993486"><ele>322.0</ele><time>2026-05-02T09:10:39.999Z</time></trkpt><trkpt lat="42.21680804706865" lon="13.824434545544673"><ele>322.0</ele><time>2026-05-02T09:10:40.999Z</time></trkpt><trkpt lat="42.21674465563612" lon="13.824280596044053"><ele>322.0</ele><time>2026-05-02T09:10:41.999Z</time></trkpt><trkpt lat="42.216686631879284" lon="13.824129331809647"><ele>322.0</ele><time>2026-05-02T09:10:42.999Z</time></trkpt><trkpt lat="42.21662794588878" lon="13.823986026984615"><ele>321.40000000000003</ele><time>2026-05-02T09:10:43.999Z</time></trkpt><trkpt lat="42.216569422883026" lon="13.823849212590673"><ele>320.8</ele><time>2026-05-02T09:10:44.999Z</time></trkpt><trkpt lat="42.21651530357388" lon="13.823720876813834"><ele>320.2</ele><time>2026-05-02T09:10:45.999Z</time></trkpt><trkpt lat="42.216462623836904" lon="13.823599839746176"><ele>319.6</ele><time>2026-05-02T09:10:46.999Z</time></trkpt><trkpt lat="42.21640971401107" lon="13.823484640039505"><ele>319.0</ele><time>2026-05-02T09:10:47.999Z</time></trkpt><trkpt lat="42.21636043000163" lon="13.82336850066301"><ele>317.8</ele><time>2026-05-02T09:10:48.999Z</time></trkpt><trkpt lat="42.21630702741207" lon="13.823239730157825"><ele>316.59999999999997</ele><time>2026-05-02T09:10:49.999Z</time></trkpt><trkpt lat="42.21625361787279" lon="13.823100157345023"><ele>315.4</ele><time>2026-05-02T09:10:50.999Z</time></trkpt><trkpt lat="42.21620330051141" lon="13.822967083040004"><ele>314.2</ele><time>2026-05-02T09:10:51.999Z</time></trkpt><trkpt lat="42.216150106446314" lon="13.822841905251716"><ele>313.0</ele><time>2026-05-02T09:10:52.999Z</time></trkpt><trkpt lat="42.21609747141041" lon="13.822729895368733"><ele>313.4</ele><time>2026-05-02T09:10:53.999Z</time></trkpt><trkpt lat="42.21604329706068" lon="13.822618565818294"><ele>313.8</ele><time>2026-05-02T09:10:54.999Z</time></trkpt><trkpt lat="42.215983907233" lon="13.822506191114975"><ele>314.2</ele><time>2026-05-02T09:10:55.999Z</time></trkpt><trkpt lat="42.215895143560004" lon="13.822389520804611"><ele>314.6</ele><time>2026-05-02T09:10:56.999Z</time></trkpt><trkpt lat="42.21578590409656" lon="13.822309203428597"><ele>315.0</ele><time>2026-05-02T09:10:57.999Z</time></trkpt><trkpt lat="42.21567316632884" lon="13.822274661636737"><ele>315.5</ele><time>2026-05-02T09:10:58.999Z</time></trkpt><trkpt lat="42.215559545740376" lon="13.82228459135543"><ele>316.0</ele><time>2026-05-02T09:10:59.999Z</time></trkpt><trkpt lat="42.21544222817792" lon="13.822323468854908"><ele>316.5</ele><time>2026-05-02T09:11:00.999Z</time></trkpt><trkpt lat="42.21533089707238" lon="13.822384238740945"><ele>317.0</ele><time>2026-05-02T09:11:01.999Z</time></trkpt><trkpt lat="42.215219067961364" lon="13.822450866833934"><ele>317.0</ele><time>2026-05-02T09:11:02.999Z</time></trkpt><trkpt lat="42.21510800662713" lon="13.822520449273432"><ele>317.0</ele><time>2026-05-02T09:11:03.999Z</time></trkpt><trkpt lat="42.21499331552387" lon="13.822589553244903"><ele>317.0</ele><time>2026-05-02T09:11:04.999Z</time></trkpt><trkpt lat="42.214885341044" lon="13.822659469982732"><ele>317.0</ele><time>2026-05-02T09:11:05.999Z</time></trkpt><trkpt lat="42.21478002359661" lon="13.822719744188742"><ele>317.0</ele><time>2026-05-02T09:11:06.999Z</time></trkpt><trkpt lat="42.21467718377863" lon="13.822774440530633"><ele>317.0</ele><time>2026-05-02T09:11:07.999Z</time></trkpt><trkpt lat="42.21457739167821" lon="13.822807378528575"><ele>317.0</ele><time>2026-05-02T09:11:08.999Z</time></trkpt><trkpt lat="42.21447900287193" lon="13.82280788585298"><ele>317.0</ele><time>2026-05-02T09:11:09.999Z</time></trkpt><trkpt lat="42.21438207758815" lon="13.822768125997781"><ele>317.0</ele><time>2026-05-02T09:11:10.999Z</time></trkpt><trkpt lat="42.21429719771317" lon="13.822692010924385"><ele>317.0</ele><time>2026-05-02T09:11:11.999Z</time></trkpt><trkpt lat="42.214228327856524" lon="13.822604559768456"><ele>317.0</ele><time>2026-05-02T09:11:12.999Z</time></trkpt><trkpt lat="42.21417222183229" lon="13.82251157498738"><ele>317.0</ele><time>2026-05-02T09:11:13.998Z</time></trkpt><trkpt lat="42.214119247065966" lon="13.822415312237379"><ele>317.0</ele><time>2026-05-02T09:11:14.998Z</time></trkpt><trkpt lat="42.214070811986346" lon="13.822314957191052"><ele>317.0</ele><time>2026-05-02T09:11:15.998Z</time></trkpt><trkpt lat="42.21403440083512" lon="13.822209846883114"><ele>317.0</ele><time>2026-05-02T09:11:16.998Z</time></trkpt><trkpt lat="42.214033016982334" lon="13.822066603928942"><ele>317.0</ele><time>2026-05-02T09:11:18.998Z</time></trkpt><trkpt lat="42.21410010785406" lon="13.821973501294792"><ele>317.0</ele><time>2026-05-02T09:11:20.998Z</time></trkpt><trkpt lat="42.21417040786908" lon="13.821923756412223"><ele>317.0</ele><time>2026-05-02T09:11:21.998Z</time></trkpt><trkpt lat="42.214244114589285" lon="13.82185552456793"><ele>317.0</ele><time>2026-05-02T09:11:22.998Z</time></trkpt><trkpt lat="42.214316374166664" lon="13.821765865957273"><ele>317.0</ele><time>2026-05-02T09:11:23.998Z</time></trkpt><trkpt lat="42.21438478304688" lon="13.821671072837091"><ele>317.4</ele><time>2026-05-02T09:11:24.998Z</time></trkpt><trkpt lat="42.214457340028815" lon="13.82157942090046"><ele>317.79999999999995</ele><time>2026-05-02T09:11:25.998Z</time></trkpt><trkpt lat="42.214528890403194" lon="13.821482184914418"><ele>318.2</ele><time>2026-05-02T09:11:26.998Z</time></trkpt><trkpt lat="42.21459652404828" lon="13.821387289131692"><ele>318.59999999999997</ele><time>2026-05-02T09:11:27.998Z</time></trkpt><trkpt lat="42.2146601377951" lon="13.821291567507574"><ele>319.0</ele><time>2026-05-02T09:11:28.998Z</time></trkpt><trkpt lat="42.21472521853403" lon="13.821194329299038"><ele>319.0</ele><time>2026-05-02T09:11:29.998Z</time></trkpt><trkpt lat="42.21478335338856" lon="13.821104010023893"><ele>319.0</ele><time>2026-05-02T09:11:30.998Z</time></trkpt><trkpt lat="42.214837598129265" lon="13.821024374785537"><ele>319.0</ele><time>2026-05-02T09:11:31.998Z</time></trkpt><trkpt lat="42.2148881272125" lon="13.820949677016358"><ele>319.0</ele><time>2026-05-02T09:11:32.998Z</time></trkpt><trkpt lat="42.21493156759068" lon="13.820874864039093"><ele>319.0</ele><time>2026-05-02T09:11:33.998Z</time></trkpt><trkpt lat="42.21495587459908" lon="13.820793944604135"><ele>319.0</ele><time>2026-05-02T09:11:34.998Z</time></trkpt><trkpt lat="42.21495441036999" lon="13.820676611714193"><ele>319.0</ele><time>2026-05-02T09:11:36.998Z</time></trkpt><trkpt lat="42.214934741943274" lon="13.820576057734712"><ele>319.0</ele><time>2026-05-02T09:11:39.998Z</time></trkpt><trkpt lat="42.21500959825697" lon="13.820514042139314"><ele>319.0</ele><time>2026-05-02T09:11:42.998Z</time></trkpt><trkpt lat="42.21507944798543" lon="13.820457020957841"><ele>319.0</ele><time>2026-05-02T09:15:40.998Z</time></trkpt><trkpt lat="42.21515515312255" lon="13.82040410752727"><ele>319.0</ele><time>2026-05-02T09:20:04.998Z</time></trkpt><trkpt lat="42.2152184454644" lon="13.820350543521116"><ele>319.0</ele><time>2026-05-02T09:20:12.998Z</time></trkpt><trkpt lat="42.215314754332425" lon="13.820282344003626"><ele>319.0</ele><time>2026-05-02T09:20:14.998Z</time></trkpt><trkpt lat="42.21537962344789" lon="13.82019997277228"><ele>319.0</ele><time>2026-05-02T09:20:16Z</time></trkpt><trkpt lat="42.215446042543064" lon="13.820097489094865"><ele>319.0</ele><time>2026-05-02T09:20:17Z</time></trkpt><trkpt lat="42.21551811337385" lon="13.819989923011109"><ele>319.0</ele><time>2026-05-02T09:20:18Z</time></trkpt><trkpt lat="42.21559597251851" lon="13.81987255195387"><ele>319.0</ele><time>2026-05-02T09:20:19Z</time></trkpt><trkpt lat="42.215680361147" lon="13.819744527747694"><ele>319.0</ele><time>2026-05-02T09:20:20Z</time></trkpt><trkpt lat="42.21577193815872" lon="13.819613808850196"><ele>319.0</ele><time>2026-05-02T09:20:21Z</time></trkpt><trkpt lat="42.215856035860554" lon="13.819484559347964"><ele>319.0</ele><time>2026-05-02T09:20:22Z</time></trkpt><trkpt lat="42.215936833151744" lon="13.819374452716968"><ele>319.0</ele><time>2026-05-02T09:20:23Z</time></trkpt><trkpt lat="42.216012958586006" lon="13.819267759916059"><ele>319.2</ele><time>2026-05-02T09:20:24Z</time></trkpt><trkpt lat="42.21607696320499" lon="13.81916522016123"><ele>319.4</ele><time>2026-05-02T09:20:25Z</time></trkpt><trkpt lat="42.21614323585086" lon="13.819065186376271"><ele>319.6</ele><time>2026-05-02T09:20:26Z</time></trkpt><trkpt lat="42.21619873262698" lon="13.81895275735063"><ele>319.8</ele><time>2026-05-02T09:20:27Z</time></trkpt><trkpt lat="42.21623442833709" lon="13.818829771168199"><ele>320.0</ele><time>2026-05-02T09:20:28Z</time></trkpt><trkpt lat="42.216233478260556" lon="13.818698939362362"><ele>320.0</ele><time>2026-05-02T09:20:29Z</time></trkpt><trkpt lat="42.216210869811874" lon="13.818562350218373"><ele>320.0</ele><time>2026-05-02T09:20:30Z</time></trkpt><trkpt lat="42.21619481585955" lon="13.818443185212033"><ele>320.0</ele><time>2026-05-02T09:20:31Z</time></trkpt><trkpt lat="42.21621142220476" lon="13.818336701895461"><ele>320.0</ele><time>2026-05-02T09:20:31.999Z</time></trkpt><trkpt lat="42.2162461093844" lon="13.818248873902567"><ele>320.0</ele><time>2026-05-02T09:20:32.999Z</time></trkpt><trkpt lat="42.21634086585575" lon="13.818179998294564"><ele>319.5</ele><time>2026-05-02T09:20:33.999Z</time></trkpt><trkpt lat="42.216424914198" lon="13.818091378468756"><ele>319.0</ele><time>2026-05-02T09:20:34.999Z</time></trkpt><trkpt lat="42.21651995061149" lon="13.817991446519482"><ele>318.5</ele><time>2026-05-02T09:20:35.999Z</time></trkpt><trkpt lat="42.216628292643584" lon="13.817889117782938"><ele>318.0</ele><time>2026-05-02T09:20:36.999Z</time></trkpt><trkpt lat="42.216739672791356" lon="13.817792958846853"><ele>318.0</ele><time>2026-05-02T09:20:37.999Z</time></trkpt><trkpt lat="42.21686582468601" lon="13.817701558141028"><ele>318.0</ele><time>2026-05-02T09:20:38.999Z</time></trkpt><trkpt lat="42.21700216918677" lon="13.817616386610972"><ele>318.0</ele><time>2026-05-02T09:20:39.999Z</time></trkpt><trkpt lat="42.217144035245916" lon="13.817532634119274"><ele>318.0</ele><time>2026-05-02T09:20:40.999Z</time></trkpt><trkpt lat="42.21729244225248" lon="13.817472813451396"><ele>318.3333333333333</ele><time>2026-05-02T09:20:41.999Z</time></trkpt><trkpt lat="42.2174515080615" lon="13.817417343364742"><ele>318.66666666666663</ele><time>2026-05-02T09:20:42.999Z</time></trkpt><trkpt lat="42.21761465021601" lon="13.817377282917658"><ele>319.0</ele><time>2026-05-02T09:20:43.999Z</time></trkpt><trkpt lat="42.21778220389247" lon="13.817336128779122"><ele>319.0</ele><time>2026-05-02T09:20:44.999Z</time></trkpt><trkpt lat="42.217969937864815" lon="13.81730925191612"><ele>319.0</ele><time>2026-05-02T09:20:45.999Z</time></trkpt><trkpt lat="42.21816641997769" lon="13.817273556716962"><ele>319.0</ele><time>2026-05-02T09:20:46.999Z</time></trkpt><trkpt lat="42.21828533998603" lon="13.817251904063502"><ele>318.66666666666663</ele><time>2026-05-02T09:20:47.999Z</time></trkpt><trkpt lat="42.21845525897891" lon="13.81722310019801"><ele>318.3333333333333</ele><time>2026-05-02T09:20:48.999Z</time></trkpt><trkpt lat="42.21861387195263" lon="13.817192853667978"><ele>318.0</ele><time>2026-05-02T09:20:49.999Z</time></trkpt><trkpt lat="42.21877426199918" lon="13.81716020519672"><ele>318.0</ele><time>2026-05-02T09:20:50.999Z</time></trkpt><trkpt lat="42.218938840518305" lon="13.817129595134208"><ele>318.0</ele><time>2026-05-02T09:20:51.999Z</time></trkpt><trkpt lat="42.219105899756" lon="13.817100665594142"><ele>318.0</ele><time>2026-05-02T09:20:52.999Z</time></trkpt><trkpt lat="42.21927070282833" lon="13.817073108087662"><ele>318.3333333333333</ele><time>2026-05-02T09:20:53.999Z</time></trkpt><trkpt lat="42.219435581323076" lon="13.817050135687484"><ele>318.66666666666663</ele><time>2026-05-02T09:20:54.999Z</time></trkpt><trkpt lat="42.21959497997958" lon="13.817027355405358"><ele>319.0</ele><time>2026-05-02T09:20:55.999Z</time></trkpt><trkpt lat="42.2197576369316" lon="13.817023252467523"><ele>318.66666666666663</ele><time>2026-05-02T09:20:56.999Z</time></trkpt><trkpt lat="42.219922381280824" lon="13.817034943775298"><ele>318.3333333333333</ele><time>2026-05-02T09:20:57.999Z</time></trkpt><trkpt lat="42.22008207208979" lon="13.817063566860291"><ele>318.0</ele><time>2026-05-02T09:20:58.999Z</time></trkpt><trkpt lat="42.220236535557035" lon="13.817098950966685"><ele>318.0</ele><time>2026-05-02T09:20:59.999Z</time></trkpt><trkpt lat="42.22038924508373" lon="13.817145490908606"><ele>318.0</ele><time>2026-05-02T09:21:00.999Z</time></trkpt><trkpt lat="42.220539987215936" lon="13.817187986466287"><ele>318.0</ele><time>2026-05-02T09:21:01.999Z</time></trkpt><trkpt lat="42.22069984437484" lon="13.817242645914959"><ele>317.6666666666667</ele><time>2026-05-02T09:21:02.999Z</time></trkpt><trkpt lat="42.220866960471135" lon="13.817297082283776"><ele>317.33333333333337</ele><time>2026-05-02T09:21:03.999Z</time></trkpt><trkpt lat="42.2210397340721" lon="13.817345454484913"><ele>317.0</ele><time>2026-05-02T09:21:04.999Z</time></trkpt><trkpt lat="42.22120766080121" lon="13.817393481718087"><ele>317.0</ele><time>2026-05-02T09:21:05.999Z</time></trkpt><trkpt lat="42.2213813809527" lon="13.817436249986118"><ele>317.0</ele><time>2026-05-02T09:21:06.999Z</time></trkpt><trkpt lat="42.221551502521216" lon="13.817467990884687"><ele>317.0</ele><time>2026-05-02T09:21:07.999Z</time></trkpt><trkpt lat="42.22172191840778" lon="13.817469648907311"><ele>317.0</ele><time>2026-05-02T09:21:08.999Z</time></trkpt><trkpt lat="42.22189178013468" lon="13.817476102156697"><ele>317.0</ele><time>2026-05-02T09:21:09.999Z</time></trkpt><trkpt lat="42.22206503243633" lon="13.817468064287846"><ele>317.0</ele><time>2026-05-02T09:21:10.999Z</time></trkpt><trkpt lat="42.222236535570566" lon="13.817438943600253"><ele>318.0</ele><time>2026-05-02T09:21:11.999Z</time></trkpt><trkpt lat="42.222409720797934" lon="13.817388250423491"><ele>319.0</ele><time>2026-05-02T09:21:12.999Z</time></trkpt><trkpt lat="42.22258680111897" lon="13.817322210739116"><ele>320.0</ele><time>2026-05-02T09:21:13.999Z</time></trkpt><trkpt lat="42.22275909004057" lon="13.817245706957793"><ele>320.0</ele><time>2026-05-02T09:21:14.999Z</time></trkpt><trkpt lat="42.222926189520614" lon="13.817155756481712"><ele>320.0</ele><time>2026-05-02T09:21:15.999Z</time></trkpt><trkpt lat="42.22308943988933" lon="13.81704721372729"><ele>320.0</ele><time>2026-05-02T09:21:16.999Z</time></trkpt><trkpt lat="42.22325477749883" lon="13.81692233118941"><ele>320.33333333333337</ele><time>2026-05-02T09:21:17.999Z</time></trkpt><trkpt lat="42.223421260639064" lon="13.816811357410014"><ele>320.6666666666667</ele><time>2026-05-02T09:21:18.999Z</time></trkpt><trkpt lat="42.223608276535074" lon="13.816695575212288"><ele>321.0</ele><time>2026-05-02T09:21:19.999Z</time></trkpt><trkpt lat="42.22373987864825" lon="13.816544896326395"><ele>321.0</ele><time>2026-05-02T09:21:20.999Z</time></trkpt><trkpt lat="42.223901128892166" lon="13.816398507882825"><ele>321.0</ele><time>2026-05-02T09:21:21.999Z</time></trkpt><trkpt lat="42.22405576106021" lon="13.816270327681819"><ele>321.0</ele><time>2026-05-02T09:21:22.999Z</time></trkpt><trkpt lat="42.22421662026903" lon="13.816138930849064"><ele>320.6666666666667</ele><time>2026-05-02T09:21:23.999Z</time></trkpt><trkpt lat="42.224380873516985" lon="13.816016445467556"><ele>320.33333333333337</ele><time>2026-05-02T09:21:24.999Z</time></trkpt><trkpt lat="42.22458257563396" lon="13.815923818412715"><ele>320.0</ele><time>2026-05-02T09:21:25.999Z</time></trkpt><trkpt lat="42.22478364693354" lon="13.81583619370604"><ele>319.0</ele><time>2026-05-02T09:21:26.999Z</time></trkpt><trkpt lat="42.224973596738906" lon="13.81569447052006"><ele>318.0</ele><time>2026-05-02T09:21:27.999Z</time></trkpt><trkpt lat="42.22499676656458" lon="13.815565180175547"><ele>317.0</ele><time>2026-05-02T09:21:28.999Z</time></trkpt><trkpt lat="42.22517088264918" lon="13.815487859346606"><ele>317.0</ele><time>2026-05-02T09:21:29.999Z</time></trkpt><trkpt lat="42.22534496471212" lon="13.815422018322707"><ele>317.0</ele><time>2026-05-02T09:21:30.999Z</time></trkpt><trkpt lat="42.225525899661115" lon="13.815368886172513"><ele>317.0</ele><time>2026-05-02T09:21:31.999Z</time></trkpt><trkpt lat="42.22570760703786" lon="13.81531872863186"><ele>317.0</ele><time>2026-05-02T09:21:32.999Z</time></trkpt><trkpt lat="42.225892772370926" lon="13.81527157472358"><ele>317.0</ele><time>2026-05-02T09:21:33.999Z</time></trkpt><trkpt lat="42.22607596418932" lon="13.815230388880064"><ele>317.0</ele><time>2026-05-02T09:21:34.999Z</time></trkpt><trkpt lat="42.2262582154339" lon="13.815182259998279"><ele>319.0</ele><time>2026-05-02T09:21:35.999Z</time></trkpt><trkpt lat="42.22644085490729" lon="13.815139114526042"><ele>321.0</ele><time>2026-05-02T09:21:36.999Z</time></trkpt><trkpt lat="42.22662005051571" lon="13.815091443847162"><ele>323.0</ele><time>2026-05-02T09:21:37.999Z</time></trkpt><trkpt lat="42.22679901363287" lon="13.815043607839208"><ele>323.0</ele><time>2026-05-02T09:21:38.999Z</time></trkpt><trkpt lat="42.226973628126814" lon="13.814998745467268"><ele>323.0</ele><time>2026-05-02T09:21:39.999Z</time></trkpt><trkpt lat="42.22715136570976" lon="13.814951542275425"><ele>323.0</ele><time>2026-05-02T09:21:40.999Z</time></trkpt><trkpt lat="42.22732958330047" lon="13.814910285454406"><ele>321.6666666666667</ele><time>2026-05-02T09:21:41.999Z</time></trkpt><trkpt lat="42.227505855071854" lon="13.814877705082349"><ele>320.3333333333333</ele><time>2026-05-02T09:21:42.999Z</time></trkpt><trkpt lat="42.22767356856469" lon="13.814862512566856"><ele>319.0</ele><time>2026-05-02T09:21:43.999Z</time></trkpt><trkpt lat="42.227838947840745" lon="13.814854612263975"><ele>319.0</ele><time>2026-05-02T09:21:44.999Z</time></trkpt><trkpt lat="42.22799999450576" lon="13.814841916066413"><ele>319.0</ele><time>2026-05-02T09:21:45.999Z</time></trkpt><trkpt lat="42.22814627478587" lon="13.814826464321849"><ele>319.0</ele><time>2026-05-02T09:21:46.999Z</time></trkpt><trkpt lat="42.228289335367556" lon="13.814811341780324"><ele>319.0</ele><time>2026-05-02T09:21:47.999Z</time></trkpt><trkpt lat="42.228409438975106" lon="13.814799090000811"><ele>319.0</ele><time>2026-05-02T09:21:48.999Z</time></trkpt><trkpt lat="42.2285131281233" lon="13.814790117394976"><ele>319.0</ele><time>2026-05-02T09:21:49.999Z</time></trkpt><trkpt lat="42.228608952572216" lon="13.814792162813855"><ele>319.0</ele><time>2026-05-02T09:21:50.999Z</time></trkpt><trkpt lat="42.22870213218258" lon="13.81481996436466"><ele>319.0</ele><time>2026-05-02T09:21:51.998Z</time></trkpt><trkpt lat="42.22879171734367" lon="13.81485386482615"><ele>319.0</ele><time>2026-05-02T09:21:52.998Z</time></trkpt><trkpt lat="42.22889069891577" lon="13.814898327808931"><ele>319.0</ele><time>2026-05-02T09:21:53.998Z</time></trkpt><trkpt lat="42.22899354246966" lon="13.814949779948037"><ele>319.0</ele><time>2026-05-02T09:21:54.998Z</time></trkpt><trkpt lat="42.229091672543845" lon="13.8150026878568"><ele>319.0</ele><time>2026-05-02T09:21:55.998Z</time></trkpt><trkpt lat="42.22918377901246" lon="13.815057467564197"><ele>319.0</ele><time>2026-05-02T09:21:56.998Z</time></trkpt><trkpt lat="42.22926751287947" lon="13.815107496771024"><ele>318.8</ele><time>2026-05-02T09:21:57.998Z</time></trkpt><trkpt lat="42.229340588598895" lon="13.81514323924769"><ele>318.59999999999997</ele><time>2026-05-02T09:21:58.998Z</time></trkpt><trkpt lat="42.22945096543786" lon="13.815198944156126"><ele>318.4</ele><time>2026-05-02T09:22:00.998Z</time></trkpt><trkpt lat="42.2295306343027" lon="13.815197441251103"><ele>318.2</ele><time>2026-05-02T09:22:02.998Z</time></trkpt><trkpt lat="42.22956253035124" lon="13.815334386868145"><ele>318.0</ele><time>2026-05-02T09:22:03.998Z</time></trkpt><trkpt lat="42.229619784616105" lon="13.815420580019843"><ele>318.0</ele><time>2026-05-02T09:22:04.998Z</time></trkpt><trkpt lat="42.22969551487994" lon="13.815510485070302"><ele>318.0</ele><time>2026-05-02T09:22:05.998Z</time></trkpt><trkpt lat="42.22974939526779" lon="13.815612856886894"><ele>318.0</ele><time>2026-05-02T09:22:06.998Z</time></trkpt><trkpt lat="42.22979906100809" lon="13.815710692765974"><ele>318.0</ele><time>2026-05-02T09:22:07.998Z</time></trkpt><trkpt lat="42.22984560306304" lon="13.81580044928679"><ele>318.0</ele><time>2026-05-02T09:22:08.998Z</time></trkpt><trkpt lat="42.229892221511285" lon="13.815873223251902"><ele>318.0</ele><time>2026-05-02T09:22:09.998Z</time></trkpt><trkpt lat="42.229928991126414" lon="13.815943687554054"><ele>317.6</ele><time>2026-05-02T09:22:10.998Z</time></trkpt><trkpt lat="42.22995563311442" lon="13.81609881287961"><ele>317.20000000000005</ele><time>2026-05-02T09:22:12.998Z</time></trkpt><trkpt lat="42.229919275954295" lon="13.816262243299365"><ele>316.8</ele><time>2026-05-02T09:22:14.998Z</time></trkpt><trkpt lat="42.22990663517784" lon="13.816361270147862"><ele>316.40000000000003</ele><time>2026-05-02T09:22:15.998Z</time></trkpt><trkpt lat="42.22989727037872" lon="13.816450097391249"><ele>316.0</ele><time>2026-05-02T09:22:16.998Z</time></trkpt><trkpt lat="42.22987216988099" lon="13.81653665228291"><ele>316.0</ele><time>2026-05-02T09:22:17.998Z</time></trkpt><trkpt lat="42.22987676878928" lon="13.816642429403256"><ele>316.0</ele><time>2026-05-02T09:22:18.998Z</time></trkpt><trkpt lat="42.229911763069246" lon="13.816736250737623"><ele>316.0</ele><time>2026-05-02T09:22:19.998Z</time></trkpt><trkpt lat="42.229924524268085" lon="13.81684223461162"><ele>316.0</ele><time>2026-05-02T09:22:20.999Z</time></trkpt><trkpt lat="42.229941177161336" lon="13.816966165184253"><ele>316.0</ele><time>2026-05-02T09:22:21.999Z</time></trkpt><trkpt lat="42.22994541912307" lon="13.817084494594589"><ele>316.0</ele><time>2026-05-02T09:22:22.999Z</time></trkpt><trkpt lat="42.22995879887818" lon="13.817201671904678"><ele>315.75</ele><time>2026-05-02T09:22:23.999Z</time></trkpt><trkpt lat="42.229971256612686" lon="13.817345545182242"><ele>315.5</ele><time>2026-05-02T09:22:24.999Z</time></trkpt><trkpt lat="42.22998426453664" lon="13.817509683721594"><ele>315.25</ele><time>2026-05-02T09:22:25.999Z</time></trkpt><trkpt lat="42.22999900762718" lon="13.817687322057468"><ele>315.0</ele><time>2026-05-02T09:22:26.999Z</time></trkpt><trkpt lat="42.23003350874485" lon="13.817862031964376"><ele>315.0</ele><time>2026-05-02T09:22:27.999Z</time></trkpt><trkpt lat="42.2300465414872" lon="13.818033754569264"><ele>315.0</ele><time>2026-05-02T09:22:28.999Z</time></trkpt><trkpt lat="42.2300676656713" lon="13.818197041173192"><ele>315.0</ele><time>2026-05-02T09:22:29.999Z</time></trkpt><trkpt lat="42.230071239553745" lon="13.81836744007113"><ele>315.0</ele><time>2026-05-02T09:22:30.999Z</time></trkpt><trkpt lat="42.2300889071229" lon="13.818535242865845"><ele>315.0</ele><time>2026-05-02T09:22:31.999Z</time></trkpt><trkpt lat="42.23007308721553" lon="13.81870177612672"><ele>315.0</ele><time>2026-05-02T09:22:32.999Z</time></trkpt><trkpt lat="42.23007184582059" lon="13.81886403850284"><ele>315.0</ele><time>2026-05-02T09:22:33.999Z</time></trkpt><trkpt lat="42.230090024597764" lon="13.819018057744756"><ele>315.0</ele><time>2026-05-02T09:22:34.999Z</time></trkpt><trkpt lat="42.230094928018275" lon="13.81915905275917"><ele>315.0</ele><time>2026-05-02T09:22:35.999Z</time></trkpt><trkpt lat="42.23009913442209" lon="13.819291888479409"><ele>315.0</ele><time>2026-05-02T09:22:36.999Z</time></trkpt><trkpt lat="42.230112372634174" lon="13.819406312614099"><ele>315.0</ele><time>2026-05-02T09:22:37.999Z</time></trkpt><trkpt lat="42.23011323794296" lon="13.819501730093126"><ele>315.0</ele><time>2026-05-02T09:22:38.999Z</time></trkpt><trkpt lat="42.23013102794133" lon="13.819632147819586"><ele>315.0</ele><time>2026-05-02T09:22:40.999Z</time></trkpt><trkpt lat="42.23028084518095" lon="13.819662010032445"><ele>315.6</ele><time>2026-05-02T09:22:44.999Z</time></trkpt><trkpt lat="42.23035861832403" lon="13.819642547859127"><ele>316.2</ele><time>2026-05-02T09:22:45.999Z</time></trkpt><trkpt lat="42.23045071020224" lon="13.819629462634005"><ele>316.8</ele><time>2026-05-02T09:22:46.999Z</time></trkpt><trkpt lat="42.23055619467111" lon="13.819621779190093"><ele>317.4</ele><time>2026-05-02T09:22:47.999Z</time></trkpt><trkpt lat="42.230673375485146" lon="13.819606245732848"><ele>318.0</ele><time>2026-05-02T09:22:48.999Z</time></trkpt><trkpt lat="42.23080163077247" lon="13.819588211205051"><ele>319.75</ele><time>2026-05-02T09:22:49.999Z</time></trkpt><trkpt lat="42.23094019075172" lon="13.819568179423758"><ele>321.5</ele><time>2026-05-02T09:22:50.999Z</time></trkpt><trkpt lat="42.23107648562149" lon="13.819524989766991"><ele>323.25</ele><time>2026-05-02T09:22:51.999Z</time></trkpt><trkpt lat="42.23120537541614" lon="13.8194534150542"><ele>325.0</ele><time>2026-05-02T09:22:52.999Z</time></trkpt><trkpt lat="42.23131618219765" lon="13.819368843701616"><ele>323.75</ele><time>2026-05-02T09:22:53.999Z</time></trkpt><trkpt lat="42.23142390173252" lon="13.819285440122412"><ele>322.5</ele><time>2026-05-02T09:22:54.999Z</time></trkpt><trkpt lat="42.2315360345505" lon="13.819221115396845"><ele>321.25</ele><time>2026-05-02T09:22:55.999Z</time></trkpt><trkpt lat="42.23165025461248" lon="13.819168085126481"><ele>320.0</ele><time>2026-05-02T09:22:56.999Z</time></trkpt><trkpt lat="42.231779894233185" lon="13.819123222671482"><ele>320.0</ele><time>2026-05-02T09:22:57.999Z</time></trkpt><trkpt lat="42.23191286132331" lon="13.819098428107015"><ele>320.0</ele><time>2026-05-02T09:22:58.999Z</time></trkpt><trkpt lat="42.23204951685119" lon="13.81908622700369"><ele>320.0</ele><time>2026-05-02T09:22:59.999Z</time></trkpt><trkpt lat="42.23218726102087" lon="13.819080385511771"><ele>320.0</ele><time>2026-05-02T09:23:00.999Z</time></trkpt><trkpt lat="42.23231403092952" lon="13.819084408606848"><ele>320.33333333333337</ele><time>2026-05-02T09:23:01.999Z</time></trkpt><trkpt lat="42.232482381517556" lon="13.819049430623158"><ele>320.6666666666667</ele><time>2026-05-02T09:23:02.999Z</time></trkpt><trkpt lat="42.23262317160591" lon="13.819047246977517"><ele>321.0</ele><time>2026-05-02T09:23:03.999Z</time></trkpt><trkpt lat="42.232767569150894" lon="13.81903690355546"><ele>321.0</ele><time>2026-05-02T09:23:04.999Z</time></trkpt><trkpt lat="42.23290847789201" lon="13.819019724250047"><ele>321.0</ele><time>2026-05-02T09:23:05.999Z</time></trkpt><trkpt lat="42.23304752337004" lon="13.818975700866577"><ele>321.0</ele><time>2026-05-02T09:23:06.999Z</time></trkpt><trkpt lat="42.23318021765322" lon="13.818908978068368"><ele>321.0</ele><time>2026-05-02T09:23:07.999Z</time></trkpt><trkpt lat="42.23331887703119" lon="13.818838784424734"><ele>323.5</ele><time>2026-05-02T09:23:08.999Z</time></trkpt><trkpt lat="42.2334508895386" lon="13.8187723580124"><ele>326.0</ele><time>2026-05-02T09:23:09.999Z</time></trkpt><trkpt lat="42.233585601130635" lon="13.81869565497494"><ele>328.5</ele><time>2026-05-02T09:23:10.999Z</time></trkpt><trkpt lat="42.233711273726" lon="13.81862665353419"><ele>331.0</ele><time>2026-05-02T09:23:11.999Z</time></trkpt><trkpt lat="42.23384608012185" lon="13.818544584169024"><ele>329.75</ele><time>2026-05-02T09:23:12.999Z</time></trkpt><trkpt lat="42.233976664272234" lon="13.818469055006146"><ele>328.5</ele><time>2026-05-02T09:23:13.999Z</time></trkpt><trkpt lat="42.234104410957386" lon="13.818385094332328"><ele>327.25</ele><time>2026-05-02T09:23:14.999Z</time></trkpt><trkpt lat="42.234230989249006" lon="13.818292021985009"><ele>326.0</ele><time>2026-05-02T09:23:15.999Z</time></trkpt><trkpt lat="42.23434979778425" lon="13.81819128601819"><ele>326.0</ele><time>2026-05-02T09:23:16.999Z</time></trkpt><trkpt lat="42.23446745006965" lon="13.818076270571545"><ele>326.0</ele><time>2026-05-02T09:23:17.999Z</time></trkpt><trkpt lat="42.234579963405615" lon="13.81795849265321"><ele>326.0</ele><time>2026-05-02T09:23:18.999Z</time></trkpt><trkpt lat="42.234683253409045" lon="13.817834114551497"><ele>326.0</ele><time>2026-05-02T09:23:19.999Z</time></trkpt><trkpt lat="42.23477920407104" lon="13.817699251620766"><ele>324.75</ele><time>2026-05-02T09:23:20.999Z</time></trkpt><trkpt lat="42.234868665313314" lon="13.817557462718135"><ele>323.5</ele><time>2026-05-02T09:23:21.999Z</time></trkpt><trkpt lat="42.23494499449564" lon="13.817424765418636"><ele>322.25</ele><time>2026-05-02T09:23:22.999Z</time></trkpt><trkpt lat="42.23501548152884" lon="13.817294404564858"><ele>321.0</ele><time>2026-05-02T09:23:23.999Z</time></trkpt><trkpt lat="42.23506810918547" lon="13.817184471840806"><ele>321.0</ele><time>2026-05-02T09:23:24.999Z</time></trkpt><trkpt lat="42.23511795708198" lon="13.817092956922806"><ele>321.0</ele><time>2026-05-02T09:23:25.999Z</time></trkpt><trkpt lat="42.235160991617754" lon="13.816990935772825"><ele>321.0</ele><time>2026-05-02T09:23:26.999Z</time></trkpt><trkpt lat="42.23519808011117" lon="13.81688830544441"><ele>321.0</ele><time>2026-05-02T09:23:27.999Z</time></trkpt><trkpt lat="42.235244843432746" lon="13.81678107768923"><ele>321.0</ele><time>2026-05-02T09:23:28.999Z</time></trkpt><trkpt lat="42.235293110802694" lon="13.816674612477389"><ele>321.0</ele><time>2026-05-02T09:23:29.999Z</time></trkpt><trkpt lat="42.23534547516274" lon="13.816561716483049"><ele>321.20000000000005</ele><time>2026-05-02T09:23:30.999Z</time></trkpt><trkpt lat="42.23540702836951" lon="13.816457999853034"><ele>321.40000000000003</ele><time>2026-05-02T09:23:31.999Z</time></trkpt><trkpt lat="42.23549092982352" lon="13.816368471935895"><ele>321.6</ele><time>2026-05-02T09:23:32.999Z</time></trkpt><trkpt lat="42.23558507166358" lon="13.816299307857784"><ele>321.8</ele><time>2026-05-02T09:23:33.999Z</time></trkpt><trkpt lat="42.23568885308628" lon="13.816248671739466"><ele>322.0</ele><time>2026-05-02T09:23:34.999Z</time></trkpt><trkpt lat="42.235797261137016" lon="13.816222593236125"><ele>322.0</ele><time>2026-05-02T09:23:35.999Z</time></trkpt><trkpt lat="42.2359109684946" lon="13.816225772645993"><ele>322.0</ele><time>2026-05-02T09:23:36.999Z</time></trkpt><trkpt lat="42.23601946814574" lon="13.816259165555985"><ele>322.0</ele><time>2026-05-02T09:23:37.999Z</time></trkpt><trkpt lat="42.23612142923374" lon="13.816321664554925"><ele>322.0</ele><time>2026-05-02T09:23:38.999Z</time></trkpt><trkpt lat="42.23621959199959" lon="13.81641058803028"><ele>322.0</ele><time>2026-05-02T09:23:39.999Z</time></trkpt><trkpt lat="42.23631883643848" lon="13.816507873579349"><ele>322.0</ele><time>2026-05-02T09:23:40.999Z</time></trkpt><trkpt lat="42.23642845421033" lon="13.816596026161848"><ele>322.0</ele><time>2026-05-02T09:23:41.999Z</time></trkpt><trkpt lat="42.236547697644205" lon="13.816664883402357"><ele>322.0</ele><time>2026-05-02T09:23:42.999Z</time></trkpt><trkpt lat="42.23667214786074" lon="13.81671977693459"><ele>321.5</ele><time>2026-05-02T09:23:43.999Z</time></trkpt><trkpt lat="42.23679590534319" lon="13.816765414996903"><ele>321.0</ele><time>2026-05-02T09:23:44.999Z</time></trkpt><trkpt lat="42.236918395139014" lon="13.816786158730935"><ele>320.5</ele><time>2026-05-02T09:23:45.999Z</time></trkpt><trkpt lat="42.23704605872623" lon="13.816757527600647"><ele>320.0</ele><time>2026-05-02T09:23:46.999Z</time></trkpt><trkpt lat="42.23718880821596" lon="13.816699300387329"><ele>320.0</ele><time>2026-05-02T09:23:47.999Z</time></trkpt><trkpt lat="42.237294907611584" lon="13.81668568677769"><ele>320.0</ele><time>2026-05-02T09:23:48.999Z</time></trkpt><trkpt lat="42.23741733388093" lon="13.816625009442706"><ele>320.0</ele><time>2026-05-02T09:23:49.999Z</time></trkpt><trkpt lat="42.237539838563215" lon="13.816564619124788"><ele>320.0</ele><time>2026-05-02T09:23:50.999Z</time></trkpt><trkpt lat="42.23766280501758" lon="13.816497934546543"><ele>319.75</ele><time>2026-05-02T09:23:51.999Z</time></trkpt><trkpt lat="42.23778649667063" lon="13.816431781533215"><ele>319.5</ele><time>2026-05-02T09:23:52.998Z</time></trkpt><trkpt lat="42.23790855592576" lon="13.816375284416766"><ele>319.25</ele><time>2026-05-02T09:23:53.998Z</time></trkpt><trkpt lat="42.23802678557327" lon="13.816320009572461"><ele>319.0</ele><time>2026-05-02T09:23:54.998Z</time></trkpt><trkpt lat="42.23814338535268" lon="13.816267860512037"><ele>319.0</ele><time>2026-05-02T09:23:55.998Z</time></trkpt><trkpt lat="42.238253234533275" lon="13.81621032950495"><ele>319.0</ele><time>2026-05-02T09:23:56.998Z</time></trkpt><trkpt lat="42.238360730393346" lon="13.816164572186368"><ele>319.0</ele><time>2026-05-02T09:23:57.998Z</time></trkpt><trkpt lat="42.238460019866814" lon="13.816123244859996"><ele>319.0</ele><time>2026-05-02T09:23:58.998Z</time></trkpt><trkpt lat="42.23855984056444" lon="13.816103262925264"><ele>319.0</ele><time>2026-05-02T09:23:59.998Z</time></trkpt><trkpt lat="42.2386652355273" lon="13.816100269738756"><ele>319.0</ele><time>2026-05-02T09:24:00.998Z</time></trkpt><trkpt lat="42.2387744951859" lon="13.816095642437212"><ele>319.0</ele><time>2026-05-02T09:24:01.998Z</time></trkpt><trkpt lat="42.23888246621247" lon="13.816127251008094"><ele>319.0</ele><time>2026-05-02T09:24:02.998Z</time></trkpt><trkpt lat="42.23898136791308" lon="13.816148403163757"><ele>319.0</ele><time>2026-05-02T09:24:03.998Z</time></trkpt><trkpt lat="42.23906593132417" lon="13.816164442725048"><ele>319.0</ele><time>2026-05-02T09:24:04.998Z</time></trkpt><trkpt lat="42.23913746406428" lon="13.816178500160804"><ele>319.5714285714286</ele><time>2026-05-02T09:24:05.998Z</time></trkpt><trkpt lat="42.23920207183058" lon="13.816190091148309"><ele>320.1428571428571</ele><time>2026-05-02T09:24:06.998Z</time></trkpt><trkpt lat="42.23927055502351" lon="13.816199043545296"><ele>320.7142857142857</ele><time>2026-05-02T09:24:07.998Z</time></trkpt><trkpt lat="42.239369388642075" lon="13.816245308777326"><ele>321.28571428571433</ele><time>2026-05-02T09:24:09.998Z</time></trkpt><trkpt lat="42.2393731715101" lon="13.816332039192265"><ele>321.8571428571429</ele><time>2026-05-02T09:24:10.998Z</time></trkpt><trkpt lat="42.23941221506975" lon="13.816410266489283"><ele>322.42857142857144</ele><time>2026-05-02T09:24:11.998Z</time></trkpt><trkpt lat="42.239455638548314" lon="13.816485710442354"><ele>323.0</ele><time>2026-05-02T09:24:12.998Z</time></trkpt><trkpt lat="42.23951566085865" lon="13.81651929141251"><ele>323.0</ele><time>2026-05-02T09:24:13.998Z</time></trkpt><trkpt lat="42.23957969938502" lon="13.81652658711936"><ele>323.0</ele><time>2026-05-02T09:24:14.998Z</time></trkpt><trkpt lat="42.23965868934026" lon="13.81650801837511"><ele>323.0</ele><time>2026-05-02T09:24:15.998Z</time></trkpt><trkpt lat="42.23974562336892" lon="13.8164802920545"><ele>323.0</ele><time>2026-05-02T09:24:16.998Z</time></trkpt><trkpt lat="42.23984179322914" lon="13.8164446212531"><ele>323.0</ele><time>2026-05-02T09:24:17.998Z</time></trkpt><trkpt lat="42.23993226501985" lon="13.816398211505705"><ele>323.0</ele><time>2026-05-02T09:24:18.998Z</time></trkpt><trkpt lat="42.240022097391716" lon="13.816356333892443"><ele>323.79999999999995</ele><time>2026-05-02T09:24:19.998Z</time></trkpt><trkpt lat="42.24011375794986" lon="13.81633686431848"><ele>324.6</ele><time>2026-05-02T09:24:20.998Z</time></trkpt><trkpt lat="42.24021468319462" lon="13.816335984529937"><ele>325.4</ele><time>2026-05-02T09:24:21.998Z</time></trkpt><trkpt lat="42.240322762374845" lon="13.816332399282349"><ele>326.20000000000005</ele><time>2026-05-02T09:24:22.998Z</time></trkpt><trkpt lat="42.24044363066944" lon="13.816329831946666"><ele>327.0</ele><time>2026-05-02T09:24:23.998Z</time></trkpt><trkpt lat="42.24056945054343" lon="13.81632250109139"><ele>327.5</ele><time>2026-05-02T09:24:24.998Z</time></trkpt><trkpt lat="42.240694573131755" lon="13.816320007186834"><ele>328.0</ele><time>2026-05-02T09:24:25.998Z</time></trkpt><trkpt lat="42.24081544597313" lon="13.81631564023395"><ele>328.5</ele><time>2026-05-02T09:24:26.999Z</time></trkpt><trkpt lat="42.24093258990047" lon="13.816305131056598"><ele>329.0</ele><time>2026-05-02T09:24:27.999Z</time></trkpt><trkpt lat="42.241037199965646" lon="13.816304975391324"><ele>329.0</ele><time>2026-05-02T09:24:28.999Z</time></trkpt><trkpt lat="42.24112106400023" lon="13.816289390374031"><ele>329.0</ele><time>2026-05-02T09:24:29.999Z</time></trkpt><trkpt lat="42.24119494363161" lon="13.816265065537259"><ele>329.0</ele><time>2026-05-02T09:24:30.999Z</time></trkpt><trkpt lat="42.241258861445395" lon="13.816240077164528"><ele>329.0</ele><time>2026-05-02T09:24:31.999Z</time></trkpt><trkpt lat="42.2413700768206" lon="13.816177935970629"><ele>329.0</ele><time>2026-05-02T09:24:33.999Z</time></trkpt><trkpt lat="42.24143222048077" lon="13.816134024634053"><ele>329.0</ele><time>2026-05-02T09:24:34.999Z</time></trkpt><trkpt lat="42.24149948580076" lon="13.816072316382932"><ele>327.6666666666667</ele><time>2026-05-02T09:24:35.999Z</time></trkpt><trkpt lat="42.24156233786995" lon="13.815983119851646"><ele>326.33333333333337</ele><time>2026-05-02T09:24:36.999Z</time></trkpt><trkpt lat="42.241618531858855" lon="13.815895595539564"><ele>325.0</ele><time>2026-05-02T09:24:37.999Z</time></trkpt><trkpt lat="42.24166092599943" lon="13.815811920367805"><ele>323.6666666666667</ele><time>2026-05-02T09:24:38.999Z</time></trkpt><trkpt lat="42.24167182602399" lon="13.815726455348752"><ele>322.3333333333333</ele><time>2026-05-02T09:24:39.999Z</time></trkpt><trkpt lat="42.24166030130938" lon="13.815625413135875"><ele>321.0</ele><time>2026-05-02T09:24:40.999Z</time></trkpt><trkpt lat="42.24167286305216" lon="13.815509558272359"><ele>321.0</ele><time>2026-05-02T09:24:41.999Z</time></trkpt><trkpt lat="42.241680997629004" lon="13.815404228716252"><ele>321.0</ele><time>2026-05-02T09:24:42.999Z</time></trkpt><trkpt lat="42.24172143579729" lon="13.815295964717022"><ele>321.0</ele><time>2026-05-02T09:24:43.999Z</time></trkpt><trkpt lat="42.24176894670725" lon="13.815196739729297"><ele>321.0</ele><time>2026-05-02T09:24:44.999Z</time></trkpt><trkpt lat="42.24181612923433" lon="13.815115675092018"><ele>321.0</ele><time>2026-05-02T09:24:45.999Z</time></trkpt><trkpt lat="42.24186436399069" lon="13.815036231307245"><ele>321.0</ele><time>2026-05-02T09:24:46.999Z</time></trkpt><trkpt lat="42.241938303582586" lon="13.814914834564512"><ele>320.6666666666667</ele><time>2026-05-02T09:24:48.999Z</time></trkpt><trkpt lat="42.24194529252765" lon="13.814770147166183"><ele>320.3333333333333</ele><time>2026-05-02T09:24:49.999Z</time></trkpt><trkpt lat="42.24196172770811" lon="13.814668313522986"><ele>320.0</ele><time>2026-05-02T09:24:51.999Z</time></trkpt><trkpt lat="42.242013280661304" lon="13.814592533198073"><ele>319.66666666666663</ele><time>2026-05-02T09:24:52.999Z</time></trkpt><trkpt lat="42.242115046498206" lon="13.814524670396208"><ele>319.3333333333333</ele><time>2026-05-02T09:24:54.999Z</time></trkpt><trkpt lat="42.24218830764636" lon="13.814506918094544"><ele>319.0</ele><time>2026-05-02T09:24:55.999Z</time></trkpt><trkpt lat="42.24225554336856" lon="13.81448386595269"><ele>319.16666666666663</ele><time>2026-05-02T09:24:56.999Z</time></trkpt><trkpt lat="42.24233194247918" lon="13.81445037460964"><ele>319.3333333333333</ele><time>2026-05-02T09:24:57.999Z</time></trkpt><trkpt lat="42.242397083140936" lon="13.814391229509003"><ele>319.5</ele><time>2026-05-02T09:24:58.999Z</time></trkpt><trkpt lat="42.24246999990976" lon="13.814323821402194"><ele>319.6666666666667</ele><time>2026-05-02T09:24:59.999Z</time></trkpt><trkpt lat="42.24254397114589" lon="13.814252873802554"><ele>319.83333333333337</ele><time>2026-05-02T09:25:00.999Z</time></trkpt><trkpt lat="42.2426227007548" lon="13.814160097118005"><ele>320.0</ele><time>2026-05-02T09:25:01.999Z</time></trkpt><trkpt lat="42.2427156030945" lon="13.814063992893274"><ele>320.0</ele><time>2026-05-02T09:25:02.999Z</time></trkpt><trkpt lat="42.24281664787301" lon="13.81395916578459"><ele>320.0</ele><time>2026-05-02T09:25:03.999Z</time></trkpt><trkpt lat="42.24292041809835" lon="13.813854298213602"><ele>320.0</ele><time>2026-05-02T09:25:04.999Z</time></trkpt><trkpt lat="42.24300643218409" lon="13.813743430618404"><ele>320.0</ele><time>2026-05-02T09:25:05.999Z</time></trkpt><trkpt lat="42.243088496421585" lon="13.8136503079243"><ele>321.0</ele><time>2026-05-02T09:25:06.999Z</time></trkpt><trkpt lat="42.243161920351795" lon="13.813555872310543"><ele>322.0</ele><time>2026-05-02T09:25:07.999Z</time></trkpt><trkpt lat="42.24323748383578" lon="13.81344636957961"><ele>323.0</ele><time>2026-05-02T09:25:08.999Z</time></trkpt><trkpt lat="42.243313371040955" lon="13.813332946089464"><ele>324.0</ele><time>2026-05-02T09:25:09.999Z</time></trkpt><trkpt lat="42.24339485933861" lon="13.81324108694047"><ele>325.0</ele><time>2026-05-02T09:25:10.999Z</time></trkpt><trkpt lat="42.243474933778835" lon="13.813159056953003"><ele>325.0</ele><time>2026-05-02T09:25:11.999Z</time></trkpt><trkpt lat="42.24355699635847" lon="13.813074798515617"><ele>325.0</ele><time>2026-05-02T09:25:12.999Z</time></trkpt><trkpt lat="42.24362344016121" lon="13.81300571724072"><ele>325.0</ele><time>2026-05-02T09:25:13.999Z</time></trkpt><trkpt lat="42.243698829482355" lon="13.81295628764855"><ele>325.0</ele><time>2026-05-02T09:25:14.999Z</time></trkpt><trkpt lat="42.24379337804288" lon="13.81291787329094"><ele>325.0</ele><time>2026-05-02T09:25:15.999Z</time></trkpt><trkpt lat="42.24389927332784" lon="13.812888042632602"><ele>326.0</ele><time>2026-05-02T09:25:16.999Z</time></trkpt><trkpt lat="42.24400806105734" lon="13.812860664354805"><ele>327.0</ele><time>2026-05-02T09:25:17.999Z</time></trkpt><trkpt lat="42.24409569744563" lon="13.812814035176714"><ele>328.0</ele><time>2026-05-02T09:25:18.999Z</time></trkpt><trkpt lat="42.24418075696267" lon="13.812791411052647"><ele>329.0</ele><time>2026-05-02T09:25:19.999Z</time></trkpt><trkpt lat="42.2442468311027" lon="13.812766054317178"><ele>330.0</ele><time>2026-05-02T09:25:20.999Z</time></trkpt><trkpt lat="42.24432046439459" lon="13.812737794890976"><ele>331.0</ele><time>2026-05-02T09:25:21.999Z</time></trkpt><trkpt lat="42.24440888319287" lon="13.812703153832992"><ele>331.0</ele><time>2026-05-02T09:25:22.999Z</time></trkpt><trkpt lat="42.24448899645628" lon="13.812669463097025"><ele>331.0</ele><time>2026-05-02T09:25:23.999Z</time></trkpt><trkpt lat="42.244571518093046" lon="13.812622577566612"><ele>331.0</ele><time>2026-05-02T09:25:24.999Z</time></trkpt><trkpt lat="42.244665239819234" lon="13.812597681341924"><ele>331.0</ele><time>2026-05-02T09:25:25.999Z</time></trkpt><trkpt lat="42.24475154865306" lon="13.812554056331845"><ele>331.0</ele><time>2026-05-02T09:25:26.999Z</time></trkpt><trkpt lat="42.24482358461895" lon="13.812500575124826"><ele>331.0</ele><time>2026-05-02T09:25:27.999Z</time></trkpt><trkpt lat="42.24489192271783" lon="13.812423077093422"><ele>330.4</ele><time>2026-05-02T09:25:28.999Z</time></trkpt><trkpt lat="42.24495168663944" lon="13.812328674873674"><ele>329.8</ele><time>2026-05-02T09:25:29.999Z</time></trkpt><trkpt lat="42.24500709060577" lon="13.812214878898702"><ele>329.2</ele><time>2026-05-02T09:25:30.999Z</time></trkpt><trkpt lat="42.24503898363078" lon="13.812093539218747"><ele>328.59999999999997</ele><time>2026-05-02T09:25:31.999Z</time></trkpt><trkpt lat="42.245050786912614" lon="13.811957315306278"><ele>328.0</ele><time>2026-05-02T09:25:32.999Z</time></trkpt><trkpt lat="42.2450666091762" lon="13.811832136200549"><ele>327.3333333333333</ele><time>2026-05-02T09:25:33.999Z</time></trkpt><trkpt lat="42.245089980149174" lon="13.81171829415276"><ele>326.66666666666663</ele><time>2026-05-02T09:25:34.999Z</time></trkpt><trkpt lat="42.24512332692144" lon="13.81163125364072"><ele>326.0</ele><time>2026-05-02T09:25:35.999Z</time></trkpt><trkpt lat="42.2451628245693" lon="13.811542564432871"><ele>325.3333333333333</ele><time>2026-05-02T09:25:36.999Z</time></trkpt><trkpt lat="42.24522647856208" lon="13.811451759531494"><ele>324.6666666666667</ele><time>2026-05-02T09:25:37.999Z</time></trkpt><trkpt lat="42.245309123386164" lon="13.811364055090088"><ele>324.0</ele><time>2026-05-02T09:25:38.999Z</time></trkpt><trkpt lat="42.245402871104815" lon="13.811275592502238"><ele>324.0</ele><time>2026-05-02T09:25:39.999Z</time></trkpt><trkpt lat="42.24549324836628" lon="13.81118340602902"><ele>324.0</ele><time>2026-05-02T09:25:40.999Z</time></trkpt><trkpt lat="42.24557880486567" lon="13.811091980468028"><ele>324.0</ele><time>2026-05-02T09:25:41.999Z</time></trkpt><trkpt lat="42.24565899778492" lon="13.810996052934716"><ele>324.0</ele><time>2026-05-02T09:25:42.999Z</time></trkpt><trkpt lat="42.245747272031345" lon="13.810908572652194"><ele>324.0</ele><time>2026-05-02T09:25:43.999Z</time></trkpt><trkpt lat="42.24583036934968" lon="13.810809469079958"><ele>324.2</ele><time>2026-05-02T09:25:44.999Z</time></trkpt><trkpt lat="42.24591449947839" lon="13.81070812459049"><ele>324.4</ele><time>2026-05-02T09:25:45.999Z</time></trkpt><trkpt lat="42.24599366887014" lon="13.810613523660646"><ele>324.6</ele><time>2026-05-02T09:25:46.999Z</time></trkpt><trkpt lat="42.24606024557001" lon="13.810534555876593"><ele>324.8</ele><time>2026-05-02T09:25:47.999Z</time></trkpt><trkpt lat="42.246121972012524" lon="13.81043168619696"><ele>325.0</ele><time>2026-05-02T09:25:48.999Z</time></trkpt><trkpt lat="42.246194228067274" lon="13.810343077098922"><ele>325.0</ele><time>2026-05-02T09:25:49.999Z</time></trkpt><trkpt lat="42.24625914306552" lon="13.810242290746016"><ele>325.0</ele><time>2026-05-02T09:25:50.999Z</time></trkpt><trkpt lat="42.24632288451955" lon="13.810153174733154"><ele>325.0</ele><time>2026-05-02T09:25:51.999Z</time></trkpt><trkpt lat="42.24638296673505" lon="13.810058258683188"><ele>325.0</ele><time>2026-05-02T09:25:52.999Z</time></trkpt><trkpt lat="42.246433408215566" lon="13.809911720350044"><ele>325.0</ele><time>2026-05-02T09:25:53.999Z</time></trkpt><trkpt lat="42.246479566856735" lon="13.809746332072669"><ele>325.0</ele><time>2026-05-02T09:25:54.999Z</time></trkpt><trkpt lat="42.246526827698816" lon="13.809584098354867"><ele>325.0</ele><time>2026-05-02T09:25:55.999Z</time></trkpt><trkpt lat="42.24656798079541" lon="13.809406118221153"><ele>325.0</ele><time>2026-05-02T09:25:56.999Z</time></trkpt><trkpt lat="42.24660589290126" lon="13.809259228145658"><ele>325.0</ele><time>2026-05-02T09:25:57.999Z</time></trkpt><trkpt lat="42.24665730208428" lon="13.809143540984838"><ele>324.8333333333333</ele><time>2026-05-02T09:25:58.999Z</time></trkpt><trkpt lat="42.246674418114644" lon="13.809045368679776"><ele>324.66666666666663</ele><time>2026-05-02T09:25:59.998Z</time></trkpt><trkpt lat="42.24670424859377" lon="13.808948349165005"><ele>324.5</ele><time>2026-05-02T09:26:00.998Z</time></trkpt><trkpt lat="42.24672660449369" lon="13.808859580440357"><ele>324.3333333333333</ele><time>2026-05-02T09:26:01.998Z</time></trkpt><trkpt lat="42.246746195576954" lon="13.80877854912204"><ele>324.1666666666667</ele><time>2026-05-02T09:26:02.998Z</time></trkpt><trkpt lat="42.24675820400874" lon="13.808694332905027"><ele>324.0</ele><time>2026-05-02T09:26:03.998Z</time></trkpt><trkpt lat="42.24680340339427" lon="13.808534989587537"><ele>324.2</ele><time>2026-05-02T09:26:05.998Z</time></trkpt><trkpt lat="42.24682881917975" lon="13.808407688812116"><ele>324.4</ele><time>2026-05-02T09:26:07.998Z</time></trkpt><trkpt lat="42.246856710288355" lon="13.808256811938197"><ele>324.6</ele><time>2026-05-02T09:26:09.998Z</time></trkpt><trkpt lat="42.24686638946053" lon="13.808160424756318"><ele>324.8</ele><time>2026-05-02T09:26:10.998Z</time></trkpt><trkpt lat="42.24692709048261" lon="13.808029263810198"><ele>325.0</ele><time>2026-05-02T09:26:12.998Z</time></trkpt><trkpt lat="42.246994709551025" lon="13.807915736470427"><ele>325.0</ele><time>2026-05-02T09:26:14.998Z</time></trkpt><trkpt lat="42.247071376699" lon="13.807829196236943"><ele>325.0</ele><time>2026-05-02T09:26:16.998Z</time></trkpt><trkpt lat="42.24717351913405" lon="13.807728877499923"><ele>325.0</ele><time>2026-05-02T09:26:18.998Z</time></trkpt><trkpt lat="42.247223854722435" lon="13.807660543764849"><ele>325.0</ele><time>2026-05-02T09:26:19.998Z</time></trkpt><trkpt lat="42.24728427242745" lon="13.807631626257567"><ele>325.0</ele><time>2026-05-02T09:26:20.998Z</time></trkpt><trkpt lat="42.247377634010284" lon="13.807557490688788"><ele>325.6</ele><time>2026-05-02T09:26:22.998Z</time></trkpt><trkpt lat="42.24746054051814" lon="13.80747803058028"><ele>326.2</ele><time>2026-05-02T09:26:24.998Z</time></trkpt><trkpt lat="42.24757224570555" lon="13.807397137891629"><ele>326.79999999999995</ele><time>2026-05-02T09:26:26.998Z</time></trkpt><trkpt lat="42.24763225097081" lon="13.807312873300274"><ele>327.4</ele><time>2026-05-02T09:26:27.998Z</time></trkpt><trkpt lat="42.24767743427042" lon="13.807211396095816"><ele>328.0</ele><time>2026-05-02T09:26:28.998Z</time></trkpt><trkpt lat="42.247722307739814" lon="13.807118889215388"><ele>328.0</ele><time>2026-05-02T09:26:29.998Z</time></trkpt><trkpt lat="42.24772944527528" lon="13.80700797044169"><ele>328.0</ele><time>2026-05-02T09:26:30.998Z</time></trkpt><trkpt lat="42.247742884627755" lon="13.80688597306647"><ele>328.0</ele><time>2026-05-02T09:26:31.998Z</time></trkpt><trkpt lat="42.24776157660931" lon="13.80676373007524"><ele>328.0</ele><time>2026-05-02T09:26:32.999Z</time></trkpt><trkpt lat="42.24777562088748" lon="13.80664408092418"><ele>328.0</ele><time>2026-05-02T09:26:33.999Z</time></trkpt><trkpt lat="42.24780209485335" lon="13.806544402343242"><ele>328.0</ele><time>2026-05-02T09:26:34.999Z</time></trkpt><trkpt lat="42.24783571263073" lon="13.80645655673742"><ele>328.0</ele><time>2026-05-02T09:26:35.999Z</time></trkpt><trkpt lat="42.24787370660658" lon="13.806378577493101"><ele>328.0</ele><time>2026-05-02T09:26:36.999Z</time></trkpt><trkpt lat="42.2479158349544" lon="13.806295310476788"><ele>328.0</ele><time>2026-05-02T09:26:37.999Z</time></trkpt><trkpt lat="42.24795897769651" lon="13.806213889413286"><ele>328.0</ele><time>2026-05-02T09:26:38.999Z</time></trkpt><trkpt lat="42.24803216015506" lon="13.806076412794036"><ele>328.0</ele><time>2026-05-02T09:26:40.999Z</time></trkpt><trkpt lat="42.24809153633813" lon="13.805943794729828"><ele>328.0</ele><time>2026-05-02T09:26:42.999Z</time></trkpt><trkpt lat="42.248124839432116" lon="13.805868981127572"><ele>328.0</ele><time>2026-05-02T09:26:43.999Z</time></trkpt><trkpt lat="42.24820690371456" lon="13.8057395667747"><ele>328.0</ele><time>2026-05-02T09:26:45.999Z</time></trkpt><trkpt lat="42.248248504418825" lon="13.805672379789636"><ele>328.0</ele><time>2026-05-02T09:26:46.999Z</time></trkpt><trkpt lat="42.24829156714655" lon="13.805591282544459"><ele>328.0</ele><time>2026-05-02T09:26:47.999Z</time></trkpt><trkpt lat="42.24833890492631" lon="13.80550610189297"><ele>328.0</ele><time>2026-05-02T09:26:48.999Z</time></trkpt><trkpt lat="42.24839549101554" lon="13.805428671808963"><ele>329.16666666666663</ele><time>2026-05-02T09:26:49.999Z</time></trkpt><trkpt lat="42.248455905539096" lon="13.805374259932965"><ele>330.3333333333333</ele><time>2026-05-02T09:26:50.999Z</time></trkpt><trkpt lat="42.248566935986055" lon="13.805301272845236"><ele>331.5</ele><time>2026-05-02T09:26:52.999Z</time></trkpt><trkpt lat="42.248637034405164" lon="13.805266869891522"><ele>332.6666666666667</ele><time>2026-05-02T09:26:53.999Z</time></trkpt><trkpt lat="42.24870805213591" lon="13.805239375467151"><ele>333.83333333333337</ele><time>2026-05-02T09:26:54.999Z</time></trkpt><trkpt lat="42.24878735213516" lon="13.805219119556234"><ele>335.0</ele><time>2026-05-02T09:26:55.999Z</time></trkpt><trkpt lat="42.24887798871631" lon="13.80520503838669"><ele>335.4</ele><time>2026-05-02T09:26:56.999Z</time></trkpt><trkpt lat="42.24897757775871" lon="13.805189224816022"><ele>335.8</ele><time>2026-05-02T09:26:57.999Z</time></trkpt><trkpt lat="42.24907550899405" lon="13.805134051676447"><ele>336.20000000000005</ele><time>2026-05-02T09:26:58.999Z</time></trkpt><trkpt lat="42.249155442158035" lon="13.805054455562363"><ele>336.6</ele><time>2026-05-02T09:26:59.999Z</time></trkpt><trkpt lat="42.24923081230975" lon="13.804960847877028"><ele>337.0</ele><time>2026-05-02T09:27:00.999Z</time></trkpt><trkpt lat="42.24929306829421" lon="13.804881930254373"><ele>337.0</ele><time>2026-05-02T09:27:01.999Z</time></trkpt><trkpt lat="42.24935705005049" lon="13.804833009483641"><ele>337.0</ele><time>2026-05-02T09:27:02.999Z</time></trkpt><trkpt lat="42.24944512533493" lon="13.804758964438143"><ele>337.0</ele><time>2026-05-02T09:27:04.999Z</time></trkpt><trkpt lat="42.24957688630058" lon="13.804889379581358"><ele>337.0</ele><time>2026-05-02T09:27:06.999Z</time></trkpt><trkpt lat="42.24963212243282" lon="13.804964361133683"><ele>337.0</ele><time>2026-05-02T09:27:07.999Z</time></trkpt><trkpt lat="42.24970880825976" lon="13.80502953254017"><ele>337.40000000000003</ele><time>2026-05-02T09:27:08.999Z</time></trkpt><trkpt lat="42.24979672306702" lon="13.80506223121859"><ele>337.8</ele><time>2026-05-02T09:27:09.999Z</time></trkpt><trkpt lat="42.24989511284947" lon="13.805060027941899"><ele>338.2</ele><time>2026-05-02T09:27:10.999Z</time></trkpt><trkpt lat="42.25000105892663" lon="13.805037403037622"><ele>338.6</ele><time>2026-05-02T09:27:11.999Z</time></trkpt><trkpt lat="42.25011460099367" lon="13.805020275005514"><ele>339.0</ele><time>2026-05-02T09:27:12.999Z</time></trkpt><trkpt lat="42.25023230445711" lon="13.8050211901045"><ele>339.0</ele><time>2026-05-02T09:27:13.999Z</time></trkpt><trkpt lat="42.25035788317901" lon="13.8050061206006"><ele>339.0</ele><time>2026-05-02T09:27:14.999Z</time></trkpt><trkpt lat="42.25048582232598" lon="13.805003714680314"><ele>339.0</ele><time>2026-05-02T09:27:15.999Z</time></trkpt><trkpt lat="42.250608555880746" lon="13.804994681078048"><ele>339.0</ele><time>2026-05-02T09:27:16.999Z</time></trkpt><trkpt lat="42.25072842130915" lon="13.804976120723722"><ele>341.0</ele><time>2026-05-02T09:27:17.999Z</time></trkpt><trkpt lat="42.250837673882224" lon="13.804966852958138"><ele>343.0</ele><time>2026-05-02T09:27:18.999Z</time></trkpt><trkpt lat="42.25093861878317" lon="13.804968843028451"><ele>345.0</ele><time>2026-05-02T09:27:19.999Z</time></trkpt><trkpt lat="42.25102032777541" lon="13.805008804511274"><ele>347.0</ele><time>2026-05-02T09:27:20.999Z</time></trkpt><trkpt lat="42.2510945564808" lon="13.805082381179734"><ele>349.0</ele><time>2026-05-02T09:27:21.999Z</time></trkpt><trkpt lat="42.251159063874525" lon="13.805185290892746"><ele>349.25</ele><time>2026-05-02T09:27:22.999Z</time></trkpt><trkpt lat="42.25117413412261" lon="13.805329897936744"><ele>349.5</ele><time>2026-05-02T09:27:23.999Z</time></trkpt><trkpt lat="42.251176158614726" lon="13.805473960858755"><ele>349.75</ele><time>2026-05-02T09:27:24.999Z</time></trkpt><trkpt lat="42.25120523966002" lon="13.805629113206813"><ele>350.0</ele><time>2026-05-02T09:27:25.999Z</time></trkpt><trkpt lat="42.25121865503483" lon="13.80578790595906"><ele>350.0</ele><time>2026-05-02T09:27:26.999Z</time></trkpt><trkpt lat="42.251246460077496" lon="13.805951066456375"><ele>350.0</ele><time>2026-05-02T09:27:27.999Z</time></trkpt><trkpt lat="42.25128606002964" lon="13.806109346908475"><ele>350.0</ele><time>2026-05-02T09:27:28.999Z</time></trkpt><trkpt lat="42.25135047096622" lon="13.806258901677975"><ele>350.0</ele><time>2026-05-02T09:27:29.999Z</time></trkpt><trkpt lat="42.2514144207696" lon="13.806406576713698"><ele>351.75</ele><time>2026-05-02T09:27:30.999Z</time></trkpt><trkpt lat="42.25148747321402" lon="13.806565381170383"><ele>353.5</ele><time>2026-05-02T09:27:31.999Z</time></trkpt><trkpt lat="42.25156207117676" lon="13.806727505408796"><ele>355.25</ele><time>2026-05-02T09:27:32.999Z</time></trkpt><trkpt lat="42.25163171837277" lon="13.806891045837308"><ele>357.0</ele><time>2026-05-02T09:27:33.999Z</time></trkpt><trkpt lat="42.251702523168476" lon="13.807050668672584"><ele>357.0</ele><time>2026-05-02T09:27:34.999Z</time></trkpt><trkpt lat="42.25177486784145" lon="13.80720675488712"><ele>357.0</ele><time>2026-05-02T09:27:35.999Z</time></trkpt><trkpt lat="42.25184548989229" lon="13.807358410412483"><ele>357.0</ele><time>2026-05-02T09:27:36.999Z</time></trkpt><trkpt lat="42.25190810244331" lon="13.807508449996735"><ele>357.0</ele><time>2026-05-02T09:27:37.999Z</time></trkpt><trkpt lat="42.25197442041576" lon="13.807654174526263"><ele>357.0</ele><time>2026-05-02T09:27:38.999Z</time></trkpt><trkpt lat="42.25204246024621" lon="13.807796208849116"><ele>357.0</ele><time>2026-05-02T09:27:39.999Z</time></trkpt><trkpt lat="42.25210886564773" lon="13.807937290496428"><ele>357.0</ele><time>2026-05-02T09:27:40.999Z</time></trkpt><trkpt lat="42.252179818189525" lon="13.808073333524058"><ele>357.0</ele><time>2026-05-02T09:27:41.999Z</time></trkpt><trkpt lat="42.252250491237724" lon="13.808205229459784"><ele>359.25</ele><time>2026-05-02T09:27:42.999Z</time></trkpt><trkpt lat="42.25232169702755" lon="13.808333534260548"><ele>361.5</ele><time>2026-05-02T09:27:43.999Z</time></trkpt><trkpt lat="42.252396588273776" lon="13.808455554960375"><ele>363.75</ele><time>2026-05-02T09:27:44.999Z</time></trkpt><trkpt lat="42.25247396107034" lon="13.808573004838157"><ele>366.0</ele><time>2026-05-02T09:27:45.999Z</time></trkpt><trkpt lat="42.252544324710236" lon="13.808678558157498"><ele>366.0</ele><time>2026-05-02T09:27:46.999Z</time></trkpt><trkpt lat="42.25260686488147" lon="13.808787612564814"><ele>366.0</ele><time>2026-05-02T09:27:47.999Z</time></trkpt><trkpt lat="42.252661591718976" lon="13.808898221778437"><ele>366.0</ele><time>2026-05-02T09:27:48.999Z</time></trkpt><trkpt lat="42.25272515016441" lon="13.808997129962755"><ele>366.0</ele><time>2026-05-02T09:27:49.999Z</time></trkpt><trkpt lat="42.25275104291447" lon="13.80912873111038"><ele>366.0</ele><time>2026-05-02T09:27:50.999Z</time></trkpt><trkpt lat="42.25278836260306" lon="13.809207969588622"><ele>366.0</ele><time>2026-05-02T09:27:51.999Z</time></trkpt><trkpt lat="42.252838008449544" lon="13.809276701524814"><ele>366.0</ele><time>2026-05-02T09:27:52.999Z</time></trkpt><trkpt lat="42.25289816733355" lon="13.809374977461905"><ele>366.0</ele><time>2026-05-02T09:27:53.999Z</time></trkpt><trkpt lat="42.252972736283326" lon="13.809489075164615"><ele>366.0</ele><time>2026-05-02T09:27:54.999Z</time></trkpt><trkpt lat="42.253067788322255" lon="13.809597461065874"><ele>366.0</ele><time>2026-05-02T09:27:55.999Z</time></trkpt><trkpt lat="42.25317270108722" lon="13.809696056005865"><ele>368.25</ele><time>2026-05-02T09:27:56.999Z</time></trkpt><trkpt lat="42.25325387418444" lon="13.809829649516457"><ele>370.5</ele><time>2026-05-02T09:27:57.999Z</time></trkpt><trkpt lat="42.253347255851175" lon="13.809934193411642"><ele>372.75</ele><time>2026-05-02T09:27:58.999Z</time></trkpt><trkpt lat="42.25344499986983" lon="13.810040383282292"><ele>375.0</ele><time>2026-05-02T09:27:59.999Z</time></trkpt><trkpt lat="42.2535548499353" lon="13.81012713244311"><ele>374.75</ele><time>2026-05-02T09:28:00.999Z</time></trkpt><trkpt lat="42.253664659051424" lon="13.810211262469137"><ele>374.5</ele><time>2026-05-02T09:28:01.999Z</time></trkpt><trkpt lat="42.25375574715558" lon="13.81032484012224"><ele>374.25</ele><time>2026-05-02T09:28:02.999Z</time></trkpt><trkpt lat="42.25385105015909" lon="13.810440664408587"><ele>374.0</ele><time>2026-05-02T09:28:03.999Z</time></trkpt><trkpt lat="42.25393977561051" lon="13.810570342018746"><ele>375.5</ele><time>2026-05-02T09:28:04.999Z</time></trkpt><trkpt lat="42.25403193389847" lon="13.810690800415125"><ele>377.0</ele><time>2026-05-02T09:28:05.999Z</time></trkpt><trkpt lat="42.25413102196734" lon="13.81080531810936"><ele>378.5</ele><time>2026-05-02T09:28:06.999Z</time></trkpt><trkpt lat="42.25422928504935" lon="13.810907809443666"><ele>380.0</ele><time>2026-05-02T09:28:07.999Z</time></trkpt><trkpt lat="42.25433451069295" lon="13.811001942799685"><ele>380.25</ele><time>2026-05-02T09:28:08.999Z</time></trkpt><trkpt lat="42.254407114390304" lon="13.811135952394107"><ele>380.5</ele><time>2026-05-02T09:28:09.999Z</time></trkpt><trkpt lat="42.25448523172677" lon="13.811268092939304"><ele>380.75</ele><time>2026-05-02T09:28:10.999Z</time></trkpt><trkpt lat="42.25455649525812" lon="13.81139058055297"><ele>381.0</ele><time>2026-05-02T09:28:11.999Z</time></trkpt><trkpt lat="42.254583966388246" lon="13.811533912930841"><ele>381.0</ele><time>2026-05-02T09:28:12.999Z</time></trkpt><trkpt lat="42.25463633299148" lon="13.81166540852209"><ele>381.0</ele><time>2026-05-02T09:28:13.999Z</time></trkpt><trkpt lat="42.25465059580376" lon="13.811758532408838"><ele>381.0</ele><time>2026-05-02T09:28:14.999Z</time></trkpt><trkpt lat="42.254775128362" lon="13.811737358445157"><ele>381.0</ele><time>2026-05-02T09:28:19.998Z</time></trkpt><trkpt lat="42.254826641164136" lon="13.811688291971764"><ele>381.0</ele><time>2026-05-02T09:28:21.998Z</time></trkpt><trkpt lat="42.25487549805378" lon="13.811615473812244"><ele>381.0</ele><time>2026-05-02T09:28:24.998Z</time></trkpt><trkpt lat="42.25491679977362" lon="13.811548629463035"><ele>382.6</ele><time>2026-05-02T09:28:25.998Z</time></trkpt><trkpt lat="42.254957783391184" lon="13.811464470480981"><ele>384.20000000000005</ele><time>2026-05-02T09:32:20.999Z</time></trkpt><trkpt lat="42.25503494884907" lon="13.811313218516268"><ele>385.79999999999995</ele><time>2026-05-02T09:32:22.999Z</time></trkpt><trkpt lat="42.25507728227277" lon="13.81121905719585"><ele>387.4</ele><time>2026-05-02T09:32:23.999Z</time></trkpt><trkpt lat="42.2551304913034" lon="13.81111761741045"><ele>389.0</ele><time>2026-05-02T09:32:24.999Z</time></trkpt><trkpt lat="42.255189826386136" lon="13.811007619211288"><ele>388.6</ele><time>2026-05-02T09:32:25.999Z</time></trkpt><trkpt lat="42.25524307958834" lon="13.810882022671915"><ele>388.2</ele><time>2026-05-02T09:32:26.999Z</time></trkpt><trkpt lat="42.25529168902831" lon="13.810760109698476"><ele>387.8</ele><time>2026-05-02T09:32:27.999Z</time></trkpt><trkpt lat="42.255321206883494" lon="13.810646552985393"><ele>387.40000000000003</ele><time>2026-05-02T09:32:28.999Z</time></trkpt><trkpt lat="42.25537851438117" lon="13.810543339797785"><ele>387.0</ele><time>2026-05-02T09:32:29.999Z</time></trkpt><trkpt lat="42.25543456566196" lon="13.810412032032355"><ele>387.0</ele><time>2026-05-02T09:32:30.999Z</time></trkpt><trkpt lat="42.255524536212114" lon="13.810303948734933"><ele>387.0</ele><time>2026-05-02T09:32:31.999Z</time></trkpt><trkpt lat="42.25561130090357" lon="13.810187794049808"><ele>387.0</ele><time>2026-05-02T09:32:32.999Z</time></trkpt><trkpt lat="42.25568234006536" lon="13.810069858548903"><ele>387.0</ele><time>2026-05-02T09:32:33.999Z</time></trkpt><trkpt lat="42.25575643544703" lon="13.809970085432786"><ele>387.25</ele><time>2026-05-02T09:32:34.999Z</time></trkpt><trkpt lat="42.25580513954993" lon="13.80984699385274"><ele>387.5</ele><time>2026-05-02T09:32:35.999Z</time></trkpt><trkpt lat="42.255879246734416" lon="13.80971909537305"><ele>387.75</ele><time>2026-05-02T09:32:36.999Z</time></trkpt><trkpt lat="42.25595600048413" lon="13.809578139775958"><ele>388.0</ele><time>2026-05-02T09:32:37.999Z</time></trkpt><trkpt lat="42.2560469162864" lon="13.809458078768625"><ele>387.59999999999997</ele><time>2026-05-02T09:32:38.999Z</time></trkpt><trkpt lat="42.256108422969156" lon="13.809321191379563"><ele>387.2</ele><time>2026-05-02T09:32:39.999Z</time></trkpt><trkpt lat="42.25617345128087" lon="13.809199177155872"><ele>386.8</ele><time>2026-05-02T09:32:40.999Z</time></trkpt><trkpt lat="42.25624365449426" lon="13.80909066458199"><ele>386.4</ele><time>2026-05-02T09:32:41.999Z</time></trkpt><trkpt lat="42.256330217722436" lon="13.809006552459111"><ele>386.0</ele><time>2026-05-02T09:32:42.999Z</time></trkpt><trkpt lat="42.256411402045806" lon="13.808895040529897"><ele>386.20000000000005</ele><time>2026-05-02T09:32:43.999Z</time></trkpt><trkpt lat="42.25649926834943" lon="13.808814199574723"><ele>386.40000000000003</ele><time>2026-05-02T09:32:44.999Z</time></trkpt><trkpt lat="42.2565626369274" lon="13.808726846727534"><ele>386.6</ele><time>2026-05-02T09:32:45.999Z</time></trkpt><trkpt lat="42.25664712621438" lon="13.808651550290353"><ele>386.8</ele><time>2026-05-02T09:32:46.999Z</time></trkpt><trkpt lat="42.25672744573686" lon="13.808590231700558"><ele>387.0</ele><time>2026-05-02T09:32:47.999Z</time></trkpt><trkpt lat="42.25680857401123" lon="13.808541346242022"><ele>386.0</ele><time>2026-05-02T09:32:48.999Z</time></trkpt><trkpt lat="42.25687811490705" lon="13.808473087412867"><ele>385.0</ele><time>2026-05-02T09:32:50Z</time></trkpt><trkpt lat="42.256944832408784" lon="13.80841530932895"><ele>384.0</ele><time>2026-05-02T09:32:51Z</time></trkpt><trkpt lat="42.25702552417335" lon="13.808343958822071"><ele>383.0</ele><time>2026-05-02T09:32:52Z</time></trkpt><trkpt lat="42.257116414852064" lon="13.80826059394353"><ele>382.0</ele><time>2026-05-02T09:32:53Z</time></trkpt><trkpt lat="42.25721568398117" lon="13.808166920570326"><ele>382.5</ele><time>2026-05-02T09:32:54Z</time></trkpt><trkpt lat="42.25731953981675" lon="13.808063536841399"><ele>383.0</ele><time>2026-05-02T09:32:55Z</time></trkpt><trkpt lat="42.257436956957335" lon="13.807964611536418"><ele>383.5</ele><time>2026-05-02T09:32:56Z</time></trkpt><trkpt lat="42.25755463600367" lon="13.807885921235629"><ele>384.0</ele><time>2026-05-02T09:32:57Z</time></trkpt><trkpt lat="42.25765858063327" lon="13.807814419225359"><ele>384.0</ele><time>2026-05-02T09:32:58Z</time></trkpt><trkpt lat="42.25775883670716" lon="13.807740867576312"><ele>384.0</ele><time>2026-05-02T09:32:59Z</time></trkpt><trkpt lat="42.257870462492534" lon="13.807638481465057"><ele>384.0</ele><time>2026-05-02T09:33:00Z</time></trkpt><trkpt lat="42.25799186795475" lon="13.807519170062262"><ele>384.0</ele><time>2026-05-02T09:33:01Z</time></trkpt><trkpt lat="42.258109742970234" lon="13.807411830941291"><ele>382.5</ele><time>2026-05-02T09:33:02Z</time></trkpt><trkpt lat="42.25823018507505" lon="13.807329324456797"><ele>381.0</ele><time>2026-05-02T09:33:03Z</time></trkpt><trkpt lat="42.258341302312814" lon="13.807272222672399"><ele>379.5</ele><time>2026-05-02T09:33:04Z</time></trkpt><trkpt lat="42.25846644097431" lon="13.807223642174092"><ele>378.0</ele><time>2026-05-02T09:33:05Z</time></trkpt><trkpt lat="42.25858854484738" lon="13.80719694963296"><ele>378.0</ele><time>2026-05-02T09:33:05.999Z</time></trkpt><trkpt lat="42.25870113653849" lon="13.807172741778858"><ele>378.0</ele><time>2026-05-02T09:33:06.999Z</time></trkpt><trkpt lat="42.258814425066916" lon="13.807129211423884"><ele>378.0</ele><time>2026-05-02T09:33:07.999Z</time></trkpt><trkpt lat="42.2589299362618" lon="13.807079016832265"><ele>378.0</ele><time>2026-05-02T09:33:08.999Z</time></trkpt><trkpt lat="42.25904456432716" lon="13.807028560807625"><ele>377.75</ele><time>2026-05-02T09:33:09.999Z</time></trkpt><trkpt lat="42.25916018671943" lon="13.806969189109072"><ele>377.5</ele><time>2026-05-02T09:33:10.999Z</time></trkpt><trkpt lat="42.25926059757115" lon="13.80689319804612"><ele>377.25</ele><time>2026-05-02T09:33:11.999Z</time></trkpt><trkpt lat="42.25936702081885" lon="13.806811735828028"><ele>377.0</ele><time>2026-05-02T09:33:12.998Z</time></trkpt><trkpt lat="42.25948565335098" lon="13.806730689012168"><ele>377.0</ele><time>2026-05-02T09:33:13.998Z</time></trkpt><trkpt lat="42.25961843988229" lon="13.806670276338153"><ele>377.0</ele><time>2026-05-02T09:33:14.998Z</time></trkpt><trkpt lat="42.25973695031265" lon="13.806615133945222"><ele>377.0</ele><time>2026-05-02T09:33:15.998Z</time></trkpt><trkpt lat="42.25985305218404" lon="13.806558075252978"><ele>377.0</ele><time>2026-05-02T09:33:16.998Z</time></trkpt><trkpt lat="42.25996438127256" lon="13.806496399289605"><ele>377.0</ele><time>2026-05-02T09:33:17.998Z</time></trkpt><trkpt lat="42.260068326702196" lon="13.806431386061085"><ele>377.0</ele><time>2026-05-02T09:33:18.998Z</time></trkpt><trkpt lat="42.26017055651645" lon="13.806351798089832"><ele>377.0</ele><time>2026-05-02T09:33:19.998Z</time></trkpt><trkpt lat="42.2602764538662" lon="13.806232364747968"><ele>377.0</ele><time>2026-05-02T09:33:20.998Z</time></trkpt><trkpt lat="42.260403431400555" lon="13.806148099369809"><ele>377.0</ele><time>2026-05-02T09:33:21.998Z</time></trkpt><trkpt lat="42.260535070459106" lon="13.806066957471002"><ele>377.0</ele><time>2026-05-02T09:33:22.998Z</time></trkpt><trkpt lat="42.26065859281679" lon="13.8059854233031"><ele>377.0</ele><time>2026-05-02T09:33:23.997Z</time></trkpt><trkpt lat="42.26077376264264" lon="13.805909687988098"><ele>377.0</ele><time>2026-05-02T09:33:24.997Z</time></trkpt><trkpt lat="42.26087930100619" lon="13.805845072426242"><ele>376.40000000000003</ele><time>2026-05-02T09:33:25.997Z</time></trkpt><trkpt lat="42.260964728079145" lon="13.805799906120273"><ele>375.8</ele><time>2026-05-02T09:33:26.997Z</time></trkpt><trkpt lat="42.26103098354358" lon="13.8057931233102"><ele>375.2</ele><time>2026-05-02T09:33:27.997Z</time></trkpt><trkpt lat="42.26110314538732" lon="13.805739918377446"><ele>374.6</ele><time>2026-05-02T09:33:29.997Z</time></trkpt><trkpt lat="42.26122836038819" lon="13.805682991499882"><ele>374.0</ele><time>2026-05-02T09:33:31.997Z</time></trkpt><trkpt lat="42.26130731650839" lon="13.805625629208773"><ele>374.0</ele><time>2026-05-02T09:33:32.997Z</time></trkpt><trkpt lat="42.26140382083613" lon="13.805581186817747"><ele>374.0</ele><time>2026-05-02T09:33:33.997Z</time></trkpt><trkpt lat="42.261515879568414" lon="13.805534730929114"><ele>374.0</ele><time>2026-05-02T09:33:34.997Z</time></trkpt><trkpt lat="42.261635199933174" lon="13.805480049765233"><ele>374.0</ele><time>2026-05-02T09:33:35.997Z</time></trkpt><trkpt lat="42.26176046592336" lon="13.805428250398096"><ele>373.25</ele><time>2026-05-02T09:33:36.997Z</time></trkpt><trkpt lat="42.26188786417426" lon="13.805402949382545"><ele>372.5</ele><time>2026-05-02T09:33:37.997Z</time></trkpt><trkpt lat="42.26199488017711" lon="13.805340688337912"><ele>371.75</ele><time>2026-05-02T09:33:38.997Z</time></trkpt><trkpt lat="42.26210282208984" lon="13.805327269667297"><ele>371.0</ele><time>2026-05-02T09:33:39.997Z</time></trkpt><trkpt lat="42.26219977556492" lon="13.805301590066742"><ele>371.0</ele><time>2026-05-02T09:33:40.997Z</time></trkpt><trkpt lat="42.26226605414096" lon="13.805298423770273"><ele>371.0</ele><time>2026-05-02T09:33:41.997Z</time></trkpt><trkpt lat="42.26233722088729" lon="13.805290830850272"><ele>371.0</ele><time>2026-05-02T09:33:45.997Z</time></trkpt><trkpt lat="42.26242922637298" lon="13.805333941993469"><ele>371.0</ele><time>2026-05-02T09:33:47.997Z</time></trkpt><trkpt lat="42.2625081412585" lon="13.805330374708078"><ele>371.0</ele><time>2026-05-02T09:33:48.997Z</time></trkpt><trkpt lat="42.26259620197715" lon="13.80531568318188"><ele>371.0</ele><time>2026-05-02T09:33:49.997Z</time></trkpt><trkpt lat="42.26270033764471" lon="13.80531678936936"><ele>370.8</ele><time>2026-05-02T09:33:50.996Z</time></trkpt><trkpt lat="42.26280213482259" lon="13.805291122774557"><ele>370.6</ele><time>2026-05-02T09:33:51.996Z</time></trkpt><trkpt lat="42.262914737464754" lon="13.805265218540363"><ele>370.4</ele><time>2026-05-02T09:33:52.996Z</time></trkpt><trkpt lat="42.263030202698545" lon="13.805240585315179"><ele>370.2</ele><time>2026-05-02T09:33:53.996Z</time></trkpt><trkpt lat="42.26314264168748" lon="13.805216743411595"><ele>370.0</ele><time>2026-05-02T09:33:54.996Z</time></trkpt><trkpt lat="42.263249487012075" lon="13.805194185624174"><ele>369.2</ele><time>2026-05-02T09:33:55.996Z</time></trkpt><trkpt lat="42.263354128753896" lon="13.805170350087025"><ele>368.4</ele><time>2026-05-02T09:33:56.996Z</time></trkpt><trkpt lat="42.263460641301656" lon="13.805144061077057"><ele>367.6</ele><time>2026-05-02T09:33:57.996Z</time></trkpt><trkpt lat="42.263573242993125" lon="13.805116269266817"><ele>366.8</ele><time>2026-05-02T09:33:58.996Z</time></trkpt><trkpt lat="42.26368509549297" lon="13.80508931090826"><ele>366.0</ele><time>2026-05-02T09:33:59.996Z</time></trkpt><trkpt lat="42.26379642274927" lon="13.805055779778199"><ele>365.75</ele><time>2026-05-02T09:34:00.996Z</time></trkpt><trkpt lat="42.26390837259632" lon="13.805052727749704"><ele>365.5</ele><time>2026-05-02T09:34:01.996Z</time></trkpt><trkpt lat="42.26402185177981" lon="13.805051289505846"><ele>365.25</ele><time>2026-05-02T09:34:02.996Z</time></trkpt><trkpt lat="42.264137184265365" lon="13.8050521194169"><ele>365.0</ele><time>2026-05-02T09:34:03.996Z</time></trkpt><trkpt lat="42.26425282396616" lon="13.80505002327024"><ele>364.25</ele><time>2026-05-02T09:34:04.996Z</time></trkpt><trkpt lat="42.26436802247079" lon="13.805039863641355"><ele>363.5</ele><time>2026-05-02T09:34:05.996Z</time></trkpt><trkpt lat="42.264485808952216" lon="13.805000474934934"><ele>362.75</ele><time>2026-05-02T09:34:06.996Z</time></trkpt><trkpt lat="42.264605268898414" lon="13.804980567423462"><ele>362.0</ele><time>2026-05-02T09:34:07.996Z</time></trkpt><trkpt lat="42.26473159122536" lon="13.80494690342986"><ele>361.0</ele><time>2026-05-02T09:34:08.996Z</time></trkpt><trkpt lat="42.264864307272305" lon="13.804917834247416"><ele>360.0</ele><time>2026-05-02T09:34:09.996Z</time></trkpt><trkpt lat="42.264999847529296" lon="13.804876434993362"><ele>359.0</ele><time>2026-05-02T09:34:10.996Z</time></trkpt><trkpt lat="42.265135069523275" lon="13.80483031518481"><ele>358.0</ele><time>2026-05-02T09:34:11.996Z</time></trkpt><trkpt lat="42.26527343529815" lon="13.804786320254726"><ele>358.0</ele><time>2026-05-02T09:34:12.996Z</time></trkpt><trkpt lat="42.26545134425854" lon="13.804769118217694"><ele>358.0</ele><time>2026-05-02T09:34:13.996Z</time></trkpt><trkpt lat="42.26562461766475" lon="13.804694183208104"><ele>358.0</ele><time>2026-05-02T09:34:14.996Z</time></trkpt><trkpt lat="42.26579573641853" lon="13.804592783929836"><ele>357.5</ele><time>2026-05-02T09:34:16.996Z</time></trkpt><trkpt lat="42.26592084502223" lon="13.804543958318844"><ele>357.0</ele><time>2026-05-02T09:34:17.996Z</time></trkpt><trkpt lat="42.2660421160081" lon="13.804496955750954"><ele>356.5</ele><time>2026-05-02T09:34:18.996Z</time></trkpt><trkpt lat="42.26615581268381" lon="13.80445822172738"><ele>356.0</ele><time>2026-05-02T09:34:19.996Z</time></trkpt><trkpt lat="42.2662649841735" lon="13.804419613348957"><ele>356.0</ele><time>2026-05-02T09:34:20.996Z</time></trkpt><trkpt lat="42.26636946531175" lon="13.804353619285349"><ele>356.0</ele><time>2026-05-02T09:34:21.996Z</time></trkpt><trkpt lat="42.26647903092451" lon="13.804264761433197"><ele>356.0</ele><time>2026-05-02T09:34:22.996Z</time></trkpt><trkpt lat="42.26659697669448" lon="13.804189358125123"><ele>356.0</ele><time>2026-05-02T09:34:23.996Z</time></trkpt><trkpt lat="42.266686293707394" lon="13.80408452275146"><ele>355.8</ele><time>2026-05-02T09:34:24.996Z</time></trkpt><trkpt lat="42.26677074183909" lon="13.80400276883822"><ele>355.6</ele><time>2026-05-02T09:34:25.996Z</time></trkpt><trkpt lat="42.266857641206975" lon="13.803926016856034"><ele>355.4</ele><time>2026-05-02T09:34:26.996Z</time></trkpt><trkpt lat="42.266937014331724" lon="13.803822967313778"><ele>355.2</ele><time>2026-05-02T09:34:27.996Z</time></trkpt><trkpt lat="42.267004428976264" lon="13.803717732772107"><ele>355.0</ele><time>2026-05-02T09:34:28.996Z</time></trkpt><trkpt lat="42.26706527711416" lon="13.803618317140826"><ele>355.0</ele><time>2026-05-02T09:34:29.996Z</time></trkpt><trkpt lat="42.267113347903134" lon="13.803528731502954"><ele>355.0</ele><time>2026-05-02T09:34:30.996Z</time></trkpt><trkpt lat="42.26716178829814" lon="13.803431455437835"><ele>355.0</ele><time>2026-05-02T09:34:31.996Z</time></trkpt><trkpt lat="42.26721512174157" lon="13.803320261838357"><ele>355.0</ele><time>2026-05-02T09:34:32.996Z</time></trkpt><trkpt lat="42.26727234131401" lon="13.803193381940874"><ele>355.0</ele><time>2026-05-02T09:34:33.996Z</time></trkpt><trkpt lat="42.26732572257127" lon="13.8030771525809"><ele>354.8333333333333</ele><time>2026-05-02T09:34:34.996Z</time></trkpt><trkpt lat="42.26738447035349" lon="13.80295935198335"><ele>354.66666666666663</ele><time>2026-05-02T09:34:35.996Z</time></trkpt><trkpt lat="42.267431031277205" lon="13.802863987919029"><ele>354.5</ele><time>2026-05-02T09:34:36.996Z</time></trkpt><trkpt lat="42.267483504771135" lon="13.802753301209709"><ele>354.3333333333333</ele><time>2026-05-02T09:34:38.996Z</time></trkpt><trkpt lat="42.267471872237564" lon="13.802665637425209"><ele>354.1666666666667</ele><time>2026-05-02T09:34:40.996Z</time></trkpt><trkpt lat="42.26747365465229" lon="13.802559196154187"><ele>354.0</ele><time>2026-05-02T09:34:42.996Z</time></trkpt><trkpt lat="42.267573122827685" lon="13.802432391233898"><ele>354.0</ele><time>2026-05-02T09:34:44.996Z</time></trkpt><trkpt lat="42.267623489151454" lon="13.8023516045941"><ele>354.0</ele><time>2026-05-02T09:34:45.996Z</time></trkpt><trkpt lat="42.26768888624373" lon="13.802260099716047"><ele>354.0</ele><time>2026-05-02T09:34:46.996Z</time></trkpt><trkpt lat="42.267761644334755" lon="13.802173892735825"><ele>354.0</ele><time>2026-05-02T09:34:47.996Z</time></trkpt><trkpt lat="42.26784865780435" lon="13.802074898513387"><ele>354.0</ele><time>2026-05-02T09:34:48.996Z</time></trkpt><trkpt lat="42.26792948406276" lon="13.801956610310592"><ele>354.0</ele><time>2026-05-02T09:34:49.996Z</time></trkpt><trkpt lat="42.268034224773466" lon="13.801861003952814"><ele>354.0</ele><time>2026-05-02T09:34:50.996Z</time></trkpt><trkpt lat="42.26813476974392" lon="13.801750837290918"><ele>354.0</ele><time>2026-05-02T09:34:51.996Z</time></trkpt><trkpt lat="42.26823322042988" lon="13.801642136455559"><ele>354.0</ele><time>2026-05-02T09:34:52.996Z</time></trkpt><trkpt lat="42.26831900867224" lon="13.801529026148092"><ele>353.75</ele><time>2026-05-02T09:34:53.996Z</time></trkpt><trkpt lat="42.26840159402211" lon="13.80142434603995"><ele>353.5</ele><time>2026-05-02T09:34:54.996Z</time></trkpt><trkpt lat="42.26849327668158" lon="13.801328747996545"><ele>353.25</ele><time>2026-05-02T09:34:55.997Z</time></trkpt><trkpt lat="42.26858379738504" lon="13.801221072026953"><ele>353.0</ele><time>2026-05-02T09:34:56.997Z</time></trkpt><trkpt lat="42.26869206399768" lon="13.80113725899287"><ele>353.0</ele><time>2026-05-02T09:34:57.997Z</time></trkpt><trkpt lat="42.2687875549363" lon="13.801047123111728"><ele>353.0</ele><time>2026-05-02T09:34:58.997Z</time></trkpt><trkpt lat="42.26888006405953" lon="13.800956695759561"><ele>353.0</ele><time>2026-05-02T09:34:59.997Z</time></trkpt><trkpt lat="42.268973566322096" lon="13.800870485808394"><ele>353.0</ele><time>2026-05-02T09:35:00.997Z</time></trkpt><trkpt lat="42.26906643949759" lon="13.800792004894058"><ele>352.79999999999995</ele><time>2026-05-02T09:35:01.998Z</time></trkpt><trkpt lat="42.269155542464354" lon="13.80072602354766"><ele>352.6</ele><time>2026-05-02T09:35:02.998Z</time></trkpt><trkpt lat="42.269245631284605" lon="13.800674629811448"><ele>352.4</ele><time>2026-05-02T09:35:03.998Z</time></trkpt><trkpt lat="42.269340151526904" lon="13.800634295062"><ele>352.20000000000005</ele><time>2026-05-02T09:35:04.998Z</time></trkpt><trkpt lat="42.26942362534466" lon="13.800579331278053"><ele>352.0</ele><time>2026-05-02T09:35:05.998Z</time></trkpt><trkpt lat="42.26952149184597" lon="13.80054901907597"><ele>352.0</ele><time>2026-05-02T09:35:06.998Z</time></trkpt><trkpt lat="42.269616938051854" lon="13.80050041918303"><ele>352.0</ele><time>2026-05-02T09:35:07.998Z</time></trkpt><trkpt lat="42.26969907751512" lon="13.800422102420002"><ele>352.0</ele><time>2026-05-02T09:35:08.998Z</time></trkpt><trkpt lat="42.269778687802" lon="13.800329882168349"><ele>352.0</ele><time>2026-05-02T09:35:09.999Z</time></trkpt><trkpt lat="42.269874054924855" lon="13.800241550988089"><ele>352.0</ele><time>2026-05-02T09:35:10.999Z</time></trkpt><trkpt lat="42.26996147360841" lon="13.800118411289686"><ele>350.75</ele><time>2026-05-02T09:35:11.999Z</time></trkpt><trkpt lat="42.27004867325774" lon="13.800007020706254"><ele>349.5</ele><time>2026-05-02T09:35:12.999Z</time></trkpt><trkpt lat="42.27013945346545" lon="13.799911797559876"><ele>348.25</ele><time>2026-05-02T09:35:13.999Z</time></trkpt><trkpt lat="42.270240257518964" lon="13.799840578819202"><ele>347.0</ele><time>2026-05-02T09:35:14.999Z</time></trkpt><trkpt lat="42.27035088443156" lon="13.799729320448384"><ele>347.0</ele><time>2026-05-02T09:35:15.999Z</time></trkpt><trkpt lat="42.27047062512829" lon="13.799626771535742"><ele>347.0</ele><time>2026-05-02T09:35:16.999Z</time></trkpt><trkpt lat="42.270586285995954" lon="13.799562516227438"><ele>347.0</ele><time>2026-05-02T09:35:17.999Z</time></trkpt><trkpt lat="42.27069462565221" lon="13.799497279112522"><ele>347.0</ele><time>2026-05-02T09:35:18.999Z</time></trkpt><trkpt lat="42.270815135844046" lon="13.799417842108387"><ele>347.75</ele><time>2026-05-02T09:35:19.999Z</time></trkpt><trkpt lat="42.27095337231798" lon="13.79940103989668"><ele>348.5</ele><time>2026-05-02T09:35:20.999Z</time></trkpt><trkpt lat="42.271096023132436" lon="13.799359196959397"><ele>349.25</ele><time>2026-05-02T09:35:21.999Z</time></trkpt><trkpt lat="42.27123159386454" lon="13.799310747546727"><ele>350.0</ele><time>2026-05-02T09:35:22.999Z</time></trkpt><trkpt lat="42.27140802313122" lon="13.799313916389037"><ele>349.33333333333337</ele><time>2026-05-02T09:35:23.999Z</time></trkpt><trkpt lat="42.27159149885446" lon="13.799338585446462"><ele>348.6666666666667</ele><time>2026-05-02T09:35:24.999Z</time></trkpt><trkpt lat="42.27157999062238" lon="13.79912198671437"><ele>348.0</ele><time>2026-05-02T09:35:25.999Z</time></trkpt><trkpt lat="42.27171500346923" lon="13.799050046007116"><ele>348.0</ele><time>2026-05-02T09:35:26.999Z</time></trkpt><trkpt lat="42.27186562931381" lon="13.798967595618251"><ele>348.0</ele><time>2026-05-02T09:35:27.999Z</time></trkpt><trkpt lat="42.27200449357472" lon="13.798886226242207"><ele>348.0</ele><time>2026-05-02T09:35:28.999Z</time></trkpt><trkpt lat="42.27211940910944" lon="13.798817167696264"><ele>348.0</ele><time>2026-05-02T09:35:29.999Z</time></trkpt><trkpt lat="42.27222786633456" lon="13.798759834361164"><ele>347.79999999999995</ele><time>2026-05-02T09:35:30.999Z</time></trkpt><trkpt lat="42.272324114551864" lon="13.798700604912776"><ele>347.6</ele><time>2026-05-02T09:35:31.999Z</time></trkpt><trkpt lat="42.272412565143924" lon="13.798634402005172"><ele>347.4</ele><time>2026-05-02T09:35:32.999Z</time></trkpt><trkpt lat="42.27249445678336" lon="13.798550710051758"><ele>347.20000000000005</ele><time>2026-05-02T09:35:33.999Z</time></trkpt><trkpt lat="42.27259206700872" lon="13.79846534121823"><ele>347.0</ele><time>2026-05-02T09:35:34.999Z</time></trkpt><trkpt lat="42.27270136558218" lon="13.798379091934558"><ele>347.0</ele><time>2026-05-02T09:35:35.999Z</time></trkpt><trkpt lat="42.27281685800328" lon="13.79828666568399"><ele>347.0</ele><time>2026-05-02T09:35:36.999Z</time></trkpt><trkpt lat="42.27292568175535" lon="13.798194171098642"><ele>347.0</ele><time>2026-05-02T09:35:37.999Z</time></trkpt><trkpt lat="42.27301982631144" lon="13.79811032145943"><ele>347.0</ele><time>2026-05-02T09:35:38.999Z</time></trkpt><trkpt lat="42.27311476192319" lon="13.798040814191221"><ele>348.25</ele><time>2026-05-02T09:35:39.999Z</time></trkpt><trkpt lat="42.27323303922856" lon="13.797982945507256"><ele>349.5</ele><time>2026-05-02T09:35:40.999Z</time></trkpt><trkpt lat="42.273350734752206" lon="13.79793035931331"><ele>350.75</ele><time>2026-05-02T09:35:41.999Z</time></trkpt><trkpt lat="42.27346088562496" lon="13.797863401102568"><ele>352.0</ele><time>2026-05-02T09:35:42.999Z</time></trkpt><trkpt lat="42.273574933178146" lon="13.797788033536825"><ele>352.0</ele><time>2026-05-02T09:35:43.999Z</time></trkpt><trkpt lat="42.27369631069524" lon="13.797711773471411"><ele>352.0</ele><time>2026-05-02T09:35:44.999Z</time></trkpt><trkpt lat="42.27382746640175" lon="13.797619813652696"><ele>352.0</ele><time>2026-05-02T09:35:45.999Z</time></trkpt><trkpt lat="42.273953439990024" lon="13.797513657749054"><ele>352.0</ele><time>2026-05-02T09:35:46.999Z</time></trkpt><trkpt lat="42.274066916377876" lon="13.797427567403405"><ele>351.0</ele><time>2026-05-02T09:35:47.999Z</time></trkpt><trkpt lat="42.27417171839695" lon="13.79736182104663"><ele>350.0</ele><time>2026-05-02T09:35:48.999Z</time></trkpt><trkpt lat="42.274260453542624" lon="13.79728966041421"><ele>349.0</ele><time>2026-05-02T09:35:49.999Z</time></trkpt><trkpt lat="42.27433425795065" lon="13.797192957273042"><ele>348.0</ele><time>2026-05-02T09:35:50.999Z</time></trkpt><trkpt lat="42.27441379523136" lon="13.797089132185432"><ele>347.0</ele><time>2026-05-02T09:35:51.999Z</time></trkpt><trkpt lat="42.27450203729685" lon="13.797001409650024"><ele>347.0</ele><time>2026-05-02T09:35:52.999Z</time></trkpt><trkpt lat="42.27459536818494" lon="13.796934444895685"><ele>347.0</ele><time>2026-05-02T09:35:53.999Z</time></trkpt><trkpt lat="42.274704982946666" lon="13.796868084611216"><ele>347.0</ele><time>2026-05-02T09:35:54.999Z</time></trkpt><trkpt lat="42.274825658402" lon="13.796787764844943"><ele>347.0</ele><time>2026-05-02T09:35:55.999Z</time></trkpt><trkpt lat="42.274929822065694" lon="13.796715444149319"><ele>347.0</ele><time>2026-05-02T09:35:56.999Z</time></trkpt><trkpt lat="42.27502750372174" lon="13.796647371738654"><ele>347.0</ele><time>2026-05-02T09:35:57.999Z</time></trkpt><trkpt lat="42.275113621311554" lon="13.79658953085492"><ele>347.0</ele><time>2026-05-02T09:35:58.999Z</time></trkpt><trkpt lat="42.27517780068715" lon="13.796502554826105"><ele>347.0</ele><time>2026-05-02T09:35:59.999Z</time></trkpt><trkpt lat="42.275251295320984" lon="13.796390272261027"><ele>347.0</ele><time>2026-05-02T09:36:00.999Z</time></trkpt><trkpt lat="42.27533619744148" lon="13.796290654211314"><ele>347.0</ele><time>2026-05-02T09:36:01.999Z</time></trkpt><trkpt lat="42.2754305909753" lon="13.796235768198798"><ele>347.0</ele><time>2026-05-02T09:36:02.999Z</time></trkpt><trkpt lat="42.275543432702854" lon="13.796204538510468"><ele>347.0</ele><time>2026-05-02T09:36:03.999Z</time></trkpt><trkpt lat="42.27565524791384" lon="13.796188957379474"><ele>347.0</ele><time>2026-05-02T09:36:04.999Z</time></trkpt><trkpt lat="42.27574709572521" lon="13.796153951581541"><ele>347.0</ele><time>2026-05-02T09:36:05.999Z</time></trkpt><trkpt lat="42.27583418852087" lon="13.79608159590016"><ele>347.0</ele><time>2026-05-02T09:36:06.999Z</time></trkpt><trkpt lat="42.275921599390855" lon="13.795974547289573"><ele>347.0</ele><time>2026-05-02T09:36:07.999Z</time></trkpt><trkpt lat="42.276020363099754" lon="13.795870243529155"><ele>347.0</ele><time>2026-05-02T09:36:08.999Z</time></trkpt><trkpt lat="42.2761206838079" lon="13.795765980958214"><ele>347.0</ele><time>2026-05-02T09:36:09.999Z</time></trkpt><trkpt lat="42.276211843763164" lon="13.795663706910847"><ele>347.0</ele><time>2026-05-02T09:36:10.999Z</time></trkpt><trkpt lat="42.276302181433046" lon="13.795550117266268"><ele>347.0</ele><time>2026-05-02T09:36:11.999Z</time></trkpt><trkpt lat="42.276398446787894" lon="13.795441330487295"><ele>347.0</ele><time>2026-05-02T09:36:12.999Z</time></trkpt><trkpt lat="42.27649306006674" lon="13.795366364215552"><ele>347.0</ele><time>2026-05-02T09:36:13.999Z</time></trkpt><trkpt lat="42.27658843790682" lon="13.79530879840056"><ele>347.20000000000005</ele><time>2026-05-02T09:36:14.999Z</time></trkpt><trkpt lat="42.27668417640248" lon="13.795263809858621"><ele>347.4</ele><time>2026-05-02T09:36:15.999Z</time></trkpt><trkpt lat="42.276793804772545" lon="13.7952313293192"><ele>347.6</ele><time>2026-05-02T09:36:16.999Z</time></trkpt><trkpt lat="42.27690615863784" lon="13.795191060205463"><ele>347.79999999999995</ele><time>2026-05-02T09:36:17.999Z</time></trkpt><trkpt lat="42.27702215548356" lon="13.795155386525861"><ele>348.0</ele><time>2026-05-02T09:36:18.999Z</time></trkpt><trkpt lat="42.277134322282116" lon="13.795137018722663"><ele>348.0</ele><time>2026-05-02T09:36:19.999Z</time></trkpt><trkpt lat="42.27723970669914" lon="13.795130345244095"><ele>348.0</ele><time>2026-05-02T09:36:20.999Z</time></trkpt><trkpt lat="42.277351225064706" lon="13.79512379486119"><ele>348.0</ele><time>2026-05-02T09:36:21.999Z</time></trkpt><trkpt lat="42.277447486110134" lon="13.795106734805236"><ele>348.0</ele><time>2026-05-02T09:36:22.999Z</time></trkpt><trkpt lat="42.27753150069188" lon="13.795086952630264"><ele>348.0</ele><time>2026-05-02T09:36:23.999Z</time></trkpt><trkpt lat="42.277629278533105" lon="13.795071802921646"><ele>348.2</ele><time>2026-05-02T09:36:24.999Z</time></trkpt><trkpt lat="42.27773560496508" lon="13.795079620848748"><ele>348.4</ele><time>2026-05-02T09:36:25.999Z</time></trkpt><trkpt lat="42.27785360094502" lon="13.79510134852688"><ele>348.59999999999997</ele><time>2026-05-02T09:36:26.999Z</time></trkpt><trkpt lat="42.27795691924585" lon="13.795128378538385"><ele>348.79999999999995</ele><time>2026-05-02T09:36:27.999Z</time></trkpt><trkpt lat="42.27806999344308" lon="13.795172670553145"><ele>349.0</ele><time>2026-05-02T09:36:28.999Z</time></trkpt><trkpt lat="42.27818628327825" lon="13.795211174319421"><ele>350.5</ele><time>2026-05-02T09:36:29.999Z</time></trkpt><trkpt lat="42.27830831157699" lon="13.795242769264645"><ele>352.0</ele><time>2026-05-02T09:36:30.999Z</time></trkpt><trkpt lat="42.278430872005096" lon="13.79527052771224"><ele>353.5</ele><time>2026-05-02T09:36:31.999Z</time></trkpt><trkpt lat="42.27855196173484" lon="13.7952940681238"><ele>355.0</ele><time>2026-05-02T09:36:32.999Z</time></trkpt><trkpt lat="42.27866362498454" lon="13.795313689375913"><ele>355.0</ele><time>2026-05-02T09:36:33.999Z</time></trkpt><trkpt lat="42.278768075058274" lon="13.795313815134744"><ele>355.0</ele><time>2026-05-02T09:36:34.999Z</time></trkpt><trkpt lat="42.27885471617381" lon="13.795288922780838"><ele>355.0</ele><time>2026-05-02T09:36:35.999Z</time></trkpt><trkpt lat="42.27894500462553" lon="13.795249148075722"><ele>355.0</ele><time>2026-05-02T09:36:36.999Z</time></trkpt><trkpt lat="42.279049229186896" lon="13.795212249350598"><ele>355.0</ele><time>2026-05-02T09:36:37.999Z</time></trkpt><trkpt lat="42.2791512538945" lon="13.795190719360573"><ele>354.4</ele><time>2026-05-02T09:36:38.999Z</time></trkpt><trkpt lat="42.27924577964216" lon="13.795177325776853"><ele>353.8</ele><time>2026-05-02T09:36:39.999Z</time></trkpt><trkpt lat="42.27933367869258" lon="13.795148619772469"><ele>353.20000000000005</ele><time>2026-05-02T09:36:40.999Z</time></trkpt><trkpt lat="42.27942020970064" lon="13.795094315841437"><ele>352.6</ele><time>2026-05-02T09:36:41.999Z</time></trkpt><trkpt lat="42.27949710614293" lon="13.79503657599216"><ele>352.0</ele><time>2026-05-02T09:36:42.999Z</time></trkpt><trkpt lat="42.27956669767352" lon="13.794980576092316"><ele>350.0</ele><time>2026-05-02T09:36:43.999Z</time></trkpt><trkpt lat="42.27962758850849" lon="13.794926390020134"><ele>348.0</ele><time>2026-05-02T09:36:44.999Z</time></trkpt><trkpt lat="42.279683677075674" lon="13.794870768747044"><ele>346.0</ele><time>2026-05-02T09:36:45.999Z</time></trkpt><trkpt lat="42.279758689516896" lon="13.794803057297626"><ele>344.0</ele><time>2026-05-02T09:36:46.999Z</time></trkpt><trkpt lat="42.279856760141094" lon="13.794721292961755"><ele>342.0</ele><time>2026-05-02T09:36:47.999Z</time></trkpt><trkpt lat="42.27996295405687" lon="13.794623172039485"><ele>342.0</ele><time>2026-05-02T09:36:48.999Z</time></trkpt><trkpt lat="42.280073724532954" lon="13.7945199864544"><ele>342.0</ele><time>2026-05-02T09:36:49.999Z</time></trkpt><trkpt lat="42.28019064900529" lon="13.794420578560041"><ele>342.0</ele><time>2026-05-02T09:36:50.999Z</time></trkpt><trkpt lat="42.280303707142984" lon="13.794313382916888"><ele>342.0</ele><time>2026-05-02T09:36:51.999Z</time></trkpt><trkpt lat="42.28042832960084" lon="13.794205840645134"><ele>342.0</ele><time>2026-05-02T09:36:52.999Z</time></trkpt><trkpt lat="42.28055262608025" lon="13.794092789726072"><ele>342.0</ele><time>2026-05-02T09:36:53.999Z</time></trkpt><trkpt lat="42.28066919093938" lon="13.793996151907331"><ele>342.0</ele><time>2026-05-02T09:36:54.999Z</time></trkpt><trkpt lat="42.28079207588997" lon="13.79391182412504"><ele>342.0</ele><time>2026-05-02T09:36:55.999Z</time></trkpt><trkpt lat="42.28091977858472" lon="13.793832872502604"><ele>342.0</ele><time>2026-05-02T09:36:56.999Z</time></trkpt><trkpt lat="42.28105681694899" lon="13.793763897438374"><ele>342.0</ele><time>2026-05-02T09:36:57.999Z</time></trkpt><trkpt lat="42.281190048634734" lon="13.793700776182137"><ele>342.0</ele><time>2026-05-02T09:36:58.999Z</time></trkpt><trkpt lat="42.281321292951446" lon="13.793632430637484"><ele>342.0</ele><time>2026-05-02T09:36:59.999Z</time></trkpt><trkpt lat="42.2814498788155" lon="13.79356333706645"><ele>342.0</ele><time>2026-05-02T09:37:00.999Z</time></trkpt><trkpt lat="42.28156669068764" lon="13.793489060450426"><ele>342.0</ele><time>2026-05-02T09:37:02Z</time></trkpt><trkpt lat="42.281675477774904" lon="13.793416588413974"><ele>342.0</ele><time>2026-05-02T09:37:03Z</time></trkpt><trkpt lat="42.28177835266943" lon="13.793339867434662"><ele>342.0</ele><time>2026-05-02T09:37:04Z</time></trkpt><trkpt lat="42.28188116372167" lon="13.793263472916891"><ele>342.0</ele><time>2026-05-02T09:37:05Z</time></trkpt><trkpt lat="42.28198289739426" lon="13.793186080070466"><ele>342.0</ele><time>2026-05-02T09:37:06Z</time></trkpt><trkpt lat="42.28208507612797" lon="13.793105000358441"><ele>342.0</ele><time>2026-05-02T09:37:07Z</time></trkpt><trkpt lat="42.28218600306205" lon="13.793013600379425"><ele>342.0</ele><time>2026-05-02T09:37:08Z</time></trkpt><trkpt lat="42.28228414045572" lon="13.79291387909541"><ele>342.25</ele><time>2026-05-02T09:37:09Z</time></trkpt><trkpt lat="42.28238521927401" lon="13.792799750542924"><ele>342.5</ele><time>2026-05-02T09:37:10Z</time></trkpt><trkpt lat="42.28247845955534" lon="13.792677537814255"><ele>342.75</ele><time>2026-05-02T09:37:11Z</time></trkpt><trkpt lat="42.28255389584151" lon="13.792544057752915"><ele>343.0</ele><time>2026-05-02T09:37:12Z</time></trkpt><trkpt lat="42.282605165077264" lon="13.792397305297698"><ele>343.0</ele><time>2026-05-02T09:37:13Z</time></trkpt><trkpt lat="42.28263132757908" lon="13.792274952500147"><ele>343.0</ele><time>2026-05-02T09:37:14Z</time></trkpt><trkpt lat="42.28266173184252" lon="13.79218575057288"><ele>343.0</ele><time>2026-05-02T09:37:15Z</time></trkpt><trkpt lat="42.282726261582994" lon="13.792107339093219"><ele>343.0</ele><time>2026-05-02T09:37:16Z</time></trkpt><trkpt lat="42.28282299949189" lon="13.79202474757675"><ele>343.0</ele><time>2026-05-02T09:37:17Z</time></trkpt><trkpt lat="42.28293269783292" lon="13.791937682790506"><ele>342.25</ele><time>2026-05-02T09:37:18Z</time></trkpt><trkpt lat="42.283043576863356" lon="13.791838011167219"><ele>341.5</ele><time>2026-05-02T09:37:19Z</time></trkpt><trkpt lat="42.28315277705223" lon="13.79173831061065"><ele>340.75</ele><time>2026-05-02T09:37:20Z</time></trkpt><trkpt lat="42.283260730210145" lon="13.79164089677069"><ele>340.0</ele><time>2026-05-02T09:37:21Z</time></trkpt><trkpt lat="42.2833609193429" lon="13.791559003210807"><ele>341.16666666666663</ele><time>2026-05-02T09:37:22Z</time></trkpt><trkpt lat="42.28344872316367" lon="13.791488031376065"><ele>342.3333333333333</ele><time>2026-05-02T09:37:23Z</time></trkpt><trkpt lat="42.28352308086289" lon="13.791425777546007"><ele>343.5</ele><time>2026-05-02T09:37:24Z</time></trkpt><trkpt lat="42.28359813947653" lon="13.791366258727288"><ele>344.6666666666667</ele><time>2026-05-02T09:37:25Z</time></trkpt><trkpt lat="42.28366315558773" lon="13.791323879621103"><ele>345.83333333333337</ele><time>2026-05-02T09:37:26Z</time></trkpt><trkpt lat="42.283743515006606" lon="13.79125759620298"><ele>347.0</ele><time>2026-05-02T09:37:28Z</time></trkpt><trkpt lat="42.283717009840515" lon="13.791177214372311"><ele>347.0</ele><time>2026-05-02T09:37:30Z</time></trkpt><trkpt lat="42.28358935943746" lon="13.791072563609646"><ele>347.0</ele><time>2026-05-02T09:37:32Z</time></trkpt><trkpt lat="42.28350289983997" lon="13.790990060291131"><ele>347.0</ele><time>2026-05-02T09:37:33Z</time></trkpt><trkpt lat="42.2834149695442" lon="13.790897648142472"><ele>347.0</ele><time>2026-05-02T09:37:34Z</time></trkpt><trkpt lat="42.2833189785678" lon="13.790789680054527"><ele>347.20000000000005</ele><time>2026-05-02T09:37:35Z</time></trkpt><trkpt lat="42.28322936906176" lon="13.790673990693039"><ele>347.4</ele><time>2026-05-02T09:37:35.999Z</time></trkpt><trkpt lat="42.28315223072625" lon="13.79056084469721"><ele>347.6</ele><time>2026-05-02T09:37:36.999Z</time></trkpt><trkpt lat="42.28308963018619" lon="13.790463924425111"><ele>347.79999999999995</ele><time>2026-05-02T09:37:37.999Z</time></trkpt><trkpt lat="42.28304243777784" lon="13.790379636521015"><ele>348.0</ele><time>2026-05-02T09:37:38.999Z</time></trkpt><trkpt lat="42.28302481803192" lon="13.790215975299606"><ele>348.0</ele><time>2026-05-02T09:37:40.999Z</time></trkpt><trkpt lat="42.28304547078219" lon="13.790094056219264"><ele>348.0</ele><time>2026-05-02T09:37:41.999Z</time></trkpt><trkpt lat="42.2830654953496" lon="13.789978429883242"><ele>348.0</ele><time>2026-05-02T09:37:42.999Z</time></trkpt><trkpt lat="42.283071240830054" lon="13.789889396700454"><ele>348.0</ele><time>2026-05-02T09:37:43.999Z</time></trkpt><trkpt lat="42.28310460860233" lon="13.789734673552697"><ele>348.0</ele><time>2026-05-02T09:37:45.999Z</time></trkpt><trkpt lat="42.28314448304704" lon="13.789666578960505"><ele>348.0</ele><time>2026-05-02T09:37:46.999Z</time></trkpt><trkpt lat="42.28318363918027" lon="13.789532790777598"><ele>348.0</ele><time>2026-05-02T09:37:48.999Z</time></trkpt><trkpt lat="42.28320621809849" lon="13.789404201090198"><ele>348.0</ele><time>2026-05-02T09:37:50.999Z</time></trkpt><trkpt lat="42.28321618214297" lon="13.789287832791112"><ele>348.0</ele><time>2026-05-02T09:37:52.999Z</time></trkpt><trkpt lat="42.28323667406434" lon="13.789175736612881"><ele>348.0</ele><time>2026-05-02T09:37:54.999Z</time></trkpt><trkpt lat="42.28325738607648" lon="13.789066315720287"><ele>348.0</ele><time>2026-05-02T09:37:56.999Z</time></trkpt><trkpt lat="42.283296831133086" lon="13.78894195392465"><ele>347.4</ele><time>2026-05-02T09:37:58.999Z</time></trkpt><trkpt lat="42.28332606747863" lon="13.78881161719492"><ele>346.79999999999995</ele><time>2026-05-02T09:38:00.999Z</time></trkpt><trkpt lat="42.283354855783124" lon="13.78867490024854"><ele>346.2</ele><time>2026-05-02T09:38:02.999Z</time></trkpt><trkpt lat="42.28336895562851" lon="13.788590061711599"><ele>345.6</ele><time>2026-05-02T09:38:03.999Z</time></trkpt><trkpt lat="42.28337909373399" lon="13.788501341696854"><ele>345.0</ele><time>2026-05-02T09:38:04.999Z</time></trkpt><trkpt lat="42.28339378830719" lon="13.7883332932893"><ele>344.3333333333333</ele><time>2026-05-02T09:38:06.999Z</time></trkpt><trkpt lat="42.28339133495659" lon="13.788233184575647"><ele>343.6666666666667</ele><time>2026-05-02T09:38:07.999Z</time></trkpt><trkpt lat="42.28338538303615" lon="13.788120347947318"><ele>343.0</ele><time>2026-05-02T09:38:08.999Z</time></trkpt><trkpt lat="42.283365838198016" lon="13.788011883487362"><ele>342.33333333333337</ele><time>2026-05-02T09:38:09.999Z</time></trkpt><trkpt lat="42.28333509186883" lon="13.787905560736032"><ele>341.6666666666667</ele><time>2026-05-02T09:38:10.999Z</time></trkpt><trkpt lat="42.283296402524904" lon="13.787785710267984"><ele>341.0</ele><time>2026-05-02T09:38:11.999Z</time></trkpt><trkpt lat="42.28324886509855" lon="13.787678750002602"><ele>341.0</ele><time>2026-05-02T09:38:12.999Z</time></trkpt><trkpt lat="42.283191719749425" lon="13.787571052036975"><ele>341.0</ele><time>2026-05-02T09:38:13.999Z</time></trkpt><trkpt lat="42.28314283161463" lon="13.787490569259777"><ele>341.0</ele><time>2026-05-02T09:38:14.999Z</time></trkpt><trkpt lat="42.283093058052835" lon="13.787416302076725"><ele>341.0</ele><time>2026-05-02T09:38:15.999Z</time></trkpt><trkpt lat="42.283052887033655" lon="13.78734641690183"><ele>341.0</ele><time>2026-05-02T09:38:16.999Z</time></trkpt><trkpt lat="42.282995764618455" lon="13.787243399590878"><ele>341.0</ele><time>2026-05-02T09:38:18.999Z</time></trkpt><trkpt lat="42.28295836717401" lon="13.787169183209556"><ele>341.0</ele><time>2026-05-02T09:38:20.999Z</time></trkpt><trkpt lat="42.28291756410515" lon="13.787099264837831"><ele>341.0</ele><time>2026-05-02T09:38:21.999Z</time></trkpt><trkpt lat="42.28286678885144" lon="13.787006478175034"><ele>341.0</ele><time>2026-05-02T09:38:22.999Z</time></trkpt><trkpt lat="42.28281314376965" lon="13.786895374867496"><ele>341.0</ele><time>2026-05-02T09:38:23.999Z</time></trkpt><trkpt lat="42.28275813086545" lon="13.78676382702064"><ele>341.0</ele><time>2026-05-02T09:38:24.999Z</time></trkpt><trkpt lat="42.2826994198764" lon="13.786638301138252"><ele>341.0</ele><time>2026-05-02T09:38:25.999Z</time></trkpt><trkpt lat="42.282641862048294" lon="13.786498955461548"><ele>341.0</ele><time>2026-05-02T09:38:26.999Z</time></trkpt><trkpt lat="42.28259374913042" lon="13.78636757944936"><ele>341.0</ele><time>2026-05-02T09:38:27.999Z</time></trkpt><trkpt lat="42.28255166978453" lon="13.786245329272715"><ele>341.0</ele><time>2026-05-02T09:38:28.999Z</time></trkpt><trkpt lat="42.282516652437295" lon="13.78613350312408"><ele>341.0</ele><time>2026-05-02T09:38:29.999Z</time></trkpt><trkpt lat="42.282481291438515" lon="13.786020162140424"><ele>340.75</ele><time>2026-05-02T09:38:30.999Z</time></trkpt><trkpt lat="42.28243846509854" lon="13.785882184046441"><ele>340.5</ele><time>2026-05-02T09:38:31.999Z</time></trkpt><trkpt lat="42.28238477427171" lon="13.785719739912908"><ele>340.25</ele><time>2026-05-02T09:38:32.999Z</time></trkpt><trkpt lat="42.28232199934294" lon="13.785541809666928"><ele>340.0</ele><time>2026-05-02T09:38:33.999Z</time></trkpt><trkpt lat="42.28227822293006" lon="13.785339661224276"><ele>340.0</ele><time>2026-05-02T09:38:34.999Z</time></trkpt><trkpt lat="42.28222674083354" lon="13.785129446123282"><ele>340.0</ele><time>2026-05-02T09:38:35.999Z</time></trkpt><trkpt lat="42.28217212653465" lon="13.784936530524357"><ele>340.0</ele><time>2026-05-02T09:38:36.999Z</time></trkpt><trkpt lat="42.28211664163047" lon="13.784736772606582"><ele>340.0</ele><time>2026-05-02T09:38:37.999Z</time></trkpt><trkpt lat="42.282071803757" lon="13.784551031528023"><ele>340.0</ele><time>2026-05-02T09:38:38.999Z</time></trkpt><trkpt lat="42.28202279864213" lon="13.784358678646056"><ele>340.0</ele><time>2026-05-02T09:38:39.999Z</time></trkpt><trkpt lat="42.281974508800644" lon="13.784156814250306"><ele>340.0</ele><time>2026-05-02T09:38:40.999Z</time></trkpt><trkpt lat="42.28192551942111" lon="13.783961963431679"><ele>340.0</ele><time>2026-05-02T09:38:41.999Z</time></trkpt><trkpt lat="42.281880950806574" lon="13.783775616001348"><ele>340.0</ele><time>2026-05-02T09:38:42.999Z</time></trkpt><trkpt lat="42.28183372379131" lon="13.78358485207203"><ele>340.0</ele><time>2026-05-02T09:38:43.999Z</time></trkpt><trkpt lat="42.281786199960294" lon="13.783387980229053"><ele>339.66666666666663</ele><time>2026-05-02T09:38:44.999Z</time></trkpt><trkpt lat="42.28172452927672" lon="13.783181291261982"><ele>339.3333333333333</ele><time>2026-05-02T09:38:45.999Z</time></trkpt><trkpt lat="42.28165739932314" lon="13.782972973127997"><ele>339.0</ele><time>2026-05-02T09:38:46.999Z</time></trkpt><trkpt lat="42.28159283817212" lon="13.78277942173521"><ele>340.0</ele><time>2026-05-02T09:38:47.999Z</time></trkpt><trkpt lat="42.28152255637193" lon="13.782589692386106"><ele>341.0</ele><time>2026-05-02T09:38:48.999Z</time></trkpt><trkpt lat="42.281449623431044" lon="13.782394816431355"><ele>342.0</ele><time>2026-05-02T09:38:49.999Z</time></trkpt><trkpt lat="42.2813706294477" lon="13.782185621119652"><ele>342.0</ele><time>2026-05-02T09:38:50.999Z</time></trkpt><trkpt lat="42.281299093098795" lon="13.781967071158634"><ele>342.0</ele><time>2026-05-02T09:38:51.999Z</time></trkpt><trkpt lat="42.281230089340774" lon="13.781749910203928"><ele>342.0</ele><time>2026-05-02T09:38:52.999Z</time></trkpt><trkpt lat="42.281167162868016" lon="13.781550563154687"><ele>342.0</ele><time>2026-05-02T09:38:53.999Z</time></trkpt><trkpt lat="42.28110929909177" lon="13.781374037937814"><ele>342.0</ele><time>2026-05-02T09:38:54.999Z</time></trkpt><trkpt lat="42.28104715434847" lon="13.781193436243186"><ele>342.0</ele><time>2026-05-02T09:38:55.999Z</time></trkpt><trkpt lat="42.280986756396125" lon="13.780991139425836"><ele>341.75</ele><time>2026-05-02T09:38:56.999Z</time></trkpt><trkpt lat="42.280938875316046" lon="13.780776228513734"><ele>341.5</ele><time>2026-05-02T09:38:57.999Z</time></trkpt><trkpt lat="42.28088747082109" lon="13.78058377952326"><ele>341.25</ele><time>2026-05-02T09:38:58.999Z</time></trkpt><trkpt lat="42.28084465190411" lon="13.780417382873667"><ele>341.0</ele><time>2026-05-02T09:38:59.999Z</time></trkpt><trkpt lat="42.28081204917597" lon="13.780264764659329"><ele>341.6</ele><time>2026-05-02T09:39:00.999Z</time></trkpt><trkpt lat="42.28078617746407" lon="13.780125495830273"><ele>342.20000000000005</ele><time>2026-05-02T09:39:01.999Z</time></trkpt><trkpt lat="42.28075848464943" lon="13.779984924598699"><ele>342.79999999999995</ele><time>2026-05-02T09:39:02.998Z</time></trkpt><trkpt lat="42.2807122982476" lon="13.77984758224624"><ele>343.4</ele><time>2026-05-02T09:39:03.998Z</time></trkpt><trkpt lat="42.28065926395865" lon="13.779707681974928"><ele>344.0</ele><time>2026-05-02T09:39:04.998Z</time></trkpt><trkpt lat="42.280597049250915" lon="13.77957016233176"><ele>344.0</ele><time>2026-05-02T09:39:05.998Z</time></trkpt><trkpt lat="42.28053120760107" lon="13.779422120754315"><ele>344.0</ele><time>2026-05-02T09:39:06.998Z</time></trkpt><trkpt lat="42.28047875303703" lon="13.779270684858904"><ele>344.0</ele><time>2026-05-02T09:39:08Z</time></trkpt><trkpt lat="42.28043181056604" lon="13.779136892254538"><ele>344.0</ele><time>2026-05-02T09:39:09Z</time></trkpt><trkpt lat="42.28039849086291" lon="13.778997927139958"><ele>344.25</ele><time>2026-05-02T09:39:10Z</time></trkpt><trkpt lat="42.28037476203186" lon="13.77884245187481"><ele>344.5</ele><time>2026-05-02T09:39:11Z</time></trkpt><trkpt lat="42.28035455013986" lon="13.77867038505692"><ele>344.75</ele><time>2026-05-02T09:39:12Z</time></trkpt><trkpt lat="42.280331026359484" lon="13.778488393899439"><ele>345.0</ele><time>2026-05-02T09:39:13Z</time></trkpt><trkpt lat="42.280308978281916" lon="13.77829942089152"><ele>345.0</ele><time>2026-05-02T09:39:14Z</time></trkpt><trkpt lat="42.28029276508379" lon="13.778103532160827"><ele>345.0</ele><time>2026-05-02T09:39:15Z</time></trkpt><trkpt lat="42.280271680302405" lon="13.777902165714814"><ele>345.0</ele><time>2026-05-02T09:39:16Z</time></trkpt><trkpt lat="42.28024443491669" lon="13.777698410908739"><ele>345.0</ele><time>2026-05-02T09:39:17Z</time></trkpt><trkpt lat="42.28021292434862" lon="13.777520085977969"><ele>345.25</ele><time>2026-05-02T09:39:18Z</time></trkpt><trkpt lat="42.28016668941692" lon="13.777349216454658"><ele>345.5</ele><time>2026-05-02T09:39:19Z</time></trkpt><trkpt lat="42.28016675338478" lon="13.777186390753831"><ele>345.75</ele><time>2026-05-02T09:39:20Z</time></trkpt><trkpt lat="42.280150173235015" lon="13.777011606304816"><ele>346.0</ele><time>2026-05-02T09:39:21Z</time></trkpt><trkpt lat="42.280126695435435" lon="13.77683471636713"><ele>346.0</ele><time>2026-05-02T09:39:22Z</time></trkpt><trkpt lat="42.28012470181762" lon="13.77666777747852"><ele>346.0</ele><time>2026-05-02T09:39:23Z</time></trkpt><trkpt lat="42.28002108198413" lon="13.776448855996751"><ele>346.0</ele><time>2026-05-02T09:39:24Z</time></trkpt><trkpt lat="42.279994613457816" lon="13.77627925486816"><ele>346.0</ele><time>2026-05-02T09:39:25Z</time></trkpt><trkpt lat="42.279980444322746" lon="13.77611958855534"><ele>346.20000000000005</ele><time>2026-05-02T09:39:26Z</time></trkpt><trkpt lat="42.279963311803236" lon="13.775970500504645"><ele>346.40000000000003</ele><time>2026-05-02T09:39:27Z</time></trkpt><trkpt lat="42.27994819235695" lon="13.775812051812675"><ele>346.6</ele><time>2026-05-02T09:39:28Z</time></trkpt><trkpt lat="42.27994832327371" lon="13.775674769539654"><ele>346.8</ele><time>2026-05-02T09:39:29Z</time></trkpt><trkpt lat="42.27994930820166" lon="13.775567567841268"><ele>347.0</ele><time>2026-05-02T09:39:30Z</time></trkpt><trkpt lat="42.27995845726643" lon="13.775444880922377"><ele>347.0</ele><time>2026-05-02T09:39:32Z</time></trkpt><trkpt lat="42.28002079610697" lon="13.77538927975784"><ele>347.0</ele><time>2026-05-02T09:39:39.999Z</time></trkpt><trkpt lat="42.28007981981676" lon="13.77533811134314"><ele>347.0</ele><time>2026-05-02T09:39:40.999Z</time></trkpt><trkpt lat="42.28016176153846" lon="13.775289884097795"><ele>347.0</ele><time>2026-05-02T09:39:41.999Z</time></trkpt><trkpt lat="42.28025299210153" lon="13.77523363542008"><ele>347.0</ele><time>2026-05-02T09:39:42.999Z</time></trkpt><trkpt lat="42.280358596109295" lon="13.775159619313063"><ele>347.0</ele><time>2026-05-02T09:39:43.999Z</time></trkpt><trkpt lat="42.280483133047014" lon="13.775071979683013"><ele>347.0</ele><time>2026-05-02T09:39:44.999Z</time></trkpt><trkpt lat="42.28061704782691" lon="13.774983196378324"><ele>347.0</ele><time>2026-05-02T09:39:45.999Z</time></trkpt><trkpt lat="42.28074728079034" lon="13.774896750350411"><ele>347.0</ele><time>2026-05-02T09:39:46.999Z</time></trkpt><trkpt lat="42.280862724084955" lon="13.774818264640585"><ele>347.0</ele><time>2026-05-02T09:39:47.999Z</time></trkpt><trkpt lat="42.280986635954726" lon="13.774737430897673"><ele>347.0</ele><time>2026-05-02T09:39:48.999Z</time></trkpt><trkpt lat="42.28110003954267" lon="13.774661234405224"><ele>347.0</ele><time>2026-05-02T09:39:49.999Z</time></trkpt><trkpt lat="42.2811986392662" lon="13.774595999662111"><ele>347.0</ele><time>2026-05-02T09:39:50.999Z</time></trkpt><trkpt lat="42.28128814075807" lon="13.774544533527635"><ele>347.0</ele><time>2026-05-02T09:39:51.999Z</time></trkpt><trkpt lat="42.28136389728055" lon="13.774499241417795"><ele>347.0</ele><time>2026-05-02T09:39:52.999Z</time></trkpt><trkpt lat="42.28142641208428" lon="13.774467116168367"><ele>347.0</ele><time>2026-05-02T09:39:53.999Z</time></trkpt><trkpt lat="42.28151053953112" lon="13.774424874916251"><ele>347.0</ele><time>2026-05-02T09:39:55.999Z</time></trkpt><trkpt lat="42.28154111121146" lon="13.774318980494142"><ele>347.0</ele><time>2026-05-02T09:40:21.999Z</time></trkpt><trkpt lat="42.28148991623222" lon="13.77422801437435"><ele>347.0</ele><time>2026-05-02T09:40:23.999Z</time></trkpt><trkpt lat="42.28143419961293" lon="13.77417578696487"><ele>347.8</ele><time>2026-05-02T09:40:24.999Z</time></trkpt><trkpt lat="42.28137384240851" lon="13.774104301580259"><ele>348.6</ele><time>2026-05-02T09:40:25.999Z</time></trkpt><trkpt lat="42.281303056592215" lon="13.774012073054939"><ele>349.40000000000003</ele><time>2026-05-02T09:40:26.999Z</time></trkpt><trkpt lat="42.28122219831817" lon="13.773910730009165"><ele>350.20000000000005</ele><time>2026-05-02T09:40:27.999Z</time></trkpt><trkpt lat="42.28114370493665" lon="13.773802055015153"><ele>351.0</ele><time>2026-05-02T09:40:28.999Z</time></trkpt><trkpt lat="42.281054461380684" lon="13.773676575186185"><ele>351.0</ele><time>2026-05-02T09:40:29.999Z</time></trkpt><trkpt lat="42.28095351687989" lon="13.773547221779085"><ele>351.0</ele><time>2026-05-02T09:40:30.999Z</time></trkpt><trkpt lat="42.280855844393145" lon="13.77341763534281"><ele>351.0</ele><time>2026-05-02T09:40:31.999Z</time></trkpt><trkpt lat="42.28076122555002" lon="13.773307989784344"><ele>351.0</ele><time>2026-05-02T09:40:32.999Z</time></trkpt><trkpt lat="42.28069371530864" lon="13.7730884122248"><ele>351.5</ele><time>2026-05-02T09:40:33.999Z</time></trkpt><trkpt lat="42.28060984812709" lon="13.772920824781856"><ele>352.0</ele><time>2026-05-02T09:40:34.999Z</time></trkpt><trkpt lat="42.2805262990015" lon="13.772759198309783"><ele>352.5</ele><time>2026-05-02T09:40:35.999Z</time></trkpt><trkpt lat="42.28044340108094" lon="13.772604377151026"><ele>353.0</ele><time>2026-05-02T09:40:36.999Z</time></trkpt><trkpt lat="42.2803660829304" lon="13.77245843140062"><ele>353.5</ele><time>2026-05-02T09:40:37.999Z</time></trkpt><trkpt lat="42.28029874714684" lon="13.77231845877199"><ele>354.0</ele><time>2026-05-02T09:40:38.999Z</time></trkpt><trkpt lat="42.28022620613627" lon="13.772197260991614"><ele>354.5</ele><time>2026-05-02T09:40:39.999Z</time></trkpt><trkpt lat="42.28013447071853" lon="13.7721101096473"><ele>355.0</ele><time>2026-05-02T09:40:40.999Z</time></trkpt><trkpt lat="42.28001632625606" lon="13.772053536153871"><ele>355.0</ele><time>2026-05-02T09:40:41.999Z</time></trkpt><trkpt lat="42.27989865763978" lon="13.7719888782613"><ele>355.0</ele><time>2026-05-02T09:40:42.999Z</time></trkpt><trkpt lat="42.27979366205826" lon="13.771898718554686"><ele>355.0</ele><time>2026-05-02T09:40:43.999Z</time></trkpt><trkpt lat="42.27970092982141" lon="13.77178770015474"><ele>355.0</ele><time>2026-05-02T09:40:44.999Z</time></trkpt><trkpt lat="42.27961816823887" lon="13.771656316189679"><ele>355.5</ele><time>2026-05-02T09:40:45.999Z</time></trkpt><trkpt lat="42.27956190430926" lon="13.771496589014337"><ele>356.0</ele><time>2026-05-02T09:40:46.999Z</time></trkpt><trkpt lat="42.27951244786487" lon="13.77132204232056"><ele>356.5</ele><time>2026-05-02T09:40:47.999Z</time></trkpt><trkpt lat="42.27945735488726" lon="13.771150525564611"><ele>357.0</ele><time>2026-05-02T09:40:48.999Z</time></trkpt><trkpt lat="42.27939945049441" lon="13.7709887879454"><ele>357.5</ele><time>2026-05-02T09:40:49.999Z</time></trkpt><trkpt lat="42.27934710236031" lon="13.770839781874255"><ele>358.0</ele><time>2026-05-02T09:40:50.999Z</time></trkpt><trkpt lat="42.27930249850602" lon="13.770703346912146"><ele>358.5</ele><time>2026-05-02T09:40:51.999Z</time></trkpt><trkpt lat="42.27925370549762" lon="13.770558205086953"><ele>359.0</ele><time>2026-05-02T09:40:52.999Z</time></trkpt><trkpt lat="42.279206078052006" lon="13.770416069774226"><ele>359.0</ele><time>2026-05-02T09:40:53.999Z</time></trkpt><trkpt lat="42.27915808437193" lon="13.770284256788422"><ele>359.0</ele><time>2026-05-02T09:40:54.999Z</time></trkpt><trkpt lat="42.279112722900926" lon="13.770154379613302"><ele>359.0</ele><time>2026-05-02T09:40:55.999Z</time></trkpt><trkpt lat="42.27906707849652" lon="13.770023076186126"><ele>359.0</ele><time>2026-05-02T09:40:56.999Z</time></trkpt><trkpt lat="42.2790196975633" lon="13.769886536162925"><ele>359.0</ele><time>2026-05-02T09:40:57.999Z</time></trkpt><trkpt lat="42.27897480931733" lon="13.7697610563323"><ele>359.1666666666667</ele><time>2026-05-02T09:40:58.999Z</time></trkpt><trkpt lat="42.278931234963245" lon="13.76963489705015"><ele>359.33333333333337</ele><time>2026-05-02T09:40:59.999Z</time></trkpt><trkpt lat="42.2788912029842" lon="13.76951423863663"><ele>359.5</ele><time>2026-05-02T09:41:00.999Z</time></trkpt><trkpt lat="42.2788654406648" lon="13.769414222393726"><ele>359.6666666666667</ele><time>2026-05-02T09:41:01.999Z</time></trkpt><trkpt lat="42.27886239613318" lon="13.769326288492854"><ele>359.8333333333333</ele><time>2026-05-02T09:41:02.999Z</time></trkpt><trkpt lat="42.27889862871867" lon="13.76922994243394"><ele>360.0</ele><time>2026-05-02T09:41:03.999Z</time></trkpt><trkpt lat="42.279001907176806" lon="13.769159281039382"><ele>360.75</ele><time>2026-05-02T09:41:04.999Z</time></trkpt><trkpt lat="42.27911195283622" lon="13.76909946538948"><ele>361.5</ele><time>2026-05-02T09:41:05.999Z</time></trkpt><trkpt lat="42.27923454148002" lon="13.76903337163568"><ele>362.25</ele><time>2026-05-02T09:41:06.999Z</time></trkpt><trkpt lat="42.27935751119082" lon="13.768937744331597"><ele>363.0</ele><time>2026-05-02T09:41:07.999Z</time></trkpt><trkpt lat="42.27948357019119" lon="13.768828607054743"><ele>363.0</ele><time>2026-05-02T09:41:08.998Z</time></trkpt><trkpt lat="42.27960880942877" lon="13.768737126354196"><ele>363.0</ele><time>2026-05-02T09:41:09.998Z</time></trkpt><trkpt lat="42.279738157426166" lon="13.768641588835875"><ele>363.0</ele><time>2026-05-02T09:41:10.998Z</time></trkpt><trkpt lat="42.27986500442753" lon="13.768546251918911"><ele>363.0</ele><time>2026-05-02T09:41:11.998Z</time></trkpt><trkpt lat="42.27998992053091" lon="13.768436629414882"><ele>364.0</ele><time>2026-05-02T09:41:13Z</time></trkpt><trkpt lat="42.28010005214823" lon="13.768314204847263"><ele>365.0</ele><time>2026-05-02T09:41:14Z</time></trkpt><trkpt lat="42.28020604845134" lon="13.768169231570162"><ele>366.0</ele><time>2026-05-02T09:41:15Z</time></trkpt><trkpt lat="42.280305308379795" lon="13.768025704679179"><ele>367.0</ele><time>2026-05-02T09:41:16Z</time></trkpt><trkpt lat="42.28041069637902" lon="13.767884417559506"><ele>367.0</ele><time>2026-05-02T09:41:17Z</time></trkpt><trkpt lat="42.28052011234649" lon="13.767749157553814"><ele>367.0</ele><time>2026-05-02T09:41:18Z</time></trkpt><trkpt lat="42.28062969336253" lon="13.76762273891711"><ele>367.0</ele><time>2026-05-02T09:41:19Z</time></trkpt><trkpt lat="42.28075044022232" lon="13.76750013246837"><ele>367.0</ele><time>2026-05-02T09:41:20Z</time></trkpt><trkpt lat="42.280875938684666" lon="13.767391712777686"><ele>368.0</ele><time>2026-05-02T09:41:21Z</time></trkpt><trkpt lat="42.28100127292936" lon="13.7672866954257"><ele>369.0</ele><time>2026-05-02T09:41:22Z</time></trkpt><trkpt lat="42.281125851005115" lon="13.76717774358083"><ele>370.0</ele><time>2026-05-02T09:41:23Z</time></trkpt><trkpt lat="42.28125011054082" lon="13.767062602479754"><ele>371.0</ele><time>2026-05-02T09:41:24Z</time></trkpt><trkpt lat="42.281374515334456" lon="13.766950553008574"><ele>372.25</ele><time>2026-05-02T09:41:25Z</time></trkpt><trkpt lat="42.28149745997874" lon="13.766837972817338"><ele>373.5</ele><time>2026-05-02T09:41:26Z</time></trkpt><trkpt lat="42.28161445769298" lon="13.76672069408425"><ele>374.75</ele><time>2026-05-02T09:41:27Z</time></trkpt><trkpt lat="42.28172094343112" lon="13.76660227912439"><ele>376.0</ele><time>2026-05-02T09:41:28Z</time></trkpt><trkpt lat="42.28182328730592" lon="13.766469820863641"><ele>376.0</ele><time>2026-05-02T09:41:29Z</time></trkpt><trkpt lat="42.281920112855325" lon="13.766322861848854"><ele>376.0</ele><time>2026-05-02T09:41:30Z</time></trkpt><trkpt lat="42.282017902048004" lon="13.766164131731141"><ele>376.0</ele><time>2026-05-02T09:41:31Z</time></trkpt><trkpt lat="42.282120949120475" lon="13.766011630398593"><ele>377.3333333333333</ele><time>2026-05-02T09:41:32Z</time></trkpt><trkpt lat="42.28222224344521" lon="13.765861153572446"><ele>378.6666666666667</ele><time>2026-05-02T09:41:33Z</time></trkpt><trkpt lat="42.28232750643903" lon="13.765712429843493"><ele>380.0</ele><time>2026-05-02T09:41:34Z</time></trkpt><trkpt lat="42.282430772834545" lon="13.765563838668939"><ele>380.0</ele><time>2026-05-02T09:41:35Z</time></trkpt><trkpt lat="42.282532323859485" lon="13.76541175667271"><ele>380.0</ele><time>2026-05-02T09:41:36Z</time></trkpt><trkpt lat="42.28263012415804" lon="13.765254985816313"><ele>380.0</ele><time>2026-05-02T09:41:37Z</time></trkpt><trkpt lat="42.28272407556303" lon="13.765107301979729"><ele>380.0</ele><time>2026-05-02T09:41:38Z</time></trkpt><trkpt lat="42.28281428376343" lon="13.764964600479443"><ele>381.0</ele><time>2026-05-02T09:41:39Z</time></trkpt><trkpt lat="42.282903865211324" lon="13.76482697580054"><ele>382.0</ele><time>2026-05-02T09:41:40Z</time></trkpt><trkpt lat="42.28299240346518" lon="13.76468559180524"><ele>383.0</ele><time>2026-05-02T09:41:41Z</time></trkpt><trkpt lat="42.28304219858734" lon="13.764549210161286"><ele>384.0</ele><time>2026-05-02T09:41:42Z</time></trkpt><trkpt lat="42.28311978971174" lon="13.764421253543036"><ele>384.75</ele><time>2026-05-02T09:41:42.999Z</time></trkpt><trkpt lat="42.28324906308311" lon="13.764308031771094"><ele>385.5</ele><time>2026-05-02T09:41:43.999Z</time></trkpt><trkpt lat="42.283366035622684" lon="13.764208538324601"><ele>386.25</ele><time>2026-05-02T09:41:44.999Z</time></trkpt><trkpt lat="42.28344662915365" lon="13.764102179524182"><ele>387.0</ele><time>2026-05-02T09:41:45.999Z</time></trkpt><trkpt lat="42.28347278045414" lon="13.763983079553258"><ele>387.0</ele><time>2026-05-02T09:41:46.999Z</time></trkpt><trkpt lat="42.28352343339479" lon="13.763908842278955"><ele>387.0</ele><time>2026-05-02T09:41:47.999Z</time></trkpt><trkpt lat="42.2835730975723" lon="13.76381327155287"><ele>387.0</ele><time>2026-05-02T09:41:49.999Z</time></trkpt><trkpt lat="42.28353549411183" lon="13.763741529499722"><ele>387.0</ele><time>2026-05-02T09:41:52.999Z</time></trkpt><trkpt lat="42.283409560949195" lon="13.763735205267789"><ele>387.0</ele><time>2026-05-02T09:41:54.999Z</time></trkpt><trkpt lat="42.28331688470444" lon="13.763745325774288"><ele>387.0</ele><time>2026-05-02T09:41:55.999Z</time></trkpt><trkpt lat="42.2832162012716" lon="13.763728657663943"><ele>387.0</ele><time>2026-05-02T09:41:56.999Z</time></trkpt><trkpt lat="42.28310803564668" lon="13.763713230852236"><ele>387.0</ele><time>2026-05-02T09:41:57.999Z</time></trkpt><trkpt lat="42.28299686480116" lon="13.76370474870745"><ele>387.0</ele><time>2026-05-02T09:41:58.999Z</time></trkpt><trkpt lat="42.28288917282889" lon="13.76371231391589"><ele>387.0</ele><time>2026-05-02T09:41:59.999Z</time></trkpt><trkpt lat="42.28281295622799" lon="13.763733640969972"><ele>387.0</ele><time>2026-05-02T09:42:00.999Z</time></trkpt><trkpt lat="42.28270852334012" lon="13.763742182587933"><ele>387.57142857142856</ele><time>2026-05-02T09:42:02.999Z</time></trkpt><trkpt lat="42.28264800569013" lon="13.763711405860288"><ele>388.14285714285717</ele><time>2026-05-02T09:42:03.999Z</time></trkpt><trkpt lat="42.28258840261014" lon="13.763667313211997"><ele>388.71428571428567</ele><time>2026-05-02T09:42:04.999Z</time></trkpt><trkpt lat="42.28249767180247" lon="13.763624853894461"><ele>389.2857142857143</ele><time>2026-05-02T09:42:06.999Z</time></trkpt><trkpt lat="42.28243925026536" lon="13.763587425391387"><ele>389.85714285714283</ele><time>2026-05-02T09:42:52.999Z</time></trkpt><trkpt lat="42.28236633400788" lon="13.763551159585584"><ele>390.4285714285714</ele><time>2026-05-02T09:42:57.999Z</time></trkpt><trkpt lat="42.282299569791974" lon="13.763524280228054"><ele>391.0</ele><time>2026-05-02T09:43:00.999Z</time></trkpt><trkpt lat="42.28223431336473" lon="13.763522424693985"><ele>392.99999999999994</ele><time>2026-05-02T09:43:19Z</time></trkpt><trkpt lat="42.2821683991544" lon="13.76353380278698"><ele>395.0</ele><time>2026-05-02T09:45:44Z</time></trkpt><trkpt lat="42.2820963595458" lon="13.76355646897578"><ele>397.0</ele><time>2026-05-02T09:45:48Z</time></trkpt><trkpt lat="42.28202421327303" lon="13.763580679605495"><ele>399.0</ele><time>2026-05-02T09:45:53Z</time></trkpt><trkpt lat="42.281942352464014" lon="13.763605626881658"><ele>401.0</ele><time>2026-05-02T09:45:56Z</time></trkpt><trkpt lat="42.281881609306545" lon="13.763572106452859"><ele>402.99999999999994</ele><time>2026-05-02T09:46:47.999Z</time></trkpt><trkpt lat="42.28181438414206" lon="13.763568216442122"><ele>405.0</ele><time>2026-05-02T09:46:51.999Z</time></trkpt><trkpt lat="42.28172297745366" lon="13.763569379930061"><ele>405.0</ele><time>2026-05-02T09:46:53.999Z</time></trkpt><trkpt lat="42.28162533405464" lon="13.763566905882788"><ele>405.0</ele><time>2026-05-02T09:46:55.999Z</time></trkpt><trkpt lat="42.281540848733" lon="13.763597009955364"><ele>405.0</ele><time>2026-05-02T09:46:57.999Z</time></trkpt><trkpt lat="42.28147007216435" lon="13.7636128429678"><ele>405.0</ele><time>2026-05-02T09:48:23.999Z</time></trkpt><trkpt lat="42.28138486080527" lon="13.763626392780582"><ele>405.0</ele><time>2026-05-02T09:48:26.999Z</time></trkpt><trkpt lat="42.281308583200605" lon="13.763661057722514"><ele>405.0</ele><time>2026-05-02T09:48:28.999Z</time></trkpt><trkpt lat="42.28122949873234" lon="13.763660700613716"><ele>407.71428571428567</ele><time>2026-05-02T09:48:32.999Z</time></trkpt><trkpt lat="42.28116099812613" lon="13.763678164594038"><ele>410.42857142857144</ele><time>2026-05-02T09:48:36.999Z</time></trkpt><trkpt lat="42.28109646085421" lon="13.763656113072166"><ele>413.1428571428571</ele><time>2026-05-02T09:48:50.999Z</time></trkpt><trkpt lat="42.28100818758147" lon="13.76362449749919"><ele>415.85714285714283</ele><time>2026-05-02T09:48:53.999Z</time></trkpt><trkpt lat="42.28094235844259" lon="13.763600257122581"><ele>418.57142857142856</ele><time>2026-05-02T09:48:56.999Z</time></trkpt><trkpt lat="42.28086245526685" lon="13.76358062349878"><ele>421.2857142857143</ele><time>2026-05-02T09:48:59.999Z</time></trkpt><trkpt lat="42.28080058868538" lon="13.763562119087249"><ele>424.0</ele><time>2026-05-02T09:49:01.999Z</time></trkpt><trkpt lat="42.28070502934198" lon="13.763534507015402"><ele>422.83333333333337</ele><time>2026-05-02T09:49:03.999Z</time></trkpt><trkpt lat="42.28062054162201" lon="13.763512237858986"><ele>421.6666666666667</ele><time>2026-05-02T09:49:05.999Z</time></trkpt><trkpt lat="42.280562179696815" lon="13.76347375239104"><ele>420.5</ele><time>2026-05-02T09:49:07.999Z</time></trkpt><trkpt lat="42.28049559903755" lon="13.76345485296173"><ele>419.33333333333337</ele><time>2026-05-02T09:49:09.999Z</time></trkpt><trkpt lat="42.280417145448546" lon="13.763427400900358"><ele>418.1666666666667</ele><time>2026-05-02T09:49:11.999Z</time></trkpt><trkpt lat="42.280333840512114" lon="13.763421647918273"><ele>417.0</ele><time>2026-05-02T09:49:13.999Z</time></trkpt><trkpt lat="42.28024480871912" lon="13.763389572724847"><ele>422.40000000000003</ele><time>2026-05-02T09:49:15.999Z</time></trkpt><trkpt lat="42.28017148186378" lon="13.763325739101074"><ele>427.8</ele><time>2026-05-02T09:49:17.999Z</time></trkpt><trkpt lat="42.280102306923794" lon="13.763259163195814"><ele>433.2</ele><time>2026-05-02T09:49:19.999Z</time></trkpt><trkpt lat="42.28003703965096" lon="13.763170360376327"><ele>438.6</ele><time>2026-05-02T09:49:21.999Z</time></trkpt><trkpt lat="42.279960676464604" lon="13.763092174299134"><ele>444.0</ele><time>2026-05-02T09:49:23.999Z</time></trkpt><trkpt lat="42.279892560728506" lon="13.763000624754008"><ele>444.0</ele><time>2026-05-02T09:49:25.999Z</time></trkpt><trkpt lat="42.27981410145656" lon="13.76292258774136"><ele>444.0</ele><time>2026-05-02T09:49:27.999Z</time></trkpt><trkpt lat="42.27974128444977" lon="13.762828130397182"><ele>444.0</ele><time>2026-05-02T09:49:29.999Z</time></trkpt><trkpt lat="42.27964022293061" lon="13.762732346791998"><ele>444.0</ele><time>2026-05-02T09:49:31.999Z</time></trkpt><trkpt lat="42.27958573735951" lon="13.762681431572316"><ele>444.0</ele><time>2026-05-02T09:49:32.999Z</time></trkpt><trkpt lat="42.27953476524099" lon="13.76263106691938"><ele>446.6666666666667</ele><time>2026-05-02T09:49:33.999Z</time></trkpt><trkpt lat="42.27942162950915" lon="13.762580503442935"><ele>449.33333333333337</ele><time>2026-05-02T09:49:35.999Z</time></trkpt><trkpt lat="42.279353158952205" lon="13.76255184039002"><ele>452.0</ele><time>2026-05-02T09:49:37Z</time></trkpt><trkpt lat="42.27927666692917" lon="13.762523315425563"><ele>454.6666666666667</ele><time>2026-05-02T09:49:38Z</time></trkpt><trkpt lat="42.279188391217936" lon="13.762496664741203"><ele>457.33333333333337</ele><time>2026-05-02T09:49:39Z</time></trkpt><trkpt lat="42.27911146442384" lon="13.762459213934155"><ele>460.0</ele><time>2026-05-02T09:49:40Z</time></trkpt><trkpt lat="42.27903997806634" lon="13.76242052985235"><ele>460.00000000000006</ele><time>2026-05-02T09:49:41Z</time></trkpt><trkpt lat="42.27896571181688" lon="13.762378762079024"><ele>460.0</ele><time>2026-05-02T09:49:42Z</time></trkpt><trkpt lat="42.27888704134622" lon="13.762345653202779"><ele>460.0</ele><time>2026-05-02T09:49:43Z</time></trkpt><trkpt lat="42.278816979327466" lon="13.762317109714024"><ele>460.0</ele><time>2026-05-02T09:49:44Z</time></trkpt><trkpt lat="42.278740201896866" lon="13.762283048013398"><ele>460.00000000000006</ele><time>2026-05-02T09:49:45Z</time></trkpt><trkpt lat="42.27865613592497" lon="13.76225514578529"><ele>460.0</ele><time>2026-05-02T09:49:46Z</time></trkpt><trkpt lat="42.27858056878778" lon="13.762222373246672"><ele>461.50000000000006</ele><time>2026-05-02T09:49:47Z</time></trkpt><trkpt lat="42.27849558722626" lon="13.762186078919203"><ele>463.0</ele><time>2026-05-02T09:49:48Z</time></trkpt><trkpt lat="42.278419081958376" lon="13.762145998274429"><ele>464.5</ele><time>2026-05-02T09:49:49Z</time></trkpt><trkpt lat="42.27835377089182" lon="13.76207947680003"><ele>466.0</ele><time>2026-05-02T09:49:50Z</time></trkpt><trkpt lat="42.278309958711056" lon="13.76200604637561"><ele>467.50000000000006</ele><time>2026-05-02T09:49:51Z</time></trkpt><trkpt lat="42.278218506280524" lon="13.761897394693024"><ele>469.0</ele><time>2026-05-02T09:49:53Z</time></trkpt><trkpt lat="42.27816456012522" lon="13.761851579395655"><ele>470.6</ele><time>2026-05-02T09:49:55Z</time></trkpt><trkpt lat="42.278090391547366" lon="13.761810156673725"><ele>472.2</ele><time>2026-05-02T09:50:13Z</time></trkpt><trkpt lat="42.27793877877271" lon="13.761761028162642"><ele>473.80000000000007</ele><time>2026-05-02T09:50:15Z</time></trkpt><trkpt lat="42.27786002210447" lon="13.761738905305965"><ele>475.40000000000003</ele><time>2026-05-02T09:50:16Z</time></trkpt><trkpt lat="42.277766968067155" lon="13.761716454010386"><ele>477.0</ele><time>2026-05-02T09:50:17Z</time></trkpt><trkpt lat="42.277678305653446" lon="13.761699931665119"><ele>477.0</ele><time>2026-05-02T09:50:18Z</time></trkpt><trkpt lat="42.27759786069896" lon="13.761715903873899"><ele>477.00000000000006</ele><time>2026-05-02T09:50:19Z</time></trkpt><trkpt lat="42.27751303164117" lon="13.761753507972095"><ele>477.00000000000006</ele><time>2026-05-02T09:50:20Z</time></trkpt><trkpt lat="42.27741775634689" lon="13.761791799745168"><ele>477.0</ele><time>2026-05-02T09:50:21Z</time></trkpt><trkpt lat="42.27731370980201" lon="13.761812672256806"><ele>477.0</ele><time>2026-05-02T09:50:22Z</time></trkpt><trkpt lat="42.277216635803235" lon="13.761802260124993"><ele>478.5</ele><time>2026-05-02T09:50:23Z</time></trkpt><trkpt lat="42.27711404487349" lon="13.761791839069632"><ele>480.0</ele><time>2026-05-02T09:50:24Z</time></trkpt><trkpt lat="42.277016254276916" lon="13.761777289287027"><ele>481.5</ele><time>2026-05-02T09:50:25Z</time></trkpt><trkpt lat="42.2769344492987" lon="13.761756600619053"><ele>483.0</ele><time>2026-05-02T09:50:26Z</time></trkpt><trkpt lat="42.27686361185654" lon="13.761731924654194"><ele>484.5</ele><time>2026-05-02T09:50:27Z</time></trkpt><trkpt lat="42.276797819309145" lon="13.761688695700379"><ele>486.0</ele><time>2026-05-02T09:50:28Z</time></trkpt><trkpt lat="42.27669314993625" lon="13.761790320719442"><ele>486.0</ele><time>2026-05-02T09:50:29Z</time></trkpt><trkpt lat="42.27661548357075" lon="13.761780302589402"><ele>486.0</ele><time>2026-05-02T09:50:30Z</time></trkpt><trkpt lat="42.27653856340575" lon="13.761749201647747"><ele>486.0</ele><time>2026-05-02T09:50:31Z</time></trkpt><trkpt lat="42.27645989502163" lon="13.761696184903226"><ele>486.0</ele><time>2026-05-02T09:50:32Z</time></trkpt><trkpt lat="42.27637588219507" lon="13.76163334350191"><ele>486.0</ele><time>2026-05-02T09:50:32.999Z</time></trkpt><trkpt lat="42.276290182384315" lon="13.76157740583131"><ele>486.0</ele><time>2026-05-02T09:50:33.999Z</time></trkpt><trkpt lat="42.276196548158914" lon="13.761542223550586"><ele>488.6</ele><time>2026-05-02T09:50:34.999Z</time></trkpt><trkpt lat="42.27610710047871" lon="13.761511156848153"><ele>491.20000000000005</ele><time>2026-05-02T09:50:35.999Z</time></trkpt><trkpt lat="42.27601660328044" lon="13.761458383735615"><ele>493.79999999999995</ele><time>2026-05-02T09:50:36.999Z</time></trkpt><trkpt lat="42.2759272283134" lon="13.76138778061325"><ele>496.4</ele><time>2026-05-02T09:50:37.999Z</time></trkpt><trkpt lat="42.27584252326456" lon="13.76131015056719"><ele>499.0</ele><time>2026-05-02T09:50:38.999Z</time></trkpt><trkpt lat="42.27577012005292" lon="13.76123212658008"><ele>499.0</ele><time>2026-05-02T09:50:39.999Z</time></trkpt><trkpt lat="42.27569608988873" lon="13.761164045356804"><ele>499.0</ele><time>2026-05-02T09:50:40.999Z</time></trkpt><trkpt lat="42.27560615861148" lon="13.761100969516585"><ele>499.0</ele><time>2026-05-02T09:50:41.999Z</time></trkpt><trkpt lat="42.27550484883582" lon="13.761044356286579"><ele>499.0</ele><time>2026-05-02T09:50:42.999Z</time></trkpt><trkpt lat="42.27540214476102" lon="13.760970500179265"><ele>499.0</ele><time>2026-05-02T09:50:43.999Z</time></trkpt><trkpt lat="42.27528933046481" lon="13.760896929476514"><ele>499.79999999999995</ele><time>2026-05-02T09:50:44.999Z</time></trkpt><trkpt lat="42.275169669506894" lon="13.760827076974666"><ele>500.59999999999997</ele><time>2026-05-02T09:50:45.999Z</time></trkpt><trkpt lat="42.275070821416264" lon="13.760759858000057"><ele>501.4</ele><time>2026-05-02T09:50:46.999Z</time></trkpt><trkpt lat="42.27497388199818" lon="13.760703781248118"><ele>502.2</ele><time>2026-05-02T09:50:47.999Z</time></trkpt><trkpt lat="42.27487819056292" lon="13.760652748958863"><ele>503.0</ele><time>2026-05-02T09:50:48.999Z</time></trkpt><trkpt lat="42.27479349140318" lon="13.760595327624213"><ele>502.99999999999994</ele><time>2026-05-02T09:50:49.999Z</time></trkpt><trkpt lat="42.2747341930541" lon="13.760562518873897"><ele>503.0</ele><time>2026-05-02T09:50:50.999Z</time></trkpt><trkpt lat="42.27466896645756" lon="13.760507025030016"><ele>503.0</ele><time>2026-05-02T09:50:52.999Z</time></trkpt><trkpt lat="42.274712881634386" lon="13.760425503348905"><ele>503.0</ele><time>2026-05-02T09:50:56.999Z</time></trkpt><trkpt lat="42.27477655646507" lon="13.760345394347222"><ele>502.99999999999994</ele><time>2026-05-02T09:51:03.999Z</time></trkpt><trkpt lat="42.274830820067024" lon="13.76027346143868"><ele>503.0</ele><time>2026-05-02T09:51:04.999Z</time></trkpt><trkpt lat="42.274896830391086" lon="13.76019449844551"><ele>503.0</ele><time>2026-05-02T09:51:05.999Z</time></trkpt><trkpt lat="42.27497251978757" lon="13.760102198039352"><ele>503.0</ele><time>2026-05-02T09:51:06.999Z</time></trkpt><trkpt lat="42.275049336868626" lon="13.759988928880848"><ele>503.0</ele><time>2026-05-02T09:51:07.999Z</time></trkpt><trkpt lat="42.275130165439066" lon="13.759862490584204"><ele>503.0</ele><time>2026-05-02T09:51:08.999Z</time></trkpt><trkpt lat="42.27521449147863" lon="13.759726226290939"><ele>503.0</ele><time>2026-05-02T09:51:09.999Z</time></trkpt><trkpt lat="42.275308723819016" lon="13.75957716163126"><ele>503.0</ele><time>2026-05-02T09:51:10.999Z</time></trkpt><trkpt lat="42.27541421837132" lon="13.759459535373109"><ele>503.0</ele><time>2026-05-02T09:51:11.999Z</time></trkpt><trkpt lat="42.275494921957716" lon="13.759276196972577"><ele>503.0</ele><time>2026-05-02T09:51:12.999Z</time></trkpt><trkpt lat="42.27558758192294" lon="13.759132148752421"><ele>500.59999999999997</ele><time>2026-05-02T09:51:13.999Z</time></trkpt><trkpt lat="42.27567376065873" lon="13.759002813374417"><ele>498.19999999999993</ele><time>2026-05-02T09:51:14.999Z</time></trkpt><trkpt lat="42.275748077572736" lon="13.758900210009873"><ele>495.8</ele><time>2026-05-02T09:51:15.999Z</time></trkpt><trkpt lat="42.27581413517397" lon="13.75882178046195"><ele>493.4</ele><time>2026-05-02T09:51:16.999Z</time></trkpt><trkpt lat="42.27586510022527" lon="13.758762062451858"><ele>491.0</ele><time>2026-05-02T09:51:17.999Z</time></trkpt><trkpt lat="42.27593184756912" lon="13.75867900225386"><ele>491.0</ele><time>2026-05-02T09:51:19.999Z</time></trkpt><trkpt lat="42.275866357009264" lon="13.758627791001874"><ele>491.0</ele><time>2026-05-02T09:51:22.999Z</time></trkpt><trkpt lat="42.27576879199146" lon="13.758659055012625"><ele>491.0</ele><time>2026-05-02T09:51:25.999Z</time></trkpt><trkpt lat="42.27565992414427" lon="13.758670931947691"><ele>491.0</ele><time>2026-05-02T09:51:27.999Z</time></trkpt><trkpt lat="42.27554420487878" lon="13.758695045111997"><ele>491.0</ele><time>2026-05-02T09:51:29.999Z</time></trkpt><trkpt lat="42.27542956197364" lon="13.75873135246205"><ele>494.75</ele><time>2026-05-02T09:51:31.999Z</time></trkpt><trkpt lat="42.27532052398673" lon="13.758760419070667"><ele>498.5</ele><time>2026-05-02T09:51:33.999Z</time></trkpt><trkpt lat="42.27520646468562" lon="13.758783232986456"><ele>502.25</ele><time>2026-05-02T09:51:35.999Z</time></trkpt><trkpt lat="42.27508075373927" lon="13.758808031667458"><ele>506.0</ele><time>2026-05-02T09:51:37.999Z</time></trkpt><trkpt lat="42.27494896737751" lon="13.758844300280616"><ele>506.00000000000006</ele><time>2026-05-02T09:51:39.999Z</time></trkpt><trkpt lat="42.27488053251678" lon="13.75885931018971"><ele>506.0</ele><time>2026-05-02T09:51:40.999Z</time></trkpt><trkpt lat="42.2748094995069" lon="13.758859803580108"><ele>506.00000000000006</ele><time>2026-05-02T09:51:41.999Z</time></trkpt><trkpt lat="42.274745507231664" lon="13.758870063556627"><ele>506.00000000000006</ele><time>2026-05-02T09:51:43Z</time></trkpt><trkpt lat="42.27467960490122" lon="13.758885881685474"><ele>506.0</ele><time>2026-05-02T09:51:44Z</time></trkpt><trkpt lat="42.274609741913224" lon="13.758901327411447"><ele>506.00000000000006</ele><time>2026-05-02T09:51:45Z</time></trkpt><trkpt lat="42.27453941575488" lon="13.758927201550616"><ele>506.00000000000006</ele><time>2026-05-02T09:51:46Z</time></trkpt><trkpt lat="42.27444706255448" lon="13.758953130717645"><ele>507.49999999999994</ele><time>2026-05-02T09:51:48Z</time></trkpt><trkpt lat="42.27439100288935" lon="13.759011209124342"><ele>509.0</ele><time>2026-05-02T09:52:15Z</time></trkpt><trkpt lat="42.27432444766226" lon="13.759071117321955"><ele>510.5</ele><time>2026-05-02T09:52:17Z</time></trkpt><trkpt lat="42.274218212396896" lon="13.759025900685652"><ele>512.0</ele><time>2026-05-02T09:52:19Z</time></trkpt><trkpt lat="42.27412733274658" lon="13.759034531903055"><ele>513.5</ele><time>2026-05-02T09:52:22Z</time></trkpt><trkpt lat="42.27405142459925" lon="13.759100304066173"><ele>515.0</ele><time>2026-05-02T09:52:24Z</time></trkpt><trkpt lat="42.27397363761131" lon="13.75916803893883"><ele>515.0</ele><time>2026-05-02T09:52:26Z</time></trkpt><trkpt lat="42.27395489769515" lon="13.759302738344662"><ele>515.0</ele><time>2026-05-02T09:52:28Z</time></trkpt><trkpt lat="42.27393806603189" lon="13.759415985274707"><ele>515.0</ele><time>2026-05-02T09:52:30Z</time></trkpt><trkpt lat="42.27390170946346" lon="13.759495068865691"><ele>515.0</ele><time>2026-05-02T09:52:31.999Z</time></trkpt><trkpt lat="42.273854238655225" lon="13.759598525744838"><ele>515.0</ele><time>2026-05-02T09:52:45.999Z</time></trkpt><trkpt lat="42.27378497220177" lon="13.759730646316918"><ele>516.8</ele><time>2026-05-02T09:52:47.999Z</time></trkpt><trkpt lat="42.273702822419104" lon="13.75977697747937"><ele>518.6</ele><time>2026-05-02T09:52:49.999Z</time></trkpt><trkpt lat="42.27361991090204" lon="13.759806498810251"><ele>520.4</ele><time>2026-05-02T09:52:51.999Z</time></trkpt><trkpt lat="42.27354122364187" lon="13.759778727077402"><ele>522.2</ele><time>2026-05-02T09:52:53.999Z</time></trkpt><trkpt lat="42.27342975558946" lon="13.759717239408578"><ele>524.0</ele><time>2026-05-02T09:52:55.999Z</time></trkpt><trkpt lat="42.27335297665249" lon="13.759718953657918"><ele>524.0</ele><time>2026-05-02T09:52:56.999Z</time></trkpt><trkpt lat="42.27327411783394" lon="13.75973622341937"><ele>524.0</ele><time>2026-05-02T09:52:57.999Z</time></trkpt><trkpt lat="42.27320355278653" lon="13.759765381555606"><ele>524.0</ele><time>2026-05-02T09:52:58.999Z</time></trkpt><trkpt lat="42.273130629025154" lon="13.75978320711043"><ele>524.0</ele><time>2026-05-02T09:52:59.999Z</time></trkpt><trkpt lat="42.273058640141265" lon="13.759791898469214"><ele>524.0</ele><time>2026-05-02T09:53:00.999Z</time></trkpt><trkpt lat="42.272990050684" lon="13.759806712276168"><ele>524.0</ele><time>2026-05-02T09:53:01.999Z</time></trkpt><trkpt lat="42.27291363132191" lon="13.759807075557738"><ele>524.0</ele><time>2026-05-02T09:53:02.999Z</time></trkpt><trkpt lat="42.272837438108084" lon="13.759786701958697"><ele>524.6</ele><time>2026-05-02T09:53:03.999Z</time></trkpt><trkpt lat="42.27275685613843" lon="13.759756816837175"><ele>525.2</ele><time>2026-05-02T09:53:04.999Z</time></trkpt><trkpt lat="42.272673965090185" lon="13.759718635372554"><ele>525.8000000000001</ele><time>2026-05-02T09:53:05.999Z</time></trkpt><trkpt lat="42.27257723718811" lon="13.759679870744268"><ele>526.4</ele><time>2026-05-02T09:53:06.999Z</time></trkpt><trkpt lat="42.27247790560052" lon="13.759639699228652"><ele>527.0</ele><time>2026-05-02T09:53:07.999Z</time></trkpt><trkpt lat="42.27238177594638" lon="13.759586560854006"><ele>527.0</ele><time>2026-05-02T09:53:08.999Z</time></trkpt><trkpt lat="42.2722815436482" lon="13.759541468186386"><ele>527.0</ele><time>2026-05-02T09:53:09.999Z</time></trkpt><trkpt lat="42.272186173424316" lon="13.759495326606944"><ele>527.0</ele><time>2026-05-02T09:53:10.999Z</time></trkpt><trkpt lat="42.27209633760808" lon="13.759451170022055"><ele>527.0</ele><time>2026-05-02T09:53:11.999Z</time></trkpt><trkpt lat="42.27202013484162" lon="13.75937653294684"><ele>527.0</ele><time>2026-05-02T09:53:12.999Z</time></trkpt><trkpt lat="42.27195312278456" lon="13.759281531991538"><ele>528.2</ele><time>2026-05-02T09:53:13.999Z</time></trkpt><trkpt lat="42.271924434289005" lon="13.759160517438668"><ele>529.4000000000001</ele><time>2026-05-02T09:53:14.999Z</time></trkpt><trkpt lat="42.27190110255319" lon="13.759031642162123"><ele>530.5999999999999</ele><time>2026-05-02T09:53:15.999Z</time></trkpt><trkpt lat="42.27184583579251" lon="13.758932214215104"><ele>531.8</ele><time>2026-05-02T09:53:16.999Z</time></trkpt><trkpt lat="42.271768323160025" lon="13.758873878275281"><ele>533.0</ele><time>2026-05-02T09:53:17.999Z</time></trkpt><trkpt lat="42.27168825092204" lon="13.75884045991203"><ele>533.0</ele><time>2026-05-02T09:53:18.999Z</time></trkpt><trkpt lat="42.2716126778478" lon="13.75880599305304"><ele>533.0</ele><time>2026-05-02T09:53:19.999Z</time></trkpt><trkpt lat="42.27152955009609" lon="13.758771272281578"><ele>533.0</ele><time>2026-05-02T09:53:20.999Z</time></trkpt><trkpt lat="42.271444811478126" lon="13.75875239267381"><ele>533.0</ele><time>2026-05-02T09:53:21.999Z</time></trkpt><trkpt lat="42.27136325853152" lon="13.758740844148647"><ele>533.0</ele><time>2026-05-02T09:53:22.999Z</time></trkpt><trkpt lat="42.271275723708534" lon="13.758728482413945"><ele>533.0</ele><time>2026-05-02T09:53:23.999Z</time></trkpt><trkpt lat="42.27117068647592" lon="13.75872103286483"><ele>532.5</ele><time>2026-05-02T09:53:24.999Z</time></trkpt><trkpt lat="42.27106375957663" lon="13.758710299355501"><ele>532.0</ele><time>2026-05-02T09:53:25.999Z</time></trkpt><trkpt lat="42.27094086867836" lon="13.758707238649016"><ele>531.5</ele><time>2026-05-02T09:53:26.999Z</time></trkpt><trkpt lat="42.270815761490425" lon="13.758709051519768"><ele>531.0</ele><time>2026-05-02T09:53:27.999Z</time></trkpt><trkpt lat="42.27068596054635" lon="13.758707854218388"><ele>531.25</ele><time>2026-05-02T09:53:28.999Z</time></trkpt><trkpt lat="42.27056475997179" lon="13.75873590181594"><ele>531.5</ele><time>2026-05-02T09:53:29.999Z</time></trkpt><trkpt lat="42.27044115589025" lon="13.758737154990452"><ele>531.75</ele><time>2026-05-02T09:53:30.999Z</time></trkpt><trkpt lat="42.270316312121906" lon="13.758751257103588"><ele>532.0</ele><time>2026-05-02T09:53:31.999Z</time></trkpt><trkpt lat="42.270193005851894" lon="13.758775336439367"><ele>532.0</ele><time>2026-05-02T09:53:32.999Z</time></trkpt><trkpt lat="42.27007290276888" lon="13.758810949650703"><ele>532.0</ele><time>2026-05-02T09:53:33.999Z</time></trkpt><trkpt lat="42.269956230550605" lon="13.75883971569045"><ele>532.0</ele><time>2026-05-02T09:53:34.999Z</time></trkpt><trkpt lat="42.269840632013086" lon="13.758883529576691"><ele>532.0</ele><time>2026-05-02T09:53:35.999Z</time></trkpt><trkpt lat="42.269723909992166" lon="13.758937887306203"><ele>532.25</ele><time>2026-05-02T09:53:36.999Z</time></trkpt><trkpt lat="42.269610210449024" lon="13.759010422956242"><ele>532.5</ele><time>2026-05-02T09:53:37.999Z</time></trkpt><trkpt lat="42.2694962954267" lon="13.759072531113155"><ele>532.75</ele><time>2026-05-02T09:53:38.999Z</time></trkpt><trkpt lat="42.26939468784272" lon="13.759130090977157"><ele>533.0</ele><time>2026-05-02T09:53:39.999Z</time></trkpt><trkpt lat="42.26930201598235" lon="13.759166939520718"><ele>533.0</ele><time>2026-05-02T09:53:40.999Z</time></trkpt><trkpt lat="42.26921359296503" lon="13.759202778439453"><ele>533.0</ele><time>2026-05-02T09:53:41.999Z</time></trkpt><trkpt lat="42.26914269731343" lon="13.759232367514702"><ele>533.0</ele><time>2026-05-02T09:53:42.999Z</time></trkpt><trkpt lat="42.269082287221174" lon="13.759259855996694"><ele>533.0</ele><time>2026-05-02T09:53:43.999Z</time></trkpt><trkpt lat="42.26902512496204" lon="13.759302090825912"><ele>533.0</ele><time>2026-05-02T09:53:44.999Z</time></trkpt><trkpt lat="42.26898810353425" lon="13.759380889800823"><ele>533.0</ele><time>2026-05-02T09:53:45.999Z</time></trkpt><trkpt lat="42.26897172815821" lon="13.75949043050816"><ele>533.0</ele><time>2026-05-02T09:53:46.999Z</time></trkpt><trkpt lat="42.26896035792835" lon="13.759597960988332"><ele>534.0</ele><time>2026-05-02T09:53:47.999Z</time></trkpt><trkpt lat="42.268920672804235" lon="13.759717807475534"><ele>535.0</ele><time>2026-05-02T09:53:50Z</time></trkpt><trkpt lat="42.26886003596161" lon="13.75986872639392"><ele>536.0</ele><time>2026-05-02T09:53:52Z</time></trkpt><trkpt lat="42.26883583231102" lon="13.759970909155227"><ele>537.0</ele><time>2026-05-02T09:53:53Z</time></trkpt><trkpt lat="42.26881122423167" lon="13.760070087670833"><ele>538.0</ele><time>2026-05-02T09:53:54Z</time></trkpt><trkpt lat="42.268789138629565" lon="13.760161828478887"><ele>537.75</ele><time>2026-05-02T09:53:55Z</time></trkpt><trkpt lat="42.268748247268476" lon="13.760313014034676"><ele>537.5</ele><time>2026-05-02T09:53:57Z</time></trkpt><trkpt lat="42.268697608239236" lon="13.760458962993207"><ele>537.25</ele><time>2026-05-02T09:53:59Z</time></trkpt><trkpt lat="42.26865716859127" lon="13.760600545749693"><ele>537.0</ele><time>2026-05-02T09:54:01Z</time></trkpt><trkpt lat="42.268619445201836" lon="13.760743902251125"><ele>537.0</ele><time>2026-05-02T09:54:03Z</time></trkpt><trkpt lat="42.26857032396362" lon="13.760894506868249"><ele>537.0</ele><time>2026-05-02T09:54:05Z</time></trkpt><trkpt lat="42.26854925084443" lon="13.760984755421097"><ele>537.0</ele><time>2026-05-02T09:54:06Z</time></trkpt><trkpt lat="42.26852634580525" lon="13.761082450987148"><ele>537.0</ele><time>2026-05-02T09:54:07Z</time></trkpt><trkpt lat="42.26849925521454" lon="13.761178133627306"><ele>537.0</ele><time>2026-05-02T09:54:08Z</time></trkpt><trkpt lat="42.26847345384207" lon="13.761260910621441"><ele>537.0</ele><time>2026-05-02T09:54:09Z</time></trkpt><trkpt lat="42.268441464315316" lon="13.761340994431684"><ele>535.3333333333334</ele><time>2026-05-02T09:54:10Z</time></trkpt><trkpt lat="42.268390642549775" lon="13.761472897231751"><ele>533.6666666666666</ele><time>2026-05-02T09:54:12Z</time></trkpt><trkpt lat="42.268347493551595" lon="13.761560775983021"><ele>532.0</ele><time>2026-05-02T09:54:14Z</time></trkpt><trkpt lat="42.268313452647355" lon="13.761643078609536"><ele>530.3333333333333</ele><time>2026-05-02T09:54:16Z</time></trkpt><trkpt lat="42.268263365907444" lon="13.761697605339828"><ele>528.6666666666666</ele><time>2026-05-02T09:54:18Z</time></trkpt><trkpt lat="42.26827064663749" lon="13.761784445564851"><ele>527.0</ele><time>2026-05-02T09:54:22Z</time></trkpt><trkpt lat="42.26834345808561" lon="13.761654786391096"><ele>527.0</ele><time>2026-05-02T09:54:25Z</time></trkpt><trkpt lat="42.26836716072331" lon="13.761555942561492"><ele>527.0</ele><time>2026-05-02T09:54:26Z</time></trkpt><trkpt lat="42.268408963209446" lon="13.761467582683746"><ele>527.0</ele><time>2026-05-02T09:54:27Z</time></trkpt><trkpt lat="42.26844921937386" lon="13.761365780943777"><ele>527.0</ele><time>2026-05-02T09:54:28Z</time></trkpt><trkpt lat="42.268484997018874" lon="13.761262571798438"><ele>527.0</ele><time>2026-05-02T09:54:29Z</time></trkpt><trkpt lat="42.26851497194317" lon="13.761166685992498"><ele>527.0</ele><time>2026-05-02T09:54:30Z</time></trkpt><trkpt lat="42.26853982048522" lon="13.761065105895403"><ele>528.6666666666666</ele><time>2026-05-02T09:54:31Z</time></trkpt><trkpt lat="42.26856719592775" lon="13.760956393355077"><ele>530.3333333333333</ele><time>2026-05-02T09:54:31.999Z</time></trkpt><trkpt lat="42.26859463753659" lon="13.760865130010385"><ele>532.0</ele><time>2026-05-02T09:54:32.999Z</time></trkpt><trkpt lat="42.26862522269594" lon="13.760769002659737"><ele>533.6666666666666</ele><time>2026-05-02T09:54:33.999Z</time></trkpt><trkpt lat="42.268654200239204" lon="13.760671768356033"><ele>535.3333333333334</ele><time>2026-05-02T09:54:34.999Z</time></trkpt><trkpt lat="42.26868368689722" lon="13.760569812801162"><ele>537.0</ele><time>2026-05-02T09:54:35.999Z</time></trkpt><trkpt lat="42.26870791781724" lon="13.760489014502163"><ele>537.0</ele><time>2026-05-02T09:54:36.999Z</time></trkpt><trkpt lat="42.26874146824869" lon="13.76036746405527"><ele>537.0</ele><time>2026-05-02T09:54:38.999Z</time></trkpt><trkpt lat="42.26877802166578" lon="13.760242483474364"><ele>537.0</ele><time>2026-05-02T09:54:40.999Z</time></trkpt><trkpt lat="42.26880063681497" lon="13.760152031352616"><ele>537.0</ele><time>2026-05-02T09:54:41.999Z</time></trkpt><trkpt lat="42.268825189600356" lon="13.760040156597812"><ele>537.0</ele><time>2026-05-02T09:54:42.999Z</time></trkpt><trkpt lat="42.26885463258886" lon="13.759912251961916"><ele>537.1666666666666</ele><time>2026-05-02T09:54:43.999Z</time></trkpt><trkpt lat="42.26888575733595" lon="13.759785975826304"><ele>537.3333333333334</ele><time>2026-05-02T09:54:44.999Z</time></trkpt><trkpt lat="42.26891191735992" lon="13.759677583142224"><ele>537.5</ele><time>2026-05-02T09:54:45.999Z</time></trkpt><trkpt lat="42.268916205957076" lon="13.759572535973978"><ele>537.6666666666667</ele><time>2026-05-02T09:54:46.999Z</time></trkpt><trkpt lat="42.26888728912395" lon="13.75947780523117"><ele>537.8333333333334</ele><time>2026-05-02T09:54:47.999Z</time></trkpt><trkpt lat="42.26883024346945" lon="13.759409184798859"><ele>538.0</ele><time>2026-05-02T09:54:48.999Z</time></trkpt><trkpt lat="42.26876664597188" lon="13.75937557079127"><ele>538.0</ele><time>2026-05-02T09:54:49.999Z</time></trkpt><trkpt lat="42.26867538143217" lon="13.759421444599726"><ele>538.0</ele><time>2026-05-02T09:54:51.999Z</time></trkpt><trkpt lat="42.268617809938554" lon="13.759553867286478"><ele>538.0</ele><time>2026-05-02T09:54:53.999Z</time></trkpt><trkpt lat="42.26858212407895" lon="13.75963690093926"><ele>538.0</ele><time>2026-05-02T09:54:54.999Z</time></trkpt><trkpt lat="42.26854672964442" lon="13.759722036859133"><ele>538.0</ele><time>2026-05-02T09:54:55.999Z</time></trkpt><trkpt lat="42.268512250449206" lon="13.759813240257463"><ele>538.0</ele><time>2026-05-02T09:54:56.999Z</time></trkpt><trkpt lat="42.26847350432774" lon="13.759893338997616"><ele>538.0</ele><time>2026-05-02T09:54:57.999Z</time></trkpt><trkpt lat="42.26843151951619" lon="13.759957141330572"><ele>538.0</ele><time>2026-05-02T09:54:58.999Z</time></trkpt><trkpt lat="42.26838923593334" lon="13.760038105341337"><ele>538.0</ele><time>2026-05-02T09:54:59.999Z</time></trkpt><trkpt lat="42.26834427993317" lon="13.760132395806266"><ele>538.0</ele><time>2026-05-02T09:55:00.999Z</time></trkpt><trkpt lat="42.26828194883724" lon="13.760230104780762"><ele>538.0</ele><time>2026-05-02T09:55:01.999Z</time></trkpt><trkpt lat="42.268215669851976" lon="13.76031879083346"><ele>538.0</ele><time>2026-05-02T09:55:02.999Z</time></trkpt><trkpt lat="42.2681477691685" lon="13.760396063347546"><ele>538.6666666666667</ele><time>2026-05-02T09:55:03.999Z</time></trkpt><trkpt lat="42.268089561820496" lon="13.76047061866015"><ele>539.3333333333334</ele><time>2026-05-02T09:55:04.999Z</time></trkpt><trkpt lat="42.268016300489045" lon="13.760554309508503"><ele>540.0</ele><time>2026-05-02T09:55:05.999Z</time></trkpt><trkpt lat="42.267952756349274" lon="13.7606437627226"><ele>540.6666666666666</ele><time>2026-05-02T09:55:06.999Z</time></trkpt><trkpt lat="42.267898177413265" lon="13.760716618394197"><ele>541.3333333333333</ele><time>2026-05-02T09:55:07.999Z</time></trkpt><trkpt lat="42.267847902582766" lon="13.760781045035488"><ele>542.0</ele><time>2026-05-02T09:55:08.999Z</time></trkpt><trkpt lat="42.267798417749795" lon="13.760848224002562"><ele>542.0</ele><time>2026-05-02T09:55:09.999Z</time></trkpt><trkpt lat="42.267737878299386" lon="13.760925469432127"><ele>542.0</ele><time>2026-05-02T09:55:10.999Z</time></trkpt><trkpt lat="42.2676776829671" lon="13.761001379556953"><ele>542.0</ele><time>2026-05-02T09:55:11.999Z</time></trkpt><trkpt lat="42.26762756128959" lon="13.7610804077563"><ele>542.0</ele><time>2026-05-02T09:55:12.999Z</time></trkpt><trkpt lat="42.26758071694212" lon="13.76114285460571"><ele>542.0</ele><time>2026-05-02T09:55:13.999Z</time></trkpt><trkpt lat="42.26753862460651" lon="13.76122592533602"><ele>542.0</ele><time>2026-05-02T09:55:14.999Z</time></trkpt><trkpt lat="42.267498906121986" lon="13.761302208170463"><ele>541.8571428571429</ele><time>2026-05-02T09:55:15.999Z</time></trkpt><trkpt lat="42.26746087687457" lon="13.76138589496017"><ele>541.7142857142858</ele><time>2026-05-02T09:55:16.999Z</time></trkpt><trkpt lat="42.267418477295905" lon="13.761458870024404"><ele>541.5714285714287</ele><time>2026-05-02T09:55:17.999Z</time></trkpt><trkpt lat="42.2673743105069" lon="13.761522095942313"><ele>541.4285714285714</ele><time>2026-05-02T09:55:18.999Z</time></trkpt><trkpt lat="42.26731805341301" lon="13.761583121537836"><ele>541.2857142857143</ele><time>2026-05-02T09:55:19.999Z</time></trkpt><trkpt lat="42.26725215985367" lon="13.76163690310656"><ele>541.1428571428572</ele><time>2026-05-02T09:55:20.999Z</time></trkpt><trkpt lat="42.267181580297354" lon="13.76167380126581"><ele>541.0</ele><time>2026-05-02T09:55:21.999Z</time></trkpt><trkpt lat="42.26709007403485" lon="13.761745276370393"><ele>540.8333333333334</ele><time>2026-05-02T09:55:23.999Z</time></trkpt><trkpt lat="42.2670357022583" lon="13.761790400564722"><ele>540.6666666666667</ele><time>2026-05-02T09:55:25.999Z</time></trkpt><trkpt lat="42.26696156648623" lon="13.76187225433306"><ele>540.5</ele><time>2026-05-02T09:55:42.999Z</time></trkpt><trkpt lat="42.26692057023353" lon="13.761936993167941"><ele>540.3333333333334</ele><time>2026-05-02T09:55:43.999Z</time></trkpt><trkpt lat="42.26689012512598" lon="13.762030971095223"><ele>540.1666666666666</ele><time>2026-05-02T09:55:44.999Z</time></trkpt><trkpt lat="42.2668500670935" lon="13.762133263737647"><ele>540.0</ele><time>2026-05-02T09:55:45.999Z</time></trkpt><trkpt lat="42.266797562626955" lon="13.762252636260143"><ele>541.6</ele><time>2026-05-02T09:55:46.999Z</time></trkpt><trkpt lat="42.26673582282281" lon="13.76238183700751"><ele>543.2</ele><time>2026-05-02T09:55:47.999Z</time></trkpt><trkpt lat="42.266671175437786" lon="13.762500393258962"><ele>544.8</ele><time>2026-05-02T09:55:48.999Z</time></trkpt><trkpt lat="42.26659091041471" lon="13.762604701839715"><ele>546.4</ele><time>2026-05-02T09:55:49.999Z</time></trkpt><trkpt lat="42.26649547850144" lon="13.762680611860576"><ele>548.0</ele><time>2026-05-02T09:55:50.999Z</time></trkpt><trkpt lat="42.266407361443434" lon="13.762751012287678"><ele>549.4</ele><time>2026-05-02T09:55:51.999Z</time></trkpt><trkpt lat="42.26634057811787" lon="13.762860116300255"><ele>550.8</ele><time>2026-05-02T09:55:52.999Z</time></trkpt><trkpt lat="42.26626215108307" lon="13.762970894633396"><ele>552.2</ele><time>2026-05-02T09:55:53.999Z</time></trkpt><trkpt lat="42.266180990520354" lon="13.763053033708692"><ele>553.6</ele><time>2026-05-02T09:55:55Z</time></trkpt><trkpt lat="42.26609658402377" lon="13.763120482923886"><ele>555.0</ele><time>2026-05-02T09:55:56Z</time></trkpt><trkpt lat="42.2659346813217" lon="13.763122922527515"><ele>555.0</ele><time>2026-05-02T09:55:57Z</time></trkpt><trkpt lat="42.26580927772114" lon="13.763148088825655"><ele>555.0</ele><time>2026-05-02T09:55:58Z</time></trkpt><trkpt lat="42.26568762945242" lon="13.763169820811267"><ele>555.0</ele><time>2026-05-02T09:55:59Z</time></trkpt><trkpt lat="42.26556753573858" lon="13.76321581540307"><ele>555.0</ele><time>2026-05-02T09:56:00Z</time></trkpt><trkpt lat="42.26546063075106" lon="13.763295311176577"><ele>557.0</ele><time>2026-05-02T09:56:01Z</time></trkpt><trkpt lat="42.265351770609044" lon="13.76337790366798"><ele>559.0</ele><time>2026-05-02T09:56:02Z</time></trkpt><trkpt lat="42.265234896161665" lon="13.763420166635369"><ele>561.0</ele><time>2026-05-02T09:56:03Z</time></trkpt><trkpt lat="42.2651117527647" lon="13.763415339143618"><ele>563.0</ele><time>2026-05-02T09:56:04Z</time></trkpt><trkpt lat="42.26498643054991" lon="13.763382339457483"><ele>563.0</ele><time>2026-05-02T09:56:05Z</time></trkpt><trkpt lat="42.264855993619776" lon="13.76334957835421"><ele>563.0</ele><time>2026-05-02T09:56:06Z</time></trkpt><trkpt lat="42.26473597001138" lon="13.763332569319605"><ele>563.0</ele><time>2026-05-02T09:56:07Z</time></trkpt><trkpt lat="42.26461741570569" lon="13.76333689444366"><ele>563.0</ele><time>2026-05-02T09:56:08Z</time></trkpt><trkpt lat="42.26449773959293" lon="13.76336624594217"><ele>563.25</ele><time>2026-05-02T09:56:09Z</time></trkpt><trkpt lat="42.26438001426879" lon="13.7634271910546"><ele>563.5</ele><time>2026-05-02T09:56:10Z</time></trkpt><trkpt lat="42.26425415375888" lon="13.763503058961792"><ele>563.75</ele><time>2026-05-02T09:56:11Z</time></trkpt><trkpt lat="42.2641217660822" lon="13.763575757705675"><ele>564.0</ele><time>2026-05-02T09:56:12Z</time></trkpt><trkpt lat="42.263990014791375" lon="13.76365246810186"><ele>567.25</ele><time>2026-05-02T09:56:13Z</time></trkpt><trkpt lat="42.26386265765273" lon="13.76373832341343"><ele>570.5</ele><time>2026-05-02T09:56:14Z</time></trkpt><trkpt lat="42.263742509980716" lon="13.76384408267177"><ele>573.75</ele><time>2026-05-02T09:56:15Z</time></trkpt><trkpt lat="42.26362553554443" lon="13.763954801910403"><ele>577.0</ele><time>2026-05-02T09:56:16Z</time></trkpt><trkpt lat="42.26349255712586" lon="13.76405858442854"><ele>577.0</ele><time>2026-05-02T09:56:17Z</time></trkpt><trkpt lat="42.26334317897353" lon="13.764159819101629"><ele>577.0</ele><time>2026-05-02T09:56:18Z</time></trkpt><trkpt lat="42.263203422740844" lon="13.764258396935812"><ele>577.0</ele><time>2026-05-02T09:56:19Z</time></trkpt><trkpt lat="42.263061153366195" lon="13.764351550224688"><ele>580.75</ele><time>2026-05-02T09:56:20Z</time></trkpt><trkpt lat="42.26292287399264" lon="13.764448042248482"><ele>584.5</ele><time>2026-05-02T09:56:21Z</time></trkpt><trkpt lat="42.26279253852488" lon="13.764535363575868"><ele>588.25</ele><time>2026-05-02T09:56:22Z</time></trkpt><trkpt lat="42.262671257385456" lon="13.764600025058122"><ele>592.0</ele><time>2026-05-02T09:56:23Z</time></trkpt><trkpt lat="42.26254140359725" lon="13.764635328405321"><ele>592.0</ele><time>2026-05-02T09:56:24Z</time></trkpt><trkpt lat="42.2623991829378" lon="13.764650734913326"><ele>592.0</ele><time>2026-05-02T09:56:25Z</time></trkpt><trkpt lat="42.26225767697307" lon="13.76467059643464"><ele>592.0</ele><time>2026-05-02T09:56:26Z</time></trkpt><trkpt lat="42.26211546139079" lon="13.764718129959473"><ele>592.0</ele><time>2026-05-02T09:56:27Z</time></trkpt><trkpt lat="42.261970171564776" lon="13.764781096117797"><ele>592.3333333333334</ele><time>2026-05-02T09:56:28Z</time></trkpt><trkpt lat="42.261827470699885" lon="13.764846772987372"><ele>592.6666666666666</ele><time>2026-05-02T09:56:29Z</time></trkpt><trkpt lat="42.2616813682314" lon="13.764909124953535"><ele>593.0</ele><time>2026-05-02T09:56:30Z</time></trkpt><trkpt lat="42.261534081674284" lon="13.764951856917671"><ele>591.5</ele><time>2026-05-02T09:56:31Z</time></trkpt><trkpt lat="42.2613863153062" lon="13.764983627929384"><ele>590.0</ele><time>2026-05-02T09:56:31.999Z</time></trkpt><trkpt lat="42.26124307623313" lon="13.765018929260803"><ele>588.5</ele><time>2026-05-02T09:56:32.999Z</time></trkpt><trkpt lat="42.26109404565726" lon="13.765055428582926"><ele>587.0</ele><time>2026-05-02T09:56:33.999Z</time></trkpt><trkpt lat="42.2609499636891" lon="13.765096971156403"><ele>587.0</ele><time>2026-05-02T09:56:34.999Z</time></trkpt><trkpt lat="42.26081205613676" lon="13.765135584814283"><ele>587.0</ele><time>2026-05-02T09:56:35.999Z</time></trkpt><trkpt lat="42.260673594151534" lon="13.765187218707128"><ele>587.0</ele><time>2026-05-02T09:56:36.999Z</time></trkpt><trkpt lat="42.26053678802834" lon="13.765247969891368"><ele>587.0</ele><time>2026-05-02T09:56:37.999Z</time></trkpt><trkpt lat="42.26040111473458" lon="13.765305805353409"><ele>593.0</ele><time>2026-05-02T09:56:38.999Z</time></trkpt><trkpt lat="42.26027085118852" lon="13.765353894659341"><ele>599.0</ele><time>2026-05-02T09:56:39.999Z</time></trkpt><trkpt lat="42.260139870178186" lon="13.765409470965519"><ele>605.0</ele><time>2026-05-02T09:56:40.999Z</time></trkpt><trkpt lat="42.26001528076351" lon="13.765469600309437"><ele>611.0</ele><time>2026-05-02T09:56:41.999Z</time></trkpt><trkpt lat="42.25989703054564" lon="13.765527773002832"><ele>611.0</ele><time>2026-05-02T09:56:42.999Z</time></trkpt><trkpt lat="42.259792696486755" lon="13.765582218882226"><ele>611.0</ele><time>2026-05-02T09:56:43.999Z</time></trkpt><trkpt lat="42.25969377915862" lon="13.765628051760967"><ele>611.0</ele><time>2026-05-02T09:56:44.999Z</time></trkpt><trkpt lat="42.25957846679017" lon="13.76566096281238"><ele>611.0</ele><time>2026-05-02T09:56:45.999Z</time></trkpt><trkpt lat="42.2594662650444" lon="13.765672986217735"><ele>611.0</ele><time>2026-05-02T09:56:46.999Z</time></trkpt><trkpt lat="42.25935632712618" lon="13.76564582355642"><ele>610.5</ele><time>2026-05-02T09:56:47.999Z</time></trkpt><trkpt lat="42.2592420526238" lon="13.76559002427486"><ele>610.0</ele><time>2026-05-02T09:56:48.999Z</time></trkpt><trkpt lat="42.25912399051535" lon="13.765533399447799"><ele>609.5</ele><time>2026-05-02T09:56:49.999Z</time></trkpt><trkpt lat="42.25900460783082" lon="13.765491545756113"><ele>609.0</ele><time>2026-05-02T09:56:50.999Z</time></trkpt><trkpt lat="42.258887019616296" lon="13.765463300454869"><ele>608.8</ele><time>2026-05-02T09:56:51.999Z</time></trkpt><trkpt lat="42.25877077238049" lon="13.765434635538423"><ele>608.5999999999999</ele><time>2026-05-02T09:56:52.999Z</time></trkpt><trkpt lat="42.25866160876702" lon="13.765411283361033"><ele>608.4</ele><time>2026-05-02T09:56:53.999Z</time></trkpt><trkpt lat="42.258560488068774" lon="13.76539485934786"><ele>608.1999999999999</ele><time>2026-05-02T09:56:54.999Z</time></trkpt><trkpt lat="42.2584659869919" lon="13.765383860513445"><ele>608.0</ele><time>2026-05-02T09:56:55.999Z</time></trkpt><trkpt lat="42.258380259010686" lon="13.765378200117253"><ele>608.0</ele><time>2026-05-02T09:56:56.999Z</time></trkpt><trkpt lat="42.258309901418606" lon="13.765378951326449"><ele>608.0</ele><time>2026-05-02T09:56:57.999Z</time></trkpt><trkpt lat="42.258246456556506" lon="13.76535700482042"><ele>608.0</ele><time>2026-05-02T09:57:00.999Z</time></trkpt><trkpt lat="42.25818655037599" lon="13.76531758587717"><ele>608.0</ele><time>2026-05-02T09:57:02.999Z</time></trkpt><trkpt lat="42.258102936990554" lon="13.765277561827029"><ele>608.0</ele><time>2026-05-02T09:57:04.999Z</time></trkpt><trkpt lat="42.25801412976224" lon="13.765230672632345"><ele>608.0</ele><time>2026-05-02T09:57:05.999Z</time></trkpt><trkpt lat="42.257912451835445" lon="13.765167262167044"><ele>610.0</ele><time>2026-05-02T09:57:06.999Z</time></trkpt><trkpt lat="42.25780622580323" lon="13.765093912780053"><ele>612.0</ele><time>2026-05-02T09:57:07.999Z</time></trkpt><trkpt lat="42.25769106443436" lon="13.765034459340365"><ele>614.0</ele><time>2026-05-02T09:57:08.999Z</time></trkpt><trkpt lat="42.257587344465726" lon="13.764985009832502"><ele>616.0</ele><time>2026-05-02T09:57:09.999Z</time></trkpt><trkpt lat="42.257478201962535" lon="13.764936921962247"><ele>616.0</ele><time>2026-05-02T09:57:10.999Z</time></trkpt><trkpt lat="42.25738259661278" lon="13.7648969636033"><ele>616.0</ele><time>2026-05-02T09:57:11.999Z</time></trkpt><trkpt lat="42.25729627971225" lon="13.764856706746606"><ele>616.0</ele><time>2026-05-02T09:57:12.999Z</time></trkpt><trkpt lat="42.25721941335745" lon="13.764817485947246"><ele>616.0</ele><time>2026-05-02T09:57:13.999Z</time></trkpt><trkpt lat="42.257157185942134" lon="13.764779367792409"><ele>616.0</ele><time>2026-05-02T09:57:14.999Z</time></trkpt><trkpt lat="42.25708978524239" lon="13.764735964527956"><ele>616.0</ele><time>2026-05-02T09:57:15.999Z</time></trkpt><trkpt lat="42.257017648344565" lon="13.76469537331327"><ele>616.6666666666667</ele><time>2026-05-02T09:57:16.999Z</time></trkpt><trkpt lat="42.25695462026697" lon="13.764660418460549"><ele>617.3333333333334</ele><time>2026-05-02T09:57:17.999Z</time></trkpt><trkpt lat="42.25688730347145" lon="13.764649320460116"><ele>618.0</ele><time>2026-05-02T09:57:18.999Z</time></trkpt><trkpt lat="42.25681399390052" lon="13.764677934861314"><ele>618.6666666666666</ele><time>2026-05-02T09:57:19.999Z</time></trkpt><trkpt lat="42.256739765385454" lon="13.764721877059218"><ele>619.3333333333333</ele><time>2026-05-02T09:57:20.999Z</time></trkpt><trkpt lat="42.256662864914674" lon="13.764748041423639"><ele>620.0</ele><time>2026-05-02T09:57:21.999Z</time></trkpt><trkpt lat="42.25658480308279" lon="13.764772518970988"><ele>620.0</ele><time>2026-05-02T09:57:22.999Z</time></trkpt><trkpt lat="42.256512810752014" lon="13.764789391503738"><ele>620.0</ele><time>2026-05-02T09:57:23.999Z</time></trkpt><trkpt lat="42.256391199908364" lon="13.764803978406594"><ele>620.0</ele><time>2026-05-02T09:57:25.999Z</time></trkpt><trkpt lat="42.25628114462622" lon="13.764804560374266"><ele>620.0</ele><time>2026-05-02T09:57:27.999Z</time></trkpt><trkpt lat="42.25620958164051" lon="13.764806062805617"><ele>620.0</ele><time>2026-05-02T09:57:28.999Z</time></trkpt><trkpt lat="42.256129788956535" lon="13.76479491912039"><ele>621.6</ele><time>2026-05-02T09:57:29.999Z</time></trkpt><trkpt lat="42.25604372468866" lon="13.764781452699875"><ele>623.2</ele><time>2026-05-02T09:57:30.999Z</time></trkpt><trkpt lat="42.255955661848276" lon="13.764773871606803"><ele>624.8</ele><time>2026-05-02T09:57:31.999Z</time></trkpt><trkpt lat="42.25586969038122" lon="13.764760166942422"><ele>626.4</ele><time>2026-05-02T09:57:32.999Z</time></trkpt><trkpt lat="42.255771480809194" lon="13.764747500511682"><ele>628.0</ele><time>2026-05-02T09:57:33.999Z</time></trkpt><trkpt lat="42.2556712197262" lon="13.764733367313044"><ele>628.8333333333334</ele><time>2026-05-02T09:57:34.999Z</time></trkpt><trkpt lat="42.2555706359979" lon="13.764724951950233"><ele>629.6666666666667</ele><time>2026-05-02T09:57:35.999Z</time></trkpt><trkpt lat="42.25547470544465" lon="13.764705359690648"><ele>630.5</ele><time>2026-05-02T09:57:36.999Z</time></trkpt><trkpt lat="42.25538743320111" lon="13.764680198399985"><ele>631.3333333333334</ele><time>2026-05-02T09:57:37.999Z</time></trkpt><trkpt lat="42.25530810561227" lon="13.764649724519144"><ele>632.1666666666666</ele><time>2026-05-02T09:57:38.999Z</time></trkpt><trkpt lat="42.25523473841552" lon="13.764612500177167"><ele>633.0</ele><time>2026-05-02T09:57:39.999Z</time></trkpt><trkpt lat="42.25518028884864" lon="13.764569380217532"><ele>633.0</ele><time>2026-05-02T09:57:40.999Z</time></trkpt><trkpt lat="42.255105906641575" lon="13.764530627046287"><ele>633.0</ele><time>2026-05-02T09:57:41.999Z</time></trkpt><trkpt lat="42.25501271336212" lon="13.764519499378022"><ele>633.0</ele><time>2026-05-02T09:57:42.999Z</time></trkpt><trkpt lat="42.254924644426985" lon="13.764552888948735"><ele>633.0</ele><time>2026-05-02T09:57:43.999Z</time></trkpt><trkpt lat="42.25484819643334" lon="13.764594468623216"><ele>633.0</ele><time>2026-05-02T09:57:44.999Z</time></trkpt><trkpt lat="42.25477044912801" lon="13.764600044095515"><ele>633.0</ele><time>2026-05-02T09:57:45.999Z</time></trkpt><trkpt lat="42.25468338336065" lon="13.764583468192052"><ele>634.8333333333334</ele><time>2026-05-02T09:57:46.999Z</time></trkpt><trkpt lat="42.25459846516369" lon="13.76455338143843"><ele>636.6666666666666</ele><time>2026-05-02T09:57:47.999Z</time></trkpt><trkpt lat="42.25453182662164" lon="13.764521329079981"><ele>638.5</ele><time>2026-05-02T09:57:48.999Z</time></trkpt><trkpt lat="42.25445178462837" lon="13.764499927368444"><ele>640.3333333333333</ele><time>2026-05-02T09:57:49.999Z</time></trkpt><trkpt lat="42.254353882645965" lon="13.76449694793254"><ele>642.1666666666666</ele><time>2026-05-02T09:57:50.999Z</time></trkpt><trkpt lat="42.25425211365421" lon="13.764498362572509"><ele>644.0</ele><time>2026-05-02T09:57:51.999Z</time></trkpt><trkpt lat="42.254151145444126" lon="13.764493079797722"><ele>644.0</ele><time>2026-05-02T09:57:52.999Z</time></trkpt><trkpt lat="42.254069814500255" lon="13.76447825957488"><ele>644.0</ele><time>2026-05-02T09:57:53.999Z</time></trkpt><trkpt lat="42.25399774918804" lon="13.764462620151455"><ele>644.0</ele><time>2026-05-02T09:57:54.999Z</time></trkpt><trkpt lat="42.253879910580956" lon="13.764412605775112"><ele>644.0</ele><time>2026-05-02T09:57:56.999Z</time></trkpt><trkpt lat="42.25380863913793" lon="13.764377063850812"><ele>644.0</ele><time>2026-05-02T09:57:57.999Z</time></trkpt><trkpt lat="42.25373299674053" lon="13.764344274958033"><ele>644.0</ele><time>2026-05-02T09:57:58.999Z</time></trkpt><trkpt lat="42.2536640001927" lon="13.76431050527638"><ele>645.0</ele><time>2026-05-02T09:57:59.999Z</time></trkpt><trkpt lat="42.25360455932809" lon="13.764265195706821"><ele>646.0</ele><time>2026-05-02T09:58:01Z</time></trkpt><trkpt lat="42.253556983179585" lon="13.76420700275679"><ele>647.0</ele><time>2026-05-02T09:58:02Z</time></trkpt><trkpt lat="42.25351072741443" lon="13.764130258024966"><ele>648.0</ele><time>2026-05-02T09:58:03Z</time></trkpt><trkpt lat="42.2534721548877" lon="13.764043185372573"><ele>649.0</ele><time>2026-05-02T09:58:04Z</time></trkpt><trkpt lat="42.253425039578325" lon="13.763949715696752"><ele>650.0</ele><time>2026-05-02T09:58:04.999Z</time></trkpt><trkpt lat="42.25337415986261" lon="13.76385815490473"><ele>651.0</ele><time>2026-05-02T09:58:05.999Z</time></trkpt><trkpt lat="42.25332148919108" lon="13.763779071928928"><ele>651.0</ele><time>2026-05-02T09:58:06.999Z</time></trkpt><trkpt lat="42.253258121425816" lon="13.763701401720631"><ele>651.0</ele><time>2026-05-02T09:58:07.999Z</time></trkpt><trkpt lat="42.25318424500213" lon="13.763644258560852"><ele>651.0</ele><time>2026-05-02T09:58:08.999Z</time></trkpt><trkpt lat="42.25310601627657" lon="13.763606311686551"><ele>651.0</ele><time>2026-05-02T09:58:09.999Z</time></trkpt><trkpt lat="42.253027861980726" lon="13.763575174753242"><ele>651.0</ele><time>2026-05-02T09:58:11Z</time></trkpt><trkpt lat="42.25295163829024" lon="13.763543891567718"><ele>651.0</ele><time>2026-05-02T09:58:12Z</time></trkpt><trkpt lat="42.252867549540156" lon="13.763505754675624"><ele>652.1666666666666</ele><time>2026-05-02T09:58:12.999Z</time></trkpt><trkpt lat="42.252776372714145" lon="13.763472963176996"><ele>653.3333333333334</ele><time>2026-05-02T09:58:13.999Z</time></trkpt><trkpt lat="42.252695455607274" lon="13.763453340366611"><ele>654.5</ele><time>2026-05-02T09:58:14.999Z</time></trkpt><trkpt lat="42.252609188269695" lon="13.76344979149907"><ele>655.6666666666667</ele><time>2026-05-02T09:58:15.999Z</time></trkpt><trkpt lat="42.25252158462501" lon="13.763443823880083"><ele>656.8333333333334</ele><time>2026-05-02T09:58:16.999Z</time></trkpt><trkpt lat="42.252443022979314" lon="13.763439115974222"><ele>658.0</ele><time>2026-05-02T09:58:17.999Z</time></trkpt><trkpt lat="42.252374830156576" lon="13.76341514532825"><ele>658.0</ele><time>2026-05-02T09:58:18.999Z</time></trkpt><trkpt lat="42.252297471994666" lon="13.763386912653342"><ele>658.0</ele><time>2026-05-02T09:58:19.999Z</time></trkpt><trkpt lat="42.25221822583534" lon="13.763360843225051"><ele>658.0</ele><time>2026-05-02T09:58:20.999Z</time></trkpt><trkpt lat="42.252139134709594" lon="13.76333198899537"><ele>658.0</ele><time>2026-05-02T09:58:21.999Z</time></trkpt><trkpt lat="42.25207588262609" lon="13.763290442124799"><ele>658.0</ele><time>2026-05-02T09:58:22.999Z</time></trkpt><trkpt lat="42.252008603626486" lon="13.76324755413227"><ele>658.0</ele><time>2026-05-02T09:58:23.999Z</time></trkpt><trkpt lat="42.25194609810672" lon="13.763205944026346"><ele>657.5</ele><time>2026-05-02T09:58:24.999Z</time></trkpt><trkpt lat="42.251882618349285" lon="13.763152677514942"><ele>657.0</ele><time>2026-05-02T09:58:25.999Z</time></trkpt><trkpt lat="42.25181189750449" lon="13.763075140704327"><ele>656.5</ele><time>2026-05-02T09:58:26.999Z</time></trkpt><trkpt lat="42.25175513864775" lon="13.762996686328528"><ele>656.0</ele><time>2026-05-02T09:58:27.999Z</time></trkpt><trkpt lat="42.25170084674094" lon="13.762905890835519"><ele>655.5</ele><time>2026-05-02T09:58:28.999Z</time></trkpt><trkpt lat="42.251648427461504" lon="13.762816855012705"><ele>655.0</ele><time>2026-05-02T09:58:29.999Z</time></trkpt><trkpt lat="42.25159004609838" lon="13.762739632002168"><ele>658.0</ele><time>2026-05-02T09:58:30.999Z</time></trkpt><trkpt lat="42.25151385840669" lon="13.762671389195269"><ele>661.0</ele><time>2026-05-02T09:58:31.999Z</time></trkpt><trkpt lat="42.251434532776415" lon="13.762617671023008"><ele>664.0</ele><time>2026-05-02T09:58:32.999Z</time></trkpt><trkpt lat="42.251363763461974" lon="13.762555015494405"><ele>667.0</ele><time>2026-05-02T09:58:33.999Z</time></trkpt><trkpt lat="42.25130321549907" lon="13.76249417042225"><ele>670.0</ele><time>2026-05-02T09:58:34.999Z</time></trkpt><trkpt lat="42.25123143439911" lon="13.762425013638355"><ele>673.0</ele><time>2026-05-02T09:58:35.999Z</time></trkpt><trkpt lat="42.25115806010285" lon="13.762365102793899"><ele>673.0</ele><time>2026-05-02T09:58:36.999Z</time></trkpt><trkpt lat="42.2510816394293" lon="13.762307011554363"><ele>673.0</ele><time>2026-05-02T09:58:37.999Z</time></trkpt><trkpt lat="42.25100839797702" lon="13.762267864516321"><ele>673.0</ele><time>2026-05-02T09:58:38.999Z</time></trkpt><trkpt lat="42.250931013426126" lon="13.762241563134724"><ele>673.0</ele><time>2026-05-02T09:58:39.999Z</time></trkpt><trkpt lat="42.250861057933406" lon="13.762222475878348"><ele>673.0</ele><time>2026-05-02T09:58:40.999Z</time></trkpt><trkpt lat="42.25079774315875" lon="13.762205539690823"><ele>673.0</ele><time>2026-05-02T09:58:41.999Z</time></trkpt><trkpt lat="42.250728148832934" lon="13.762206542490853"><ele>673.0</ele><time>2026-05-02T09:58:42.999Z</time></trkpt><trkpt lat="42.25066928390925" lon="13.762254173990664"><ele>673.0</ele><time>2026-05-02T09:58:43.999Z</time></trkpt><trkpt lat="42.250639157404336" lon="13.762383911985813"><ele>673.0</ele><time>2026-05-02T09:58:45.999Z</time></trkpt><trkpt lat="42.25061794287017" lon="13.762471917386012"><ele>673.0</ele><time>2026-05-02T09:58:46.999Z</time></trkpt><trkpt lat="42.25057279450082" lon="13.762555322138114"><ele>673.0</ele><time>2026-05-02T09:58:47.999Z</time></trkpt><trkpt lat="42.25050765051514" lon="13.762610881656002"><ele>673.0</ele><time>2026-05-02T09:58:48.999Z</time></trkpt><trkpt lat="42.25043164872339" lon="13.762657464500368"><ele>672.4285714285714</ele><time>2026-05-02T09:58:49.999Z</time></trkpt><trkpt lat="42.25035065584064" lon="13.762694598305517"><ele>671.8571428571428</ele><time>2026-05-02T09:58:50.999Z</time></trkpt><trkpt lat="42.25027515407468" lon="13.762712011101936"><ele>671.2857142857142</ele><time>2026-05-02T09:58:51.999Z</time></trkpt><trkpt lat="42.25021107892013" lon="13.762717201063415"><ele>670.7142857142858</ele><time>2026-05-02T09:58:52.999Z</time></trkpt><trkpt lat="42.250146756710286" lon="13.762727713918002"><ele>670.1428571428571</ele><time>2026-05-02T09:58:53.999Z</time></trkpt><trkpt lat="42.25008213763605" lon="13.76274083326443"><ele>669.5714285714286</ele><time>2026-05-02T09:58:54.999Z</time></trkpt><trkpt lat="42.25001142438623" lon="13.76275717636115"><ele>669.0</ele><time>2026-05-02T09:58:55.999Z</time></trkpt><trkpt lat="42.24993150606988" lon="13.762780529598752"><ele>669.0</ele><time>2026-05-02T09:58:56.999Z</time></trkpt><trkpt lat="42.24984738744707" lon="13.762813948490262"><ele>669.0</ele><time>2026-05-02T09:58:57.999Z</time></trkpt><trkpt lat="42.24977024995613" lon="13.762843056600138"><ele>669.0</ele><time>2026-05-02T09:58:58.999Z</time></trkpt><trkpt lat="42.249701013491055" lon="13.762886229614999"><ele>669.0</ele><time>2026-05-02T09:58:59.999Z</time></trkpt><trkpt lat="42.24963236476537" lon="13.762942038407942"><ele>669.0</ele><time>2026-05-02T09:59:00.999Z</time></trkpt><trkpt lat="42.24956236932325" lon="13.763020492807462"><ele>669.0</ele><time>2026-05-02T09:59:01.999Z</time></trkpt><trkpt lat="42.24948808282007" lon="13.763100522434124"><ele>671.5</ele><time>2026-05-02T09:59:02.999Z</time></trkpt><trkpt lat="42.24941838193622" lon="13.763179239196429"><ele>674.0</ele><time>2026-05-02T09:59:03.999Z</time></trkpt><trkpt lat="42.24936259821539" lon="13.763241274496917"><ele>676.5</ele><time>2026-05-02T09:59:04.999Z</time></trkpt><trkpt lat="42.24929819831099" lon="13.763292926581721"><ele>679.0</ele><time>2026-05-02T09:59:05.999Z</time></trkpt><trkpt lat="42.24922490880956" lon="13.763345507058071"><ele>681.5</ele><time>2026-05-02T09:59:06.999Z</time></trkpt><trkpt lat="42.24915021370486" lon="13.763384154867126"><ele>684.0</ele><time>2026-05-02T09:59:07.999Z</time></trkpt><trkpt lat="42.24906704847542" lon="13.763423811206904"><ele>684.0</ele><time>2026-05-02T09:59:08.999Z</time></trkpt><trkpt lat="42.2489859207892" lon="13.763468701483323"><ele>684.0</ele><time>2026-05-02T09:59:09.999Z</time></trkpt><trkpt lat="42.248920857610884" lon="13.763514003123886"><ele>684.0</ele><time>2026-05-02T09:59:10.999Z</time></trkpt><trkpt lat="42.248856659427474" lon="13.763556297804215"><ele>684.0</ele><time>2026-05-02T09:59:11.999Z</time></trkpt><trkpt lat="42.248782400508574" lon="13.763607109322319"><ele>684.0</ele><time>2026-05-02T09:59:12.999Z</time></trkpt><trkpt lat="42.248710341372394" lon="13.763673359837345"><ele>684.0</ele><time>2026-05-02T09:59:13.999Z</time></trkpt><trkpt lat="42.24864362864685" lon="13.763738356490325"><ele>684.6666666666666</ele><time>2026-05-02T09:59:14.999Z</time></trkpt><trkpt lat="42.2485813080853" lon="13.763803432945405"><ele>685.3333333333334</ele><time>2026-05-02T09:59:15.999Z</time></trkpt><trkpt lat="42.24851251627733" lon="13.763872495149453"><ele>686.0</ele><time>2026-05-02T09:59:16.999Z</time></trkpt><trkpt lat="42.248443608536164" lon="13.763950055376041"><ele>686.6666666666667</ele><time>2026-05-02T09:59:17.999Z</time></trkpt><trkpt lat="42.24837704911583" lon="13.764031914832957"><ele>687.3333333333334</ele><time>2026-05-02T09:59:18.999Z</time></trkpt><trkpt lat="42.24829808939533" lon="13.764124900083894"><ele>688.0</ele><time>2026-05-02T09:59:19.999Z</time></trkpt><trkpt lat="42.248216383904094" lon="13.764219599174321"><ele>688.0</ele><time>2026-05-02T09:59:20.999Z</time></trkpt><trkpt lat="42.248147653145146" lon="13.764302766355987"><ele>688.0</ele><time>2026-05-02T09:59:21.999Z</time></trkpt><trkpt lat="42.248087400638475" lon="13.764376915729088"><ele>688.0</ele><time>2026-05-02T09:59:22.999Z</time></trkpt><trkpt lat="42.248019186867054" lon="13.764449053373381"><ele>688.0</ele><time>2026-05-02T09:59:23.999Z</time></trkpt><trkpt lat="42.24796249511697" lon="13.764518828026585"><ele>688.0</ele><time>2026-05-02T09:59:24.999Z</time></trkpt><trkpt lat="42.247904374988266" lon="13.764577501281778"><ele>688.0</ele><time>2026-05-02T09:59:25.999Z</time></trkpt><trkpt lat="42.247840581347" lon="13.764646991024357"><ele>689.3333333333334</ele><time>2026-05-02T09:59:26.999Z</time></trkpt><trkpt lat="42.24778600571375" lon="13.764723981502984"><ele>690.6666666666667</ele><time>2026-05-02T09:59:27.999Z</time></trkpt><trkpt lat="42.24775336591512" lon="13.76480353586897"><ele>692.0</ele><time>2026-05-02T09:59:28.999Z</time></trkpt><trkpt lat="42.24772026738407" lon="13.764882875289258"><ele>693.3333333333334</ele><time>2026-05-02T09:59:29.999Z</time></trkpt><trkpt lat="42.24766383070594" lon="13.765020790672827"><ele>694.6666666666666</ele><time>2026-05-02T09:59:31.999Z</time></trkpt><trkpt lat="42.247618050486864" lon="13.765079742453516"><ele>696.0</ele><time>2026-05-02T09:59:32.999Z</time></trkpt><trkpt lat="42.24756469916163" lon="13.765143920373333"><ele>696.2857142857142</ele><time>2026-05-02T09:59:33.999Z</time></trkpt><trkpt lat="42.2475126868884" lon="13.76520491288597"><ele>696.5714285714286</ele><time>2026-05-02T09:59:34.999Z</time></trkpt><trkpt lat="42.24745570365627" lon="13.765251378014112"><ele>696.8571428571429</ele><time>2026-05-02T09:59:35.999Z</time></trkpt><trkpt lat="42.24738817309141" lon="13.765288654942657"><ele>697.1428571428571</ele><time>2026-05-02T09:59:36.999Z</time></trkpt><trkpt lat="42.247317001433544" lon="13.765326017943257"><ele>697.4285714285714</ele><time>2026-05-02T09:59:37.999Z</time></trkpt><trkpt lat="42.247253722660254" lon="13.76537182252892"><ele>697.7142857142857</ele><time>2026-05-02T09:59:38.999Z</time></trkpt><trkpt lat="42.247192940005554" lon="13.765420437441252"><ele>698.0</ele><time>2026-05-02T09:59:39.999Z</time></trkpt><trkpt lat="42.247128047428156" lon="13.76545806483463"><ele>700.3333333333333</ele><time>2026-05-02T09:59:40.999Z</time></trkpt><trkpt lat="42.24706501835935" lon="13.765470770263995"><ele>702.6666666666666</ele><time>2026-05-02T09:59:41.999Z</time></trkpt><trkpt lat="42.24696808182511" lon="13.765506759609167"><ele>705.0</ele><time>2026-05-02T09:59:43.999Z</time></trkpt><trkpt lat="42.246871207555074" lon="13.765575018862759"><ele>707.3333333333334</ele><time>2026-05-02T09:59:45.999Z</time></trkpt><trkpt lat="42.246812526192" lon="13.76561934145884"><ele>709.6666666666667</ele><time>2026-05-02T09:59:46.999Z</time></trkpt><trkpt lat="42.24675015293966" lon="13.765665444694378"><ele>712.0</ele><time>2026-05-02T09:59:47.999Z</time></trkpt><trkpt lat="42.24669222101813" lon="13.765710535461299"><ele>712.0</ele><time>2026-05-02T09:59:48.999Z</time></trkpt><trkpt lat="42.246642800939476" lon="13.765765065161094"><ele>712.0</ele><time>2026-05-02T09:59:49.999Z</time></trkpt><trkpt lat="42.246589234347454" lon="13.765821573867315"><ele>712.0</ele><time>2026-05-02T09:59:50.999Z</time></trkpt><trkpt lat="42.24652472442236" lon="13.765859832259448"><ele>712.0</ele><time>2026-05-02T09:59:51.999Z</time></trkpt><trkpt lat="42.24642533232916" lon="13.765956456676335"><ele>712.0</ele><time>2026-05-02T09:59:53.999Z</time></trkpt><trkpt lat="42.24638317054142" lon="13.766039113063856"><ele>712.0</ele><time>2026-05-02T09:59:54.999Z</time></trkpt><trkpt lat="42.246332981758975" lon="13.766113454187682"><ele>713.6</ele><time>2026-05-02T09:59:55.999Z</time></trkpt><trkpt lat="42.246283436668826" lon="13.766189890351393"><ele>715.2</ele><time>2026-05-02T09:59:56.999Z</time></trkpt><trkpt lat="42.24623929609015" lon="13.766265553361615"><ele>716.8</ele><time>2026-05-02T09:59:57.999Z</time></trkpt><trkpt lat="42.24614681028633" lon="13.766374958084642"><ele>718.4</ele><time>2026-05-02T09:59:59.999Z</time></trkpt><trkpt lat="42.246086696305795" lon="13.766451031768073"><ele>720.0</ele><time>2026-05-02T10:00:00.999Z</time></trkpt><trkpt lat="42.24599330814977" lon="13.766538399102012"><ele>720.0</ele><time>2026-05-02T10:00:02.999Z</time></trkpt><trkpt lat="42.2459311378176" lon="13.766557605814663"><ele>720.0</ele><time>2026-05-02T10:00:03.999Z</time></trkpt><trkpt lat="42.245867458402884" lon="13.766545790793161"><ele>720.0</ele><time>2026-05-02T10:00:04.999Z</time></trkpt><trkpt lat="42.245792566799445" lon="13.766545055633093"><ele>720.0</ele><time>2026-05-02T10:00:05.999Z</time></trkpt><trkpt lat="42.245728038946936" lon="13.766590615620453"><ele>720.0</ele><time>2026-05-02T10:00:07Z</time></trkpt><trkpt lat="42.24566470367811" lon="13.766629728682087"><ele>720.0</ele><time>2026-05-02T10:00:08Z</time></trkpt><trkpt lat="42.24559121975105" lon="13.766647792339647"><ele>720.0</ele><time>2026-05-02T10:00:09Z</time></trkpt><trkpt lat="42.24551763694908" lon="13.766668816164508"><ele>719.8333333333334</ele><time>2026-05-02T10:00:10Z</time></trkpt><trkpt lat="42.24544379954229" lon="13.766717322140035"><ele>719.6666666666666</ele><time>2026-05-02T10:00:11Z</time></trkpt><trkpt lat="42.24538597625234" lon="13.76677453982007"><ele>719.5</ele><time>2026-05-02T10:00:12Z</time></trkpt><trkpt lat="42.24529676777046" lon="13.76683318171569"><ele>719.3333333333333</ele><time>2026-05-02T10:00:14Z</time></trkpt><trkpt lat="42.245189898693575" lon="13.766850544575398"><ele>719.1666666666666</ele><time>2026-05-02T10:00:16Z</time></trkpt><trkpt lat="42.24512833466586" lon="13.766868430372508"><ele>719.0</ele><time>2026-05-02T10:00:17Z</time></trkpt><trkpt lat="42.24502871621202" lon="13.766901097231049"><ele>719.0</ele><time>2026-05-02T10:00:19Z</time></trkpt><trkpt lat="42.24496261827418" lon="13.766916880600851"><ele>719.0</ele><time>2026-05-02T10:00:30Z</time></trkpt><trkpt lat="42.24490052578739" lon="13.766932619367024"><ele>719.0</ele><time>2026-05-02T10:00:32Z</time></trkpt><trkpt lat="42.244814959406526" lon="13.766969987920131"><ele>719.0</ele><time>2026-05-02T10:00:34Z</time></trkpt><trkpt lat="42.24470803864764" lon="13.767005073250806"><ele>719.0</ele><time>2026-05-02T10:00:36Z</time></trkpt><trkpt lat="42.24464063229809" lon="13.767019078660311"><ele>719.0</ele><time>2026-05-02T10:00:37Z</time></trkpt><trkpt lat="42.24457249444404" lon="13.767037498779716"><ele>720.6666666666666</ele><time>2026-05-02T10:00:38Z</time></trkpt><trkpt lat="42.244505828972386" lon="13.76705298068285"><ele>722.3333333333333</ele><time>2026-05-02T10:00:39Z</time></trkpt><trkpt lat="42.24438989966387" lon="13.767075374258182"><ele>724.0</ele><time>2026-05-02T10:00:41Z</time></trkpt><trkpt lat="42.24428547267477" lon="13.767075773945743"><ele>725.6666666666666</ele><time>2026-05-02T10:00:43Z</time></trkpt><trkpt lat="42.2442149901276" lon="13.767085606933106"><ele>727.3333333333334</ele><time>2026-05-02T10:00:44Z</time></trkpt><trkpt lat="42.244143369083694" lon="13.767095432078763"><ele>729.0</ele><time>2026-05-02T10:00:45Z</time></trkpt><trkpt lat="42.244065575819526" lon="13.76711396334697"><ele>729.0</ele><time>2026-05-02T10:00:46Z</time></trkpt><trkpt lat="42.24399363975418" lon="13.767144207772377"><ele>729.0</ele><time>2026-05-02T10:00:47Z</time></trkpt><trkpt lat="42.24393060389195" lon="13.767160653810265"><ele>729.0</ele><time>2026-05-02T10:00:48Z</time></trkpt><trkpt lat="42.24380689645006" lon="13.767204088135287"><ele>729.0</ele><time>2026-05-02T10:00:50Z</time></trkpt><trkpt lat="42.243698179358304" lon="13.767253919433108"><ele>729.0</ele><time>2026-05-02T10:00:52Z</time></trkpt><trkpt lat="42.24361703759504" lon="13.767273542708095"><ele>732.0</ele><time>2026-05-02T10:00:54Z</time></trkpt><trkpt lat="42.24354260484734" lon="13.767263600559357"><ele>735.0</ele><time>2026-05-02T10:01:15.999Z</time></trkpt><trkpt lat="42.24343673824965" lon="13.767281804519927"><ele>738.0</ele><time>2026-05-02T10:01:28.999Z</time></trkpt><trkpt lat="42.24334128614309" lon="13.76729999610768"><ele>741.0</ele><time>2026-05-02T10:01:30.999Z</time></trkpt><trkpt lat="42.24322010278391" lon="13.76734078557688"><ele>744.0</ele><time>2026-05-02T10:01:32.999Z</time></trkpt><trkpt lat="42.24314292619914" lon="13.76735421274751"><ele>746.1666666666666</ele><time>2026-05-02T10:01:33.999Z</time></trkpt><trkpt lat="42.243071229412045" lon="13.76735167991884"><ele>748.3333333333334</ele><time>2026-05-02T10:01:34.999Z</time></trkpt><trkpt lat="42.2429983351796" lon="13.767358134500466"><ele>750.5</ele><time>2026-05-02T10:01:35.999Z</time></trkpt><trkpt lat="42.24291399910708" lon="13.767364879100843"><ele>752.6666666666667</ele><time>2026-05-02T10:01:36.999Z</time></trkpt><trkpt lat="42.242835190884925" lon="13.767369360070997"><ele>754.8333333333334</ele><time>2026-05-02T10:01:37.999Z</time></trkpt><trkpt lat="42.24275708611919" lon="13.767378598529541"><ele>757.0</ele><time>2026-05-02T10:01:38.999Z</time></trkpt><trkpt lat="42.2426696468332" lon="13.767392152774203"><ele>757.0</ele><time>2026-05-02T10:01:39.999Z</time></trkpt><trkpt lat="42.24259900448663" lon="13.767410534327079"><ele>757.0</ele><time>2026-05-02T10:01:40.999Z</time></trkpt><trkpt lat="42.24251652348183" lon="13.767436349093803"><ele>757.0</ele><time>2026-05-02T10:01:41.999Z</time></trkpt><trkpt lat="42.2424338166539" lon="13.767455431615968"><ele>757.0</ele><time>2026-05-02T10:01:42.999Z</time></trkpt><trkpt lat="42.242365908158895" lon="13.767483890148391"><ele>757.0</ele><time>2026-05-02T10:01:43.999Z</time></trkpt><trkpt lat="42.24229324683087" lon="13.767521302865593"><ele>757.0</ele><time>2026-05-02T10:01:44.999Z</time></trkpt><trkpt lat="42.2422163600965" lon="13.767547091272117"><ele>757.0</ele><time>2026-05-02T10:01:45.999Z</time></trkpt><trkpt lat="42.242132748896154" lon="13.767555313826485"><ele>757.0</ele><time>2026-05-02T10:01:46.999Z</time></trkpt><trkpt lat="42.242059105808934" lon="13.7675902303113"><ele>757.0</ele><time>2026-05-02T10:01:47.999Z</time></trkpt><trkpt lat="42.241988366129775" lon="13.767643542199567"><ele>757.0</ele><time>2026-05-02T10:01:48.999Z</time></trkpt><trkpt lat="42.24191495298508" lon="13.767696818800722"><ele>757.0</ele><time>2026-05-02T10:01:49.999Z</time></trkpt><trkpt lat="42.24183707815383" lon="13.76774875106711"><ele>757.0</ele><time>2026-05-02T10:01:50.999Z</time></trkpt><trkpt lat="42.24176584110632" lon="13.76780793188148"><ele>757.0</ele><time>2026-05-02T10:01:51.999Z</time></trkpt><trkpt lat="42.24170037120643" lon="13.76786382750331"><ele>757.0</ele><time>2026-05-02T10:01:52.999Z</time></trkpt><trkpt lat="42.24164127233615" lon="13.767930521960038"><ele>757.0</ele><time>2026-05-02T10:01:53.999Z</time></trkpt><trkpt lat="42.24158541304511" lon="13.76798894834417"><ele>757.0</ele><time>2026-05-02T10:01:54.999Z</time></trkpt><trkpt lat="42.2414973684072" lon="13.768098415469462"><ele>757.0</ele><time>2026-05-02T10:01:56.999Z</time></trkpt><trkpt lat="42.241452351236376" lon="13.768170100673085"><ele>757.0</ele><time>2026-05-02T10:01:57.999Z</time></trkpt><trkpt lat="42.2414066146344" lon="13.768253714457687"><ele>760.0</ele><time>2026-05-02T10:01:58.999Z</time></trkpt><trkpt lat="42.2413572743958" lon="13.76833299643576"><ele>763.0</ele><time>2026-05-02T10:01:59.999Z</time></trkpt><trkpt lat="42.241308389196845" lon="13.768416100153427"><ele>766.0</ele><time>2026-05-02T10:02:00.999Z</time></trkpt><trkpt lat="42.24126051495399" lon="13.768507484465877"><ele>769.0</ele><time>2026-05-02T10:02:01.999Z</time></trkpt><trkpt lat="42.241213503961" lon="13.7685779824277"><ele>771.9999999999999</ele><time>2026-05-02T10:02:02.999Z</time></trkpt><trkpt lat="42.24115593953552" lon="13.76865080423886"><ele>775.0</ele><time>2026-05-02T10:02:03.999Z</time></trkpt><trkpt lat="42.241093709026764" lon="13.768740244223888"><ele>774.9999999999999</ele><time>2026-05-02T10:02:04.999Z</time></trkpt><trkpt lat="42.24103885757992" lon="13.768828437564444"><ele>775.0</ele><time>2026-05-02T10:02:05.999Z</time></trkpt><trkpt lat="42.24098925486355" lon="13.76890142321564"><ele>775.0</ele><time>2026-05-02T10:02:06.999Z</time></trkpt><trkpt lat="42.240912054361196" lon="13.769050028259878"><ele>775.0</ele><time>2026-05-02T10:02:08.999Z</time></trkpt><trkpt lat="42.24087963612048" lon="13.769152134580736"><ele>774.9999999999999</ele><time>2026-05-02T10:02:09.999Z</time></trkpt><trkpt lat="42.24085023068374" lon="13.769234050523625"><ele>775.0</ele><time>2026-05-02T10:02:10.999Z</time></trkpt><trkpt lat="42.240781664333234" lon="13.76933391523874"><ele>773.9999999999999</ele><time>2026-05-02T10:02:13Z</time></trkpt><trkpt lat="42.24072566860225" lon="13.769373015286488"><ele>773.0</ele><time>2026-05-02T10:02:14Z</time></trkpt><trkpt lat="42.24065910176919" lon="13.769389855281931"><ele>772.0</ele><time>2026-05-02T10:02:15Z</time></trkpt><trkpt lat="42.24056020427588" lon="13.769363394467298"><ele>771.0</ele><time>2026-05-02T10:02:17Z</time></trkpt><trkpt lat="42.240481828999116" lon="13.769332814774865"><ele>769.9999999999999</ele><time>2026-05-02T10:02:19Z</time></trkpt><trkpt lat="42.24038442890578" lon="13.769268814987495"><ele>769.0</ele><time>2026-05-02T10:02:21Z</time></trkpt><trkpt lat="42.24032197294339" lon="13.769246449315393"><ele>772.3333333333333</ele><time>2026-05-02T10:02:22Z</time></trkpt><trkpt lat="42.240254581818306" lon="13.76922739811936"><ele>775.6666666666666</ele><time>2026-05-02T10:02:23Z</time></trkpt><trkpt lat="42.24018926310204" lon="13.769223802531258"><ele>779.0</ele><time>2026-05-02T10:02:24Z</time></trkpt><trkpt lat="42.240123669028925" lon="13.769227206850127"><ele>782.3333333333333</ele><time>2026-05-02T10:02:25Z</time></trkpt><trkpt lat="42.24000515389709" lon="13.76923024735252"><ele>785.6666666666666</ele><time>2026-05-02T10:02:27Z</time></trkpt><trkpt lat="42.23991575156588" lon="13.769220697867508"><ele>789.0</ele><time>2026-05-02T10:02:29Z</time></trkpt><trkpt lat="42.23981737375554" lon="13.769209999499946"><ele>791.6666666666666</ele><time>2026-05-02T10:02:31Z</time></trkpt><trkpt lat="42.23975177430525" lon="13.769188891296677"><ele>794.3333333333333</ele><time>2026-05-02T10:03:20.999Z</time></trkpt><trkpt lat="42.23966137741444" lon="13.769177061429133"><ele>797.0</ele><time>2026-05-02T10:03:46.999Z</time></trkpt><trkpt lat="42.23957905866729" lon="13.76913189467554"><ele>799.6666666666666</ele><time>2026-05-02T10:03:48.999Z</time></trkpt><trkpt lat="42.239456135860756" lon="13.769096491573618"><ele>802.3333333333333</ele><time>2026-05-02T10:03:50.999Z</time></trkpt><trkpt lat="42.23938871824815" lon="13.769064389234972"><ele>805.0</ele><time>2026-05-02T10:03:51.999Z</time></trkpt><trkpt lat="42.23932738803919" lon="13.76908537456335"><ele>805.0</ele><time>2026-05-02T10:03:52.999Z</time></trkpt><trkpt lat="42.2392311287105" lon="13.769175800295827"><ele>805.0</ele><time>2026-05-02T10:03:54.999Z</time></trkpt><trkpt lat="42.23913655864921" lon="13.769257126082058"><ele>805.0</ele><time>2026-05-02T10:03:56.999Z</time></trkpt><trkpt lat="42.23904837927629" lon="13.76932379500634"><ele>805.0</ele><time>2026-05-02T10:03:58.999Z</time></trkpt><trkpt lat="42.238987253514566" lon="13.769357827293172"><ele>805.0</ele><time>2026-05-02T10:03:59.999Z</time></trkpt><trkpt lat="42.23886162044946" lon="13.769376875322436"><ele>804.8333333333333</ele><time>2026-05-02T10:04:01.999Z</time></trkpt><trkpt lat="42.23872823624644" lon="13.769383963360264"><ele>804.6666666666666</ele><time>2026-05-02T10:04:03.999Z</time></trkpt><trkpt lat="42.23866267795538" lon="13.769388141260333"><ele>804.5</ele><time>2026-05-02T10:04:04.999Z</time></trkpt><trkpt lat="42.23858886936646" lon="13.76939331944952"><ele>804.3333333333333</ele><time>2026-05-02T10:04:05.999Z</time></trkpt><trkpt lat="42.238524514203874" lon="13.769401617439001"><ele>804.1666666666666</ele><time>2026-05-02T10:04:06.999Z</time></trkpt><trkpt lat="42.23844457573262" lon="13.769421268317831"><ele>804.0</ele><time>2026-05-02T10:04:07.999Z</time></trkpt><trkpt lat="42.238366865972736" lon="13.769446667137093"><ele>804.0</ele><time>2026-05-02T10:04:08.999Z</time></trkpt><trkpt lat="42.23829121650155" lon="13.769475078418399"><ele>804.0</ele><time>2026-05-02T10:04:09.999Z</time></trkpt><trkpt lat="42.238209232432155" lon="13.769506971220878"><ele>804.0</ele><time>2026-05-02T10:04:10.999Z</time></trkpt><trkpt lat="42.23812214855304" lon="13.769548701693441"><ele>804.0</ele><time>2026-05-02T10:04:11.999Z</time></trkpt><trkpt lat="42.23804864535595" lon="13.76959279585851"><ele>804.0</ele><time>2026-05-02T10:04:12.999Z</time></trkpt><trkpt lat="42.237970693259136" lon="13.769651084434102"><ele>804.0</ele><time>2026-05-02T10:04:13.999Z</time></trkpt><trkpt lat="42.23789517904445" lon="13.769703789686659"><ele>806.8333333333334</ele><time>2026-05-02T10:04:14.999Z</time></trkpt><trkpt lat="42.23782182241126" lon="13.769749015272346"><ele>809.6666666666667</ele><time>2026-05-02T10:04:15.999Z</time></trkpt><trkpt lat="42.23774611335991" lon="13.769789927555252"><ele>812.5</ele><time>2026-05-02T10:04:16.999Z</time></trkpt><trkpt lat="42.23766121214928" lon="13.769824435755048"><ele>815.3333333333334</ele><time>2026-05-02T10:04:17.999Z</time></trkpt><trkpt lat="42.23758565910859" lon="13.769848101188867"><ele>818.1666666666667</ele><time>2026-05-02T10:04:19Z</time></trkpt><trkpt lat="42.237514211183175" lon="13.769863295196041"><ele>821.0</ele><time>2026-05-02T10:04:20Z</time></trkpt><trkpt lat="42.23743026137722" lon="13.76987581712068"><ele>821.0000000000001</ele><time>2026-05-02T10:04:21Z</time></trkpt><trkpt lat="42.237347561800135" lon="13.7698978704556"><ele>821.0</ele><time>2026-05-02T10:04:22Z</time></trkpt><trkpt lat="42.23727073274282" lon="13.76992224483212"><ele>821.0</ele><time>2026-05-02T10:04:23Z</time></trkpt><trkpt lat="42.23716322803665" lon="13.769959548871459"><ele>821.0</ele><time>2026-05-02T10:04:25Z</time></trkpt><trkpt lat="42.23709687421928" lon="13.77001599499136"><ele>821.0000000000001</ele><time>2026-05-02T10:04:26Z</time></trkpt><trkpt lat="42.23702869863099" lon="13.7700451148584"><ele>821.0</ele><time>2026-05-02T10:17:24Z</time></trkpt><trkpt lat="42.23698772424169" lon="13.770153939586251"><ele>822.4</ele><time>2026-05-02T10:17:26Z</time></trkpt><trkpt lat="42.23693911997094" lon="13.77021423926451"><ele>823.8</ele><time>2026-05-02T10:17:28Z</time></trkpt><trkpt lat="42.236878102542335" lon="13.770295863569707"><ele>825.1999999999999</ele><time>2026-05-02T10:17:30Z</time></trkpt><trkpt lat="42.2367962505933" lon="13.770382499533559"><ele>826.5999999999999</ele><time>2026-05-02T10:17:32Z</time></trkpt><trkpt lat="42.236689114153364" lon="13.770444700012153"><ele>828.0</ele><time>2026-05-02T10:17:34Z</time></trkpt><trkpt lat="42.236564043823904" lon="13.770454910376383"><ele>828.0</ele><time>2026-05-02T10:17:36Z</time></trkpt><trkpt lat="42.236488989366634" lon="13.770477667668201"><ele>828.0</ele><time>2026-05-02T10:17:37Z</time></trkpt><trkpt lat="42.23640381867918" lon="13.770501541449919"><ele>828.0</ele><time>2026-05-02T10:17:38Z</time></trkpt><trkpt lat="42.23631861156546" lon="13.77054740855374"><ele>828.0</ele><time>2026-05-02T10:17:39Z</time></trkpt><trkpt lat="42.236230440525965" lon="13.77054773831609"><ele>828.0</ele><time>2026-05-02T10:17:40Z</time></trkpt><trkpt lat="42.236142433454006" lon="13.770570350801163"><ele>828.0</ele><time>2026-05-02T10:17:41Z</time></trkpt><trkpt lat="42.23607584560571" lon="13.770591254775502"><ele>829.75</ele><time>2026-05-02T10:17:42Z</time></trkpt><trkpt lat="42.236012090823834" lon="13.770613973557836"><ele>831.5</ele><time>2026-05-02T10:17:43Z</time></trkpt><trkpt lat="42.235910781115436" lon="13.770652792721533"><ele>833.25</ele><time>2026-05-02T10:17:45Z</time></trkpt><trkpt lat="42.23582858005361" lon="13.770686466064328"><ele>835.0</ele><time>2026-05-02T10:17:47Z</time></trkpt><trkpt lat="42.23585325488207" lon="13.77103169816242"><ele>836.0</ele><time>2026-05-02T10:17:50Z</time></trkpt><trkpt lat="42.23588615637498" lon="13.771177960918237"><ele>837.0</ele><time>2026-05-02T10:17:52Z</time></trkpt><trkpt lat="42.23588767059748" lon="13.771340235214756"><ele>838.0</ele><time>2026-05-02T10:17:53.999Z</time></trkpt><trkpt lat="42.23589302375381" lon="13.771431949088994"><ele>839.0</ele><time>2026-05-02T10:17:54.999Z</time></trkpt><trkpt lat="42.23590339415603" lon="13.771530331612453"><ele>840.0</ele><time>2026-05-02T10:17:55.999Z</time></trkpt><trkpt lat="42.23591234716427" lon="13.771666269782262"><ele>840.0</ele><time>2026-05-02T10:17:57.999Z</time></trkpt><trkpt lat="42.23589221301287" lon="13.771803712661495"><ele>840.0</ele><time>2026-05-02T10:17:59.999Z</time></trkpt><trkpt lat="42.23587346497781" lon="13.771887654273316"><ele>840.0</ele><time>2026-05-02T10:18:00.999Z</time></trkpt><trkpt lat="42.235848577324965" lon="13.771966119079416"><ele>840.0</ele><time>2026-05-02T10:18:01.999Z</time></trkpt><trkpt lat="42.23579200939481" lon="13.772097552654683"><ele>840.0</ele><time>2026-05-02T10:18:03.999Z</time></trkpt><trkpt lat="42.23572391659422" lon="13.772214798372973"><ele>840.0</ele><time>2026-05-02T10:18:05.999Z</time></trkpt><trkpt lat="42.23567323892023" lon="13.772271587387305"><ele>840.0</ele><time>2026-05-02T10:18:06.999Z</time></trkpt><trkpt lat="42.235623421795125" lon="13.772338272013313"><ele>840.0</ele><time>2026-05-02T10:18:07.999Z</time></trkpt><trkpt lat="42.23555936282105" lon="13.772465988072925"><ele>840.0</ele><time>2026-05-02T10:18:09.999Z</time></trkpt><trkpt lat="42.235500719089686" lon="13.77260321106646"><ele>840.0</ele><time>2026-05-02T10:18:11.999Z</time></trkpt><trkpt lat="42.23542726345051" lon="13.77273515202074"><ele>840.0</ele><time>2026-05-02T10:18:13.999Z</time></trkpt><trkpt lat="42.23537463005289" lon="13.772797841773782"><ele>840.0</ele><time>2026-05-02T10:18:14.999Z</time></trkpt><trkpt lat="42.23531514365353" lon="13.772853622851915"><ele>840.0</ele><time>2026-05-02T10:18:15.999Z</time></trkpt><trkpt lat="42.23525118342547" lon="13.77291422849969"><ele>840.0</ele><time>2026-05-02T10:18:16.999Z</time></trkpt><trkpt lat="42.23519531275842" lon="13.77297419915142"><ele>840.0</ele><time>2026-05-02T10:18:17.999Z</time></trkpt><trkpt lat="42.23515092656569" lon="13.773037165257358"><ele>840.0</ele><time>2026-05-02T10:18:18.999Z</time></trkpt><trkpt lat="42.23510774762644" lon="13.773106845972592"><ele>840.0</ele><time>2026-05-02T10:18:19.999Z</time></trkpt><trkpt lat="42.23507027740022" lon="13.773183432318291"><ele>840.0</ele><time>2026-05-02T10:18:20.999Z</time></trkpt><trkpt lat="42.23503313504669" lon="13.773324137590311"><ele>840.0</ele><time>2026-05-02T10:18:22.999Z</time></trkpt><trkpt lat="42.2350205793814" lon="13.773438411441383"><ele>840.0</ele><time>2026-05-02T10:18:24.999Z</time></trkpt><trkpt lat="42.23503996856069" lon="13.773550730624883"><ele>840.0</ele><time>2026-05-02T10:18:26.999Z</time></trkpt><trkpt lat="42.23506848531841" lon="13.773668868964156"><ele>840.0</ele><time>2026-05-02T10:18:28.999Z</time></trkpt><trkpt lat="42.235102903958094" lon="13.773832678909155"><ele>840.5714285714286</ele><time>2026-05-02T10:18:30.999Z</time></trkpt><trkpt lat="42.23513564439218" lon="13.773922765020904"><ele>841.1428571428571</ele><time>2026-05-02T10:18:31.999Z</time></trkpt><trkpt lat="42.235174584554166" lon="13.773993465749431"><ele>841.7142857142858</ele><time>2026-05-02T10:18:32.999Z</time></trkpt><trkpt lat="42.2352260830362" lon="13.774046253715996"><ele>842.2857142857142</ele><time>2026-05-02T10:18:33.999Z</time></trkpt><trkpt lat="42.23528189121143" lon="13.774087639975777"><ele>842.8571428571429</ele><time>2026-05-02T10:18:34.999Z</time></trkpt><trkpt lat="42.23533690954391" lon="13.774147904766256"><ele>843.4285714285714</ele><time>2026-05-02T10:18:35.999Z</time></trkpt><trkpt lat="42.23541311356891" lon="13.774254504678401"><ele>844.0</ele><time>2026-05-02T10:18:37.999Z</time></trkpt><trkpt lat="42.2354560629237" lon="13.774378957903824"><ele>844.8333333333333</ele><time>2026-05-02T10:18:39.999Z</time></trkpt><trkpt lat="42.2354707366395" lon="13.774467677233632"><ele>845.6666666666666</ele><time>2026-05-02T10:18:40.999Z</time></trkpt><trkpt lat="42.23548725417109" lon="13.77457636429309"><ele>846.5</ele><time>2026-05-02T10:18:41.999Z</time></trkpt><trkpt lat="42.23550979291154" lon="13.774688265530065"><ele>847.3333333333333</ele><time>2026-05-02T10:18:42.999Z</time></trkpt><trkpt lat="42.23553401833514" lon="13.774814220236921"><ele>848.1666666666666</ele><time>2026-05-02T10:18:43.999Z</time></trkpt><trkpt lat="42.235546898279686" lon="13.774922858383466"><ele>849.0</ele><time>2026-05-02T10:18:44.999Z</time></trkpt><trkpt lat="42.23554818376245" lon="13.775038371333006"><ele>849.0</ele><time>2026-05-02T10:18:45.999Z</time></trkpt><trkpt lat="42.23553509524089" lon="13.775169464625709"><ele>849.0</ele><time>2026-05-02T10:18:46.999Z</time></trkpt><trkpt lat="42.23551626605039" lon="13.775288005098242"><ele>849.0</ele><time>2026-05-02T10:18:47.999Z</time></trkpt><trkpt lat="42.23550384648274" lon="13.775385415193002"><ele>849.0</ele><time>2026-05-02T10:18:48.999Z</time></trkpt><trkpt lat="42.23549056094724" lon="13.775479489232627"><ele>849.0</ele><time>2026-05-02T10:18:49.999Z</time></trkpt><trkpt lat="42.2354693229651" lon="13.775581534744122"><ele>849.0</ele><time>2026-05-02T10:18:50.999Z</time></trkpt><trkpt lat="42.23543078820097" lon="13.775689694861807"><ele>847.8333333333334</ele><time>2026-05-02T10:18:51.999Z</time></trkpt><trkpt lat="42.235380915932595" lon="13.77579122155108"><ele>846.6666666666667</ele><time>2026-05-02T10:18:52.999Z</time></trkpt><trkpt lat="42.23532430327798" lon="13.77586915313689"><ele>845.5</ele><time>2026-05-02T10:18:53.999Z</time></trkpt><trkpt lat="42.23526420257621" lon="13.775944465227665"><ele>844.3333333333334</ele><time>2026-05-02T10:18:54.999Z</time></trkpt><trkpt lat="42.23519559076224" lon="13.776006557745815"><ele>843.1666666666667</ele><time>2026-05-02T10:18:55.999Z</time></trkpt><trkpt lat="42.23511208111089" lon="13.776054358986455"><ele>842.0</ele><time>2026-05-02T10:18:56.999Z</time></trkpt><trkpt lat="42.235027976907624" lon="13.776090754853048"><ele>843.6666666666667</ele><time>2026-05-02T10:18:57.999Z</time></trkpt><trkpt lat="42.23493659470403" lon="13.776120058448797"><ele>845.3333333333334</ele><time>2026-05-02T10:18:59Z</time></trkpt><trkpt lat="42.23484400669349" lon="13.776140770914328"><ele>847.0</ele><time>2026-05-02T10:19:00Z</time></trkpt><trkpt lat="42.23475680436568" lon="13.776163884412684"><ele>848.6666666666667</ele><time>2026-05-02T10:19:01Z</time></trkpt><trkpt lat="42.23467127492527" lon="13.776192576184778"><ele>850.3333333333334</ele><time>2026-05-02T10:19:02Z</time></trkpt><trkpt lat="42.23459799551042" lon="13.776210967457093"><ele>852.0</ele><time>2026-05-02T10:19:03Z</time></trkpt><trkpt lat="42.23452374091593" lon="13.776219962265209"><ele>852.0</ele><time>2026-05-02T10:19:04Z</time></trkpt><trkpt lat="42.23445663434539" lon="13.77624986183685"><ele>852.0</ele><time>2026-05-02T10:19:05Z</time></trkpt><trkpt lat="42.2344027918656" lon="13.77630919458148"><ele>852.0</ele><time>2026-05-02T10:19:06Z</time></trkpt><trkpt lat="42.23436799775635" lon="13.776457224705123"><ele>852.0</ele><time>2026-05-02T10:19:08Z</time></trkpt><trkpt lat="42.234383968384414" lon="13.776542416590663"><ele>852.0</ele><time>2026-05-02T10:19:09Z</time></trkpt><trkpt lat="42.23441772499639" lon="13.77663032344703"><ele>852.0</ele><time>2026-05-02T10:19:10Z</time></trkpt><trkpt lat="42.23446757756578" lon="13.776711545563678"><ele>852.0</ele><time>2026-05-02T10:19:11Z</time></trkpt><trkpt lat="42.234523349558636" lon="13.776801120280725"><ele>852.0</ele><time>2026-05-02T10:19:12Z</time></trkpt><trkpt lat="42.23456447107185" lon="13.776879356820203"><ele>852.0</ele><time>2026-05-02T10:19:13Z</time></trkpt><trkpt lat="42.23460408521379" lon="13.776965975373706"><ele>852.0</ele><time>2026-05-02T10:19:14Z</time></trkpt><trkpt lat="42.234648120308314" lon="13.777068026156819"><ele>852.0</ele><time>2026-05-02T10:19:15Z</time></trkpt><trkpt lat="42.23470390072569" lon="13.777160571169594"><ele>852.0</ele><time>2026-05-02T10:19:16Z</time></trkpt><trkpt lat="42.2347658145933" lon="13.777241114307708"><ele>850.0</ele><time>2026-05-02T10:19:17Z</time></trkpt><trkpt lat="42.23483415511254" lon="13.777308881197017"><ele>848.0</ele><time>2026-05-02T10:19:18Z</time></trkpt><trkpt lat="42.234890394961205" lon="13.77737341739811"><ele>846.0</ele><time>2026-05-02T10:19:19Z</time></trkpt><trkpt lat="42.234934237555194" lon="13.777438546681212"><ele>844.0</ele><time>2026-05-02T10:19:20Z</time></trkpt><trkpt lat="42.23498903595062" lon="13.777514383315069"><ele>842.0</ele><time>2026-05-02T10:19:21Z</time></trkpt><trkpt lat="42.23505455356262" lon="13.777600172467396"><ele>840.0</ele><time>2026-05-02T10:19:22Z</time></trkpt><trkpt lat="42.23510960424848" lon="13.777679847331282"><ele>841.4285714285714</ele><time>2026-05-02T10:19:23Z</time></trkpt><trkpt lat="42.23516314255338" lon="13.77775418937722"><ele>842.8571428571429</ele><time>2026-05-02T10:19:24Z</time></trkpt><trkpt lat="42.23520687019257" lon="13.777821688637648"><ele>844.2857142857142</ele><time>2026-05-02T10:19:25Z</time></trkpt><trkpt lat="42.23525138731932" lon="13.777905016049251"><ele>845.7142857142858</ele><time>2026-05-02T10:19:26Z</time></trkpt><trkpt lat="42.23528935114062" lon="13.777998448257446"><ele>847.1428571428571</ele><time>2026-05-02T10:19:27Z</time></trkpt><trkpt lat="42.235310320023785" lon="13.778091780499583"><ele>848.5714285714286</ele><time>2026-05-02T10:19:28Z</time></trkpt><trkpt lat="42.235323630953594" lon="13.778188191482652"><ele>850.0</ele><time>2026-05-02T10:19:29Z</time></trkpt><trkpt lat="42.23532103689318" lon="13.778378520618142"><ele>849.9999999999999</ele><time>2026-05-02T10:19:31Z</time></trkpt><trkpt lat="42.23531410758985" lon="13.778493862653583"><ele>850.0</ele><time>2026-05-02T10:19:32Z</time></trkpt><trkpt lat="42.23527503323538" lon="13.778652420078437"><ele>850.0</ele><time>2026-05-02T10:19:34Z</time></trkpt><trkpt lat="42.23524456151292" lon="13.778738860210126"><ele>850.0</ele><time>2026-05-02T10:19:35Z</time></trkpt><trkpt lat="42.235208689675936" lon="13.778818510686003"><ele>849.9999999999999</ele><time>2026-05-02T10:19:36Z</time></trkpt><trkpt lat="42.23516774160971" lon="13.778896494012209"><ele>850.0</ele><time>2026-05-02T10:19:37Z</time></trkpt><trkpt lat="42.23511641551311" lon="13.778968894916398"><ele>849.8333333333333</ele><time>2026-05-02T10:19:38Z</time></trkpt><trkpt lat="42.23505410699013" lon="13.779043111363158"><ele>849.6666666666666</ele><time>2026-05-02T10:19:39Z</time></trkpt><trkpt lat="42.23499240148446" lon="13.77911357176084"><ele>849.5</ele><time>2026-05-02T10:19:40Z</time></trkpt><trkpt lat="42.23492268924376" lon="13.779200269666866"><ele>849.3333333333333</ele><time>2026-05-02T10:19:41Z</time></trkpt><trkpt lat="42.234858249561405" lon="13.779266383399095"><ele>849.1666666666666</ele><time>2026-05-02T10:19:42Z</time></trkpt><trkpt lat="42.23478688395555" lon="13.779336875642906"><ele>849.0</ele><time>2026-05-02T10:19:43Z</time></trkpt><trkpt lat="42.23471565589686" lon="13.779413925153822"><ele>848.8000000000001</ele><time>2026-05-02T10:19:44Z</time></trkpt><trkpt lat="42.23463790268475" lon="13.779474275804676"><ele>848.6</ele><time>2026-05-02T10:19:45Z</time></trkpt><trkpt lat="42.23455467219697" lon="13.779543120942773"><ele>848.4</ele><time>2026-05-02T10:19:46Z</time></trkpt><trkpt lat="42.23447268680462" lon="13.779610777735469"><ele>848.2</ele><time>2026-05-02T10:19:47Z</time></trkpt><trkpt lat="42.23439664003978" lon="13.779684049409347"><ele>848.0</ele><time>2026-05-02T10:19:48Z</time></trkpt><trkpt lat="42.234325187228215" lon="13.779748890892304"><ele>848.0</ele><time>2026-05-02T10:19:49Z</time></trkpt><trkpt lat="42.23425638269609" lon="13.779814208443225"><ele>848.0</ele><time>2026-05-02T10:19:50Z</time></trkpt><trkpt lat="42.23419436696697" lon="13.779856894714381"><ele>848.0</ele><time>2026-05-02T10:19:51Z</time></trkpt><trkpt lat="42.23412757294655" lon="13.779888387940622"><ele>848.0</ele><time>2026-05-02T10:19:52Z</time></trkpt><trkpt lat="42.23406054730532" lon="13.779911446881506"><ele>848.0</ele><time>2026-05-02T10:19:52.999Z</time></trkpt><trkpt lat="42.23399725101693" lon="13.77993829950978"><ele>848.0</ele><time>2026-05-02T10:19:53.999Z</time></trkpt><trkpt lat="42.23393683354074" lon="13.779983411488733"><ele>848.0</ele><time>2026-05-02T10:19:54.999Z</time></trkpt><trkpt lat="42.23387403362058" lon="13.7801124103924"><ele>847.0</ele><time>2026-05-02T10:19:56.999Z</time></trkpt><trkpt lat="42.23389889746592" lon="13.780251282356726"><ele>846.0</ele><time>2026-05-02T10:19:58.999Z</time></trkpt><trkpt lat="42.2339768461678" lon="13.780398155621016"><ele>845.0</ele><time>2026-05-02T10:20:00.999Z</time></trkpt><trkpt lat="42.234007085026356" lon="13.780487572249204"><ele>844.0</ele><time>2026-05-02T10:20:01.999Z</time></trkpt><trkpt lat="42.2340255268146" lon="13.780648602309652"><ele>843.0</ele><time>2026-05-02T10:20:03.999Z</time></trkpt><trkpt lat="42.23402813319173" lon="13.780739781273535"><ele>843.0</ele><time>2026-05-02T10:20:04.999Z</time></trkpt><trkpt lat="42.234022441583" lon="13.780836889304378"><ele>843.0</ele><time>2026-05-02T10:20:05.999Z</time></trkpt><trkpt lat="42.234017691392665" lon="13.780928977460947"><ele>843.0</ele><time>2026-05-02T10:20:06.999Z</time></trkpt><trkpt lat="42.23401314438086" lon="13.781018073662167"><ele>843.0</ele><time>2026-05-02T10:20:07.999Z</time></trkpt><trkpt lat="42.234006626658676" lon="13.781104627398156"><ele>843.0</ele><time>2026-05-02T10:20:08.999Z</time></trkpt><trkpt lat="42.234006381941434" lon="13.781191254684757"><ele>843.0</ele><time>2026-05-02T10:20:09.999Z</time></trkpt><trkpt lat="42.233999523731796" lon="13.781294847668644"><ele>843.0</ele><time>2026-05-02T10:20:10.999Z</time></trkpt><trkpt lat="42.23400715814594" lon="13.781385002471373"><ele>843.1666666666666</ele><time>2026-05-02T10:20:11.999Z</time></trkpt><trkpt lat="42.234022749880516" lon="13.78151038128755"><ele>843.3333333333333</ele><time>2026-05-02T10:20:13.999Z</time></trkpt><trkpt lat="42.234034342644556" lon="13.78159879614177"><ele>843.5</ele><time>2026-05-02T10:20:15.999Z</time></trkpt><trkpt lat="42.234012218297586" lon="13.781683086713114"><ele>843.6666666666666</ele><time>2026-05-02T10:20:20.999Z</time></trkpt><trkpt lat="42.233942178581486" lon="13.781640613236908"><ele>843.8333333333333</ele><time>2026-05-02T10:20:25.999Z</time></trkpt><trkpt lat="42.233912618366354" lon="13.781503103012218"><ele>844.0</ele><time>2026-05-02T10:20:27.999Z</time></trkpt><trkpt lat="42.23387972755983" lon="13.781427485143407"><ele>844.0</ele><time>2026-05-02T10:20:40.999Z</time></trkpt><trkpt lat="42.23381212330591" lon="13.781279194245466"><ele>844.0</ele><time>2026-05-02T10:20:42.999Z</time></trkpt><trkpt lat="42.23377261805383" lon="13.781201915801036"><ele>844.0</ele><time>2026-05-02T10:20:43.999Z</time></trkpt><trkpt lat="42.23373012637888" lon="13.781118546214506"><ele>844.0</ele><time>2026-05-02T10:20:44.999Z</time></trkpt><trkpt lat="42.23367364483712" lon="13.78102055254522"><ele>844.0</ele><time>2026-05-02T10:20:45.999Z</time></trkpt><trkpt lat="42.233611377245936" lon="13.780938210685694"><ele>846.2</ele><time>2026-05-02T10:20:46.999Z</time></trkpt><trkpt lat="42.23355766804695" lon="13.780848282859177"><ele>848.4000000000001</ele><time>2026-05-02T10:20:47.999Z</time></trkpt><trkpt lat="42.233499189023135" lon="13.780755086446105"><ele>850.6</ele><time>2026-05-02T10:20:48.999Z</time></trkpt><trkpt lat="42.2334326306959" lon="13.780658174562774"><ele>852.8</ele><time>2026-05-02T10:20:49.999Z</time></trkpt><trkpt lat="42.233360230387255" lon="13.780565598994542"><ele>855.0</ele><time>2026-05-02T10:20:50.999Z</time></trkpt><trkpt lat="42.233293824064496" lon="13.78048917106655"><ele>855.0</ele><time>2026-05-02T10:20:51.999Z</time></trkpt><trkpt lat="42.23321541130354" lon="13.780413686759807"><ele>855.0</ele><time>2026-05-02T10:20:52.999Z</time></trkpt><trkpt lat="42.23315356724201" lon="13.780341524386586"><ele>855.0</ele><time>2026-05-02T10:20:53.999Z</time></trkpt><trkpt lat="42.23309752192581" lon="13.780265202459919"><ele>855.0</ele><time>2026-05-02T10:20:54.999Z</time></trkpt><trkpt lat="42.23305913909233" lon="13.780187514350457"><ele>855.0</ele><time>2026-05-02T10:20:55.999Z</time></trkpt><trkpt lat="42.233022840624066" lon="13.780105151341024"><ele>855.0</ele><time>2026-05-02T10:20:56.999Z</time></trkpt><trkpt lat="42.232981590775005" lon="13.780034528553985"><ele>857.4285714285714</ele><time>2026-05-02T10:20:57.999Z</time></trkpt><trkpt lat="42.23293169353528" lon="13.779957623120099"><ele>859.8571428571428</ele><time>2026-05-02T10:20:58.999Z</time></trkpt><trkpt lat="42.232886828274964" lon="13.779893968065762"><ele>862.2857142857142</ele><time>2026-05-02T10:20:59.999Z</time></trkpt><trkpt lat="42.23283151902983" lon="13.77982628057617"><ele>864.7142857142858</ele><time>2026-05-02T10:21:00.998Z</time></trkpt><trkpt lat="42.23277979425323" lon="13.779772086677974"><ele>867.1428571428571</ele><time>2026-05-02T10:21:01.998Z</time></trkpt><trkpt lat="42.23272533533414" lon="13.779720174863051"><ele>869.5714285714286</ele><time>2026-05-02T10:21:02.998Z</time></trkpt><trkpt lat="42.23266997563055" lon="13.779656232870737"><ele>872.0</ele><time>2026-05-02T10:21:05Z</time></trkpt><trkpt lat="42.23260193632498" lon="13.779605476285758"><ele>872.0000000000001</ele><time>2026-05-02T10:21:07Z</time></trkpt><trkpt lat="42.232520211517524" lon="13.779541695673121"><ele>872.0</ele><time>2026-05-02T10:21:09Z</time></trkpt><trkpt lat="42.232446213153644" lon="13.77950460567076"><ele>872.0</ele><time>2026-05-02T10:21:11Z</time></trkpt><trkpt lat="42.23236020214337" lon="13.77946131918954"><ele>872.0</ele><time>2026-05-02T10:21:19Z</time></trkpt><trkpt lat="42.23226570940357" lon="13.77942836206826"><ele>872.0000000000001</ele><time>2026-05-02T10:21:21Z</time></trkpt><trkpt lat="42.23220076553319" lon="13.779399016378266"><ele>872.0</ele><time>2026-05-02T10:21:22Z</time></trkpt><trkpt lat="42.232132340776765" lon="13.779370718560438"><ele>874.5000000000001</ele><time>2026-05-02T10:21:23Z</time></trkpt><trkpt lat="42.232059986230794" lon="13.779346598084233"><ele>877.0</ele><time>2026-05-02T10:21:24Z</time></trkpt><trkpt lat="42.23198587605482" lon="13.77931909870802"><ele>879.5</ele><time>2026-05-02T10:21:25Z</time></trkpt><trkpt lat="42.23191054490371" lon="13.779297522957853"><ele>882.0</ele><time>2026-05-02T10:21:26Z</time></trkpt><trkpt lat="42.231837091631874" lon="13.77927782476486"><ele>884.5000000000001</ele><time>2026-05-02T10:21:27Z</time></trkpt><trkpt lat="42.23175980258213" lon="13.779233968452168"><ele>887.0</ele><time>2026-05-02T10:21:28Z</time></trkpt><trkpt lat="42.23168193515525" lon="13.779186234518772"><ele>887.0000000000001</ele><time>2026-05-02T10:21:29Z</time></trkpt><trkpt lat="42.231614122453735" lon="13.779131841690159"><ele>887.0</ele><time>2026-05-02T10:21:30Z</time></trkpt><trkpt lat="42.231548022757" lon="13.779059248123039"><ele>887.0</ele><time>2026-05-02T10:21:31Z</time></trkpt><trkpt lat="42.23147994641058" lon="13.778984865888688"><ele>887.0</ele><time>2026-05-02T10:21:32Z</time></trkpt><trkpt lat="42.23141652630049" lon="13.778946431684632"><ele>887.0000000000001</ele><time>2026-05-02T10:21:33Z</time></trkpt><trkpt lat="42.23135520106095" lon="13.778917709393797"><ele>887.0</ele><time>2026-05-02T10:21:34Z</time></trkpt><trkpt lat="42.231304562013015" lon="13.778865335021171"><ele>888.1666666666667</ele><time>2026-05-02T10:21:35Z</time></trkpt><trkpt lat="42.23125365161111" lon="13.778729483515859"><ele>889.3333333333334</ele><time>2026-05-02T10:21:37Z</time></trkpt><trkpt lat="42.2312070637015" lon="13.778664697887526"><ele>890.5</ele><time>2026-05-02T10:21:38Z</time></trkpt><trkpt lat="42.23115227475321" lon="13.778599293711567"><ele>891.6666666666667</ele><time>2026-05-02T10:21:39Z</time></trkpt><trkpt lat="42.23109068939836" lon="13.77853937143052"><ele>892.8333333333334</ele><time>2026-05-02T10:21:40Z</time></trkpt><trkpt lat="42.23102518101696" lon="13.77849852148169"><ele>894.0</ele><time>2026-05-02T10:21:41Z</time></trkpt><trkpt lat="42.23089235591236" lon="13.77853380519296"><ele>894.0</ele><time>2026-05-02T10:21:43Z</time></trkpt><trkpt lat="42.23080041540236" lon="13.778585153766658"><ele>894.0000000000001</ele><time>2026-05-02T10:21:45Z</time></trkpt><trkpt lat="42.230716247824425" lon="13.778540028001613"><ele>894.0000000000001</ele><time>2026-05-02T10:21:46.999Z</time></trkpt><trkpt lat="42.23063805736082" lon="13.778471255712804"><ele>894.0</ele><time>2026-05-02T10:21:48.999Z</time></trkpt><trkpt lat="42.23055897220601" lon="13.778423022042105"><ele>894.0</ele><time>2026-05-02T10:21:50.999Z</time></trkpt><trkpt lat="42.2304470221901" lon="13.778374228563509"><ele>896.8571428571428</ele><time>2026-05-02T10:21:52.999Z</time></trkpt><trkpt lat="42.23038810883291" lon="13.77834407193154"><ele>899.7142857142858</ele><time>2026-05-02T10:21:53.999Z</time></trkpt><trkpt lat="42.230324520113825" lon="13.778302464141191"><ele>902.5714285714287</ele><time>2026-05-02T10:21:54.999Z</time></trkpt><trkpt lat="42.230254259481875" lon="13.77828388678332"><ele>905.4285714285714</ele><time>2026-05-02T10:21:55.999Z</time></trkpt><trkpt lat="42.23018604947526" lon="13.778275237742593"><ele>908.2857142857143</ele><time>2026-05-02T10:21:56.999Z</time></trkpt><trkpt lat="42.230120344574146" lon="13.778294179841833"><ele>911.1428571428572</ele><time>2026-05-02T10:21:57.999Z</time></trkpt><trkpt lat="42.23004872375895" lon="13.778314457026667"><ele>914.0000000000001</ele><time>2026-05-02T10:21:58.999Z</time></trkpt><trkpt lat="42.229932428717724" lon="13.778288646857725"><ele>914.0000000000001</ele><time>2026-05-02T10:22:00.999Z</time></trkpt><trkpt lat="42.22987426417793" lon="13.778249859323193"><ele>914.0</ele><time>2026-05-02T10:22:01.999Z</time></trkpt><trkpt lat="42.229814034592" lon="13.778199311938026"><ele>914.0000000000001</ele><time>2026-05-02T10:22:02.999Z</time></trkpt><trkpt lat="42.229756068035144" lon="13.778144426326797"><ele>914.0000000000001</ele><time>2026-05-02T10:22:03.999Z</time></trkpt><trkpt lat="42.229693838751714" lon="13.778082084146025"><ele>914.0</ele><time>2026-05-02T10:22:04.999Z</time></trkpt><trkpt lat="42.22962660869877" lon="13.778037424786843"><ele>914.0000000000001</ele><time>2026-05-02T10:22:05.999Z</time></trkpt><trkpt lat="42.229558025484195" lon="13.777992173875116"><ele>914.0000000000001</ele><time>2026-05-02T10:22:06.999Z</time></trkpt><trkpt lat="42.229482888865384" lon="13.777953059165535"><ele>914.6</ele><time>2026-05-02T10:22:07.999Z</time></trkpt><trkpt lat="42.22936646255723" lon="13.777886140755914"><ele>915.2</ele><time>2026-05-02T10:22:09.999Z</time></trkpt><trkpt lat="42.229272202239756" lon="13.777892374850484"><ele>915.8000000000001</ele><time>2026-05-02T10:22:11.999Z</time></trkpt><trkpt lat="42.22917311884042" lon="13.777961087012844"><ele>916.4000000000001</ele><time>2026-05-02T10:22:13.999Z</time></trkpt><trkpt lat="42.22910534096952" lon="13.777983089031272"><ele>917.0</ele><time>2026-05-02T10:22:14.999Z</time></trkpt><trkpt lat="42.22903699716507" lon="13.777983428060736"><ele>917.2</ele><time>2026-05-02T10:22:15.999Z</time></trkpt><trkpt lat="42.2289239226006" lon="13.777954955682844"><ele>917.4000000000001</ele><time>2026-05-02T10:22:17.999Z</time></trkpt><trkpt lat="42.22883847718153" lon="13.777905613884906"><ele>917.5999999999999</ele><time>2026-05-02T10:22:19.999Z</time></trkpt><trkpt lat="42.228777971567645" lon="13.777823540997812"><ele>917.8</ele><time>2026-05-02T10:22:21.999Z</time></trkpt><trkpt lat="42.228713832269264" lon="13.777711454362441"><ele>918.0</ele><time>2026-05-02T10:22:23.999Z</time></trkpt><trkpt lat="42.228640633629226" lon="13.777581190664462"><ele>918.2</ele><time>2026-05-02T10:22:25.999Z</time></trkpt><trkpt lat="42.22853277532791" lon="13.777493358684678"><ele>918.4</ele><time>2026-05-02T10:22:27.999Z</time></trkpt><trkpt lat="42.228456429935385" lon="13.777478918399726"><ele>918.6000000000001</ele><time>2026-05-02T10:22:28.999Z</time></trkpt><trkpt lat="42.2283810150515" lon="13.777484039925438"><ele>918.8000000000001</ele><time>2026-05-02T10:22:29.999Z</time></trkpt><trkpt lat="42.22829420878668" lon="13.777491792470574"><ele>919.0</ele><time>2026-05-02T10:22:30.999Z</time></trkpt><trkpt lat="42.228205862709615" lon="13.77750243989815"><ele>918.8000000000001</ele><time>2026-05-02T10:22:31.999Z</time></trkpt><trkpt lat="42.22811104881538" lon="13.777520594848589"><ele>918.6000000000001</ele><time>2026-05-02T10:22:32.999Z</time></trkpt><trkpt lat="42.228024190200266" lon="13.77753568560869"><ele>918.4</ele><time>2026-05-02T10:22:33.999Z</time></trkpt><trkpt lat="42.227944839965446" lon="13.777567584914053"><ele>918.2</ele><time>2026-05-02T10:22:34.999Z</time></trkpt><trkpt lat="42.22786438509863" lon="13.777615490883493"><ele>918.0</ele><time>2026-05-02T10:22:35.999Z</time></trkpt><trkpt lat="42.22777937956901" lon="13.777675583743097"><ele>918.2</ele><time>2026-05-02T10:22:36.999Z</time></trkpt><trkpt lat="42.22769965817503" lon="13.777746360071031"><ele>918.4</ele><time>2026-05-02T10:22:37.999Z</time></trkpt><trkpt lat="42.22760026663199" lon="13.777784226841554"><ele>918.6000000000001</ele><time>2026-05-02T10:22:38.999Z</time></trkpt><trkpt lat="42.227530319493795" lon="13.777848714483149"><ele>918.8000000000001</ele><time>2026-05-02T10:22:39.999Z</time></trkpt><trkpt lat="42.22745449311314" lon="13.777914759092292"><ele>919.0</ele><time>2026-05-02T10:22:40.999Z</time></trkpt><trkpt lat="42.227379437292186" lon="13.777982318161971"><ele>919.0</ele><time>2026-05-02T10:22:41.999Z</time></trkpt><trkpt lat="42.227300511697344" lon="13.778059233953568"><ele>919.0000000000001</ele><time>2026-05-02T10:22:42.999Z</time></trkpt><trkpt lat="42.22721627538266" lon="13.778142036203448"><ele>919.0000000000001</ele><time>2026-05-02T10:22:43.999Z</time></trkpt><trkpt lat="42.227127411776564" lon="13.77822938695044"><ele>919.0</ele><time>2026-05-02T10:22:44.999Z</time></trkpt><trkpt lat="42.22703651989192" lon="13.778316975633576"><ele>919.0</ele><time>2026-05-02T10:22:45.999Z</time></trkpt><trkpt lat="42.22694404809491" lon="13.778396587122417"><ele>919.0</ele><time>2026-05-02T10:22:46.999Z</time></trkpt><trkpt lat="42.22684242611234" lon="13.77847994179289"><ele>919.0</ele><time>2026-05-02T10:22:47.999Z</time></trkpt><trkpt lat="42.22674436666608" lon="13.778561754598318"><ele>919.0</ele><time>2026-05-02T10:22:48.999Z</time></trkpt><trkpt lat="42.22664937097739" lon="13.778643192781624"><ele>919.0</ele><time>2026-05-02T10:22:49.999Z</time></trkpt><trkpt lat="42.22656105443209" lon="13.778721385344033"><ele>917.0</ele><time>2026-05-02T10:22:50.999Z</time></trkpt><trkpt lat="42.22647093816739" lon="13.778803965118737"><ele>915.0</ele><time>2026-05-02T10:22:51.999Z</time></trkpt><trkpt lat="42.226369410300975" lon="13.778901535112027"><ele>913.0</ele><time>2026-05-02T10:22:52.999Z</time></trkpt><trkpt lat="42.22627452690273" lon="13.779003739412087"><ele>911.0</ele><time>2026-05-02T10:22:53.999Z</time></trkpt><trkpt lat="42.226186971339224" lon="13.779107786005815"><ele>911.0</ele><time>2026-05-02T10:22:54.999Z</time></trkpt><trkpt lat="42.22610411039374" lon="13.779209722941664"><ele>911.0</ele><time>2026-05-02T10:22:55.999Z</time></trkpt><trkpt lat="42.22603295947029" lon="13.779336103126893"><ele>911.0</ele><time>2026-05-02T10:22:56.999Z</time></trkpt><trkpt lat="42.22595738236014" lon="13.779448735226413"><ele>911.0</ele><time>2026-05-02T10:22:57.998Z</time></trkpt><trkpt lat="42.225883254380776" lon="13.779567971964644"><ele>912.1999999999999</ele><time>2026-05-02T10:22:58.998Z</time></trkpt><trkpt lat="42.225797637080106" lon="13.779678920417126"><ele>913.3999999999999</ele><time>2026-05-02T10:22:59.998Z</time></trkpt><trkpt lat="42.22572110080935" lon="13.7797929567951"><ele>914.6</ele><time>2026-05-02T10:23:00.998Z</time></trkpt><trkpt lat="42.22565978518537" lon="13.779914972380546"><ele>915.8</ele><time>2026-05-02T10:23:01.998Z</time></trkpt><trkpt lat="42.22558469669691" lon="13.780018440043694"><ele>917.0</ele><time>2026-05-02T10:23:02.998Z</time></trkpt><trkpt lat="42.22550842844596" lon="13.780121062912253"><ele>915.0</ele><time>2026-05-02T10:23:03.998Z</time></trkpt><trkpt lat="42.22542554572826" lon="13.780215041698517"><ele>913.0</ele><time>2026-05-02T10:23:04.998Z</time></trkpt><trkpt lat="42.225365252504744" lon="13.780325593622194"><ele>911.0</ele><time>2026-05-02T10:23:05.998Z</time></trkpt><trkpt lat="42.22530767192089" lon="13.780433104713863"><ele>909.0</ele><time>2026-05-02T10:23:06.998Z</time></trkpt><trkpt lat="42.22525446079496" lon="13.78053562783389"><ele>907.0</ele><time>2026-05-02T10:23:07.998Z</time></trkpt><trkpt lat="42.22521891289815" lon="13.780646197441765"><ele>906.9999999999999</ele><time>2026-05-02T10:23:08.998Z</time></trkpt><trkpt lat="42.22517341431997" lon="13.7807375781911"><ele>907.0</ele><time>2026-05-02T10:23:10Z</time></trkpt><trkpt lat="42.225111502610716" lon="13.780819157964524"><ele>907.0</ele><time>2026-05-02T10:23:11Z</time></trkpt><trkpt lat="42.22505109286123" lon="13.780903255860313"><ele>907.0</ele><time>2026-05-02T10:23:12Z</time></trkpt><trkpt lat="42.22498585608072" lon="13.780983965819262"><ele>906.9999999999999</ele><time>2026-05-02T10:23:13Z</time></trkpt><trkpt lat="42.22492175561233" lon="13.781064150090918"><ele>907.0</ele><time>2026-05-02T10:23:14Z</time></trkpt><trkpt lat="42.224860249547866" lon="13.781140745302086"><ele>903.8333333333333</ele><time>2026-05-02T10:23:14.999Z</time></trkpt><trkpt lat="42.22480703332622" lon="13.781207016991328"><ele>900.6666666666666</ele><time>2026-05-02T10:23:15.999Z</time></trkpt><trkpt lat="42.22475714208871" lon="13.781273967881024"><ele>897.5</ele><time>2026-05-02T10:23:16.999Z</time></trkpt><trkpt lat="42.22471344008995" lon="13.781338265894242"><ele>894.3333333333333</ele><time>2026-05-02T10:23:17.999Z</time></trkpt><trkpt lat="42.22466673121789" lon="13.781494202890702"><ele>891.1666666666666</ele><time>2026-05-02T10:23:20Z</time></trkpt><trkpt lat="42.224645824483346" lon="13.781581047590695"><ele>888.0</ele><time>2026-05-02T10:23:21Z</time></trkpt><trkpt lat="42.224615041959346" lon="13.78167314274891"><ele>888.0</ele><time>2026-05-02T10:23:21.999Z</time></trkpt><trkpt lat="42.22459774652879" lon="13.781771764679762"><ele>888.0</ele><time>2026-05-02T10:23:22.999Z</time></trkpt><trkpt lat="42.22457617688839" lon="13.781868601711878"><ele>888.0</ele><time>2026-05-02T10:23:23.999Z</time></trkpt><trkpt lat="42.224536578392446" lon="13.781960987709647"><ele>888.0</ele><time>2026-05-02T10:23:24.999Z</time></trkpt><trkpt lat="42.224483779015735" lon="13.782053563214744"><ele>888.0</ele><time>2026-05-02T10:23:25.999Z</time></trkpt><trkpt lat="42.224432004711076" lon="13.782153818720044"><ele>888.0</ele><time>2026-05-02T10:23:26.999Z</time></trkpt><trkpt lat="42.22438805531628" lon="13.782260077026576"><ele>887.7142857142857</ele><time>2026-05-02T10:23:27.999Z</time></trkpt><trkpt lat="42.22434876871183" lon="13.782365309784648"><ele>887.4285714285714</ele><time>2026-05-02T10:23:28.999Z</time></trkpt><trkpt lat="42.22431695943726" lon="13.782466745951615"><ele>887.1428571428571</ele><time>2026-05-02T10:23:29.999Z</time></trkpt><trkpt lat="42.224292740883484" lon="13.782560132882962"><ele>886.8571428571429</ele><time>2026-05-02T10:23:30.999Z</time></trkpt><trkpt lat="42.22427887963247" lon="13.782652213255203"><ele>886.5714285714287</ele><time>2026-05-02T10:23:31.999Z</time></trkpt><trkpt lat="42.22426979864773" lon="13.78273798538035"><ele>886.2857142857143</ele><time>2026-05-02T10:23:32.999Z</time></trkpt><trkpt lat="42.22426643495544" lon="13.782822952468436"><ele>886.0</ele><time>2026-05-02T10:23:33.999Z</time></trkpt><trkpt lat="42.22424868161699" lon="13.782944147528939"><ele>886.0</ele><time>2026-05-02T10:23:35.999Z</time></trkpt><trkpt lat="42.22415691634014" lon="13.782881320970606"><ele>885.9999999999999</ele><time>2026-05-02T10:23:38.999Z</time></trkpt><trkpt lat="42.22408360223482" lon="13.782712289562086"><ele>885.9999999999999</ele><time>2026-05-02T10:23:40.999Z</time></trkpt><trkpt lat="42.22403070658837" lon="13.782604068982025"><ele>886.0</ele><time>2026-05-02T10:23:41.999Z</time></trkpt><trkpt lat="42.22398237213098" lon="13.782500243658802"><ele>886.0</ele><time>2026-05-02T10:23:42.999Z</time></trkpt><trkpt lat="42.22393985947047" lon="13.782390809755189"><ele>881.3333333333333</ele><time>2026-05-02T10:23:43.999Z</time></trkpt><trkpt lat="42.223901757684295" lon="13.78227366880924"><ele>876.6666666666666</ele><time>2026-05-02T10:23:44.999Z</time></trkpt><trkpt lat="42.22384876947417" lon="13.782175779317138"><ele>872.0</ele><time>2026-05-02T10:23:45.999Z</time></trkpt><trkpt lat="42.22382051811157" lon="13.782078319519508"><ele>867.3333333333333</ele><time>2026-05-02T10:23:46.999Z</time></trkpt><trkpt lat="42.223790474076935" lon="13.782002964080093"><ele>862.6666666666666</ele><time>2026-05-02T10:23:47.999Z</time></trkpt><trkpt lat="42.22374292531885" lon="13.781879118157882"><ele>858.0</ele><time>2026-05-02T10:23:49.999Z</time></trkpt><trkpt lat="42.223674656979846" lon="13.781835346386378"><ele>858.0</ele><time>2026-05-02T10:23:51.999Z</time></trkpt><trkpt lat="42.22361734712924" lon="13.781912490155117"><ele>858.0</ele><time>2026-05-02T10:23:52.999Z</time></trkpt><trkpt lat="42.22362829984379" lon="13.782020142256062"><ele>858.0</ele><time>2026-05-02T10:23:53.999Z</time></trkpt><trkpt lat="42.22361283720753" lon="13.782121568419075"><ele>858.0</ele><time>2026-05-02T10:23:54.999Z</time></trkpt><trkpt lat="42.22359397822633" lon="13.782233085108274"><ele>858.0</ele><time>2026-05-02T10:23:55.999Z</time></trkpt><trkpt lat="42.22357933267287" lon="13.782341231821608"><ele>858.0</ele><time>2026-05-02T10:23:56.999Z</time></trkpt><trkpt lat="42.223584481467" lon="13.782435623438797"><ele>858.0</ele><time>2026-05-02T10:23:57.999Z</time></trkpt><trkpt lat="42.223563327891156" lon="13.782515762408513"><ele>858.0</ele><time>2026-05-02T10:23:58.999Z</time></trkpt><trkpt lat="42.2235376902589" lon="13.78262725096567"><ele>858.0</ele><time>2026-05-02T10:24:00.999Z</time></trkpt><trkpt lat="42.223475850474905" lon="13.78257332362591"><ele>858.0</ele><time>2026-05-02T10:24:02.999Z</time></trkpt><trkpt lat="42.223411279206644" lon="13.78241390103198"><ele>858.0</ele><time>2026-05-02T10:24:04.999Z</time></trkpt><trkpt lat="42.22337633467323" lon="13.782319409471443"><ele>858.0</ele><time>2026-05-02T10:24:05.999Z</time></trkpt><trkpt lat="42.223343211125545" lon="13.782229234544106"><ele>858.0</ele><time>2026-05-02T10:24:06.999Z</time></trkpt><trkpt lat="42.223300130411836" lon="13.782073565158361"><ele>858.0</ele><time>2026-05-02T10:24:08.999Z</time></trkpt><trkpt lat="42.22324927607944" lon="13.781971169972888"><ele>858.0</ele><time>2026-05-02T10:24:10.999Z</time></trkpt><trkpt lat="42.22317520575174" lon="13.781961098785597"><ele>858.0</ele><time>2026-05-02T10:24:11.999Z</time></trkpt><trkpt lat="42.223126676426325" lon="13.782090500705468"><ele>858.0</ele><time>2026-05-02T10:24:12.999Z</time></trkpt><trkpt lat="42.22305850550874" lon="13.7821910380337"><ele>857.0</ele><time>2026-05-02T10:24:13.999Z</time></trkpt><trkpt lat="42.22299347230528" lon="13.782300747586337"><ele>856.0</ele><time>2026-05-02T10:24:14.999Z</time></trkpt><trkpt lat="42.22294369735851" lon="13.782414750587515"><ele>855.0</ele><time>2026-05-02T10:24:15.999Z</time></trkpt><trkpt lat="42.2228763829801" lon="13.782479363333188"><ele>854.0</ele><time>2026-05-02T10:24:16.999Z</time></trkpt><trkpt lat="42.222805164320654" lon="13.782509436553179"><ele>853.0</ele><time>2026-05-02T10:24:17.999Z</time></trkpt><trkpt lat="42.22274198176026" lon="13.782499289563559"><ele>852.0</ele><time>2026-05-02T10:24:18.999Z</time></trkpt><trkpt lat="42.22269601447966" lon="13.78242911920461"><ele>852.0</ele><time>2026-05-02T10:24:19.999Z</time></trkpt><trkpt lat="42.22261044245531" lon="13.782367328430814"><ele>852.0</ele><time>2026-05-02T10:24:21.999Z</time></trkpt><trkpt lat="42.22255489122078" lon="13.782307060482717"><ele>852.0</ele><time>2026-05-02T10:24:22.999Z</time></trkpt><trkpt lat="42.22248062716742" lon="13.78226133363999"><ele>852.0</ele><time>2026-05-02T10:24:23.999Z</time></trkpt><trkpt lat="42.22240757196488" lon="13.782166157246014"><ele>852.0</ele><time>2026-05-02T10:24:24.999Z</time></trkpt><trkpt lat="42.222326858222324" lon="13.782087985078572"><ele>852.8333333333334</ele><time>2026-05-02T10:24:25.999Z</time></trkpt><trkpt lat="42.22225552250026" lon="13.782010578542405"><ele>853.6666666666667</ele><time>2026-05-02T10:24:26.999Z</time></trkpt><trkpt lat="42.222193340579125" lon="13.781940158892686"><ele>854.5</ele><time>2026-05-02T10:24:27.999Z</time></trkpt><trkpt lat="42.22213223407248" lon="13.781873230434247"><ele>855.3333333333334</ele><time>2026-05-02T10:24:28.999Z</time></trkpt><trkpt lat="42.22206765677081" lon="13.781804226850053"><ele>856.1666666666667</ele><time>2026-05-02T10:24:29.999Z</time></trkpt><trkpt lat="42.22201684917047" lon="13.781732993032549"><ele>857.0</ele><time>2026-05-02T10:24:30.999Z</time></trkpt><trkpt lat="42.221977553636115" lon="13.781652262750654"><ele>857.0000000000001</ele><time>2026-05-02T10:24:31.999Z</time></trkpt><trkpt lat="42.22194840064589" lon="13.781564186801926"><ele>857.0</ele><time>2026-05-02T10:24:32.999Z</time></trkpt><trkpt lat="42.221915563168224" lon="13.781471084533857"><ele>857.0</ele><time>2026-05-02T10:24:33.999Z</time></trkpt><trkpt lat="42.22188348182178" lon="13.781374552820036"><ele>857.0</ele><time>2026-05-02T10:24:34.999Z</time></trkpt><trkpt lat="42.22184850418296" lon="13.781279185185515"><ele>857.0000000000001</ele><time>2026-05-02T10:24:35.999Z</time></trkpt><trkpt lat="42.22181636098038" lon="13.781173064602045"><ele>857.0</ele><time>2026-05-02T10:24:36.999Z</time></trkpt><trkpt lat="42.221790442969365" lon="13.781057922654782"><ele>856.3333333333334</ele><time>2026-05-02T10:24:37.999Z</time></trkpt><trkpt lat="42.221766522902165" lon="13.780948601841374"><ele>855.6666666666667</ele><time>2026-05-02T10:24:38.999Z</time></trkpt><trkpt lat="42.22174404759586" lon="13.78082938896084"><ele>855.0</ele><time>2026-05-02T10:24:39.999Z</time></trkpt><trkpt lat="42.22173323318089" lon="13.780712094050692"><ele>854.3333333333333</ele><time>2026-05-02T10:24:40.999Z</time></trkpt><trkpt lat="42.22169996830389" lon="13.780597368188815"><ele>853.6666666666666</ele><time>2026-05-02T10:24:41.999Z</time></trkpt><trkpt lat="42.221664127729696" lon="13.780491921849139"><ele>853.0</ele><time>2026-05-02T10:24:42.999Z</time></trkpt><trkpt lat="42.221616353491136" lon="13.78039411823653"><ele>852.9999999999999</ele><time>2026-05-02T10:24:43.999Z</time></trkpt><trkpt lat="42.22158219617894" lon="13.780290403418386"><ele>853.0</ele><time>2026-05-02T10:24:44.999Z</time></trkpt><trkpt lat="42.221539889566166" lon="13.780181271116739"><ele>853.0</ele><time>2026-05-02T10:24:45.999Z</time></trkpt><trkpt lat="42.221501014259076" lon="13.780080235021138"><ele>853.0</ele><time>2026-05-02T10:24:46.999Z</time></trkpt><trkpt lat="42.22146648386899" lon="13.77997922664223"><ele>852.9999999999999</ele><time>2026-05-02T10:24:47.999Z</time></trkpt><trkpt lat="42.22143942771101" lon="13.779893760046255"><ele>853.0</ele><time>2026-05-02T10:24:48.999Z</time></trkpt><trkpt lat="42.22140842186694" lon="13.779813108296775"><ele>850.0</ele><time>2026-05-02T10:24:49.999Z</time></trkpt><trkpt lat="42.22138275688485" lon="13.779699989994585"><ele>847.0</ele><time>2026-05-02T10:24:51.999Z</time></trkpt><trkpt lat="42.221256425317776" lon="13.779772273106312"><ele>844.0</ele><time>2026-05-02T10:24:53.999Z</time></trkpt><trkpt lat="42.22118833940562" lon="13.779798651574339"><ele>841.0</ele><time>2026-05-02T10:24:54.999Z</time></trkpt><trkpt lat="42.22111525364975" lon="13.779853993349429"><ele>838.0</ele><time>2026-05-02T10:24:55.999Z</time></trkpt><trkpt lat="42.22103458042628" lon="13.779918233141183"><ele>838.0</ele><time>2026-05-02T10:24:56.999Z</time></trkpt><trkpt lat="42.22095708302362" lon="13.779983093682546"><ele>838.0</ele><time>2026-05-02T10:24:57.999Z</time></trkpt><trkpt lat="42.220877135766536" lon="13.780048283235976"><ele>838.0</ele><time>2026-05-02T10:24:58.999Z</time></trkpt><trkpt lat="42.22079083989551" lon="13.780117078536682"><ele>838.0</ele><time>2026-05-02T10:24:59.999Z</time></trkpt><trkpt lat="42.22069656376121" lon="13.780189559736533"><ele>838.0</ele><time>2026-05-02T10:25:00.999Z</time></trkpt><trkpt lat="42.220600104155906" lon="13.780263277861021"><ele>837.8</ele><time>2026-05-02T10:25:01.999Z</time></trkpt><trkpt lat="42.22049965719456" lon="13.780336018937266"><ele>837.5999999999999</ele><time>2026-05-02T10:25:02.998Z</time></trkpt><trkpt lat="42.22039624832341" lon="13.78039563478921"><ele>837.4000000000001</ele><time>2026-05-02T10:25:03.998Z</time></trkpt><trkpt lat="42.22028827097751" lon="13.780441972756995"><ele>837.2</ele><time>2026-05-02T10:25:04.998Z</time></trkpt><trkpt lat="42.22018356948648" lon="13.780469181456718"><ele>837.0</ele><time>2026-05-02T10:25:05.998Z</time></trkpt><trkpt lat="42.22009295873825" lon="13.780491219270774"><ele>837.0</ele><time>2026-05-02T10:25:06.998Z</time></trkpt><trkpt lat="42.22002116139482" lon="13.780493832001095"><ele>837.0</ele><time>2026-05-02T10:25:07.998Z</time></trkpt><trkpt lat="42.21995105826493" lon="13.780478274619064"><ele>837.0</ele><time>2026-05-02T10:25:08.998Z</time></trkpt><trkpt lat="42.219869272263026" lon="13.780498698224891"><ele>837.0</ele><time>2026-05-02T10:25:09.998Z</time></trkpt><trkpt lat="42.21978305563102" lon="13.780388563689463"><ele>837.0</ele><time>2026-05-02T10:25:10.998Z</time></trkpt><trkpt lat="42.21969183952722" lon="13.780352938495566"><ele>837.0</ele><time>2026-05-02T10:25:11.998Z</time></trkpt><trkpt lat="42.21959975048372" lon="13.78030553082853"><ele>835.2</ele><time>2026-05-02T10:25:12.998Z</time></trkpt><trkpt lat="42.21952084685831" lon="13.780246615888254"><ele>833.4000000000001</ele><time>2026-05-02T10:25:13.998Z</time></trkpt><trkpt lat="42.219442671531134" lon="13.780186296447022"><ele>831.5999999999999</ele><time>2026-05-02T10:25:14.998Z</time></trkpt><trkpt lat="42.21938408291712" lon="13.780098017383397"><ele>829.8</ele><time>2026-05-02T10:25:16Z</time></trkpt><trkpt lat="42.21931835632947" lon="13.780013486910816"><ele>828.0</ele><time>2026-05-02T10:25:17Z</time></trkpt><trkpt lat="42.21925045889292" lon="13.77992616464974"><ele>823.5999999999999</ele><time>2026-05-02T10:25:18Z</time></trkpt><trkpt lat="42.219178922412375" lon="13.779864497602304"><ele>819.1999999999999</ele><time>2026-05-02T10:25:19Z</time></trkpt><trkpt lat="42.219131376204366" lon="13.779773173102175"><ele>814.8</ele><time>2026-05-02T10:25:20Z</time></trkpt><trkpt lat="42.219056043966695" lon="13.779696381286065"><ele>810.4</ele><time>2026-05-02T10:25:21Z</time></trkpt><trkpt lat="42.218970600460466" lon="13.779640687014606"><ele>806.0</ele><time>2026-05-02T10:25:22Z</time></trkpt><trkpt lat="42.218875190735844" lon="13.779595755471682"><ele>803.1999999999999</ele><time>2026-05-02T10:25:23Z</time></trkpt><trkpt lat="42.2187691785889" lon="13.779576272967853"><ele>800.4</ele><time>2026-05-02T10:25:24Z</time></trkpt><trkpt lat="42.21866464691332" lon="13.779604756823936"><ele>797.6</ele><time>2026-05-02T10:25:25Z</time></trkpt><trkpt lat="42.21856414023747" lon="13.779598971325617"><ele>794.8</ele><time>2026-05-02T10:25:26Z</time></trkpt><trkpt lat="42.21845981971143" lon="13.779646573738907"><ele>792.0</ele><time>2026-05-02T10:25:27Z</time></trkpt><trkpt lat="42.218360137570095" lon="13.779696807695844"><ele>792.0</ele><time>2026-05-02T10:25:28Z</time></trkpt><trkpt lat="42.21825899778227" lon="13.779744722160567"><ele>792.0</ele><time>2026-05-02T10:25:29Z</time></trkpt><trkpt lat="42.21816109404799" lon="13.779780911027306"><ele>792.0</ele><time>2026-05-02T10:25:30Z</time></trkpt><trkpt lat="42.2180573726873" lon="13.779818415104906"><ele>792.0</ele><time>2026-05-02T10:25:31Z</time></trkpt><trkpt lat="42.21795735602121" lon="13.77985410275709"><ele>792.0</ele><time>2026-05-02T10:25:32Z</time></trkpt><trkpt lat="42.217867834225366" lon="13.77988507392264"><ele>791.0</ele><time>2026-05-02T10:25:33Z</time></trkpt><trkpt lat="42.21777601108744" lon="13.779905977999167"><ele>790.0</ele><time>2026-05-02T10:25:34Z</time></trkpt><trkpt lat="42.217688602265376" lon="13.779890428041671"><ele>789.0</ele><time>2026-05-02T10:25:35Z</time></trkpt><trkpt lat="42.21761935994696" lon="13.77982102197523"><ele>788.0</ele><time>2026-05-02T10:25:36Z</time></trkpt><trkpt lat="42.21755665324742" lon="13.779737864738504"><ele>787.0</ele><time>2026-05-02T10:25:37Z</time></trkpt><trkpt lat="42.21751549816974" lon="13.779635181839778"><ele>786.0</ele><time>2026-05-02T10:25:38Z</time></trkpt><trkpt lat="42.2174989550173" lon="13.779511639389982"><ele>786.0</ele><time>2026-05-02T10:25:39Z</time></trkpt><trkpt lat="42.217476853826746" lon="13.779375605238435"><ele>786.0</ele><time>2026-05-02T10:25:40Z</time></trkpt><trkpt lat="42.21744985201535" lon="13.779235611061845"><ele>786.0</ele><time>2026-05-02T10:25:41Z</time></trkpt><trkpt lat="42.217425497439685" lon="13.779098314594638"><ele>786.0</ele><time>2026-05-02T10:25:42Z</time></trkpt><trkpt lat="42.217397365887095" lon="13.778966454208236"><ele>786.0</ele><time>2026-05-02T10:25:43Z</time></trkpt><trkpt lat="42.21736333232612" lon="13.778835875272783"><ele>783.5999999999999</ele><time>2026-05-02T10:25:44Z</time></trkpt><trkpt lat="42.217337340100634" lon="13.77869369097396"><ele>781.2</ele><time>2026-05-02T10:25:45Z</time></trkpt><trkpt lat="42.21727217807084" lon="13.778578098239946"><ele>778.8</ele><time>2026-05-02T10:25:46Z</time></trkpt><trkpt lat="42.21721547669106" lon="13.778447250902085"><ele>776.4000000000001</ele><time>2026-05-02T10:25:47Z</time></trkpt><trkpt lat="42.217162622894456" lon="13.778316132749193"><ele>774.0</ele><time>2026-05-02T10:25:48Z</time></trkpt><trkpt lat="42.21710961987952" lon="13.778186753054001"><ele>770.4000000000001</ele><time>2026-05-02T10:25:49Z</time></trkpt><trkpt lat="42.21706059164705" lon="13.778063535281829"><ele>766.8</ele><time>2026-05-02T10:25:49.999Z</time></trkpt><trkpt lat="42.21700850424397" lon="13.777940571750799"><ele>763.2</ele><time>2026-05-02T10:25:50.999Z</time></trkpt><trkpt lat="42.21695842815101" lon="13.777832314234985"><ele>759.5999999999999</ele><time>2026-05-02T10:25:51.999Z</time></trkpt><trkpt lat="42.216894199562475" lon="13.777726129282332"><ele>756.0</ele><time>2026-05-02T10:25:52.999Z</time></trkpt><trkpt lat="42.21682914291519" lon="13.777630582322384"><ele>751.5</ele><time>2026-05-02T10:25:53.999Z</time></trkpt><trkpt lat="42.21674450426262" lon="13.777552284903"><ele>747.0</ele><time>2026-05-02T10:25:54.999Z</time></trkpt><trkpt lat="42.21663871541266" lon="13.777485860947719"><ele>742.5</ele><time>2026-05-02T10:25:55.999Z</time></trkpt><trkpt lat="42.21652691066616" lon="13.777435143357831"><ele>738.0</ele><time>2026-05-02T10:25:56.999Z</time></trkpt><trkpt lat="42.21641572800227" lon="13.777384965519056"><ele>735.75</ele><time>2026-05-02T10:25:57.999Z</time></trkpt><trkpt lat="42.21630970537926" lon="13.77732802892176"><ele>733.5</ele><time>2026-05-02T10:25:58.999Z</time></trkpt><trkpt lat="42.216208713566395" lon="13.777259880424387"><ele>731.25</ele><time>2026-05-02T10:25:59.999Z</time></trkpt><trkpt lat="42.21610493583559" lon="13.777189131886935"><ele>729.0</ele><time>2026-05-02T10:26:00.999Z</time></trkpt><trkpt lat="42.216002527009515" lon="13.777117545175392"><ele>729.0</ele><time>2026-05-02T10:26:01.999Z</time></trkpt><trkpt lat="42.215900371853024" lon="13.777046486940138"><ele>729.0</ele><time>2026-05-02T10:26:02.999Z</time></trkpt><trkpt lat="42.215796603555965" lon="13.776974670756832"><ele>729.0</ele><time>2026-05-02T10:26:03.999Z</time></trkpt><trkpt lat="42.215692282205005" lon="13.776908455965005"><ele>729.0</ele><time>2026-05-02T10:26:04.999Z</time></trkpt><trkpt lat="42.21558321039754" lon="13.776852770620835"><ele>725.0</ele><time>2026-05-02T10:26:05.999Z</time></trkpt><trkpt lat="42.21547295676665" lon="13.776818462992823"><ele>721.0</ele><time>2026-05-02T10:26:06.999Z</time></trkpt><trkpt lat="42.21537389018178" lon="13.77675172245178"><ele>717.0</ele><time>2026-05-02T10:26:07.999Z</time></trkpt><trkpt lat="42.21527037714643" lon="13.776735307534004"><ele>713.0</ele><time>2026-05-02T10:26:08.999Z</time></trkpt><trkpt lat="42.2151775084154" lon="13.776689019422713"><ele>709.0</ele><time>2026-05-02T10:26:09.999Z</time></trkpt><trkpt lat="42.215081460130115" lon="13.776700594272024"><ele>709.0</ele><time>2026-05-02T10:26:10.999Z</time></trkpt><trkpt lat="42.21499434894278" lon="13.776685426325221"><ele>709.0</ele><time>2026-05-02T10:26:11.999Z</time></trkpt><trkpt lat="42.214924541842194" lon="13.776764584557474"><ele>709.0</ele><time>2026-05-02T10:26:12.999Z</time></trkpt><trkpt lat="42.214892200405515" lon="13.776867508340898"><ele>709.0</ele><time>2026-05-02T10:26:13.999Z</time></trkpt><trkpt lat="42.21484627483806" lon="13.77695404321861"><ele>709.0</ele><time>2026-05-02T10:26:14.999Z</time></trkpt><trkpt lat="42.214792903039964" lon="13.777081777030286"><ele>709.0</ele><time>2026-05-02T10:26:16.999Z</time></trkpt><trkpt lat="42.214781393850586" lon="13.776957268691904"><ele>709.0</ele><time>2026-05-02T10:26:21.999Z</time></trkpt><trkpt lat="42.21480734948271" lon="13.77684830625805"><ele>709.0</ele><time>2026-05-02T10:26:22.999Z</time></trkpt><trkpt lat="42.21484159098645" lon="13.776744161460437"><ele>709.0</ele><time>2026-05-02T10:26:23.999Z</time></trkpt><trkpt lat="42.21487473264374" lon="13.776641079026762"><ele>709.0</ele><time>2026-05-02T10:26:24.999Z</time></trkpt><trkpt lat="42.21490531478435" lon="13.77653652218264"><ele>709.0</ele><time>2026-05-02T10:26:25.999Z</time></trkpt><trkpt lat="42.214909486522934" lon="13.77643435353957"><ele>709.0</ele><time>2026-05-02T10:26:26.999Z</time></trkpt><trkpt lat="42.214872628951795" lon="13.776345329625022"><ele>706.8333333333334</ele><time>2026-05-02T10:26:27.999Z</time></trkpt><trkpt lat="42.21480536822286" lon="13.776318642310986"><ele>704.6666666666667</ele><time>2026-05-02T10:26:28.999Z</time></trkpt><trkpt lat="42.21474218392309" lon="13.776365295018705"><ele>702.5</ele><time>2026-05-02T10:26:29.999Z</time></trkpt><trkpt lat="42.214693830485864" lon="13.776474328431627"><ele>700.3333333333334</ele><time>2026-05-02T10:26:30.999Z</time></trkpt><trkpt lat="42.21464850498481" lon="13.77659499168952"><ele>698.1666666666666</ele><time>2026-05-02T10:26:31.999Z</time></trkpt><trkpt lat="42.2145995562991" lon="13.776718615876746"><ele>696.0</ele><time>2026-05-02T10:26:32.999Z</time></trkpt><trkpt lat="42.21455379928518" lon="13.776838020128462"><ele>696.8333333333334</ele><time>2026-05-02T10:26:33.999Z</time></trkpt><trkpt lat="42.2145083821472" lon="13.776944970711746"><ele>697.6666666666666</ele><time>2026-05-02T10:26:34.999Z</time></trkpt><trkpt lat="42.21446426415849" lon="13.777054778007539"><ele>698.5</ele><time>2026-05-02T10:26:35.999Z</time></trkpt><trkpt lat="42.21441763676448" lon="13.777159882506144"><ele>699.3333333333333</ele><time>2026-05-02T10:26:36.999Z</time></trkpt><trkpt lat="42.21437440479713" lon="13.777263427787894"><ele>700.1666666666666</ele><time>2026-05-02T10:26:37.999Z</time></trkpt><trkpt lat="42.214331285700354" lon="13.777363679783404"><ele>701.0</ele><time>2026-05-02T10:26:38.999Z</time></trkpt><trkpt lat="42.2142931334165" lon="13.777453147847647"><ele>701.0</ele><time>2026-05-02T10:26:39.999Z</time></trkpt><trkpt lat="42.21424785589151" lon="13.777527012069202"><ele>701.0</ele><time>2026-05-02T10:26:40.999Z</time></trkpt><trkpt lat="42.21418172054883" lon="13.77754716033324"><ele>701.0</ele><time>2026-05-02T10:26:41.999Z</time></trkpt><trkpt lat="42.21411448060755" lon="13.777489333973234"><ele>701.0</ele><time>2026-05-02T10:26:42.999Z</time></trkpt><trkpt lat="42.214120412408114" lon="13.777365817485709"><ele>701.0</ele><time>2026-05-02T10:26:43.999Z</time></trkpt><trkpt lat="42.21417538090367" lon="13.77727808510472"><ele>701.0</ele><time>2026-05-02T10:26:44.999Z</time></trkpt><trkpt lat="42.21420860971843" lon="13.777143023381226"><ele>701.0</ele><time>2026-05-02T10:26:45.999Z</time></trkpt><trkpt lat="42.21422998757117" lon="13.776995688440184"><ele>701.0</ele><time>2026-05-02T10:26:46.999Z</time></trkpt><trkpt lat="42.2142626256499" lon="13.776861488781407"><ele>701.0</ele><time>2026-05-02T10:26:47.999Z</time></trkpt><trkpt lat="42.214293125444634" lon="13.776738487853892"><ele>701.0</ele><time>2026-05-02T10:26:48.999Z</time></trkpt><trkpt lat="42.21431479794771" lon="13.776641728382893"><ele>701.0</ele><time>2026-05-02T10:26:49.999Z</time></trkpt><trkpt lat="42.21435692375689" lon="13.77651573532027"><ele>700.1666666666666</ele><time>2026-05-02T10:26:51.999Z</time></trkpt><trkpt lat="42.214249233655835" lon="13.77651151611785"><ele>699.3333333333333</ele><time>2026-05-02T10:26:54.999Z</time></trkpt><trkpt lat="42.21418542762375" lon="13.776593447250418"><ele>698.5</ele><time>2026-05-02T10:26:56.999Z</time></trkpt><trkpt lat="42.214120296855235" lon="13.776653347351196"><ele>697.6666666666666</ele><time>2026-05-02T10:26:58.999Z</time></trkpt><trkpt lat="42.21405650415148" lon="13.77670173927047"><ele>696.8333333333334</ele><time>2026-05-02T10:27:00.999Z</time></trkpt><trkpt lat="42.21398078009105" lon="13.776710423256878"><ele>696.0</ele><time>2026-05-02T10:27:02.999Z</time></trkpt><trkpt lat="42.21385500433425" lon="13.776707934684818"><ele>695.0</ele><time>2026-05-02T10:27:04.999Z</time></trkpt><trkpt lat="42.213791222291015" lon="13.776710217351901"><ele>694.0</ele><time>2026-05-02T10:27:05.998Z</time></trkpt><trkpt lat="42.21372472499801" lon="13.776709805833846"><ele>693.0</ele><time>2026-05-02T10:27:06.998Z</time></trkpt><trkpt lat="42.21364310493638" lon="13.776704358634392"><ele>692.0</ele><time>2026-05-02T10:27:07.998Z</time></trkpt><trkpt lat="42.21356298137844" lon="13.776690218949382"><ele>691.0</ele><time>2026-05-02T10:27:08.998Z</time></trkpt><trkpt lat="42.21349253581731" lon="13.776652491188578"><ele>690.0</ele><time>2026-05-02T10:27:09.998Z</time></trkpt><trkpt lat="42.21341174815834" lon="13.776604112868297"><ele>690.0</ele><time>2026-05-02T10:27:10.998Z</time></trkpt><trkpt lat="42.213329970105484" lon="13.776545793686834"><ele>690.0</ele><time>2026-05-02T10:27:11.998Z</time></trkpt><trkpt lat="42.21326215607556" lon="13.776494322764165"><ele>690.0</ele><time>2026-05-02T10:27:12.998Z</time></trkpt><trkpt lat="42.21319847859659" lon="13.776444137761992"><ele>690.0</ele><time>2026-05-02T10:27:13.998Z</time></trkpt><trkpt lat="42.213124871019936" lon="13.77638920175382"><ele>690.0</ele><time>2026-05-02T10:27:14.998Z</time></trkpt><trkpt lat="42.21305200031199" lon="13.776342801246667"><ele>690.0</ele><time>2026-05-02T10:27:15.998Z</time></trkpt><trkpt lat="42.21297353775251" lon="13.776333196949428"><ele>690.0</ele><time>2026-05-02T10:27:16.998Z</time></trkpt><trkpt lat="42.21291242207808" lon="13.776306380429288"><ele>690.0</ele><time>2026-05-02T10:27:17.998Z</time></trkpt><trkpt lat="42.212836971060916" lon="13.776377352538733"><ele>690.0</ele><time>2026-05-02T10:27:18.998Z</time></trkpt><trkpt lat="42.212754916486915" lon="13.776419226466215"><ele>690.0</ele><time>2026-05-02T10:27:19.998Z</time></trkpt><trkpt lat="42.21267586169328" lon="13.776484900014312"><ele>690.0</ele><time>2026-05-02T10:27:20.999Z</time></trkpt><trkpt lat="42.21259826949408" lon="13.776562360372903"><ele>690.0</ele><time>2026-05-02T10:27:21.999Z</time></trkpt><trkpt lat="42.21253194847923" lon="13.776658131611738"><ele>690.0</ele><time>2026-05-02T10:27:22.999Z</time></trkpt><trkpt lat="42.21246683263874" lon="13.776757305318696"><ele>690.0</ele><time>2026-05-02T10:27:23.999Z</time></trkpt><trkpt lat="42.21238782251835" lon="13.776814802614116"><ele>690.0</ele><time>2026-05-02T10:27:24.999Z</time></trkpt><trkpt lat="42.212325320844506" lon="13.776872311070592"><ele>690.0</ele><time>2026-05-02T10:27:25.999Z</time></trkpt><trkpt lat="42.21225736289423" lon="13.776929470150964"><ele>690.0</ele><time>2026-05-02T10:27:26.999Z</time></trkpt><trkpt lat="42.21218537733895" lon="13.776990626795808"><ele>690.0</ele><time>2026-05-02T10:27:27.999Z</time></trkpt><trkpt lat="42.21211057977285" lon="13.777045329591225"><ele>688.6666666666666</ele><time>2026-05-02T10:27:28.999Z</time></trkpt><trkpt lat="42.212040079442886" lon="13.777094171328098"><ele>687.3333333333334</ele><time>2026-05-02T10:27:29.999Z</time></trkpt><trkpt lat="42.21196981947088" lon="13.777139714287573"><ele>686.0</ele><time>2026-05-02T10:27:30.999Z</time></trkpt><trkpt lat="42.21190411371096" lon="13.777172409227786"><ele>684.6666666666667</ele><time>2026-05-02T10:27:31.999Z</time></trkpt><trkpt lat="42.211831637927645" lon="13.777187375391122"><ele>683.3333333333334</ele><time>2026-05-02T10:27:32.999Z</time></trkpt><trkpt lat="42.21174216001186" lon="13.777175602082195"><ele>682.0</ele><time>2026-05-02T10:27:33.999Z</time></trkpt><trkpt lat="42.211640240276594" lon="13.777149190721369"><ele>682.0</ele><time>2026-05-02T10:27:34.999Z</time></trkpt><trkpt lat="42.2115426335475" lon="13.777115114979823"><ele>682.0</ele><time>2026-05-02T10:27:35.999Z</time></trkpt><trkpt lat="42.21145937472758" lon="13.777057825586768"><ele>682.0</ele><time>2026-05-02T10:27:36.999Z</time></trkpt><trkpt lat="42.21138071491576" lon="13.776979497105787"><ele>682.0</ele><time>2026-05-02T10:27:37.999Z</time></trkpt><trkpt lat="42.211300536279005" lon="13.776895407476303"><ele>682.0</ele><time>2026-05-02T10:27:38.999Z</time></trkpt><trkpt lat="42.211212562402714" lon="13.776825991327359"><ele>681.8333333333334</ele><time>2026-05-02T10:27:39.999Z</time></trkpt><trkpt lat="42.21113798722417" lon="13.776747101250608"><ele>681.6666666666667</ele><time>2026-05-02T10:27:40.999Z</time></trkpt><trkpt lat="42.21108160176389" lon="13.776657150727814"><ele>681.5</ele><time>2026-05-02T10:27:41.999Z</time></trkpt><trkpt lat="42.211010008262946" lon="13.776606064574622"><ele>681.3333333333334</ele><time>2026-05-02T10:27:42.999Z</time></trkpt><trkpt lat="42.21095441173307" lon="13.776534592001394"><ele>681.1666666666666</ele><time>2026-05-02T10:27:43.999Z</time></trkpt><trkpt lat="42.21090622818191" lon="13.776457901531812"><ele>681.0</ele><time>2026-05-02T10:27:44.999Z</time></trkpt><trkpt lat="42.21082023338967" lon="13.77634317887224"><ele>681.0</ele><time>2026-05-02T10:27:46.999Z</time></trkpt><trkpt lat="42.21071810931558" lon="13.776259133905961"><ele>681.0</ele><time>2026-05-02T10:27:48.999Z</time></trkpt><trkpt lat="42.21065243612062" lon="13.776224264979831"><ele>681.0</ele><time>2026-05-02T10:27:49.999Z</time></trkpt><trkpt lat="42.21055673343827" lon="13.776281334274568"><ele>681.0</ele><time>2026-05-02T10:27:50.999Z</time></trkpt><trkpt lat="42.210490986905526" lon="13.776094391633746"><ele>681.0</ele><time>2026-05-02T10:27:51.999Z</time></trkpt><trkpt lat="42.2104025290513" lon="13.77606004414292"><ele>680.5999999999999</ele><time>2026-05-02T10:27:52.999Z</time></trkpt><trkpt lat="42.21031668454618" lon="13.776026228325069"><ele>680.2</ele><time>2026-05-02T10:27:53.999Z</time></trkpt><trkpt lat="42.210224435460454" lon="13.775983909580969"><ele>679.8</ele><time>2026-05-02T10:27:54.999Z</time></trkpt><trkpt lat="42.21011968274708" lon="13.775932820218566"><ele>679.4000000000001</ele><time>2026-05-02T10:27:55.999Z</time></trkpt><trkpt lat="42.21001768898146" lon="13.775878102207514"><ele>679.0</ele><time>2026-05-02T10:27:56.999Z</time></trkpt><trkpt lat="42.209923803304456" lon="13.775826986805864"><ele>679.0</ele><time>2026-05-02T10:27:57.999Z</time></trkpt><trkpt lat="42.209816401259836" lon="13.775781332757473"><ele>679.0</ele><time>2026-05-02T10:27:58.999Z</time></trkpt><trkpt lat="42.20969708858311" lon="13.775730071941142"><ele>679.0</ele><time>2026-05-02T10:27:59.999Z</time></trkpt><trkpt lat="42.20956872534944" lon="13.775683359366788"><ele>679.0</ele><time>2026-05-02T10:28:00.999Z</time></trkpt><trkpt lat="42.2094389227902" lon="13.775630835265135"><ele>679.0</ele><time>2026-05-02T10:28:01.999Z</time></trkpt><trkpt lat="42.20930652398976" lon="13.775618371956696"><ele>679.0</ele><time>2026-05-02T10:28:02.999Z</time></trkpt><trkpt lat="42.20918500775308" lon="13.775585602572217"><ele>679.0</ele><time>2026-05-02T10:28:03.999Z</time></trkpt><trkpt lat="42.2090698418004" lon="13.775515561938892"><ele>679.0</ele><time>2026-05-02T10:28:04.999Z</time></trkpt><trkpt lat="42.208964506979825" lon="13.775492126013832"><ele>678.8333333333334</ele><time>2026-05-02T10:28:05.999Z</time></trkpt><trkpt lat="42.20886641152808" lon="13.775498023660075"><ele>678.6666666666667</ele><time>2026-05-02T10:28:06.999Z</time></trkpt><trkpt lat="42.20878450051769" lon="13.775531233790105"><ele>678.5</ele><time>2026-05-02T10:28:07.999Z</time></trkpt><trkpt lat="42.20870880797516" lon="13.77556542914812"><ele>678.3333333333334</ele><time>2026-05-02T10:28:08.999Z</time></trkpt><trkpt lat="42.20864831167414" lon="13.775596712682907"><ele>678.1666666666666</ele><time>2026-05-02T10:28:09.999Z</time></trkpt><trkpt lat="42.208572341621014" lon="13.775612872423753"><ele>678.0</ele><time>2026-05-02T10:28:10.999Z</time></trkpt><trkpt lat="42.20850016704484" lon="13.775621153161612"><ele>678.0</ele><time>2026-05-02T10:28:11.999Z</time></trkpt><trkpt lat="42.20843061368001" lon="13.77561269721076"><ele>678.0</ele><time>2026-05-02T10:28:12.999Z</time></trkpt><trkpt lat="42.208358946467605" lon="13.775585174792331"><ele>678.0</ele><time>2026-05-02T10:28:13.999Z</time></trkpt><trkpt lat="42.20828467545857" lon="13.775522906251355"><ele>678.0</ele><time>2026-05-02T10:28:14.999Z</time></trkpt><trkpt lat="42.20820530893364" lon="13.775446382617075"><ele>678.0</ele><time>2026-05-02T10:28:15.999Z</time></trkpt><trkpt lat="42.20812269955533" lon="13.775369372536858"><ele>678.0</ele><time>2026-05-02T10:28:16.999Z</time></trkpt><trkpt lat="42.20802736546715" lon="13.775294432384696"><ele>678.0</ele><time>2026-05-02T10:28:17.999Z</time></trkpt><trkpt lat="42.20793588721807" lon="13.775229880234551"><ele>678.0</ele><time>2026-05-02T10:28:18.999Z</time></trkpt><trkpt lat="42.20781133051984" lon="13.775153098163361"><ele>678.0</ele><time>2026-05-02T10:28:19.999Z</time></trkpt><trkpt lat="42.20768188939684" lon="13.775084054104507"><ele>678.0</ele><time>2026-05-02T10:28:20.999Z</time></trkpt><trkpt lat="42.207627740083105" lon="13.77493704703252"><ele>678.0</ele><time>2026-05-02T10:28:21.999Z</time></trkpt><trkpt lat="42.207540203909915" lon="13.774854317621756"><ele>678.0</ele><time>2026-05-02T10:28:22.999Z</time></trkpt><trkpt lat="42.20746530215751" lon="13.774775495203894"><ele>678.0</ele><time>2026-05-02T10:28:23.999Z</time></trkpt><trkpt lat="42.20739514723609" lon="13.77471180545105"><ele>678.0</ele><time>2026-05-02T10:28:24.999Z</time></trkpt><trkpt lat="42.20733267047622" lon="13.774655743574161"><ele>678.0</ele><time>2026-05-02T10:28:25.999Z</time></trkpt><trkpt lat="42.20727857284272" lon="13.774601563632702"><ele>678.0</ele><time>2026-05-02T10:28:26.999Z</time></trkpt><trkpt lat="42.2072185485953" lon="13.774514198194346"><ele>678.5999999999999</ele><time>2026-05-02T10:28:28.999Z</time></trkpt><trkpt lat="42.20716881928173" lon="13.774426260535435"><ele>679.1999999999999</ele><time>2026-05-02T10:28:32.999Z</time></trkpt><trkpt lat="42.20701737500221" lon="13.774554332177239"><ele>679.8</ele><time>2026-05-02T10:28:33.999Z</time></trkpt><trkpt lat="42.20693407800019" lon="13.774614673658853"><ele>680.4</ele><time>2026-05-02T10:28:34.999Z</time></trkpt><trkpt lat="42.20685023408612" lon="13.774668715782271"><ele>681.0</ele><time>2026-05-02T10:28:35.999Z</time></trkpt><trkpt lat="42.20673564270104" lon="13.774733783736776"><ele>681.0</ele><time>2026-05-02T10:28:36.999Z</time></trkpt><trkpt lat="42.206618748312614" lon="13.774798974188062"><ele>681.0</ele><time>2026-05-02T10:28:37.999Z</time></trkpt><trkpt lat="42.20649424588418" lon="13.7748657515073"><ele>681.0</ele><time>2026-05-02T10:28:38.999Z</time></trkpt><trkpt lat="42.20637373905981" lon="13.77493008213782"><ele>681.0</ele><time>2026-05-02T10:28:39.999Z</time></trkpt><trkpt lat="42.20624387595528" lon="13.77500426899917"><ele>681.0</ele><time>2026-05-02T10:28:40.999Z</time></trkpt><trkpt lat="42.20611401177235" lon="13.77507255783398"><ele>681.0</ele><time>2026-05-02T10:28:41.999Z</time></trkpt><trkpt lat="42.20598851550157" lon="13.775140244738818"><ele>681.0</ele><time>2026-05-02T10:28:42.999Z</time></trkpt><trkpt lat="42.205858701045415" lon="13.775212777479117"><ele>681.0</ele><time>2026-05-02T10:28:43.999Z</time></trkpt><trkpt lat="42.20572943790934" lon="13.775288633139034"><ele>681.75</ele><time>2026-05-02T10:28:44.999Z</time></trkpt><trkpt lat="42.20561488202907" lon="13.775352185630924"><ele>682.5</ele><time>2026-05-02T10:28:45.999Z</time></trkpt><trkpt lat="42.20549645269003" lon="13.775419046242817"><ele>683.25</ele><time>2026-05-02T10:28:46.999Z</time></trkpt><trkpt lat="42.20537759061953" lon="13.775483496870148"><ele>684.0</ele><time>2026-05-02T10:28:47.999Z</time></trkpt><trkpt lat="42.20525540107508" lon="13.77555131603304"><ele>684.0</ele><time>2026-05-02T10:28:48.999Z</time></trkpt><trkpt lat="42.205133599317065" lon="13.775625277550406"><ele>684.0</ele><time>2026-05-02T10:28:49.999Z</time></trkpt><trkpt lat="42.20501321421678" lon="13.775698070256443"><ele>684.0</ele><time>2026-05-02T10:28:50.999Z</time></trkpt><trkpt lat="42.20489206514586" lon="13.775772803998944"><ele>684.0</ele><time>2026-05-02T10:28:51.999Z</time></trkpt><trkpt lat="42.20476943767526" lon="13.775835461727283"><ele>684.25</ele><time>2026-05-02T10:28:52.999Z</time></trkpt><trkpt lat="42.20464804002549" lon="13.775897503656186"><ele>684.5</ele><time>2026-05-02T10:28:53.999Z</time></trkpt><trkpt lat="42.204528829252695" lon="13.7759711903931"><ele>684.75</ele><time>2026-05-02T10:28:54.999Z</time></trkpt><trkpt lat="42.204408802218005" lon="13.776039292503187"><ele>685.0</ele><time>2026-05-02T10:28:55.999Z</time></trkpt><trkpt lat="42.20428060217456" lon="13.776115378572136"><ele>685.0</ele><time>2026-05-02T10:28:56.999Z</time></trkpt><trkpt lat="42.204136720911634" lon="13.776194292342165"><ele>685.0</ele><time>2026-05-02T10:28:57.999Z</time></trkpt><trkpt lat="42.20398128813053" lon="13.77627294017506"><ele>685.0</ele><time>2026-05-02T10:28:58.999Z</time></trkpt><trkpt lat="42.203824653996136" lon="13.776354402562207"><ele>686.6666666666667</ele><time>2026-05-02T10:28:59.999Z</time></trkpt><trkpt lat="42.203667747428256" lon="13.776445815264282"><ele>688.3333333333334</ele><time>2026-05-02T10:29:00.999Z</time></trkpt><trkpt lat="42.20352252384588" lon="13.776531692532446"><ele>690.0</ele><time>2026-05-02T10:29:01.999Z</time></trkpt><trkpt lat="42.20336330538369" lon="13.776621218779203"><ele>690.0</ele><time>2026-05-02T10:29:02.999Z</time></trkpt><trkpt lat="42.20321206730933" lon="13.776720834610547"><ele>690.0</ele><time>2026-05-02T10:29:03.999Z</time></trkpt><trkpt lat="42.203058805752306" lon="13.776805019836507"><ele>690.0</ele><time>2026-05-02T10:29:04.999Z</time></trkpt><trkpt lat="42.20290395419576" lon="13.776888659622633"><ele>693.5</ele><time>2026-05-02T10:29:05.999Z</time></trkpt><trkpt lat="42.20274858611249" lon="13.776981820990018"><ele>697.0</ele><time>2026-05-02T10:29:06.999Z</time></trkpt><trkpt lat="42.20262079063216" lon="13.777040230059718"><ele>700.5</ele><time>2026-05-02T10:29:07.999Z</time></trkpt><trkpt lat="42.20250885154295" lon="13.77710574504664"><ele>704.0</ele><time>2026-05-02T10:29:08.998Z</time></trkpt><trkpt lat="42.20241457626793" lon="13.777169971622166"><ele>703.25</ele><time>2026-05-02T10:29:09.998Z</time></trkpt><trkpt lat="42.20232606323524" lon="13.777249261832505"><ele>702.5</ele><time>2026-05-02T10:29:10.998Z</time></trkpt><trkpt lat="42.20225208199318" lon="13.777360222661395"><ele>701.75</ele><time>2026-05-02T10:29:11.998Z</time></trkpt><trkpt lat="42.2022127718285" lon="13.777517561556094"><ele>701.0</ele><time>2026-05-02T10:29:12.998Z</time></trkpt><trkpt lat="42.20219162736853" lon="13.777697662920183"><ele>701.0</ele><time>2026-05-02T10:29:13.998Z</time></trkpt><trkpt lat="42.20216546913768" lon="13.777886035999613"><ele>701.0</ele><time>2026-05-02T10:29:14.998Z</time></trkpt><trkpt lat="42.202128856520815" lon="13.778074644175039"><ele>701.0</ele><time>2026-05-02T10:29:15.998Z</time></trkpt><trkpt lat="42.20209028274714" lon="13.778272630264777"><ele>701.0</ele><time>2026-05-02T10:29:16.998Z</time></trkpt><trkpt lat="42.202049860678216" lon="13.778483351138783"><ele>703.0</ele><time>2026-05-02T10:29:17.998Z</time></trkpt><trkpt lat="42.20200762808047" lon="13.778699270558798"><ele>705.0</ele><time>2026-05-02T10:29:18.998Z</time></trkpt><trkpt lat="42.20195701990007" lon="13.778918998068779"><ele>707.0</ele><time>2026-05-02T10:29:19.998Z</time></trkpt><trkpt lat="42.20190907986022" lon="13.779143009502496"><ele>710.0</ele><time>2026-05-02T10:29:20.998Z</time></trkpt><trkpt lat="42.20186309451261" lon="13.779366895819715"><ele>713.0</ele><time>2026-05-02T10:29:21.998Z</time></trkpt><trkpt lat="42.20181999784202" lon="13.779590618201778"><ele>716.0</ele><time>2026-05-02T10:29:22.998Z</time></trkpt><trkpt lat="42.20178368027957" lon="13.779809859269928"><ele>716.0</ele><time>2026-05-02T10:29:23.998Z</time></trkpt><trkpt lat="42.201742016115375" lon="13.780028354710215"><ele>716.0</ele><time>2026-05-02T10:29:24.998Z</time></trkpt><trkpt lat="42.20169964830513" lon="13.780237984519454"><ele>716.0</ele><time>2026-05-02T10:29:25.998Z</time></trkpt><trkpt lat="42.20166962970257" lon="13.780456226832948"><ele>718.0</ele><time>2026-05-02T10:29:26.999Z</time></trkpt><trkpt lat="42.201652196233496" lon="13.780677661682073"><ele>720.0</ele><time>2026-05-02T10:29:27.999Z</time></trkpt><trkpt lat="42.201642804043054" lon="13.780893471559576"><ele>722.0</ele><time>2026-05-02T10:29:28.999Z</time></trkpt><trkpt lat="42.201648250696756" lon="13.781106872518656"><ele>723.3333333333333</ele><time>2026-05-02T10:29:29.999Z</time></trkpt><trkpt lat="42.201663513776495" lon="13.781317545915567"><ele>724.6666666666666</ele><time>2026-05-02T10:29:30.999Z</time></trkpt><trkpt lat="42.201680331599576" lon="13.78153458890098"><ele>726.0</ele><time>2026-05-02T10:29:31.999Z</time></trkpt><trkpt lat="42.20170310166125" lon="13.781747567667582"><ele>728.0</ele><time>2026-05-02T10:29:32.999Z</time></trkpt><trkpt lat="42.201715731484555" lon="13.781960554945977"><ele>730.0</ele><time>2026-05-02T10:29:33.999Z</time></trkpt><trkpt lat="42.20169049692025" lon="13.782153849377421"><ele>732.0</ele><time>2026-05-02T10:29:34.999Z</time></trkpt><trkpt lat="42.201633683906884" lon="13.782323502128815"><ele>734.0</ele><time>2026-05-02T10:29:35.999Z</time></trkpt><trkpt lat="42.20157501483222" lon="13.782503809679188"><ele>733.3333333333333</ele><time>2026-05-02T10:29:36.999Z</time></trkpt><trkpt lat="42.20151036063975" lon="13.782693304119173"><ele>732.6666666666666</ele><time>2026-05-02T10:29:37.999Z</time></trkpt><trkpt lat="42.201451948069526" lon="13.78289604084225"><ele>732.0</ele><time>2026-05-02T10:29:38.999Z</time></trkpt><trkpt lat="42.201375362516956" lon="13.783085533189123"><ele>732.0</ele><time>2026-05-02T10:29:39.999Z</time></trkpt><trkpt lat="42.20129775040645" lon="13.783275894120115"><ele>732.0</ele><time>2026-05-02T10:29:40.999Z</time></trkpt><trkpt lat="42.201219790213955" lon="13.783462836240165"><ele>732.0</ele><time>2026-05-02T10:29:41.999Z</time></trkpt><trkpt lat="42.20114042807566" lon="13.783645542884518"><ele>735.75</ele><time>2026-05-02T10:29:42.999Z</time></trkpt><trkpt lat="42.20105696975468" lon="13.78381615126252"><ele>739.5</ele><time>2026-05-02T10:29:43.999Z</time></trkpt><trkpt lat="42.20098497613559" lon="13.783974921789016"><ele>743.25</ele><time>2026-05-02T10:29:44.999Z</time></trkpt><trkpt lat="42.20091450816059" lon="13.78412721551752"><ele>747.0</ele><time>2026-05-02T10:29:45.999Z</time></trkpt><trkpt lat="42.2008438606152" lon="13.784276114479976"><ele>749.25</ele><time>2026-05-02T10:29:46.999Z</time></trkpt><trkpt lat="42.200778687663956" lon="13.784418898548225"><ele>751.5</ele><time>2026-05-02T10:29:47.999Z</time></trkpt><trkpt lat="42.200702202816096" lon="13.78455788423242"><ele>753.75</ele><time>2026-05-02T10:29:48.999Z</time></trkpt><trkpt lat="42.20061830179491" lon="13.784684303814986"><ele>756.0</ele><time>2026-05-02T10:29:49.999Z</time></trkpt><trkpt lat="42.20053384507399" lon="13.784813853399285"><ele>756.0</ele><time>2026-05-02T10:29:50.999Z</time></trkpt><trkpt lat="42.20044655570354" lon="13.784940008860591"><ele>756.0</ele><time>2026-05-02T10:29:51.999Z</time></trkpt><trkpt lat="42.20036400580289" lon="13.785060705541776"><ele>756.0</ele><time>2026-05-02T10:29:52.999Z</time></trkpt><trkpt lat="42.20029424382946" lon="13.78516315448421"><ele>756.0</ele><time>2026-05-02T10:29:53.999Z</time></trkpt><trkpt lat="42.200235817236354" lon="13.785237957653043"><ele>756.0</ele><time>2026-05-02T10:29:54.999Z</time></trkpt><trkpt lat="42.200172493164075" lon="13.785254437506909"><ele>756.0</ele><time>2026-05-02T10:29:56.999Z</time></trkpt><trkpt lat="42.200167653108146" lon="13.785062002865228"><ele>756.0</ele><time>2026-05-02T10:29:58.999Z</time></trkpt><trkpt lat="42.20016537415847" lon="13.784958179036954"><ele>756.0</ele><time>2026-05-02T10:29:59.999Z</time></trkpt><trkpt lat="42.20014215353757" lon="13.784838071217724"><ele>756.0</ele><time>2026-05-02T10:30:00.999Z</time></trkpt><trkpt lat="42.20011490466718" lon="13.78468266945658"><ele>756.0</ele><time>2026-05-02T10:30:01.999Z</time></trkpt><trkpt lat="42.20008218005432" lon="13.784545333063493"><ele>756.0</ele><time>2026-05-02T10:30:02.999Z</time></trkpt><trkpt lat="42.200034659030145" lon="13.784395876862355"><ele>756.0</ele><time>2026-05-02T10:30:03.999Z</time></trkpt><trkpt lat="42.19997840843884" lon="13.784236917367341"><ele>756.0</ele><time>2026-05-02T10:30:04.999Z</time></trkpt><trkpt lat="42.19990943731943" lon="13.784084777603228"><ele>756.0</ele><time>2026-05-02T10:30:05.999Z</time></trkpt><trkpt lat="42.19985134236446" lon="13.783922541967415"><ele>759.0</ele><time>2026-05-02T10:30:06.999Z</time></trkpt><trkpt lat="42.19979124212376" lon="13.78376473983942"><ele>762.0</ele><time>2026-05-02T10:30:07.999Z</time></trkpt><trkpt lat="42.199757327493714" lon="13.78359819159802"><ele>765.0</ele><time>2026-05-02T10:30:08.999Z</time></trkpt><trkpt lat="42.199759666385276" lon="13.783435717869839"><ele>768.0</ele><time>2026-05-02T10:30:09.999Z</time></trkpt><trkpt lat="42.19975456244054" lon="13.783282411697632"><ele>768.0</ele><time>2026-05-02T10:30:10.999Z</time></trkpt><trkpt lat="42.19970454801084" lon="13.783142600183119"><ele>768.0</ele><time>2026-05-02T10:30:11.999Z</time></trkpt><trkpt lat="42.1996127313161" lon="13.783028711423357"><ele>768.0</ele><time>2026-05-02T10:30:12.999Z</time></trkpt><trkpt lat="42.19949827348094" lon="13.782949782549833"><ele>768.0</ele><time>2026-05-02T10:30:13.999Z</time></trkpt><trkpt lat="42.199370384052365" lon="13.78289687852875"><ele>768.0</ele><time>2026-05-02T10:30:14.999Z</time></trkpt><trkpt lat="42.1992408235273" lon="13.782865246203755"><ele>768.0</ele><time>2026-05-02T10:30:15.999Z</time></trkpt><trkpt lat="42.19910245251253" lon="13.782856185800167"><ele>768.0</ele><time>2026-05-02T10:30:16.999Z</time></trkpt><trkpt lat="42.19896256274976" lon="13.782853316758843"><ele>768.0</ele><time>2026-05-02T10:30:17.999Z</time></trkpt><trkpt lat="42.198820533275864" lon="13.782829334710291"><ele>769.25</ele><time>2026-05-02T10:30:18.999Z</time></trkpt><trkpt lat="42.19867507899139" lon="13.78278013663512"><ele>770.5</ele><time>2026-05-02T10:30:19.999Z</time></trkpt><trkpt lat="42.198543444379695" lon="13.782776855345249"><ele>771.75</ele><time>2026-05-02T10:30:20.999Z</time></trkpt><trkpt lat="42.198411033750304" lon="13.782726499405442"><ele>773.0</ele><time>2026-05-02T10:30:21.999Z</time></trkpt><trkpt lat="42.19827427121484" lon="13.782691299738374"><ele>774.0</ele><time>2026-05-02T10:30:22.999Z</time></trkpt><trkpt lat="42.198133209744505" lon="13.782680026930617"><ele>775.0</ele><time>2026-05-02T10:30:23.999Z</time></trkpt><trkpt lat="42.19799254938376" lon="13.782682624167744"><ele>776.0</ele><time>2026-05-02T10:30:24.999Z</time></trkpt><trkpt lat="42.19785417440542" lon="13.782699926776736"><ele>777.0</ele><time>2026-05-02T10:30:25.999Z</time></trkpt><trkpt lat="42.197715552688685" lon="13.782725956583986"><ele>777.0</ele><time>2026-05-02T10:30:26.999Z</time></trkpt><trkpt lat="42.19757932475417" lon="13.782742602133583"><ele>777.0</ele><time>2026-05-02T10:30:27.999Z</time></trkpt><trkpt lat="42.19743977548957" lon="13.782753356954784"><ele>777.0</ele><time>2026-05-02T10:30:28.999Z</time></trkpt><trkpt lat="42.197301564822475" lon="13.782713951787757"><ele>777.0</ele><time>2026-05-02T10:30:29.999Z</time></trkpt><trkpt lat="42.19716548778935" lon="13.78266286892198"><ele>776.25</ele><time>2026-05-02T10:30:30.999Z</time></trkpt><trkpt lat="42.19704698801734" lon="13.782574569061687"><ele>775.5</ele><time>2026-05-02T10:30:31.999Z</time></trkpt><trkpt lat="42.196970011699705" lon="13.78245031282977"><ele>774.75</ele><time>2026-05-02T10:30:32.999Z</time></trkpt><trkpt lat="42.196888399595544" lon="13.782313714112743"><ele>774.0</ele><time>2026-05-02T10:30:33.999Z</time></trkpt><trkpt lat="42.1967896557944" lon="13.782190060710734"><ele>774.0</ele><time>2026-05-02T10:30:34.999Z</time></trkpt><trkpt lat="42.19670381129912" lon="13.782071805498134"><ele>774.0</ele><time>2026-05-02T10:30:35.999Z</time></trkpt><trkpt lat="42.19658916410517" lon="13.781996402142461"><ele>774.0</ele><time>2026-05-02T10:30:36.999Z</time></trkpt><trkpt lat="42.19645480609845" lon="13.781963836732075"><ele>774.0</ele><time>2026-05-02T10:30:37.999Z</time></trkpt><trkpt lat="42.1963120681955" lon="13.781942020223953"><ele>774.5</ele><time>2026-05-02T10:30:38.999Z</time></trkpt><trkpt lat="42.196165866643305" lon="13.781923741155586"><ele>775.0</ele><time>2026-05-02T10:30:39.999Z</time></trkpt><trkpt lat="42.19601853075775" lon="13.781895359756364"><ele>775.5</ele><time>2026-05-02T10:30:40.999Z</time></trkpt><trkpt lat="42.19587176696157" lon="13.781859843352413"><ele>776.0</ele><time>2026-05-02T10:30:41.999Z</time></trkpt><trkpt lat="42.19571911636546" lon="13.781829231598556"><ele>777.6666666666667</ele><time>2026-05-02T10:30:42.999Z</time></trkpt><trkpt lat="42.19556684139851" lon="13.781794970515612"><ele>779.3333333333333</ele><time>2026-05-02T10:30:43.999Z</time></trkpt><trkpt lat="42.195414864574474" lon="13.781756676433961"><ele>781.0</ele><time>2026-05-02T10:30:44.999Z</time></trkpt><trkpt lat="42.195265259018115" lon="13.781719399150667"><ele>781.0</ele><time>2026-05-02T10:30:45.999Z</time></trkpt><trkpt lat="42.19512613227369" lon="13.78170043935382"><ele>781.0</ele><time>2026-05-02T10:30:46.999Z</time></trkpt><trkpt lat="42.19498352981618" lon="13.781694379798681"><ele>781.0</ele><time>2026-05-02T10:30:47.999Z</time></trkpt><trkpt lat="42.19484320785472" lon="13.781706795716154"><ele>781.0</ele><time>2026-05-02T10:30:48.999Z</time></trkpt><trkpt lat="42.19470044769787" lon="13.781728129642422"><ele>782.5</ele><time>2026-05-02T10:30:49.999Z</time></trkpt><trkpt lat="42.19456769549713" lon="13.781745835705994"><ele>784.0</ele><time>2026-05-02T10:30:50.999Z</time></trkpt><trkpt lat="42.19444009871694" lon="13.781712590241966"><ele>785.5</ele><time>2026-05-02T10:30:51.999Z</time></trkpt><trkpt lat="42.194311900522365" lon="13.781674187826088"><ele>787.0</ele><time>2026-05-02T10:30:52.999Z</time></trkpt><trkpt lat="42.19418999376304" lon="13.781597780874026"><ele>787.0</ele><time>2026-05-02T10:30:53.999Z</time></trkpt><trkpt lat="42.19409192549423" lon="13.781492447656449"><ele>787.0</ele><time>2026-05-02T10:30:54.999Z</time></trkpt><trkpt lat="42.19403613245456" lon="13.781352751801137"><ele>787.0</ele><time>2026-05-02T10:30:55.999Z</time></trkpt><trkpt lat="42.19400140710968" lon="13.78119110119413"><ele>787.0</ele><time>2026-05-02T10:30:56.999Z</time></trkpt><trkpt lat="42.19397730950835" lon="13.781011749644023"><ele>791.5</ele><time>2026-05-02T10:30:57.999Z</time></trkpt><trkpt lat="42.19396513404698" lon="13.780827685866335"><ele>796.0</ele><time>2026-05-02T10:30:58.999Z</time></trkpt><trkpt lat="42.19396325303842" lon="13.780634294059354"><ele>800.5</ele><time>2026-05-02T10:30:59.999Z</time></trkpt><trkpt lat="42.193972586037894" lon="13.78043966328685"><ele>805.0</ele><time>2026-05-02T10:31:00.999Z</time></trkpt><trkpt lat="42.19399350974071" lon="13.780243718540481"><ele>800.3333333333333</ele><time>2026-05-02T10:31:01.999Z</time></trkpt><trkpt lat="42.1940319380129" lon="13.78004781605362"><ele>795.6666666666667</ele><time>2026-05-02T10:31:02.999Z</time></trkpt><trkpt lat="42.19407270716219" lon="13.779849208484219"><ele>791.0</ele><time>2026-05-02T10:31:03.999Z</time></trkpt><trkpt lat="42.19411255791749" lon="13.77965312259843"><ele>791.0</ele><time>2026-05-02T10:31:04.999Z</time></trkpt><trkpt lat="42.19413850501554" lon="13.779455574589573"><ele>791.0</ele><time>2026-05-02T10:31:05.999Z</time></trkpt><trkpt lat="42.19416979617192" lon="13.779263385502459"><ele>791.0</ele><time>2026-05-02T10:31:06.999Z</time></trkpt><trkpt lat="42.19418132279627" lon="13.779067237029066"><ele>791.0</ele><time>2026-05-02T10:31:07.999Z</time></trkpt><trkpt lat="42.19416298597872" lon="13.778877238586624"><ele>792.25</ele><time>2026-05-02T10:31:08.999Z</time></trkpt><trkpt lat="42.19413098049909" lon="13.778689695737606"><ele>793.5</ele><time>2026-05-02T10:31:09.999Z</time></trkpt><trkpt lat="42.19410844545536" lon="13.77850210004701"><ele>794.75</ele><time>2026-05-02T10:31:10.999Z</time></trkpt><trkpt lat="42.194103042577524" lon="13.778308498317246"><ele>796.0</ele><time>2026-05-02T10:31:11.999Z</time></trkpt><trkpt lat="42.19411168646125" lon="13.778120465689017"><ele>798.25</ele><time>2026-05-02T10:31:12.999Z</time></trkpt><trkpt lat="42.194131641826885" lon="13.777930440888822"><ele>800.5</ele><time>2026-05-02T10:31:13.999Z</time></trkpt><trkpt lat="42.194154450490636" lon="13.777745729915981"><ele>802.75</ele><time>2026-05-02T10:31:14.999Z</time></trkpt><trkpt lat="42.194181403367814" lon="13.77755964962397"><ele>805.0</ele><time>2026-05-02T10:31:15.999Z</time></trkpt><trkpt lat="42.19421105851968" lon="13.777377434996156"><ele>807.5</ele><time>2026-05-02T10:31:16.999Z</time></trkpt><trkpt lat="42.19424599235661" lon="13.777193687387786"><ele>810.0</ele><time>2026-05-02T10:31:17.999Z</time></trkpt><trkpt lat="42.194295588235526" lon="13.777008943826319"><ele>812.5</ele><time>2026-05-02T10:31:18.999Z</time></trkpt><trkpt lat="42.194356982343685" lon="13.776831741168614"><ele>815.0</ele><time>2026-05-02T10:31:19.999Z</time></trkpt><trkpt lat="42.19442810570209" lon="13.776661072938651"><ele>817.0</ele><time>2026-05-02T10:31:20.999Z</time></trkpt><trkpt lat="42.19450411160308" lon="13.776493682990933"><ele>819.0</ele><time>2026-05-02T10:31:21.999Z</time></trkpt><trkpt lat="42.194581225287976" lon="13.776336256456002"><ele>821.0</ele><time>2026-05-02T10:31:22.999Z</time></trkpt><trkpt lat="42.194650493397326" lon="13.776180107816167"><ele>823.0</ele><time>2026-05-02T10:31:23.998Z</time></trkpt><trkpt lat="42.19470771474707" lon="13.776012423756917"><ele>821.0</ele><time>2026-05-02T10:31:24.998Z</time></trkpt><trkpt lat="42.19475911323752" lon="13.775837921393455"><ele>819.0</ele><time>2026-05-02T10:31:25.998Z</time></trkpt><trkpt lat="42.194817460614786" lon="13.775665957679617"><ele>817.0</ele><time>2026-05-02T10:31:26.998Z</time></trkpt><trkpt lat="42.19491352166361" lon="13.775536194910213"><ele>815.0</ele><time>2026-05-02T10:31:27.998Z</time></trkpt><trkpt lat="42.195010304181636" lon="13.7754053114866"><ele>815.0</ele><time>2026-05-02T10:31:28.998Z</time></trkpt><trkpt lat="42.19510036443959" lon="13.775264202541539"><ele>815.0</ele><time>2026-05-02T10:31:29.998Z</time></trkpt><trkpt lat="42.19519707003641" lon="13.775126617323162"><ele>815.0</ele><time>2026-05-02T10:31:30.998Z</time></trkpt><trkpt lat="42.19528507592542" lon="13.774980748126529"><ele>815.0</ele><time>2026-05-02T10:31:31.998Z</time></trkpt><trkpt lat="42.195385179445225" lon="13.774842123147556"><ele>817.75</ele><time>2026-05-02T10:31:33Z</time></trkpt><trkpt lat="42.19546274568755" lon="13.774672653003714"><ele>820.5</ele><time>2026-05-02T10:31:34Z</time></trkpt><trkpt lat="42.195551820245136" lon="13.77451831122815"><ele>823.25</ele><time>2026-05-02T10:31:34.999Z</time></trkpt><trkpt lat="42.195643659589976" lon="13.774362781927463"><ele>826.0</ele><time>2026-05-02T10:31:36Z</time></trkpt><trkpt lat="42.19572904381553" lon="13.774213638376013"><ele>826.75</ele><time>2026-05-02T10:31:37Z</time></trkpt><trkpt lat="42.19580963885542" lon="13.774065572442465"><ele>827.5</ele><time>2026-05-02T10:31:38Z</time></trkpt><trkpt lat="42.19588431923852" lon="13.773927324635796"><ele>828.25</ele><time>2026-05-02T10:31:39Z</time></trkpt><trkpt lat="42.195963079516844" lon="13.7737990561252"><ele>829.0</ele><time>2026-05-02T10:31:40Z</time></trkpt><trkpt lat="42.19601952854932" lon="13.773651659889541"><ele>831.75</ele><time>2026-05-02T10:31:41Z</time></trkpt><trkpt lat="42.19605694076491" lon="13.773488545283351"><ele>834.5</ele><time>2026-05-02T10:31:42Z</time></trkpt><trkpt lat="42.19605709850094" lon="13.7733041534892"><ele>837.25</ele><time>2026-05-02T10:31:43Z</time></trkpt><trkpt lat="42.196054756993306" lon="13.773113856264798"><ele>840.0</ele><time>2026-05-02T10:31:44Z</time></trkpt><trkpt lat="42.196070823853375" lon="13.772927631229448"><ele>840.0</ele><time>2026-05-02T10:31:45Z</time></trkpt><trkpt lat="42.19605313169501" lon="13.772729344298828"><ele>840.0</ele><time>2026-05-02T10:31:46Z</time></trkpt><trkpt lat="42.196060339283136" lon="13.772522538772275"><ele>840.0</ele><time>2026-05-02T10:31:47Z</time></trkpt><trkpt lat="42.1961030527103" lon="13.772330507805243"><ele>840.75</ele><time>2026-05-02T10:31:48Z</time></trkpt><trkpt lat="42.196122948336246" lon="13.77213881397765"><ele>841.5</ele><time>2026-05-02T10:31:49Z</time></trkpt><trkpt lat="42.19615076404187" lon="13.771953997048264"><ele>842.25</ele><time>2026-05-02T10:31:50Z</time></trkpt><trkpt lat="42.19614749261409" lon="13.771763419110593"><ele>843.0</ele><time>2026-05-02T10:31:51Z</time></trkpt><trkpt lat="42.19613414851845" lon="13.771598679804368"><ele>843.0</ele><time>2026-05-02T10:31:52Z</time></trkpt><trkpt lat="42.196097111668195" lon="13.771459174072115"><ele>843.0</ele><time>2026-05-02T10:31:53Z</time></trkpt><trkpt lat="42.19599597319065" lon="13.77139850884758"><ele>843.0</ele><time>2026-05-02T10:31:54Z</time></trkpt><trkpt lat="42.19588130781247" lon="13.771357872156731"><ele>843.0</ele><time>2026-05-02T10:31:55Z</time></trkpt><trkpt lat="42.195752188102205" lon="13.771314962793289"><ele>845.75</ele><time>2026-05-02T10:31:56Z</time></trkpt><trkpt lat="42.19561348001225" lon="13.771309601865262"><ele>848.5</ele><time>2026-05-02T10:31:57Z</time></trkpt><trkpt lat="42.19547245659126" lon="13.77132987683165"><ele>851.25</ele><time>2026-05-02T10:31:58Z</time></trkpt><trkpt lat="42.19533278277778" lon="13.771362221455604"><ele>854.0</ele><time>2026-05-02T10:31:59Z</time></trkpt><trkpt lat="42.19519890775597" lon="13.771375494151506"><ele>854.0</ele><time>2026-05-02T10:32:00Z</time></trkpt><trkpt lat="42.195077212313166" lon="13.771346557636079"><ele>854.0000000000001</ele><time>2026-05-02T10:32:01Z</time></trkpt><trkpt lat="42.194971675753386" lon="13.771289078809934"><ele>854.0000000000001</ele><time>2026-05-02T10:32:02Z</time></trkpt><trkpt lat="42.194912867038155" lon="13.771167924488344"><ele>854.0</ele><time>2026-05-02T10:32:03Z</time></trkpt><trkpt lat="42.19492424499901" lon="13.771038582522765"><ele>854.0</ele><time>2026-05-02T10:32:04Z</time></trkpt><trkpt lat="42.19490794009833" lon="13.77089331448925"><ele>853.0</ele><time>2026-05-02T10:32:05Z</time></trkpt><trkpt lat="42.19487029359253" lon="13.770734971355429"><ele>852.0</ele><time>2026-05-02T10:32:06Z</time></trkpt><trkpt lat="42.19485269167863" lon="13.770565153190004"><ele>851.0</ele><time>2026-05-02T10:32:07Z</time></trkpt><trkpt lat="42.194815632525824" lon="13.770392857869696"><ele>850.0</ele><time>2026-05-02T10:32:08Z</time></trkpt><trkpt lat="42.194754981981404" lon="13.770234306746666"><ele>852.75</ele><time>2026-05-02T10:32:09Z</time></trkpt><trkpt lat="42.194686304114676" lon="13.770087371727701"><ele>855.5</ele><time>2026-05-02T10:32:10Z</time></trkpt><trkpt lat="42.19461931407879" lon="13.76994078016861"><ele>858.25</ele><time>2026-05-02T10:32:11Z</time></trkpt><trkpt lat="42.194552616628265" lon="13.769798883975096"><ele>861.0</ele><time>2026-05-02T10:32:12Z</time></trkpt><trkpt lat="42.19449086355819" lon="13.769666469364035"><ele>861.0</ele><time>2026-05-02T10:32:13Z</time></trkpt><trkpt lat="42.19441065236857" lon="13.769557008171256"><ele>861.0</ele><time>2026-05-02T10:32:13.999Z</time></trkpt><trkpt lat="42.194294300727634" lon="13.769520285230943"><ele>861.0</ele><time>2026-05-02T10:32:14.999Z</time></trkpt><trkpt lat="42.19416755061509" lon="13.769529699877806"><ele>861.0</ele><time>2026-05-02T10:32:15.999Z</time></trkpt><trkpt lat="42.194029155724635" lon="13.769555869275747"><ele>863.5</ele><time>2026-05-02T10:32:16.999Z</time></trkpt><trkpt lat="42.19388834360375" lon="13.769623822172491"><ele>866.0</ele><time>2026-05-02T10:32:17.999Z</time></trkpt><trkpt lat="42.193752428574165" lon="13.769657834608651"><ele>868.5</ele><time>2026-05-02T10:32:18.999Z</time></trkpt><trkpt lat="42.19361605639102" lon="13.76964390527025"><ele>871.0</ele><time>2026-05-02T10:32:19.999Z</time></trkpt><trkpt lat="42.19346860820307" lon="13.76961533907054"><ele>871.0</ele><time>2026-05-02T10:32:20.999Z</time></trkpt><trkpt lat="42.19332862434821" lon="13.769579558955263"><ele>871.0</ele><time>2026-05-02T10:32:21.999Z</time></trkpt><trkpt lat="42.19318485926074" lon="13.769571526610616"><ele>871.0</ele><time>2026-05-02T10:32:22.999Z</time></trkpt><trkpt lat="42.19303700226164" lon="13.769575272823774"><ele>871.0</ele><time>2026-05-02T10:32:23.999Z</time></trkpt><trkpt lat="42.192890391430154" lon="13.769569847795951"><ele>871.5</ele><time>2026-05-02T10:32:24.999Z</time></trkpt><trkpt lat="42.19274539756149" lon="13.769566861339994"><ele>872.0</ele><time>2026-05-02T10:32:25.999Z</time></trkpt><trkpt lat="42.192596647340736" lon="13.769554721465482"><ele>872.5</ele><time>2026-05-02T10:32:26.999Z</time></trkpt><trkpt lat="42.19245180991616" lon="13.769531910617438"><ele>873.0</ele><time>2026-05-02T10:32:27.999Z</time></trkpt><trkpt lat="42.192313008265984" lon="13.76948893507829"><ele>873.0</ele><time>2026-05-02T10:32:28.999Z</time></trkpt><trkpt lat="42.19218439993844" lon="13.76942954612923"><ele>873.0</ele><time>2026-05-02T10:32:29.999Z</time></trkpt><trkpt lat="42.19205136647568" lon="13.76938053093023"><ele>873.0</ele><time>2026-05-02T10:32:30.999Z</time></trkpt><trkpt lat="42.191919805877305" lon="13.769370578539634"><ele>873.0</ele><time>2026-05-02T10:32:31.999Z</time></trkpt><trkpt lat="42.191786294946056" lon="13.769382806540147"><ele>873.0</ele><time>2026-05-02T10:32:32.999Z</time></trkpt><trkpt lat="42.191656232509125" lon="13.76939209853088"><ele>873.0</ele><time>2026-05-02T10:32:33.999Z</time></trkpt><trkpt lat="42.19153520735244" lon="13.769383759723599"><ele>873.0</ele><time>2026-05-02T10:32:34.999Z</time></trkpt><trkpt lat="42.191425095902055" lon="13.76938283281612"><ele>873.0</ele><time>2026-05-02T10:32:35.999Z</time></trkpt><trkpt lat="42.19132318141046" lon="13.769354523572277"><ele>872.75</ele><time>2026-05-02T10:32:36.999Z</time></trkpt><trkpt lat="42.19123429164792" lon="13.769244398426926"><ele>872.5</ele><time>2026-05-02T10:32:37.999Z</time></trkpt><trkpt lat="42.19117754050741" lon="13.769105738634146"><ele>872.25</ele><time>2026-05-02T10:32:38.999Z</time></trkpt><trkpt lat="42.19110558342055" lon="13.768982216088519"><ele>872.0</ele><time>2026-05-02T10:32:39.999Z</time></trkpt><trkpt lat="42.19104255626415" lon="13.768876016240403"><ele>872.0</ele><time>2026-05-02T10:32:40.999Z</time></trkpt><trkpt lat="42.19096605541926" lon="13.768796047732806"><ele>872.0</ele><time>2026-05-02T10:32:41.999Z</time></trkpt><trkpt lat="42.19091868760173" lon="13.768718732061323"><ele>872.0</ele><time>2026-05-02T10:32:42.999Z</time></trkpt><trkpt lat="42.190836265513546" lon="13.76864900327737"><ele>872.0</ele><time>2026-05-02T10:32:44.999Z</time></trkpt><trkpt lat="42.19092163147071" lon="13.768570441964933"><ele>872.0</ele><time>2026-05-02T10:32:47.999Z</time></trkpt><trkpt lat="42.19103267313415" lon="13.768503998047297"><ele>872.2</ele><time>2026-05-02T10:32:49.999Z</time></trkpt><trkpt lat="42.191118631273596" lon="13.768466595691466"><ele>872.4000000000001</ele><time>2026-05-02T10:32:50.999Z</time></trkpt><trkpt lat="42.191190149072135" lon="13.768371792430418"><ele>872.5999999999999</ele><time>2026-05-02T10:32:51.999Z</time></trkpt><trkpt lat="42.19123367644625" lon="13.768238692716277"><ele>872.8</ele><time>2026-05-02T10:32:52.999Z</time></trkpt><trkpt lat="42.191299751135375" lon="13.768150210250113"><ele>873.0</ele><time>2026-05-02T10:32:53.999Z</time></trkpt><trkpt lat="42.19135790452548" lon="13.768049292019024"><ele>873.0</ele><time>2026-05-02T10:32:54.999Z</time></trkpt><trkpt lat="42.191409198678954" lon="13.767938301843076"><ele>873.0</ele><time>2026-05-02T10:32:55.999Z</time></trkpt><trkpt lat="42.19148096043591" lon="13.767871321691274"><ele>873.0</ele><time>2026-05-02T10:32:56.999Z</time></trkpt><trkpt lat="42.19153988404101" lon="13.767799439149327"><ele>873.0</ele><time>2026-05-02T10:32:57.999Z</time></trkpt><trkpt lat="42.19158451318696" lon="13.767723344839542"><ele>873.0</ele><time>2026-05-02T10:32:58.999Z</time></trkpt><trkpt lat="42.19164654191987" lon="13.76767092313371"><ele>873.0</ele><time>2026-05-02T10:32:59.999Z</time></trkpt><trkpt lat="42.191703926030115" lon="13.767624473766642"><ele>875.5</ele><time>2026-05-02T10:33:00.999Z</time></trkpt><trkpt lat="42.191754481172104" lon="13.767565229437936"><ele>878.0</ele><time>2026-05-02T10:33:01.999Z</time></trkpt><trkpt lat="42.191807157837225" lon="13.767468113814685"><ele>880.5</ele><time>2026-05-02T10:33:02.999Z</time></trkpt><trkpt lat="42.191856504683834" lon="13.767362067831026"><ele>883.0</ele><time>2026-05-02T10:33:03.999Z</time></trkpt><trkpt lat="42.19189037027589" lon="13.767273325822117"><ele>885.5</ele><time>2026-05-02T10:33:04.999Z</time></trkpt><trkpt lat="42.191919134647186" lon="13.767197674960663"><ele>888.0</ele><time>2026-05-02T10:33:05.999Z</time></trkpt><trkpt lat="42.19194567579669" lon="13.767114882456928"><ele>888.0</ele><time>2026-05-02T10:33:06.999Z</time></trkpt><trkpt lat="42.19196378918636" lon="13.767025498730876"><ele>888.0</ele><time>2026-05-02T10:33:07.999Z</time></trkpt><trkpt lat="42.19198643358052" lon="13.76693015649968"><ele>888.0</ele><time>2026-05-02T10:33:08.999Z</time></trkpt><trkpt lat="42.19201029588966" lon="13.766845526140704"><ele>888.0</ele><time>2026-05-02T10:33:09.999Z</time></trkpt><trkpt lat="42.192049165658034" lon="13.766759639741968"><ele>888.0</ele><time>2026-05-02T10:33:10.999Z</time></trkpt><trkpt lat="42.192082987958266" lon="13.766671065795906"><ele>888.0</ele><time>2026-05-02T10:33:11.999Z</time></trkpt><trkpt lat="42.19212238700362" lon="13.766586057553374"><ele>888.0</ele><time>2026-05-02T10:33:12.999Z</time></trkpt><trkpt lat="42.192167512242285" lon="13.766510902271468"><ele>889.0</ele><time>2026-05-02T10:33:13.999Z</time></trkpt><trkpt lat="42.19222313871596" lon="13.766443647141857"><ele>890.0</ele><time>2026-05-02T10:33:14.999Z</time></trkpt><trkpt lat="42.192257648754136" lon="13.766361276923984"><ele>891.0</ele><time>2026-05-02T10:33:15.999Z</time></trkpt><trkpt lat="42.19231275658077" lon="13.766304195896756"><ele>892.0</ele><time>2026-05-02T10:33:16.999Z</time></trkpt><trkpt lat="42.19235863592273" lon="13.766199156954459"><ele>893.0</ele><time>2026-05-02T10:33:17.999Z</time></trkpt><trkpt lat="42.19242155683862" lon="13.766120721880435"><ele>894.0</ele><time>2026-05-02T10:33:18.999Z</time></trkpt><trkpt lat="42.192473137843116" lon="13.766036897034944"><ele>896.0</ele><time>2026-05-02T10:33:19.999Z</time></trkpt><trkpt lat="42.19252686569388" lon="13.765951059756215"><ele>898.0</ele><time>2026-05-02T10:33:20.999Z</time></trkpt><trkpt lat="42.192566364265566" lon="13.765854497794724"><ele>900.0</ele><time>2026-05-02T10:33:21.999Z</time></trkpt><trkpt lat="42.192636148533076" lon="13.765784021217415"><ele>902.0</ele><time>2026-05-02T10:33:22.999Z</time></trkpt><trkpt lat="42.19269760870785" lon="13.765701745035676"><ele>904.0</ele><time>2026-05-02T10:33:23.999Z</time></trkpt><trkpt lat="42.192748205506355" lon="13.7656366144499"><ele>906.0</ele><time>2026-05-02T10:33:24.999Z</time></trkpt><trkpt lat="42.19278809875711" lon="13.765556153711165"><ele>906.0</ele><time>2026-05-02T10:33:25.999Z</time></trkpt><trkpt lat="42.192854937555005" lon="13.765498092713138"><ele>906.0</ele><time>2026-05-02T10:33:26.999Z</time></trkpt><trkpt lat="42.19291049460056" lon="13.765425134486467"><ele>906.0</ele><time>2026-05-02T10:33:27.999Z</time></trkpt><trkpt lat="42.19296005231152" lon="13.765330527766578"><ele>906.0</ele><time>2026-05-02T10:33:28.999Z</time></trkpt><trkpt lat="42.193010618904765" lon="13.765261609958504"><ele>906.0</ele><time>2026-05-02T10:33:29.999Z</time></trkpt><trkpt lat="42.19307262035459" lon="13.765194425749216"><ele>906.0</ele><time>2026-05-02T10:33:30.999Z</time></trkpt><trkpt lat="42.193131740070676" lon="13.765102785996367"><ele>906.5999999999999</ele><time>2026-05-02T10:33:31.999Z</time></trkpt><trkpt lat="42.19318778924743" lon="13.76499745987959"><ele>907.1999999999999</ele><time>2026-05-02T10:33:32.999Z</time></trkpt><trkpt lat="42.19323833581461" lon="13.764906208044561"><ele>907.8000000000001</ele><time>2026-05-02T10:33:33.999Z</time></trkpt><trkpt lat="42.19329339209161" lon="13.76481082606803"><ele>908.4000000000001</ele><time>2026-05-02T10:33:34.999Z</time></trkpt><trkpt lat="42.19335773213374" lon="13.764720734221456"><ele>909.0</ele><time>2026-05-02T10:33:35.999Z</time></trkpt><trkpt lat="42.193442675673566" lon="13.764638883828777"><ele>909.0</ele><time>2026-05-02T10:33:36.999Z</time></trkpt><trkpt lat="42.19351695420332" lon="13.764552975248856"><ele>909.0</ele><time>2026-05-02T10:33:38Z</time></trkpt><trkpt lat="42.1935987006155" lon="13.76450582715966"><ele>909.0</ele><time>2026-05-02T10:33:39Z</time></trkpt><trkpt lat="42.19367215008956" lon="13.76445514191259"><ele>909.0</ele><time>2026-05-02T10:33:40Z</time></trkpt><trkpt lat="42.193744089206845" lon="13.764399199785037"><ele>909.0</ele><time>2026-05-02T10:33:41Z</time></trkpt><trkpt lat="42.19382154877226" lon="13.764382516079726"><ele>909.0</ele><time>2026-05-02T10:33:42Z</time></trkpt><trkpt lat="42.19389545756145" lon="13.764350049357184"><ele>909.6666666666666</ele><time>2026-05-02T10:33:43Z</time></trkpt><trkpt lat="42.193966542668186" lon="13.76428698470284"><ele>910.3333333333333</ele><time>2026-05-02T10:33:44Z</time></trkpt><trkpt lat="42.194022733754466" lon="13.764201465344767"><ele>911.0</ele><time>2026-05-02T10:33:45Z</time></trkpt><trkpt lat="42.19406450359589" lon="13.764094917194582"><ele>911.6666666666666</ele><time>2026-05-02T10:33:46Z</time></trkpt><trkpt lat="42.194106173828054" lon="13.76398576390494"><ele>912.3333333333333</ele><time>2026-05-02T10:33:47Z</time></trkpt><trkpt lat="42.194143003000804" lon="13.76387245813797"><ele>913.0</ele><time>2026-05-02T10:33:48Z</time></trkpt><trkpt lat="42.194187518620886" lon="13.763767262587226"><ele>912.9999999999999</ele><time>2026-05-02T10:33:49Z</time></trkpt><trkpt lat="42.194226668410266" lon="13.763671891436518"><ele>913.0</ele><time>2026-05-02T10:33:50Z</time></trkpt><trkpt lat="42.19426388567132" lon="13.763577492283805"><ele>913.0</ele><time>2026-05-02T10:33:51Z</time></trkpt><trkpt lat="42.19430967935038" lon="13.763487958639647"><ele>913.0</ele><time>2026-05-02T10:33:52Z</time></trkpt><trkpt lat="42.194361588740875" lon="13.763410543804904"><ele>912.9999999999999</ele><time>2026-05-02T10:33:53Z</time></trkpt><trkpt lat="42.194421857064555" lon="13.763336016841038"><ele>913.0</ele><time>2026-05-02T10:33:54Z</time></trkpt><trkpt lat="42.194485834648134" lon="13.763246455526007"><ele>913.3333333333333</ele><time>2026-05-02T10:33:55Z</time></trkpt><trkpt lat="42.194555535908826" lon="13.763146432008108"><ele>913.6666666666666</ele><time>2026-05-02T10:33:56Z</time></trkpt><trkpt lat="42.19462005757673" lon="13.763055928082307"><ele>914.0</ele><time>2026-05-02T10:33:57Z</time></trkpt><trkpt lat="42.19467822297109" lon="13.762965927809267"><ele>914.3333333333333</ele><time>2026-05-02T10:33:58Z</time></trkpt><trkpt lat="42.19473592863338" lon="13.762901632126768"><ele>914.6666666666666</ele><time>2026-05-02T10:33:59Z</time></trkpt><trkpt lat="42.194797803189296" lon="13.762841671104693"><ele>915.0</ele><time>2026-05-02T10:34:00Z</time></trkpt><trkpt lat="42.19486332179213" lon="13.762804503282231"><ele>915.0</ele><time>2026-05-02T10:34:01Z</time></trkpt><trkpt lat="42.194934760510925" lon="13.76275668216192"><ele>915.0</ele><time>2026-05-02T10:34:02Z</time></trkpt><trkpt lat="42.195011727143395" lon="13.76271661468389"><ele>915.0</ele><time>2026-05-02T10:34:03Z</time></trkpt><trkpt lat="42.19509690704748" lon="13.76267625353124"><ele>915.0</ele><time>2026-05-02T10:34:04Z</time></trkpt><trkpt lat="42.19518686638583" lon="13.762643033329313"><ele>915.0</ele><time>2026-05-02T10:34:05Z</time></trkpt><trkpt lat="42.195277257278384" lon="13.762608474841496"><ele>915.0</ele><time>2026-05-02T10:34:06Z</time></trkpt><trkpt lat="42.19536485998294" lon="13.76255857795325"><ele>914.8</ele><time>2026-05-02T10:34:07Z</time></trkpt><trkpt lat="42.195437921110766" lon="13.762486206952307"><ele>914.6</ele><time>2026-05-02T10:34:08Z</time></trkpt><trkpt lat="42.19550414653916" lon="13.762387641676971"><ele>914.4000000000001</ele><time>2026-05-02T10:34:09Z</time></trkpt><trkpt lat="42.195573698555584" lon="13.762282922188437"><ele>914.2</ele><time>2026-05-02T10:34:10Z</time></trkpt><trkpt lat="42.19562976099775" lon="13.762183655735445"><ele>914.0</ele><time>2026-05-02T10:34:11Z</time></trkpt><trkpt lat="42.19567641449128" lon="13.762092589942998"><ele>914.0000000000001</ele><time>2026-05-02T10:34:12Z</time></trkpt><trkpt lat="42.19571783677397" lon="13.762017485756257"><ele>914.0</ele><time>2026-05-02T10:34:13Z</time></trkpt><trkpt lat="42.19578425625797" lon="13.761876706557516"><ele>914.0</ele><time>2026-05-02T10:34:15Z</time></trkpt><trkpt lat="42.19582429439407" lon="13.761792354656542"><ele>914.0</ele><time>2026-05-02T10:34:16Z</time></trkpt><trkpt lat="42.195860566505395" lon="13.76170908217493"><ele>914.0000000000001</ele><time>2026-05-02T10:34:17Z</time></trkpt><trkpt lat="42.19589471409067" lon="13.761633423026868"><ele>914.0</ele><time>2026-05-02T10:34:18Z</time></trkpt><trkpt lat="42.19596533319796" lon="13.761484123339407"><ele>915.6</ele><time>2026-05-02T10:34:20Z</time></trkpt><trkpt lat="42.196011559304395" lon="13.761409005240697"><ele>917.2</ele><time>2026-05-02T10:34:21Z</time></trkpt><trkpt lat="42.196080954685186" lon="13.761309282854947"><ele>918.8000000000001</ele><time>2026-05-02T10:34:23Z</time></trkpt><trkpt lat="42.19615156601215" lon="13.761202906474136"><ele>920.4000000000001</ele><time>2026-05-02T10:34:25Z</time></trkpt><trkpt lat="42.196240172910876" lon="13.761076531116943"><ele>922.0</ele><time>2026-05-02T10:34:27Z</time></trkpt><trkpt lat="42.196291622082796" lon="13.760991761104263"><ele>921.9999999999999</ele><time>2026-05-02T10:34:28Z</time></trkpt><trkpt lat="42.19634416493275" lon="13.7608998391576"><ele>922.0</ele><time>2026-05-02T10:34:29Z</time></trkpt><trkpt lat="42.196378955560405" lon="13.760820691089812"><ele>922.0</ele><time>2026-05-02T10:34:30Z</time></trkpt><trkpt lat="42.19643173898477" lon="13.760712465325113"><ele>922.0</ele><time>2026-05-02T10:34:32Z</time></trkpt><trkpt lat="42.196505969402104" lon="13.76059136763244"><ele>921.9999999999999</ele><time>2026-05-02T10:34:34Z</time></trkpt><trkpt lat="42.19653230841711" lon="13.760498444434406"><ele>922.0</ele><time>2026-05-02T10:34:35Z</time></trkpt><trkpt lat="42.196582639082365" lon="13.760421263314868"><ele>921.9999999999999</ele><time>2026-05-02T10:34:36Z</time></trkpt><trkpt lat="42.196621041243205" lon="13.760329034617413"><ele>922.0</ele><time>2026-05-02T10:34:37Z</time></trkpt><trkpt lat="42.196664320909846" lon="13.760241565572912"><ele>922.0</ele><time>2026-05-02T10:34:38Z</time></trkpt><trkpt lat="42.1967065261434" lon="13.76014468932497"><ele>922.0</ele><time>2026-05-02T10:34:39Z</time></trkpt><trkpt lat="42.196745037308304" lon="13.760067057168111"><ele>921.9999999999999</ele><time>2026-05-02T10:34:40Z</time></trkpt><trkpt lat="42.19679051297615" lon="13.75995130829544"><ele>922.0</ele><time>2026-05-02T10:34:41.999Z</time></trkpt><trkpt lat="42.19683879294395" lon="13.759849190858723"><ele>923.4999999999999</ele><time>2026-05-02T10:34:43.999Z</time></trkpt><trkpt lat="42.19689749331307" lon="13.759717859149033"><ele>925.0</ele><time>2026-05-02T10:34:45.999Z</time></trkpt><trkpt lat="42.19692350040112" lon="13.759633314729976"><ele>926.5</ele><time>2026-05-02T10:34:46.999Z</time></trkpt><trkpt lat="42.196932200160965" lon="13.759539686178137"><ele>928.0</ele><time>2026-05-02T10:34:47.999Z</time></trkpt><trkpt lat="42.19693724724622" lon="13.759436659992623"><ele>929.4999999999999</ele><time>2026-05-02T10:34:48.999Z</time></trkpt><trkpt lat="42.19693621211263" lon="13.759325966917176"><ele>931.0</ele><time>2026-05-02T10:34:49.999Z</time></trkpt><trkpt lat="42.19692833260426" lon="13.759205959542808"><ele>932.0</ele><time>2026-05-02T10:34:50.999Z</time></trkpt><trkpt lat="42.19691129951571" lon="13.759095492885528"><ele>932.9999999999999</ele><time>2026-05-02T10:34:51.999Z</time></trkpt><trkpt lat="42.19689490181715" lon="13.758995641397131"><ele>933.9999999999999</ele><time>2026-05-02T10:34:52.999Z</time></trkpt><trkpt lat="42.19688304459169" lon="13.758835937085514"><ele>935.0</ele><time>2026-05-02T10:34:54.999Z</time></trkpt><trkpt lat="42.19686268535779" lon="13.75869935493727"><ele>936.0</ele><time>2026-05-02T10:34:56.999Z</time></trkpt><trkpt lat="42.196846833821425" lon="13.758547085330378"><ele>936.4</ele><time>2026-05-02T10:34:58.999Z</time></trkpt><trkpt lat="42.19685649037434" lon="13.758394736446663"><ele>936.8</ele><time>2026-05-02T10:35:00.999Z</time></trkpt><trkpt lat="42.196902051831444" lon="13.758242243811095"><ele>937.1999999999999</ele><time>2026-05-02T10:35:02.999Z</time></trkpt><trkpt lat="42.19693040086463" lon="13.758159739380757"><ele>937.5999999999999</ele><time>2026-05-02T10:35:13.999Z</time></trkpt><trkpt lat="42.19695268755791" lon="13.75806775654072"><ele>938.0</ele><time>2026-05-02T10:35:15.999Z</time></trkpt><trkpt lat="42.19700651089183" lon="13.75797964622875"><ele>938.0000000000001</ele><time>2026-05-02T10:35:17.999Z</time></trkpt><trkpt lat="42.19703967192817" lon="13.757868800316635"><ele>938.0</ele><time>2026-05-02T10:35:19.999Z</time></trkpt><trkpt lat="42.197107410708156" lon="13.757748324521804"><ele>938.0</ele><time>2026-05-02T10:35:21.999Z</time></trkpt><trkpt lat="42.19714849206585" lon="13.757682321834654"><ele>938.0</ele><time>2026-05-02T10:35:22.999Z</time></trkpt><trkpt lat="42.197186427622675" lon="13.757607520602368"><ele>938.0000000000001</ele><time>2026-05-02T10:35:23.999Z</time></trkpt><trkpt lat="42.19721985063645" lon="13.757525223288521"><ele>938.0</ele><time>2026-05-02T10:35:24.999Z</time></trkpt><trkpt lat="42.197244867267905" lon="13.757443061336167"><ele>939.1428571428571</ele><time>2026-05-02T10:35:25.999Z</time></trkpt><trkpt lat="42.19725871453778" lon="13.7573513555968"><ele>940.2857142857142</ele><time>2026-05-02T10:35:26.999Z</time></trkpt><trkpt lat="42.19725979962192" lon="13.757252090214125"><ele>941.4285714285714</ele><time>2026-05-02T10:35:27.999Z</time></trkpt><trkpt lat="42.19724622662804" lon="13.75716050535104"><ele>942.5714285714286</ele><time>2026-05-02T10:35:28.999Z</time></trkpt><trkpt lat="42.197220807567035" lon="13.757058251310905"><ele>943.7142857142857</ele><time>2026-05-02T10:35:29.999Z</time></trkpt><trkpt lat="42.19719587387412" lon="13.756957842350452"><ele>944.8571428571429</ele><time>2026-05-02T10:35:30.999Z</time></trkpt><trkpt lat="42.1971755576344" lon="13.756866563200921"><ele>946.0</ele><time>2026-05-02T10:35:31.999Z</time></trkpt><trkpt lat="42.197164018809865" lon="13.756724689522201"><ele>946.9999999999999</ele><time>2026-05-02T10:35:33.999Z</time></trkpt><trkpt lat="42.19716695261393" lon="13.756580212602357"><ele>948.0</ele><time>2026-05-02T10:35:35.999Z</time></trkpt><trkpt lat="42.197155336045476" lon="13.756489018360297"><ele>949.0</ele><time>2026-05-02T10:35:36.999Z</time></trkpt><trkpt lat="42.197167280955526" lon="13.756396811263992"><ele>950.0</ele><time>2026-05-02T10:35:37.999Z</time></trkpt><trkpt lat="42.197168549923774" lon="13.75624987781939"><ele>950.9999999999999</ele><time>2026-05-02T10:35:39.999Z</time></trkpt><trkpt lat="42.19716763922174" lon="13.756150439699338"><ele>952.0</ele><time>2026-05-02T10:35:41.999Z</time></trkpt><trkpt lat="42.1971660071306" lon="13.756064389261969"><ele>953.8</ele><time>2026-05-02T10:35:45Z</time></trkpt><trkpt lat="42.1971453501639" lon="13.755963445863125"><ele>955.6</ele><time>2026-05-02T10:35:59Z</time></trkpt><trkpt lat="42.19715361805026" lon="13.755865699730588"><ele>957.3999999999999</ele><time>2026-05-02T10:36:01Z</time></trkpt><trkpt lat="42.19712869893944" lon="13.75574337739087"><ele>959.1999999999999</ele><time>2026-05-02T10:36:03Z</time></trkpt><trkpt lat="42.197117318082135" lon="13.755587543196237"><ele>961.0</ele><time>2026-05-02T10:36:05Z</time></trkpt><trkpt lat="42.19709782240857" lon="13.755447599335993"><ele>960.9999999999999</ele><time>2026-05-02T10:36:07Z</time></trkpt><trkpt lat="42.19707245083084" lon="13.755321041303135"><ele>961.0</ele><time>2026-05-02T10:36:09Z</time></trkpt><trkpt lat="42.1970561285127" lon="13.755227756091553"><ele>961.0</ele><time>2026-05-02T10:36:22Z</time></trkpt><trkpt lat="42.197037074138954" lon="13.75510486362634"><ele>961.0</ele><time>2026-05-02T10:36:25Z</time></trkpt><trkpt lat="42.19699584927125" lon="13.754992932248364"><ele>960.9999999999999</ele><time>2026-05-02T10:36:27Z</time></trkpt><trkpt lat="42.19696982495336" lon="13.754875849861905"><ele>961.0</ele><time>2026-05-02T10:36:29Z</time></trkpt><trkpt lat="42.19692616158645" lon="13.754725119751658"><ele>963.0</ele><time>2026-05-02T10:36:31Z</time></trkpt><trkpt lat="42.19690013497277" lon="13.754573086220642"><ele>964.9999999999999</ele><time>2026-05-02T10:36:33Z</time></trkpt><trkpt lat="42.19689197337949" lon="13.754431084644457"><ele>966.9999999999999</ele><time>2026-05-02T10:36:35Z</time></trkpt><trkpt lat="42.1968732646948" lon="13.75429888602128"><ele>969.0</ele><time>2026-05-02T10:36:37Z</time></trkpt><trkpt lat="42.19683431730594" lon="13.754149747244588"><ele>971.0</ele><time>2026-05-02T10:36:39Z</time></trkpt><trkpt lat="42.196765042230474" lon="13.754010005115495"><ele>973.1999999999999</ele><time>2026-05-02T10:36:41Z</time></trkpt><trkpt lat="42.196697507249745" lon="13.753928738984843"><ele>975.3999999999999</ele><time>2026-05-02T10:36:43Z</time></trkpt><trkpt lat="42.19661184537368" lon="13.75389163641291"><ele>977.6</ele><time>2026-05-02T10:36:45Z</time></trkpt><trkpt lat="42.196552825304764" lon="13.753782665925735"><ele>979.8</ele><time>2026-05-02T10:36:47Z</time></trkpt><trkpt lat="42.1964898082166" lon="13.753616605759243"><ele>982.0</ele><time>2026-05-02T10:36:49Z</time></trkpt><trkpt lat="42.196503113170145" lon="13.75346803702948"><ele>983.8333333333333</ele><time>2026-05-02T10:36:51Z</time></trkpt><trkpt lat="42.196528638694495" lon="13.753384917370328"><ele>985.6666666666666</ele><time>2026-05-02T10:36:52Z</time></trkpt><trkpt lat="42.196562911943786" lon="13.753285832918676"><ele>987.5</ele><time>2026-05-02T10:36:53Z</time></trkpt><trkpt lat="42.19659929230834" lon="13.75318734799406"><ele>989.3333333333333</ele><time>2026-05-02T10:36:54Z</time></trkpt><trkpt lat="42.19663921685596" lon="13.753107005381382"><ele>991.1666666666666</ele><time>2026-05-02T10:36:55Z</time></trkpt><trkpt lat="42.19669548188192" lon="13.753054002999288"><ele>993.0</ele><time>2026-05-02T10:36:56Z</time></trkpt><trkpt lat="42.19677683556468" lon="13.753039468078802"><ele>993.0</ele><time>2026-05-02T10:36:57Z</time></trkpt><trkpt lat="42.196844678713774" lon="13.75302095025761"><ele>993.0</ele><time>2026-05-02T10:36:58Z</time></trkpt><trkpt lat="42.19695902078027" lon="13.752991720234151"><ele>993.0</ele><time>2026-05-02T10:37:00Z</time></trkpt><trkpt lat="42.19701939645649" lon="13.75293846345508"><ele>993.0</ele><time>2026-05-02T10:37:00.999Z</time></trkpt><trkpt lat="42.19708386744827" lon="13.752872312351196"><ele>993.0</ele><time>2026-05-02T10:37:01.999Z</time></trkpt><trkpt lat="42.19713121722515" lon="13.752807980750438"><ele>993.0</ele><time>2026-05-02T10:37:02.999Z</time></trkpt><trkpt lat="42.19719167153365" lon="13.752702664863671"><ele>994.2</ele><time>2026-05-02T10:37:04.999Z</time></trkpt><trkpt lat="42.19723928918625" lon="13.752602421448502"><ele>995.4</ele><time>2026-05-02T10:37:06.999Z</time></trkpt><trkpt lat="42.19729734645554" lon="13.752487163879676"><ele>996.6000000000001</ele><time>2026-05-02T10:37:08.999Z</time></trkpt><trkpt lat="42.19734179713275" lon="13.752375547641238"><ele>997.8000000000001</ele><time>2026-05-02T10:37:10.999Z</time></trkpt><trkpt lat="42.19740417072674" lon="13.752220898777068"><ele>999.0</ele><time>2026-05-02T10:37:12.999Z</time></trkpt><trkpt lat="42.19743294458986" lon="13.752130164902837"><ele>999.0</ele><time>2026-05-02T10:37:13.999Z</time></trkpt><trkpt lat="42.19746943352747" lon="13.752025736165724"><ele>999.0</ele><time>2026-05-02T10:37:14.999Z</time></trkpt><trkpt lat="42.19751065044431" lon="13.751932395064607"><ele>999.0</ele><time>2026-05-02T10:37:15.999Z</time></trkpt><trkpt lat="42.197556495813885" lon="13.751844948508356"><ele>999.0</ele><time>2026-05-02T10:37:16.999Z</time></trkpt><trkpt lat="42.197617952495634" lon="13.75176472304233"><ele>999.0</ele><time>2026-05-02T10:37:17.999Z</time></trkpt><trkpt lat="42.197688926850425" lon="13.751692368632343"><ele>999.0</ele><time>2026-05-02T10:37:18.999Z</time></trkpt><trkpt lat="42.1977487003207" lon="13.751600482567483"><ele>1001.0</ele><time>2026-05-02T10:37:19.999Z</time></trkpt><trkpt lat="42.19781575423401" lon="13.751516093636804"><ele>1003.0</ele><time>2026-05-02T10:37:20.999Z</time></trkpt><trkpt lat="42.19788229313374" lon="13.751446883563705"><ele>1005.0</ele><time>2026-05-02T10:37:21.999Z</time></trkpt><trkpt lat="42.19794555147635" lon="13.751376596307168"><ele>1007.0</ele><time>2026-05-02T10:37:22.999Z</time></trkpt><trkpt lat="42.198012674464145" lon="13.75129694186421"><ele>1009.0</ele><time>2026-05-02T10:37:23.999Z</time></trkpt><trkpt lat="42.19807051638786" lon="13.751206439500429"><ele>1011.0</ele><time>2026-05-02T10:37:24.999Z</time></trkpt><trkpt lat="42.198128259480626" lon="13.751114572878599"><ele>1012.6666666666666</ele><time>2026-05-02T10:37:25.999Z</time></trkpt><trkpt lat="42.19817939639026" lon="13.751035700147062"><ele>1014.3333333333333</ele><time>2026-05-02T10:37:26.999Z</time></trkpt><trkpt lat="42.198243621927666" lon="13.750955877276958"><ele>1016.0</ele><time>2026-05-02T10:37:27.999Z</time></trkpt><trkpt lat="42.198300285253865" lon="13.750876479663685"><ele>1017.6666666666666</ele><time>2026-05-02T10:37:28.999Z</time></trkpt><trkpt lat="42.19834605909527" lon="13.750805798953138"><ele>1019.3333333333333</ele><time>2026-05-02T10:37:29.999Z</time></trkpt><trkpt lat="42.19839895473167" lon="13.750707424241527"><ele>1021.0</ele><time>2026-05-02T10:37:30.999Z</time></trkpt><trkpt lat="42.19845229609988" lon="13.750637559453615"><ele>1020.9999999999999</ele><time>2026-05-02T10:37:31.999Z</time></trkpt><trkpt lat="42.198509152202206" lon="13.750559323344662"><ele>1021.0</ele><time>2026-05-02T10:37:32.999Z</time></trkpt><trkpt lat="42.198564218013445" lon="13.750472964658384"><ele>1021.0</ele><time>2026-05-02T10:37:33.999Z</time></trkpt><trkpt lat="42.19862232314004" lon="13.75039229432121"><ele>1021.0</ele><time>2026-05-02T10:37:34.999Z</time></trkpt><trkpt lat="42.198679660223775" lon="13.750313815222963"><ele>1020.9999999999999</ele><time>2026-05-02T10:37:35.999Z</time></trkpt><trkpt lat="42.198722506091364" lon="13.750233395082955"><ele>1021.0</ele><time>2026-05-02T10:37:36.999Z</time></trkpt><trkpt lat="42.198758142440354" lon="13.75007700679463"><ele>1022.5714285714286</ele><time>2026-05-02T10:37:38.999Z</time></trkpt><trkpt lat="42.1987592644214" lon="13.749989229351257"><ele>1024.142857142857</ele><time>2026-05-02T10:37:39.999Z</time></trkpt><trkpt lat="42.198758065445226" lon="13.749885601450345"><ele>1025.7142857142858</ele><time>2026-05-02T10:37:40.999Z</time></trkpt><trkpt lat="42.1987542641579" lon="13.749783359338688"><ele>1027.2857142857142</ele><time>2026-05-02T10:37:41.999Z</time></trkpt><trkpt lat="42.19874832100991" lon="13.7496969691372"><ele>1028.857142857143</ele><time>2026-05-02T10:37:42.999Z</time></trkpt><trkpt lat="42.19875286825697" lon="13.74960803532642"><ele>1030.4285714285713</ele><time>2026-05-02T10:37:43.999Z</time></trkpt><trkpt lat="42.198756395913975" lon="13.749490188881696"><ele>1032.0</ele><time>2026-05-02T10:37:45.999Z</time></trkpt><trkpt lat="42.198705741865616" lon="13.749393088917712"><ele>1032.8333333333333</ele><time>2026-05-02T10:38:29Z</time></trkpt><trkpt lat="42.19868812495789" lon="13.749234928263613"><ele>1033.6666666666667</ele><time>2026-05-02T10:38:31Z</time></trkpt><trkpt lat="42.19869164311016" lon="13.749139723694629"><ele>1034.5</ele><time>2026-05-02T10:38:32Z</time></trkpt><trkpt lat="42.19869678639271" lon="13.749050981567528"><ele>1035.3333333333335</ele><time>2026-05-02T10:38:33Z</time></trkpt><trkpt lat="42.19869016527165" lon="13.748965481325698"><ele>1036.1666666666667</ele><time>2026-05-02T10:38:34Z</time></trkpt><trkpt lat="42.198675700218416" lon="13.74885076681476"><ele>1037.0</ele><time>2026-05-02T10:38:35Z</time></trkpt><trkpt lat="42.198645244275085" lon="13.748748623359"><ele>1037.0</ele><time>2026-05-02T10:38:36Z</time></trkpt><trkpt lat="42.19862443390256" lon="13.748633775541743"><ele>1037.0</ele><time>2026-05-02T10:38:37Z</time></trkpt><trkpt lat="42.19862721559106" lon="13.748523379437115"><ele>1037.0</ele><time>2026-05-02T10:38:38Z</time></trkpt><trkpt lat="42.19864465661798" lon="13.748415396504194"><ele>1037.0</ele><time>2026-05-02T10:38:39Z</time></trkpt><trkpt lat="42.198660696529366" lon="13.748302411216056"><ele>1037.0</ele><time>2026-05-02T10:38:40Z</time></trkpt><trkpt lat="42.19866403535773" lon="13.748173687860564"><ele>1037.0</ele><time>2026-05-02T10:38:41Z</time></trkpt><trkpt lat="42.19866760372404" lon="13.748055143972636"><ele>1037.3333333333335</ele><time>2026-05-02T10:38:42Z</time></trkpt><trkpt lat="42.19867206686227" lon="13.747938801826397"><ele>1037.6666666666667</ele><time>2026-05-02T10:38:43Z</time></trkpt><trkpt lat="42.19867259321191" lon="13.747824064526732"><ele>1038.0</ele><time>2026-05-02T10:38:44Z</time></trkpt><trkpt lat="42.19867581087199" lon="13.74770421825253"><ele>1038.3333333333333</ele><time>2026-05-02T10:38:45Z</time></trkpt><trkpt lat="42.19867396910426" lon="13.747590139273804"><ele>1038.6666666666665</ele><time>2026-05-02T10:38:46Z</time></trkpt><trkpt lat="42.198671083628966" lon="13.747471509368976"><ele>1039.0</ele><time>2026-05-02T10:38:47Z</time></trkpt><trkpt lat="42.19867510093562" lon="13.747359455428716"><ele>1040.1666666666665</ele><time>2026-05-02T10:38:48Z</time></trkpt><trkpt lat="42.19867613128454" lon="13.747256841099546"><ele>1041.3333333333333</ele><time>2026-05-02T10:38:49Z</time></trkpt><trkpt lat="42.19870665319923" lon="13.74710187809864"><ele>1042.5</ele><time>2026-05-02T10:38:51Z</time></trkpt><trkpt lat="42.19873215096953" lon="13.747022385990787"><ele>1043.6666666666667</ele><time>2026-05-02T10:38:52Z</time></trkpt><trkpt lat="42.19876378286552" lon="13.746937926477672"><ele>1044.8333333333335</ele><time>2026-05-02T10:38:53Z</time></trkpt><trkpt lat="42.19879729986467" lon="13.746843886888259"><ele>1046.0</ele><time>2026-05-02T10:38:54Z</time></trkpt><trkpt lat="42.19882656916246" lon="13.746721329169223"><ele>1047.3999999999999</ele><time>2026-05-02T10:38:55Z</time></trkpt><trkpt lat="42.19882973126275" lon="13.746600213286992"><ele>1048.8</ele><time>2026-05-02T10:38:56Z</time></trkpt><trkpt lat="42.198829369283885" lon="13.7464643576687"><ele>1050.1999999999998</ele><time>2026-05-02T10:38:57Z</time></trkpt><trkpt lat="42.19883017838795" lon="13.746344112886117"><ele>1051.6</ele><time>2026-05-02T10:38:58Z</time></trkpt><trkpt lat="42.19883731935823" lon="13.746219643834898"><ele>1053.0</ele><time>2026-05-02T10:38:59Z</time></trkpt><trkpt lat="42.19884921069323" lon="13.746102784897927"><ele>1053.8</ele><time>2026-05-02T10:39:00Z</time></trkpt><trkpt lat="42.19887608041494" lon="13.745984368337579"><ele>1054.6</ele><time>2026-05-02T10:39:01Z</time></trkpt><trkpt lat="42.198916129930105" lon="13.745870237542144"><ele>1055.4</ele><time>2026-05-02T10:39:02Z</time></trkpt><trkpt lat="42.198956585712565" lon="13.745763458280038"><ele>1056.2</ele><time>2026-05-02T10:39:03Z</time></trkpt><trkpt lat="42.19897356789121" lon="13.745639603451725"><ele>1057.0</ele><time>2026-05-02T10:39:04Z</time></trkpt><trkpt lat="42.199006933435186" lon="13.745522176286434"><ele>1057.0</ele><time>2026-05-02T10:39:05Z</time></trkpt><trkpt lat="42.199027275955906" lon="13.745414659357255"><ele>1057.0</ele><time>2026-05-02T10:39:05.999Z</time></trkpt><trkpt lat="42.19907280025907" lon="13.745322420793462"><ele>1057.0</ele><time>2026-05-02T10:39:06.999Z</time></trkpt><trkpt lat="42.19913672303584" lon="13.745230679963912"><ele>1057.0</ele><time>2026-05-02T10:39:07.999Z</time></trkpt><trkpt lat="42.199217111715406" lon="13.745148637651683"><ele>1057.0</ele><time>2026-05-02T10:39:08.999Z</time></trkpt><trkpt lat="42.199284312880266" lon="13.745045955493522"><ele>1057.3333333333333</ele><time>2026-05-02T10:39:09.999Z</time></trkpt><trkpt lat="42.199328673518686" lon="13.744934432006776"><ele>1057.6666666666665</ele><time>2026-05-02T10:39:10.999Z</time></trkpt><trkpt lat="42.19935987150705" lon="13.74483617515346"><ele>1058.0</ele><time>2026-05-02T10:39:11.999Z</time></trkpt><trkpt lat="42.19939239191606" lon="13.74474744774923"><ele>1058.3333333333333</ele><time>2026-05-02T10:39:12.999Z</time></trkpt><trkpt lat="42.199415902319956" lon="13.744662873662763"><ele>1058.6666666666667</ele><time>2026-05-02T10:39:13.999Z</time></trkpt><trkpt lat="42.199439569513004" lon="13.744583703469553"><ele>1059.0</ele><time>2026-05-02T10:39:14.999Z</time></trkpt><trkpt lat="42.19949553241549" lon="13.74445668951152"><ele>1059.6666666666667</ele><time>2026-05-02T10:39:16.999Z</time></trkpt><trkpt lat="42.19954992429047" lon="13.744379473325436"><ele>1060.3333333333333</ele><time>2026-05-02T10:39:18.999Z</time></trkpt><trkpt lat="42.19962431240412" lon="13.744312943907529"><ele>1061.0</ele><time>2026-05-02T10:39:20.999Z</time></trkpt><trkpt lat="42.19970792173115" lon="13.744269203966065"><ele>1061.6666666666665</ele><time>2026-05-02T10:39:22.999Z</time></trkpt><trkpt lat="42.19978958668004" lon="13.74422300249166"><ele>1062.3333333333333</ele><time>2026-05-02T10:39:24.999Z</time></trkpt><trkpt lat="42.199870137499055" lon="13.744184532803652"><ele>1063.0</ele><time>2026-05-02T10:39:26.999Z</time></trkpt><trkpt lat="42.19994610586578" lon="13.74413899195575"><ele>1061.0</ele><time>2026-05-02T10:39:28.999Z</time></trkpt><trkpt lat="42.20002193556084" lon="13.744098585503362"><ele>1059.0</ele><time>2026-05-02T10:39:30.999Z</time></trkpt><trkpt lat="42.2001020729098" lon="13.744054561993652"><ele>1057.0</ele><time>2026-05-02T10:39:32.999Z</time></trkpt><trkpt lat="42.20017599492265" lon="13.744000930830953"><ele>1055.0</ele><time>2026-05-02T10:39:34.999Z</time></trkpt><trkpt lat="42.2002321669111" lon="13.743950909853355"><ele>1053.0</ele><time>2026-05-02T10:39:36.999Z</time></trkpt><trkpt lat="42.20028788178254" lon="13.743901352399634"><ele>1051.0</ele><time>2026-05-02T10:39:38.999Z</time></trkpt><trkpt lat="42.20034896125517" lon="13.743803859027217"><ele>1051.0</ele><time>2026-05-02T10:39:40.999Z</time></trkpt><trkpt lat="42.20040788416382" lon="13.74368807916245"><ele>1051.0</ele><time>2026-05-02T10:39:42.999Z</time></trkpt><trkpt lat="42.2004642442475" lon="13.743557889190065"><ele>1051.0</ele><time>2026-05-02T10:39:44.999Z</time></trkpt><trkpt lat="42.20052464565418" lon="13.743427164815685"><ele>1051.0</ele><time>2026-05-02T10:39:46.999Z</time></trkpt><trkpt lat="42.20058234286814" lon="13.743293459474328"><ele>1051.0</ele><time>2026-05-02T10:39:48.999Z</time></trkpt><trkpt lat="42.2006278370205" lon="13.743168160291567"><ele>1052.0</ele><time>2026-05-02T10:39:50.999Z</time></trkpt><trkpt lat="42.2006605606577" lon="13.743068037580137"><ele>1053.0</ele><time>2026-05-02T10:39:52.999Z</time></trkpt><trkpt lat="42.20070920563197" lon="13.742946901852433"><ele>1054.0</ele><time>2026-05-02T10:39:54.999Z</time></trkpt><trkpt lat="42.20078401240004" lon="13.742812598113641"><ele>1055.0</ele><time>2026-05-02T10:39:57Z</time></trkpt><trkpt lat="42.2008325883998" lon="13.742725917995413"><ele>1056.0</ele><time>2026-05-02T10:39:58Z</time></trkpt><trkpt lat="42.20087572668358" lon="13.742660326049092"><ele>1053.4285714285713</ele><time>2026-05-02T10:39:59Z</time></trkpt><trkpt lat="42.20091682233818" lon="13.742587894446858"><ele>1050.857142857143</ele><time>2026-05-02T10:40:00Z</time></trkpt><trkpt lat="42.20095183652058" lon="13.74251479769143"><ele>1048.2857142857142</ele><time>2026-05-02T10:40:01Z</time></trkpt><trkpt lat="42.20099207321148" lon="13.742439037121596"><ele>1045.7142857142858</ele><time>2026-05-02T10:40:02Z</time></trkpt><trkpt lat="42.2010405714525" lon="13.742370871792684"><ele>1043.142857142857</ele><time>2026-05-02T10:40:03Z</time></trkpt><trkpt lat="42.20109716128533" lon="13.74230305372463"><ele>1040.5714285714284</ele><time>2026-05-02T10:40:04Z</time></trkpt><trkpt lat="42.201159754542196" lon="13.742242073783622"><ele>1038.0</ele><time>2026-05-02T10:40:05Z</time></trkpt><trkpt lat="42.201218116434255" lon="13.742190097771394"><ele>1038.0</ele><time>2026-05-02T10:40:06Z</time></trkpt><trkpt lat="42.2012820302834" lon="13.742117822805307"><ele>1038.0</ele><time>2026-05-02T10:40:07Z</time></trkpt><trkpt lat="42.20133644096293" lon="13.742037413281535"><ele>1038.0</ele><time>2026-05-02T10:40:08Z</time></trkpt><trkpt lat="42.20139252525716" lon="13.741965250504654"><ele>1038.0</ele><time>2026-05-02T10:40:09Z</time></trkpt><trkpt lat="42.20143945513612" lon="13.741903996831578"><ele>1038.0</ele><time>2026-05-02T10:40:10Z</time></trkpt><trkpt lat="42.201486190080814" lon="13.74183527102059"><ele>1038.0</ele><time>2026-05-02T10:40:11Z</time></trkpt><trkpt lat="42.20156187662624" lon="13.74172110077896"><ele>1035.6666666666667</ele><time>2026-05-02T10:40:13Z</time></trkpt><trkpt lat="42.201642614460866" lon="13.741588760626424"><ele>1033.3333333333333</ele><time>2026-05-02T10:40:15Z</time></trkpt><trkpt lat="42.20168996918194" lon="13.741522454337963"><ele>1031.0</ele><time>2026-05-02T10:40:16Z</time></trkpt><trkpt lat="42.20175041907191" lon="13.741461058509971"><ele>1028.6666666666665</ele><time>2026-05-02T10:40:17Z</time></trkpt><trkpt lat="42.201811459518574" lon="13.741406005042611"><ele>1026.3333333333333</ele><time>2026-05-02T10:40:18Z</time></trkpt><trkpt lat="42.201877290646024" lon="13.741359785599407"><ele>1024.0</ele><time>2026-05-02T10:40:19Z</time></trkpt><trkpt lat="42.201932782762526" lon="13.741318842867782"><ele>1023.9999999999999</ele><time>2026-05-02T10:40:20Z</time></trkpt><trkpt lat="42.20200121823477" lon="13.741290826665676"><ele>1024.0</ele><time>2026-05-02T10:40:21Z</time></trkpt><trkpt lat="42.202071609493935" lon="13.741283177298126"><ele>1024.0</ele><time>2026-05-02T10:40:22Z</time></trkpt><trkpt lat="42.202163349103174" lon="13.74127063952914"><ele>1024.0</ele><time>2026-05-02T10:40:23Z</time></trkpt><trkpt lat="42.202257041830165" lon="13.741261314895677"><ele>1023.9999999999999</ele><time>2026-05-02T10:40:24Z</time></trkpt><trkpt lat="42.20237051147735" lon="13.741239380126018"><ele>1024.0</ele><time>2026-05-02T10:40:25Z</time></trkpt><trkpt lat="42.20247807895047" lon="13.741220137977715"><ele>1019.0</ele><time>2026-05-02T10:40:26Z</time></trkpt><trkpt lat="42.20257441070966" lon="13.741197751985775"><ele>1014.0000000000001</ele><time>2026-05-02T10:40:27Z</time></trkpt><trkpt lat="42.20266730800712" lon="13.741176280509615"><ele>1009.0000000000001</ele><time>2026-05-02T10:40:28Z</time></trkpt><trkpt lat="42.20275264260593" lon="13.741159748129057"><ele>1004.0</ele><time>2026-05-02T10:40:29Z</time></trkpt><trkpt lat="42.202845204575866" lon="13.7411235743161"><ele>999.0</ele><time>2026-05-02T10:40:30Z</time></trkpt><trkpt lat="42.202928336122575" lon="13.7410831359349"><ele>1000.1666666666666</ele><time>2026-05-02T10:40:31Z</time></trkpt><trkpt lat="42.20301065298693" lon="13.741043925930828"><ele>1001.3333333333333</ele><time>2026-05-02T10:40:32Z</time></trkpt><trkpt lat="42.20309529392606" lon="13.74102068020741"><ele>1002.5</ele><time>2026-05-02T10:40:33Z</time></trkpt><trkpt lat="42.203180689627715" lon="13.741014469411551"><ele>1003.6666666666666</ele><time>2026-05-02T10:40:34Z</time></trkpt><trkpt lat="42.20325949770862" lon="13.74099761907044"><ele>1004.8333333333333</ele><time>2026-05-02T10:40:35Z</time></trkpt><trkpt lat="42.20332933021164" lon="13.74095983666273"><ele>1006.0</ele><time>2026-05-02T10:40:36Z</time></trkpt><trkpt lat="42.203394631145" lon="13.740921283402725"><ele>1006.0</ele><time>2026-05-02T10:40:37Z</time></trkpt><trkpt lat="42.20351094358208" lon="13.74088496437561"><ele>1005.9999999999999</ele><time>2026-05-02T10:40:39Z</time></trkpt><trkpt lat="42.2035930890778" lon="13.740810695412387"><ele>1005.9999999999999</ele><time>2026-05-02T10:40:41Z</time></trkpt><trkpt lat="42.20364551476353" lon="13.740695757554313"><ele>1006.0</ele><time>2026-05-02T10:40:43Z</time></trkpt><trkpt lat="42.20370782878057" lon="13.740589998775025"><ele>1006.0</ele><time>2026-05-02T10:40:45Z</time></trkpt><trkpt lat="42.20374882878286" lon="13.74052121602712"><ele>1006.0</ele><time>2026-05-02T10:40:46Z</time></trkpt><trkpt lat="42.20379572145878" lon="13.740436993165623"><ele>1006.0000000000001</ele><time>2026-05-02T10:40:47Z</time></trkpt><trkpt lat="42.20383838056444" lon="13.740346103432717"><ele>1006.0</ele><time>2026-05-02T10:40:48Z</time></trkpt><trkpt lat="42.2038773131862" lon="13.740267483444718"><ele>1006.0</ele><time>2026-05-02T10:40:49Z</time></trkpt><trkpt lat="42.203918813384696" lon="13.740191472568473"><ele>1006.0000000000001</ele><time>2026-05-02T10:40:50Z</time></trkpt><trkpt lat="42.203970668251095" lon="13.740126940506899"><ele>1006.0</ele><time>2026-05-02T10:40:51Z</time></trkpt><trkpt lat="42.204031835606195" lon="13.74007259071741"><ele>1006.0</ele><time>2026-05-02T10:40:52Z</time></trkpt><trkpt lat="42.204088214446564" lon="13.74002540505457"><ele>1004.8</ele><time>2026-05-02T10:40:53Z</time></trkpt><trkpt lat="42.20415193645288" lon="13.739988213876464"><ele>1003.5999999999999</ele><time>2026-05-02T10:40:54Z</time></trkpt><trkpt lat="42.20421673931827" lon="13.739946257511843"><ele>1002.4</ele><time>2026-05-02T10:40:55Z</time></trkpt><trkpt lat="42.20425990217799" lon="13.73987610542735"><ele>1001.2</ele><time>2026-05-02T10:40:56Z</time></trkpt><trkpt lat="42.20436723762468" lon="13.739764785173266"><ele>1000.0</ele><time>2026-05-02T10:40:58Z</time></trkpt><trkpt lat="42.20448259590108" lon="13.739685812073587"><ele>1000.0</ele><time>2026-05-02T10:41:00Z</time></trkpt><trkpt lat="42.204552012459445" lon="13.739649996890792"><ele>1000.0</ele><time>2026-05-02T10:41:01Z</time></trkpt><trkpt lat="42.20461559431878" lon="13.739621850128469"><ele>1000.0</ele><time>2026-05-02T10:41:02Z</time></trkpt><trkpt lat="42.20468024253459" lon="13.739592136749183"><ele>1000.0</ele><time>2026-05-02T10:41:03Z</time></trkpt><trkpt lat="42.20474624999953" lon="13.73957396745988"><ele>1000.0</ele><time>2026-05-02T10:41:04Z</time></trkpt><trkpt lat="42.204814260931236" lon="13.73956416457991"><ele>1000.0</ele><time>2026-05-02T10:41:05Z</time></trkpt><trkpt lat="42.204881041488" lon="13.739550100802237"><ele>1000.0</ele><time>2026-05-02T10:41:06Z</time></trkpt><trkpt lat="42.20494569368758" lon="13.739517967289279"><ele>998.1666666666666</ele><time>2026-05-02T10:41:07Z</time></trkpt><trkpt lat="42.20500136434203" lon="13.739472993952903"><ele>996.3333333333333</ele><time>2026-05-02T10:41:08Z</time></trkpt><trkpt lat="42.205057080281364" lon="13.739418823617275"><ele>994.5</ele><time>2026-05-02T10:41:09Z</time></trkpt><trkpt lat="42.20510630951841" lon="13.739277478539487"><ele>992.6666666666667</ele><time>2026-05-02T10:41:11Z</time></trkpt><trkpt lat="42.20513548776036" lon="13.739192374198694"><ele>990.8333333333334</ele><time>2026-05-02T10:41:11.999Z</time></trkpt><trkpt lat="42.205179516437475" lon="13.73911968655235"><ele>989.0</ele><time>2026-05-02T10:41:12.999Z</time></trkpt><trkpt lat="42.20523468061985" lon="13.73905923500596"><ele>989.0000000000001</ele><time>2026-05-02T10:41:13.999Z</time></trkpt><trkpt lat="42.20530022420859" lon="13.739029342839093"><ele>989.0</ele><time>2026-05-02T10:41:14.999Z</time></trkpt><trkpt lat="42.20536974685743" lon="13.739007169888383"><ele>989.0</ele><time>2026-05-02T10:41:15.999Z</time></trkpt><trkpt lat="42.205443867122675" lon="13.738984419239447"><ele>989.0</ele><time>2026-05-02T10:41:16.999Z</time></trkpt><trkpt lat="42.20553101542391" lon="13.738960206742208"><ele>989.0000000000001</ele><time>2026-05-02T10:41:17.999Z</time></trkpt><trkpt lat="42.205603017145705" lon="13.738942977378537"><ele>989.0</ele><time>2026-05-02T10:41:18.999Z</time></trkpt><trkpt lat="42.205674043171896" lon="13.738951186131375"><ele>987.8333333333334</ele><time>2026-05-02T10:41:19.999Z</time></trkpt><trkpt lat="42.20574375564416" lon="13.738935448262401"><ele>986.6666666666667</ele><time>2026-05-02T10:41:20.999Z</time></trkpt><trkpt lat="42.205824992962384" lon="13.738902200111479"><ele>985.5</ele><time>2026-05-02T10:41:21.999Z</time></trkpt><trkpt lat="42.205901030728825" lon="13.738852058106682"><ele>984.3333333333333</ele><time>2026-05-02T10:41:22.999Z</time></trkpt><trkpt lat="42.20597564200078" lon="13.738803336154136"><ele>983.1666666666666</ele><time>2026-05-02T10:41:23.999Z</time></trkpt><trkpt lat="42.206061526924664" lon="13.738748378244953"><ele>982.0</ele><time>2026-05-02T10:41:24.999Z</time></trkpt><trkpt lat="42.20614292267514" lon="13.7386988586781"><ele>981.9999999999999</ele><time>2026-05-02T10:41:25.999Z</time></trkpt><trkpt lat="42.2062115239368" lon="13.738682558076949"><ele>982.0</ele><time>2026-05-02T10:41:26.999Z</time></trkpt><trkpt lat="42.20627645098324" lon="13.738695819747527"><ele>982.0</ele><time>2026-05-02T10:41:27.999Z</time></trkpt><trkpt lat="42.20634928653048" lon="13.738724307550552"><ele>982.0</ele><time>2026-05-02T10:41:28.999Z</time></trkpt><trkpt lat="42.2064379245766" lon="13.73876591750869"><ele>981.9999999999999</ele><time>2026-05-02T10:41:29.999Z</time></trkpt><trkpt lat="42.20653170586942" lon="13.738806028478884"><ele>982.0</ele><time>2026-05-02T10:41:30.999Z</time></trkpt><trkpt lat="42.2066181858807" lon="13.73882327844119"><ele>981.9999999999999</ele><time>2026-05-02T10:41:31.999Z</time></trkpt><trkpt lat="42.20669604039362" lon="13.738822273642045"><ele>982.0</ele><time>2026-05-02T10:41:32.999Z</time></trkpt><trkpt lat="42.20678406146766" lon="13.738819761852591"><ele>982.0</ele><time>2026-05-02T10:41:33.999Z</time></trkpt><trkpt lat="42.20686659558627" lon="13.738821385559369"><ele>982.0</ele><time>2026-05-02T10:41:34.999Z</time></trkpt><trkpt lat="42.20694549692251" lon="13.738831646119863"><ele>981.9999999999999</ele><time>2026-05-02T10:41:35.999Z</time></trkpt><trkpt lat="42.2070201560502" lon="13.738836109807263"><ele>982.0</ele><time>2026-05-02T10:41:36.999Z</time></trkpt><trkpt lat="42.20710066011257" lon="13.738827992107586"><ele>981.9999999999999</ele><time>2026-05-02T10:41:37.999Z</time></trkpt><trkpt lat="42.20718160105737" lon="13.73880512979628"><ele>982.0</ele><time>2026-05-02T10:41:38.999Z</time></trkpt><trkpt lat="42.207256563427805" lon="13.738764756370992"><ele>982.0</ele><time>2026-05-02T10:41:39.999Z</time></trkpt><trkpt lat="42.207323316253735" lon="13.738710083512238"><ele>982.0</ele><time>2026-05-02T10:41:40.999Z</time></trkpt><trkpt lat="42.207398605353475" lon="13.73864671349839"><ele>981.9999999999999</ele><time>2026-05-02T10:41:41.999Z</time></trkpt><trkpt lat="42.207467803766626" lon="13.738573165255437"><ele>982.0</ele><time>2026-05-02T10:41:42.999Z</time></trkpt><trkpt lat="42.207531909127624" lon="13.738491569909264"><ele>983.8333333333333</ele><time>2026-05-02T10:41:43.999Z</time></trkpt><trkpt lat="42.207584662164194" lon="13.73840558996281"><ele>985.6666666666666</ele><time>2026-05-02T10:41:44.999Z</time></trkpt><trkpt lat="42.20764153568781" lon="13.738312143948777"><ele>987.5</ele><time>2026-05-02T10:41:45.999Z</time></trkpt><trkpt lat="42.2076887075939" lon="13.738229856137206"><ele>989.3333333333333</ele><time>2026-05-02T10:41:46.999Z</time></trkpt><trkpt lat="42.2077349758691" lon="13.738156424721055"><ele>991.1666666666666</ele><time>2026-05-02T10:41:47.999Z</time></trkpt><trkpt lat="42.20778838987834" lon="13.738087485284614"><ele>993.0</ele><time>2026-05-02T10:41:48.999Z</time></trkpt><trkpt lat="42.207843040888086" lon="13.738018975156109"><ele>993.0</ele><time>2026-05-02T10:41:49.999Z</time></trkpt><trkpt lat="42.2079115202274" lon="13.737956438816461"><ele>993.0</ele><time>2026-05-02T10:41:50.999Z</time></trkpt><trkpt lat="42.20798628555754" lon="13.737907628133453"><ele>993.0</ele><time>2026-05-02T10:41:51.999Z</time></trkpt><trkpt lat="42.20804809062552" lon="13.737859751790431"><ele>993.0</ele><time>2026-05-02T10:41:52.999Z</time></trkpt><trkpt lat="42.20811327168597" lon="13.737799013797172"><ele>993.0</ele><time>2026-05-02T10:41:53.999Z</time></trkpt><trkpt lat="42.2081893828848" lon="13.737737881382715"><ele>993.0</ele><time>2026-05-02T10:41:54.999Z</time></trkpt><trkpt lat="42.20827700939158" lon="13.737672954961905"><ele>993.6666666666666</ele><time>2026-05-02T10:41:55.999Z</time></trkpt><trkpt lat="42.20836777372593" lon="13.737628010808594"><ele>994.3333333333333</ele><time>2026-05-02T10:41:56.999Z</time></trkpt><trkpt lat="42.20846072704152" lon="13.737590938290708"><ele>995.0</ele><time>2026-05-02T10:41:57.999Z</time></trkpt><trkpt lat="42.20853586508324" lon="13.737564939966868"><ele>995.6666666666666</ele><time>2026-05-02T10:41:58.999Z</time></trkpt><trkpt lat="42.208611766669776" lon="13.73753575938097"><ele>996.3333333333333</ele><time>2026-05-02T10:41:59.999Z</time></trkpt><trkpt lat="42.20869088842048" lon="13.737496872790505"><ele>997.0</ele><time>2026-05-02T10:42:01Z</time></trkpt><trkpt lat="42.20877950727335" lon="13.73744846246404"><ele>997.0</ele><time>2026-05-02T10:42:02Z</time></trkpt><trkpt lat="42.20887920323348" lon="13.737393556553023"><ele>997.0</ele><time>2026-05-02T10:42:03Z</time></trkpt><trkpt lat="42.20898185310031" lon="13.73733867630469"><ele>997.0</ele><time>2026-05-02T10:42:04Z</time></trkpt><trkpt lat="42.20908059692213" lon="13.737287617753193"><ele>997.0</ele><time>2026-05-02T10:42:05Z</time></trkpt><trkpt lat="42.20917476179757" lon="13.737244991856373"><ele>997.0</ele><time>2026-05-02T10:42:06Z</time></trkpt><trkpt lat="42.20926183758619" lon="13.737205168182221"><ele>998.6</ele><time>2026-05-02T10:42:07Z</time></trkpt><trkpt lat="42.20934612301231" lon="13.737164467760987"><ele>1000.2</ele><time>2026-05-02T10:42:08Z</time></trkpt><trkpt lat="42.20942656948267" lon="13.737125583055752"><ele>1001.8</ele><time>2026-05-02T10:42:09Z</time></trkpt><trkpt lat="42.209533772616616" lon="13.737063741831228"><ele>1003.4</ele><time>2026-05-02T10:42:11Z</time></trkpt><trkpt lat="42.20960340713908" lon="13.737006320772219"><ele>1005.0</ele><time>2026-05-02T10:42:13Z</time></trkpt><trkpt lat="42.20967434082482" lon="13.73685893921325"><ele>1005.0</ele><time>2026-05-02T10:42:15Z</time></trkpt><trkpt lat="42.20972361863581" lon="13.736793384942544"><ele>1005.0</ele><time>2026-05-02T10:42:16Z</time></trkpt><trkpt lat="42.20977777625828" lon="13.736744869208174"><ele>1005.0</ele><time>2026-05-02T10:42:17Z</time></trkpt><trkpt lat="42.20988719132182" lon="13.736652546294017"><ele>1005.0</ele><time>2026-05-02T10:42:19Z</time></trkpt><trkpt lat="42.20994630776384" lon="13.736599005708193"><ele>1005.0</ele><time>2026-05-02T10:42:20Z</time></trkpt><trkpt lat="42.21000598052003" lon="13.73653791654143"><ele>1005.0</ele><time>2026-05-02T10:42:21Z</time></trkpt><trkpt lat="42.2100687521754" lon="13.736466687077876"><ele>1001.5</ele><time>2026-05-02T10:42:22Z</time></trkpt><trkpt lat="42.21014020772855" lon="13.736387004681886"><ele>998.0</ele><time>2026-05-02T10:42:23Z</time></trkpt><trkpt lat="42.21021022168188" lon="13.736318397948112"><ele>994.5</ele><time>2026-05-02T10:42:24Z</time></trkpt><trkpt lat="42.21027824753681" lon="13.736273696544982"><ele>991.0</ele><time>2026-05-02T10:42:25Z</time></trkpt><trkpt lat="42.21033813197291" lon="13.736240233429289"><ele>987.5</ele><time>2026-05-02T10:42:26Z</time></trkpt><trkpt lat="42.210396763684265" lon="13.736177248115613"><ele>984.0</ele><time>2026-05-02T10:42:28Z</time></trkpt><trkpt lat="42.21037265305689" lon="13.736098500488561"><ele>985.4000000000001</ele><time>2026-05-02T10:42:39Z</time></trkpt><trkpt lat="42.21028265187422" lon="13.736051311002482"><ele>986.8000000000001</ele><time>2026-05-02T10:42:42Z</time></trkpt><trkpt lat="42.210189024251214" lon="13.736021334116117"><ele>988.1999999999999</ele><time>2026-05-02T10:42:44Z</time></trkpt><trkpt lat="42.21008730676301" lon="13.735974681901657"><ele>989.5999999999999</ele><time>2026-05-02T10:42:46Z</time></trkpt><trkpt lat="42.209982660783844" lon="13.735885732312504"><ele>991.0</ele><time>2026-05-02T10:42:48Z</time></trkpt><trkpt lat="42.209875593111164" lon="13.735799560329955"><ele>993.857142857143</ele><time>2026-05-02T10:42:50Z</time></trkpt><trkpt lat="42.20981566590723" lon="13.73575050606433"><ele>996.7142857142858</ele><time>2026-05-02T10:42:51Z</time></trkpt><trkpt lat="42.209761881939286" lon="13.735691382646868"><ele>999.5714285714286</ele><time>2026-05-02T10:42:52Z</time></trkpt><trkpt lat="42.20969962461145" lon="13.735625948079107"><ele>1002.4285714285714</ele><time>2026-05-02T10:42:53Z</time></trkpt><trkpt lat="42.20964401264001" lon="13.735568867160142"><ele>1005.2857142857142</ele><time>2026-05-02T10:42:54Z</time></trkpt><trkpt lat="42.20959058629015" lon="13.735507038381966"><ele>1008.142857142857</ele><time>2026-05-02T10:42:55Z</time></trkpt><trkpt lat="42.2095405711077" lon="13.735435086838677"><ele>1010.9999999999999</ele><time>2026-05-02T10:42:56Z</time></trkpt><trkpt lat="42.20949248302426" lon="13.735364551817874"><ele>1010.9999999999999</ele><time>2026-05-02T10:42:57Z</time></trkpt><trkpt lat="42.20943485736174" lon="13.735282862571646"><ele>1011.0</ele><time>2026-05-02T10:42:58Z</time></trkpt><trkpt lat="42.20939057512111" lon="13.735217562033617"><ele>1010.9999999999999</ele><time>2026-05-02T10:42:59Z</time></trkpt><trkpt lat="42.20932752107583" lon="13.735164636938519"><ele>1010.9999999999999</ele><time>2026-05-02T10:43:00Z</time></trkpt><trkpt lat="42.20926153030497" lon="13.735118502645207"><ele>1011.0</ele><time>2026-05-02T10:43:01Z</time></trkpt><trkpt lat="42.209191754324536" lon="13.735087553887592"><ele>1010.9999999999999</ele><time>2026-05-02T10:43:02Z</time></trkpt><trkpt lat="42.20912428910694" lon="13.735072825767698"><ele>1010.9999999999999</ele><time>2026-05-02T10:43:03Z</time></trkpt><trkpt lat="42.20904655493553" lon="13.735075401407945"><ele>1014.0</ele><time>2026-05-02T10:43:04Z</time></trkpt><trkpt lat="42.20896225718667" lon="13.73507889734766"><ele>1017.0</ele><time>2026-05-02T10:43:05Z</time></trkpt><trkpt lat="42.20888013492652" lon="13.735070181743092"><ele>1020.0</ele><time>2026-05-02T10:43:06Z</time></trkpt><trkpt lat="42.208794179773314" lon="13.73507123181895"><ele>1023.0</ele><time>2026-05-02T10:43:07Z</time></trkpt><trkpt lat="42.208713494301485" lon="13.735080795629239"><ele>1026.0</ele><time>2026-05-02T10:43:08Z</time></trkpt><trkpt lat="42.20863686596253" lon="13.735091800966357"><ele>1029.0</ele><time>2026-05-02T10:43:09Z</time></trkpt><trkpt lat="42.208552329204814" lon="13.735122140454129"><ele>1029.0</ele><time>2026-05-02T10:43:10Z</time></trkpt><trkpt lat="42.20846078631404" lon="13.735157477265435"><ele>1029.0</ele><time>2026-05-02T10:43:11Z</time></trkpt><trkpt lat="42.20838217734219" lon="13.735200726217109"><ele>1029.0</ele><time>2026-05-02T10:43:12Z</time></trkpt><trkpt lat="42.20830506294336" lon="13.7352665166694"><ele>1029.0</ele><time>2026-05-02T10:43:13Z</time></trkpt><trkpt lat="42.208238669408715" lon="13.735337684645721"><ele>1029.0</ele><time>2026-05-02T10:43:14Z</time></trkpt><trkpt lat="42.20817233627423" lon="13.735420207076423"><ele>1029.0</ele><time>2026-05-02T10:43:15Z</time></trkpt><trkpt lat="42.208118132933485" lon="13.735516929008263"><ele>1031.2</ele><time>2026-05-02T10:43:16Z</time></trkpt><trkpt lat="42.20807548407141" lon="13.735630376296198"><ele>1033.4</ele><time>2026-05-02T10:43:17Z</time></trkpt><trkpt lat="42.20803912172869" lon="13.735744317271209"><ele>1035.6</ele><time>2026-05-02T10:43:18Z</time></trkpt><trkpt lat="42.2080115888678" lon="13.735863650563472"><ele>1037.8</ele><time>2026-05-02T10:43:19Z</time></trkpt><trkpt lat="42.20797495692639" lon="13.735975239862412"><ele>1040.0</ele><time>2026-05-02T10:43:20Z</time></trkpt><trkpt lat="42.20792428050195" lon="13.73608166823661"><ele>1040.0</ele><time>2026-05-02T10:43:21Z</time></trkpt><trkpt lat="42.207863719354314" lon="13.73619255500833"><ele>1040.0</ele><time>2026-05-02T10:43:22Z</time></trkpt><trkpt lat="42.2078111890989" lon="13.736301917285353"><ele>1040.0</ele><time>2026-05-02T10:43:23Z</time></trkpt><trkpt lat="42.207749750715834" lon="13.736396384182761"><ele>1040.0</ele><time>2026-05-02T10:43:23.999Z</time></trkpt><trkpt lat="42.20768860219659" lon="13.736490731086219"><ele>1040.0</ele><time>2026-05-02T10:43:24.999Z</time></trkpt><trkpt lat="42.20762432366746" lon="13.736583580452843"><ele>1040.0</ele><time>2026-05-02T10:43:25.999Z</time></trkpt><trkpt lat="42.20755683019294" lon="13.736669693939398"><ele>1040.0</ele><time>2026-05-02T10:43:26.999Z</time></trkpt><trkpt lat="42.20748410812432" lon="13.736747902644685"><ele>1040.0</ele><time>2026-05-02T10:43:27.999Z</time></trkpt><trkpt lat="42.20740010552177" lon="13.736787704393267"><ele>1040.0</ele><time>2026-05-02T10:43:28.999Z</time></trkpt><trkpt lat="42.20732335539055" lon="13.736913482805619"><ele>1040.0</ele><time>2026-05-02T10:43:29.999Z</time></trkpt><trkpt lat="42.207255060871354" lon="13.736961725971918"><ele>1040.1666666666667</ele><time>2026-05-02T10:43:30.999Z</time></trkpt><trkpt lat="42.20719063055057" lon="13.736997135476704"><ele>1040.3333333333335</ele><time>2026-05-02T10:43:31.999Z</time></trkpt><trkpt lat="42.207090463302535" lon="13.736997984896954"><ele>1040.5</ele><time>2026-05-02T10:43:33.999Z</time></trkpt><trkpt lat="42.20700570880264" lon="13.736907641500856"><ele>1040.6666666666667</ele><time>2026-05-02T10:43:35.999Z</time></trkpt><trkpt lat="42.20698220991324" lon="13.736827604901201"><ele>1040.8333333333333</ele><time>2026-05-02T10:43:36.999Z</time></trkpt><trkpt lat="42.20696243669371" lon="13.736735045372745"><ele>1041.0</ele><time>2026-05-02T10:43:37.999Z</time></trkpt><trkpt lat="42.20694265636623" lon="13.736630840471364"><ele>1041.0</ele><time>2026-05-02T10:43:38.999Z</time></trkpt><trkpt lat="42.20691646239137" lon="13.736534381163066"><ele>1041.0</ele><time>2026-05-02T10:43:39.999Z</time></trkpt><trkpt lat="42.20688880210384" lon="13.736424205785227"><ele>1041.0</ele><time>2026-05-02T10:43:40.999Z</time></trkpt><trkpt lat="42.20686553789463" lon="13.736309932239582"><ele>1041.0</ele><time>2026-05-02T10:43:41.999Z</time></trkpt><trkpt lat="42.206841010429116" lon="13.73619671804748"><ele>1041.0</ele><time>2026-05-02T10:43:42.999Z</time></trkpt><trkpt lat="42.206809412354936" lon="13.736084008154002"><ele>1041.0</ele><time>2026-05-02T10:43:43.999Z</time></trkpt><trkpt lat="42.20678248419111" lon="13.735971310780222"><ele>1043.0</ele><time>2026-05-02T10:43:44.999Z</time></trkpt><trkpt lat="42.20677585291167" lon="13.735869278033803"><ele>1045.0</ele><time>2026-05-02T10:43:45.999Z</time></trkpt><trkpt lat="42.2067772656499" lon="13.73577464165951"><ele>1047.0</ele><time>2026-05-02T10:43:46.999Z</time></trkpt><trkpt lat="42.20678438710254" lon="13.735674104597532"><ele>1049.0</ele><time>2026-05-02T10:43:47.999Z</time></trkpt><trkpt lat="42.20679032865229" lon="13.735564053785339"><ele>1051.0</ele><time>2026-05-02T10:43:48.999Z</time></trkpt><trkpt lat="42.206779886670596" lon="13.735448898511104"><ele>1053.0</ele><time>2026-05-02T10:43:49.999Z</time></trkpt><trkpt lat="42.20673815507138" lon="13.735369449184475"><ele>1053.0</ele><time>2026-05-02T10:43:50.999Z</time></trkpt><trkpt lat="42.20668556183361" lon="13.73528983427916"><ele>1053.0</ele><time>2026-05-02T10:43:51.999Z</time></trkpt><trkpt lat="42.20663501084156" lon="13.735202687631837"><ele>1053.0</ele><time>2026-05-02T10:43:52.999Z</time></trkpt><trkpt lat="42.20659165693523" lon="13.735103121815003"><ele>1053.0</ele><time>2026-05-02T10:43:53.999Z</time></trkpt><trkpt lat="42.20656782161185" lon="13.735008573784524"><ele>1053.0</ele><time>2026-05-02T10:43:54.999Z</time></trkpt><trkpt lat="42.20654950759477" lon="13.73490482773683"><ele>1053.0</ele><time>2026-05-02T10:43:55.999Z</time></trkpt><trkpt lat="42.206529402855686" lon="13.7347964698885"><ele>1055.0</ele><time>2026-05-02T10:43:56.999Z</time></trkpt><trkpt lat="42.20652432249978" lon="13.734686657482044"><ele>1057.0</ele><time>2026-05-02T10:43:57.999Z</time></trkpt><trkpt lat="42.20653040092372" lon="13.734581562508906"><ele>1059.0</ele><time>2026-05-02T10:43:58.999Z</time></trkpt><trkpt lat="42.206541021921176" lon="13.734460384735003"><ele>1061.0</ele><time>2026-05-02T10:43:59.999Z</time></trkpt><trkpt lat="42.20654863149145" lon="13.734341594847402"><ele>1063.0</ele><time>2026-05-02T10:44:00.999Z</time></trkpt><trkpt lat="42.20656288953207" lon="13.734230047343049"><ele>1065.0</ele><time>2026-05-02T10:44:01.999Z</time></trkpt><trkpt lat="42.20658349065885" lon="13.734110834912435"><ele>1066.1666666666667</ele><time>2026-05-02T10:44:02.999Z</time></trkpt><trkpt lat="42.20660155531114" lon="13.733994430933508"><ele>1067.3333333333333</ele><time>2026-05-02T10:44:03.999Z</time></trkpt><trkpt lat="42.20662807860766" lon="13.733874738721257"><ele>1068.5</ele><time>2026-05-02T10:44:04.999Z</time></trkpt><trkpt lat="42.206645353136246" lon="13.733755349344227"><ele>1069.6666666666665</ele><time>2026-05-02T10:44:05.999Z</time></trkpt><trkpt lat="42.20665183915205" lon="13.73364139168892"><ele>1070.8333333333333</ele><time>2026-05-02T10:44:07Z</time></trkpt><trkpt lat="42.20663408400771" lon="13.733522232214149"><ele>1072.0</ele><time>2026-05-02T10:44:08Z</time></trkpt><trkpt lat="42.206605501022295" lon="13.733399151405568"><ele>1073.3333333333333</ele><time>2026-05-02T10:44:09Z</time></trkpt><trkpt lat="42.206580799164634" lon="13.733285149165019"><ele>1074.6666666666665</ele><time>2026-05-02T10:44:10Z</time></trkpt><trkpt lat="42.20654017467704" lon="13.733178902641505"><ele>1076.0</ele><time>2026-05-02T10:44:11Z</time></trkpt><trkpt lat="42.206498704296344" lon="13.733079073647554"><ele>1077.3333333333333</ele><time>2026-05-02T10:44:12Z</time></trkpt><trkpt lat="42.20645894565542" lon="13.732993427533788"><ele>1078.6666666666667</ele><time>2026-05-02T10:44:13Z</time></trkpt><trkpt lat="42.20641966095621" lon="13.732895513299738"><ele>1080.0</ele><time>2026-05-02T10:44:14Z</time></trkpt><trkpt lat="42.20638078960487" lon="13.73279603572082"><ele>1082.5</ele><time>2026-05-02T10:44:15Z</time></trkpt><trkpt lat="42.206332399635606" lon="13.732701129663381"><ele>1085.0</ele><time>2026-05-02T10:44:16Z</time></trkpt><trkpt lat="42.206276094915964" lon="13.732641560159516"><ele>1087.5</ele><time>2026-05-02T10:44:17Z</time></trkpt><trkpt lat="42.20621536517096" lon="13.732601735711722"><ele>1090.0</ele><time>2026-05-02T10:44:18Z</time></trkpt><trkpt lat="42.20613071164814" lon="13.732492169787504"><ele>1092.5</ele><time>2026-05-02T10:44:20Z</time></trkpt><trkpt lat="42.20611181309459" lon="13.732400992485903"><ele>1095.0</ele><time>2026-05-02T10:44:21Z</time></trkpt><trkpt lat="42.20610021974173" lon="13.732304294214895"><ele>1095.0</ele><time>2026-05-02T10:44:22Z</time></trkpt><trkpt lat="42.20609029556273" lon="13.732185702315391"><ele>1095.0</ele><time>2026-05-02T10:44:23Z</time></trkpt><trkpt lat="42.206080077603495" lon="13.732082180464866"><ele>1095.0</ele><time>2026-05-02T10:44:24Z</time></trkpt><trkpt lat="42.206078889536585" lon="13.731966737011552"><ele>1095.0</ele><time>2026-05-02T10:44:25Z</time></trkpt><trkpt lat="42.20607855498135" lon="13.7318561616613"><ele>1095.0</ele><time>2026-05-02T10:44:26Z</time></trkpt><trkpt lat="42.20607447441307" lon="13.731736428000422"><ele>1095.0</ele><time>2026-05-02T10:44:27Z</time></trkpt><trkpt lat="42.20606395143632" lon="13.731629679864398"><ele>1097.1666666666667</ele><time>2026-05-02T10:44:28Z</time></trkpt><trkpt lat="42.206049271365465" lon="13.731514691559907"><ele>1099.3333333333333</ele><time>2026-05-02T10:44:29Z</time></trkpt><trkpt lat="42.206023829097695" lon="13.731413444919296"><ele>1101.5</ele><time>2026-05-02T10:44:30Z</time></trkpt><trkpt lat="42.205990091428404" lon="13.731316637737613"><ele>1103.6666666666665</ele><time>2026-05-02T10:44:31Z</time></trkpt><trkpt lat="42.20595573027923" lon="13.731220761381055"><ele>1105.8333333333333</ele><time>2026-05-02T10:44:32Z</time></trkpt><trkpt lat="42.20592838801811" lon="13.731143299979495"><ele>1108.0</ele><time>2026-05-02T10:44:33Z</time></trkpt><trkpt lat="42.20589048093142" lon="13.731064071616133"><ele>1109.8333333333333</ele><time>2026-05-02T10:44:34Z</time></trkpt><trkpt lat="42.20585502862138" lon="13.730990634401211"><ele>1111.6666666666665</ele><time>2026-05-02T10:44:35Z</time></trkpt><trkpt lat="42.20580862021785" lon="13.730887081298341"><ele>1113.5</ele><time>2026-05-02T10:44:36Z</time></trkpt><trkpt lat="42.20577452020481" lon="13.730796849957812"><ele>1115.3333333333333</ele><time>2026-05-02T10:44:37Z</time></trkpt><trkpt lat="42.20573927494618" lon="13.730631677100485"><ele>1117.1666666666667</ele><time>2026-05-02T10:44:39Z</time></trkpt><trkpt lat="42.20571834426372" lon="13.730545486065255"><ele>1119.0</ele><time>2026-05-02T10:44:40Z</time></trkpt><trkpt lat="42.20569382564506" lon="13.73046458189355"><ele>1121.0</ele><time>2026-05-02T10:44:41Z</time></trkpt><trkpt lat="42.20563100269783" lon="13.730386412791063"><ele>1123.0</ele><time>2026-05-02T10:44:43Z</time></trkpt><trkpt lat="42.205590408414395" lon="13.730321108536463"><ele>1125.0</ele><time>2026-05-02T10:44:45Z</time></trkpt><trkpt lat="42.20555461783476" lon="13.730207485028938"><ele>1127.0</ele><time>2026-05-02T10:44:47Z</time></trkpt><trkpt lat="42.20551865280284" lon="13.730047347438845"><ele>1129.0</ele><time>2026-05-02T10:44:49Z</time></trkpt><trkpt lat="42.20548601912407" lon="13.729959235899198"><ele>1131.0</ele><time>2026-05-02T10:44:50Z</time></trkpt><trkpt lat="42.20543428539124" lon="13.729877714450994"><ele>1131.2</ele><time>2026-05-02T10:44:51Z</time></trkpt><trkpt lat="42.20536803097766" lon="13.729791903131257"><ele>1131.3999999999999</ele><time>2026-05-02T10:44:52Z</time></trkpt><trkpt lat="42.20530019585224" lon="13.729699331300154"><ele>1131.6</ele><time>2026-05-02T10:44:53Z</time></trkpt><trkpt lat="42.20523270315786" lon="13.729598522719348"><ele>1131.8</ele><time>2026-05-02T10:44:54Z</time></trkpt><trkpt lat="42.20517572400543" lon="13.729488610828225"><ele>1132.0</ele><time>2026-05-02T10:44:55Z</time></trkpt><trkpt lat="42.20511861486445" lon="13.72938481714123"><ele>1131.5</ele><time>2026-05-02T10:44:56Z</time></trkpt><trkpt lat="42.20506647481138" lon="13.729289067272243"><ele>1131.0</ele><time>2026-05-02T10:44:57Z</time></trkpt><trkpt lat="42.20500431185351" lon="13.729213448349336"><ele>1130.5</ele><time>2026-05-02T10:44:58Z</time></trkpt><trkpt lat="42.20495369470478" lon="13.729142476357278"><ele>1130.0</ele><time>2026-05-02T10:44:59Z</time></trkpt><trkpt lat="42.204903919833" lon="13.729071315252572"><ele>1129.5</ele><time>2026-05-02T10:45:00Z</time></trkpt><trkpt lat="42.20485725603248" lon="13.729012404498713"><ele>1129.0</ele><time>2026-05-02T10:45:01Z</time></trkpt><trkpt lat="42.20475114674327" lon="13.72895716911591"><ele>1130.0</ele><time>2026-05-02T10:45:03Z</time></trkpt><trkpt lat="42.20464485657991" lon="13.728948615550745"><ele>1131.0</ele><time>2026-05-02T10:45:05Z</time></trkpt><trkpt lat="42.20454663613909" lon="13.72888882683777"><ele>1132.0</ele><time>2026-05-02T10:45:07Z</time></trkpt><trkpt lat="42.20448195508575" lon="13.728854947826681"><ele>1133.0</ele><time>2026-05-02T10:45:08Z</time></trkpt><trkpt lat="42.20440397852144" lon="13.72881937148726"><ele>1134.0</ele><time>2026-05-02T10:45:09Z</time></trkpt><trkpt lat="42.20432919243954" lon="13.72878532961606"><ele>1135.0</ele><time>2026-05-02T10:45:10Z</time></trkpt><trkpt lat="42.20426801224288" lon="13.728750515426588"><ele>1135.0</ele><time>2026-05-02T10:45:11Z</time></trkpt><trkpt lat="42.20420747380557" lon="13.728703264595199"><ele>1135.0</ele><time>2026-05-02T10:45:12Z</time></trkpt><trkpt lat="42.20414418481016" lon="13.728638340013699"><ele>1135.0</ele><time>2026-05-02T10:45:13Z</time></trkpt><trkpt lat="42.20406803484846" lon="13.728566347018718"><ele>1135.0</ele><time>2026-05-02T10:45:14Z</time></trkpt><trkpt lat="42.20400296983088" lon="13.728509403378698"><ele>1135.0</ele><time>2026-05-02T10:45:15Z</time></trkpt><trkpt lat="42.2039364069727" lon="13.72846264565113"><ele>1135.0</ele><time>2026-05-02T10:45:16Z</time></trkpt><trkpt lat="42.20386073231512" lon="13.728380662581928"><ele>1134.3333333333333</ele><time>2026-05-02T10:45:18Z</time></trkpt><trkpt lat="42.20374535013485" lon="13.728390905278623"><ele>1133.6666666666665</ele><time>2026-05-02T10:45:20Z</time></trkpt><trkpt lat="42.20367887135156" lon="13.728418982334217"><ele>1133.0</ele><time>2026-05-02T10:45:21Z</time></trkpt><trkpt lat="42.20361510639905" lon="13.728447379719652"><ele>1132.3333333333333</ele><time>2026-05-02T10:45:22Z</time></trkpt><trkpt lat="42.20355188766067" lon="13.728473337834963"><ele>1131.6666666666667</ele><time>2026-05-02T10:45:23Z</time></trkpt><trkpt lat="42.203483486123424" lon="13.728488505216706"><ele>1131.0</ele><time>2026-05-02T10:45:24Z</time></trkpt><trkpt lat="42.20337256344932" lon="13.728526808675367"><ele>1132.3999999999999</ele><time>2026-05-02T10:45:25.999Z</time></trkpt><trkpt lat="42.20325262901744" lon="13.728561154770228"><ele>1133.8</ele><time>2026-05-02T10:45:27.999Z</time></trkpt><trkpt lat="42.203169125423685" lon="13.728580127853052"><ele>1135.1999999999998</ele><time>2026-05-02T10:45:28.999Z</time></trkpt><trkpt lat="42.20307586356916" lon="13.72857947707616"><ele>1136.6</ele><time>2026-05-02T10:45:29.999Z</time></trkpt><trkpt lat="42.20296601355221" lon="13.72856679559356"><ele>1138.0</ele><time>2026-05-02T10:45:30.999Z</time></trkpt><trkpt lat="42.20285797244467" lon="13.728574636110508"><ele>1138.6</ele><time>2026-05-02T10:45:31.999Z</time></trkpt><trkpt lat="42.20272116827616" lon="13.728614526878738"><ele>1139.1999999999998</ele><time>2026-05-02T10:45:32.999Z</time></trkpt><trkpt lat="42.2026523375012" lon="13.728602209385855"><ele>1139.8</ele><time>2026-05-02T10:45:33.999Z</time></trkpt><trkpt lat="42.20258633106494" lon="13.72858544087152"><ele>1140.3999999999999</ele><time>2026-05-02T10:45:34.999Z</time></trkpt><trkpt lat="42.20251194965517" lon="13.72857071829503"><ele>1141.0</ele><time>2026-05-02T10:45:35.999Z</time></trkpt><trkpt lat="42.202241208984304" lon="13.72861548758335"><ele>1141.3999999999999</ele><time>2026-05-02T10:45:37.999Z</time></trkpt><trkpt lat="42.20215003983217" lon="13.72857590775319"><ele>1141.8</ele><time>2026-05-02T10:45:38.999Z</time></trkpt><trkpt lat="42.20205904468812" lon="13.72853142607916"><ele>1142.1999999999998</ele><time>2026-05-02T10:45:39.999Z</time></trkpt><trkpt lat="42.20196960386774" lon="13.728496723270261"><ele>1142.6</ele><time>2026-05-02T10:45:40.999Z</time></trkpt><trkpt lat="42.201883717153194" lon="13.72847473904574"><ele>1143.0</ele><time>2026-05-02T10:45:41.999Z</time></trkpt><trkpt lat="42.201802210863704" lon="13.728476504322781"><ele>1142.6666666666667</ele><time>2026-05-02T10:45:42.999Z</time></trkpt><trkpt lat="42.2017085239792" lon="13.72848612657535"><ele>1142.3333333333333</ele><time>2026-05-02T10:45:43.999Z</time></trkpt><trkpt lat="42.201618861898744" lon="13.728509243348789"><ele>1142.0</ele><time>2026-05-02T10:45:44.999Z</time></trkpt><trkpt lat="42.20153586290518" lon="13.728522843567742"><ele>1141.6666666666665</ele><time>2026-05-02T10:45:45.999Z</time></trkpt><trkpt lat="42.20146098606826" lon="13.728538368634757"><ele>1141.3333333333333</ele><time>2026-05-02T10:45:46.999Z</time></trkpt><trkpt lat="42.20139610008735" lon="13.728550783693018"><ele>1141.0</ele><time>2026-05-02T10:45:47.999Z</time></trkpt><trkpt lat="42.20133105146055" lon="13.728563121795286"><ele>1141.0</ele><time>2026-05-02T10:45:48.999Z</time></trkpt><trkpt lat="42.20125948481737" lon="13.728579777488132"><ele>1141.0</ele><time>2026-05-02T10:45:49.999Z</time></trkpt><trkpt lat="42.20119565107822" lon="13.728589744639848"><ele>1141.0</ele><time>2026-05-02T10:45:50.999Z</time></trkpt><trkpt lat="42.20107449823038" lon="13.728600620180904"><ele>1141.0</ele><time>2026-05-02T10:45:52.999Z</time></trkpt><trkpt lat="42.20100808443615" lon="13.72860283215124"><ele>1141.0</ele><time>2026-05-02T10:45:53.999Z</time></trkpt><trkpt lat="42.20089822882925" lon="13.728582193671182"><ele>1141.0</ele><time>2026-05-02T10:45:55.999Z</time></trkpt><trkpt lat="42.20080032873831" lon="13.728582990754498"><ele>1141.0</ele><time>2026-05-02T10:45:57.999Z</time></trkpt><trkpt lat="42.20071253269614" lon="13.728574819286276"><ele>1141.0</ele><time>2026-05-02T10:45:59.999Z</time></trkpt><trkpt lat="42.20063668539521" lon="13.72853364685488"><ele>1141.0</ele><time>2026-05-02T10:46:01.999Z</time></trkpt><trkpt lat="42.20058441432952" lon="13.728485151263069"><ele>1141.0</ele><time>2026-05-02T10:46:03.999Z</time></trkpt><trkpt lat="42.200525091354116" lon="13.728449246057128"><ele>1141.0</ele><time>2026-05-02T10:46:05.999Z</time></trkpt><trkpt lat="42.200460889560574" lon="13.72840049980466"><ele>1141.0</ele><time>2026-05-02T10:46:07.999Z</time></trkpt><trkpt lat="42.2003797112855" lon="13.728311830455844"><ele>1137.8333333333333</ele><time>2026-05-02T10:46:09.999Z</time></trkpt><trkpt lat="42.20033921474953" lon="13.728238964190478"><ele>1134.6666666666665</ele><time>2026-05-02T10:46:10.999Z</time></trkpt><trkpt lat="42.20030009737658" lon="13.72814750988147"><ele>1131.5</ele><time>2026-05-02T10:46:11.999Z</time></trkpt><trkpt lat="42.20025986388748" lon="13.728055644977687"><ele>1128.3333333333333</ele><time>2026-05-02T10:46:13Z</time></trkpt><trkpt lat="42.20022100304626" lon="13.72795847283213"><ele>1125.1666666666667</ele><time>2026-05-02T10:46:14Z</time></trkpt><trkpt lat="42.200147713286825" lon="13.727836797720297"><ele>1122.0</ele><time>2026-05-02T10:46:16Z</time></trkpt><trkpt lat="42.20009162332133" lon="13.727787323970613"><ele>1122.0</ele><time>2026-05-02T10:46:17Z</time></trkpt><trkpt lat="42.20003461849651" lon="13.72774234586691"><ele>1122.0</ele><time>2026-05-02T10:46:18Z</time></trkpt><trkpt lat="42.199977039260084" lon="13.727692917579324"><ele>1122.0</ele><time>2026-05-02T10:46:19Z</time></trkpt><trkpt lat="42.19992073268989" lon="13.72763829011879"><ele>1122.0</ele><time>2026-05-02T10:46:20Z</time></trkpt><trkpt lat="42.199858322429364" lon="13.727591973907186"><ele>1122.0</ele><time>2026-05-02T10:46:21Z</time></trkpt><trkpt lat="42.19979637022941" lon="13.727549569855938"><ele>1122.0</ele><time>2026-05-02T10:46:22Z</time></trkpt><trkpt lat="42.199732880664996" lon="13.727509451394239"><ele>1122.0</ele><time>2026-05-02T10:46:23Z</time></trkpt><trkpt lat="42.19962413514109" lon="13.727434415982184"><ele>1119.6666666666667</ele><time>2026-05-02T10:46:25Z</time></trkpt><trkpt lat="42.19953545381974" lon="13.727339208577273"><ele>1117.3333333333333</ele><time>2026-05-02T10:46:27Z</time></trkpt><trkpt lat="42.199477370773884" lon="13.727282827337609"><ele>1115.0</ele><time>2026-05-02T10:46:28Z</time></trkpt><trkpt lat="42.19940544297831" lon="13.727227522287917"><ele>1112.6666666666665</ele><time>2026-05-02T10:46:29Z</time></trkpt><trkpt lat="42.199330133757186" lon="13.727170421013309"><ele>1110.3333333333333</ele><time>2026-05-02T10:46:30Z</time></trkpt><trkpt lat="42.199263492589154" lon="13.727125276222585"><ele>1108.0</ele><time>2026-05-02T10:46:31Z</time></trkpt><trkpt lat="42.19920396958693" lon="13.727085093587592"><ele>1108.0</ele><time>2026-05-02T10:46:32Z</time></trkpt><trkpt lat="42.199112447825584" lon="13.727028978331106"><ele>1108.0</ele><time>2026-05-02T10:46:34Z</time></trkpt><trkpt lat="42.19902744461728" lon="13.727007560014982"><ele>1108.0</ele><time>2026-05-02T10:46:36Z</time></trkpt><trkpt lat="42.198943983440394" lon="13.727042362535876"><ele>1108.0</ele><time>2026-05-02T10:46:38Z</time></trkpt><trkpt lat="42.19886013457791" lon="13.727059725494344"><ele>1108.0</ele><time>2026-05-02T10:46:40Z</time></trkpt><trkpt lat="42.19873779426551" lon="13.727035018045838"><ele>1107.6666666666665</ele><time>2026-05-02T10:46:42Z</time></trkpt><trkpt lat="42.19867626984644" lon="13.726998195760013"><ele>1107.3333333333333</ele><time>2026-05-02T10:46:43Z</time></trkpt><trkpt lat="42.198613687097634" lon="13.726942700291408"><ele>1107.0</ele><time>2026-05-02T10:46:44Z</time></trkpt><trkpt lat="42.1985500917095" lon="13.726884728715069"><ele>1106.6666666666667</ele><time>2026-05-02T10:46:45Z</time></trkpt><trkpt lat="42.19848692372873" lon="13.726839427444906"><ele>1106.3333333333335</ele><time>2026-05-02T10:46:46Z</time></trkpt><trkpt lat="42.19838601794288" lon="13.726778069120991"><ele>1106.0</ele><time>2026-05-02T10:46:48Z</time></trkpt><trkpt lat="42.19830706655187" lon="13.726728140724243"><ele>1104.1666666666667</ele><time>2026-05-02T10:46:50Z</time></trkpt><trkpt lat="42.19823116446077" lon="13.72668125216361"><ele>1102.3333333333335</ele><time>2026-05-02T10:46:52Z</time></trkpt><trkpt lat="42.198140900700295" lon="13.726639062761402"><ele>1100.5</ele><time>2026-05-02T10:46:54Z</time></trkpt><trkpt lat="42.19805824097986" lon="13.726600775180302"><ele>1098.6666666666667</ele><time>2026-05-02T10:46:56Z</time></trkpt><trkpt lat="42.19799585912221" lon="13.726524345265386"><ele>1096.8333333333333</ele><time>2026-05-02T10:46:58Z</time></trkpt><trkpt lat="42.19795513091763" lon="13.726446640110925"><ele>1095.0</ele><time>2026-05-02T10:47:00Z</time></trkpt><trkpt lat="42.1979035364088" lon="13.726366339309994"><ele>1094.0</ele><time>2026-05-02T10:47:02Z</time></trkpt><trkpt lat="42.19779015388833" lon="13.726369849372949"><ele>1093.0</ele><time>2026-05-02T10:47:04Z</time></trkpt><trkpt lat="42.19773321119517" lon="13.72641050144319"><ele>1092.0</ele><time>2026-05-02T10:47:05Z</time></trkpt><trkpt lat="42.197683382029226" lon="13.72647165328011"><ele>1091.0</ele><time>2026-05-02T10:47:06Z</time></trkpt><trkpt lat="42.19764090185717" lon="13.726553210251952"><ele>1090.0</ele><time>2026-05-02T10:47:07Z</time></trkpt><trkpt lat="42.19760581644179" lon="13.72671767188371"><ele>1089.0</ele><time>2026-05-02T10:47:09Z</time></trkpt><trkpt lat="42.197589732296926" lon="13.726800705519054"><ele>1089.8</ele><time>2026-05-02T10:47:10Z</time></trkpt><trkpt lat="42.19749984390912" lon="13.726917647244782"><ele>1090.6000000000001</ele><time>2026-05-02T10:47:12Z</time></trkpt><trkpt lat="42.197429794132105" lon="13.726956377675668"><ele>1091.4</ele><time>2026-05-02T10:47:13Z</time></trkpt><trkpt lat="42.19735345023365" lon="13.727002610818479"><ele>1092.2</ele><time>2026-05-02T10:47:14Z</time></trkpt><trkpt lat="42.19726604457653" lon="13.727038539087546"><ele>1093.0</ele><time>2026-05-02T10:47:15Z</time></trkpt><trkpt lat="42.19716833692912" lon="13.727061301692794"><ele>1091.0</ele><time>2026-05-02T10:47:16Z</time></trkpt><trkpt lat="42.19707505708996" lon="13.727086174183144"><ele>1089.0</ele><time>2026-05-02T10:47:17Z</time></trkpt><trkpt lat="42.19697589918779" lon="13.727114149759277"><ele>1087.0</ele><time>2026-05-02T10:47:17.999Z</time></trkpt><trkpt lat="42.19687983010832" lon="13.727157804700893"><ele>1085.0</ele><time>2026-05-02T10:47:18.999Z</time></trkpt><trkpt lat="42.19679089905337" lon="13.727196614819588"><ele>1083.0</ele><time>2026-05-02T10:47:19.999Z</time></trkpt><trkpt lat="42.19670226027694" lon="13.727228753427667"><ele>1083.0</ele><time>2026-05-02T10:47:20.999Z</time></trkpt><trkpt lat="42.19661623119693" lon="13.727257152482174"><ele>1083.0</ele><time>2026-05-02T10:47:21.999Z</time></trkpt><trkpt lat="42.19654253966908" lon="13.72728178434975"><ele>1083.0</ele><time>2026-05-02T10:47:22.999Z</time></trkpt><trkpt lat="42.19648183479402" lon="13.72731636859478"><ele>1083.0</ele><time>2026-05-02T10:47:23.999Z</time></trkpt><trkpt lat="42.19639993511862" lon="13.727304427502446"><ele>1083.0</ele><time>2026-05-02T10:47:26.999Z</time></trkpt><trkpt lat="42.19638660978307" lon="13.727163709960662"><ele>1083.0</ele><time>2026-05-02T10:47:29.999Z</time></trkpt><trkpt lat="42.19639441218445" lon="13.726996119213993"><ele>1083.8333333333333</ele><time>2026-05-02T10:47:31.999Z</time></trkpt><trkpt lat="42.19641773250071" lon="13.726825856098543"><ele>1084.6666666666667</ele><time>2026-05-02T10:47:33.999Z</time></trkpt><trkpt lat="42.19643739362724" lon="13.726721835196177"><ele>1085.5</ele><time>2026-05-02T10:47:34.999Z</time></trkpt><trkpt lat="42.196465443258" lon="13.726621125045055"><ele>1086.3333333333335</ele><time>2026-05-02T10:47:35.999Z</time></trkpt><trkpt lat="42.19649002307198" lon="13.726520969352672"><ele>1087.1666666666667</ele><time>2026-05-02T10:47:36.999Z</time></trkpt><trkpt lat="42.196510620458625" lon="13.72641871660032"><ele>1088.0</ele><time>2026-05-02T10:47:37.999Z</time></trkpt><trkpt lat="42.19652764260145" lon="13.726305706778115"><ele>1088.0</ele><time>2026-05-02T10:47:38.999Z</time></trkpt><trkpt lat="42.19654548478969" lon="13.72617649281451"><ele>1088.0</ele><time>2026-05-02T10:47:39.999Z</time></trkpt><trkpt lat="42.19657398561661" lon="13.726054933249076"><ele>1088.0</ele><time>2026-05-02T10:47:40.999Z</time></trkpt><trkpt lat="42.19660984310749" lon="13.725957116251463"><ele>1088.0</ele><time>2026-05-02T10:47:41.999Z</time></trkpt><trkpt lat="42.19665620371539" lon="13.725880797288927"><ele>1088.0</ele><time>2026-05-02T10:47:42.999Z</time></trkpt><trkpt lat="42.196754528421806" lon="13.72579709130991"><ele>1089.0</ele><time>2026-05-02T10:47:44.999Z</time></trkpt><trkpt lat="42.19684853652929" lon="13.725749787513177"><ele>1090.0</ele><time>2026-05-02T10:47:46.999Z</time></trkpt><trkpt lat="42.19688477828646" lon="13.725656144281471"><ele>1091.0</ele><time>2026-05-02T10:47:56.999Z</time></trkpt><trkpt lat="42.19691736985749" lon="13.725499182378716"><ele>1092.0</ele><time>2026-05-02T10:47:58.999Z</time></trkpt><trkpt lat="42.196933116418606" lon="13.725401568303564"><ele>1093.0</ele><time>2026-05-02T10:47:59.999Z</time></trkpt><trkpt lat="42.196953705940054" lon="13.725290806171955"><ele>1093.1666666666665</ele><time>2026-05-02T10:48:00.999Z</time></trkpt><trkpt lat="42.19697485036311" lon="13.725175358191583"><ele>1093.3333333333333</ele><time>2026-05-02T10:48:01.999Z</time></trkpt><trkpt lat="42.1969982849763" lon="13.725051870473518"><ele>1093.5</ele><time>2026-05-02T10:48:02.999Z</time></trkpt><trkpt lat="42.1970288260891" lon="13.72491665814145"><ele>1093.6666666666667</ele><time>2026-05-02T10:48:03.999Z</time></trkpt><trkpt lat="42.19704734922894" lon="13.724820562246336"><ele>1093.8333333333335</ele><time>2026-05-02T10:48:04.999Z</time></trkpt><trkpt lat="42.1970690864007" lon="13.7247094352152"><ele>1094.0</ele><time>2026-05-02T10:48:06.999Z</time></trkpt><trkpt lat="42.197066830970414" lon="13.724624377808047"><ele>1094.0</ele><time>2026-05-02T10:48:23Z</time></trkpt><trkpt lat="42.19707743087868" lon="13.724447198596861"><ele>1094.0</ele><time>2026-05-02T10:48:25Z</time></trkpt><trkpt lat="42.197076932473905" lon="13.72433645837834"><ele>1094.0</ele><time>2026-05-02T10:48:26Z</time></trkpt><trkpt lat="42.197074160740286" lon="13.724229563573276"><ele>1094.0</ele><time>2026-05-02T10:48:27Z</time></trkpt><trkpt lat="42.19707155915092" lon="13.724137496374908"><ele>1094.0</ele><time>2026-05-02T10:48:28Z</time></trkpt><trkpt lat="42.197066521887" lon="13.724052007077772"><ele>1094.0</ele><time>2026-05-02T10:48:29Z</time></trkpt><trkpt lat="42.19704453976802" lon="13.723898131137556"><ele>1095.2</ele><time>2026-05-02T10:48:31Z</time></trkpt><trkpt lat="42.197003030169114" lon="13.723729732871181"><ele>1096.4</ele><time>2026-05-02T10:48:33Z</time></trkpt><trkpt lat="42.196989421751056" lon="13.72362489246418"><ele>1097.6</ele><time>2026-05-02T10:48:34Z</time></trkpt><trkpt lat="42.196990725847805" lon="13.723508350208132"><ele>1098.8</ele><time>2026-05-02T10:48:35Z</time></trkpt><trkpt lat="42.197009362305764" lon="13.723389786924692"><ele>1100.0</ele><time>2026-05-02T10:48:36Z</time></trkpt><trkpt lat="42.197032452880656" lon="13.723267880241725"><ele>1100.0</ele><time>2026-05-02T10:48:37Z</time></trkpt><trkpt lat="42.1970567282351" lon="13.723149603712127"><ele>1100.0</ele><time>2026-05-02T10:48:38Z</time></trkpt><trkpt lat="42.197082754870955" lon="13.72303453487008"><ele>1100.0</ele><time>2026-05-02T10:48:39Z</time></trkpt><trkpt lat="42.197111691395364" lon="13.722911531645666"><ele>1100.0</ele><time>2026-05-02T10:48:40Z</time></trkpt><trkpt lat="42.19714254988203" lon="13.722793661860216"><ele>1100.0</ele><time>2026-05-02T10:48:41Z</time></trkpt><trkpt lat="42.19718575484176" lon="13.722675429371035"><ele>1100.0</ele><time>2026-05-02T10:48:42Z</time></trkpt><trkpt lat="42.19723338674687" lon="13.722567893541248"><ele>1100.0</ele><time>2026-05-02T10:48:43Z</time></trkpt><trkpt lat="42.197282134443135" lon="13.72246283887757"><ele>1100.0</ele><time>2026-05-02T10:48:44Z</time></trkpt><trkpt lat="42.19732711895211" lon="13.722360683176536"><ele>1100.0</ele><time>2026-05-02T10:48:45Z</time></trkpt><trkpt lat="42.197372557847366" lon="13.722266720760077"><ele>1100.0</ele><time>2026-05-02T10:48:46Z</time></trkpt><trkpt lat="42.19741779131608" lon="13.72216239811995"><ele>1100.0</ele><time>2026-05-02T10:48:47Z</time></trkpt><trkpt lat="42.197460169608036" lon="13.722057696126328"><ele>1098.8333333333335</ele><time>2026-05-02T10:48:48Z</time></trkpt><trkpt lat="42.19749611919589" lon="13.721952182750229"><ele>1097.6666666666667</ele><time>2026-05-02T10:48:49Z</time></trkpt><trkpt lat="42.19754136589202" lon="13.721839271107264"><ele>1096.5</ele><time>2026-05-02T10:48:50Z</time></trkpt><trkpt lat="42.19758675287052" lon="13.721760050543727"><ele>1095.3333333333333</ele><time>2026-05-02T10:48:51Z</time></trkpt><trkpt lat="42.19764502769255" lon="13.721693463015365"><ele>1094.1666666666665</ele><time>2026-05-02T10:48:52Z</time></trkpt><trkpt lat="42.19771319523095" lon="13.721645039108159"><ele>1093.0</ele><time>2026-05-02T10:48:53Z</time></trkpt><trkpt lat="42.197790564887214" lon="13.721601761172513"><ele>1092.8</ele><time>2026-05-02T10:48:54Z</time></trkpt><trkpt lat="42.19787097717902" lon="13.721552874793993"><ele>1092.6</ele><time>2026-05-02T10:48:55Z</time></trkpt><trkpt lat="42.197948150473636" lon="13.721488629363098"><ele>1092.4</ele><time>2026-05-02T10:48:56Z</time></trkpt><trkpt lat="42.1980197013224" lon="13.721403193583429"><ele>1092.2</ele><time>2026-05-02T10:48:57Z</time></trkpt><trkpt lat="42.198094461291355" lon="13.72131501459866"><ele>1092.0</ele><time>2026-05-02T10:48:58Z</time></trkpt><trkpt lat="42.198168416043536" lon="13.721225980690791"><ele>1091.2</ele><time>2026-05-02T10:48:59Z</time></trkpt><trkpt lat="42.19824208018762" lon="13.721143450936319"><ele>1090.4</ele><time>2026-05-02T10:49:00Z</time></trkpt><trkpt lat="42.19831439920204" lon="13.721052080339037"><ele>1089.6</ele><time>2026-05-02T10:49:01Z</time></trkpt><trkpt lat="42.19838269829729" lon="13.720974296987306"><ele>1088.8</ele><time>2026-05-02T10:49:02Z</time></trkpt><trkpt lat="42.198462809908534" lon="13.720897433062522"><ele>1088.0</ele><time>2026-05-02T10:49:03Z</time></trkpt><trkpt lat="42.198538403346824" lon="13.720822286079935"><ele>1086.2</ele><time>2026-05-02T10:49:04Z</time></trkpt><trkpt lat="42.19861885525757" lon="13.72073340032224"><ele>1084.4</ele><time>2026-05-02T10:49:05Z</time></trkpt><trkpt lat="42.198698204511714" lon="13.720652578564696"><ele>1082.6000000000001</ele><time>2026-05-02T10:49:06Z</time></trkpt><trkpt lat="42.19878188203302" lon="13.7205788338839"><ele>1080.8</ele><time>2026-05-02T10:49:07Z</time></trkpt><trkpt lat="42.198865068987836" lon="13.720520499372897"><ele>1079.0</ele><time>2026-05-02T10:49:08Z</time></trkpt><trkpt lat="42.19893470190492" lon="13.720461560956794"><ele>1077.1666666666667</ele><time>2026-05-02T10:49:09Z</time></trkpt><trkpt lat="42.19900151654743" lon="13.720400739821413"><ele>1075.3333333333335</ele><time>2026-05-02T10:49:10Z</time></trkpt><trkpt lat="42.19906717886904" lon="13.720342667208996"><ele>1073.5</ele><time>2026-05-02T10:49:11Z</time></trkpt><trkpt lat="42.19912224506651" lon="13.720296159360798"><ele>1071.6666666666667</ele><time>2026-05-02T10:49:12Z</time></trkpt><trkpt lat="42.19917869034752" lon="13.7202537152892"><ele>1069.8333333333333</ele><time>2026-05-02T10:49:13Z</time></trkpt><trkpt lat="42.19927452897484" lon="13.720167804143623"><ele>1068.0</ele><time>2026-05-02T10:49:15Z</time></trkpt><trkpt lat="42.19935751382384" lon="13.7201012517509"><ele>1067.2</ele><time>2026-05-02T10:49:17Z</time></trkpt><trkpt lat="42.199411490116255" lon="13.720020701636436"><ele>1066.4</ele><time>2026-05-02T10:49:20Z</time></trkpt><trkpt lat="42.19942441057813" lon="13.719903321348665"><ele>1065.6000000000001</ele><time>2026-05-02T10:49:22Z</time></trkpt><trkpt lat="42.1994505030981" lon="13.719737746337346"><ele>1064.8</ele><time>2026-05-02T10:49:24Z</time></trkpt><trkpt lat="42.19949161709777" lon="13.719628819801342"><ele>1064.0</ele><time>2026-05-02T10:49:25Z</time></trkpt><trkpt lat="42.199539765406875" lon="13.719533718699337"><ele>1064.0</ele><time>2026-05-02T10:49:26Z</time></trkpt><trkpt lat="42.19958667281426" lon="13.71944235791046"><ele>1064.0</ele><time>2026-05-02T10:49:27Z</time></trkpt><trkpt lat="42.19961535250684" lon="13.719358290539375"><ele>1064.0</ele><time>2026-05-02T10:49:28Z</time></trkpt><trkpt lat="42.19962778610087" lon="13.719273270053792"><ele>1064.0</ele><time>2026-05-02T10:49:29Z</time></trkpt><trkpt lat="42.19964948531775" lon="13.719170875617781"><ele>1064.0</ele><time>2026-05-02T10:49:30Z</time></trkpt><trkpt lat="42.19968925187362" lon="13.719071302670267"><ele>1064.0</ele><time>2026-05-02T10:49:31Z</time></trkpt><trkpt lat="42.1997301071022" lon="13.718974561047931"><ele>1064.8333333333335</ele><time>2026-05-02T10:49:32Z</time></trkpt><trkpt lat="42.199778183541774" lon="13.718886106694326"><ele>1065.6666666666667</ele><time>2026-05-02T10:49:33Z</time></trkpt><trkpt lat="42.199831280008205" lon="13.718802644295415"><ele>1066.5</ele><time>2026-05-02T10:49:34Z</time></trkpt><trkpt lat="42.199885234058016" lon="13.718722348012768"><ele>1067.3333333333333</ele><time>2026-05-02T10:49:35Z</time></trkpt><trkpt lat="42.199945645317946" lon="13.71864027689768"><ele>1068.1666666666665</ele><time>2026-05-02T10:49:36Z</time></trkpt><trkpt lat="42.19999677522629" lon="13.718559716272628"><ele>1069.0</ele><time>2026-05-02T10:49:37Z</time></trkpt><trkpt lat="42.200041145891305" lon="13.718479056156072"><ele>1067.3333333333333</ele><time>2026-05-02T10:49:37.999Z</time></trkpt><trkpt lat="42.200076097035435" lon="13.718390384090567"><ele>1065.6666666666665</ele><time>2026-05-02T10:49:38.999Z</time></trkpt><trkpt lat="42.200115165726416" lon="13.718298819678203"><ele>1064.0</ele><time>2026-05-02T10:49:39.999Z</time></trkpt><trkpt lat="42.200155516089225" lon="13.718221572135947"><ele>1062.3333333333333</ele><time>2026-05-02T10:49:40.999Z</time></trkpt><trkpt lat="42.200229275125665" lon="13.718113157262351"><ele>1060.6666666666667</ele><time>2026-05-02T10:49:42.999Z</time></trkpt><trkpt lat="42.20026553930187" lon="13.718004225499449"><ele>1059.0</ele><time>2026-05-02T10:49:44.999Z</time></trkpt><trkpt lat="42.20026661226878" lon="13.717871265382248"><ele>1059.0</ele><time>2026-05-02T10:49:46.999Z</time></trkpt><trkpt lat="42.200305309916686" lon="13.717743785273147"><ele>1059.0</ele><time>2026-05-02T10:49:48.999Z</time></trkpt><trkpt lat="42.20028447996261" lon="13.717595233048675"><ele>1059.0</ele><time>2026-05-02T10:49:50.999Z</time></trkpt><trkpt lat="42.200249767413155" lon="13.717516048193577"><ele>1059.0</ele><time>2026-05-02T10:49:51.999Z</time></trkpt><trkpt lat="42.20020787327185" lon="13.71741229853844"><ele>1059.0</ele><time>2026-05-02T10:49:52.999Z</time></trkpt><trkpt lat="42.20016240029705" lon="13.717305185257967"><ele>1059.0</ele><time>2026-05-02T10:49:53.999Z</time></trkpt><trkpt lat="42.20011647160392" lon="13.717198998468072"><ele>1059.0</ele><time>2026-05-02T10:49:54.999Z</time></trkpt><trkpt lat="42.20008606511596" lon="13.717096548611377"><ele>1059.0</ele><time>2026-05-02T10:49:55.999Z</time></trkpt><trkpt lat="42.20006224529836" lon="13.716997333160933"><ele>1059.0</ele><time>2026-05-02T10:49:56.999Z</time></trkpt><trkpt lat="42.20004130513135" lon="13.716889274299453"><ele>1059.0</ele><time>2026-05-02T10:49:57.999Z</time></trkpt><trkpt lat="42.20002003458939" lon="13.716784374301328"><ele>1059.0</ele><time>2026-05-02T10:49:58.999Z</time></trkpt><trkpt lat="42.199996000316936" lon="13.716680027174304"><ele>1059.0</ele><time>2026-05-02T10:49:59.999Z</time></trkpt><trkpt lat="42.199968828029064" lon="13.716575052465476"><ele>1059.0</ele><time>2026-05-02T10:50:00.999Z</time></trkpt><trkpt lat="42.199944272933436" lon="13.716475414214834"><ele>1059.0</ele><time>2026-05-02T10:50:01.999Z</time></trkpt><trkpt lat="42.19993057873327" lon="13.716381014479603"><ele>1059.0</ele><time>2026-05-02T10:50:02.999Z</time></trkpt><trkpt lat="42.199944060235225" lon="13.716285307729695"><ele>1059.0</ele><time>2026-05-02T10:50:03.999Z</time></trkpt><trkpt lat="42.19997748372582" lon="13.716177308424296"><ele>1059.0</ele><time>2026-05-02T10:50:04.999Z</time></trkpt><trkpt lat="42.20002316026284" lon="13.716057637827902"><ele>1059.1666666666667</ele><time>2026-05-02T10:50:05.999Z</time></trkpt><trkpt lat="42.200080732275445" lon="13.715941037337544"><ele>1059.3333333333333</ele><time>2026-05-02T10:50:06.999Z</time></trkpt><trkpt lat="42.20013816552708" lon="13.715834308062151"><ele>1059.5</ele><time>2026-05-02T10:50:07.999Z</time></trkpt><trkpt lat="42.200184211076895" lon="13.715739993279493"><ele>1059.6666666666665</ele><time>2026-05-02T10:50:08.999Z</time></trkpt><trkpt lat="42.20021637503944" lon="13.715639934911332"><ele>1059.8333333333333</ele><time>2026-05-02T10:50:09.999Z</time></trkpt><trkpt lat="42.200235910332815" lon="13.715541797130895"><ele>1060.0</ele><time>2026-05-02T10:50:10.999Z</time></trkpt><trkpt lat="42.200254475833376" lon="13.715430731649967"><ele>1059.9999999999998</ele><time>2026-05-02T10:50:11.999Z</time></trkpt><trkpt lat="42.20026582563187" lon="13.715321340482003"><ele>1060.0</ele><time>2026-05-02T10:50:12.999Z</time></trkpt><trkpt lat="42.200284577099495" lon="13.715213838848552"><ele>1060.0</ele><time>2026-05-02T10:50:13.999Z</time></trkpt><trkpt lat="42.20029327571312" lon="13.715116061196001"><ele>1060.0</ele><time>2026-05-02T10:50:14.999Z</time></trkpt><trkpt lat="42.20029447853366" lon="13.715020707691355"><ele>1060.0</ele><time>2026-05-02T10:50:15.999Z</time></trkpt><trkpt lat="42.20031165504861" lon="13.714935136240108"><ele>1059.9999999999998</ele><time>2026-05-02T10:50:16.999Z</time></trkpt><trkpt lat="42.20034261491012" lon="13.714850101251445"><ele>1060.0</ele><time>2026-05-02T10:50:17.999Z</time></trkpt><trkpt lat="42.20038985052762" lon="13.714763830603971"><ele>1060.0</ele><time>2026-05-02T10:50:18.999Z</time></trkpt><trkpt lat="42.200429850374356" lon="13.714682687331504"><ele>1060.0</ele><time>2026-05-02T10:50:19.999Z</time></trkpt><trkpt lat="42.20044773817075" lon="13.71459255303137"><ele>1060.0</ele><time>2026-05-02T10:50:20.999Z</time></trkpt><trkpt lat="42.20045950195823" lon="13.714497866037108"><ele>1060.0</ele><time>2026-05-02T10:50:21.999Z</time></trkpt><trkpt lat="42.20046254494637" lon="13.714386652612054"><ele>1060.0</ele><time>2026-05-02T10:50:22.999Z</time></trkpt><trkpt lat="42.20046699311017" lon="13.714256844665057"><ele>1060.0</ele><time>2026-05-02T10:50:24Z</time></trkpt><trkpt lat="42.200479851561774" lon="13.714129707559717"><ele>1060.0</ele><time>2026-05-02T10:50:25Z</time></trkpt><trkpt lat="42.200491647790265" lon="13.714006301222492"><ele>1060.0</ele><time>2026-05-02T10:50:26Z</time></trkpt><trkpt lat="42.200501750357134" lon="13.713883635556462"><ele>1060.0</ele><time>2026-05-02T10:50:27Z</time></trkpt><trkpt lat="42.2005173348148" lon="13.713763009144586"><ele>1060.0</ele><time>2026-05-02T10:50:28Z</time></trkpt><trkpt lat="42.200538686262355" lon="13.713650331806226"><ele>1060.0</ele><time>2026-05-02T10:50:29Z</time></trkpt><trkpt lat="42.200557135862894" lon="13.713530916801536"><ele>1059.5</ele><time>2026-05-02T10:50:30Z</time></trkpt><trkpt lat="42.20057729077281" lon="13.713407014298912"><ele>1059.0</ele><time>2026-05-02T10:50:31Z</time></trkpt><trkpt lat="42.20060282765743" lon="13.713285451416848"><ele>1058.5</ele><time>2026-05-02T10:50:32Z</time></trkpt><trkpt lat="42.20062902911839" lon="13.713171478654418"><ele>1058.0</ele><time>2026-05-02T10:50:33Z</time></trkpt><trkpt lat="42.200660193279454" lon="13.713078156604718"><ele>1057.5</ele><time>2026-05-02T10:50:34Z</time></trkpt><trkpt lat="42.20069628728235" lon="13.712986919056052"><ele>1057.0</ele><time>2026-05-02T10:50:35Z</time></trkpt><trkpt lat="42.20074079503608" lon="13.712889177282447"><ele>1054.0</ele><time>2026-05-02T10:50:36Z</time></trkpt><trkpt lat="42.200788300683" lon="13.712788315316352"><ele>1051.0</ele><time>2026-05-02T10:50:37Z</time></trkpt><trkpt lat="42.20083393907437" lon="13.712681626798306"><ele>1048.0</ele><time>2026-05-02T10:50:38Z</time></trkpt><trkpt lat="42.20087618536942" lon="13.712577129750436"><ele>1045.0</ele><time>2026-05-02T10:50:39Z</time></trkpt><trkpt lat="42.20091398498492" lon="13.712473256098743"><ele>1042.0</ele><time>2026-05-02T10:50:40Z</time></trkpt><trkpt lat="42.200946887122115" lon="13.712388861165087"><ele>1039.0</ele><time>2026-05-02T10:50:41Z</time></trkpt><trkpt lat="42.20096953393287" lon="13.712302999245995"><ele>1038.5</ele><time>2026-05-02T10:50:42Z</time></trkpt><trkpt lat="42.20098788851327" lon="13.712218301393282"><ele>1038.0</ele><time>2026-05-02T10:50:43Z</time></trkpt><trkpt lat="42.20100164499514" lon="13.712131548133701"><ele>1037.5</ele><time>2026-05-02T10:50:44Z</time></trkpt><trkpt lat="42.20102346138111" lon="13.712031576115237"><ele>1037.0</ele><time>2026-05-02T10:50:45Z</time></trkpt><trkpt lat="42.201046608640276" lon="13.711923875876884"><ele>1036.5</ele><time>2026-05-02T10:50:46Z</time></trkpt><trkpt lat="42.20107268439149" lon="13.711833030361852"><ele>1036.0</ele><time>2026-05-02T10:50:47Z</time></trkpt><trkpt lat="42.20111540256017" lon="13.711674670182406"><ele>1035.5</ele><time>2026-05-02T10:50:49Z</time></trkpt><trkpt lat="42.20113444524144" lon="13.711514850310277"><ele>1035.0</ele><time>2026-05-02T10:50:51Z</time></trkpt><trkpt lat="42.2011265781504" lon="13.711340405409441"><ele>1034.5</ele><time>2026-05-02T10:50:53Z</time></trkpt><trkpt lat="42.201116129959864" lon="13.711256079091415"><ele>1034.0</ele><time>2026-05-02T10:50:54Z</time></trkpt><trkpt lat="42.201101044814806" lon="13.711171683985782"><ele>1033.5</ele><time>2026-05-02T10:50:55Z</time></trkpt><trkpt lat="42.201085559256924" lon="13.71108348982221"><ele>1033.0</ele><time>2026-05-02T10:50:56Z</time></trkpt><trkpt lat="42.20107656668091" lon="13.710998789721478"><ele>1032.3333333333333</ele><time>2026-05-02T10:50:57Z</time></trkpt><trkpt lat="42.201061394792895" lon="13.710855573707208"><ele>1031.6666666666665</ele><time>2026-05-02T10:50:59Z</time></trkpt><trkpt lat="42.201053655076066" lon="13.710770657163273"><ele>1031.0</ele><time>2026-05-02T10:51:00Z</time></trkpt><trkpt lat="42.20105004974353" lon="13.710679902884623"><ele>1030.3333333333333</ele><time>2026-05-02T10:51:01Z</time></trkpt><trkpt lat="42.201053193214236" lon="13.7105819962246"><ele>1029.6666666666667</ele><time>2026-05-02T10:51:02Z</time></trkpt><trkpt lat="42.201065915932936" lon="13.710493210307561"><ele>1029.0</ele><time>2026-05-02T10:51:03Z</time></trkpt><trkpt lat="42.20108204542119" lon="13.710392584533968"><ele>1029.0</ele><time>2026-05-02T10:51:04Z</time></trkpt><trkpt lat="42.20109832951942" lon="13.710292279078349"><ele>1029.0</ele><time>2026-05-02T10:51:05Z</time></trkpt><trkpt lat="42.201118890213195" lon="13.710209947613171"><ele>1029.0</ele><time>2026-05-02T10:51:06Z</time></trkpt><trkpt lat="42.20114526612599" lon="13.710054802717421"><ele>1029.0</ele><time>2026-05-02T10:51:08Z</time></trkpt><trkpt lat="42.20117830607175" lon="13.709919567040627"><ele>1029.0</ele><time>2026-05-02T10:51:10Z</time></trkpt><trkpt lat="42.20119619384377" lon="13.70983354697874"><ele>1029.0</ele><time>2026-05-02T10:51:11Z</time></trkpt><trkpt lat="42.20121353771761" lon="13.70972885975007"><ele>1028.8333333333333</ele><time>2026-05-02T10:51:12Z</time></trkpt><trkpt lat="42.2012365091551" lon="13.70963533330677"><ele>1028.6666666666667</ele><time>2026-05-02T10:51:13Z</time></trkpt><trkpt lat="42.20125883547667" lon="13.709523298102384"><ele>1028.5</ele><time>2026-05-02T10:51:14Z</time></trkpt><trkpt lat="42.20127793526756" lon="13.709414280726554"><ele>1028.3333333333335</ele><time>2026-05-02T10:51:15Z</time></trkpt><trkpt lat="42.2013044503185" lon="13.70930650338824"><ele>1028.1666666666667</ele><time>2026-05-02T10:51:16Z</time></trkpt><trkpt lat="42.20131872925854" lon="13.70919589310511"><ele>1028.0</ele><time>2026-05-02T10:51:17Z</time></trkpt><trkpt lat="42.20133095815996" lon="13.709085635063605"><ele>1028.3333333333335</ele><time>2026-05-02T10:51:18Z</time></trkpt><trkpt lat="42.20134806215595" lon="13.70897758889114"><ele>1028.6666666666667</ele><time>2026-05-02T10:51:19Z</time></trkpt><trkpt lat="42.20137164245748" lon="13.70888507366555"><ele>1029.0</ele><time>2026-05-02T10:51:20Z</time></trkpt><trkpt lat="42.20139905804236" lon="13.70879543794923"><ele>1029.3333333333333</ele><time>2026-05-02T10:51:21Z</time></trkpt><trkpt lat="42.20143139831152" lon="13.708688495896084"><ele>1029.6666666666665</ele><time>2026-05-02T10:51:22Z</time></trkpt><trkpt lat="42.20146199173184" lon="13.708585240281543"><ele>1030.0</ele><time>2026-05-02T10:51:23Z</time></trkpt><trkpt lat="42.201493648650086" lon="13.708483629147862"><ele>1024.0</ele><time>2026-05-02T10:51:24Z</time></trkpt><trkpt lat="42.201528507153334" lon="13.708319350953253"><ele>1018.0</ele><time>2026-05-02T10:51:26Z</time></trkpt><trkpt lat="42.20154530686298" lon="13.708156008503181"><ele>1012.0</ele><time>2026-05-02T10:51:28Z</time></trkpt><trkpt lat="42.20156027573133" lon="13.707994435480856"><ele>1006.0</ele><time>2026-05-02T10:51:30Z</time></trkpt><trkpt lat="42.20157970859454" lon="13.707857492433973"><ele>1004.6666666666666</ele><time>2026-05-02T10:51:32Z</time></trkpt><trkpt lat="42.20159722945487" lon="13.70774168122969"><ele>1003.3333333333333</ele><time>2026-05-02T10:51:33.999Z</time></trkpt><trkpt lat="42.201632913113194" lon="13.707622594441622"><ele>1002.0</ele><time>2026-05-02T10:51:35.999Z</time></trkpt><trkpt lat="42.20166793763958" lon="13.707509740698796"><ele>1000.6666666666667</ele><time>2026-05-02T10:51:37.999Z</time></trkpt><trkpt lat="42.20169219028344" lon="13.707424674542041"><ele>999.3333333333334</ele><time>2026-05-02T10:51:39.999Z</time></trkpt><trkpt lat="42.20170702077094" lon="13.707339709006053"><ele>998.0</ele><time>2026-05-02T10:51:41.999Z</time></trkpt><trkpt lat="42.20171584839122" lon="13.707249841870324"><ele>998.0000000000001</ele><time>2026-05-02T10:51:44.999Z</time></trkpt><trkpt lat="42.201725475862325" lon="13.707157407831563"><ele>998.0</ele><time>2026-05-02T10:51:49.999Z</time></trkpt><trkpt lat="42.20173335469057" lon="13.707068555891205"><ele>998.0000000000001</ele><time>2026-05-02T10:51:53.999Z</time></trkpt><trkpt lat="42.20175538029675" lon="13.706976608932695"><ele>998.0000000000001</ele><time>2026-05-02T10:51:59.999Z</time></trkpt><trkpt lat="42.201787539633436" lon="13.706898246168894"><ele>998.0</ele><time>2026-05-02T10:52:03.999Z</time></trkpt><trkpt lat="42.201828209214796" lon="13.706800751676623"><ele>998.0000000000001</ele><time>2026-05-02T10:52:07.999Z</time></trkpt><trkpt lat="42.20184880013209" lon="13.706693679976688"><ele>998.0000000000001</ele><time>2026-05-02T10:52:11.999Z</time></trkpt><trkpt lat="42.20184200240274" lon="13.706592688107367"><ele>996.8333333333334</ele><time>2026-05-02T10:52:14.999Z</time></trkpt><trkpt lat="42.20182875718201" lon="13.706478555935684"><ele>995.6666666666667</ele><time>2026-05-02T10:52:17.999Z</time></trkpt><trkpt lat="42.20181308888741" lon="13.706394612295885"><ele>994.5</ele><time>2026-05-02T10:52:19.999Z</time></trkpt><trkpt lat="42.201796667667494" lon="13.706278521123695"><ele>993.3333333333333</ele><time>2026-05-02T10:52:22.999Z</time></trkpt><trkpt lat="42.201756287407285" lon="13.706211353354641"><ele>992.1666666666666</ele><time>2026-05-02T10:52:24.999Z</time></trkpt><trkpt lat="42.201682517732" lon="13.7061483573441"><ele>991.0</ele><time>2026-05-02T10:52:27.999Z</time></trkpt><trkpt lat="42.20160058993567" lon="13.706123391193902"><ele>990.9999999999999</ele><time>2026-05-02T10:52:31Z</time></trkpt><trkpt lat="42.20152808022621" lon="13.7061238133531"><ele>991.0</ele><time>2026-05-02T10:52:34Z</time></trkpt><trkpt lat="42.20148693387387" lon="13.706040369603802"><ele>991.0</ele><time>2026-05-02T10:56:56Z</time></trkpt><trkpt lat="42.201488263757" lon="13.705926229263007"><ele>991.0</ele><time>2026-05-02T10:56:58Z</time></trkpt><trkpt lat="42.20151296712503" lon="13.70579797644648"><ele>990.9999999999999</ele><time>2026-05-02T10:57:00Z</time></trkpt><trkpt lat="42.2015126603349" lon="13.705700237225951"><ele>991.0</ele><time>2026-05-02T10:57:02Z</time></trkpt><trkpt lat="42.20145396645683" lon="13.705580695397543"><ele>992.4</ele><time>2026-05-02T10:57:04Z</time></trkpt><trkpt lat="42.20142484860733" lon="13.705494149594832"><ele>993.8</ele><time>2026-05-02T10:57:05Z</time></trkpt><trkpt lat="42.20139808302079" lon="13.705409944775417"><ele>995.1999999999999</ele><time>2026-05-02T10:57:06Z</time></trkpt><trkpt lat="42.201373365953536" lon="13.70533119203208"><ele>996.5999999999999</ele><time>2026-05-02T10:57:07Z</time></trkpt><trkpt lat="42.20133641712564" lon="13.705176510151068"><ele>998.0</ele><time>2026-05-02T10:57:09Z</time></trkpt><trkpt lat="42.2013195883498" lon="13.704998191415681"><ele>994.6666666666667</ele><time>2026-05-02T10:57:11Z</time></trkpt><trkpt lat="42.20132273879439" lon="13.704896866297986"><ele>991.3333333333334</ele><time>2026-05-02T10:57:12Z</time></trkpt><trkpt lat="42.20132487641558" lon="13.704798362572257"><ele>988.0</ele><time>2026-05-02T10:57:13Z</time></trkpt><trkpt lat="42.2013278738846" lon="13.704708960110018"><ele>984.6666666666667</ele><time>2026-05-02T10:57:14Z</time></trkpt><trkpt lat="42.201335147529875" lon="13.704550045896505"><ele>981.3333333333334</ele><time>2026-05-02T10:57:16Z</time></trkpt><trkpt lat="42.20134673746865" lon="13.704401245423533"><ele>978.0</ele><time>2026-05-02T10:57:18Z</time></trkpt><trkpt lat="42.20135561251753" lon="13.704279107089297"><ele>973.8</ele><time>2026-05-02T10:57:20Z</time></trkpt><trkpt lat="42.20134897522789" lon="13.704164072214889"><ele>969.5999999999999</ele><time>2026-05-02T10:57:22Z</time></trkpt><trkpt lat="42.201361183500524" lon="13.704042134567315"><ele>965.4000000000001</ele><time>2026-05-02T10:57:24Z</time></trkpt><trkpt lat="42.20139107471059" lon="13.703898282891586"><ele>961.2</ele><time>2026-05-02T10:57:26Z</time></trkpt><trkpt lat="42.201427504498014" lon="13.703756496732773"><ele>957.0</ele><time>2026-05-02T10:57:28Z</time></trkpt><trkpt lat="42.20144397570179" lon="13.703635405429406"><ele>952.4000000000001</ele><time>2026-05-02T10:57:30Z</time></trkpt><trkpt lat="42.20147280806571" lon="13.703487271740228"><ele>947.8000000000001</ele><time>2026-05-02T10:57:32Z</time></trkpt><trkpt lat="42.20148667064295" lon="13.703342764479702"><ele>943.2</ele><time>2026-05-02T10:57:34Z</time></trkpt><trkpt lat="42.2014950461114" lon="13.703203551019698"><ele>938.6</ele><time>2026-05-02T10:57:36Z</time></trkpt><trkpt lat="42.20148198802536" lon="13.703097488086968"><ele>934.0</ele><time>2026-05-02T10:57:38Z</time></trkpt><trkpt lat="42.201452494130386" lon="13.703016606325656"><ele>933.9999999999999</ele><time>2026-05-02T10:57:40Z</time></trkpt><trkpt lat="42.20140697036184" lon="13.702943674452088"><ele>934.0</ele><time>2026-05-02T10:57:42Z</time></trkpt><trkpt lat="42.20135085161826" lon="13.702887016775417"><ele>933.9999999999999</ele><time>2026-05-02T10:57:45Z</time></trkpt><trkpt lat="42.201290019363924" lon="13.702815573219528"><ele>933.9999999999999</ele><time>2026-05-02T10:57:50Z</time></trkpt><trkpt lat="42.20123493597385" lon="13.70274668022909"><ele>934.0</ele><time>2026-05-02T10:57:53Z</time></trkpt><trkpt lat="42.201172434694016" lon="13.702687151856441"><ele>933.9999999999999</ele><time>2026-05-02T10:57:58Z</time></trkpt><trkpt lat="42.20110779905634" lon="13.702654137797213"><ele>933.9999999999999</ele><time>2026-05-02T10:58:02Z</time></trkpt><trkpt lat="42.201046687077564" lon="13.702610305963459"><ele>934.4999999999999</ele><time>2026-05-02T10:58:05.999Z</time></trkpt><trkpt lat="42.20099405545654" lon="13.702534391196307"><ele>935.0</ele><time>2026-05-02T10:58:09.999Z</time></trkpt><trkpt lat="42.20094155163976" lon="13.702475135987372"><ele>935.5</ele><time>2026-05-02T10:58:11.999Z</time></trkpt><trkpt lat="42.200869128647916" lon="13.70242608263458"><ele>936.0</ele><time>2026-05-02T10:58:13.999Z</time></trkpt><trkpt lat="42.20079686090675" lon="13.702378286451946"><ele>936.4999999999999</ele><time>2026-05-02T10:58:15.999Z</time></trkpt><trkpt lat="42.20071568043122" lon="13.702334271833175"><ele>937.0</ele><time>2026-05-02T10:58:17.999Z</time></trkpt><trkpt lat="42.20065247680575" lon="13.70231131690398"><ele>931.9999999999999</ele><time>2026-05-02T10:58:19.999Z</time></trkpt><trkpt lat="42.200561636872365" lon="13.702286827492491"><ele>927.0</ele><time>2026-05-02T10:58:22.999Z</time></trkpt><trkpt lat="42.20048862150302" lon="13.702269882098356"><ele>922.0</ele><time>2026-05-02T10:58:26.999Z</time></trkpt><trkpt lat="42.200421817098885" lon="13.702223089114813"><ele>917.0</ele><time>2026-05-02T10:58:31.999Z</time></trkpt><trkpt lat="42.20034838398594" lon="13.7022257811972"><ele>911.9999999999999</ele><time>2026-05-02T10:58:34.999Z</time></trkpt><trkpt lat="42.20027754210221" lon="13.702221517198932"><ele>907.0</ele><time>2026-05-02T10:58:39.999Z</time></trkpt><trkpt lat="42.200203276996476" lon="13.702200410624974"><ele>907.0000000000001</ele><time>2026-05-02T10:58:44.999Z</time></trkpt><trkpt lat="42.20015126455576" lon="13.702128354669888"><ele>907.0</ele><time>2026-05-02T10:58:49Z</time></trkpt><trkpt lat="42.200130715525304" lon="13.702031830287842"><ele>907.0000000000001</ele><time>2026-05-02T10:58:52Z</time></trkpt><trkpt lat="42.200115820223786" lon="13.701945712101951"><ele>907.0000000000001</ele><time>2026-05-02T10:58:55Z</time></trkpt><trkpt lat="42.20009723664121" lon="13.701839490600282"><ele>907.0</ele><time>2026-05-02T10:58:58Z</time></trkpt><trkpt lat="42.20008169086812" lon="13.701755238296828"><ele>907.0000000000001</ele><time>2026-05-02T10:59:04Z</time></trkpt><trkpt lat="42.200065913241694" lon="13.701662805147494"><ele>907.0000000000001</ele><time>2026-05-02T10:59:08Z</time></trkpt><trkpt lat="42.20002181258833" lon="13.701569587756772"><ele>907.4285714285716</ele><time>2026-05-02T10:59:11Z</time></trkpt><trkpt lat="42.19997553133964" lon="13.701491540748464"><ele>907.8571428571429</ele><time>2026-05-02T10:59:16Z</time></trkpt><trkpt lat="42.19998657470593" lon="13.701402193430532"><ele>908.2857142857143</ele><time>2026-05-02T10:59:22Z</time></trkpt><trkpt lat="42.199998202841" lon="13.701310403843602"><ele>908.7142857142858</ele><time>2026-05-02T10:59:25Z</time></trkpt><trkpt lat="42.19999872982788" lon="13.701218627134852"><ele>909.1428571428571</ele><time>2026-05-02T10:59:28Z</time></trkpt><trkpt lat="42.20002892321906" lon="13.701134434755295"><ele>909.5714285714286</ele><time>2026-05-02T10:59:31Z</time></trkpt><trkpt lat="42.20003837311045" lon="13.701015538147491"><ele>910.0</ele><time>2026-05-02T10:59:34Z</time></trkpt><trkpt lat="42.20004767657224" lon="13.700910037603464"><ele>908.9999999999999</ele><time>2026-05-02T10:59:38Z</time></trkpt><trkpt lat="42.20006491698558" lon="13.700807160250557"><ele>908.0</ele><time>2026-05-02T10:59:53Z</time></trkpt><trkpt lat="42.20007010173201" lon="13.700679013607543"><ele>907.0</ele><time>2026-05-02T10:59:56Z</time></trkpt><trkpt lat="42.20003658998298" lon="13.700576397522529"><ele>906.0</ele><time>2026-05-02T10:59:59Z</time></trkpt><trkpt lat="42.20000827179212" lon="13.700475800946409"><ele>904.9999999999999</ele><time>2026-05-02T11:00:01Z</time></trkpt><trkpt lat="42.200003664632185" lon="13.700377492931079"><ele>904.0</ele><time>2026-05-02T11:00:03Z</time></trkpt><trkpt lat="42.20000665358616" lon="13.70027031862684"><ele>903.8571428571429</ele><time>2026-05-02T11:00:05Z</time></trkpt><trkpt lat="42.200013098418644" lon="13.700182155911925"><ele>903.7142857142857</ele><time>2026-05-02T11:00:07Z</time></trkpt><trkpt lat="42.20003504454081" lon="13.700087444666966"><ele>903.5714285714286</ele><time>2026-05-02T11:00:09Z</time></trkpt><trkpt lat="42.20003394672371" lon="13.69999362019505"><ele>903.4285714285714</ele><time>2026-05-02T11:00:12Z</time></trkpt><trkpt lat="42.199989264832034" lon="13.699930069893064"><ele>903.2857142857142</ele><time>2026-05-02T11:00:15Z</time></trkpt><trkpt lat="42.19993103163419" lon="13.699886159815646"><ele>903.1428571428571</ele><time>2026-05-02T11:00:19.999Z</time></trkpt><trkpt lat="42.1998573097857" lon="13.699840992268202"><ele>903.0</ele><time>2026-05-02T11:00:22.999Z</time></trkpt><trkpt lat="42.199787291595335" lon="13.699762836825654"><ele>892.5999999999999</ele><time>2026-05-02T11:00:25.999Z</time></trkpt><trkpt lat="42.199742419641545" lon="13.699668199153395"><ele>882.1999999999999</ele><time>2026-05-02T11:00:27.999Z</time></trkpt><trkpt lat="42.199693806050384" lon="13.699549380477885"><ele>871.8</ele><time>2026-05-02T11:00:29.999Z</time></trkpt><trkpt lat="42.199667948067756" lon="13.699408301160839"><ele>861.4</ele><time>2026-05-02T11:00:31.999Z</time></trkpt><trkpt lat="42.19965004259552" lon="13.699305221900138"><ele>851.0</ele><time>2026-05-02T11:00:33.999Z</time></trkpt><trkpt lat="42.199608704518795" lon="13.699201644039489"><ele>851.0000000000001</ele><time>2026-05-02T11:00:36.999Z</time></trkpt><trkpt lat="42.199560637118154" lon="13.699117400613837"><ele>851.0</ele><time>2026-05-02T11:00:38.999Z</time></trkpt><trkpt lat="42.19951862747658" lon="13.699015309903176"><ele>851.0</ele><time>2026-05-02T11:00:40.999Z</time></trkpt><trkpt lat="42.199502714382355" lon="13.698920799576136"><ele>851.0</ele><time>2026-05-02T11:00:42.999Z</time></trkpt><trkpt lat="42.19949234461995" lon="13.698828152088902"><ele>851.0000000000001</ele><time>2026-05-02T11:00:44.999Z</time></trkpt><trkpt lat="42.19948906369828" lon="13.698730683873205"><ele>851.0</ele><time>2026-05-02T11:00:46.999Z</time></trkpt><trkpt lat="42.19949551664126" lon="13.698612315077506"><ele>851.5714285714286</ele><time>2026-05-02T11:00:49.999Z</time></trkpt><trkpt lat="42.19948552124552" lon="13.698509745504516"><ele>852.1428571428571</ele><time>2026-05-02T11:00:52Z</time></trkpt><trkpt lat="42.19946673128879" lon="13.698421695335307"><ele>852.7142857142858</ele><time>2026-05-02T11:00:54Z</time></trkpt><trkpt lat="42.19944810979165" lon="13.698340157320235"><ele>853.2857142857142</ele><time>2026-05-02T11:00:56Z</time></trkpt><trkpt lat="42.19944707054085" lon="13.698243034034874"><ele>853.8571428571428</ele><time>2026-05-02T11:00:59Z</time></trkpt><trkpt lat="42.19945705338304" lon="13.698144787350365"><ele>854.4285714285714</ele><time>2026-05-02T11:01:02Z</time></trkpt><trkpt lat="42.19947583238108" lon="13.698042360262786"><ele>855.0</ele><time>2026-05-02T11:01:06Z</time></trkpt><trkpt lat="42.19950371062045" lon="13.697922435096073"><ele>855.0</ele><time>2026-05-02T11:01:35Z</time></trkpt><trkpt lat="42.19953236516098" lon="13.697830037196288"><ele>855.0</ele><time>2026-05-02T11:01:38Z</time></trkpt><trkpt lat="42.1995596614303" lon="13.697737489855882"><ele>855.0</ele><time>2026-05-02T11:01:41Z</time></trkpt><trkpt lat="42.19959757075636" lon="13.697640518934936"><ele>855.0</ele><time>2026-05-02T11:01:44Z</time></trkpt><trkpt lat="42.199628697888535" lon="13.697546013307504"><ele>855.0</ele><time>2026-05-02T11:01:47Z</time></trkpt><trkpt lat="42.19966832856531" lon="13.697467239334095"><ele>855.0</ele><time>2026-05-02T11:01:50Z</time></trkpt><trkpt lat="42.19971335846202" lon="13.697400482230986"><ele>855.0</ele><time>2026-05-02T11:01:53Z</time></trkpt><trkpt lat="42.19976299279988" lon="13.697319689866132"><ele>853.2857142857143</ele><time>2026-05-02T11:01:57Z</time></trkpt><trkpt lat="42.199804614824814" lon="13.69724474211178"><ele>851.5714285714286</ele><time>2026-05-02T11:02:01Z</time></trkpt><trkpt lat="42.19985333958723" lon="13.697171674924409"><ele>849.8571428571429</ele><time>2026-05-02T11:02:05Z</time></trkpt><trkpt lat="42.19991539398973" lon="13.6971431878734"><ele>848.1428571428571</ele><time>2026-05-02T11:02:09Z</time></trkpt><trkpt lat="42.199979698023604" lon="13.697124205793285"><ele>846.4285714285713</ele><time>2026-05-02T11:02:12Z</time></trkpt><trkpt lat="42.20005073077472" lon="13.697114879256473"><ele>844.7142857142857</ele><time>2026-05-02T11:02:16Z</time></trkpt><trkpt lat="42.2001351943908" lon="13.697099326484942"><ele>843.0</ele><time>2026-05-02T11:02:19.999Z</time></trkpt><trkpt lat="42.20022191109454" lon="13.69704313613869"><ele>843.5</ele><time>2026-05-02T11:02:21.999Z</time></trkpt><trkpt lat="42.200297799938184" lon="13.696992879756086"><ele>844.0</ele><time>2026-05-02T11:02:23.999Z</time></trkpt><trkpt lat="42.20036584928947" lon="13.696992439853963"><ele>844.5</ele><time>2026-05-02T11:02:26.999Z</time></trkpt><trkpt lat="42.200434127990874" lon="13.696978543456872"><ele>845.0</ele><time>2026-05-02T11:02:30.999Z</time></trkpt><trkpt lat="42.20049598040906" lon="13.696950177918872"><ele>845.5</ele><time>2026-05-02T11:02:33.999Z</time></trkpt><trkpt lat="42.20057648431285" lon="13.696907669633418"><ele>846.0</ele><time>2026-05-02T11:02:36.999Z</time></trkpt><trkpt lat="42.20065168399621" lon="13.696856871480504"><ele>846.0</ele><time>2026-05-02T11:02:39.999Z</time></trkpt><trkpt lat="42.20071617491671" lon="13.69681331010001"><ele>846.0</ele><time>2026-05-02T11:02:43.999Z</time></trkpt><trkpt lat="42.20077014026012" lon="13.696768783529402"><ele>846.0</ele><time>2026-05-02T11:02:45.999Z</time></trkpt><trkpt lat="42.20082872524068" lon="13.696707392991877"><ele>846.0</ele><time>2026-05-02T11:02:48.999Z</time></trkpt><trkpt lat="42.20084584682564" lon="13.696607868460879"><ele>846.0</ele><time>2026-05-02T11:02:52.999Z</time></trkpt><trkpt lat="42.2007940885812" lon="13.69655567045016"><ele>846.0</ele><time>2026-05-02T11:02:57.999Z</time></trkpt><trkpt lat="42.20072227939829" lon="13.696594203586868"><ele>846.0</ele><time>2026-05-02T11:03:12.999Z</time></trkpt><trkpt lat="42.200657897494025" lon="13.696603822411838"><ele>846.0</ele><time>2026-05-02T11:03:16.999Z</time></trkpt><trkpt lat="42.200602595128274" lon="13.696554831183208"><ele>846.0</ele><time>2026-05-02T11:03:22Z</time></trkpt><trkpt lat="42.200547820000295" lon="13.696484355604447"><ele>846.0</ele><time>2026-05-02T11:03:26Z</time></trkpt><trkpt lat="42.200472587885535" lon="13.696507534737579"><ele>846.0</ele><time>2026-05-02T11:03:32Z</time></trkpt><trkpt lat="42.20040853540076" lon="13.696538052569338"><ele>846.0</ele><time>2026-05-02T11:03:36Z</time></trkpt><trkpt lat="42.200343619855" lon="13.696514082556849"><ele>846.0</ele><time>2026-05-02T11:03:42Z</time></trkpt><trkpt lat="42.200292535396365" lon="13.696454702386637"><ele>846.0</ele><time>2026-05-02T11:03:45Z</time></trkpt><trkpt lat="42.20024612911604" lon="13.696396150166796"><ele>846.0</ele><time>2026-05-02T11:03:47Z</time></trkpt><trkpt lat="42.20019232403132" lon="13.696344357098656"><ele>846.0</ele><time>2026-05-02T11:03:49Z</time></trkpt><trkpt lat="42.20012055239822" lon="13.696280003672276"><ele>846.0</ele><time>2026-05-02T11:03:51.999Z</time></trkpt><trkpt lat="42.20003711876512" lon="13.69624636305053"><ele>846.0</ele><time>2026-05-02T11:03:54.999Z</time></trkpt><trkpt lat="42.19995941650468" lon="13.696301938071283"><ele>846.0</ele><time>2026-05-02T11:03:57.999Z</time></trkpt><trkpt lat="42.199910239892574" lon="13.696372295516811"><ele>846.0</ele><time>2026-05-02T11:04:01.999Z</time></trkpt><trkpt lat="42.1998335921407" lon="13.696402916451914"><ele>841.6666666666666</ele><time>2026-05-02T11:04:05.999Z</time></trkpt><trkpt lat="42.199755490434896" lon="13.696352526834783"><ele>837.3333333333333</ele><time>2026-05-02T11:04:09.999Z</time></trkpt><trkpt lat="42.19968898877808" lon="13.696278977083141"><ele>833.0</ele><time>2026-05-02T11:04:12.999Z</time></trkpt><trkpt lat="42.1996447587705" lon="13.696209983920236"><ele>828.6666666666666</ele><time>2026-05-02T11:04:15.999Z</time></trkpt><trkpt lat="42.19959627435823" lon="13.696117109153715"><ele>824.3333333333333</ele><time>2026-05-02T11:04:17.999Z</time></trkpt><trkpt lat="42.19955472401129" lon="13.69603444793968"><ele>820.0</ele><time>2026-05-02T11:04:19.999Z</time></trkpt><trkpt lat="42.19950141596509" lon="13.695943201564184"><ele>816.8</ele><time>2026-05-02T11:04:21.999Z</time></trkpt><trkpt lat="42.19944347925161" lon="13.695864178536295"><ele>813.6</ele><time>2026-05-02T11:04:23.999Z</time></trkpt><trkpt lat="42.199383829406315" lon="13.695765680421182"><ele>810.4000000000001</ele><time>2026-05-02T11:04:25.999Z</time></trkpt><trkpt lat="42.19933484572574" lon="13.695674410620025"><ele>807.2</ele><time>2026-05-02T11:04:27.999Z</time></trkpt><trkpt lat="42.19927562563744" lon="13.695568128727134"><ele>804.0</ele><time>2026-05-02T11:04:29.999Z</time></trkpt><trkpt lat="42.19923066697446" lon="13.695451878971292"><ele>804.0</ele><time>2026-05-02T11:04:31.999Z</time></trkpt><trkpt lat="42.199195046116806" lon="13.695315515791938"><ele>804.0</ele><time>2026-05-02T11:04:33.999Z</time></trkpt><trkpt lat="42.19915920817243" lon="13.695172212037347"><ele>804.0</ele><time>2026-05-02T11:04:35.999Z</time></trkpt><trkpt lat="42.19910816881881" lon="13.695064266624701"><ele>804.0</ele><time>2026-05-02T11:04:37.999Z</time></trkpt><trkpt lat="42.19904385552048" lon="13.69497249149857"><ele>804.0</ele><time>2026-05-02T11:04:39.999Z</time></trkpt><trkpt lat="42.19897230611301" lon="13.694914037783366"><ele>800.5</ele><time>2026-05-02T11:04:41.999Z</time></trkpt><trkpt lat="42.198901666576326" lon="13.694926394169"><ele>797.0</ele><time>2026-05-02T11:04:43.999Z</time></trkpt><trkpt lat="42.19884363632705" lon="13.694987273395833"><ele>793.5</ele><time>2026-05-02T11:04:45.999Z</time></trkpt><trkpt lat="42.19880383234127" lon="13.695097122664706"><ele>790.0</ele><time>2026-05-02T11:04:47.999Z</time></trkpt><trkpt lat="42.198758767733445" lon="13.695221310709597"><ele>786.5</ele><time>2026-05-02T11:04:49.999Z</time></trkpt><trkpt lat="42.198700806988285" lon="13.695334519103115"><ele>783.0</ele><time>2026-05-02T11:04:51.999Z</time></trkpt><trkpt lat="42.198638692666314" lon="13.695438748646664"><ele>783.0</ele><time>2026-05-02T11:04:53.999Z</time></trkpt><trkpt lat="42.19857491682295" lon="13.695553411874188"><ele>783.0</ele><time>2026-05-02T11:04:55.999Z</time></trkpt><trkpt lat="42.19852824798779" lon="13.695615294509377"><ele>783.0</ele><time>2026-05-02T11:04:57.999Z</time></trkpt><trkpt lat="42.19845686945929" lon="13.69558371921329"><ele>783.0</ele><time>2026-05-02T11:05:00.999Z</time></trkpt><trkpt lat="42.19839573914502" lon="13.695503292480948"><ele>783.0</ele><time>2026-05-02T11:05:03.999Z</time></trkpt><trkpt lat="42.19831104320424" lon="13.69546495420402"><ele>783.0</ele><time>2026-05-02T11:05:06.999Z</time></trkpt><trkpt lat="42.1982460115052" lon="13.69545687200333"><ele>779.8333333333334</ele><time>2026-05-02T11:05:08.999Z</time></trkpt><trkpt lat="42.19816631652259" lon="13.695481851248951"><ele>776.6666666666666</ele><time>2026-05-02T11:05:11.999Z</time></trkpt><trkpt lat="42.19810030490686" lon="13.695542765023752"><ele>773.5</ele><time>2026-05-02T11:05:14.999Z</time></trkpt><trkpt lat="42.19804045462303" lon="13.695618298571377"><ele>770.3333333333333</ele><time>2026-05-02T11:05:17.999Z</time></trkpt><trkpt lat="42.197980432777584" lon="13.69565295583959"><ele>767.1666666666666</ele><time>2026-05-02T11:05:19.999Z</time></trkpt><trkpt lat="42.19787372901006" lon="13.695699965248915"><ele>764.0</ele><time>2026-05-02T11:05:21.999Z</time></trkpt><trkpt lat="42.197801181216064" lon="13.695722771069342"><ele>764.0</ele><time>2026-05-02T11:05:22.999Z</time></trkpt><trkpt lat="42.197718876571514" lon="13.695745084954163"><ele>764.0</ele><time>2026-05-02T11:05:23.999Z</time></trkpt><trkpt lat="42.197627413880745" lon="13.695766157957134"><ele>764.0</ele><time>2026-05-02T11:05:24.999Z</time></trkpt><trkpt lat="42.19753982229262" lon="13.695793251052"><ele>764.0</ele><time>2026-05-02T11:05:25.999Z</time></trkpt><trkpt lat="42.197451819814084" lon="13.69582297896048"><ele>764.0</ele><time>2026-05-02T11:05:26.999Z</time></trkpt><trkpt lat="42.19737281791568" lon="13.695844984932373"><ele>764.0</ele><time>2026-05-02T11:05:27.999Z</time></trkpt><trkpt lat="42.19730918052053" lon="13.6958658446025"><ele>761.0</ele><time>2026-05-02T11:05:28.999Z</time></trkpt><trkpt lat="42.19720444791172" lon="13.695902504945481"><ele>758.0</ele><time>2026-05-02T11:05:30.999Z</time></trkpt><trkpt lat="42.19712130454087" lon="13.695933092277823"><ele>755.0</ele><time>2026-05-02T11:05:32.999Z</time></trkpt><trkpt lat="42.197054078152995" lon="13.695949861331911"><ele>752.0</ele><time>2026-05-02T11:05:33.999Z</time></trkpt><trkpt lat="42.19698280862224" lon="13.695971718474468"><ele>749.0</ele><time>2026-05-02T11:05:34.999Z</time></trkpt><trkpt lat="42.196910242591706" lon="13.696000609974892"><ele>746.0</ele><time>2026-05-02T11:05:35.999Z</time></trkpt><trkpt lat="42.1968339204236" lon="13.696025883408439"><ele>746.0</ele><time>2026-05-02T11:05:36.999Z</time></trkpt><trkpt lat="42.19676051538171" lon="13.696054609644507"><ele>746.0</ele><time>2026-05-02T11:05:37.999Z</time></trkpt><trkpt lat="42.196687678066375" lon="13.696077908487958"><ele>746.0</ele><time>2026-05-02T11:05:38.999Z</time></trkpt><trkpt lat="42.19661956392147" lon="13.69609752449424"><ele>746.0</ele><time>2026-05-02T11:05:40Z</time></trkpt><trkpt lat="42.19652203398747" lon="13.696163586802873"><ele>746.0</ele><time>2026-05-02T11:05:42Z</time></trkpt><trkpt lat="42.19650801353688" lon="13.69626024376897"><ele>746.0</ele><time>2026-05-02T11:05:44Z</time></trkpt><trkpt lat="42.19647144115414" lon="13.696332548805406"><ele>743.3333333333333</ele><time>2026-05-02T11:05:48Z</time></trkpt><trkpt lat="42.1964576265322" lon="13.69624473596146"><ele>740.6666666666666</ele><time>2026-05-02T11:05:51Z</time></trkpt><trkpt lat="42.19644578406591" lon="13.69612083391719"><ele>738.0</ele><time>2026-05-02T11:05:52.999Z</time></trkpt><trkpt lat="42.19643184135307" lon="13.696031927336952"><ele>735.3333333333334</ele><time>2026-05-02T11:05:53.999Z</time></trkpt><trkpt lat="42.196415656541525" lon="13.695935183500442"><ele>732.6666666666667</ele><time>2026-05-02T11:05:54.999Z</time></trkpt><trkpt lat="42.19640475660494" lon="13.695843576340788"><ele>730.0</ele><time>2026-05-02T11:05:55.999Z</time></trkpt><trkpt lat="42.19638574208607" lon="13.695683266156585"><ele>730.0</ele><time>2026-05-02T11:05:57.999Z</time></trkpt><trkpt lat="42.19634268613728" lon="13.695519924622717"><ele>730.0</ele><time>2026-05-02T11:05:59.999Z</time></trkpt><trkpt lat="42.196328025678255" lon="13.695425374296711"><ele>730.0</ele><time>2026-05-02T11:06:00.999Z</time></trkpt><trkpt lat="42.19631118079795" lon="13.695312341004254"><ele>730.0</ele><time>2026-05-02T11:06:01.999Z</time></trkpt><trkpt lat="42.19628939423268" lon="13.695191817874262"><ele>730.0</ele><time>2026-05-02T11:06:02.999Z</time></trkpt><trkpt lat="42.19627264527667" lon="13.695086344237948"><ele>730.5</ele><time>2026-05-02T11:06:03.999Z</time></trkpt><trkpt lat="42.19626107857532" lon="13.6949887855395"><ele>731.0</ele><time>2026-05-02T11:06:04.999Z</time></trkpt><trkpt lat="42.19625498175022" lon="13.694890544603695"><ele>731.5</ele><time>2026-05-02T11:06:05.999Z</time></trkpt><trkpt lat="42.19624672227753" lon="13.694790580597726"><ele>732.0</ele><time>2026-05-02T11:06:06.999Z</time></trkpt><trkpt lat="42.19623003662633" lon="13.694693636682167"><ele>732.5</ele><time>2026-05-02T11:06:07.999Z</time></trkpt><trkpt lat="42.196204148367045" lon="13.694595859666707"><ele>733.0</ele><time>2026-05-02T11:06:08.999Z</time></trkpt><trkpt lat="42.19616045439918" lon="13.694458176860692"><ele>732.5</ele><time>2026-05-02T11:06:10.999Z</time></trkpt><trkpt lat="42.196115986418725" lon="13.69430531791857"><ele>732.0</ele><time>2026-05-02T11:06:12.999Z</time></trkpt><trkpt lat="42.19607074127022" lon="13.694158887650476"><ele>731.5</ele><time>2026-05-02T11:06:14.999Z</time></trkpt><trkpt lat="42.196030842507966" lon="13.693995583493978"><ele>731.0</ele><time>2026-05-02T11:06:16.999Z</time></trkpt><trkpt lat="42.196008351809674" lon="13.693829002563438"><ele>731.0</ele><time>2026-05-02T11:06:18.999Z</time></trkpt><trkpt lat="42.19598021275119" lon="13.693682655112163"><ele>731.0</ele><time>2026-05-02T11:06:20.999Z</time></trkpt><trkpt lat="42.195963752974635" lon="13.693542930486082"><ele>731.0</ele><time>2026-05-02T11:06:22.999Z</time></trkpt><trkpt lat="42.19594307804195" lon="13.69341611492744"><ele>731.0</ele><time>2026-05-02T11:06:24.999Z</time></trkpt><trkpt lat="42.19592443589002" lon="13.693303487361595"><ele>731.0</ele><time>2026-05-02T11:06:26.999Z</time></trkpt><trkpt lat="42.195910020997694" lon="13.693219881858296"><ele>729.8333333333333</ele><time>2026-05-02T11:06:28.999Z</time></trkpt><trkpt lat="42.1958969321483" lon="13.693136049563762"><ele>728.6666666666666</ele><time>2026-05-02T11:06:30.999Z</time></trkpt><trkpt lat="42.19587260907333" lon="13.693031882254475"><ele>727.5</ele><time>2026-05-02T11:06:32.999Z</time></trkpt><trkpt lat="42.195850124369485" lon="13.692907034019859"><ele>726.3333333333334</ele><time>2026-05-02T11:06:34.999Z</time></trkpt><trkpt lat="42.19583714466472" lon="13.692786554831596"><ele>725.1666666666667</ele><time>2026-05-02T11:06:36.999Z</time></trkpt><trkpt lat="42.19581841877959" lon="13.692645976913388"><ele>724.0</ele><time>2026-05-02T11:06:38.999Z</time></trkpt><trkpt lat="42.19581840463721" lon="13.692508811158193"><ele>722.3333333333334</ele><time>2026-05-02T11:06:40.999Z</time></trkpt><trkpt lat="42.19581114282756" lon="13.692329431009021"><ele>720.6666666666667</ele><time>2026-05-02T11:06:42.999Z</time></trkpt><trkpt lat="42.1958177890466" lon="13.692222748012037"><ele>719.0</ele><time>2026-05-02T11:06:43.999Z</time></trkpt><trkpt lat="42.1958186750622" lon="13.69212071980725"><ele>717.3333333333334</ele><time>2026-05-02T11:06:44.999Z</time></trkpt><trkpt lat="42.195818302509586" lon="13.692019436708405"><ele>715.6666666666666</ele><time>2026-05-02T11:06:45.999Z</time></trkpt><trkpt lat="42.195813621825636" lon="13.69191947299194"><ele>714.0</ele><time>2026-05-02T11:06:46.999Z</time></trkpt><trkpt lat="42.195815649447425" lon="13.69181968982791"><ele>712.6</ele><time>2026-05-02T11:06:47.999Z</time></trkpt><trkpt lat="42.19582206134931" lon="13.691711274676411"><ele>711.2</ele><time>2026-05-02T11:06:48.999Z</time></trkpt><trkpt lat="42.195827631007354" lon="13.691620842521639"><ele>709.8000000000001</ele><time>2026-05-02T11:06:49.999Z</time></trkpt><trkpt lat="42.195819526268586" lon="13.691460082906145"><ele>708.4000000000001</ele><time>2026-05-02T11:06:51.999Z</time></trkpt><trkpt lat="42.195741005146274" lon="13.691343644470608"><ele>707.0</ele><time>2026-05-02T11:06:53.999Z</time></trkpt><trkpt lat="42.19569358314059" lon="13.691223275360226"><ele>704.0</ele><time>2026-05-02T11:06:55.999Z</time></trkpt><trkpt lat="42.19564245148313" lon="13.691080244243743"><ele>701.0</ele><time>2026-05-02T11:06:57.999Z</time></trkpt><trkpt lat="42.19556879124418" lon="13.690945985556855"><ele>698.0</ele><time>2026-05-02T11:06:59.999Z</time></trkpt><trkpt lat="42.19546916907886" lon="13.69084327483896"><ele>695.0</ele><time>2026-05-02T11:07:01.999Z</time></trkpt><trkpt lat="42.19540904296335" lon="13.690802810635297"><ele>692.0</ele><time>2026-05-02T11:07:02.999Z</time></trkpt><trkpt lat="42.195347641145595" lon="13.690774422804425"><ele>692.0</ele><time>2026-05-02T11:07:03.999Z</time></trkpt><trkpt lat="42.19528367864546" lon="13.690748994424215"><ele>692.0</ele><time>2026-05-02T11:07:04.999Z</time></trkpt><trkpt lat="42.19516317260019" lon="13.690714885401968"><ele>692.0</ele><time>2026-05-02T11:07:06.999Z</time></trkpt><trkpt lat="42.19504556453352" lon="13.690663547763728"><ele>692.0</ele><time>2026-05-02T11:07:08.999Z</time></trkpt><trkpt lat="42.19498253344612" lon="13.690635462577223"><ele>692.0</ele><time>2026-05-02T11:07:09.999Z</time></trkpt><trkpt lat="42.1949135819824" lon="13.690613529685628"><ele>690.0</ele><time>2026-05-02T11:07:10.999Z</time></trkpt><trkpt lat="42.1948261230272" lon="13.690585308314962"><ele>688.0</ele><time>2026-05-02T11:07:11.999Z</time></trkpt><trkpt lat="42.19473121355298" lon="13.690553335918935"><ele>686.0</ele><time>2026-05-02T11:07:12.999Z</time></trkpt><trkpt lat="42.19464514634934" lon="13.690529968254879"><ele>684.0</ele><time>2026-05-02T11:07:13.999Z</time></trkpt><trkpt lat="42.19455950815135" lon="13.6905077368569"><ele>682.0</ele><time>2026-05-02T11:07:14.999Z</time></trkpt><trkpt lat="42.194484397805034" lon="13.690481478556933"><ele>680.0</ele><time>2026-05-02T11:07:15.999Z</time></trkpt><trkpt lat="42.19441968414973" lon="13.690447868119316"><ele>680.0</ele><time>2026-05-02T11:07:16.999Z</time></trkpt><trkpt lat="42.194358978198544" lon="13.69040085608989"><ele>680.0</ele><time>2026-05-02T11:07:17.999Z</time></trkpt><trkpt lat="42.19430552244708" lon="13.690354593774565"><ele>680.0</ele><time>2026-05-02T11:07:18.999Z</time></trkpt><trkpt lat="42.19425288852947" lon="13.690293677704325"><ele>680.0</ele><time>2026-05-02T11:07:19.999Z</time></trkpt><trkpt lat="42.19420394176521" lon="13.690220361700602"><ele>680.0</ele><time>2026-05-02T11:07:20.999Z</time></trkpt><trkpt lat="42.194155244457335" lon="13.690143351212106"><ele>680.0</ele><time>2026-05-02T11:07:21.999Z</time></trkpt><trkpt lat="42.19410796248409" lon="13.690070998632786"><ele>680.0</ele><time>2026-05-02T11:07:22.999Z</time></trkpt><trkpt lat="42.19406281054206" lon="13.69000563083492"><ele>679.5</ele><time>2026-05-02T11:07:23.999Z</time></trkpt><trkpt lat="42.19401814028742" lon="13.689936681405472"><ele>679.0</ele><time>2026-05-02T11:07:25Z</time></trkpt><trkpt lat="42.19395832950616" lon="13.689784309243123"><ele>678.5</ele><time>2026-05-02T11:07:27Z</time></trkpt><trkpt lat="42.1939346179524" lon="13.689697773623104"><ele>678.0</ele><time>2026-05-02T11:07:28Z</time></trkpt><trkpt lat="42.19390484543351" lon="13.689617872950253"><ele>677.5</ele><time>2026-05-02T11:07:29Z</time></trkpt><trkpt lat="42.193831290803324" lon="13.689495010927425"><ele>677.0</ele><time>2026-05-02T11:07:31Z</time></trkpt><trkpt lat="42.1937140153632" lon="13.689445244583148"><ele>676.0</ele><time>2026-05-02T11:07:33Z</time></trkpt><trkpt lat="42.19364064745358" lon="13.68943539541743"><ele>675.0</ele><time>2026-05-02T11:07:35Z</time></trkpt><trkpt lat="42.193574186056644" lon="13.689443734941293"><ele>674.0</ele><time>2026-05-02T11:07:37Z</time></trkpt><trkpt lat="42.19348818483643" lon="13.689461576092295"><ele>673.0</ele><time>2026-05-02T11:07:39Z</time></trkpt><trkpt lat="42.193411012217126" lon="13.68939873759998"><ele>672.0</ele><time>2026-05-02T11:07:41Z</time></trkpt><trkpt lat="42.193375584388015" lon="13.68932514697024"><ele>671.0</ele><time>2026-05-02T11:07:42Z</time></trkpt><trkpt lat="42.19334656355711" lon="13.689242356062094"><ele>671.0</ele><time>2026-05-02T11:07:43Z</time></trkpt><trkpt lat="42.19329903996747" lon="13.68915186424119"><ele>671.0</ele><time>2026-05-02T11:07:44Z</time></trkpt><trkpt lat="42.193237780556295" lon="13.68907067117444"><ele>671.0</ele><time>2026-05-02T11:07:45Z</time></trkpt><trkpt lat="42.19317280238587" lon="13.689003314271448"><ele>671.0</ele><time>2026-05-02T11:07:46Z</time></trkpt><trkpt lat="42.19312994417164" lon="13.688931460966534"><ele>671.0</ele><time>2026-05-02T11:07:47Z</time></trkpt><trkpt lat="42.193102438013874" lon="13.68883828053291"><ele>671.0</ele><time>2026-05-02T11:07:48Z</time></trkpt><trkpt lat="42.19308062771152" lon="13.68872336767973"><ele>670.1666666666666</ele><time>2026-05-02T11:07:49Z</time></trkpt><trkpt lat="42.193052527512386" lon="13.68860732071392"><ele>669.3333333333333</ele><time>2026-05-02T11:07:50Z</time></trkpt><trkpt lat="42.193033394539405" lon="13.688490800140848"><ele>668.5</ele><time>2026-05-02T11:07:51Z</time></trkpt><trkpt lat="42.19301459426219" lon="13.688382371677129"><ele>667.6666666666666</ele><time>2026-05-02T11:07:52Z</time></trkpt><trkpt lat="42.193007803341516" lon="13.688270765268859"><ele>666.8333333333334</ele><time>2026-05-02T11:07:53Z</time></trkpt><trkpt lat="42.19301648182761" lon="13.688154819093704"><ele>666.0</ele><time>2026-05-02T11:07:54Z</time></trkpt><trkpt lat="42.19303500931927" lon="13.688044442483854"><ele>667.6666666666666</ele><time>2026-05-02T11:07:55Z</time></trkpt><trkpt lat="42.193059429610706" lon="13.687936261409348"><ele>669.3333333333334</ele><time>2026-05-02T11:07:56Z</time></trkpt><trkpt lat="42.19307719198951" lon="13.687839641902434"><ele>671.0</ele><time>2026-05-02T11:07:57Z</time></trkpt><trkpt lat="42.19307065928191" lon="13.687752470284249"><ele>672.6666666666667</ele><time>2026-05-02T11:07:58Z</time></trkpt><trkpt lat="42.193023939515605" lon="13.687595891341482"><ele>674.3333333333334</ele><time>2026-05-02T11:08:00Z</time></trkpt><trkpt lat="42.1929967209601" lon="13.687498767436283"><ele>676.0</ele><time>2026-05-02T11:08:01Z</time></trkpt><trkpt lat="42.19296814334699" lon="13.687408179446718"><ele>676.1666666666667</ele><time>2026-05-02T11:08:02Z</time></trkpt><trkpt lat="42.19294843451382" lon="13.687323533570327"><ele>676.3333333333334</ele><time>2026-05-02T11:08:03Z</time></trkpt><trkpt lat="42.19293512262944" lon="13.687226407940967"><ele>676.5</ele><time>2026-05-02T11:08:04Z</time></trkpt><trkpt lat="42.192933247510865" lon="13.687120173982075"><ele>676.6666666666666</ele><time>2026-05-02T11:08:05Z</time></trkpt><trkpt lat="42.19294410845635" lon="13.687010165220045"><ele>676.8333333333333</ele><time>2026-05-02T11:08:06Z</time></trkpt><trkpt lat="42.19297192220936" lon="13.686896503629368"><ele>677.0</ele><time>2026-05-02T11:08:07Z</time></trkpt><trkpt lat="42.19300092120871" lon="13.686776524504484"><ele>676.6</ele><time>2026-05-02T11:08:08Z</time></trkpt><trkpt lat="42.19303949060956" lon="13.686654926513398"><ele>676.2</ele><time>2026-05-02T11:08:09Z</time></trkpt><trkpt lat="42.19306602793728" lon="13.686531612706773"><ele>675.8</ele><time>2026-05-02T11:08:10Z</time></trkpt><trkpt lat="42.19309842747912" lon="13.686405045109893"><ele>675.4</ele><time>2026-05-02T11:08:11Z</time></trkpt><trkpt lat="42.193129382736956" lon="13.686282990470609"><ele>675.0</ele><time>2026-05-02T11:08:12Z</time></trkpt><trkpt lat="42.19316037784138" lon="13.68615649291518"><ele>675.0</ele><time>2026-05-02T11:08:13Z</time></trkpt><trkpt lat="42.19319301144144" lon="13.686040568034667"><ele>675.0</ele><time>2026-05-02T11:08:14Z</time></trkpt><trkpt lat="42.19321570849109" lon="13.685931974613746"><ele>675.0</ele><time>2026-05-02T11:08:15Z</time></trkpt><trkpt lat="42.19321937192657" lon="13.685830888131989"><ele>675.0</ele><time>2026-05-02T11:08:16Z</time></trkpt><trkpt lat="42.19319771689861" lon="13.685726643144482"><ele>675.0</ele><time>2026-05-02T11:08:17Z</time></trkpt><trkpt lat="42.193171465906424" lon="13.685635484675496"><ele>675.0</ele><time>2026-05-02T11:08:18Z</time></trkpt><trkpt lat="42.19315665947165" lon="13.685537217036593"><ele>674.8333333333334</ele><time>2026-05-02T11:08:19Z</time></trkpt><trkpt lat="42.193152999951536" lon="13.685433681031013"><ele>674.6666666666666</ele><time>2026-05-02T11:08:20Z</time></trkpt><trkpt lat="42.19315309884605" lon="13.685322898465962"><ele>674.5</ele><time>2026-05-02T11:08:21Z</time></trkpt><trkpt lat="42.193164940233366" lon="13.685207357857525"><ele>674.3333333333333</ele><time>2026-05-02T11:08:22Z</time></trkpt><trkpt lat="42.19317890886982" lon="13.685097781775427"><ele>674.1666666666666</ele><time>2026-05-02T11:08:23Z</time></trkpt><trkpt lat="42.19318996366324" lon="13.684984481949169"><ele>674.0</ele><time>2026-05-02T11:08:24Z</time></trkpt><trkpt lat="42.193195332877764" lon="13.684875853040031"><ele>674.0</ele><time>2026-05-02T11:08:25Z</time></trkpt><trkpt lat="42.19318175388969" lon="13.684768764276052"><ele>674.0</ele><time>2026-05-02T11:08:26Z</time></trkpt><trkpt lat="42.1931642536155" lon="13.684664060516926"><ele>674.0</ele><time>2026-05-02T11:08:27Z</time></trkpt><trkpt lat="42.19314290080622" lon="13.684550646393333"><ele>674.0</ele><time>2026-05-02T11:08:28Z</time></trkpt><trkpt lat="42.19312268420811" lon="13.684450302374392"><ele>674.0</ele><time>2026-05-02T11:08:29Z</time></trkpt><trkpt lat="42.19309771995061" lon="13.684349845419387"><ele>674.0</ele><time>2026-05-02T11:08:30Z</time></trkpt><trkpt lat="42.19307235652657" lon="13.684242025687123"><ele>671.8333333333333</ele><time>2026-05-02T11:08:31Z</time></trkpt><trkpt lat="42.19304428055507" lon="13.684133956073557"><ele>669.6666666666666</ele><time>2026-05-02T11:08:32Z</time></trkpt><trkpt lat="42.19302325718618" lon="13.68401473663081"><ele>667.5</ele><time>2026-05-02T11:08:33Z</time></trkpt><trkpt lat="42.19300037744175" lon="13.683908493266207"><ele>665.3333333333334</ele><time>2026-05-02T11:08:34Z</time></trkpt><trkpt lat="42.192979423193826" lon="13.68381448174885"><ele>663.1666666666667</ele><time>2026-05-02T11:08:35Z</time></trkpt><trkpt lat="42.19295204419892" lon="13.683716361069653"><ele>661.0</ele><time>2026-05-02T11:08:36Z</time></trkpt><trkpt lat="42.19292357952833" lon="13.683603396619446"><ele>661.5</ele><time>2026-05-02T11:08:37Z</time></trkpt><trkpt lat="42.19289313134564" lon="13.683495198009872"><ele>662.0</ele><time>2026-05-02T11:08:38Z</time></trkpt><trkpt lat="42.1928699086438" lon="13.68339099598549"><ele>662.5</ele><time>2026-05-02T11:08:39Z</time></trkpt><trkpt lat="42.192851907781076" lon="13.6832675740973"><ele>663.0</ele><time>2026-05-02T11:08:40Z</time></trkpt><trkpt lat="42.192835646895546" lon="13.683140708597158"><ele>663.5</ele><time>2026-05-02T11:08:41Z</time></trkpt><trkpt lat="42.19281789781724" lon="13.68301874096393"><ele>664.0</ele><time>2026-05-02T11:08:42Z</time></trkpt><trkpt lat="42.192804761013065" lon="13.682909922565432"><ele>664.0</ele><time>2026-05-02T11:08:43Z</time></trkpt><trkpt lat="42.192787933585116" lon="13.682808984899864"><ele>664.0</ele><time>2026-05-02T11:08:44Z</time></trkpt><trkpt lat="42.19276912698135" lon="13.682724405662606"><ele>664.0</ele><time>2026-05-02T11:08:45Z</time></trkpt><trkpt lat="42.19274505051372" lon="13.682566617061852"><ele>664.0</ele><time>2026-05-02T11:08:47Z</time></trkpt><trkpt lat="42.19271560672944" lon="13.682422694023638"><ele>664.0</ele><time>2026-05-02T11:08:49Z</time></trkpt><trkpt lat="42.19269406966624" lon="13.682334673559536"><ele>664.0</ele><time>2026-05-02T11:08:51Z</time></trkpt><trkpt lat="42.192678249719584" lon="13.682244797762314"><ele>664.1666666666667</ele><time>2026-05-02T11:08:55Z</time></trkpt><trkpt lat="42.19264449324565" lon="13.682137378448454"><ele>664.3333333333334</ele><time>2026-05-02T11:09:10Z</time></trkpt><trkpt lat="42.19262392569393" lon="13.682054868449308"><ele>664.5</ele><time>2026-05-02T11:09:15Z</time></trkpt><trkpt lat="42.192664351872914" lon="13.681958934282525"><ele>664.6666666666666</ele><time>2026-05-02T11:09:21Z</time></trkpt><trkpt lat="42.192699729869666" lon="13.681851958026773"><ele>664.8333333333333</ele><time>2026-05-02T11:09:23Z</time></trkpt><trkpt lat="42.19272813283987" lon="13.681724136484263"><ele>665.0</ele><time>2026-05-02T11:09:25Z</time></trkpt><trkpt lat="42.192753254188595" lon="13.681603482902819"><ele>665.0</ele><time>2026-05-02T11:09:27Z</time></trkpt><trkpt lat="42.19275372454231" lon="13.68149900782854"><ele>665.0</ele><time>2026-05-02T11:09:29Z</time></trkpt><trkpt lat="42.19273122395829" lon="13.681378386457512"><ele>665.0</ele><time>2026-05-02T11:09:31Z</time></trkpt><trkpt lat="42.19275233326886" lon="13.681253898492624"><ele>665.0</ele><time>2026-05-02T11:09:33Z</time></trkpt><trkpt lat="42.1927646934356" lon="13.681131679363856"><ele>665.0</ele><time>2026-05-02T11:09:35Z</time></trkpt><trkpt lat="42.19282850890815" lon="13.681048907453771"><ele>665.0</ele><time>2026-05-02T11:09:37Z</time></trkpt><trkpt lat="42.19292339494831" lon="13.680963864880873"><ele>662.4</ele><time>2026-05-02T11:09:39Z</time></trkpt><trkpt lat="42.19301414242891" lon="13.680869850517912"><ele>659.8</ele><time>2026-05-02T11:09:41Z</time></trkpt><trkpt lat="42.193075238215116" lon="13.680768332221781"><ele>657.2</ele><time>2026-05-02T11:09:43Z</time></trkpt><trkpt lat="42.193056762251764" lon="13.680628779335478"><ele>654.6</ele><time>2026-05-02T11:09:45Z</time></trkpt><trkpt lat="42.19302550881515" lon="13.680547976339279"><ele>652.0</ele><time>2026-05-02T11:09:46Z</time></trkpt><trkpt lat="42.192997302061706" lon="13.680463157930557"><ele>652.0</ele><time>2026-05-02T11:09:47Z</time></trkpt><trkpt lat="42.19297568081801" lon="13.68036987296048"><ele>652.0</ele><time>2026-05-02T11:09:48Z</time></trkpt><trkpt lat="42.19296378795626" lon="13.680273206420221"><ele>652.0</ele><time>2026-05-02T11:09:49Z</time></trkpt><trkpt lat="42.19295737207608" lon="13.680180773239767"><ele>652.0</ele><time>2026-05-02T11:09:50Z</time></trkpt><trkpt lat="42.19294862979689" lon="13.680052554309844"><ele>652.0</ele><time>2026-05-02T11:09:52Z</time></trkpt><trkpt lat="42.19293355813043" lon="13.679950675971188"><ele>652.0</ele><time>2026-05-02T11:09:54Z</time></trkpt><trkpt lat="42.1929449733111" lon="13.679857505521165"><ele>651.2</ele><time>2026-05-02T11:09:55Z</time></trkpt><trkpt lat="42.19297494082586" lon="13.679750011978253"><ele>650.4000000000001</ele><time>2026-05-02T11:09:56Z</time></trkpt><trkpt lat="42.193007162088534" lon="13.679630218765348"><ele>649.5999999999999</ele><time>2026-05-02T11:09:57Z</time></trkpt><trkpt lat="42.19305287550406" lon="13.679499847291664"><ele>648.8</ele><time>2026-05-02T11:09:58Z</time></trkpt><trkpt lat="42.1931122918898" lon="13.679380622891163"><ele>648.0</ele><time>2026-05-02T11:09:59Z</time></trkpt><trkpt lat="42.19318595136399" lon="13.679254989883447"><ele>648.0</ele><time>2026-05-02T11:10:00Z</time></trkpt><trkpt lat="42.19326967020593" lon="13.679131231479154"><ele>648.0</ele><time>2026-05-02T11:10:01Z</time></trkpt><trkpt lat="42.19335622806306" lon="13.679002404236634"><ele>648.0</ele><time>2026-05-02T11:10:02Z</time></trkpt><trkpt lat="42.19344137222108" lon="13.678865512681575"><ele>648.0</ele><time>2026-05-02T11:10:03Z</time></trkpt><trkpt lat="42.19353473645828" lon="13.678732791208535"><ele>645.75</ele><time>2026-05-02T11:10:04Z</time></trkpt><trkpt lat="42.193627248029216" lon="13.678586995924668"><ele>643.5</ele><time>2026-05-02T11:10:05Z</time></trkpt><trkpt lat="42.19372305294484" lon="13.6784476264235"><ele>641.25</ele><time>2026-05-02T11:10:06Z</time></trkpt><trkpt lat="42.193819975357826" lon="13.67830419375763"><ele>639.0</ele><time>2026-05-02T11:10:07Z</time></trkpt><trkpt lat="42.19391294572583" lon="13.678160396198761"><ele>639.0</ele><time>2026-05-02T11:10:08Z</time></trkpt><trkpt lat="42.19399828103021" lon="13.678024158019007"><ele>639.0</ele><time>2026-05-02T11:10:09Z</time></trkpt><trkpt lat="42.19408436171377" lon="13.677884089296722"><ele>639.0</ele><time>2026-05-02T11:10:10Z</time></trkpt><trkpt lat="42.194177381638056" lon="13.677740498017249"><ele>639.0</ele><time>2026-05-02T11:10:11Z</time></trkpt><trkpt lat="42.19427214673381" lon="13.67759279398873"><ele>640.0</ele><time>2026-05-02T11:10:12Z</time></trkpt><trkpt lat="42.194363956954874" lon="13.677443924657373"><ele>641.0</ele><time>2026-05-02T11:10:13Z</time></trkpt><trkpt lat="42.19446109695769" lon="13.67729361391576"><ele>642.0</ele><time>2026-05-02T11:10:14Z</time></trkpt><trkpt lat="42.19455260116794" lon="13.677138151806298"><ele>643.0</ele><time>2026-05-02T11:10:15Z</time></trkpt><trkpt lat="42.194642278574634" lon="13.676976200706738"><ele>644.25</ele><time>2026-05-02T11:10:16Z</time></trkpt><trkpt lat="42.19472983303023" lon="13.676813319988112"><ele>645.5</ele><time>2026-05-02T11:10:17Z</time></trkpt><trkpt lat="42.19480817506465" lon="13.676641776240412"><ele>646.75</ele><time>2026-05-02T11:10:18Z</time></trkpt><trkpt lat="42.19488453341418" lon="13.676466076826237"><ele>648.0</ele><time>2026-05-02T11:10:19Z</time></trkpt><trkpt lat="42.19495822242551" lon="13.676288565467075"><ele>648.0</ele><time>2026-05-02T11:10:20Z</time></trkpt><trkpt lat="42.19503510093399" lon="13.676107596848516"><ele>648.0</ele><time>2026-05-02T11:10:21Z</time></trkpt><trkpt lat="42.19511697061654" lon="13.675931652796898"><ele>648.0</ele><time>2026-05-02T11:10:22Z</time></trkpt><trkpt lat="42.19519896946387" lon="13.675773817552562"><ele>646.0</ele><time>2026-05-02T11:10:23Z</time></trkpt><trkpt lat="42.19528786535012" lon="13.675640684825463"><ele>644.0</ele><time>2026-05-02T11:10:24Z</time></trkpt><trkpt lat="42.19539286716185" lon="13.675524399971797"><ele>642.0</ele><time>2026-05-02T11:10:25Z</time></trkpt><trkpt lat="42.195509063603495" lon="13.675431034973553"><ele>640.0</ele><time>2026-05-02T11:10:26Z</time></trkpt><trkpt lat="42.195631558631646" lon="13.67533694532002"><ele>639.75</ele><time>2026-05-02T11:10:27Z</time></trkpt><trkpt lat="42.195752128839665" lon="13.675235232233028"><ele>639.5</ele><time>2026-05-02T11:10:28Z</time></trkpt><trkpt lat="42.19587593469766" lon="13.675134315965941"><ele>639.25</ele><time>2026-05-02T11:10:29Z</time></trkpt><trkpt lat="42.195996579590336" lon="13.675029575140497"><ele>639.0</ele><time>2026-05-02T11:10:30Z</time></trkpt><trkpt lat="42.196118744443346" lon="13.674894061803336"><ele>639.0</ele><time>2026-05-02T11:10:31Z</time></trkpt><trkpt lat="42.196235782859816" lon="13.67473571474359"><ele>639.0</ele><time>2026-05-02T11:10:32Z</time></trkpt><trkpt lat="42.196344241717654" lon="13.674569434862995"><ele>639.0</ele><time>2026-05-02T11:10:33Z</time></trkpt><trkpt lat="42.19644779429691" lon="13.67440070442143"><ele>638.0</ele><time>2026-05-02T11:10:34Z</time></trkpt><trkpt lat="42.19654509932435" lon="13.674222886755071"><ele>637.0</ele><time>2026-05-02T11:10:35Z</time></trkpt><trkpt lat="42.19664844357012" lon="13.674044956338369"><ele>636.0</ele><time>2026-05-02T11:10:36Z</time></trkpt><trkpt lat="42.196756506116046" lon="13.673869819676945"><ele>636.0</ele><time>2026-05-02T11:10:37Z</time></trkpt><trkpt lat="42.19686213073037" lon="13.673696194835713"><ele>636.0</ele><time>2026-05-02T11:10:38Z</time></trkpt><trkpt lat="42.19696412458157" lon="13.673524986984168"><ele>636.0</ele><time>2026-05-02T11:10:39Z</time></trkpt><trkpt lat="42.197054052023134" lon="13.673356823034144"><ele>633.75</ele><time>2026-05-02T11:10:40Z</time></trkpt><trkpt lat="42.19712193335847" lon="13.673185932401154"><ele>631.5</ele><time>2026-05-02T11:10:41Z</time></trkpt><trkpt lat="42.19717463821433" lon="13.673014779416121"><ele>629.25</ele><time>2026-05-02T11:10:42Z</time></trkpt><trkpt lat="42.19722180598766" lon="13.67284831532298"><ele>627.0</ele><time>2026-05-02T11:10:43Z</time></trkpt><trkpt lat="42.19726449218875" lon="13.672695854693604"><ele>628.0</ele><time>2026-05-02T11:10:44Z</time></trkpt><trkpt lat="42.19732342415246" lon="13.672554174410607"><ele>629.0</ele><time>2026-05-02T11:10:45Z</time></trkpt><trkpt lat="42.19741661350663" lon="13.672423615335685"><ele>630.0</ele><time>2026-05-02T11:10:46Z</time></trkpt><trkpt lat="42.197530497119665" lon="13.672331386553212"><ele>631.0</ele><time>2026-05-02T11:10:47Z</time></trkpt><trkpt lat="42.19765619581185" lon="13.672273932271398"><ele>631.0</ele><time>2026-05-02T11:10:48Z</time></trkpt><trkpt lat="42.19778371989106" lon="13.672263122375849"><ele>631.0</ele><time>2026-05-02T11:10:49Z</time></trkpt><trkpt lat="42.197901715696595" lon="13.67228210729837"><ele>631.0</ele><time>2026-05-02T11:10:50Z</time></trkpt><trkpt lat="42.198021571549866" lon="13.67234131587046"><ele>631.0</ele><time>2026-05-02T11:10:51Z</time></trkpt><trkpt lat="42.198136186397065" lon="13.672419883767596"><ele>632.5</ele><time>2026-05-02T11:10:52Z</time></trkpt><trkpt lat="42.198249095214436" lon="13.67247213889364"><ele>634.0</ele><time>2026-05-02T11:10:53Z</time></trkpt><trkpt lat="42.198372717490535" lon="13.672489231961222"><ele>635.5</ele><time>2026-05-02T11:10:54Z</time></trkpt><trkpt lat="42.198491889917086" lon="13.672486982265713"><ele>637.0</ele><time>2026-05-02T11:10:55Z</time></trkpt><trkpt lat="42.198605503808906" lon="13.672450729348531"><ele>637.0</ele><time>2026-05-02T11:10:56Z</time></trkpt><trkpt lat="42.19869670814631" lon="13.67237753548223"><ele>637.0</ele><time>2026-05-02T11:10:57Z</time></trkpt><trkpt lat="42.198754749375205" lon="13.672252362735607"><ele>637.0</ele><time>2026-05-02T11:10:58Z</time></trkpt><trkpt lat="42.198759988207776" lon="13.672100151476169"><ele>637.0</ele><time>2026-05-02T11:10:59Z</time></trkpt><trkpt lat="42.19872720237547" lon="13.671944784803234"><ele>637.0</ele><time>2026-05-02T11:11:00Z</time></trkpt><trkpt lat="42.19868552751026" lon="13.671794678837813"><ele>633.0</ele><time>2026-05-02T11:11:01Z</time></trkpt><trkpt lat="42.19870176600986" lon="13.671645842123064"><ele>629.0</ele><time>2026-05-02T11:11:02Z</time></trkpt><trkpt lat="42.198733709952585" lon="13.671489596283154"><ele>625.0</ele><time>2026-05-02T11:11:03Z</time></trkpt><trkpt lat="42.19878711277779" lon="13.671331383453978"><ele>621.0</ele><time>2026-05-02T11:11:04Z</time></trkpt><trkpt lat="42.19887172813251" lon="13.6712063933425"><ele>624.25</ele><time>2026-05-02T11:11:05Z</time></trkpt><trkpt lat="42.19897059779353" lon="13.671106305894636"><ele>627.5</ele><time>2026-05-02T11:11:06Z</time></trkpt><trkpt lat="42.19907639476895" lon="13.67099998113459"><ele>630.75</ele><time>2026-05-02T11:11:07Z</time></trkpt><trkpt lat="42.199174112449064" lon="13.670873217033765"><ele>634.0</ele><time>2026-05-02T11:11:08Z</time></trkpt><trkpt lat="42.19924131126948" lon="13.670707805266293"><ele>634.0</ele><time>2026-05-02T11:11:09Z</time></trkpt><trkpt lat="42.199304984230494" lon="13.670546578087142"><ele>634.0</ele><time>2026-05-02T11:11:10Z</time></trkpt><trkpt lat="42.19935947179026" lon="13.670375174275845"><ele>634.0</ele><time>2026-05-02T11:11:11Z</time></trkpt><trkpt lat="42.19942084464454" lon="13.670206372002179"><ele>634.0</ele><time>2026-05-02T11:11:12Z</time></trkpt><trkpt lat="42.19950110327114" lon="13.670062052216629"><ele>630.5</ele><time>2026-05-02T11:11:13Z</time></trkpt><trkpt lat="42.19959682636724" lon="13.669924464564701"><ele>627.0</ele><time>2026-05-02T11:11:14Z</time></trkpt><trkpt lat="42.199691357451066" lon="13.669781312822831"><ele>623.5</ele><time>2026-05-02T11:11:15Z</time></trkpt><trkpt lat="42.19980020172731" lon="13.669653164237074"><ele>620.0</ele><time>2026-05-02T11:11:16Z</time></trkpt><trkpt lat="42.19990453555642" lon="13.669520106169275"><ele>622.5</ele><time>2026-05-02T11:11:17Z</time></trkpt><trkpt lat="42.20001291015306" lon="13.669398281906336"><ele>625.0</ele><time>2026-05-02T11:11:18Z</time></trkpt><trkpt lat="42.20012619039148" lon="13.669304734065983"><ele>627.5</ele><time>2026-05-02T11:11:19Z</time></trkpt><trkpt lat="42.20020632353265" lon="13.669168050179328"><ele>630.0</ele><time>2026-05-02T11:11:20Z</time></trkpt><trkpt lat="42.20028021196889" lon="13.669029529389503"><ele>630.0</ele><time>2026-05-02T11:11:21Z</time></trkpt><trkpt lat="42.20033695341732" lon="13.668877470856604"><ele>630.0</ele><time>2026-05-02T11:11:22Z</time></trkpt><trkpt lat="42.20039107688308" lon="13.668730791376962"><ele>630.0</ele><time>2026-05-02T11:11:23Z</time></trkpt><trkpt lat="42.200428056781334" lon="13.668622537290952"><ele>630.0</ele><time>2026-05-02T11:11:24Z</time></trkpt><trkpt lat="42.20046839370927" lon="13.66848691112522"><ele>630.0</ele><time>2026-05-02T11:11:26Z</time></trkpt><trkpt lat="42.20032439748429" lon="13.668476352236798"><ele>630.0</ele><time>2026-05-02T11:11:30Z</time></trkpt><trkpt lat="42.200232000626826" lon="13.668514450639563"><ele>630.0</ele><time>2026-05-02T11:11:31Z</time></trkpt><trkpt lat="42.200151768874406" lon="13.668578015172844"><ele>630.0</ele><time>2026-05-02T11:11:32Z</time></trkpt><trkpt lat="42.200061326699824" lon="13.66864975047922"><ele>630.0</ele><time>2026-05-02T11:11:33Z</time></trkpt><trkpt lat="42.199983563917165" lon="13.668764633136044"><ele>630.0</ele><time>2026-05-02T11:11:34Z</time></trkpt><trkpt lat="42.19990308112281" lon="13.668861606126377"><ele>625.2</ele><time>2026-05-02T11:11:35Z</time></trkpt><trkpt lat="42.19982714626824" lon="13.668969917900235"><ele>620.4</ele><time>2026-05-02T11:11:36Z</time></trkpt><trkpt lat="42.19975922241623" lon="13.66907543011081"><ele>615.6</ele><time>2026-05-02T11:11:37Z</time></trkpt><trkpt lat="42.19967915611864" lon="13.66915712495302"><ele>610.8</ele><time>2026-05-02T11:11:38Z</time></trkpt><trkpt lat="42.19962796403592" lon="13.669262648755625"><ele>606.0</ele><time>2026-05-02T11:11:39Z</time></trkpt><trkpt lat="42.199561190767255" lon="13.669342266855285"><ele>606.0</ele><time>2026-05-02T11:11:40Z</time></trkpt><trkpt lat="42.19952195082934" lon="13.66942067357732"><ele>606.0</ele><time>2026-05-02T11:11:41Z</time></trkpt><trkpt lat="42.199458470719975" lon="13.669528932086086"><ele>606.0</ele><time>2026-05-02T11:11:43Z</time></trkpt><trkpt lat="42.199370303314765" lon="13.669504694600079"><ele>606.0</ele><time>2026-05-02T11:11:45Z</time></trkpt><trkpt lat="42.19940648141596" lon="13.669276518843448"><ele>606.0</ele><time>2026-05-02T11:11:47Z</time></trkpt><trkpt lat="42.19942000391995" lon="13.669144699569689"><ele>606.0</ele><time>2026-05-02T11:11:48Z</time></trkpt><trkpt lat="42.1994180634062" lon="13.668998341934945"><ele>606.0</ele><time>2026-05-02T11:11:49Z</time></trkpt><trkpt lat="42.199436629339054" lon="13.66885417844502"><ele>606.0</ele><time>2026-05-02T11:11:50Z</time></trkpt><trkpt lat="42.19943743693593" lon="13.66870154190342"><ele>606.0</ele><time>2026-05-02T11:11:51Z</time></trkpt><trkpt lat="42.19941961290998" lon="13.66855341927734"><ele>606.0</ele><time>2026-05-02T11:11:52Z</time></trkpt><trkpt lat="42.199388186475566" lon="13.668407050295981"><ele>605.0</ele><time>2026-05-02T11:11:53Z</time></trkpt><trkpt lat="42.199360894512076" lon="13.668256983025703"><ele>604.0</ele><time>2026-05-02T11:11:54Z</time></trkpt><trkpt lat="42.199303580955196" lon="13.668110175511345"><ele>603.0</ele><time>2026-05-02T11:11:55Z</time></trkpt><trkpt lat="42.19926118443458" lon="13.667951052021555"><ele>602.0</ele><time>2026-05-02T11:11:56Z</time></trkpt><trkpt lat="42.199243702198466" lon="13.667802364989335"><ele>603.2</ele><time>2026-05-02T11:11:57Z</time></trkpt><trkpt lat="42.199219568994536" lon="13.667663126358766"><ele>604.4000000000001</ele><time>2026-05-02T11:11:58Z</time></trkpt><trkpt lat="42.1991978038323" lon="13.66753686797843"><ele>605.5999999999999</ele><time>2026-05-02T11:11:59Z</time></trkpt><trkpt lat="42.19916499692172" lon="13.667445252640968"><ele>606.8</ele><time>2026-05-02T11:12:00Z</time></trkpt><trkpt lat="42.19913893617485" lon="13.667320617015134"><ele>608.0</ele><time>2026-05-02T11:12:10Z</time></trkpt><trkpt lat="42.19910988194642" lon="13.667205121319896"><ele>608.0</ele><time>2026-05-02T11:12:12Z</time></trkpt><trkpt lat="42.19924494625334" lon="13.667068277886285"><ele>608.0</ele><time>2026-05-02T11:12:13Z</time></trkpt><trkpt lat="42.199267808467155" lon="13.66690255757712"><ele>608.0</ele><time>2026-05-02T11:12:15Z</time></trkpt><trkpt lat="42.19926185519291" lon="13.666800837158304"><ele>608.0</ele><time>2026-05-02T11:12:16Z</time></trkpt><trkpt lat="42.19924603816764" lon="13.66663235111823"><ele>608.1999999999999</ele><time>2026-05-02T11:12:18Z</time></trkpt><trkpt lat="42.199219041910006" lon="13.666491898215352"><ele>608.4</ele><time>2026-05-02T11:12:20Z</time></trkpt><trkpt lat="42.199215902217965" lon="13.666330533938842"><ele>608.5999999999999</ele><time>2026-05-02T11:12:22Z</time></trkpt><trkpt lat="42.19922162119147" lon="13.666239347229594"><ele>608.8</ele><time>2026-05-02T11:12:23Z</time></trkpt><trkpt lat="42.19923604971639" lon="13.666129284165706"><ele>609.0</ele><time>2026-05-02T11:12:24Z</time></trkpt><trkpt lat="42.1992502980371" lon="13.66602761535314"><ele>608.3333333333334</ele><time>2026-05-02T11:12:25Z</time></trkpt><trkpt lat="42.19928188165238" lon="13.665930326878444"><ele>607.6666666666666</ele><time>2026-05-02T11:12:26Z</time></trkpt><trkpt lat="42.199316978736086" lon="13.66585176033637"><ele>607.0</ele><time>2026-05-02T11:12:27Z</time></trkpt><trkpt lat="42.19936721213721" lon="13.665776857914295"><ele>606.3333333333333</ele><time>2026-05-02T11:12:28Z</time></trkpt><trkpt lat="42.199417160903366" lon="13.66569120772265"><ele>605.6666666666666</ele><time>2026-05-02T11:12:29Z</time></trkpt><trkpt lat="42.199471732624914" lon="13.665613667671058"><ele>605.0</ele><time>2026-05-02T11:12:30Z</time></trkpt><trkpt lat="42.19951674122106" lon="13.665537171602763"><ele>605.0</ele><time>2026-05-02T11:12:31Z</time></trkpt><trkpt lat="42.199562729582226" lon="13.665443751295264"><ele>605.0</ele><time>2026-05-02T11:12:32Z</time></trkpt><trkpt lat="42.19959742206686" lon="13.665354411712645"><ele>605.0</ele><time>2026-05-02T11:12:33Z</time></trkpt><trkpt lat="42.1996452334439" lon="13.665273436010725"><ele>605.0</ele><time>2026-05-02T11:12:34Z</time></trkpt><trkpt lat="42.199701432704465" lon="13.665212763307352"><ele>605.0</ele><time>2026-05-02T11:12:35Z</time></trkpt><trkpt lat="42.19976804405456" lon="13.665145530543684"><ele>605.0</ele><time>2026-05-02T11:12:36Z</time></trkpt><trkpt lat="42.199830684928145" lon="13.665076391019316"><ele>605.0</ele><time>2026-05-02T11:12:37Z</time></trkpt><trkpt lat="42.19989313389992" lon="13.665018924289042"><ele>605.0</ele><time>2026-05-02T11:12:38Z</time></trkpt><trkpt lat="42.19995353695939" lon="13.66498238504466"><ele>605.0</ele><time>2026-05-02T11:12:39Z</time></trkpt><trkpt lat="42.200048422720926" lon="13.6649022603785"><ele>605.0</ele><time>2026-05-02T11:12:41Z</time></trkpt><trkpt lat="42.20013465305116" lon="13.664840491194429"><ele>605.0</ele><time>2026-05-02T11:12:43Z</time></trkpt><trkpt lat="42.200223196134" lon="13.664803660237267"><ele>605.0</ele><time>2026-05-02T11:12:45Z</time></trkpt><trkpt lat="42.200313103625355" lon="13.664776472825494"><ele>605.0</ele><time>2026-05-02T11:12:47Z</time></trkpt><trkpt lat="42.20039633667976" lon="13.6647397104833"><ele>605.0</ele><time>2026-05-02T11:12:49Z</time></trkpt><trkpt lat="42.200478075396035" lon="13.664693993971687"><ele>605.0</ele><time>2026-05-02T11:12:51Z</time></trkpt><trkpt lat="42.20055284872487" lon="13.664644725258189"><ele>605.0</ele><time>2026-05-02T11:12:53Z</time></trkpt><trkpt lat="42.20061595474735" lon="13.66459827530099"><ele>605.0</ele><time>2026-05-02T11:12:55Z</time></trkpt><trkpt lat="42.20069558330414" lon="13.664553643589448"><ele>605.0</ele><time>2026-05-02T11:12:57Z</time></trkpt><trkpt lat="42.20077104467357" lon="13.664513281767073"><ele>604.0</ele><time>2026-05-02T11:12:59Z</time></trkpt><trkpt lat="42.20083688428726" lon="13.664455464081588"><ele>603.0</ele><time>2026-05-02T11:13:01Z</time></trkpt><trkpt lat="42.2008950135758" lon="13.664369428045163"><ele>602.0</ele><time>2026-05-02T11:13:03Z</time></trkpt><trkpt lat="42.200961592353956" lon="13.664303618020398"><ele>601.0</ele><time>2026-05-02T11:13:05Z</time></trkpt><trkpt lat="42.201042096183805" lon="13.66419632913127"><ele>600.0</ele><time>2026-05-02T11:13:07Z</time></trkpt><trkpt lat="42.20113727937863" lon="13.664111991980656"><ele>597.5</ele><time>2026-05-02T11:13:09Z</time></trkpt><trkpt lat="42.20123864954748" lon="13.664067234620779"><ele>595.0</ele><time>2026-05-02T11:13:11Z</time></trkpt><trkpt lat="42.201301459796674" lon="13.664050314694373"><ele>592.5</ele><time>2026-05-02T11:13:12Z</time></trkpt><trkpt lat="42.20136346767003" lon="13.664026667208779"><ele>590.0</ele><time>2026-05-02T11:13:13Z</time></trkpt><trkpt lat="42.201471099758145" lon="13.663999892694479"><ele>587.5</ele><time>2026-05-02T11:13:15Z</time></trkpt><trkpt lat="42.20153567204954" lon="13.66397786284514"><ele>585.0</ele><time>2026-05-02T11:13:16Z</time></trkpt><trkpt lat="42.20160145140316" lon="13.66395670771184"><ele>584.2</ele><time>2026-05-02T11:13:17Z</time></trkpt><trkpt lat="42.201673424818836" lon="13.663933476965404"><ele>583.4</ele><time>2026-05-02T11:13:18Z</time></trkpt><trkpt lat="42.201746416622356" lon="13.66389989207404"><ele>582.6</ele><time>2026-05-02T11:13:19Z</time></trkpt><trkpt lat="42.201836805907845" lon="13.663845449729589"><ele>581.8</ele><time>2026-05-02T11:13:21Z</time></trkpt><trkpt lat="42.2018886366123" lon="13.663746890908454"><ele>581.0</ele><time>2026-05-02T11:13:23Z</time></trkpt><trkpt lat="42.20194603770415" lon="13.663609606166226"><ele>578.6</ele><time>2026-05-02T11:13:25Z</time></trkpt><trkpt lat="42.2020004199257" lon="13.663486774301179"><ele>576.2</ele><time>2026-05-02T11:13:27Z</time></trkpt><trkpt lat="42.20204930027656" lon="13.663374039318635"><ele>573.8</ele><time>2026-05-02T11:13:29Z</time></trkpt><trkpt lat="42.202107890993034" lon="13.663243768358797"><ele>571.4</ele><time>2026-05-02T11:13:31Z</time></trkpt><trkpt lat="42.20216940556783" lon="13.6630935960566"><ele>569.0</ele><time>2026-05-02T11:13:33Z</time></trkpt><trkpt lat="42.202210076680394" lon="13.663004783645729"><ele>569.0</ele><time>2026-05-02T11:13:34Z</time></trkpt><trkpt lat="42.202245655810984" lon="13.662911609196685"><ele>569.0</ele><time>2026-05-02T11:13:35Z</time></trkpt><trkpt lat="42.20227912795144" lon="13.662816973290823"><ele>569.0</ele><time>2026-05-02T11:13:36Z</time></trkpt><trkpt lat="42.20230529310396" lon="13.662712291108365"><ele>569.0</ele><time>2026-05-02T11:13:37Z</time></trkpt><trkpt lat="42.20233042290697" lon="13.662595351528365"><ele>569.0</ele><time>2026-05-02T11:13:38Z</time></trkpt><trkpt lat="42.20235781161291" lon="13.662488819044682"><ele>569.0</ele><time>2026-05-02T11:13:39Z</time></trkpt><trkpt lat="42.20239045530826" lon="13.662386024160877"><ele>569.0</ele><time>2026-05-02T11:13:40Z</time></trkpt><trkpt lat="42.202427675138004" lon="13.662271512684987"><ele>569.0</ele><time>2026-05-02T11:13:41Z</time></trkpt><trkpt lat="42.20246324532565" lon="13.662159182458021"><ele>569.0</ele><time>2026-05-02T11:13:42Z</time></trkpt><trkpt lat="42.202499904364444" lon="13.662040541787508"><ele>569.0</ele><time>2026-05-02T11:13:43Z</time></trkpt><trkpt lat="42.202525548758906" lon="13.661933630253372"><ele>569.0</ele><time>2026-05-02T11:13:44Z</time></trkpt><trkpt lat="42.20254525523683" lon="13.66183296639334"><ele>569.0</ele><time>2026-05-02T11:13:45Z</time></trkpt><trkpt lat="42.20256803696651" lon="13.661717341159056"><ele>568.3333333333333</ele><time>2026-05-02T11:13:46Z</time></trkpt><trkpt lat="42.20259808822745" lon="13.661587955960465"><ele>567.6666666666666</ele><time>2026-05-02T11:13:47Z</time></trkpt><trkpt lat="42.20263408978442" lon="13.661477491983675"><ele>567.0</ele><time>2026-05-02T11:13:48Z</time></trkpt><trkpt lat="42.20267101076174" lon="13.661394939372059"><ele>566.3333333333334</ele><time>2026-05-02T11:13:49Z</time></trkpt><trkpt lat="42.20271228890959" lon="13.661313288618539"><ele>565.6666666666667</ele><time>2026-05-02T11:13:50Z</time></trkpt><trkpt lat="42.202751318085994" lon="13.661211708870507"><ele>565.0</ele><time>2026-05-02T11:13:51Z</time></trkpt><trkpt lat="42.2027853687864" lon="13.661111205858427"><ele>564.3333333333334</ele><time>2026-05-02T11:13:52Z</time></trkpt><trkpt lat="42.202813974175804" lon="13.661018518568506"><ele>563.6666666666667</ele><time>2026-05-02T11:13:53Z</time></trkpt><trkpt lat="42.20283547952578" lon="13.66092251343451"><ele>563.0</ele><time>2026-05-02T11:13:54Z</time></trkpt><trkpt lat="42.20285816257239" lon="13.660821329333787"><ele>562.3333333333334</ele><time>2026-05-02T11:13:55Z</time></trkpt><trkpt lat="42.20287872696931" lon="13.660719588041282"><ele>561.6666666666666</ele><time>2026-05-02T11:13:56Z</time></trkpt><trkpt lat="42.20289870315631" lon="13.660624710374833"><ele>561.0</ele><time>2026-05-02T11:13:57Z</time></trkpt><trkpt lat="42.20291810179394" lon="13.660525202379999"><ele>561.0</ele><time>2026-05-02T11:13:58Z</time></trkpt><trkpt lat="42.2029326067862" lon="13.66042150334704"><ele>561.0</ele><time>2026-05-02T11:13:59Z</time></trkpt><trkpt lat="42.202945458710154" lon="13.660320034042552"><ele>561.0</ele><time>2026-05-02T11:14:00Z</time></trkpt><trkpt lat="42.20295789065815" lon="13.660232162168517"><ele>561.0</ele><time>2026-05-02T11:14:01Z</time></trkpt><trkpt lat="42.20298063803807" lon="13.660138067810097"><ele>561.0</ele><time>2026-05-02T11:14:02Z</time></trkpt><trkpt lat="42.20300920192226" lon="13.660042137446325"><ele>561.0</ele><time>2026-05-02T11:14:03Z</time></trkpt><trkpt lat="42.20304169394586" lon="13.659947626709403"><ele>561.0</ele><time>2026-05-02T11:14:04Z</time></trkpt><trkpt lat="42.20307051384196" lon="13.659869058797057"><ele>560.2857142857142</ele><time>2026-05-02T11:14:05Z</time></trkpt><trkpt lat="42.203101554515996" lon="13.659782119415276"><ele>559.5714285714286</ele><time>2026-05-02T11:14:06Z</time></trkpt><trkpt lat="42.203133169651245" lon="13.659699117671597"><ele>558.8571428571429</ele><time>2026-05-02T11:14:07Z</time></trkpt><trkpt lat="42.203161059277065" lon="13.659622590832376"><ele>558.1428571428571</ele><time>2026-05-02T11:14:08Z</time></trkpt><trkpt lat="42.20318050665908" lon="13.659539934533539"><ele>557.4285714285714</ele><time>2026-05-02T11:14:09Z</time></trkpt><trkpt lat="42.20320415086103" lon="13.659455126224708"><ele>556.7142857142857</ele><time>2026-05-02T11:14:10Z</time></trkpt><trkpt lat="42.203232798768305" lon="13.6593624737895"><ele>556.0</ele><time>2026-05-02T11:14:11Z</time></trkpt><trkpt lat="42.2032580931698" lon="13.659280827421302"><ele>553.6</ele><time>2026-05-02T11:14:12Z</time></trkpt><trkpt lat="42.203321384766554" lon="13.659148055786265"><ele>551.2</ele><time>2026-05-02T11:14:14Z</time></trkpt><trkpt lat="42.20337905347003" lon="13.659041041680164"><ele>548.8</ele><time>2026-05-02T11:14:16Z</time></trkpt><trkpt lat="42.20342899807657" lon="13.658928188574079"><ele>546.4</ele><time>2026-05-02T11:14:18Z</time></trkpt><trkpt lat="42.20347042361055" lon="13.658829227643231"><ele>544.0</ele><time>2026-05-02T11:14:20Z</time></trkpt><trkpt lat="42.20351077826592" lon="13.658731686301117"><ele>544.0</ele><time>2026-05-02T11:14:22Z</time></trkpt><trkpt lat="42.20352797034061" lon="13.658638160997963"><ele>544.0</ele><time>2026-05-02T11:14:25Z</time></trkpt><trkpt lat="42.20347113721573" lon="13.658523587016884"><ele>544.0</ele><time>2026-05-02T11:14:28Z</time></trkpt><trkpt lat="42.203386316797165" lon="13.658506316781983"><ele>544.0</ele><time>2026-05-02T11:14:29Z</time></trkpt><trkpt lat="42.20329114549777" lon="13.658482126944712"><ele>544.0</ele><time>2026-05-02T11:14:30Z</time></trkpt><trkpt lat="42.20319044799288" lon="13.658442163630731"><ele>540.75</ele><time>2026-05-02T11:14:31Z</time></trkpt><trkpt lat="42.203067175292134" lon="13.658395618865727"><ele>537.5</ele><time>2026-05-02T11:14:32Z</time></trkpt><trkpt lat="42.20293390163996" lon="13.658332180017648"><ele>534.25</ele><time>2026-05-02T11:14:33Z</time></trkpt><trkpt lat="42.202804443357365" lon="13.658251707536197"><ele>531.0</ele><time>2026-05-02T11:14:34Z</time></trkpt><trkpt lat="42.20266936078805" lon="13.658186969627884"><ele>531.0</ele><time>2026-05-02T11:14:35Z</time></trkpt><trkpt lat="42.202534074448785" lon="13.658129278940644"><ele>531.0</ele><time>2026-05-02T11:14:36Z</time></trkpt><trkpt lat="42.20246002972986" lon="13.657889215613455"><ele>531.0</ele><time>2026-05-02T11:14:37Z</time></trkpt><trkpt lat="42.20234641103258" lon="13.657767295211352"><ele>527.5</ele><time>2026-05-02T11:14:38Z</time></trkpt><trkpt lat="42.20223601592954" lon="13.657655074256512"><ele>524.0</ele><time>2026-05-02T11:14:39Z</time></trkpt><trkpt lat="42.20213179888447" lon="13.657551579726217"><ele>520.5</ele><time>2026-05-02T11:14:40Z</time></trkpt><trkpt lat="42.20201152700065" lon="13.657476186806967"><ele>517.0</ele><time>2026-05-02T11:14:41Z</time></trkpt><trkpt lat="42.201873977696614" lon="13.65743715601803"><ele>517.0</ele><time>2026-05-02T11:14:42Z</time></trkpt><trkpt lat="42.20172586199455" lon="13.657437468469478"><ele>517.0</ele><time>2026-05-02T11:14:43Z</time></trkpt><trkpt lat="42.201559958221715" lon="13.657476344231565"><ele>517.0</ele><time>2026-05-02T11:14:44Z</time></trkpt><trkpt lat="42.201392846235805" lon="13.657521705935164"><ele>517.75</ele><time>2026-05-02T11:14:45Z</time></trkpt><trkpt lat="42.20124105774425" lon="13.657564166306214"><ele>518.5</ele><time>2026-05-02T11:14:46Z</time></trkpt><trkpt lat="42.2011080139212" lon="13.65761504673585"><ele>519.25</ele><time>2026-05-02T11:14:47Z</time></trkpt><trkpt lat="42.20098761857607" lon="13.657715861419714"><ele>520.0</ele><time>2026-05-02T11:14:48Z</time></trkpt><trkpt lat="42.20088578617618" lon="13.657857730079911"><ele>520.0</ele><time>2026-05-02T11:14:49Z</time></trkpt><trkpt lat="42.20079404973168" lon="13.658014933887952"><ele>520.0</ele><time>2026-05-02T11:14:50Z</time></trkpt><trkpt lat="42.20069186326744" lon="13.658146197089067"><ele>520.0</ele><time>2026-05-02T11:14:51Z</time></trkpt><trkpt lat="42.20056673217551" lon="13.658220669023702"><ele>520.0</ele><time>2026-05-02T11:14:52Z</time></trkpt><trkpt lat="42.2004297249175" lon="13.658263987378444"><ele>516.0</ele><time>2026-05-02T11:14:53Z</time></trkpt><trkpt lat="42.20027858698872" lon="13.658297888773372"><ele>512.0</ele><time>2026-05-02T11:14:54Z</time></trkpt><trkpt lat="42.200123605526144" lon="13.658336816494671"><ele>508.0</ele><time>2026-05-02T11:14:55Z</time></trkpt><trkpt lat="42.19997688846574" lon="13.658362963218218"><ele>508.0</ele><time>2026-05-02T11:14:56Z</time></trkpt><trkpt lat="42.19983530549192" lon="13.658392445752249"><ele>508.0</ele><time>2026-05-02T11:14:57Z</time></trkpt><trkpt lat="42.19969885841071" lon="13.658429665747812"><ele>508.0</ele><time>2026-05-02T11:14:58Z</time></trkpt><trkpt lat="42.199565607470795" lon="13.658495216586227"><ele>508.0</ele><time>2026-05-02T11:14:59Z</time></trkpt><trkpt lat="42.1994382519468" lon="13.658597555204409"><ele>508.0</ele><time>2026-05-02T11:15:00Z</time></trkpt><trkpt lat="42.19931897635393" lon="13.658727444074254"><ele>508.0</ele><time>2026-05-02T11:15:01Z</time></trkpt><trkpt lat="42.19919923882872" lon="13.658861627834877"><ele>508.0</ele><time>2026-05-02T11:15:02Z</time></trkpt><trkpt lat="42.19908417841592" lon="13.658997085587842"><ele>505.25</ele><time>2026-05-02T11:15:03Z</time></trkpt><trkpt lat="42.19897255025893" lon="13.659130779961442"><ele>502.5</ele><time>2026-05-02T11:15:04Z</time></trkpt><trkpt lat="42.19886375616254" lon="13.65924240737391"><ele>499.75</ele><time>2026-05-02T11:15:05Z</time></trkpt><trkpt lat="42.198753647022244" lon="13.65932280777815"><ele>497.0</ele><time>2026-05-02T11:15:06Z</time></trkpt><trkpt lat="42.19863146517449" lon="13.659308396202855"><ele>497.0</ele><time>2026-05-02T11:15:07Z</time></trkpt><trkpt lat="42.19852519366479" lon="13.659278945595926"><ele>497.00000000000006</ele><time>2026-05-02T11:15:08Z</time></trkpt><trkpt lat="42.198409168570535" lon="13.659252209761718"><ele>497.00000000000006</ele><time>2026-05-02T11:15:09Z</time></trkpt><trkpt lat="42.19829927307504" lon="13.659242361359432"><ele>497.0</ele><time>2026-05-02T11:15:10Z</time></trkpt><trkpt lat="42.19820102123294" lon="13.659191217358398"><ele>497.0</ele><time>2026-05-02T11:15:11Z</time></trkpt><trkpt lat="42.19812888372016" lon="13.659227393197297"><ele>496.5</ele><time>2026-05-02T11:15:12Z</time></trkpt><trkpt lat="42.1981297677623" lon="13.65896641859966"><ele>496.0</ele><time>2026-05-02T11:15:13Z</time></trkpt><trkpt lat="42.198084874592126" lon="13.65884105211047"><ele>495.5</ele><time>2026-05-02T11:15:14Z</time></trkpt><trkpt lat="42.198041659184064" lon="13.658691966919317"><ele>495.0</ele><time>2026-05-02T11:15:15Z</time></trkpt><trkpt lat="42.19797631616904" lon="13.658550821277858"><ele>494.25</ele><time>2026-05-02T11:15:16Z</time></trkpt><trkpt lat="42.197906386378534" lon="13.658397406588916"><ele>493.5</ele><time>2026-05-02T11:15:17Z</time></trkpt><trkpt lat="42.19783164779811" lon="13.658243399881941"><ele>492.75</ele><time>2026-05-02T11:15:18Z</time></trkpt><trkpt lat="42.19774301748256" lon="13.65808563688276"><ele>492.0</ele><time>2026-05-02T11:15:19Z</time></trkpt><trkpt lat="42.19764037306437" lon="13.657950764888154"><ele>492.0</ele><time>2026-05-02T11:15:20Z</time></trkpt><trkpt lat="42.19754142474264" lon="13.657792956177941"><ele>492.0</ele><time>2026-05-02T11:15:21Z</time></trkpt><trkpt lat="42.197437513329476" lon="13.657637523201773"><ele>492.0</ele><time>2026-05-02T11:15:22Z</time></trkpt><trkpt lat="42.19733470197054" lon="13.657468956748726"><ele>492.66666666666663</ele><time>2026-05-02T11:15:23Z</time></trkpt><trkpt lat="42.19723055264257" lon="13.657308922199784"><ele>493.3333333333333</ele><time>2026-05-02T11:15:24Z</time></trkpt><trkpt lat="42.197126121633104" lon="13.657150458581796"><ele>494.0</ele><time>2026-05-02T11:15:25Z</time></trkpt><trkpt lat="42.19702211469413" lon="13.656987988212844"><ele>493.66666666666663</ele><time>2026-05-02T11:15:26Z</time></trkpt><trkpt lat="42.19691518181734" lon="13.656825733692868"><ele>493.33333333333337</ele><time>2026-05-02T11:15:27Z</time></trkpt><trkpt lat="42.196807771093" lon="13.656661737315606"><ele>493.0</ele><time>2026-05-02T11:15:28Z</time></trkpt><trkpt lat="42.196713509500846" lon="13.656483265939123"><ele>493.0</ele><time>2026-05-02T11:15:29Z</time></trkpt><trkpt lat="42.19660212896996" lon="13.65633217908621"><ele>493.0</ele><time>2026-05-02T11:15:30Z</time></trkpt><trkpt lat="42.1965061188709" lon="13.65617654032134"><ele>493.0</ele><time>2026-05-02T11:15:31Z</time></trkpt><trkpt lat="42.19640298069674" lon="13.65601878146366"><ele>495.6666666666667</ele><time>2026-05-02T11:15:32.001Z</time></trkpt><trkpt lat="42.19630204998745" lon="13.65586540465193"><ele>498.33333333333337</ele><time>2026-05-02T11:15:33.001Z</time></trkpt><trkpt lat="42.19619707242089" lon="13.655702193578653"><ele>501.0</ele><time>2026-05-02T11:15:34.001Z</time></trkpt><trkpt lat="42.19609170983433" lon="13.65553974116518"><ele>501.0</ele><time>2026-05-02T11:15:35.001Z</time></trkpt><trkpt lat="42.19597962975937" lon="13.65537008923924"><ele>501.0</ele><time>2026-05-02T11:15:36.001Z</time></trkpt><trkpt lat="42.195879048316634" lon="13.655183721536885"><ele>501.0</ele><time>2026-05-02T11:15:37.001Z</time></trkpt><trkpt lat="42.1957759119928" lon="13.655015597004098"><ele>502.33333333333337</ele><time>2026-05-02T11:15:38.001Z</time></trkpt><trkpt lat="42.19570282558334" lon="13.654809165409002"><ele>503.6666666666667</ele><time>2026-05-02T11:15:39.001Z</time></trkpt><trkpt lat="42.19561672188073" lon="13.654510088703818"><ele>505.0</ele><time>2026-05-02T11:15:40.001Z</time></trkpt><trkpt lat="42.1956166433441" lon="13.65414720683209"><ele>513.0</ele><time>2026-05-02T11:15:41.001Z</time></trkpt><trkpt lat="42.19565029623348" lon="13.653890358254495"><ele>521.0</ele><time>2026-05-02T11:15:42.001Z</time></trkpt><trkpt lat="42.195611474333724" lon="13.65404892878943"><ele>529.0</ele><time>2026-05-02T11:15:43.001Z</time></trkpt><trkpt lat="42.195641740019774" lon="13.653841677771304"><ele>526.3333333333334</ele><time>2026-05-02T11:15:44.001Z</time></trkpt><trkpt lat="42.195679441949885" lon="13.653624641346207"><ele>523.6666666666666</ele><time>2026-05-02T11:15:45.001Z</time></trkpt><trkpt lat="42.19571682274977" lon="13.65340834856278"><ele>521.0</ele><time>2026-05-02T11:15:46.001Z</time></trkpt><trkpt lat="42.19574273141946" lon="13.65319227165787"><ele>521.0</ele><time>2026-05-02T11:15:47.001Z</time></trkpt><trkpt lat="42.195774762744385" lon="13.652971552158967"><ele>521.0</ele><time>2026-05-02T11:15:48.001Z</time></trkpt><trkpt lat="42.195826248954596" lon="13.652753183147906"><ele>521.0</ele><time>2026-05-02T11:15:49.001Z</time></trkpt><trkpt lat="42.19585417370343" lon="13.652517668447578"><ele>522.6666666666666</ele><time>2026-05-02T11:15:50.001Z</time></trkpt><trkpt lat="42.195890304120816" lon="13.65228399533082"><ele>524.3333333333334</ele><time>2026-05-02T11:15:51.001Z</time></trkpt><trkpt lat="42.19594450905411" lon="13.652052298769622"><ele>526.0</ele><time>2026-05-02T11:15:52.001Z</time></trkpt><trkpt lat="42.19596661653818" lon="13.651813110504806"><ele>527.6666666666667</ele><time>2026-05-02T11:15:53.001Z</time></trkpt><trkpt lat="42.19600467015057" lon="13.651579036946"><ele>529.3333333333334</ele><time>2026-05-02T11:15:54.001Z</time></trkpt><trkpt lat="42.19604674759955" lon="13.651342563461395"><ele>531.0</ele><time>2026-05-02T11:15:55.001Z</time></trkpt><trkpt lat="42.19608933473848" lon="13.651108224501387"><ele>532.3333333333334</ele><time>2026-05-02T11:15:56.001Z</time></trkpt><trkpt lat="42.196128072258674" lon="13.650870841307256"><ele>533.6666666666667</ele><time>2026-05-02T11:15:57.001Z</time></trkpt><trkpt lat="42.196169037866326" lon="13.650633334378153"><ele>535.0</ele><time>2026-05-02T11:15:58.001Z</time></trkpt><trkpt lat="42.196211217105514" lon="13.650399204291734"><ele>537.3333333333334</ele><time>2026-05-02T11:15:59.001Z</time></trkpt><trkpt lat="42.196246212192555" lon="13.650165477422567"><ele>539.6666666666666</ele><time>2026-05-02T11:16:00.001Z</time></trkpt><trkpt lat="42.1962776794744" lon="13.649933454143982"><ele>542.0</ele><time>2026-05-02T11:16:01.001Z</time></trkpt><trkpt lat="42.19631998495827" lon="13.649706069951115"><ele>542.0</ele><time>2026-05-02T11:16:02.001Z</time></trkpt><trkpt lat="42.196361211339635" lon="13.649482288546762"><ele>542.0</ele><time>2026-05-02T11:16:03.001Z</time></trkpt><trkpt lat="42.1963972423886" lon="13.64927236902683"><ele>542.0</ele><time>2026-05-02T11:16:04.001Z</time></trkpt><trkpt lat="42.19643248642456" lon="13.649072631364623"><ele>543.25</ele><time>2026-05-02T11:16:05Z</time></trkpt><trkpt lat="42.19646042798625" lon="13.648886902960413"><ele>544.5</ele><time>2026-05-02T11:16:06Z</time></trkpt><trkpt lat="42.19649725267196" lon="13.648697214495408"><ele>545.75</ele><time>2026-05-02T11:16:07Z</time></trkpt><trkpt lat="42.19653206430149" lon="13.648533735445438"><ele>547.0</ele><time>2026-05-02T11:16:08Z</time></trkpt><trkpt lat="42.19655289783988" lon="13.64838463302577"><ele>547.0</ele><time>2026-05-02T11:16:09Z</time></trkpt><trkpt lat="42.19659354627973" lon="13.648255992188902"><ele>547.0</ele><time>2026-05-02T11:16:10Z</time></trkpt><trkpt lat="42.19661583095937" lon="13.648138563850194"><ele>547.0</ele><time>2026-05-02T11:16:11Z</time></trkpt><trkpt lat="42.1966320612319" lon="13.648050519362554"><ele>547.0</ele><time>2026-05-02T11:16:12Z</time></trkpt><trkpt lat="42.19652164996269" lon="13.647956771188907"><ele>547.0</ele><time>2026-05-02T11:16:13Z</time></trkpt><trkpt lat="42.19643459649485" lon="13.647924200589602"><ele>549.2</ele><time>2026-05-02T11:16:15Z</time></trkpt><trkpt lat="42.19632419437977" lon="13.647923347436407"><ele>551.4000000000001</ele><time>2026-05-02T11:16:17Z</time></trkpt><trkpt lat="42.196246000827074" lon="13.648015075518014"><ele>553.5999999999999</ele><time>2026-05-02T11:16:18Z</time></trkpt><trkpt lat="42.1961687285526" lon="13.648113085827903"><ele>555.8</ele><time>2026-05-02T11:16:19Z</time></trkpt><trkpt lat="42.19608731128337" lon="13.648221196937211"><ele>558.0</ele><time>2026-05-02T11:16:20Z</time></trkpt><trkpt lat="42.19599180718411" lon="13.648317611364115"><ele>558.0</ele><time>2026-05-02T11:16:21Z</time></trkpt><trkpt lat="42.19587824279654" lon="13.648420120821232"><ele>558.0</ele><time>2026-05-02T11:16:22Z</time></trkpt><trkpt lat="42.19575126764217" lon="13.648516507028514"><ele>558.0</ele><time>2026-05-02T11:16:23Z</time></trkpt><trkpt lat="42.195613572684394" lon="13.64859693852348"><ele>558.0</ele><time>2026-05-02T11:16:24Z</time></trkpt><trkpt lat="42.195477310238914" lon="13.648671920557994"><ele>560.75</ele><time>2026-05-02T11:16:25Z</time></trkpt><trkpt lat="42.195344803718605" lon="13.6487653796729"><ele>563.5</ele><time>2026-05-02T11:16:26Z</time></trkpt><trkpt lat="42.195229209648566" lon="13.648880625252254"><ele>566.25</ele><time>2026-05-02T11:16:27Z</time></trkpt><trkpt lat="42.195130085293705" lon="13.649028130705096"><ele>569.0</ele><time>2026-05-02T11:16:28Z</time></trkpt><trkpt lat="42.195049210977295" lon="13.649188501420806"><ele>569.0</ele><time>2026-05-02T11:16:29Z</time></trkpt><trkpt lat="42.194977682671805" lon="13.649357591762215"><ele>569.0</ele><time>2026-05-02T11:16:30Z</time></trkpt><trkpt lat="42.19491012056167" lon="13.64952495113733"><ele>569.0</ele><time>2026-05-02T11:16:31Z</time></trkpt><trkpt lat="42.19483913334465" lon="13.649687327496524"><ele>569.0</ele><time>2026-05-02T11:16:32Z</time></trkpt><trkpt lat="42.19475470600606" lon="13.649834710774236"><ele>573.0</ele><time>2026-05-02T11:16:33Z</time></trkpt><trkpt lat="42.194662142534256" lon="13.64997281765306"><ele>577.0</ele><time>2026-05-02T11:16:34Z</time></trkpt><trkpt lat="42.19455264667178" lon="13.650090881704914"><ele>581.0</ele><time>2026-05-02T11:16:35Z</time></trkpt><trkpt lat="42.19442909631816" lon="13.650188932742772"><ele>585.0</ele><time>2026-05-02T11:16:36Z</time></trkpt><trkpt lat="42.19429989591315" lon="13.650281986703911"><ele>587.3333333333334</ele><time>2026-05-02T11:16:37Z</time></trkpt><trkpt lat="42.1941589990045" lon="13.650380861649452"><ele>589.6666666666667</ele><time>2026-05-02T11:16:38Z</time></trkpt><trkpt lat="42.19401285004561" lon="13.650488861191135"><ele>592.0</ele><time>2026-05-02T11:16:39Z</time></trkpt><trkpt lat="42.19387198701347" lon="13.650601880228152"><ele>592.0</ele><time>2026-05-02T11:16:40Z</time></trkpt><trkpt lat="42.19372670543339" lon="13.650718562583387"><ele>592.0</ele><time>2026-05-02T11:16:41Z</time></trkpt><trkpt lat="42.19358614889035" lon="13.65084239032183"><ele>592.0</ele><time>2026-05-02T11:16:42Z</time></trkpt><trkpt lat="42.193453723124435" lon="13.650982758717179"><ele>588.3333333333334</ele><time>2026-05-02T11:16:43Z</time></trkpt><trkpt lat="42.19335326201537" lon="13.65117008504874"><ele>584.6666666666666</ele><time>2026-05-02T11:16:44Z</time></trkpt><trkpt lat="42.193278992258115" lon="13.651345160422574"><ele>581.0</ele><time>2026-05-02T11:16:45Z</time></trkpt><trkpt lat="42.19322811261802" lon="13.651505989777272"><ele>581.0</ele><time>2026-05-02T11:16:46Z</time></trkpt><trkpt lat="42.19320352885862" lon="13.651686942791283"><ele>581.0</ele><time>2026-05-02T11:16:47Z</time></trkpt><trkpt lat="42.19322022910069" lon="13.651861889223788"><ele>581.0</ele><time>2026-05-02T11:16:48Z</time></trkpt><trkpt lat="42.19327807208796" lon="13.652066201559641"><ele>581.0</ele><time>2026-05-02T11:16:49Z</time></trkpt><trkpt lat="42.193305788528995" lon="13.65222230180023"><ele>581.25</ele><time>2026-05-02T11:16:50Z</time></trkpt><trkpt lat="42.19330564391868" lon="13.652410252851949"><ele>581.5</ele><time>2026-05-02T11:16:51Z</time></trkpt><trkpt lat="42.19328957948173" lon="13.652593519680819"><ele>581.75</ele><time>2026-05-02T11:16:52Z</time></trkpt><trkpt lat="42.193262119849784" lon="13.65278030944022"><ele>582.0</ele><time>2026-05-02T11:16:53Z</time></trkpt><trkpt lat="42.19322898656091" lon="13.65295504981931"><ele>582.0</ele><time>2026-05-02T11:16:54Z</time></trkpt><trkpt lat="42.1931876141217" lon="13.653098035527199"><ele>582.0</ele><time>2026-05-02T11:16:55Z</time></trkpt><trkpt lat="42.193143119320574" lon="13.653202211083322"><ele>582.0</ele><time>2026-05-02T11:16:56Z</time></trkpt><trkpt lat="42.19308035822942" lon="13.653265886174603"><ele>582.0</ele><time>2026-05-02T11:16:57Z</time></trkpt><trkpt lat="42.192993862916005" lon="13.653196303717204"><ele>582.0</ele><time>2026-05-02T11:16:58Z</time></trkpt><trkpt lat="42.192948396267994" lon="13.653120641956077"><ele>584.2</ele><time>2026-05-02T11:16:59Z</time></trkpt><trkpt lat="42.19292939048969" lon="13.6530045144821"><ele>586.4000000000001</ele><time>2026-05-02T11:17:00Z</time></trkpt><trkpt lat="42.19297396171599" lon="13.652885082414175"><ele>588.5999999999999</ele><time>2026-05-02T11:17:01Z</time></trkpt><trkpt lat="42.193005854375485" lon="13.652737340768752"><ele>590.8</ele><time>2026-05-02T11:17:02Z</time></trkpt><trkpt lat="42.19303872258129" lon="13.652578733994064"><ele>593.0</ele><time>2026-05-02T11:17:03Z</time></trkpt><trkpt lat="42.19305972865126" lon="13.65241760880705"><ele>597.0</ele><time>2026-05-02T11:17:04Z</time></trkpt><trkpt lat="42.19307389034103" lon="13.652280078050218"><ele>601.0</ele><time>2026-05-02T11:17:05Z</time></trkpt><trkpt lat="42.193062327821494" lon="13.652150980583347"><ele>605.0</ele><time>2026-05-02T11:17:06Z</time></trkpt><trkpt lat="42.193005946019895" lon="13.65206946604731"><ele>609.0</ele><time>2026-05-02T11:17:07Z</time></trkpt><trkpt lat="42.19292256066826" lon="13.652060256153751"><ele>613.0</ele><time>2026-05-02T11:17:08Z</time></trkpt><trkpt lat="42.19284183010473" lon="13.652131243440131"><ele>613.0</ele><time>2026-05-02T11:17:09Z</time></trkpt><trkpt lat="42.19279560148991" lon="13.652265505676493"><ele>613.0</ele><time>2026-05-02T11:17:10Z</time></trkpt><trkpt lat="42.192785169588646" lon="13.652411753760845"><ele>613.0</ele><time>2026-05-02T11:17:11Z</time></trkpt><trkpt lat="42.19277803028959" lon="13.652563888097962"><ele>613.0</ele><time>2026-05-02T11:17:12Z</time></trkpt><trkpt lat="42.19273461201956" lon="13.652704016629773"><ele>613.0</ele><time>2026-05-02T11:17:13Z</time></trkpt><trkpt lat="42.19263769555364" lon="13.652785558238307"><ele>611.8</ele><time>2026-05-02T11:17:14Z</time></trkpt><trkpt lat="42.19255261276195" lon="13.652877569782525"><ele>610.5999999999999</ele><time>2026-05-02T11:17:15Z</time></trkpt><trkpt lat="42.19245827259865" lon="13.65292339265959"><ele>609.4000000000001</ele><time>2026-05-02T11:17:16Z</time></trkpt><trkpt lat="42.19237364566778" lon="13.65291060376653"><ele>608.2</ele><time>2026-05-02T11:17:17Z</time></trkpt><trkpt lat="42.19231149850866" lon="13.6528674702577"><ele>607.0</ele><time>2026-05-02T11:17:18Z</time></trkpt><trkpt lat="42.19232275531621" lon="13.652735921615388"><ele>608.2</ele><time>2026-05-02T11:17:19Z</time></trkpt><trkpt lat="42.19237911580048" lon="13.65265018781257"><ele>609.4000000000001</ele><time>2026-05-02T11:17:20Z</time></trkpt><trkpt lat="42.19247201398178" lon="13.652618401247405"><ele>610.5999999999999</ele><time>2026-05-02T11:17:21Z</time></trkpt><trkpt lat="42.192564390041525" lon="13.652549363411625"><ele>611.8</ele><time>2026-05-02T11:17:22Z</time></trkpt><trkpt lat="42.19263733611354" lon="13.652440340900192"><ele>613.0</ele><time>2026-05-02T11:17:23Z</time></trkpt><trkpt lat="42.19268371830493" lon="13.652321074357992"><ele>613.0</ele><time>2026-05-02T11:17:24Z</time></trkpt><trkpt lat="42.1926646933893" lon="13.652204254173213"><ele>613.0</ele><time>2026-05-02T11:17:25Z</time></trkpt><trkpt lat="42.19258440404442" lon="13.652128192309943"><ele>613.0</ele><time>2026-05-02T11:17:26Z</time></trkpt><trkpt lat="42.192477327912336" lon="13.652129150094199"><ele>613.0</ele><time>2026-05-02T11:17:27Z</time></trkpt><trkpt lat="42.192379459446066" lon="13.652207561904069"><ele>613.0</ele><time>2026-05-02T11:17:28Z</time></trkpt><trkpt lat="42.19229726079998" lon="13.652325575092046"><ele>616.5</ele><time>2026-05-02T11:17:29Z</time></trkpt><trkpt lat="42.19222222531974" lon="13.65244952648812"><ele>620.0</ele><time>2026-05-02T11:17:30Z</time></trkpt><trkpt lat="42.19213750434744" lon="13.652548187822129"><ele>623.5</ele><time>2026-05-02T11:17:31Z</time></trkpt><trkpt lat="42.19203716376206" lon="13.652642373555354"><ele>627.0</ele><time>2026-05-02T11:17:32Z</time></trkpt><trkpt lat="42.19192293182253" lon="13.652717048705442"><ele>627.0</ele><time>2026-05-02T11:17:33Z</time></trkpt><trkpt lat="42.19178512528936" lon="13.652724564226352"><ele>627.0</ele><time>2026-05-02T11:17:34Z</time></trkpt><trkpt lat="42.19163924548737" lon="13.652745605480666"><ele>627.0</ele><time>2026-05-02T11:17:35Z</time></trkpt><trkpt lat="42.19148928866026" lon="13.652789051600445"><ele>627.0</ele><time>2026-05-02T11:17:36Z</time></trkpt><trkpt lat="42.19134143569831" lon="13.652814451124721"><ele>628.0</ele><time>2026-05-02T11:17:37Z</time></trkpt><trkpt lat="42.191200074073926" lon="13.652885831496633"><ele>629.0</ele><time>2026-05-02T11:17:38.001Z</time></trkpt><trkpt lat="42.19107176424661" lon="13.65299908659326"><ele>630.0</ele><time>2026-05-02T11:17:39.001Z</time></trkpt><trkpt lat="42.19096030718117" lon="13.653135270787113"><ele>630.0</ele><time>2026-05-02T11:17:40.001Z</time></trkpt><trkpt lat="42.190843713576164" lon="13.653267136931902"><ele>630.0</ele><time>2026-05-02T11:17:41.001Z</time></trkpt><trkpt lat="42.19071318543156" lon="13.653357055366602"><ele>630.0</ele><time>2026-05-02T11:17:42.001Z</time></trkpt><trkpt lat="42.190574609714055" lon="13.6534302622861"><ele>630.0</ele><time>2026-05-02T11:17:43.001Z</time></trkpt><trkpt lat="42.1904284140563" lon="13.653500757276987"><ele>632.3333333333334</ele><time>2026-05-02T11:17:44.001Z</time></trkpt><trkpt lat="42.19027559438621" lon="13.653571973156197"><ele>634.6666666666667</ele><time>2026-05-02T11:17:45.001Z</time></trkpt><trkpt lat="42.190128677471954" lon="13.653627849748066"><ele>637.0</ele><time>2026-05-02T11:17:46.001Z</time></trkpt><trkpt lat="42.18998506701553" lon="13.653685049356325"><ele>637.0</ele><time>2026-05-02T11:17:47.001Z</time></trkpt><trkpt lat="42.18985055779116" lon="13.65374808425236"><ele>637.0</ele><time>2026-05-02T11:17:48.001Z</time></trkpt><trkpt lat="42.18973935093355" lon="13.653822707269475"><ele>637.0</ele><time>2026-05-02T11:17:49.001Z</time></trkpt><trkpt lat="42.189673036699496" lon="13.653911286743446"><ele>637.0</ele><time>2026-05-02T11:17:50.001Z</time></trkpt><trkpt lat="42.189643398581914" lon="13.65402454502912"><ele>637.0</ele><time>2026-05-02T11:17:51.001Z</time></trkpt><trkpt lat="42.18966260873439" lon="13.654166177587708"><ele>638.5</ele><time>2026-05-02T11:17:52.001Z</time></trkpt><trkpt lat="42.18971745558534" lon="13.654313728973156"><ele>640.0</ele><time>2026-05-02T11:17:53.001Z</time></trkpt><trkpt lat="42.18978742255559" lon="13.654465642316223"><ele>641.5</ele><time>2026-05-02T11:17:54.001Z</time></trkpt><trkpt lat="42.18985396001575" lon="13.654625239282087"><ele>643.0</ele><time>2026-05-02T11:17:55.001Z</time></trkpt><trkpt lat="42.189911917371155" lon="13.654778688571104"><ele>643.0</ele><time>2026-05-02T11:17:56.001Z</time></trkpt><trkpt lat="42.189960063134" lon="13.654912873998466"><ele>643.0</ele><time>2026-05-02T11:17:57.001Z</time></trkpt><trkpt lat="42.18998270651503" lon="13.65503389500045"><ele>643.0</ele><time>2026-05-02T11:17:58.001Z</time></trkpt><trkpt lat="42.1899620198057" lon="13.655157746551032"><ele>643.0</ele><time>2026-05-02T11:17:59.001Z</time></trkpt><trkpt lat="42.18990027568267" lon="13.655264871330852"><ele>643.0</ele><time>2026-05-02T11:18:00.001Z</time></trkpt><trkpt lat="42.18978476031" lon="13.655283017839098"><ele>645.25</ele><time>2026-05-02T11:18:01.001Z</time></trkpt><trkpt lat="42.18967402180562" lon="13.655342279527785"><ele>647.5</ele><time>2026-05-02T11:18:02.001Z</time></trkpt><trkpt lat="42.18955354933522" lon="13.655412514547189"><ele>649.75</ele><time>2026-05-02T11:18:03.001Z</time></trkpt><trkpt lat="42.18943116565047" lon="13.655471167665786"><ele>652.0</ele><time>2026-05-02T11:18:04.001Z</time></trkpt><trkpt lat="42.189296661842384" lon="13.655550189301321"><ele>652.0</ele><time>2026-05-02T11:18:05.001Z</time></trkpt><trkpt lat="42.189147691405765" lon="13.655624953810369"><ele>652.0</ele><time>2026-05-02T11:18:06.001Z</time></trkpt><trkpt lat="42.18899089343346" lon="13.655703416532347"><ele>652.0</ele><time>2026-05-02T11:18:07.001Z</time></trkpt><trkpt lat="42.18883622526764" lon="13.6557778541452"><ele>654.3333333333334</ele><time>2026-05-02T11:18:08.001Z</time></trkpt><trkpt lat="42.18867514167388" lon="13.655843823782932"><ele>656.6666666666666</ele><time>2026-05-02T11:18:09.001Z</time></trkpt><trkpt lat="42.18853075234315" lon="13.655900700472355"><ele>659.0</ele><time>2026-05-02T11:18:10.001Z</time></trkpt><trkpt lat="42.18839672566844" lon="13.655946764212404"><ele>659.0</ele><time>2026-05-02T11:18:11.001Z</time></trkpt><trkpt lat="42.18828859835331" lon="13.655990956302222"><ele>659.0</ele><time>2026-05-02T11:18:12.001Z</time></trkpt><trkpt lat="42.18819827358659" lon="13.656032974014531"><ele>659.0</ele><time>2026-05-02T11:18:13.001Z</time></trkpt><trkpt lat="42.188133913228484" lon="13.656112777056942"><ele>659.0</ele><time>2026-05-02T11:18:14.001Z</time></trkpt><trkpt lat="42.18811531721837" lon="13.656216873946082"><ele>659.0</ele><time>2026-05-02T11:18:15.001Z</time></trkpt><trkpt lat="42.18814329917727" lon="13.656311414700665"><ele>660.5</ele><time>2026-05-02T11:18:16.001Z</time></trkpt><trkpt lat="42.18822766098548" lon="13.656377753240667"><ele>662.0</ele><time>2026-05-02T11:18:17.001Z</time></trkpt><trkpt lat="42.18834233913425" lon="13.656386887212761"><ele>663.5</ele><time>2026-05-02T11:18:18.001Z</time></trkpt><trkpt lat="42.18846351507169" lon="13.656355061356962"><ele>665.0</ele><time>2026-05-02T11:18:19.001Z</time></trkpt><trkpt lat="42.18859319204989" lon="13.656334386214146"><ele>665.0</ele><time>2026-05-02T11:18:20.001Z</time></trkpt><trkpt lat="42.188732570597296" lon="13.656323620587676"><ele>665.0</ele><time>2026-05-02T11:18:21.001Z</time></trkpt><trkpt lat="42.18887060186257" lon="13.656309597048535"><ele>665.0</ele><time>2026-05-02T11:18:22.001Z</time></trkpt><trkpt lat="42.189001556096756" lon="13.656288897097541"><ele>665.0</ele><time>2026-05-02T11:18:23.001Z</time></trkpt><trkpt lat="42.1891208703335" lon="13.656273162815816"><ele>664.0</ele><time>2026-05-02T11:18:24.001Z</time></trkpt><trkpt lat="42.189236253727536" lon="13.656280406415638"><ele>663.0</ele><time>2026-05-02T11:18:25.001Z</time></trkpt><trkpt lat="42.18934547147845" lon="13.656255594073334"><ele>662.0</ele><time>2026-05-02T11:18:26.001Z</time></trkpt><trkpt lat="42.189443273123985" lon="13.656270926799843"><ele>661.0</ele><time>2026-05-02T11:18:27.001Z</time></trkpt><trkpt lat="42.18950727587875" lon="13.656343958812576"><ele>660.0</ele><time>2026-05-02T11:18:28.001Z</time></trkpt><trkpt lat="42.189513423507805" lon="13.656452733607653"><ele>660.0</ele><time>2026-05-02T11:18:29.001Z</time></trkpt><trkpt lat="42.18946700164316" lon="13.656550708292576"><ele>660.0</ele><time>2026-05-02T11:18:30.001Z</time></trkpt><trkpt lat="42.1893725238792" lon="13.65656443525661"><ele>660.0</ele><time>2026-05-02T11:18:31.001Z</time></trkpt><trkpt lat="42.189275560938874" lon="13.656525177445696"><ele>660.0</ele><time>2026-05-02T11:18:32.001Z</time></trkpt><trkpt lat="42.189161071438356" lon="13.656543084039976"><ele>660.0</ele><time>2026-05-02T11:18:33.001Z</time></trkpt><trkpt lat="42.189052972521914" lon="13.65654555364232"><ele>661.6666666666666</ele><time>2026-05-02T11:18:34.001Z</time></trkpt><trkpt lat="42.18891670870728" lon="13.65653572311632"><ele>663.3333333333333</ele><time>2026-05-02T11:18:35.001Z</time></trkpt><trkpt lat="42.18876430787266" lon="13.65653903699688"><ele>665.0</ele><time>2026-05-02T11:18:36.001Z</time></trkpt><trkpt lat="42.18859527541693" lon="13.656540894359145"><ele>665.0</ele><time>2026-05-02T11:18:37.001Z</time></trkpt><trkpt lat="42.18842365556305" lon="13.656542838930685"><ele>665.0</ele><time>2026-05-02T11:18:38.001Z</time></trkpt><trkpt lat="42.18824383327783" lon="13.656555195310304"><ele>665.0</ele><time>2026-05-02T11:18:39.001Z</time></trkpt><trkpt lat="42.18807141848846" lon="13.656576509822061"><ele>666.3333333333333</ele><time>2026-05-02T11:18:40.001Z</time></trkpt><trkpt lat="42.18788929540384" lon="13.656603286434727"><ele>667.6666666666666</ele><time>2026-05-02T11:18:41.001Z</time></trkpt><trkpt lat="42.18770879498263" lon="13.65664003055646"><ele>669.0</ele><time>2026-05-02T11:18:42.001Z</time></trkpt><trkpt lat="42.18752594522773" lon="13.656681412908425"><ele>669.0</ele><time>2026-05-02T11:18:43.001Z</time></trkpt><trkpt lat="42.187347110197024" lon="13.656729155271957"><ele>669.0</ele><time>2026-05-02T11:18:44.001Z</time></trkpt><trkpt lat="42.187166740664594" lon="13.65677419013934"><ele>669.0</ele><time>2026-05-02T11:18:45.001Z</time></trkpt><trkpt lat="42.18699067299265" lon="13.65681695747419"><ele>671.3333333333334</ele><time>2026-05-02T11:18:46.001Z</time></trkpt><trkpt lat="42.18681410110086" lon="13.65685938464721"><ele>673.6666666666667</ele><time>2026-05-02T11:18:47.001Z</time></trkpt><trkpt lat="42.18663844724241" lon="13.656904648648595"><ele>676.0</ele><time>2026-05-02T11:18:48.001Z</time></trkpt><trkpt lat="42.18646309614725" lon="13.656952680856561"><ele>682.6666666666667</ele><time>2026-05-02T11:18:49.001Z</time></trkpt><trkpt lat="42.18628454460324" lon="13.65700358465381"><ele>689.3333333333334</ele><time>2026-05-02T11:18:50.001Z</time></trkpt><trkpt lat="42.1861088010204" lon="13.657050108886509"><ele>696.0</ele><time>2026-05-02T11:18:51.001Z</time></trkpt><trkpt lat="42.18593231230754" lon="13.657091591339574"><ele>696.0</ele><time>2026-05-02T11:18:52.001Z</time></trkpt><trkpt lat="42.18575631216101" lon="13.657132741963625"><ele>696.0</ele><time>2026-05-02T11:18:53.001Z</time></trkpt><trkpt lat="42.18558052317093" lon="13.657172562479445"><ele>696.0</ele><time>2026-05-02T11:18:54.001Z</time></trkpt><trkpt lat="42.18542012282002" lon="13.657210508234822"><ele>694.0</ele><time>2026-05-02T11:18:55.001Z</time></trkpt><trkpt lat="42.18526495783293" lon="13.657268043369516"><ele>692.0</ele><time>2026-05-02T11:18:56.001Z</time></trkpt><trkpt lat="42.1851066800135" lon="13.657402240917257"><ele>690.0</ele><time>2026-05-02T11:18:57.001Z</time></trkpt><trkpt lat="42.18498037907636" lon="13.65750152946674"><ele>689.3333333333334</ele><time>2026-05-02T11:18:58.001Z</time></trkpt><trkpt lat="42.184826897553776" lon="13.657635397087974"><ele>688.6666666666667</ele><time>2026-05-02T11:18:59.001Z</time></trkpt><trkpt lat="42.18469021841234" lon="13.65780018984376"><ele>688.0</ele><time>2026-05-02T11:19:00.001Z</time></trkpt><trkpt lat="42.18455824674986" lon="13.657965141510255"><ele>687.3333333333334</ele><time>2026-05-02T11:19:01Z</time></trkpt><trkpt lat="42.18443087461601" lon="13.658117312461973"><ele>686.6666666666666</ele><time>2026-05-02T11:19:02Z</time></trkpt><trkpt lat="42.18430232531933" lon="13.658262092584904"><ele>686.0</ele><time>2026-05-02T11:19:03Z</time></trkpt><trkpt lat="42.1841623529389" lon="13.658392102362766"><ele>686.0</ele><time>2026-05-02T11:19:04Z</time></trkpt><trkpt lat="42.18401537225618" lon="13.658514378526235"><ele>686.0</ele><time>2026-05-02T11:19:05Z</time></trkpt><trkpt lat="42.18386410026239" lon="13.658625211979352"><ele>686.0</ele><time>2026-05-02T11:19:06Z</time></trkpt><trkpt lat="42.18370581342411" lon="13.658721132095177"><ele>684.3333333333333</ele><time>2026-05-02T11:19:07Z</time></trkpt><trkpt lat="42.18354427592253" lon="13.658812083636134"><ele>682.6666666666666</ele><time>2026-05-02T11:19:08Z</time></trkpt><trkpt lat="42.18337489816446" lon="13.658894180506232"><ele>681.0</ele><time>2026-05-02T11:19:09Z</time></trkpt><trkpt lat="42.18320455887113" lon="13.65898616606007"><ele>683.3333333333334</ele><time>2026-05-02T11:19:10Z</time></trkpt><trkpt lat="42.18303520741744" lon="13.65907577082831"><ele>685.6666666666667</ele><time>2026-05-02T11:19:11Z</time></trkpt><trkpt lat="42.182864565091265" lon="13.659163485469948"><ele>688.0</ele><time>2026-05-02T11:19:12Z</time></trkpt><trkpt lat="42.18269221212145" lon="13.659253290146717"><ele>688.0</ele><time>2026-05-02T11:19:13Z</time></trkpt><trkpt lat="42.182524123909744" lon="13.659342859658683"><ele>688.0</ele><time>2026-05-02T11:19:14Z</time></trkpt><trkpt lat="42.18235232049564" lon="13.659438174131612"><ele>688.0</ele><time>2026-05-02T11:19:15Z</time></trkpt><trkpt lat="42.18219024232721" lon="13.65954029563066"><ele>687.0</ele><time>2026-05-02T11:19:16Z</time></trkpt><trkpt lat="42.182036406914904" lon="13.659658997364957"><ele>686.0</ele><time>2026-05-02T11:19:17Z</time></trkpt><trkpt lat="42.181886042469" lon="13.659798213528276"><ele>685.0</ele><time>2026-05-02T11:19:18Z</time></trkpt><trkpt lat="42.181740579263625" lon="13.65995462589533"><ele>685.0</ele><time>2026-05-02T11:19:19Z</time></trkpt><trkpt lat="42.181601252347946" lon="13.660116987864514"><ele>685.0</ele><time>2026-05-02T11:19:20Z</time></trkpt><trkpt lat="42.181467480033284" lon="13.660283941120607"><ele>685.0</ele><time>2026-05-02T11:19:21Z</time></trkpt><trkpt lat="42.18133101910397" lon="13.66044257334039"><ele>686.3333333333334</ele><time>2026-05-02T11:19:22Z</time></trkpt><trkpt lat="42.18119198251021" lon="13.660610326346344"><ele>687.6666666666666</ele><time>2026-05-02T11:19:23Z</time></trkpt><trkpt lat="42.181066653226154" lon="13.660788572876674"><ele>689.0</ele><time>2026-05-02T11:19:24Z</time></trkpt><trkpt lat="42.18094869909908" lon="13.660967305205315"><ele>689.3333333333333</ele><time>2026-05-02T11:19:25Z</time></trkpt><trkpt lat="42.1808279565471" lon="13.661146333900847"><ele>689.6666666666666</ele><time>2026-05-02T11:19:26Z</time></trkpt><trkpt lat="42.180710660581006" lon="13.661327617005401"><ele>690.0</ele><time>2026-05-02T11:19:27Z</time></trkpt><trkpt lat="42.18059262383515" lon="13.661480986953444"><ele>690.0</ele><time>2026-05-02T11:19:28Z</time></trkpt><trkpt lat="42.18045570862744" lon="13.661614351617512"><ele>690.0</ele><time>2026-05-02T11:19:29Z</time></trkpt><trkpt lat="42.180312908299214" lon="13.661741227295007"><ele>690.0</ele><time>2026-05-02T11:19:30Z</time></trkpt><trkpt lat="42.1801780957397" lon="13.66186615133635"><ele>688.6666666666666</ele><time>2026-05-02T11:19:31Z</time></trkpt><trkpt lat="42.180039903254404" lon="13.662008114147097"><ele>687.3333333333333</ele><time>2026-05-02T11:19:32Z</time></trkpt><trkpt lat="42.17990457372648" lon="13.6621536735103"><ele>686.0</ele><time>2026-05-02T11:19:33Z</time></trkpt><trkpt lat="42.17977111683349" lon="13.662304627421202"><ele>686.0</ele><time>2026-05-02T11:19:34Z</time></trkpt><trkpt lat="42.17964518391798" lon="13.662460516301996"><ele>686.0</ele><time>2026-05-02T11:19:35Z</time></trkpt><trkpt lat="42.1795202331789" lon="13.662622896118997"><ele>686.0</ele><time>2026-05-02T11:19:36Z</time></trkpt><trkpt lat="42.17939642961748" lon="13.662791384772193"><ele>686.3333333333333</ele><time>2026-05-02T11:19:37Z</time></trkpt><trkpt lat="42.17927827582246" lon="13.66296377706748"><ele>686.6666666666666</ele><time>2026-05-02T11:19:38Z</time></trkpt><trkpt lat="42.17915690234171" lon="13.663136194245139"><ele>687.0</ele><time>2026-05-02T11:19:39Z</time></trkpt><trkpt lat="42.17903760178432" lon="13.663309249672725"><ele>688.6666666666666</ele><time>2026-05-02T11:19:40Z</time></trkpt><trkpt lat="42.17891714177299" lon="13.663478105695374"><ele>690.3333333333333</ele><time>2026-05-02T11:19:41Z</time></trkpt><trkpt lat="42.17878524692079" lon="13.663632050277107"><ele>692.0</ele><time>2026-05-02T11:19:42Z</time></trkpt><trkpt lat="42.17864557681507" lon="13.663779086495376"><ele>692.6666666666666</ele><time>2026-05-02T11:19:43Z</time></trkpt><trkpt lat="42.17850917573666" lon="13.66391688249522"><ele>693.3333333333334</ele><time>2026-05-02T11:19:44Z</time></trkpt><trkpt lat="42.17836691155972" lon="13.664043103380537"><ele>694.0</ele><time>2026-05-02T11:19:45Z</time></trkpt><trkpt lat="42.17821790432493" lon="13.66415276344503"><ele>695.3333333333334</ele><time>2026-05-02T11:19:46Z</time></trkpt><trkpt lat="42.178069772990455" lon="13.664258895752248"><ele>696.6666666666666</ele><time>2026-05-02T11:19:47Z</time></trkpt><trkpt lat="42.177923196569864" lon="13.664360673390789"><ele>698.0</ele><time>2026-05-02T11:19:48Z</time></trkpt><trkpt lat="42.177779282253184" lon="13.664459302835079"><ele>699.3333333333333</ele><time>2026-05-02T11:19:49Z</time></trkpt><trkpt lat="42.1776623460734" lon="13.66451053782503"><ele>700.6666666666666</ele><time>2026-05-02T11:19:50Z</time></trkpt><trkpt lat="42.17749324246148" lon="13.664682855136313"><ele>702.0</ele><time>2026-05-02T11:19:51Z</time></trkpt><trkpt lat="42.17736303068639" lon="13.664802887960043"><ele>705.0</ele><time>2026-05-02T11:19:52Z</time></trkpt><trkpt lat="42.17723914821185" lon="13.664945258063987"><ele>708.0</ele><time>2026-05-02T11:19:53Z</time></trkpt><trkpt lat="42.17712878800892" lon="13.665096400672837"><ele>711.0</ele><time>2026-05-02T11:19:54Z</time></trkpt><trkpt lat="42.17702573063834" lon="13.665252231722224"><ele>712.0</ele><time>2026-05-02T11:19:55Z</time></trkpt><trkpt lat="42.17691996549257" lon="13.665404848137078"><ele>713.0</ele><time>2026-05-02T11:19:56Z</time></trkpt><trkpt lat="42.176810561294786" lon="13.66555087105903"><ele>714.0</ele><time>2026-05-02T11:19:57Z</time></trkpt><trkpt lat="42.17669032749505" lon="13.665684838035933"><ele>714.0</ele><time>2026-05-02T11:19:58Z</time></trkpt><trkpt lat="42.17657007327605" lon="13.665800516118596"><ele>714.0</ele><time>2026-05-02T11:19:59Z</time></trkpt><trkpt lat="42.176475626539414" lon="13.66590182543357"><ele>714.0</ele><time>2026-05-02T11:20:00Z</time></trkpt><trkpt lat="42.176393697611246" lon="13.665993173926287"><ele>714.0</ele><time>2026-05-02T11:20:01Z</time></trkpt><trkpt lat="42.17632064882239" lon="13.666068653962025"><ele>716.75</ele><time>2026-05-02T11:20:02Z</time></trkpt><trkpt lat="42.176243404114494" lon="13.66611461309198"><ele>719.5</ele><time>2026-05-02T11:20:03Z</time></trkpt><trkpt lat="42.17622161653362" lon="13.666202933485518"><ele>722.25</ele><time>2026-05-02T11:20:04Z</time></trkpt><trkpt lat="42.17606446089841" lon="13.666058765872316"><ele>725.0</ele><time>2026-05-02T11:20:05Z</time></trkpt><trkpt lat="42.17595247249291" lon="13.666018352108868"><ele>725.5</ele><time>2026-05-02T11:20:06Z</time></trkpt><trkpt lat="42.175830987619086" lon="13.66597412046655"><ele>726.0</ele><time>2026-05-02T11:20:07Z</time></trkpt><trkpt lat="42.17570544328096" lon="13.665932069596467"><ele>726.5</ele><time>2026-05-02T11:20:08Z</time></trkpt><trkpt lat="42.17557794245124" lon="13.665910254553904"><ele>727.0</ele><time>2026-05-02T11:20:09Z</time></trkpt><trkpt lat="42.175461424008915" lon="13.665831557898462"><ele>729.25</ele><time>2026-05-02T11:20:10Z</time></trkpt><trkpt lat="42.17534150416772" lon="13.66575425030963"><ele>731.5</ele><time>2026-05-02T11:20:11Z</time></trkpt><trkpt lat="42.17522277026946" lon="13.66567550488045"><ele>733.75</ele><time>2026-05-02T11:20:12Z</time></trkpt><trkpt lat="42.17510202459875" lon="13.66559542533466"><ele>736.0</ele><time>2026-05-02T11:20:13Z</time></trkpt><trkpt lat="42.17497617564902" lon="13.66551261430331"><ele>738.25</ele><time>2026-05-02T11:20:14Z</time></trkpt><trkpt lat="42.17485085006823" lon="13.66543026688306"><ele>740.5</ele><time>2026-05-02T11:20:15Z</time></trkpt><trkpt lat="42.17471673094736" lon="13.665367501158936"><ele>742.75</ele><time>2026-05-02T11:20:16Z</time></trkpt><trkpt lat="42.174594613907864" lon="13.665287012892355"><ele>745.0</ele><time>2026-05-02T11:20:17Z</time></trkpt><trkpt lat="42.17447846780555" lon="13.665186037200947"><ele>746.0</ele><time>2026-05-02T11:20:18Z</time></trkpt><trkpt lat="42.174357293236156" lon="13.665102084695967"><ele>747.0</ele><time>2026-05-02T11:20:19Z</time></trkpt><trkpt lat="42.1742400852711" lon="13.665021421287681"><ele>748.0</ele><time>2026-05-02T11:20:20Z</time></trkpt><trkpt lat="42.17411968568649" lon="13.664939791850156"><ele>749.0</ele><time>2026-05-02T11:20:21Z</time></trkpt><trkpt lat="42.173999065373344" lon="13.66485801277831"><ele>752.75</ele><time>2026-05-02T11:20:22Z</time></trkpt><trkpt lat="42.1738694592599" lon="13.664792849362273"><ele>756.5</ele><time>2026-05-02T11:20:23Z</time></trkpt><trkpt lat="42.17374794198727" lon="13.664706317728946"><ele>760.25</ele><time>2026-05-02T11:20:24Z</time></trkpt><trkpt lat="42.173619060664116" lon="13.66462662254409"><ele>764.0</ele><time>2026-05-02T11:20:25Z</time></trkpt><trkpt lat="42.173494790519435" lon="13.664547561393517"><ele>764.0</ele><time>2026-05-02T11:20:26Z</time></trkpt><trkpt lat="42.17336709647764" lon="13.664464969759909"><ele>764.0</ele><time>2026-05-02T11:20:27Z</time></trkpt><trkpt lat="42.1732387655722" lon="13.66437983431729"><ele>764.0</ele><time>2026-05-02T11:20:28Z</time></trkpt><trkpt lat="42.17312244076775" lon="13.664273195469393"><ele>764.0</ele><time>2026-05-02T11:20:29Z</time></trkpt><trkpt lat="42.173000780013396" lon="13.664174610189058"><ele>767.5</ele><time>2026-05-02T11:20:30Z</time></trkpt><trkpt lat="42.172883531126125" lon="13.664070217906469"><ele>771.0</ele><time>2026-05-02T11:20:31Z</time></trkpt><trkpt lat="42.17276517962267" lon="13.663959640315076"><ele>774.5</ele><time>2026-05-02T11:20:32Z</time></trkpt><trkpt lat="42.17265098607781" lon="13.66385157450101"><ele>778.0</ele><time>2026-05-02T11:20:33Z</time></trkpt><trkpt lat="42.1725430232064" lon="13.663748758761475"><ele>778.0</ele><time>2026-05-02T11:20:34Z</time></trkpt><trkpt lat="42.17243997247918" lon="13.663639000254472"><ele>778.0</ele><time>2026-05-02T11:20:35Z</time></trkpt><trkpt lat="42.17231583200758" lon="13.663489115139308"><ele>778.0</ele><time>2026-05-02T11:20:36Z</time></trkpt><trkpt lat="42.17221260817276" lon="13.663326362031833"><ele>780.75</ele><time>2026-05-02T11:20:37Z</time></trkpt><trkpt lat="42.1721261503654" lon="13.663102539142193"><ele>783.5</ele><time>2026-05-02T11:20:39Z</time></trkpt><trkpt lat="42.17206870445543" lon="13.662954439525588"><ele>786.25</ele><time>2026-05-02T11:20:40Z</time></trkpt><trkpt lat="42.17200123291807" lon="13.662803513141624"><ele>789.0</ele><time>2026-05-02T11:20:41Z</time></trkpt><trkpt lat="42.17193759764991" lon="13.662647735322727"><ele>789.75</ele><time>2026-05-02T11:20:42Z</time></trkpt><trkpt lat="42.171868351747996" lon="13.662494818281521"><ele>790.5</ele><time>2026-05-02T11:20:43Z</time></trkpt><trkpt lat="42.1718015163512" lon="13.662339489046214"><ele>791.25</ele><time>2026-05-02T11:20:44Z</time></trkpt><trkpt lat="42.17172793590175" lon="13.662182276834741"><ele>792.0</ele><time>2026-05-02T11:20:45Z</time></trkpt><trkpt lat="42.171651168498535" lon="13.662022252344862"><ele>796.0</ele><time>2026-05-02T11:20:46Z</time></trkpt><trkpt lat="42.17157359267676" lon="13.661861296330645"><ele>800.0</ele><time>2026-05-02T11:20:47Z</time></trkpt><trkpt lat="42.17150215231166" lon="13.661706316236577"><ele>804.0</ele><time>2026-05-02T11:20:48Z</time></trkpt><trkpt lat="42.171432121416174" lon="13.661549808215966"><ele>808.0</ele><time>2026-05-02T11:20:49Z</time></trkpt><trkpt lat="42.17137263635934" lon="13.661396446240852"><ele>810.2</ele><time>2026-05-02T11:20:50Z</time></trkpt><trkpt lat="42.1713156407565" lon="13.661267326970027"><ele>812.4</ele><time>2026-05-02T11:20:51Z</time></trkpt><trkpt lat="42.17126756479234" lon="13.661152704316807"><ele>814.6</ele><time>2026-05-02T11:20:52Z</time></trkpt><trkpt lat="42.17122138140934" lon="13.661047886976215"><ele>816.8000000000001</ele><time>2026-05-02T11:20:53Z</time></trkpt><trkpt lat="42.17114864404196" lon="13.660947021838497"><ele>819.0</ele><time>2026-05-02T11:20:54Z</time></trkpt><trkpt lat="42.17105263487929" lon="13.660866559779809"><ele>819.0</ele><time>2026-05-02T11:20:55Z</time></trkpt><trkpt lat="42.17094261487413" lon="13.660810948478666"><ele>819.0</ele><time>2026-05-02T11:20:56Z</time></trkpt><trkpt lat="42.170818037532094" lon="13.660772065754456"><ele>819.0</ele><time>2026-05-02T11:20:57Z</time></trkpt><trkpt lat="42.17069998109981" lon="13.66073649525846"><ele>819.0</ele><time>2026-05-02T11:20:58Z</time></trkpt><trkpt lat="42.1705823108455" lon="13.660697100077488"><ele>823.75</ele><time>2026-05-02T11:20:59Z</time></trkpt><trkpt lat="42.17046486483023" lon="13.66065417222864"><ele>828.5</ele><time>2026-05-02T11:21:00Z</time></trkpt><trkpt lat="42.17034947239913" lon="13.66060403001023"><ele>833.25</ele><time>2026-05-02T11:21:01Z</time></trkpt><trkpt lat="42.17023501218395" lon="13.660548652132789"><ele>838.0</ele><time>2026-05-02T11:21:02Z</time></trkpt><trkpt lat="42.17012335015333" lon="13.66047945947317"><ele>838.0</ele><time>2026-05-02T11:21:03Z</time></trkpt><trkpt lat="42.170018172734174" lon="13.66040771463311"><ele>838.0</ele><time>2026-05-02T11:21:04Z</time></trkpt><trkpt lat="42.16991177254587" lon="13.660342029183063"><ele>838.0</ele><time>2026-05-02T11:21:05Z</time></trkpt><trkpt lat="42.169815970190434" lon="13.660278745338475"><ele>838.0</ele><time>2026-05-02T11:21:06Z</time></trkpt><trkpt lat="42.16972241658409" lon="13.66024001023975"><ele>838.0</ele><time>2026-05-02T11:21:07Z</time></trkpt><trkpt lat="42.1696152732642" lon="13.66023774671764"><ele>843.0</ele><time>2026-05-02T11:21:08Z</time></trkpt><trkpt lat="42.169502772291175" lon="13.660227559020216"><ele>848.0</ele><time>2026-05-02T11:21:09Z</time></trkpt><trkpt lat="42.16939088637405" lon="13.660191592464303"><ele>853.0</ele><time>2026-05-02T11:21:10Z</time></trkpt><trkpt lat="42.169272078535016" lon="13.660143769403621"><ele>858.0</ele><time>2026-05-02T11:21:11Z</time></trkpt><trkpt lat="42.16915520013795" lon="13.660095532432878"><ele>858.0</ele><time>2026-05-02T11:21:12Z</time></trkpt><trkpt lat="42.16904591564826" lon="13.660037375643912"><ele>858.0</ele><time>2026-05-02T11:21:13Z</time></trkpt><trkpt lat="42.16894897129673" lon="13.659989292428957"><ele>858.0</ele><time>2026-05-02T11:21:14Z</time></trkpt><trkpt lat="42.16887114252691" lon="13.659915721836246"><ele>858.0</ele><time>2026-05-02T11:21:15Z</time></trkpt><trkpt lat="42.168787298844435" lon="13.659876272874882"><ele>858.0</ele><time>2026-05-02T11:21:16Z</time></trkpt><trkpt lat="42.16869942203389" lon="13.65984505255808"><ele>861.5</ele><time>2026-05-02T11:21:17Z</time></trkpt><trkpt lat="42.16861615811634" lon="13.65981547108436"><ele>865.0</ele><time>2026-05-02T11:21:18Z</time></trkpt><trkpt lat="42.16847825649631" lon="13.66003761695918"><ele>868.5</ele><time>2026-05-02T11:21:19Z</time></trkpt><trkpt lat="42.16837149319757" lon="13.660119220108147"><ele>872.0</ele><time>2026-05-02T11:21:20Z</time></trkpt><trkpt lat="42.16825767465258" lon="13.660196314290896"><ele>875.25</ele><time>2026-05-02T11:21:21Z</time></trkpt><trkpt lat="42.1681425912998" lon="13.660281660799974"><ele>878.5</ele><time>2026-05-02T11:21:22Z</time></trkpt><trkpt lat="42.16802879399934" lon="13.660376555618743"><ele>881.75</ele><time>2026-05-02T11:21:23Z</time></trkpt><trkpt lat="42.16788994202779" lon="13.660505092883556"><ele>885.0</ele><time>2026-05-02T11:21:24Z</time></trkpt><trkpt lat="42.167758482671076" lon="13.660700286326332"><ele>885.0</ele><time>2026-05-02T11:21:25Z</time></trkpt><trkpt lat="42.167631367719515" lon="13.660897907904452"><ele>885.0</ele><time>2026-05-02T11:21:26Z</time></trkpt><trkpt lat="42.1674982137319" lon="13.661101430600606"><ele>885.0</ele><time>2026-05-02T11:21:27Z</time></trkpt><trkpt lat="42.16746364571345" lon="13.660877579787849"><ele>887.75</ele><time>2026-05-02T11:21:28Z</time></trkpt><trkpt lat="42.16735004407244" lon="13.660965407147373"><ele>890.5</ele><time>2026-05-02T11:21:29Z</time></trkpt><trkpt lat="42.16723438096045" lon="13.661048232340173"><ele>893.25</ele><time>2026-05-02T11:21:30Z</time></trkpt><trkpt lat="42.16711418034771" lon="13.6611251514152"><ele>896.0</ele><time>2026-05-02T11:21:31Z</time></trkpt><trkpt lat="42.166999441148796" lon="13.66121587179737"><ele>896.0</ele><time>2026-05-02T11:21:32Z</time></trkpt><trkpt lat="42.16689222322343" lon="13.661318871251911"><ele>896.0</ele><time>2026-05-02T11:21:33Z</time></trkpt><trkpt lat="42.166791141391" lon="13.66143509174074"><ele>896.0</ele><time>2026-05-02T11:21:34Z</time></trkpt><trkpt lat="42.16669831456893" lon="13.661559844544888"><ele>896.0</ele><time>2026-05-02T11:21:35Z</time></trkpt><trkpt lat="42.16661374189101" lon="13.661688298664073"><ele>896.0</ele><time>2026-05-02T11:21:36Z</time></trkpt><trkpt lat="42.16653936812329" lon="13.661826010832822"><ele>896.0</ele><time>2026-05-02T11:21:37Z</time></trkpt><trkpt lat="42.166465607918006" lon="13.661969303205732"><ele>896.0</ele><time>2026-05-02T11:21:38Z</time></trkpt><trkpt lat="42.16638311034167" lon="13.662102744394236"><ele>896.0</ele><time>2026-05-02T11:21:39Z</time></trkpt><trkpt lat="42.1662969688586" lon="13.662226318052257"><ele>897.0</ele><time>2026-05-02T11:21:40Z</time></trkpt><trkpt lat="42.16621315762683" lon="13.662348328923859"><ele>897.9999999999999</ele><time>2026-05-02T11:21:41Z</time></trkpt><trkpt lat="42.166144362128996" lon="13.662451082982773"><ele>898.9999999999999</ele><time>2026-05-02T11:21:42Z</time></trkpt><trkpt lat="42.16609472407946" lon="13.662526769602739"><ele>900.0</ele><time>2026-05-02T11:21:43Z</time></trkpt><trkpt lat="42.166004420923116" lon="13.662581014949268"><ele>901.0</ele><time>2026-05-02T11:21:45Z</time></trkpt><trkpt lat="42.16594091066234" lon="13.66252855367512"><ele>901.0</ele><time>2026-05-02T11:21:48Z</time></trkpt><trkpt lat="42.1658462462748" lon="13.662468168240189"><ele>900.9999999999999</ele><time>2026-05-02T11:22:13Z</time></trkpt><trkpt lat="42.16573206930993" lon="13.662458537274864"><ele>900.9999999999999</ele><time>2026-05-02T11:22:15Z</time></trkpt><trkpt lat="42.165666419464614" lon="13.66242104451768"><ele>901.0</ele><time>2026-05-02T11:22:16Z</time></trkpt><trkpt lat="42.16557456984062" lon="13.662364285314304"><ele>901.0</ele><time>2026-05-02T11:22:18Z</time></trkpt><trkpt lat="42.165446504714616" lon="13.662328045530206"><ele>903.5999999999999</ele><time>2026-05-02T11:22:20Z</time></trkpt><trkpt lat="42.1653490684801" lon="13.662289541770042"><ele>906.1999999999999</ele><time>2026-05-02T11:22:22Z</time></trkpt><trkpt lat="42.165228379033934" lon="13.662257586937482"><ele>908.8000000000001</ele><time>2026-05-02T11:22:24Z</time></trkpt><trkpt lat="42.1651313392387" lon="13.662289028569772"><ele>911.4000000000001</ele><time>2026-05-02T11:22:26Z</time></trkpt><trkpt lat="42.16507603519396" lon="13.662380201955495"><ele>914.0</ele><time>2026-05-02T11:22:28Z</time></trkpt><trkpt lat="42.165030620889915" lon="13.66245373440239"><ele>914.0000000000001</ele><time>2026-05-02T11:22:30Z</time></trkpt><trkpt lat="42.16499245022504" lon="13.662521288382914"><ele>914.0</ele><time>2026-05-02T11:22:32Z</time></trkpt><trkpt lat="42.164944777336906" lon="13.662585844193401"><ele>914.0</ele><time>2026-05-02T11:22:35Z</time></trkpt><trkpt lat="42.16486154157984" lon="13.66262823526743"><ele>914.0</ele><time>2026-05-02T11:22:38Z</time></trkpt><trkpt lat="42.164768480222364" lon="13.66264190450955"><ele>914.0000000000001</ele><time>2026-05-02T11:22:41Z</time></trkpt><trkpt lat="42.16469439910234" lon="13.662688774468664"><ele>914.0</ele><time>2026-05-02T11:22:43Z</time></trkpt><trkpt lat="42.1646521724729" lon="13.66275508405387"><ele>915.3333333333334</ele><time>2026-05-02T11:22:45Z</time></trkpt><trkpt lat="42.16459583795604" lon="13.662848940229688"><ele>916.6666666666667</ele><time>2026-05-02T11:22:48Z</time></trkpt><trkpt lat="42.16454212407612" lon="13.662928372386611"><ele>918.0</ele><time>2026-05-02T11:22:50Z</time></trkpt><trkpt lat="42.164481591524975" lon="13.66299660145094"><ele>919.3333333333333</ele><time>2026-05-02T11:22:52Z</time></trkpt><trkpt lat="42.16442314235785" lon="13.663051867554753"><ele>920.6666666666666</ele><time>2026-05-02T11:22:54Z</time></trkpt><trkpt lat="42.164352426460304" lon="13.663118583402262"><ele>922.0</ele><time>2026-05-02T11:22:56Z</time></trkpt><trkpt lat="42.16428276101149" lon="13.66320914269157"><ele>922.0</ele><time>2026-05-02T11:22:58Z</time></trkpt><trkpt lat="42.16422019761654" lon="13.663306624428152"><ele>922.0</ele><time>2026-05-02T11:23:00Z</time></trkpt><trkpt lat="42.16414878510686" lon="13.663425401733505"><ele>922.0</ele><time>2026-05-02T11:23:02Z</time></trkpt><trkpt lat="42.16408054675745" lon="13.663565728362457"><ele>922.0</ele><time>2026-05-02T11:23:04Z</time></trkpt><trkpt lat="42.16404353946464" lon="13.663635258212732"><ele>922.0</ele><time>2026-05-02T11:23:05Z</time></trkpt><trkpt lat="42.163978102075816" lon="13.663745588566789"><ele>924.1666666666666</ele><time>2026-05-02T11:23:07Z</time></trkpt><trkpt lat="42.163953590175744" lon="13.663846658326817"><ele>926.3333333333333</ele><time>2026-05-02T11:23:10Z</time></trkpt><trkpt lat="42.16392234992348" lon="13.663965077514149"><ele>928.5</ele><time>2026-05-02T11:23:20Z</time></trkpt><trkpt lat="42.163861025694366" lon="13.664057622253551"><ele>930.6666666666667</ele><time>2026-05-02T11:23:22Z</time></trkpt><trkpt lat="42.16379668162379" lon="13.664111179747188"><ele>932.8333333333334</ele><time>2026-05-02T11:23:23Z</time></trkpt><trkpt lat="42.16371401062006" lon="13.664169693911505"><ele>935.0</ele><time>2026-05-02T11:23:24Z</time></trkpt><trkpt lat="42.163639903982414" lon="13.664217758641405"><ele>935.0000000000001</ele><time>2026-05-02T11:23:25Z</time></trkpt><trkpt lat="42.16356868974196" lon="13.664275574828265"><ele>935.0</ele><time>2026-05-02T11:23:26Z</time></trkpt><trkpt lat="42.16349648436667" lon="13.664346239405821"><ele>935.0</ele><time>2026-05-02T11:23:27Z</time></trkpt><trkpt lat="42.16344142335146" lon="13.664435749233665"><ele>935.0</ele><time>2026-05-02T11:23:28Z</time></trkpt><trkpt lat="42.16338325881611" lon="13.664538719250068"><ele>935.0000000000001</ele><time>2026-05-02T11:23:29Z</time></trkpt><trkpt lat="42.163328940157136" lon="13.664620168149293"><ele>935.0</ele><time>2026-05-02T11:23:30Z</time></trkpt><trkpt lat="42.16327177928624" lon="13.66469661600615"><ele>935.5000000000001</ele><time>2026-05-02T11:23:31Z</time></trkpt><trkpt lat="42.16320055425999" lon="13.664777378016872"><ele>936.0</ele><time>2026-05-02T11:23:32Z</time></trkpt><trkpt lat="42.16313341059617" lon="13.664867159249601"><ele>936.5</ele><time>2026-05-02T11:23:33Z</time></trkpt><trkpt lat="42.163085025789755" lon="13.664946020481494"><ele>937.0</ele><time>2026-05-02T11:23:34Z</time></trkpt><trkpt lat="42.163025865925" lon="13.665018808791325"><ele>937.5000000000001</ele><time>2026-05-02T11:23:35Z</time></trkpt><trkpt lat="42.16297080085772" lon="13.6651010968654"><ele>938.0</ele><time>2026-05-02T11:23:36Z</time></trkpt><trkpt lat="42.16292395736687" lon="13.665197600197905"><ele>937.8</ele><time>2026-05-02T11:23:37Z</time></trkpt><trkpt lat="42.16289068538201" lon="13.665319628744259"><ele>937.5999999999999</ele><time>2026-05-02T11:23:38Z</time></trkpt><trkpt lat="42.16284240642283" lon="13.6654476006832"><ele>937.4000000000001</ele><time>2026-05-02T11:23:39Z</time></trkpt><trkpt lat="42.16278455533662" lon="13.665543231972592"><ele>937.2</ele><time>2026-05-02T11:23:40Z</time></trkpt><trkpt lat="42.16272609290094" lon="13.665635468309937"><ele>937.0</ele><time>2026-05-02T11:23:41Z</time></trkpt><trkpt lat="42.16264744654933" lon="13.665724838559353"><ele>937.0</ele><time>2026-05-02T11:23:42Z</time></trkpt><trkpt lat="42.16257309087374" lon="13.665824850181783"><ele>937.0</ele><time>2026-05-02T11:23:43Z</time></trkpt><trkpt lat="42.162486225832005" lon="13.665919945354137"><ele>937.0</ele><time>2026-05-02T11:23:44Z</time></trkpt><trkpt lat="42.16239002813916" lon="13.666019066519805"><ele>937.0</ele><time>2026-05-02T11:23:45Z</time></trkpt><trkpt lat="42.162294196893455" lon="13.666115019632382"><ele>939.2</ele><time>2026-05-02T11:23:46Z</time></trkpt><trkpt lat="42.16219992956793" lon="13.666198508926508"><ele>941.4000000000001</ele><time>2026-05-02T11:23:47Z</time></trkpt><trkpt lat="42.16210511264816" lon="13.666284111186105"><ele>943.5999999999999</ele><time>2026-05-02T11:23:48Z</time></trkpt><trkpt lat="42.16201208551756" lon="13.666369667218346"><ele>945.8</ele><time>2026-05-02T11:23:49Z</time></trkpt><trkpt lat="42.16192173609441" lon="13.6664380754189"><ele>948.0</ele><time>2026-05-02T11:23:50Z</time></trkpt><trkpt lat="42.16183284880164" lon="13.66651964449879"><ele>948.0</ele><time>2026-05-02T11:23:51Z</time></trkpt><trkpt lat="42.16171989712707" lon="13.666598525647764"><ele>948.0</ele><time>2026-05-02T11:23:52Z</time></trkpt><trkpt lat="42.16160119929009" lon="13.666682921942435"><ele>948.0</ele><time>2026-05-02T11:23:53Z</time></trkpt><trkpt lat="42.16150922197916" lon="13.666826660792381"><ele>948.0</ele><time>2026-05-02T11:23:54.999Z</time></trkpt><trkpt lat="42.16143594954285" lon="13.666901533972686"><ele>948.0</ele><time>2026-05-02T11:23:56Z</time></trkpt><trkpt lat="42.161382035624825" lon="13.666951253026435"><ele>948.0</ele><time>2026-05-02T11:23:57Z</time></trkpt><trkpt lat="42.1613034489961" lon="13.666897471993284"><ele>948.0</ele><time>2026-05-02T11:24:00Z</time></trkpt><trkpt lat="42.16132254286279" lon="13.66674925620684"><ele>948.0</ele><time>2026-05-02T11:24:02Z</time></trkpt><trkpt lat="42.1613732835052" lon="13.666693205245727"><ele>948.0</ele><time>2026-05-02T11:24:03Z</time></trkpt><trkpt lat="42.161449260836505" lon="13.666684015600753"><ele>948.0</ele><time>2026-05-02T11:24:05Z</time></trkpt><trkpt lat="42.16153813437921" lon="13.666717572695225"><ele>949.1666666666666</ele><time>2026-05-02T11:30:46Z</time></trkpt><trkpt lat="42.16150666136155" lon="13.666828126467873"><ele>950.3333333333333</ele><time>2026-05-02T11:30:49Z</time></trkpt><trkpt lat="42.1614242568055" lon="13.666857829395106"><ele>951.5</ele><time>2026-05-02T11:30:58Z</time></trkpt><trkpt lat="42.16136541416124" lon="13.66689374583176"><ele>952.6666666666666</ele><time>2026-05-02T11:30:59Z</time></trkpt><trkpt lat="42.16125399803575" lon="13.66698064703399"><ele>953.8333333333333</ele><time>2026-05-02T11:31:01Z</time></trkpt><trkpt lat="42.16120153980897" lon="13.66703373658331"><ele>955.0</ele><time>2026-05-02T11:31:02Z</time></trkpt><trkpt lat="42.161147636665426" lon="13.667097500055378"><ele>954.9999999999999</ele><time>2026-05-02T11:31:03Z</time></trkpt><trkpt lat="42.16108330824536" lon="13.667183818507713"><ele>955.0</ele><time>2026-05-02T11:31:04Z</time></trkpt><trkpt lat="42.161024093761" lon="13.667270212692756"><ele>955.0</ele><time>2026-05-02T11:31:05Z</time></trkpt><trkpt lat="42.160974088763176" lon="13.667361452860469"><ele>955.0</ele><time>2026-05-02T11:31:06Z</time></trkpt><trkpt lat="42.16092453026938" lon="13.667460599263993"><ele>954.9999999999999</ele><time>2026-05-02T11:31:07Z</time></trkpt><trkpt lat="42.160875348336795" lon="13.667555233980348"><ele>955.0</ele><time>2026-05-02T11:31:08Z</time></trkpt><trkpt lat="42.16082780472164" lon="13.667616810885029"><ele>954.9999999999999</ele><time>2026-05-02T11:31:09Z</time></trkpt><trkpt lat="42.160768170193506" lon="13.667675598599462"><ele>955.0</ele><time>2026-05-02T11:31:09.999Z</time></trkpt><trkpt lat="42.16070501489262" lon="13.66773171172479"><ele>955.0</ele><time>2026-05-02T11:31:10.999Z</time></trkpt><trkpt lat="42.160641182700765" lon="13.667788235721936"><ele>955.0</ele><time>2026-05-02T11:31:11.999Z</time></trkpt><trkpt lat="42.160580084046174" lon="13.66782800654772"><ele>954.9999999999999</ele><time>2026-05-02T11:31:12.999Z</time></trkpt><trkpt lat="42.16047930345959" lon="13.667917672282915"><ele>955.0</ele><time>2026-05-02T11:31:14.999Z</time></trkpt><trkpt lat="42.16042486701103" lon="13.667973982266028"><ele>954.5714285714284</ele><time>2026-05-02T11:31:15.999Z</time></trkpt><trkpt lat="42.16037342955448" lon="13.66803290658237"><ele>954.1428571428571</ele><time>2026-05-02T11:31:16.999Z</time></trkpt><trkpt lat="42.160315450548765" lon="13.668084271684936"><ele>953.7142857142857</ele><time>2026-05-02T11:31:17.999Z</time></trkpt><trkpt lat="42.16025860319885" lon="13.66813333808985"><ele>953.2857142857142</ele><time>2026-05-02T11:31:18.999Z</time></trkpt><trkpt lat="42.160204212533294" lon="13.668193237127483"><ele>952.8571428571429</ele><time>2026-05-02T11:31:19.999Z</time></trkpt><trkpt lat="42.1601497257704" lon="13.668260032701658"><ele>952.4285714285714</ele><time>2026-05-02T11:31:20.999Z</time></trkpt><trkpt lat="42.16009799271483" lon="13.668325254727778"><ele>952.0</ele><time>2026-05-02T11:31:21.999Z</time></trkpt><trkpt lat="42.160051018406094" lon="13.668389018081442"><ele>951.9999999999999</ele><time>2026-05-02T11:31:22.999Z</time></trkpt><trkpt lat="42.16000398766365" lon="13.668450522039558"><ele>952.0</ele><time>2026-05-02T11:31:23.999Z</time></trkpt><trkpt lat="42.15995461039458" lon="13.668504481866814"><ele>952.0</ele><time>2026-05-02T11:31:24.999Z</time></trkpt><trkpt lat="42.159854382147664" lon="13.668589604969114"><ele>952.0</ele><time>2026-05-02T11:31:26.999Z</time></trkpt><trkpt lat="42.1597982864187" lon="13.668634731135715"><ele>951.9999999999999</ele><time>2026-05-02T11:31:27.999Z</time></trkpt><trkpt lat="42.159747802842794" lon="13.66868663514682"><ele>952.0</ele><time>2026-05-02T11:31:28.999Z</time></trkpt><trkpt lat="42.15965217756117" lon="13.66878226569025"><ele>949.8</ele><time>2026-05-02T11:31:30.999Z</time></trkpt><trkpt lat="42.15955975212891" lon="13.668874562159893"><ele>947.6</ele><time>2026-05-02T11:31:32.999Z</time></trkpt><trkpt lat="42.15950151110681" lon="13.66897914906387"><ele>945.3999999999999</ele><time>2026-05-02T11:31:34.999Z</time></trkpt><trkpt lat="42.15949227035492" lon="13.66911062268666"><ele>943.1999999999999</ele><time>2026-05-02T11:31:36.999Z</time></trkpt><trkpt lat="42.159501789735536" lon="13.669247688231966"><ele>941.0</ele><time>2026-05-02T11:31:38.999Z</time></trkpt><trkpt lat="42.159501036817666" lon="13.669386056108626"><ele>939.5999999999999</ele><time>2026-05-02T11:31:40.999Z</time></trkpt><trkpt lat="42.15947854361159" lon="13.669568191172099"><ele>938.1999999999999</ele><time>2026-05-02T11:31:42.999Z</time></trkpt><trkpt lat="42.15946344662713" lon="13.669673248589957"><ele>936.8000000000001</ele><time>2026-05-02T11:31:43.999Z</time></trkpt><trkpt lat="42.15944902459202" lon="13.669766956085278"><ele>935.4000000000001</ele><time>2026-05-02T11:31:44.999Z</time></trkpt><trkpt lat="42.15939698079134" lon="13.669908938214382"><ele>934.0</ele><time>2026-05-02T11:31:46.999Z</time></trkpt><trkpt lat="42.15932647028573" lon="13.670025679724903"><ele>933.9999999999999</ele><time>2026-05-02T11:31:48.999Z</time></trkpt><trkpt lat="42.15927810004502" lon="13.670089938794492"><ele>934.0</ele><time>2026-05-02T11:31:49.999Z</time></trkpt><trkpt lat="42.15923930037605" lon="13.670162599073372"><ele>933.9999999999999</ele><time>2026-05-02T11:31:50.999Z</time></trkpt><trkpt lat="42.15920929969589" lon="13.670251089846795"><ele>933.9999999999999</ele><time>2026-05-02T11:31:51.999Z</time></trkpt><trkpt lat="42.15918678652797" lon="13.670345504424624"><ele>934.0</ele><time>2026-05-02T11:31:52.999Z</time></trkpt><trkpt lat="42.15916708012513" lon="13.670444461935773"><ele>933.9999999999999</ele><time>2026-05-02T11:31:53.999Z</time></trkpt><trkpt lat="42.1591549406386" lon="13.670548648079214"><ele>933.9999999999999</ele><time>2026-05-02T11:31:54.999Z</time></trkpt><trkpt lat="42.15915643997437" lon="13.670645871652123"><ele>935.3333333333333</ele><time>2026-05-02T11:31:55.999Z</time></trkpt><trkpt lat="42.15915677831455" lon="13.670733308320813"><ele>936.6666666666666</ele><time>2026-05-02T11:31:56.999Z</time></trkpt><trkpt lat="42.15916056540384" lon="13.670827544383364"><ele>938.0</ele><time>2026-05-02T11:31:57.999Z</time></trkpt><trkpt lat="42.15916761022655" lon="13.670932804880241"><ele>939.3333333333333</ele><time>2026-05-02T11:31:58.999Z</time></trkpt><trkpt lat="42.15917105703447" lon="13.671044107495561"><ele>940.6666666666666</ele><time>2026-05-02T11:31:59.999Z</time></trkpt><trkpt lat="42.1591762129863" lon="13.671165885026456"><ele>942.0</ele><time>2026-05-02T11:32:00.999Z</time></trkpt><trkpt lat="42.159182597233" lon="13.671276060943008"><ele>942.1666666666666</ele><time>2026-05-02T11:32:01.999Z</time></trkpt><trkpt lat="42.15919063899047" lon="13.67138406576168"><ele>942.3333333333333</ele><time>2026-05-02T11:32:02.999Z</time></trkpt><trkpt lat="42.159195436149744" lon="13.671502021982997"><ele>942.5</ele><time>2026-05-02T11:32:03.999Z</time></trkpt><trkpt lat="42.159202391296375" lon="13.67160533923324"><ele>942.6666666666666</ele><time>2026-05-02T11:32:04.999Z</time></trkpt><trkpt lat="42.15922853415847" lon="13.671762275174904"><ele>942.8333333333333</ele><time>2026-05-02T11:32:06.999Z</time></trkpt><trkpt lat="42.15926601662121" lon="13.67184735279649"><ele>943.0</ele><time>2026-05-02T11:32:07.999Z</time></trkpt><trkpt lat="42.15931544938481" lon="13.671917524418179"><ele>941.8</ele><time>2026-05-02T11:32:08.999Z</time></trkpt><trkpt lat="42.15937266033456" lon="13.671962707772229"><ele>940.5999999999999</ele><time>2026-05-02T11:32:09.999Z</time></trkpt><trkpt lat="42.1594753029561" lon="13.672014930453503"><ele>939.4000000000001</ele><time>2026-05-02T11:32:11.999Z</time></trkpt><trkpt lat="42.15955684097872" lon="13.672095780377305"><ele>938.2</ele><time>2026-05-02T11:32:13.999Z</time></trkpt><trkpt lat="42.15958186474858" lon="13.672247492220004"><ele>937.0</ele><time>2026-05-02T11:32:15.999Z</time></trkpt><trkpt lat="42.15958802454566" lon="13.672343762294418"><ele>936.9999999999999</ele><time>2026-05-02T11:32:16.999Z</time></trkpt><trkpt lat="42.159599589012416" lon="13.67243672040635"><ele>937.0</ele><time>2026-05-02T11:32:17.999Z</time></trkpt><trkpt lat="42.15962442811981" lon="13.672540098647506"><ele>937.0</ele><time>2026-05-02T11:32:18.999Z</time></trkpt><trkpt lat="42.1596543696505" lon="13.672641203062078"><ele>937.0</ele><time>2026-05-02T11:32:20Z</time></trkpt><trkpt lat="42.159698028362186" lon="13.672749471432176"><ele>936.9999999999999</ele><time>2026-05-02T11:32:21Z</time></trkpt><trkpt lat="42.1597391836167" lon="13.672855652612718"><ele>937.0</ele><time>2026-05-02T11:32:22Z</time></trkpt><trkpt lat="42.159779088931685" lon="13.672964872666459"><ele>935.4999999999999</ele><time>2026-05-02T11:32:23Z</time></trkpt><trkpt lat="42.159817674787355" lon="13.673061467912891"><ele>934.0</ele><time>2026-05-02T11:32:24Z</time></trkpt><trkpt lat="42.159860768543" lon="13.67316083390164"><ele>932.5</ele><time>2026-05-02T11:32:25Z</time></trkpt><trkpt lat="42.15990128512533" lon="13.673251113185227"><ele>931.0</ele><time>2026-05-02T11:32:26Z</time></trkpt><trkpt lat="42.15994820620175" lon="13.673346909084618"><ele>929.4999999999999</ele><time>2026-05-02T11:32:27Z</time></trkpt><trkpt lat="42.159989205358215" lon="13.67343432655938"><ele>928.0</ele><time>2026-05-02T11:32:28Z</time></trkpt><trkpt lat="42.16003610767104" lon="13.673541160430235"><ele>931.6666666666666</ele><time>2026-05-02T11:32:29Z</time></trkpt><trkpt lat="42.160075292822576" lon="13.673638515555428"><ele>935.3333333333333</ele><time>2026-05-02T11:32:30Z</time></trkpt><trkpt lat="42.160112503860326" lon="13.673746730891185"><ele>939.0</ele><time>2026-05-02T11:32:31Z</time></trkpt><trkpt lat="42.16014983975723" lon="13.673838846952622"><ele>942.6666666666667</ele><time>2026-05-02T11:32:32Z</time></trkpt><trkpt lat="42.16018660301451" lon="13.673932278382457"><ele>946.3333333333334</ele><time>2026-05-02T11:32:33Z</time></trkpt><trkpt lat="42.160215873920585" lon="13.674018138154565"><ele>950.0</ele><time>2026-05-02T11:32:34Z</time></trkpt><trkpt lat="42.16024772591995" lon="13.674099472089173"><ele>950.0000000000001</ele><time>2026-05-02T11:32:35Z</time></trkpt><trkpt lat="42.160285898630335" lon="13.674181533369275"><ele>950.0</ele><time>2026-05-02T11:32:36Z</time></trkpt><trkpt lat="42.160322688327206" lon="13.674261280068995"><ele>950.0</ele><time>2026-05-02T11:32:37Z</time></trkpt><trkpt lat="42.16039501858309" lon="13.674359752141205"><ele>950.0</ele><time>2026-05-02T11:32:38.999Z</time></trkpt><trkpt lat="42.160499566899624" lon="13.674403845314743"><ele>950.0000000000001</ele><time>2026-05-02T11:32:40.999Z</time></trkpt><trkpt lat="42.16056824655762" lon="13.67442427909795"><ele>950.0</ele><time>2026-05-02T11:32:41.999Z</time></trkpt><trkpt lat="42.160633058596765" lon="13.67444630336276"><ele>951.8333333333334</ele><time>2026-05-02T11:32:42.999Z</time></trkpt><trkpt lat="42.1607021006759" lon="13.674479430657426"><ele>953.6666666666667</ele><time>2026-05-02T11:32:43.999Z</time></trkpt><trkpt lat="42.160762309809066" lon="13.67453736041081"><ele>955.5</ele><time>2026-05-02T11:32:44.999Z</time></trkpt><trkpt lat="42.16080938987537" lon="13.674613083671169"><ele>957.3333333333333</ele><time>2026-05-02T11:32:45.999Z</time></trkpt><trkpt lat="42.16085440882073" lon="13.674691891911685"><ele>959.1666666666666</ele><time>2026-05-02T11:32:46.999Z</time></trkpt><trkpt lat="42.160903749338814" lon="13.674760109816178"><ele>961.0</ele><time>2026-05-02T11:32:47.999Z</time></trkpt><trkpt lat="42.160962067882686" lon="13.674863839797272"><ele>961.0</ele><time>2026-05-02T11:32:48.999Z</time></trkpt><trkpt lat="42.16102177443706" lon="13.674957748949662"><ele>960.9999999999999</ele><time>2026-05-02T11:32:49.999Z</time></trkpt><trkpt lat="42.16109051964683" lon="13.675059479887247"><ele>960.9999999999999</ele><time>2026-05-02T11:32:50.999Z</time></trkpt><trkpt lat="42.1611393009746" lon="13.675158020864892"><ele>961.0</ele><time>2026-05-02T11:32:51.999Z</time></trkpt><trkpt lat="42.16118060090695" lon="13.67526193259618"><ele>961.0</ele><time>2026-05-02T11:32:52.999Z</time></trkpt><trkpt lat="42.161226661041916" lon="13.67536654924883"><ele>962.1666666666666</ele><time>2026-05-02T11:32:53.999Z</time></trkpt><trkpt lat="42.16127982775403" lon="13.675455801275929"><ele>963.3333333333333</ele><time>2026-05-02T11:32:54.999Z</time></trkpt><trkpt lat="42.16131914724226" lon="13.675532300962242"><ele>964.5</ele><time>2026-05-02T11:32:55.999Z</time></trkpt><trkpt lat="42.16136737001319" lon="13.675630550085048"><ele>965.6666666666667</ele><time>2026-05-02T11:32:56.999Z</time></trkpt><trkpt lat="42.161422584283265" lon="13.675731332081815"><ele>966.8333333333334</ele><time>2026-05-02T11:32:57.999Z</time></trkpt><trkpt lat="42.16147378600592" lon="13.675831603147394"><ele>968.0</ele><time>2026-05-02T11:32:58.999Z</time></trkpt><trkpt lat="42.16150769770003" lon="13.675916446911689"><ele>968.0000000000001</ele><time>2026-05-02T11:32:59.999Z</time></trkpt><trkpt lat="42.16154234023286" lon="13.676059667200436"><ele>968.0</ele><time>2026-05-02T11:33:01.999Z</time></trkpt><trkpt lat="42.161567148395015" lon="13.676151617519597"><ele>968.0</ele><time>2026-05-02T11:33:02.999Z</time></trkpt><trkpt lat="42.16160438522166" lon="13.676290654800905"><ele>968.0</ele><time>2026-05-02T11:33:04.999Z</time></trkpt><trkpt lat="42.161625652491" lon="13.676373486575036"><ele>968.0000000000001</ele><time>2026-05-02T11:33:05.999Z</time></trkpt><trkpt lat="42.161646620263426" lon="13.676461843128003"><ele>968.0</ele><time>2026-05-02T11:33:06.999Z</time></trkpt><trkpt lat="42.161684302604975" lon="13.676606546468543"><ele>968.0</ele><time>2026-05-02T11:33:08.999Z</time></trkpt><trkpt lat="42.161727606153974" lon="13.676729833523943"><ele>968.0</ele><time>2026-05-02T11:33:10.999Z</time></trkpt><trkpt lat="42.161755782835634" lon="13.676855399151073"><ele>968.0</ele><time>2026-05-02T11:33:12.999Z</time></trkpt><trkpt lat="42.16176944691698" lon="13.676974981071467"><ele>968.0</ele><time>2026-05-02T11:33:14.999Z</time></trkpt><trkpt lat="42.16178255260127" lon="13.677125348741837"><ele>968.0</ele><time>2026-05-02T11:33:16.999Z</time></trkpt><trkpt lat="42.1617903017254" lon="13.677211498395843"><ele>966.25</ele><time>2026-05-02T11:33:17.999Z</time></trkpt><trkpt lat="42.16180836404949" lon="13.677373813331862"><ele>964.5</ele><time>2026-05-02T11:33:19.999Z</time></trkpt><trkpt lat="42.16182430333852" lon="13.677518545904206"><ele>962.75</ele><time>2026-05-02T11:33:21.999Z</time></trkpt><trkpt lat="42.16183039545971" lon="13.677659412131048"><ele>961.0</ele><time>2026-05-02T11:33:23.999Z</time></trkpt><trkpt lat="42.16183448199215" lon="13.677818601152005"><ele>958.8333333333333</ele><time>2026-05-02T11:33:25.999Z</time></trkpt><trkpt lat="42.161836980742606" lon="13.677971689575575"><ele>956.6666666666666</ele><time>2026-05-02T11:33:27.999Z</time></trkpt><trkpt lat="42.161842389088775" lon="13.678061923727231"><ele>954.5</ele><time>2026-05-02T11:33:28.999Z</time></trkpt><trkpt lat="42.16184797185124" lon="13.678155468175754"><ele>952.3333333333333</ele><time>2026-05-02T11:33:29.999Z</time></trkpt><trkpt lat="42.161856058104675" lon="13.678249851548022"><ele>950.1666666666666</ele><time>2026-05-02T11:33:30.999Z</time></trkpt><trkpt lat="42.1618622281061" lon="13.678340457595162"><ele>948.0</ele><time>2026-05-02T11:33:31.999Z</time></trkpt><trkpt lat="42.16187055481496" lon="13.678433883835776"><ele>948.0</ele><time>2026-05-02T11:33:32.999Z</time></trkpt><trkpt lat="42.16187621637043" lon="13.678523777257032"><ele>948.0</ele><time>2026-05-02T11:33:33.999Z</time></trkpt><trkpt lat="42.1618802405749" lon="13.67861255644603"><ele>948.0</ele><time>2026-05-02T11:33:34.999Z</time></trkpt><trkpt lat="42.16189006523271" lon="13.678760102639833"><ele>948.0</ele><time>2026-05-02T11:33:36.999Z</time></trkpt><trkpt lat="42.16189063469449" lon="13.678904626863387"><ele>948.0</ele><time>2026-05-02T11:33:38.999Z</time></trkpt><trkpt lat="42.16188158922219" lon="13.679057038876326"><ele>946.5714285714284</ele><time>2026-05-02T11:33:40.999Z</time></trkpt><trkpt lat="42.16187039737256" lon="13.679141413567695"><ele>945.1428571428571</ele><time>2026-05-02T11:33:41.999Z</time></trkpt><trkpt lat="42.161854908130074" lon="13.679251842096157"><ele>943.7142857142857</ele><time>2026-05-02T11:33:42.999Z</time></trkpt><trkpt lat="42.161828928948765" lon="13.679349643824922"><ele>942.2857142857142</ele><time>2026-05-02T11:33:43.999Z</time></trkpt><trkpt lat="42.16181047065592" lon="13.679453134761161"><ele>940.8571428571429</ele><time>2026-05-02T11:33:44.999Z</time></trkpt><trkpt lat="42.16179526316785" lon="13.679549826403274"><ele>939.4285714285714</ele><time>2026-05-02T11:33:45.999Z</time></trkpt><trkpt lat="42.161779402199585" lon="13.679638663650888"><ele>938.0</ele><time>2026-05-02T11:33:46.999Z</time></trkpt><trkpt lat="42.16174834604729" lon="13.679773367754308"><ele>936.6666666666667</ele><time>2026-05-02T11:33:48.999Z</time></trkpt><trkpt lat="42.16174722876445" lon="13.679883524798505"><ele>935.3333333333334</ele><time>2026-05-02T11:33:50.999Z</time></trkpt><trkpt lat="42.161734086304115" lon="13.679980288192015"><ele>934.0</ele><time>2026-05-02T11:33:52.999Z</time></trkpt><trkpt lat="42.16169436916112" lon="13.68007741728526"><ele>932.6666666666667</ele><time>2026-05-02T11:33:54.999Z</time></trkpt><trkpt lat="42.161623582198544" lon="13.68012640395041"><ele>931.3333333333334</ele><time>2026-05-02T11:33:57.999Z</time></trkpt><trkpt lat="42.16156655233451" lon="13.680046709522557"><ele>930.0</ele><time>2026-05-02T11:34:04.999Z</time></trkpt><trkpt lat="42.161539176907795" lon="13.679883038029633"><ele>930.8571428571429</ele><time>2026-05-02T11:34:06.999Z</time></trkpt><trkpt lat="42.16153074622487" lon="13.679797745994698"><ele>931.7142857142858</ele><time>2026-05-02T11:34:07.999Z</time></trkpt><trkpt lat="42.16151733932852" lon="13.679710840390566"><ele>932.5714285714287</ele><time>2026-05-02T11:34:08.999Z</time></trkpt><trkpt lat="42.16150113388715" lon="13.679627557745391"><ele>933.4285714285714</ele><time>2026-05-02T11:34:09.999Z</time></trkpt><trkpt lat="42.161491661061625" lon="13.679500606639705"><ele>934.2857142857144</ele><time>2026-05-02T11:34:11.999Z</time></trkpt><trkpt lat="42.16148242613676" lon="13.679387091054076"><ele>935.1428571428572</ele><time>2026-05-02T11:34:13.999Z</time></trkpt><trkpt lat="42.161461697849724" lon="13.679300519977936"><ele>936.0</ele><time>2026-05-02T11:34:15.999Z</time></trkpt><trkpt lat="42.16140484737981" lon="13.679242401092893"><ele>936.0</ele><time>2026-05-02T11:34:17.999Z</time></trkpt><trkpt lat="42.16129892804328" lon="13.6792419566393"><ele>936.0</ele><time>2026-05-02T11:34:19.999Z</time></trkpt><trkpt lat="42.16123749405071" lon="13.67926453200772"><ele>936.0</ele><time>2026-05-02T11:34:20.999Z</time></trkpt><trkpt lat="42.16116859696605" lon="13.67928832562295"><ele>936.0</ele><time>2026-05-02T11:34:21.999Z</time></trkpt><trkpt lat="42.161097166378234" lon="13.679317673052513"><ele>936.0</ele><time>2026-05-02T11:34:22.999Z</time></trkpt><trkpt lat="42.16103354833762" lon="13.679350994605773"><ele>936.0</ele><time>2026-05-02T11:34:23.999Z</time></trkpt><trkpt lat="42.160966583218595" lon="13.67938409710909"><ele>936.0</ele><time>2026-05-02T11:34:24.999Z</time></trkpt><trkpt lat="42.16089893478648" lon="13.679405667478788"><ele>936.0000000000001</ele><time>2026-05-02T11:34:25.999Z</time></trkpt><trkpt lat="42.16083541037642" lon="13.67941983556109"><ele>936.0</ele><time>2026-05-02T11:34:26.999Z</time></trkpt><trkpt lat="42.160768308760694" lon="13.679421751454488"><ele>936.0</ele><time>2026-05-02T11:34:27.999Z</time></trkpt><trkpt lat="42.160700208536475" lon="13.679425857965668"><ele>936.0000000000001</ele><time>2026-05-02T11:34:28.999Z</time></trkpt><trkpt lat="42.16062372040764" lon="13.679437645978071"><ele>936.0</ele><time>2026-05-02T11:34:29.999Z</time></trkpt><trkpt lat="42.16054488761063" lon="13.67945117659731"><ele>936.0</ele><time>2026-05-02T11:34:30.999Z</time></trkpt><trkpt lat="42.16047856939175" lon="13.679469949398271"><ele>932.1666666666666</ele><time>2026-05-02T11:34:31.999Z</time></trkpt><trkpt lat="42.16041679990006" lon="13.67950167139231"><ele>928.3333333333333</ele><time>2026-05-02T11:34:32.999Z</time></trkpt><trkpt lat="42.160302972869026" lon="13.67958090935978"><ele>924.5</ele><time>2026-05-02T11:34:34.999Z</time></trkpt><trkpt lat="42.16024238565878" lon="13.679620388943002"><ele>920.6666666666666</ele><time>2026-05-02T11:34:35.999Z</time></trkpt><trkpt lat="42.16017964395709" lon="13.679655777795482"><ele>916.8333333333333</ele><time>2026-05-02T11:34:36.999Z</time></trkpt><trkpt lat="42.1601205088309" lon="13.67968785266449"><ele>913.0</ele><time>2026-05-02T11:34:37.999Z</time></trkpt><trkpt lat="42.1600189609395" lon="13.679744840638355"><ele>913.0</ele><time>2026-05-02T11:34:39.999Z</time></trkpt><trkpt lat="42.15993256770471" lon="13.679816856008856"><ele>913.0</ele><time>2026-05-02T11:34:41.999Z</time></trkpt><trkpt lat="42.15984869388425" lon="13.679928237216188"><ele>913.0</ele><time>2026-05-02T11:34:43.999Z</time></trkpt><trkpt lat="42.15978580669511" lon="13.680035871905439"><ele>913.0</ele><time>2026-05-02T11:34:45.999Z</time></trkpt><trkpt lat="42.159724108194034" lon="13.680086636833552"><ele>913.0</ele><time>2026-05-02T11:34:47.999Z</time></trkpt><trkpt lat="42.15963060370708" lon="13.680047628593979"><ele>909.4285714285713</ele><time>2026-05-02T11:34:50.999Z</time></trkpt><trkpt lat="42.15958224721309" lon="13.679984033343974"><ele>905.8571428571429</ele><time>2026-05-02T11:34:52.999Z</time></trkpt><trkpt lat="42.159536052563745" lon="13.679901507071936"><ele>902.2857142857142</ele><time>2026-05-02T11:34:58.999Z</time></trkpt><trkpt lat="42.159490684449835" lon="13.67982295470123"><ele>898.7142857142857</ele><time>2026-05-02T11:35:02.999Z</time></trkpt><trkpt lat="42.159447235554154" lon="13.679736087103947"><ele>895.1428571428571</ele><time>2026-05-02T11:35:07.999Z</time></trkpt><trkpt lat="42.15941584034291" lon="13.679659592589385"><ele>891.5714285714286</ele><time>2026-05-02T11:35:11.999Z</time></trkpt><trkpt lat="42.159386983773366" lon="13.679573881409372"><ele>888.0</ele><time>2026-05-02T11:35:17.999Z</time></trkpt><trkpt lat="42.159346310881" lon="13.679475758656373"><ele>889.5</ele><time>2026-05-02T11:35:21.999Z</time></trkpt><trkpt lat="42.15932353302384" lon="13.679385479790984"><ele>891.0</ele><time>2026-05-02T11:35:24.999Z</time></trkpt><trkpt lat="42.15931075772978" lon="13.679298230923724"><ele>892.5</ele><time>2026-05-02T11:35:27.999Z</time></trkpt><trkpt lat="42.15928446616388" lon="13.679202364824345"><ele>894.0</ele><time>2026-05-02T11:35:30.999Z</time></trkpt><trkpt lat="42.15926291029131" lon="13.679101460149429"><ele>895.5</ele><time>2026-05-02T11:35:32.999Z</time></trkpt><trkpt lat="42.159237165501516" lon="13.679000065669287"><ele>897.0</ele><time>2026-05-02T11:35:34.999Z</time></trkpt><trkpt lat="42.159202695991" lon="13.678889976296349"><ele>897.0</ele><time>2026-05-02T11:35:36.999Z</time></trkpt><trkpt lat="42.159168785528315" lon="13.678786671986465"><ele>897.0</ele><time>2026-05-02T11:35:38.999Z</time></trkpt><trkpt lat="42.15913873174132" lon="13.678666061751024"><ele>897.0</ele><time>2026-05-02T11:35:40.999Z</time></trkpt><trkpt lat="42.159098717456985" lon="13.678567018964209"><ele>897.0</ele><time>2026-05-02T11:35:42.999Z</time></trkpt><trkpt lat="42.159063773796646" lon="13.67847044878349"><ele>897.0</ele><time>2026-05-02T11:35:44.999Z</time></trkpt><trkpt lat="42.15902110433184" lon="13.678346374774163"><ele>897.0</ele><time>2026-05-02T11:35:46.999Z</time></trkpt><trkpt lat="42.15897904847071" lon="13.678189608520123"><ele>892.6666666666666</ele><time>2026-05-02T11:35:48.999Z</time></trkpt><trkpt lat="42.158955043469994" lon="13.678100254397606"><ele>888.3333333333333</ele><time>2026-05-02T11:35:49.999Z</time></trkpt><trkpt lat="42.15893352099866" lon="13.678016590338245"><ele>884.0</ele><time>2026-05-02T11:35:50.999Z</time></trkpt><trkpt lat="42.1589108182054" lon="13.67793468697209"><ele>879.6666666666666</ele><time>2026-05-02T11:35:51.999Z</time></trkpt><trkpt lat="42.15888753169655" lon="13.677852499842515"><ele>875.3333333333333</ele><time>2026-05-02T11:35:52.999Z</time></trkpt><trkpt lat="42.1588367572627" lon="13.677711567440083"><ele>871.0</ele><time>2026-05-02T11:35:54.999Z</time></trkpt><trkpt lat="42.15878933327301" lon="13.677589557333679"><ele>871.0</ele><time>2026-05-02T11:35:56.999Z</time></trkpt><trkpt lat="42.158751921852925" lon="13.677445558757148"><ele>870.9999999999999</ele><time>2026-05-02T11:35:58.999Z</time></trkpt><trkpt lat="42.15871039496426" lon="13.677325170779586"><ele>870.9999999999999</ele><time>2026-05-02T11:36:00.999Z</time></trkpt><trkpt lat="42.15867101346176" lon="13.677227157534503"><ele>871.0</ele><time>2026-05-02T11:36:02.999Z</time></trkpt><trkpt lat="42.158627352426045" lon="13.677132482032372"><ele>871.0</ele><time>2026-05-02T11:36:04.999Z</time></trkpt><trkpt lat="42.158583039280764" lon="13.677026453241728"><ele>874.0</ele><time>2026-05-02T11:36:06.999Z</time></trkpt><trkpt lat="42.158535291006615" lon="13.676933548965113"><ele>876.9999999999999</ele><time>2026-05-02T11:36:08.999Z</time></trkpt><trkpt lat="42.158486843976235" lon="13.67683151365779"><ele>879.9999999999999</ele><time>2026-05-02T11:36:10.999Z</time></trkpt><trkpt lat="42.15843113146472" lon="13.676724681914381"><ele>883.0</ele><time>2026-05-02T11:36:12.999Z</time></trkpt><trkpt lat="42.158378447897356" lon="13.67662411333992"><ele>886.0</ele><time>2026-05-02T11:36:14.999Z</time></trkpt><trkpt lat="42.15832062969393" lon="13.676520154362734"><ele>885.9999999999999</ele><time>2026-05-02T11:36:16.999Z</time></trkpt><trkpt lat="42.158258372364116" lon="13.676412841095722"><ele>886.0</ele><time>2026-05-02T11:36:18.999Z</time></trkpt><trkpt lat="42.158219519944076" lon="13.676343663910336"><ele>886.0</ele><time>2026-05-02T11:36:19.999Z</time></trkpt><trkpt lat="42.15817625315136" lon="13.676263136211757"><ele>886.0</ele><time>2026-05-02T11:36:20.999Z</time></trkpt><trkpt lat="42.15813767014343" lon="13.676187166567393"><ele>885.9999999999999</ele><time>2026-05-02T11:36:21.999Z</time></trkpt><trkpt lat="42.158078614795386" lon="13.676057862455608"><ele>886.0</ele><time>2026-05-02T11:36:23.998Z</time></trkpt><trkpt lat="42.15801960944205" lon="13.675933193449815"><ele>879.8333333333333</ele><time>2026-05-02T11:36:25.998Z</time></trkpt><trkpt lat="42.1579660105191" lon="13.675820173557778"><ele>873.6666666666666</ele><time>2026-05-02T11:36:27.998Z</time></trkpt><trkpt lat="42.157923395665755" lon="13.67572362328474"><ele>867.5</ele><time>2026-05-02T11:36:29.998Z</time></trkpt><trkpt lat="42.157875154050494" lon="13.675628811879024"><ele>861.3333333333333</ele><time>2026-05-02T11:36:31.999Z</time></trkpt><trkpt lat="42.15782921602801" lon="13.67555831821153"><ele>855.1666666666666</ele><time>2026-05-02T11:36:33.999Z</time></trkpt><trkpt lat="42.15778480370811" lon="13.675469954975322"><ele>849.0</ele><time>2026-05-02T11:36:36.999Z</time></trkpt><trkpt lat="42.15774718560835" lon="13.675381385102305"><ele>849.0000000000001</ele><time>2026-05-02T11:44:00.999Z</time></trkpt><trkpt lat="42.15771577495185" lon="13.675297760763138"><ele>849.0</ele><time>2026-05-02T11:44:04.999Z</time></trkpt><trkpt lat="42.15768253406597" lon="13.675224092969511"><ele>849.0</ele><time>2026-05-02T11:44:07.999Z</time></trkpt><trkpt lat="42.15764901840703" lon="13.675134254432795"><ele>849.0</ele><time>2026-05-02T11:44:10.999Z</time></trkpt><trkpt lat="42.15762776455242" lon="13.675049648478849"><ele>849.0</ele><time>2026-05-02T11:44:13.999Z</time></trkpt><trkpt lat="42.15760346314336" lon="13.674941426830282"><ele>849.0000000000001</ele><time>2026-05-02T11:44:18.999Z</time></trkpt><trkpt lat="42.1575966799335" lon="13.674846765135477"><ele>849.0</ele><time>2026-05-02T11:44:21.999Z</time></trkpt><trkpt lat="42.15760084681837" lon="13.674746084944255"><ele>849.3333333333334</ele><time>2026-05-02T11:44:24.999Z</time></trkpt><trkpt lat="42.15760369351567" lon="13.674632664753606"><ele>849.6666666666667</ele><time>2026-05-02T11:44:28.999Z</time></trkpt><trkpt lat="42.15760146539376" lon="13.674514649941594"><ele>850.0</ele><time>2026-05-02T11:44:32.999Z</time></trkpt><trkpt lat="42.157617676438385" lon="13.674416934171544"><ele>850.3333333333334</ele><time>2026-05-02T11:44:35.999Z</time></trkpt><trkpt lat="42.15766619454824" lon="13.674339352259558"><ele>850.6666666666667</ele><time>2026-05-02T11:44:38.999Z</time></trkpt><trkpt lat="42.15766608093376" lon="13.674246475310872"><ele>851.0</ele><time>2026-05-02T11:44:43.999Z</time></trkpt><trkpt lat="42.157601362281646" lon="13.674237108693577"><ele>851.0000000000001</ele><time>2026-05-02T11:44:47.999Z</time></trkpt><trkpt lat="42.15755162663172" lon="13.674315567913172"><ele>851.0</ele><time>2026-05-02T11:44:49.999Z</time></trkpt><trkpt lat="42.15750692083565" lon="13.674403487710613"><ele>851.0</ele><time>2026-05-02T11:44:51.999Z</time></trkpt><trkpt lat="42.157461291629474" lon="13.674497395687057"><ele>851.0</ele><time>2026-05-02T11:44:54.999Z</time></trkpt><trkpt lat="42.15742043204718" lon="13.674602899470067"><ele>851.0000000000001</ele><time>2026-05-02T11:44:58Z</time></trkpt><trkpt lat="42.157397571581456" lon="13.674711582338121"><ele>851.0</ele><time>2026-05-02T11:45:01Z</time></trkpt><trkpt lat="42.1573838782216" lon="13.674810352074697"><ele>851.5714285714286</ele><time>2026-05-02T11:45:04Z</time></trkpt><trkpt lat="42.15737373666027" lon="13.67491157474939"><ele>852.1428571428571</ele><time>2026-05-02T11:45:07Z</time></trkpt><trkpt lat="42.1573668845868" lon="13.675003758214197"><ele>852.7142857142858</ele><time>2026-05-02T11:45:11Z</time></trkpt><trkpt lat="42.15731426740457" lon="13.6750664910525"><ele>853.2857142857142</ele><time>2026-05-02T11:45:16Z</time></trkpt><trkpt lat="42.15725746045675" lon="13.675008620954982"><ele>853.8571428571428</ele><time>2026-05-02T11:45:20Z</time></trkpt><trkpt lat="42.157224793619115" lon="13.674904839436309"><ele>854.4285714285714</ele><time>2026-05-02T11:45:24Z</time></trkpt><trkpt lat="42.15720671857543" lon="13.67481054524315"><ele>855.0</ele><time>2026-05-02T11:45:27Z</time></trkpt><trkpt lat="42.157193909461604" lon="13.674685301405166"><ele>850.1428571428572</ele><time>2026-05-02T11:45:30Z</time></trkpt><trkpt lat="42.157187068719644" lon="13.674571032457047"><ele>845.2857142857142</ele><time>2026-05-02T11:45:33Z</time></trkpt><trkpt lat="42.157186875826476" lon="13.674469068834325"><ele>840.4285714285714</ele><time>2026-05-02T11:45:37Z</time></trkpt><trkpt lat="42.15716993733703" lon="13.67437007032384"><ele>835.5714285714287</ele><time>2026-05-02T11:45:42.999Z</time></trkpt><trkpt lat="42.15716997437131" lon="13.674277050253007"><ele>830.7142857142858</ele><time>2026-05-02T11:45:46.999Z</time></trkpt><trkpt lat="42.1571824301662" lon="13.674184269063463"><ele>825.8571428571429</ele><time>2026-05-02T11:45:52.999Z</time></trkpt><trkpt lat="42.15720581532271" lon="13.674100284981998"><ele>821.0</ele><time>2026-05-02T11:45:55.999Z</time></trkpt><trkpt lat="42.15720529314759" lon="13.674003581898273"><ele>821.0000000000001</ele><time>2026-05-02T11:46:02.999Z</time></trkpt><trkpt lat="42.15715092805187" lon="13.673942507376243"><ele>821.0</ele><time>2026-05-02T11:46:06.999Z</time></trkpt><trkpt lat="42.15708823919259" lon="13.673922655173577"><ele>821.0</ele><time>2026-05-02T11:46:12.999Z</time></trkpt><trkpt lat="42.15702242790112" lon="13.673957253064325"><ele>821.0</ele><time>2026-05-02T11:46:23.999Z</time></trkpt><trkpt lat="42.15696246970013" lon="13.674009980118914"><ele>821.0</ele><time>2026-05-02T11:46:46.999Z</time></trkpt><trkpt lat="42.156916392917296" lon="13.674075731707921"><ele>821.0000000000001</ele><time>2026-05-02T11:46:51.999Z</time></trkpt><trkpt lat="42.15686745975567" lon="13.674146415605053"><ele>821.0</ele><time>2026-05-02T11:46:55.999Z</time></trkpt><trkpt lat="42.15684071599239" lon="13.67422869204709"><ele>821.0000000000001</ele><time>2026-05-02T11:46:58.999Z</time></trkpt><trkpt lat="42.15685757614197" lon="13.674323745028584"><ele>821.0</ele><time>2026-05-02T11:47:26.999Z</time></trkpt><trkpt lat="42.15686388958723" lon="13.674420789818944"><ele>821.0</ele><time>2026-05-02T11:51:01.999Z</time></trkpt><trkpt lat="42.15684500605976" lon="13.674510294852702"><ele>821.0</ele><time>2026-05-02T11:51:04.999Z</time></trkpt><trkpt lat="42.156821644516356" lon="13.674600554302824"><ele>821.0</ele><time>2026-05-02T11:51:06.999Z</time></trkpt><trkpt lat="42.15679445924757" lon="13.674699876613793"><ele>821.0000000000001</ele><time>2026-05-02T11:51:08.999Z</time></trkpt><trkpt lat="42.15676634994607" lon="13.674777717798463"><ele>821.0</ele><time>2026-05-02T11:52:12.999Z</time></trkpt><trkpt lat="42.15673291045581" lon="13.674875196293213"><ele>820.7142857142858</ele><time>2026-05-02T11:52:16.999Z</time></trkpt><trkpt lat="42.15669840706897" lon="13.674970239083784"><ele>820.4285714285714</ele><time>2026-05-02T11:52:20.999Z</time></trkpt><trkpt lat="42.15667009873377" lon="13.675050055230587"><ele>820.1428571428571</ele><time>2026-05-02T11:52:23.999Z</time></trkpt><trkpt lat="42.156638243962384" lon="13.675127717929355"><ele>819.8571428571429</ele><time>2026-05-02T11:52:26.999Z</time></trkpt><trkpt lat="42.156593635192365" lon="13.675238482817408"><ele>819.5714285714286</ele><time>2026-05-02T11:52:29.999Z</time></trkpt><trkpt lat="42.15656965258648" lon="13.675323319530591"><ele>819.2857142857143</ele><time>2026-05-02T11:52:31.999Z</time></trkpt><trkpt lat="42.156544611170744" lon="13.675411151113966"><ele>819.0</ele><time>2026-05-02T11:52:35.999Z</time></trkpt><trkpt lat="42.156521985356626" lon="13.675501555400107"><ele>819.0</ele><time>2026-05-02T11:52:38.999Z</time></trkpt><trkpt lat="42.156504343326915" lon="13.675585556065528"><ele>819.0</ele><time>2026-05-02T11:52:40.999Z</time></trkpt><trkpt lat="42.15648183618427" lon="13.675681642500658"><ele>819.0</ele><time>2026-05-02T11:52:43.999Z</time></trkpt><trkpt lat="42.156461407329665" lon="13.675770940902702"><ele>819.0</ele><time>2026-05-02T11:52:45.999Z</time></trkpt><trkpt lat="42.156417977506024" lon="13.675880129434313"><ele>819.0</ele><time>2026-05-02T11:52:48.999Z</time></trkpt><trkpt lat="42.15637490564325" lon="13.675990202745957"><ele>819.0</ele><time>2026-05-02T11:52:53.999Z</time></trkpt><trkpt lat="42.15639256492349" lon="13.676146112133406"><ele>818.5</ele><time>2026-05-02T11:52:55.999Z</time></trkpt><trkpt lat="42.15639118571434" lon="13.676236295607172"><ele>818.0</ele><time>2026-05-02T11:52:56.999Z</time></trkpt><trkpt lat="42.15637297844529" lon="13.676340167016615"><ele>817.5</ele><time>2026-05-02T11:52:57.999Z</time></trkpt><trkpt lat="42.15638311850049" lon="13.67645089033949"><ele>817.0</ele><time>2026-05-02T11:52:58.999Z</time></trkpt><trkpt lat="42.15640130353185" lon="13.676569031003865"><ele>816.5</ele><time>2026-05-02T11:52:59.999Z</time></trkpt><trkpt lat="42.15641839258763" lon="13.67667692285644"><ele>816.0</ele><time>2026-05-02T11:53:00.999Z</time></trkpt><trkpt lat="42.15643130861773" lon="13.676778258735778"><ele>816.0</ele><time>2026-05-02T11:53:01.999Z</time></trkpt><trkpt lat="42.156442853401536" lon="13.676868836060322"><ele>816.0</ele><time>2026-05-02T11:53:02.999Z</time></trkpt><trkpt lat="42.156503376187466" lon="13.676983718176766"><ele>816.0</ele><time>2026-05-02T11:53:04.999Z</time></trkpt><trkpt lat="42.15655896273843" lon="13.677092898771344"><ele>816.0</ele><time>2026-05-02T11:53:52.999Z</time></trkpt><trkpt lat="42.15659846072385" lon="13.677161001610033"><ele>816.0</ele><time>2026-05-02T11:53:53.999Z</time></trkpt><trkpt lat="42.15664192312959" lon="13.6772350302685"><ele>816.0</ele><time>2026-05-02T11:53:54.999Z</time></trkpt><trkpt lat="42.15665483049406" lon="13.67732791942678"><ele>810.1666666666666</ele><time>2026-05-02T11:53:55.999Z</time></trkpt><trkpt lat="42.15670803177668" lon="13.677383566713107"><ele>804.3333333333333</ele><time>2026-05-02T11:53:56.999Z</time></trkpt><trkpt lat="42.15675659993052" lon="13.677534933702844"><ele>798.5</ele><time>2026-05-02T11:53:58.999Z</time></trkpt><trkpt lat="42.156774508100995" lon="13.677621366294776"><ele>792.6666666666666</ele><time>2026-05-02T11:53:59.999Z</time></trkpt><trkpt lat="42.15679231371698" lon="13.677717598895477"><ele>786.8333333333333</ele><time>2026-05-02T11:54:00.999Z</time></trkpt><trkpt lat="42.1568139693958" lon="13.677832202974379"><ele>781.0</ele><time>2026-05-02T11:54:01.999Z</time></trkpt><trkpt lat="42.156865575237006" lon="13.677943761810292"><ele>779.5</ele><time>2026-05-02T11:54:02.999Z</time></trkpt><trkpt lat="42.15687957231183" lon="13.678096101486442"><ele>778.0</ele><time>2026-05-02T11:54:03.999Z</time></trkpt><trkpt lat="42.15691782226029" lon="13.678236898600868"><ele>776.5</ele><time>2026-05-02T11:54:04.999Z</time></trkpt><trkpt lat="42.156957997062655" lon="13.678388679384264"><ele>775.0</ele><time>2026-05-02T11:54:05.999Z</time></trkpt><trkpt lat="42.15699259374383" lon="13.678533353780562"><ele>775.6</ele><time>2026-05-02T11:54:06.999Z</time></trkpt><trkpt lat="42.157021317521" lon="13.678677073355594"><ele>776.2</ele><time>2026-05-02T11:54:07.999Z</time></trkpt><trkpt lat="42.15705024557526" lon="13.678817642862464"><ele>776.8</ele><time>2026-05-02T11:54:08.999Z</time></trkpt><trkpt lat="42.15708210016607" lon="13.678953031187453"><ele>777.4</ele><time>2026-05-02T11:54:09.999Z</time></trkpt><trkpt lat="42.15711881643945" lon="13.679073176210222"><ele>778.0</ele><time>2026-05-02T11:54:10.999Z</time></trkpt><trkpt lat="42.157157740682926" lon="13.679185973162996"><ele>778.0</ele><time>2026-05-02T11:54:11.999Z</time></trkpt><trkpt lat="42.15719919470174" lon="13.679287094013747"><ele>778.0</ele><time>2026-05-02T11:54:12.999Z</time></trkpt><trkpt lat="42.15723214249703" lon="13.67939686503482"><ele>778.0</ele><time>2026-05-02T11:54:13.999Z</time></trkpt><trkpt lat="42.15723806613459" lon="13.679519778601419"><ele>778.0</ele><time>2026-05-02T11:54:14.999Z</time></trkpt><trkpt lat="42.1572194642093" lon="13.679643452513748"><ele>778.0</ele><time>2026-05-02T11:54:15.999Z</time></trkpt><trkpt lat="42.15719630978211" lon="13.67976976075033"><ele>775.2</ele><time>2026-05-02T11:54:16.999Z</time></trkpt><trkpt lat="42.15717332086317" lon="13.679904453878217"><ele>772.4</ele><time>2026-05-02T11:54:17.999Z</time></trkpt><trkpt lat="42.15715249268509" lon="13.680035291659808"><ele>769.6</ele><time>2026-05-02T11:54:18.999Z</time></trkpt><trkpt lat="42.15713765284906" lon="13.68016675775915"><ele>766.8000000000001</ele><time>2026-05-02T11:54:19.999Z</time></trkpt><trkpt lat="42.15711960872182" lon="13.68030323324658"><ele>764.0</ele><time>2026-05-02T11:54:20.999Z</time></trkpt><trkpt lat="42.15709137318665" lon="13.680445557297489"><ele>759.25</ele><time>2026-05-02T11:54:21.999Z</time></trkpt><trkpt lat="42.157047268158315" lon="13.68058531567873"><ele>754.5</ele><time>2026-05-02T11:54:22.999Z</time></trkpt><trkpt lat="42.15699457558661" lon="13.680722550417286"><ele>749.75</ele><time>2026-05-02T11:54:23.999Z</time></trkpt><trkpt lat="42.15693584598229" lon="13.680858559198484"><ele>745.0</ele><time>2026-05-02T11:54:24.999Z</time></trkpt><trkpt lat="42.15686924909975" lon="13.68099187107203"><ele>743.5</ele><time>2026-05-02T11:54:25.999Z</time></trkpt><trkpt lat="42.15679554235827" lon="13.681115689957489"><ele>742.0</ele><time>2026-05-02T11:54:26.999Z</time></trkpt><trkpt lat="42.15671166646397" lon="13.681230612438318"><ele>740.5</ele><time>2026-05-02T11:54:27.999Z</time></trkpt><trkpt lat="42.156626474340925" lon="13.68134406273081"><ele>739.0</ele><time>2026-05-02T11:54:28.999Z</time></trkpt><trkpt lat="42.15654170278493" lon="13.681457186898953"><ele>737.25</ele><time>2026-05-02T11:54:29.999Z</time></trkpt><trkpt lat="42.1564559180913" lon="13.681575364787662"><ele>735.5</ele><time>2026-05-02T11:54:30.999Z</time></trkpt><trkpt lat="42.15636112219594" lon="13.681680656205526"><ele>733.75</ele><time>2026-05-02T11:54:31.999Z</time></trkpt><trkpt lat="42.15625815590764" lon="13.681781106568955"><ele>732.0</ele><time>2026-05-02T11:54:32.999Z</time></trkpt><trkpt lat="42.15615331370652" lon="13.68187910706999"><ele>731.25</ele><time>2026-05-02T11:54:33.999Z</time></trkpt><trkpt lat="42.15605172465895" lon="13.681982477764567"><ele>730.5</ele><time>2026-05-02T11:54:34.999Z</time></trkpt><trkpt lat="42.15593986696908" lon="13.68207290795933"><ele>729.75</ele><time>2026-05-02T11:54:35.999Z</time></trkpt><trkpt lat="42.15583708212477" lon="13.682172132390752"><ele>729.0</ele><time>2026-05-02T11:54:36.999Z</time></trkpt><trkpt lat="42.15573780736019" lon="13.682271778076482"><ele>725.5</ele><time>2026-05-02T11:54:37.999Z</time></trkpt><trkpt lat="42.155643871072805" lon="13.682356912339468"><ele>722.0</ele><time>2026-05-02T11:54:38.999Z</time></trkpt><trkpt lat="42.15554971696012" lon="13.682440176791117"><ele>718.5</ele><time>2026-05-02T11:54:39.999Z</time></trkpt><trkpt lat="42.15545477711392" lon="13.682518863763654"><ele>715.0</ele><time>2026-05-02T11:54:40.999Z</time></trkpt><trkpt lat="42.15535530700375" lon="13.682601449521787"><ele>715.0</ele><time>2026-05-02T11:54:41.999Z</time></trkpt><trkpt lat="42.1552637905162" lon="13.682678056173236"><ele>715.0</ele><time>2026-05-02T11:54:42.999Z</time></trkpt><trkpt lat="42.15517604122698" lon="13.682761336614611"><ele>715.0</ele><time>2026-05-02T11:54:43.999Z</time></trkpt><trkpt lat="42.15509273199546" lon="13.682852489306654"><ele>715.0</ele><time>2026-05-02T11:54:44.999Z</time></trkpt><trkpt lat="42.15501205859695" lon="13.682946586357641"><ele>715.0</ele><time>2026-05-02T11:54:45.999Z</time></trkpt><trkpt lat="42.15493571318735" lon="13.683051369330517"><ele>712.8</ele><time>2026-05-02T11:54:46.999Z</time></trkpt><trkpt lat="42.154838538625974" lon="13.683122461111202"><ele>710.6</ele><time>2026-05-02T11:54:47.999Z</time></trkpt><trkpt lat="42.15476632034446" lon="13.683210632616865"><ele>708.4000000000001</ele><time>2026-05-02T11:54:48.999Z</time></trkpt><trkpt lat="42.15470540496593" lon="13.683313294972503"><ele>706.2</ele><time>2026-05-02T11:54:49.999Z</time></trkpt><trkpt lat="42.154623840442156" lon="13.683380222290292"><ele>704.0</ele><time>2026-05-02T11:54:50.999Z</time></trkpt><trkpt lat="42.15456977069486" lon="13.683474756734006"><ele>704.0</ele><time>2026-05-02T11:54:51.999Z</time></trkpt><trkpt lat="42.154513136383784" lon="13.683544838116047"><ele>704.0</ele><time>2026-05-02T11:54:52.999Z</time></trkpt><trkpt lat="42.1544561545247" lon="13.683618071731102"><ele>704.0</ele><time>2026-05-02T11:54:53.999Z</time></trkpt><trkpt lat="42.154401258684" lon="13.683676609969517"><ele>704.0</ele><time>2026-05-02T11:54:54.999Z</time></trkpt><trkpt lat="42.154322341847674" lon="13.683734689373482"><ele>704.0</ele><time>2026-05-02T11:54:56.999Z</time></trkpt><trkpt lat="42.154266620537115" lon="13.683631195633081"><ele>704.0</ele><time>2026-05-02T11:54:57.999Z</time></trkpt><trkpt lat="42.15419684166262" lon="13.683611585977124"><ele>703.0</ele><time>2026-05-02T11:54:58.999Z</time></trkpt><trkpt lat="42.15411914223379" lon="13.683623945511263"><ele>702.0</ele><time>2026-05-02T11:54:59.999Z</time></trkpt><trkpt lat="42.15405563640681" lon="13.683686995066415"><ele>701.0</ele><time>2026-05-02T11:55:00.999Z</time></trkpt><trkpt lat="42.15400958090004" lon="13.683768238231403"><ele>700.0</ele><time>2026-05-02T11:55:01.999Z</time></trkpt><trkpt lat="42.153990818823594" lon="13.683852367306704"><ele>699.0</ele><time>2026-05-02T11:55:02.999Z</time></trkpt><trkpt lat="42.15404026588908" lon="13.684027955743357"><ele>698.0</ele><time>2026-05-02T11:55:04.999Z</time></trkpt><trkpt lat="42.154094709764344" lon="13.684114041662898"><ele>698.0</ele><time>2026-05-02T11:55:05.999Z</time></trkpt><trkpt lat="42.15412730008129" lon="13.6842117440291"><ele>698.0</ele><time>2026-05-02T11:55:06.999Z</time></trkpt><trkpt lat="42.15412399640088" lon="13.684339571097036"><ele>698.0</ele><time>2026-05-02T11:55:07.999Z</time></trkpt><trkpt lat="42.15409189446131" lon="13.684472952084155"><ele>698.0</ele><time>2026-05-02T11:55:08.999Z</time></trkpt><trkpt lat="42.1540521119175" lon="13.684610086146936"><ele>698.0</ele><time>2026-05-02T11:55:09.999Z</time></trkpt><trkpt lat="42.15401218343526" lon="13.68475980032599"><ele>696.75</ele><time>2026-05-02T11:55:10.999Z</time></trkpt><trkpt lat="42.15397018949045" lon="13.68492253297223"><ele>695.5</ele><time>2026-05-02T11:55:11.999Z</time></trkpt><trkpt lat="42.15392034944497" lon="13.68509703065999"><ele>694.25</ele><time>2026-05-02T11:55:12.999Z</time></trkpt><trkpt lat="42.153869933739664" lon="13.685275765239224"><ele>693.0</ele><time>2026-05-02T11:55:13.999Z</time></trkpt><trkpt lat="42.15382585599957" lon="13.685465711158924"><ele>693.0</ele><time>2026-05-02T11:55:14.999Z</time></trkpt><trkpt lat="42.15378341839804" lon="13.685667032027833"><ele>693.0</ele><time>2026-05-02T11:55:15.999Z</time></trkpt><trkpt lat="42.15373715808215" lon="13.685860535629178"><ele>693.0</ele><time>2026-05-02T11:55:16.999Z</time></trkpt><trkpt lat="42.15368293529892" lon="13.68605218970271"><ele>689.3333333333334</ele><time>2026-05-02T11:55:17.999Z</time></trkpt><trkpt lat="42.15364029986326" lon="13.686243721613156"><ele>685.6666666666667</ele><time>2026-05-02T11:55:18.999Z</time></trkpt><trkpt lat="42.15359192616284" lon="13.68644301999147"><ele>682.0</ele><time>2026-05-02T11:55:19.999Z</time></trkpt><trkpt lat="42.153548058586985" lon="13.686646516594994"><ele>682.0</ele><time>2026-05-02T11:55:20.999Z</time></trkpt><trkpt lat="42.15350815408478" lon="13.6868580987576"><ele>682.0</ele><time>2026-05-02T11:55:21.999Z</time></trkpt><trkpt lat="42.1534639120417" lon="13.687066895193135"><ele>682.0</ele><time>2026-05-02T11:55:22.999Z</time></trkpt><trkpt lat="42.15342287218643" lon="13.687280593949014"><ele>680.25</ele><time>2026-05-02T11:55:23.999Z</time></trkpt><trkpt lat="42.15338571146298" lon="13.68750227440277"><ele>678.5</ele><time>2026-05-02T11:55:24.999Z</time></trkpt><trkpt lat="42.15335119068052" lon="13.687696946728822"><ele>676.75</ele><time>2026-05-02T11:55:25.999Z</time></trkpt><trkpt lat="42.15331886898937" lon="13.687863810548807"><ele>675.0</ele><time>2026-05-02T11:55:26.999Z</time></trkpt><trkpt lat="42.153302173186354" lon="13.688002727630554"><ele>674.3333333333334</ele><time>2026-05-02T11:55:27.999Z</time></trkpt><trkpt lat="42.153288355251455" lon="13.688119167369296"><ele>673.6666666666666</ele><time>2026-05-02T11:55:28.999Z</time></trkpt><trkpt lat="42.15327214176626" lon="13.68822284679291"><ele>673.0</ele><time>2026-05-02T11:55:29.999Z</time></trkpt><trkpt lat="42.15326268839179" lon="13.688310653105873"><ele>672.3333333333333</ele><time>2026-05-02T11:55:30.999Z</time></trkpt><trkpt lat="42.153249756290215" lon="13.688422912025613"><ele>671.6666666666666</ele><time>2026-05-02T11:55:32.999Z</time></trkpt><trkpt lat="42.15327257080686" lon="13.688263729346126"><ele>671.0</ele><time>2026-05-02T11:55:40.999Z</time></trkpt><trkpt lat="42.15330812190987" lon="13.688159695055317"><ele>671.0</ele><time>2026-05-02T11:55:41.999Z</time></trkpt><trkpt lat="42.153324076869445" lon="13.688043092640775"><ele>671.0</ele><time>2026-05-02T11:55:42.999Z</time></trkpt><trkpt lat="42.153343256414814" lon="13.687930470588247"><ele>671.0</ele><time>2026-05-02T11:55:43.999Z</time></trkpt><trkpt lat="42.15335403500635" lon="13.687839776107118"><ele>671.0</ele><time>2026-05-02T11:55:44.999Z</time></trkpt><trkpt lat="42.153290174868545" lon="13.687723361723183"><ele>671.0</ele><time>2026-05-02T11:55:46.999Z</time></trkpt><trkpt lat="42.15315643640237" lon="13.687665081732263"><ele>671.8</ele><time>2026-05-02T11:55:48.999Z</time></trkpt><trkpt lat="42.15306031123286" lon="13.687680152829621"><ele>672.5999999999999</ele><time>2026-05-02T11:55:49.999Z</time></trkpt><trkpt lat="42.152976118492056" lon="13.687753591535907"><ele>673.4</ele><time>2026-05-02T11:55:50.999Z</time></trkpt><trkpt lat="42.152887739631375" lon="13.687822145645066"><ele>674.2</ele><time>2026-05-02T11:55:51.999Z</time></trkpt><trkpt lat="42.15278645638224" lon="13.687864557469464"><ele>675.0</ele><time>2026-05-02T11:55:52.999Z</time></trkpt><trkpt lat="42.15269519227522" lon="13.687941073868966"><ele>673.4</ele><time>2026-05-02T11:55:53.999Z</time></trkpt><trkpt lat="42.152609151690626" lon="13.68799750856012"><ele>671.8</ele><time>2026-05-02T11:55:54.999Z</time></trkpt><trkpt lat="42.152538067508665" lon="13.688068530987234"><ele>670.2</ele><time>2026-05-02T11:55:55.999Z</time></trkpt><trkpt lat="42.152484890925884" lon="13.6881556016888"><ele>668.6</ele><time>2026-05-02T11:55:56.999Z</time></trkpt><trkpt lat="42.15242597683872" lon="13.688255551384879"><ele>667.0</ele><time>2026-05-02T11:55:57.999Z</time></trkpt><trkpt lat="42.15239010127391" lon="13.688376350246795"><ele>667.8</ele><time>2026-05-02T11:55:58.999Z</time></trkpt><trkpt lat="42.152322684434814" lon="13.688474397063004"><ele>668.6</ele><time>2026-05-02T11:55:59.999Z</time></trkpt><trkpt lat="42.15226546486292" lon="13.68858371563798"><ele>669.4</ele><time>2026-05-02T11:56:00.999Z</time></trkpt><trkpt lat="42.15220150441088" lon="13.68868889101144"><ele>670.1999999999999</ele><time>2026-05-02T11:56:01.999Z</time></trkpt><trkpt lat="42.15212380062803" lon="13.688773947771882"><ele>671.0</ele><time>2026-05-02T11:56:02.999Z</time></trkpt><trkpt lat="42.15203810834738" lon="13.688849844022009"><ele>669.4</ele><time>2026-05-02T11:56:03.999Z</time></trkpt><trkpt lat="42.15194917985994" lon="13.68891941338908"><ele>667.8</ele><time>2026-05-02T11:56:04.999Z</time></trkpt><trkpt lat="42.151859130839256" lon="13.688987885820866"><ele>666.1999999999999</ele><time>2026-05-02T11:56:05.999Z</time></trkpt><trkpt lat="42.15176935686035" lon="13.689054844965769"><ele>664.5999999999999</ele><time>2026-05-02T11:56:06.999Z</time></trkpt><trkpt lat="42.15167661888326" lon="13.68912199003947"><ele>663.0</ele><time>2026-05-02T11:56:07.999Z</time></trkpt><trkpt lat="42.151584330782605" lon="13.689186828473423"><ele>662.8333333333334</ele><time>2026-05-02T11:56:08.999Z</time></trkpt><trkpt lat="42.151500152153275" lon="13.689245477525153"><ele>662.6666666666666</ele><time>2026-05-02T11:56:09.999Z</time></trkpt><trkpt lat="42.151417033642595" lon="13.68930040162131"><ele>662.5</ele><time>2026-05-02T11:56:10.999Z</time></trkpt><trkpt lat="42.15133712011107" lon="13.689351850294626"><ele>662.3333333333333</ele><time>2026-05-02T11:56:11.999Z</time></trkpt><trkpt lat="42.1512629375331" lon="13.689399609354956"><ele>662.1666666666666</ele><time>2026-05-02T11:56:12.999Z</time></trkpt><trkpt lat="42.15120872926776" lon="13.689461578254221"><ele>662.0</ele><time>2026-05-02T11:56:13.999Z</time></trkpt><trkpt lat="42.15115645285515" lon="13.689514222120895"><ele>661.8</ele><time>2026-05-02T11:56:14.999Z</time></trkpt><trkpt lat="42.15110032911081" lon="13.68958885606073"><ele>661.6</ele><time>2026-05-02T11:56:15.999Z</time></trkpt><trkpt lat="42.15107320585909" lon="13.689713166981292"><ele>661.4</ele><time>2026-05-02T11:56:16.999Z</time></trkpt><trkpt lat="42.15105170538509" lon="13.689851508817972"><ele>661.1999999999999</ele><time>2026-05-02T11:56:17.999Z</time></trkpt><trkpt lat="42.151027546001295" lon="13.689995884907951"><ele>661.0</ele><time>2026-05-02T11:56:18.999Z</time></trkpt><trkpt lat="42.150998827206536" lon="13.690141162959426"><ele>661.25</ele><time>2026-05-02T11:56:19.999Z</time></trkpt><trkpt lat="42.150965752116875" lon="13.690284345560077"><ele>661.5</ele><time>2026-05-02T11:56:20.999Z</time></trkpt><trkpt lat="42.15092972009778" lon="13.690424401230306"><ele>661.75</ele><time>2026-05-02T11:56:21.999Z</time></trkpt><trkpt lat="42.15090428358493" lon="13.69057818270005"><ele>662.0</ele><time>2026-05-02T11:56:22.999Z</time></trkpt><trkpt lat="42.150857597619094" lon="13.690739140502897"><ele>662.0</ele><time>2026-05-02T11:56:23.999Z</time></trkpt><trkpt lat="42.150809756497765" lon="13.690904370399352"><ele>662.0</ele><time>2026-05-02T11:56:24.999Z</time></trkpt><trkpt lat="42.150760140375006" lon="13.691067502209163"><ele>662.0</ele><time>2026-05-02T11:56:25.999Z</time></trkpt><trkpt lat="42.15071050890954" lon="13.6912212993846"><ele>662.0</ele><time>2026-05-02T11:56:26.999Z</time></trkpt><trkpt lat="42.15064514660663" lon="13.691360072835682"><ele>661.5</ele><time>2026-05-02T11:56:27.999Z</time></trkpt><trkpt lat="42.1505947378581" lon="13.691501800530022"><ele>661.0</ele><time>2026-05-02T11:56:28.999Z</time></trkpt><trkpt lat="42.15054154262719" lon="13.691646674618623"><ele>660.5</ele><time>2026-05-02T11:56:29.999Z</time></trkpt><trkpt lat="42.150487752777764" lon="13.691786566894885"><ele>660.0</ele><time>2026-05-02T11:56:30.999Z</time></trkpt><trkpt lat="42.1504407998199" lon="13.691933151614485"><ele>660.0</ele><time>2026-05-02T11:56:31.999Z</time></trkpt><trkpt lat="42.15037882657608" lon="13.69206006567196"><ele>660.0</ele><time>2026-05-02T11:56:32.999Z</time></trkpt><trkpt lat="42.15031648633434" lon="13.69219858078209"><ele>660.0</ele><time>2026-05-02T11:56:33.999Z</time></trkpt><trkpt lat="42.15025836630438" lon="13.692341045958406"><ele>660.0</ele><time>2026-05-02T11:56:34.999Z</time></trkpt><trkpt lat="42.150191055195826" lon="13.692466305418513"><ele>660.0</ele><time>2026-05-02T11:56:35.999Z</time></trkpt><trkpt lat="42.15015912691174" lon="13.692594431118778"><ele>660.0</ele><time>2026-05-02T11:56:36.999Z</time></trkpt><trkpt lat="42.15011926694617" lon="13.692695048617"><ele>660.0</ele><time>2026-05-02T11:56:37.999Z</time></trkpt><trkpt lat="42.1500846259502" lon="13.692777916001395"><ele>660.0</ele><time>2026-05-02T11:56:38.999Z</time></trkpt><trkpt lat="42.1500671336442" lon="13.6929184434133"><ele>660.0</ele><time>2026-05-02T11:56:40.999Z</time></trkpt><trkpt lat="42.14983530263741" lon="13.692964295180595"><ele>657.6</ele><time>2026-05-02T11:56:42.999Z</time></trkpt><trkpt lat="42.149784591055194" lon="13.69305758739144"><ele>655.2</ele><time>2026-05-02T11:56:43.999Z</time></trkpt><trkpt lat="42.14974267530859" lon="13.693161117764932"><ele>652.8</ele><time>2026-05-02T11:56:44.999Z</time></trkpt><trkpt lat="42.14970208362067" lon="13.693262249344201"><ele>650.4</ele><time>2026-05-02T11:56:45.999Z</time></trkpt><trkpt lat="42.14964586806998" lon="13.693379936452141"><ele>648.0</ele><time>2026-05-02T11:56:46.999Z</time></trkpt><trkpt lat="42.149593844727626" lon="13.693503737424711"><ele>648.4</ele><time>2026-05-02T11:56:47.999Z</time></trkpt><trkpt lat="42.14954290222477" lon="13.693624799456964"><ele>648.8</ele><time>2026-05-02T11:56:48.999Z</time></trkpt><trkpt lat="42.149488846790106" lon="13.693745425650413"><ele>649.2</ele><time>2026-05-02T11:56:49.999Z</time></trkpt><trkpt lat="42.14943412689156" lon="13.693866345601315"><ele>649.6</ele><time>2026-05-02T11:56:50.999Z</time></trkpt><trkpt lat="42.14937841544008" lon="13.693979945924847"><ele>650.0</ele><time>2026-05-02T11:56:51.999Z</time></trkpt><trkpt lat="42.14932361062052" lon="13.694086169650355"><ele>650.0</ele><time>2026-05-02T11:56:52.999Z</time></trkpt><trkpt lat="42.14927661193831" lon="13.694194495282169"><ele>650.0</ele><time>2026-05-02T11:56:53.999Z</time></trkpt><trkpt lat="42.14922600562147" lon="13.694298242917222"><ele>650.0</ele><time>2026-05-02T11:56:54.999Z</time></trkpt><trkpt lat="42.14917019032597" lon="13.694397562237222"><ele>650.0</ele><time>2026-05-02T11:56:55.999Z</time></trkpt><trkpt lat="42.14910973575654" lon="13.694486984165358"><ele>650.0</ele><time>2026-05-02T11:56:56.999Z</time></trkpt><trkpt lat="42.14904485127684" lon="13.69457186717839"><ele>650.0</ele><time>2026-05-02T11:56:57.999Z</time></trkpt><trkpt lat="42.14898304243006" lon="13.694664708212812"><ele>650.0</ele><time>2026-05-02T11:56:58.999Z</time></trkpt><trkpt lat="42.14892267029793" lon="13.694769377652452"><ele>650.0</ele><time>2026-05-02T11:56:59.999Z</time></trkpt><trkpt lat="42.14886642779037" lon="13.694881194318478"><ele>650.0</ele><time>2026-05-02T11:57:00.999Z</time></trkpt><trkpt lat="42.14881935563254" lon="13.694991941223224"><ele>650.0</ele><time>2026-05-02T11:57:01.999Z</time></trkpt><trkpt lat="42.148765559293764" lon="13.69509358865058"><ele>650.0</ele><time>2026-05-02T11:57:02.999Z</time></trkpt><trkpt lat="42.148692774717766" lon="13.695171995055158"><ele>650.0</ele><time>2026-05-02T11:57:03.999Z</time></trkpt><trkpt lat="42.14861010104595" lon="13.695230630444968"><ele>650.0</ele><time>2026-05-02T11:57:04.999Z</time></trkpt><trkpt lat="42.14851303234989" lon="13.69528550045506"><ele>650.0</ele><time>2026-05-02T11:57:05.999Z</time></trkpt><trkpt lat="42.148420985353475" lon="13.695356053361262"><ele>650.0</ele><time>2026-05-02T11:57:06.999Z</time></trkpt><trkpt lat="42.14835661544217" lon="13.695437659306195"><ele>649.8333333333333</ele><time>2026-05-02T11:57:07.999Z</time></trkpt><trkpt lat="42.14830677766086" lon="13.695532875368146"><ele>649.6666666666666</ele><time>2026-05-02T11:57:08.999Z</time></trkpt><trkpt lat="42.1482637455312" lon="13.695646026038766"><ele>649.5</ele><time>2026-05-02T11:57:09.999Z</time></trkpt><trkpt lat="42.14822271000979" lon="13.69575910324914"><ele>649.3333333333334</ele><time>2026-05-02T11:57:10.999Z</time></trkpt><trkpt lat="42.14817734660342" lon="13.695856697466207"><ele>649.1666666666667</ele><time>2026-05-02T11:57:11.999Z</time></trkpt><trkpt lat="42.14813437858641" lon="13.695926657837166"><ele>649.0</ele><time>2026-05-02T11:57:12.999Z</time></trkpt><trkpt lat="42.148075502412986" lon="13.695969564889529"><ele>649.0</ele><time>2026-05-02T11:57:13.999Z</time></trkpt><trkpt lat="42.14800113351914" lon="13.695991988438404"><ele>649.0</ele><time>2026-05-02T11:57:14.999Z</time></trkpt><trkpt lat="42.1479181232719" lon="13.696007492202918"><ele>649.0</ele><time>2026-05-02T11:57:15.999Z</time></trkpt><trkpt lat="42.14784455490457" lon="13.696022632593044"><ele>649.0</ele><time>2026-05-02T11:57:16.999Z</time></trkpt><trkpt lat="42.14775830560696" lon="13.6960347215017"><ele>649.0</ele><time>2026-05-02T11:57:17.999Z</time></trkpt><trkpt lat="42.14766572798112" lon="13.696055818247865"><ele>649.0</ele><time>2026-05-02T11:57:18.999Z</time></trkpt><trkpt lat="42.14758167481486" lon="13.696071543058894"><ele>648.8333333333334</ele><time>2026-05-02T11:57:19.999Z</time></trkpt><trkpt lat="42.14749959724487" lon="13.696087043887378"><ele>648.6666666666667</ele><time>2026-05-02T11:57:20.999Z</time></trkpt><trkpt lat="42.14741677217049" lon="13.696103496682559"><ele>648.5</ele><time>2026-05-02T11:57:21.999Z</time></trkpt><trkpt lat="42.147320558155435" lon="13.696121668471738"><ele>648.3333333333334</ele><time>2026-05-02T11:57:22.999Z</time></trkpt><trkpt lat="42.14723264321613" lon="13.696142219515217"><ele>648.1666666666666</ele><time>2026-05-02T11:57:23.999Z</time></trkpt><trkpt lat="42.147154467055074" lon="13.696152048893659"><ele>648.0</ele><time>2026-05-02T11:57:24.999Z</time></trkpt><trkpt lat="42.14708381529785" lon="13.696152773279811"><ele>647.4285714285714</ele><time>2026-05-02T11:57:25.999Z</time></trkpt><trkpt lat="42.1470192493278" lon="13.696124972954985"><ele>646.8571428571429</ele><time>2026-05-02T11:57:26.999Z</time></trkpt><trkpt lat="42.14696003036165" lon="13.696082860385918"><ele>646.2857142857142</ele><time>2026-05-02T11:57:27.999Z</time></trkpt><trkpt lat="42.146892550433684" lon="13.696030544265513"><ele>645.7142857142858</ele><time>2026-05-02T11:57:28.999Z</time></trkpt><trkpt lat="42.14682278855098" lon="13.695990603671033"><ele>645.1428571428571</ele><time>2026-05-02T11:57:29.999Z</time></trkpt><trkpt lat="42.14675245530992" lon="13.695958007474129"><ele>644.5714285714286</ele><time>2026-05-02T11:57:31Z</time></trkpt><trkpt lat="42.146679621394455" lon="13.695930682527672"><ele>644.0</ele><time>2026-05-02T11:57:32Z</time></trkpt><trkpt lat="42.14660288682067" lon="13.695908605911166"><ele>642.0</ele><time>2026-05-02T11:57:33Z</time></trkpt><trkpt lat="42.14652639054432" lon="13.695890479743568"><ele>640.0</ele><time>2026-05-02T11:57:34Z</time></trkpt><trkpt lat="42.14645040486504" lon="13.695871485148876"><ele>638.0</ele><time>2026-05-02T11:57:35Z</time></trkpt><trkpt lat="42.14637454404168" lon="13.695849490230154"><ele>636.0</ele><time>2026-05-02T11:57:36Z</time></trkpt><trkpt lat="42.14629870797424" lon="13.695832582192102"><ele>634.0</ele><time>2026-05-02T11:57:37Z</time></trkpt><trkpt lat="42.14622143464717" lon="13.695827034819647"><ele>632.0</ele><time>2026-05-02T11:57:38Z</time></trkpt><trkpt lat="42.14614205056402" lon="13.695838533587713"><ele>632.0</ele><time>2026-05-02T11:57:39Z</time></trkpt><trkpt lat="42.14605751891176" lon="13.695867340551631"><ele>632.0</ele><time>2026-05-02T11:57:40Z</time></trkpt><trkpt lat="42.14597114353272" lon="13.695907351252938"><ele>632.0</ele><time>2026-05-02T11:57:41Z</time></trkpt><trkpt lat="42.14587696068847" lon="13.69594314999748"><ele>632.0</ele><time>2026-05-02T11:57:42Z</time></trkpt><trkpt lat="42.14577724189062" lon="13.695986957438473"><ele>632.0</ele><time>2026-05-02T11:57:43Z</time></trkpt><trkpt lat="42.145677989045986" lon="13.696025939441206"><ele>629.6</ele><time>2026-05-02T11:57:44Z</time></trkpt><trkpt lat="42.14557933751766" lon="13.6960690134132"><ele>627.2</ele><time>2026-05-02T11:57:45Z</time></trkpt><trkpt lat="42.145483476614444" lon="13.696117745013526"><ele>624.8</ele><time>2026-05-02T11:57:46Z</time></trkpt><trkpt lat="42.14538502331758" lon="13.696163371717134"><ele>622.4</ele><time>2026-05-02T11:57:47Z</time></trkpt><trkpt lat="42.145282310287136" lon="13.69620656055481"><ele>620.0</ele><time>2026-05-02T11:57:48Z</time></trkpt><trkpt lat="42.14517432331635" lon="13.696246495688195"><ele>620.0</ele><time>2026-05-02T11:57:49Z</time></trkpt><trkpt lat="42.14506487331204" lon="13.696277727375646"><ele>620.0</ele><time>2026-05-02T11:57:50Z</time></trkpt><trkpt lat="42.14495200643398" lon="13.696301013736747"><ele>620.0</ele><time>2026-05-02T11:57:51Z</time></trkpt><trkpt lat="42.14483767582366" lon="13.696315676610746"><ele>620.0</ele><time>2026-05-02T11:57:52Z</time></trkpt><trkpt lat="42.14472215090782" lon="13.696329809772372"><ele>617.8</ele><time>2026-05-02T11:57:53Z</time></trkpt><trkpt lat="42.14461097222015" lon="13.696341819557809"><ele>615.6</ele><time>2026-05-02T11:57:54Z</time></trkpt><trkpt lat="42.144505760150075" lon="13.696353985043872"><ele>613.4</ele><time>2026-05-02T11:57:55Z</time></trkpt><trkpt lat="42.14440342711033" lon="13.696377873035145"><ele>611.2</ele><time>2026-05-02T11:57:56Z</time></trkpt><trkpt lat="42.144309575576266" lon="13.696411506348058"><ele>609.0</ele><time>2026-05-02T11:57:57Z</time></trkpt><trkpt lat="42.1442182620032" lon="13.696461226238053"><ele>609.0</ele><time>2026-05-02T11:57:58Z</time></trkpt><trkpt lat="42.14413209291451" lon="13.696524488578007"><ele>609.0</ele><time>2026-05-02T11:57:59Z</time></trkpt><trkpt lat="42.14404722065559" lon="13.69660396676244"><ele>609.0</ele><time>2026-05-02T11:58:00Z</time></trkpt><trkpt lat="42.14396245219222" lon="13.696694821711842"><ele>609.0</ele><time>2026-05-02T11:58:01Z</time></trkpt><trkpt lat="42.14387305648285" lon="13.696786869320402"><ele>609.0</ele><time>2026-05-02T11:58:02Z</time></trkpt><trkpt lat="42.1437771494746" lon="13.696859110147944"><ele>605.5</ele><time>2026-05-02T11:58:03Z</time></trkpt><trkpt lat="42.14367612203094" lon="13.696922088802808"><ele>602.0</ele><time>2026-05-02T11:58:04Z</time></trkpt><trkpt lat="42.14356818851196" lon="13.696980203293936"><ele>598.5</ele><time>2026-05-02T11:58:05Z</time></trkpt><trkpt lat="42.143461382969065" lon="13.697039065381134"><ele>595.0</ele><time>2026-05-02T11:58:06Z</time></trkpt><trkpt lat="42.14335582205774" lon="13.697102669623131"><ele>595.0</ele><time>2026-05-02T11:58:07Z</time></trkpt><trkpt lat="42.14325153116602" lon="13.697180515695777"><ele>595.0</ele><time>2026-05-02T11:58:08Z</time></trkpt><trkpt lat="42.143150874969145" lon="13.697272843865518"><ele>595.0</ele><time>2026-05-02T11:58:09Z</time></trkpt><trkpt lat="42.143048541642884" lon="13.697357325588186"><ele>595.0</ele><time>2026-05-02T11:58:10Z</time></trkpt><trkpt lat="42.142942999766966" lon="13.697446254612972"><ele>593.75</ele><time>2026-05-02T11:58:11Z</time></trkpt><trkpt lat="42.142838582100495" lon="13.697528051697727"><ele>592.5</ele><time>2026-05-02T11:58:12Z</time></trkpt><trkpt lat="42.14273805824468" lon="13.697605950778657"><ele>591.25</ele><time>2026-05-02T11:58:13Z</time></trkpt><trkpt lat="42.142638699422164" lon="13.697675576679007"><ele>590.0</ele><time>2026-05-02T11:58:14Z</time></trkpt><trkpt lat="42.14254298198138" lon="13.697745548355833"><ele>588.8</ele><time>2026-05-02T11:58:15Z</time></trkpt><trkpt lat="42.14244424646198" lon="13.697811315108112"><ele>587.6</ele><time>2026-05-02T11:58:16Z</time></trkpt><trkpt lat="42.14234711662422" lon="13.697874202238847"><ele>586.4</ele><time>2026-05-02T11:58:17Z</time></trkpt><trkpt lat="42.142250202123805" lon="13.697936252339023"><ele>585.2</ele><time>2026-05-02T11:58:18Z</time></trkpt><trkpt lat="42.142150317525044" lon="13.697994411392825"><ele>584.0</ele><time>2026-05-02T11:58:19Z</time></trkpt><trkpt lat="42.14204778492855" lon="13.698041578207095"><ele>582.6</ele><time>2026-05-02T11:58:20Z</time></trkpt><trkpt lat="42.14194368080586" lon="13.698080069464845"><ele>581.2</ele><time>2026-05-02T11:58:21Z</time></trkpt><trkpt lat="42.14184161120328" lon="13.698108372651182"><ele>579.8000000000001</ele><time>2026-05-02T11:58:22Z</time></trkpt><trkpt lat="42.14174159362028" lon="13.698123393150011"><ele>578.4</ele><time>2026-05-02T11:58:23Z</time></trkpt><trkpt lat="42.14164690769065" lon="13.698128633872578"><ele>577.0</ele><time>2026-05-02T11:58:24Z</time></trkpt><trkpt lat="42.141560693867035" lon="13.698121108721702"><ele>575.0</ele><time>2026-05-02T11:58:25Z</time></trkpt><trkpt lat="42.14148467478446" lon="13.698108912685205"><ele>573.0</ele><time>2026-05-02T11:58:26Z</time></trkpt><trkpt lat="42.14141437667276" lon="13.698088595995317"><ele>571.0</ele><time>2026-05-02T11:58:27Z</time></trkpt><trkpt lat="42.14133795669077" lon="13.698065518835751"><ele>569.0</ele><time>2026-05-02T11:58:28Z</time></trkpt><trkpt lat="42.141258866570496" lon="13.698041597665314"><ele>567.0</ele><time>2026-05-02T11:58:29Z</time></trkpt><trkpt lat="42.141175998770635" lon="13.698003186292633"><ele>565.0</ele><time>2026-05-02T11:58:30Z</time></trkpt><trkpt lat="42.14110946584857" lon="13.697962767906413"><ele>565.0</ele><time>2026-05-02T11:58:31Z</time></trkpt><trkpt lat="42.141056490651806" lon="13.69791476704382"><ele>565.0</ele><time>2026-05-02T11:58:32Z</time></trkpt><trkpt lat="42.14096629416527" lon="13.697809045733491"><ele>565.0</ele><time>2026-05-02T11:58:34Z</time></trkpt><trkpt lat="42.14091634277934" lon="13.697685702560312"><ele>565.0</ele><time>2026-05-02T11:58:36Z</time></trkpt><trkpt lat="42.14086111438462" lon="13.697610903900948"><ele>565.0</ele><time>2026-05-02T11:58:39Z</time></trkpt><trkpt lat="42.14081515372493" lon="13.697676179964109"><ele>565.0</ele><time>2026-05-02T11:58:41Z</time></trkpt><trkpt lat="42.14079318751312" lon="13.697757948450718"><ele>565.0</ele><time>2026-05-02T11:58:42Z</time></trkpt><trkpt lat="42.140756864767496" lon="13.697849807402203"><ele>565.0</ele><time>2026-05-02T11:58:43Z</time></trkpt><trkpt lat="42.14071900556784" lon="13.697922164953846"><ele>565.0</ele><time>2026-05-02T11:58:44Z</time></trkpt><trkpt lat="42.14065552760083" lon="13.69806061340365"><ele>565.0</ele><time>2026-05-02T11:58:46Z</time></trkpt><trkpt lat="42.14059927785314" lon="13.698157676649517"><ele>565.0</ele><time>2026-05-02T11:58:48Z</time></trkpt><trkpt lat="42.140518751750314" lon="13.698155287216043"><ele>565.0</ele><time>2026-05-02T11:58:50Z</time></trkpt><trkpt lat="42.14045674178696" lon="13.698037717311879"><ele>565.3333333333334</ele><time>2026-05-02T11:58:52Z</time></trkpt><trkpt lat="42.140429225684926" lon="13.697952054880524"><ele>565.6666666666667</ele><time>2026-05-02T11:58:53Z</time></trkpt><trkpt lat="42.140392576418385" lon="13.697864577419827"><ele>566.0</ele><time>2026-05-02T11:58:54Z</time></trkpt><trkpt lat="42.14034584193911" lon="13.697777122184922"><ele>566.3333333333334</ele><time>2026-05-02T11:58:55Z</time></trkpt><trkpt lat="42.140296409325366" lon="13.697692204208696"><ele>566.6666666666666</ele><time>2026-05-02T11:58:56Z</time></trkpt><trkpt lat="42.14024020362073" lon="13.697612821062032"><ele>567.0</ele><time>2026-05-02T11:58:57Z</time></trkpt><trkpt lat="42.14017559432087" lon="13.697530795410112"><ele>567.0</ele><time>2026-05-02T11:58:58Z</time></trkpt><trkpt lat="42.14011873436527" lon="13.69746976203169"><ele>567.0</ele><time>2026-05-02T11:58:58.999Z</time></trkpt><trkpt lat="42.14006676582224" lon="13.69741728397442"><ele>567.0</ele><time>2026-05-02T11:58:59.999Z</time></trkpt><trkpt lat="42.13995883231094" lon="13.697377486396983"><ele>567.0</ele><time>2026-05-02T11:59:01.999Z</time></trkpt><trkpt lat="42.13984225666827" lon="13.697411417318538"><ele>567.0</ele><time>2026-05-02T11:59:03.999Z</time></trkpt><trkpt lat="42.13977565401275" lon="13.697438133202828"><ele>567.0</ele><time>2026-05-02T11:59:04.999Z</time></trkpt><trkpt lat="42.139702143093004" lon="13.69745206031264"><ele>568.1666666666666</ele><time>2026-05-02T11:59:05.999Z</time></trkpt><trkpt lat="42.13963931764722" lon="13.6974414211773"><ele>569.3333333333334</ele><time>2026-05-02T11:59:06.999Z</time></trkpt><trkpt lat="42.13953554748424" lon="13.697367082653523"><ele>570.5</ele><time>2026-05-02T11:59:08.999Z</time></trkpt><trkpt lat="42.13946947681493" lon="13.697325654787354"><ele>571.6666666666667</ele><time>2026-05-02T11:59:09.999Z</time></trkpt><trkpt lat="42.13940023818633" lon="13.697293991151643"><ele>572.8333333333334</ele><time>2026-05-02T11:59:10.999Z</time></trkpt><trkpt lat="42.13933557596532" lon="13.697285397075742"><ele>574.0</ele><time>2026-05-02T11:59:11.999Z</time></trkpt><trkpt lat="42.13926725582669" lon="13.697297118573653"><ele>574.0</ele><time>2026-05-02T11:59:12.999Z</time></trkpt><trkpt lat="42.139195777865" lon="13.697305359594253"><ele>574.0</ele><time>2026-05-02T11:59:13.999Z</time></trkpt><trkpt lat="42.13912154030151" lon="13.697293815154667"><ele>574.0</ele><time>2026-05-02T11:59:14.999Z</time></trkpt><trkpt lat="42.13905584382548" lon="13.697271733628432"><ele>574.0</ele><time>2026-05-02T11:59:15.999Z</time></trkpt><trkpt lat="42.13900025987857" lon="13.697231401076792"><ele>574.0</ele><time>2026-05-02T11:59:16.999Z</time></trkpt><trkpt lat="42.13894922346179" lon="13.697180800728418"><ele>574.0</ele><time>2026-05-02T11:59:17.999Z</time></trkpt><trkpt lat="42.138886969660064" lon="13.697125839130022"><ele>574.0</ele><time>2026-05-02T11:59:18.999Z</time></trkpt><trkpt lat="42.13882555883652" lon="13.697068524629728"><ele>575.5714285714286</ele><time>2026-05-02T11:59:19.999Z</time></trkpt><trkpt lat="42.13877662203633" lon="13.697000309886896"><ele>577.1428571428571</ele><time>2026-05-02T11:59:20.999Z</time></trkpt><trkpt lat="42.13873814795931" lon="13.696921617543785"><ele>578.7142857142858</ele><time>2026-05-02T11:59:21.999Z</time></trkpt><trkpt lat="42.13869603095151" lon="13.696850303528008"><ele>580.2857142857142</ele><time>2026-05-02T11:59:22.999Z</time></trkpt><trkpt lat="42.13864052417154" lon="13.696795044298666"><ele>581.8571428571429</ele><time>2026-05-02T11:59:23.999Z</time></trkpt><trkpt lat="42.13857153961363" lon="13.696748151938086"><ele>583.4285714285714</ele><time>2026-05-02T11:59:24.999Z</time></trkpt><trkpt lat="42.138487750762636" lon="13.696702761171682"><ele>585.0</ele><time>2026-05-02T11:59:25.999Z</time></trkpt><trkpt lat="42.1384033605668" lon="13.69665937806445"><ele>585.0</ele><time>2026-05-02T11:59:26.999Z</time></trkpt><trkpt lat="42.13832355627789" lon="13.696620212761642"><ele>585.0</ele><time>2026-05-02T11:59:27.999Z</time></trkpt><trkpt lat="42.138257630590836" lon="13.696584735406109"><ele>585.0</ele><time>2026-05-02T11:59:28.999Z</time></trkpt><trkpt lat="42.138182543673956" lon="13.696547015102835"><ele>585.0</ele><time>2026-05-02T11:59:29.999Z</time></trkpt><trkpt lat="42.138113846840966" lon="13.69651877090951"><ele>585.0</ele><time>2026-05-02T11:59:30.999Z</time></trkpt><trkpt lat="42.1380376625715" lon="13.696484136523466"><ele>585.0</ele><time>2026-05-02T11:59:31.999Z</time></trkpt><trkpt lat="42.137964736718445" lon="13.696454793638699"><ele>585.8333333333334</ele><time>2026-05-02T11:59:32.999Z</time></trkpt><trkpt lat="42.137883536790696" lon="13.696429402517627"><ele>586.6666666666666</ele><time>2026-05-02T11:59:33.999Z</time></trkpt><trkpt lat="42.13781680383255" lon="13.696402488442224"><ele>587.5</ele><time>2026-05-02T11:59:34.999Z</time></trkpt><trkpt lat="42.13771521696013" lon="13.696354353184446"><ele>588.3333333333333</ele><time>2026-05-02T11:59:37Z</time></trkpt><trkpt lat="42.137658101303714" lon="13.696304258982032"><ele>589.1666666666666</ele><time>2026-05-02T11:59:38Z</time></trkpt><trkpt lat="42.137595941478935" lon="13.696244502720747"><ele>590.0</ele><time>2026-05-02T11:59:39Z</time></trkpt><trkpt lat="42.137526785182494" lon="13.696174893928497"><ele>590.0</ele><time>2026-05-02T11:59:40Z</time></trkpt><trkpt lat="42.137465336545894" lon="13.696130618727704"><ele>590.0</ele><time>2026-05-02T11:59:41Z</time></trkpt><trkpt lat="42.13736032842746" lon="13.696085169506437"><ele>590.0</ele><time>2026-05-02T11:59:43Z</time></trkpt><trkpt lat="42.13725102975026" lon="13.696063420779662"><ele>590.0</ele><time>2026-05-02T11:59:45Z</time></trkpt><trkpt lat="42.1371568642367" lon="13.696070793425111"><ele>590.0</ele><time>2026-05-02T11:59:48Z</time></trkpt><trkpt lat="42.137060032274874" lon="13.696102446618875"><ele>591.5</ele><time>2026-05-02T11:59:50Z</time></trkpt><trkpt lat="42.13694178483379" lon="13.696136342678361"><ele>593.0</ele><time>2026-05-02T11:59:52Z</time></trkpt><trkpt lat="42.136819357272444" lon="13.696146236599125"><ele>594.5</ele><time>2026-05-02T11:59:54Z</time></trkpt><trkpt lat="42.136691641491474" lon="13.696138741710195"><ele>596.0</ele><time>2026-05-02T11:59:56Z</time></trkpt><trkpt lat="42.13657549394565" lon="13.696123444140413"><ele>596.5</ele><time>2026-05-02T11:59:58Z</time></trkpt><trkpt lat="42.13645194605338" lon="13.696096190355824"><ele>597.0</ele><time>2026-05-02T12:00:00Z</time></trkpt><trkpt lat="42.136381431484516" lon="13.696080743083316"><ele>597.5</ele><time>2026-05-02T12:00:01Z</time></trkpt><trkpt lat="42.136312187985645" lon="13.696076050491214"><ele>598.0</ele><time>2026-05-02T12:00:02Z</time></trkpt><trkpt lat="42.13623617242662" lon="13.696090685841437"><ele>598.5</ele><time>2026-05-02T12:00:03Z</time></trkpt><trkpt lat="42.13616213153922" lon="13.696107972510323"><ele>599.0</ele><time>2026-05-02T12:00:04Z</time></trkpt><trkpt lat="42.136082750006466" lon="13.696112117751593"><ele>599.5714285714286</ele><time>2026-05-02T12:00:05Z</time></trkpt><trkpt lat="42.13600489977309" lon="13.696115883649"><ele>600.1428571428571</ele><time>2026-05-02T12:00:06Z</time></trkpt><trkpt lat="42.13592768139483" lon="13.69612054963272"><ele>600.7142857142858</ele><time>2026-05-02T12:00:07Z</time></trkpt><trkpt lat="42.135859843707685" lon="13.696115889042092"><ele>601.2857142857142</ele><time>2026-05-02T12:00:08Z</time></trkpt><trkpt lat="42.13579448032262" lon="13.696094677804622"><ele>601.8571428571428</ele><time>2026-05-02T12:00:09Z</time></trkpt><trkpt lat="42.13571906778348" lon="13.696065056297519"><ele>602.4285714285714</ele><time>2026-05-02T12:00:10Z</time></trkpt><trkpt lat="42.13564285618279" lon="13.696031982218939"><ele>603.0</ele><time>2026-05-02T12:00:11Z</time></trkpt><trkpt lat="42.13556528924733" lon="13.695993955121935"><ele>604.6666666666666</ele><time>2026-05-02T12:00:12Z</time></trkpt><trkpt lat="42.135489032262605" lon="13.695954718483732"><ele>606.3333333333334</ele><time>2026-05-02T12:00:13Z</time></trkpt><trkpt lat="42.13541163346559" lon="13.695923995716779"><ele>608.0</ele><time>2026-05-02T12:00:14Z</time></trkpt><trkpt lat="42.13533710191163" lon="13.695898334954995"><ele>609.6666666666667</ele><time>2026-05-02T12:00:15Z</time></trkpt><trkpt lat="42.13526111277932" lon="13.695883477681233"><ele>611.3333333333334</ele><time>2026-05-02T12:00:16Z</time></trkpt><trkpt lat="42.135190100780235" lon="13.695873176338418"><ele>613.0</ele><time>2026-05-02T12:00:17Z</time></trkpt><trkpt lat="42.135126828417334" lon="13.695882157099666"><ele>613.0</ele><time>2026-05-02T12:00:18Z</time></trkpt><trkpt lat="42.135000441705365" lon="13.695924829483202"><ele>613.0</ele><time>2026-05-02T12:00:20Z</time></trkpt><trkpt lat="42.134924726618934" lon="13.695940887250549"><ele>613.0</ele><time>2026-05-02T12:00:21Z</time></trkpt><trkpt lat="42.13484009775463" lon="13.695953726131847"><ele>613.0</ele><time>2026-05-02T12:00:22Z</time></trkpt><trkpt lat="42.1347569548863" lon="13.695962822272861"><ele>613.0</ele><time>2026-05-02T12:00:23Z</time></trkpt><trkpt lat="42.134665022124366" lon="13.695962018669668"><ele>613.0</ele><time>2026-05-02T12:00:24Z</time></trkpt><trkpt lat="42.13458561657695" lon="13.695965589341267"><ele>613.0</ele><time>2026-05-02T12:00:25Z</time></trkpt><trkpt lat="42.134522245584684" lon="13.69598146879668"><ele>613.0</ele><time>2026-05-02T12:00:26Z</time></trkpt><trkpt lat="42.134424757316616" lon="13.696041293272279"><ele>613.0</ele><time>2026-05-02T12:00:28Z</time></trkpt><trkpt lat="42.13433835932935" lon="13.696115598513131"><ele>613.0</ele><time>2026-05-02T12:00:30Z</time></trkpt><trkpt lat="42.13425846886817" lon="13.696220741051398"><ele>613.0</ele><time>2026-05-02T12:00:32Z</time></trkpt><trkpt lat="42.134216747477026" lon="13.696306766875377"><ele>613.0</ele><time>2026-05-02T12:00:33Z</time></trkpt><trkpt lat="42.13417867465781" lon="13.696384162283097"><ele>613.0</ele><time>2026-05-02T12:00:34Z</time></trkpt><trkpt lat="42.134135897316035" lon="13.696447760891399"><ele>613.0</ele><time>2026-05-02T12:00:35Z</time></trkpt><trkpt lat="42.134050817282876" lon="13.696568623610064"><ele>613.0</ele><time>2026-05-02T12:00:37Z</time></trkpt><trkpt lat="42.13399862182042" lon="13.696635315673847"><ele>613.0</ele><time>2026-05-02T12:00:38Z</time></trkpt><trkpt lat="42.133945601240065" lon="13.696696047024101"><ele>613.1428571428571</ele><time>2026-05-02T12:00:39Z</time></trkpt><trkpt lat="42.13388524175138" lon="13.696748495423899"><ele>613.2857142857142</ele><time>2026-05-02T12:00:40Z</time></trkpt><trkpt lat="42.13382631613713" lon="13.696804722111658"><ele>613.4285714285713</ele><time>2026-05-02T12:00:41Z</time></trkpt><trkpt lat="42.13377296261732" lon="13.696863835154192"><ele>613.5714285714286</ele><time>2026-05-02T12:00:42Z</time></trkpt><trkpt lat="42.13372247869296" lon="13.696926519857275"><ele>613.7142857142857</ele><time>2026-05-02T12:00:43Z</time></trkpt><trkpt lat="42.13366913695994" lon="13.696998350259543"><ele>613.8571428571428</ele><time>2026-05-02T12:00:44Z</time></trkpt><trkpt lat="42.13361533519211" lon="13.69707383819699"><ele>614.0</ele><time>2026-05-02T12:00:45Z</time></trkpt><trkpt lat="42.13355673166863" lon="13.69715189796192"><ele>614.5</ele><time>2026-05-02T12:00:46Z</time></trkpt><trkpt lat="42.13350624651515" lon="13.6972307098566"><ele>615.0</ele><time>2026-05-02T12:00:47Z</time></trkpt><trkpt lat="42.13345776971093" lon="13.69731162413408"><ele>615.5</ele><time>2026-05-02T12:00:48Z</time></trkpt><trkpt lat="42.13339931479222" lon="13.69738274158029"><ele>616.0</ele><time>2026-05-02T12:00:49Z</time></trkpt><trkpt lat="42.13333425494948" lon="13.697463673958872"><ele>616.5</ele><time>2026-05-02T12:00:50Z</time></trkpt><trkpt lat="42.13327622182185" lon="13.69754271777435"><ele>617.0</ele><time>2026-05-02T12:00:51Z</time></trkpt><trkpt lat="42.13321277304462" lon="13.697626377962369"><ele>617.0</ele><time>2026-05-02T12:00:52Z</time></trkpt><trkpt lat="42.133133965232794" lon="13.697712935037861"><ele>617.0</ele><time>2026-05-02T12:00:53Z</time></trkpt><trkpt lat="42.13305889639412" lon="13.697795403332726"><ele>617.0</ele><time>2026-05-02T12:00:54Z</time></trkpt><trkpt lat="42.13298762982982" lon="13.697887265454666"><ele>617.0</ele><time>2026-05-02T12:00:55Z</time></trkpt><trkpt lat="42.13291364477116" lon="13.69797902792564"><ele>617.0</ele><time>2026-05-02T12:00:56Z</time></trkpt><trkpt lat="42.13284027301703" lon="13.698068370889422"><ele>616.2</ele><time>2026-05-02T12:00:57Z</time></trkpt><trkpt lat="42.132767250853234" lon="13.698158245013781"><ele>615.4000000000001</ele><time>2026-05-02T12:00:58Z</time></trkpt><trkpt lat="42.132692588939975" lon="13.698231766019786"><ele>614.5999999999999</ele><time>2026-05-02T12:00:59Z</time></trkpt><trkpt lat="42.132620522659906" lon="13.698303478537412"><ele>613.8</ele><time>2026-05-02T12:01:00Z</time></trkpt><trkpt lat="42.13256239074091" lon="13.69838779017171"><ele>613.0</ele><time>2026-05-02T12:01:01Z</time></trkpt><trkpt lat="42.1325179539581" lon="13.698492478100595"><ele>612.8</ele><time>2026-05-02T12:01:02Z</time></trkpt><trkpt lat="42.13247936901478" lon="13.698605432851094"><ele>612.5999999999999</ele><time>2026-05-02T12:01:03Z</time></trkpt><trkpt lat="42.13244438673626" lon="13.69872950194265"><ele>612.4000000000001</ele><time>2026-05-02T12:01:04Z</time></trkpt><trkpt lat="42.13241325126155" lon="13.698853423618006"><ele>612.2</ele><time>2026-05-02T12:01:05Z</time></trkpt><trkpt lat="42.13236893712628" lon="13.698976815504569"><ele>612.0</ele><time>2026-05-02T12:01:06Z</time></trkpt><trkpt lat="42.132317676246494" lon="13.699097366488006"><ele>612.6</ele><time>2026-05-02T12:01:07Z</time></trkpt><trkpt lat="42.13225639795477" lon="13.699214296202248"><ele>613.2</ele><time>2026-05-02T12:01:08Z</time></trkpt><trkpt lat="42.132190965835306" lon="13.69932894239915"><ele>613.8</ele><time>2026-05-02T12:01:09Z</time></trkpt><trkpt lat="42.1321244611932" lon="13.699438029069169"><ele>614.4</ele><time>2026-05-02T12:01:10Z</time></trkpt><trkpt lat="42.13206299485435" lon="13.699527070201297"><ele>615.0</ele><time>2026-05-02T12:01:11Z</time></trkpt><trkpt lat="42.13200540959261" lon="13.69960963708978"><ele>615.0</ele><time>2026-05-02T12:01:12Z</time></trkpt><trkpt lat="42.13194564542764" lon="13.699692764781643"><ele>615.0</ele><time>2026-05-02T12:01:13Z</time></trkpt><trkpt lat="42.131886043099534" lon="13.699776028939235"><ele>615.0</ele><time>2026-05-02T12:01:14Z</time></trkpt><trkpt lat="42.13182534943135" lon="13.699862606101904"><ele>615.0</ele><time>2026-05-02T12:01:15Z</time></trkpt><trkpt lat="42.13175740077488" lon="13.699954382743472"><ele>615.0</ele><time>2026-05-02T12:01:16Z</time></trkpt><trkpt lat="42.13168219835389" lon="13.700041933107299"><ele>615.0</ele><time>2026-05-02T12:01:17Z</time></trkpt><trkpt lat="42.131600429276766" lon="13.700115483907101"><ele>615.0</ele><time>2026-05-02T12:01:18Z</time></trkpt><trkpt lat="42.131511898231054" lon="13.700191277690132"><ele>615.0</ele><time>2026-05-02T12:01:19Z</time></trkpt><trkpt lat="42.13142688239455" lon="13.700252934524649"><ele>615.0</ele><time>2026-05-02T12:01:20Z</time></trkpt><trkpt lat="42.131342700362765" lon="13.700325502151799"><ele>615.0</ele><time>2026-05-02T12:01:21Z</time></trkpt><trkpt lat="42.13127244948016" lon="13.70042418358665"><ele>615.4</ele><time>2026-05-02T12:01:22Z</time></trkpt><trkpt lat="42.13121510610119" lon="13.700541896811185"><ele>615.8</ele><time>2026-05-02T12:01:23Z</time></trkpt><trkpt lat="42.1311595618458" lon="13.700659568564934"><ele>616.2</ele><time>2026-05-02T12:01:24Z</time></trkpt><trkpt lat="42.1310965700316" lon="13.700767545502936"><ele>616.6</ele><time>2026-05-02T12:01:25Z</time></trkpt><trkpt lat="42.131023766456984" lon="13.700857360764454"><ele>617.0</ele><time>2026-05-02T12:01:26Z</time></trkpt><trkpt lat="42.13094247330173" lon="13.700937682939058"><ele>617.0</ele><time>2026-05-02T12:01:27Z</time></trkpt><trkpt lat="42.13085970469027" lon="13.701006749920097"><ele>617.0</ele><time>2026-05-02T12:01:28Z</time></trkpt><trkpt lat="42.130780689404936" lon="13.701077472203888"><ele>617.0</ele><time>2026-05-02T12:01:29Z</time></trkpt><trkpt lat="42.130700314386814" lon="13.70114017699645"><ele>617.0</ele><time>2026-05-02T12:01:30Z</time></trkpt><trkpt lat="42.13062993175712" lon="13.701215359460251"><ele>617.0</ele><time>2026-05-02T12:01:31Z</time></trkpt><trkpt lat="42.13055838060962" lon="13.701304509584295"><ele>619.0</ele><time>2026-05-02T12:01:32Z</time></trkpt><trkpt lat="42.13049429473277" lon="13.701385247534423"><ele>621.0</ele><time>2026-05-02T12:01:33Z</time></trkpt><trkpt lat="42.1304328411394" lon="13.701465916378888"><ele>623.0</ele><time>2026-05-02T12:01:34Z</time></trkpt><trkpt lat="42.130364955687" lon="13.701540671643231"><ele>625.0</ele><time>2026-05-02T12:01:35Z</time></trkpt><trkpt lat="42.130298473866496" lon="13.701614184919721"><ele>627.0</ele><time>2026-05-02T12:01:36Z</time></trkpt><trkpt lat="42.13023573878197" lon="13.701668005460512"><ele>629.0</ele><time>2026-05-02T12:01:37Z</time></trkpt><trkpt lat="42.130155118533104" lon="13.701727045201586"><ele>629.0</ele><time>2026-05-02T12:01:39Z</time></trkpt><trkpt lat="42.13002691341061" lon="13.70171439982269"><ele>629.0</ele><time>2026-05-02T12:01:44Z</time></trkpt><trkpt lat="42.12993904814394" lon="13.701715778185346"><ele>629.0</ele><time>2026-05-02T12:01:45Z</time></trkpt><trkpt lat="42.129843501674166" lon="13.70166955286023"><ele>629.0</ele><time>2026-05-02T12:01:46Z</time></trkpt><trkpt lat="42.129781606139964" lon="13.701624119711145"><ele>629.0</ele><time>2026-05-02T12:01:47Z</time></trkpt><trkpt lat="42.12981561838" lon="13.701007142311713"><ele>631.6666666666666</ele><time>2026-05-02T12:01:49Z</time></trkpt><trkpt lat="42.129778751361805" lon="13.700912833067742"><ele>634.3333333333333</ele><time>2026-05-02T12:01:50Z</time></trkpt><trkpt lat="42.129742333964806" lon="13.700811895362758"><ele>637.0</ele><time>2026-05-02T12:01:51Z</time></trkpt><trkpt lat="42.12969686471138" lon="13.700713249756804"><ele>639.6666666666666</ele><time>2026-05-02T12:01:52Z</time></trkpt><trkpt lat="42.129651304498665" lon="13.700619878912772"><ele>642.3333333333334</ele><time>2026-05-02T12:01:53Z</time></trkpt><trkpt lat="42.12961123104986" lon="13.700536371318648"><ele>645.0</ele><time>2026-05-02T12:01:54Z</time></trkpt><trkpt lat="42.12956541894167" lon="13.700446866628674"><ele>645.0</ele><time>2026-05-02T12:01:55Z</time></trkpt><trkpt lat="42.12951786328612" lon="13.700359420002945"><ele>645.0</ele><time>2026-05-02T12:01:56Z</time></trkpt><trkpt lat="42.12946952294324" lon="13.70027225054041"><ele>645.0</ele><time>2026-05-02T12:01:57Z</time></trkpt><trkpt lat="42.12942484575437" lon="13.700175710878261"><ele>645.0</ele><time>2026-05-02T12:01:58Z</time></trkpt><trkpt lat="42.129386885607666" lon="13.700082118398134"><ele>645.0</ele><time>2026-05-02T12:01:59Z</time></trkpt><trkpt lat="42.12935170869549" lon="13.69999957157655"><ele>645.0</ele><time>2026-05-02T12:02:00Z</time></trkpt><trkpt lat="42.12925986778359" lon="13.699885833784851"><ele>646.6666666666666</ele><time>2026-05-02T12:02:02Z</time></trkpt><trkpt lat="42.12916965476163" lon="13.699872698444915"><ele>648.3333333333334</ele><time>2026-05-02T12:02:04Z</time></trkpt><trkpt lat="42.129094925656425" lon="13.6998868094268"><ele>650.0</ele><time>2026-05-02T12:02:06Z</time></trkpt><trkpt lat="42.129026148481486" lon="13.699903707627303"><ele>651.6666666666667</ele><time>2026-05-02T12:02:08Z</time></trkpt><trkpt lat="42.12896953027968" lon="13.699945146054024"><ele>653.3333333333334</ele><time>2026-05-02T12:02:09Z</time></trkpt><trkpt lat="42.128911204991745" lon="13.69999908896709"><ele>655.0</ele><time>2026-05-02T12:02:10Z</time></trkpt><trkpt lat="42.12881599972022" lon="13.700030003611973"><ele>656.3333333333334</ele><time>2026-05-02T12:02:12Z</time></trkpt><trkpt lat="42.12872682709446" lon="13.699936641829893"><ele>657.6666666666667</ele><time>2026-05-02T12:02:14Z</time></trkpt><trkpt lat="42.12866226413825" lon="13.699892417247227"><ele>659.0</ele><time>2026-05-02T12:02:15Z</time></trkpt><trkpt lat="42.12858777916976" lon="13.699891022901383"><ele>660.3333333333334</ele><time>2026-05-02T12:02:16Z</time></trkpt><trkpt lat="42.12851354053081" lon="13.699925115237496"><ele>661.6666666666666</ele><time>2026-05-02T12:02:17Z</time></trkpt><trkpt lat="42.128455393949025" lon="13.699967778307684"><ele>663.0</ele><time>2026-05-02T12:02:18Z</time></trkpt><trkpt lat="42.12838312435195" lon="13.700006155719109"><ele>663.0</ele><time>2026-05-02T12:02:19Z</time></trkpt><trkpt lat="42.12829684634307" lon="13.700033072805542"><ele>663.0</ele><time>2026-05-02T12:02:20Z</time></trkpt><trkpt lat="42.12820866928056" lon="13.700018393486518"><ele>663.0</ele><time>2026-05-02T12:02:21Z</time></trkpt><trkpt lat="42.128117996924885" lon="13.700049213340048"><ele>663.0</ele><time>2026-05-02T12:02:22Z</time></trkpt><trkpt lat="42.12802829154091" lon="13.700077695903877"><ele>663.0</ele><time>2026-05-02T12:02:23Z</time></trkpt><trkpt lat="42.127954748615245" lon="13.700099319637232"><ele>663.0</ele><time>2026-05-02T12:02:24Z</time></trkpt><trkpt lat="42.12788538996118" lon="13.700117196623665"><ele>666.25</ele><time>2026-05-02T12:02:25Z</time></trkpt><trkpt lat="42.127772300561666" lon="13.70015236123501"><ele>669.5</ele><time>2026-05-02T12:02:27Z</time></trkpt><trkpt lat="42.12764778995631" lon="13.700158512099824"><ele>672.75</ele><time>2026-05-02T12:02:29Z</time></trkpt><trkpt lat="42.12753198303091" lon="13.700167895432713"><ele>676.0</ele><time>2026-05-02T12:02:31Z</time></trkpt><trkpt lat="42.127439387186385" lon="13.700135850559695"><ele>674.5714285714286</ele><time>2026-05-02T12:02:33Z</time></trkpt><trkpt lat="42.12737321209612" lon="13.700152013745544"><ele>673.1428571428571</ele><time>2026-05-02T12:03:47Z</time></trkpt><trkpt lat="42.127303458215785" lon="13.700143711319411"><ele>671.7142857142858</ele><time>2026-05-02T12:03:49.001Z</time></trkpt><trkpt lat="42.127221893227635" lon="13.700133266552095"><ele>670.2857142857142</ele><time>2026-05-02T12:03:52.001Z</time></trkpt><trkpt lat="42.127157968050355" lon="13.700125102188093"><ele>668.8571428571428</ele><time>2026-05-02T12:03:56.001Z</time></trkpt><trkpt lat="42.127063690984905" lon="13.700113061354502"><ele>667.4285714285714</ele><time>2026-05-02T12:03:59.001Z</time></trkpt><trkpt lat="42.12700020955576" lon="13.700104953662475"><ele>666.0</ele><time>2026-05-02T12:04:01.001Z</time></trkpt><trkpt lat="42.12692107670631" lon="13.70009266867263"><ele>666.0</ele><time>2026-05-02T12:04:04.001Z</time></trkpt><trkpt lat="42.126862112888006" lon="13.700023398083424"><ele>666.0</ele><time>2026-05-02T12:04:06.001Z</time></trkpt><trkpt lat="42.12681253177347" lon="13.699881015883685"><ele>666.0</ele><time>2026-05-02T12:04:08.001Z</time></trkpt><trkpt lat="42.12676572232732" lon="13.699762177360476"><ele>666.0</ele><time>2026-05-02T12:04:10.001Z</time></trkpt><trkpt lat="42.12674159224357" lon="13.699660242801842"><ele>666.0</ele><time>2026-05-02T12:04:12.001Z</time></trkpt><trkpt lat="42.126723641082364" lon="13.699557412078553"><ele>666.0</ele><time>2026-05-02T12:04:14Z</time></trkpt><trkpt lat="42.126690954430906" lon="13.699446004437537"><ele>666.0</ele><time>2026-05-02T12:04:17Z</time></trkpt><trkpt lat="42.12661328498025" lon="13.699404328335515"><ele>666.0</ele><time>2026-05-02T12:04:20Z</time></trkpt><trkpt lat="42.126556383465534" lon="13.699502602181576"><ele>666.0</ele><time>2026-05-02T12:04:21Z</time></trkpt><trkpt lat="42.126460864257815" lon="13.699486649249666"><ele>666.0</ele><time>2026-05-02T12:04:23Z</time></trkpt><trkpt lat="42.12635824251596" lon="13.69946951012662"><ele>664.5</ele><time>2026-05-02T12:04:25Z</time></trkpt><trkpt lat="42.12628574088013" lon="13.699457401433028"><ele>663.0</ele><time>2026-05-02T12:04:27Z</time></trkpt><trkpt lat="42.12620940046959" lon="13.699427580041498"><ele>661.5</ele><time>2026-05-02T12:04:30Z</time></trkpt><trkpt lat="42.12625258817813" lon="13.69918013244883"><ele>660.0</ele><time>2026-05-02T12:04:31Z</time></trkpt><trkpt lat="42.12619252069749" lon="13.699029993788985"><ele>660.0</ele><time>2026-05-02T12:04:33Z</time></trkpt><trkpt lat="42.12612524474693" lon="13.69901087845551"><ele>660.0</ele><time>2026-05-02T12:04:34Z</time></trkpt><trkpt lat="42.12608822449755" lon="13.698883228456985"><ele>660.0</ele><time>2026-05-02T12:04:37Z</time></trkpt><trkpt lat="42.126059590875876" lon="13.698801534891711"><ele>660.0</ele><time>2026-05-02T12:04:38Z</time></trkpt><trkpt lat="42.12607687431914" lon="13.698702902488328"><ele>660.0</ele><time>2026-05-02T12:04:39Z</time></trkpt><trkpt lat="42.12608028388643" lon="13.698598638595657"><ele>660.0</ele><time>2026-05-02T12:04:40Z</time></trkpt><trkpt lat="42.126087361630965" lon="13.698493432701135"><ele>661.2</ele><time>2026-05-02T12:04:41Z</time></trkpt><trkpt lat="42.126095047136005" lon="13.698402599373974"><ele>662.4</ele><time>2026-05-02T12:04:42Z</time></trkpt><trkpt lat="42.12609268440988" lon="13.698235196432416"><ele>663.5999999999999</ele><time>2026-05-02T12:04:44Z</time></trkpt><trkpt lat="42.12610175799141" lon="13.698102843238974"><ele>664.8</ele><time>2026-05-02T12:04:46Z</time></trkpt><trkpt lat="42.126099405032704" lon="13.69798609354818"><ele>666.0</ele><time>2026-05-02T12:04:49Z</time></trkpt><trkpt lat="42.126104846195865" lon="13.697877460362722"><ele>666.0</ele><time>2026-05-02T12:04:51Z</time></trkpt><trkpt lat="42.12609383938149" lon="13.697790585428416"><ele>666.0</ele><time>2026-05-02T12:04:53Z</time></trkpt><trkpt lat="42.12607462734812" lon="13.697652844409397"><ele>666.0</ele><time>2026-05-02T12:04:56Z</time></trkpt><trkpt lat="42.12606668400059" lon="13.69755862960906"><ele>666.0</ele><time>2026-05-02T12:04:58Z</time></trkpt><trkpt lat="42.12604748151668" lon="13.697475269340375"><ele>666.0</ele><time>2026-05-02T12:05:00Z</time></trkpt><trkpt lat="42.126025887864884" lon="13.697374627695336"><ele>666.0</ele><time>2026-05-02T12:05:03Z</time></trkpt><trkpt lat="42.12599877156038" lon="13.697228610046595"><ele>667.8333333333334</ele><time>2026-05-02T12:05:06Z</time></trkpt><trkpt lat="42.12597637544969" lon="13.697139924592186"><ele>669.6666666666666</ele><time>2026-05-02T12:05:07Z</time></trkpt><trkpt lat="42.125949326837045" lon="13.697033805403771"><ele>671.5</ele><time>2026-05-02T12:05:08Z</time></trkpt><trkpt lat="42.1259140695595" lon="13.696905952392822"><ele>673.3333333333333</ele><time>2026-05-02T12:05:09Z</time></trkpt><trkpt lat="42.12588472355107" lon="13.696775814542349"><ele>675.1666666666666</ele><time>2026-05-02T12:05:10Z</time></trkpt><trkpt lat="42.125859422910295" lon="13.696655977237908"><ele>677.0</ele><time>2026-05-02T12:05:11Z</time></trkpt><trkpt lat="42.12583403650969" lon="13.69653015408457"><ele>680.0</ele><time>2026-05-02T12:05:12Z</time></trkpt><trkpt lat="42.12581094748937" lon="13.696386898754715"><ele>683.0</ele><time>2026-05-02T12:05:13Z</time></trkpt><trkpt lat="42.12578503493246" lon="13.696225024695673"><ele>686.0</ele><time>2026-05-02T12:05:14Z</time></trkpt><trkpt lat="42.12575810424051" lon="13.696065738098293"><ele>689.0</ele><time>2026-05-02T12:05:15Z</time></trkpt><trkpt lat="42.12572554497766" lon="13.695903584917627"><ele>694.25</ele><time>2026-05-02T12:05:16Z</time></trkpt><trkpt lat="42.125697153619214" lon="13.695749359119844"><ele>699.5</ele><time>2026-05-02T12:05:17Z</time></trkpt><trkpt lat="42.125663577935924" lon="13.695594668816952"><ele>704.75</ele><time>2026-05-02T12:05:18Z</time></trkpt><trkpt lat="42.12563235344868" lon="13.695444492399842"><ele>710.0</ele><time>2026-05-02T12:05:19Z</time></trkpt><trkpt lat="42.1256074278704" lon="13.69528404230176"><ele>714.75</ele><time>2026-05-02T12:05:20Z</time></trkpt><trkpt lat="42.1255792854972" lon="13.695124519464393"><ele>719.5</ele><time>2026-05-02T12:05:21Z</time></trkpt><trkpt lat="42.1255516843683" lon="13.694964983516963"><ele>724.25</ele><time>2026-05-02T12:05:22Z</time></trkpt><trkpt lat="42.12552348493239" lon="13.694805494214476"><ele>729.0</ele><time>2026-05-02T12:05:23Z</time></trkpt><trkpt lat="42.12549351160414" lon="13.694647091114994"><ele>729.0</ele><time>2026-05-02T12:05:24Z</time></trkpt><trkpt lat="42.125456778898695" lon="13.694497992085804"><ele>729.0</ele><time>2026-05-02T12:05:25Z</time></trkpt><trkpt lat="42.12542144854048" lon="13.694346477760448"><ele>729.0</ele><time>2026-05-02T12:05:26Z</time></trkpt><trkpt lat="42.12537720318275" lon="13.694199314401612"><ele>729.0</ele><time>2026-05-02T12:05:27Z</time></trkpt><trkpt lat="42.1253232397157" lon="13.694074989592178"><ele>729.8333333333334</ele><time>2026-05-02T12:05:28Z</time></trkpt><trkpt lat="42.12529245634828" lon="13.69395558657954"><ele>730.6666666666666</ele><time>2026-05-02T12:05:29Z</time></trkpt><trkpt lat="42.12523582941104" lon="13.693888794507897"><ele>731.5</ele><time>2026-05-02T12:05:30Z</time></trkpt><trkpt lat="42.125198441735876" lon="13.69380595628825"><ele>732.3333333333333</ele><time>2026-05-02T12:05:31Z</time></trkpt><trkpt lat="42.125163428671904" lon="13.693718881632755"><ele>733.1666666666666</ele><time>2026-05-02T12:05:32Z</time></trkpt><trkpt lat="42.12512302836165" lon="13.69361521812479"><ele>734.0</ele><time>2026-05-02T12:05:33Z</time></trkpt><trkpt lat="42.12510474172026" lon="13.693519220378782"><ele>735.3333333333333</ele><time>2026-05-02T12:05:34Z</time></trkpt><trkpt lat="42.12506671071661" lon="13.693427028961427"><ele>736.6666666666666</ele><time>2026-05-02T12:05:35Z</time></trkpt><trkpt lat="42.12502969619693" lon="13.693341360131347"><ele>738.0</ele><time>2026-05-02T12:05:36Z</time></trkpt><trkpt lat="42.12498762856023" lon="13.693263482488588"><ele>739.3333333333334</ele><time>2026-05-02T12:05:37Z</time></trkpt><trkpt lat="42.124904043036494" lon="13.693137926242352"><ele>740.6666666666667</ele><time>2026-05-02T12:05:39Z</time></trkpt><trkpt lat="42.124853371867246" lon="13.693070536860255"><ele>742.0</ele><time>2026-05-02T12:05:40Z</time></trkpt><trkpt lat="42.12480173629931" lon="13.693001864916097"><ele>745.4285714285714</ele><time>2026-05-02T12:05:41Z</time></trkpt><trkpt lat="42.12475153447791" lon="13.692935099751404"><ele>748.8571428571429</ele><time>2026-05-02T12:05:42Z</time></trkpt><trkpt lat="42.124700927603996" lon="13.692867795724363"><ele>752.2857142857142</ele><time>2026-05-02T12:05:43Z</time></trkpt><trkpt lat="42.124643594427084" lon="13.692816363937768"><ele>755.7142857142858</ele><time>2026-05-02T12:05:44Z</time></trkpt><trkpt lat="42.124596822377754" lon="13.692744191008561"><ele>759.1428571428571</ele><time>2026-05-02T12:05:45Z</time></trkpt><trkpt lat="42.12454926014568" lon="13.692673202244073"><ele>762.5714285714286</ele><time>2026-05-02T12:05:46Z</time></trkpt><trkpt lat="42.124492581909614" lon="13.692614233819329"><ele>766.0</ele><time>2026-05-02T12:05:47Z</time></trkpt><trkpt lat="42.12444518538713" lon="13.69253160604821"><ele>766.1428571428571</ele><time>2026-05-02T12:05:48Z</time></trkpt><trkpt lat="42.12439916943381" lon="13.692439014675804"><ele>766.2857142857142</ele><time>2026-05-02T12:05:49Z</time></trkpt><trkpt lat="42.12436431312111" lon="13.692353410561038"><ele>766.4285714285714</ele><time>2026-05-02T12:05:50Z</time></trkpt><trkpt lat="42.124339193056436" lon="13.69227474998128"><ele>766.5714285714286</ele><time>2026-05-02T12:05:51Z</time></trkpt><trkpt lat="42.12431599698376" lon="13.692187272572244"><ele>766.7142857142858</ele><time>2026-05-02T12:05:52Z</time></trkpt><trkpt lat="42.12429187958132" lon="13.692101083953306"><ele>766.8571428571429</ele><time>2026-05-02T12:05:53Z</time></trkpt><trkpt lat="42.124272996668516" lon="13.691977910590571"><ele>767.0</ele><time>2026-05-02T12:05:55.001Z</time></trkpt><trkpt lat="42.124167436303736" lon="13.69201908516729"><ele>767.0</ele><time>2026-05-02T12:06:32Z</time></trkpt><trkpt lat="42.124080980040155" lon="13.692094139716618"><ele>767.0</ele><time>2026-05-02T12:06:34Z</time></trkpt><trkpt lat="42.124028876571955" lon="13.692207336958774"><ele>767.0</ele><time>2026-05-02T12:06:36Z</time></trkpt><trkpt lat="42.124008893525456" lon="13.69237528915579"><ele>767.0</ele><time>2026-05-02T12:06:38Z</time></trkpt><trkpt lat="42.12402955837571" lon="13.6924866519564"><ele>767.0</ele><time>2026-05-02T12:06:39Z</time></trkpt><trkpt lat="42.124043334644554" lon="13.692591522221637"><ele>770.3333333333333</ele><time>2026-05-02T12:06:40Z</time></trkpt><trkpt lat="42.124043966173915" lon="13.692693493090172"><ele>773.6666666666666</ele><time>2026-05-02T12:06:41Z</time></trkpt><trkpt lat="42.12404890320304" lon="13.692800975406163"><ele>777.0</ele><time>2026-05-02T12:06:42Z</time></trkpt><trkpt lat="42.124047703097126" lon="13.69291592940139"><ele>780.3333333333333</ele><time>2026-05-02T12:06:43Z</time></trkpt><trkpt lat="42.12404709998203" lon="13.693028304036517"><ele>783.6666666666666</ele><time>2026-05-02T12:06:44Z</time></trkpt><trkpt lat="42.12403211836642" lon="13.693136967480063"><ele>787.0</ele><time>2026-05-02T12:06:45Z</time></trkpt><trkpt lat="42.12402692751606" lon="13.693238617453256"><ele>786.9999999999999</ele><time>2026-05-02T12:06:46Z</time></trkpt><trkpt lat="42.124014633181126" lon="13.693330269642834"><ele>787.0</ele><time>2026-05-02T12:06:47Z</time></trkpt><trkpt lat="42.123999930872266" lon="13.693414881480834"><ele>787.0</ele><time>2026-05-02T12:06:48Z</time></trkpt><trkpt lat="42.12392944990308" lon="13.693525497508695"><ele>787.0</ele><time>2026-05-02T12:06:50Z</time></trkpt><trkpt lat="42.1238811747371" lon="13.693588972584761"><ele>786.9999999999999</ele><time>2026-05-02T12:06:51Z</time></trkpt><trkpt lat="42.12381743373344" lon="13.693664846659651"><ele>787.0</ele><time>2026-05-02T12:06:52Z</time></trkpt><trkpt lat="42.123746969001694" lon="13.693721927986845"><ele>784.9999999999999</ele><time>2026-05-02T12:06:53Z</time></trkpt><trkpt lat="42.12367028256569" lon="13.693768726142283"><ele>783.0</ele><time>2026-05-02T12:06:54Z</time></trkpt><trkpt lat="42.123590530669574" lon="13.693792263476752"><ele>781.0</ele><time>2026-05-02T12:06:55Z</time></trkpt><trkpt lat="42.12350343649554" lon="13.693824298567748"><ele>779.0</ele><time>2026-05-02T12:06:56Z</time></trkpt><trkpt lat="42.12342194420252" lon="13.693862186237594"><ele>776.9999999999999</ele><time>2026-05-02T12:06:57Z</time></trkpt><trkpt lat="42.12334788317448" lon="13.693902785269287"><ele>775.0</ele><time>2026-05-02T12:06:58Z</time></trkpt><trkpt lat="42.12327363228716" lon="13.693951826377125"><ele>778.6666666666666</ele><time>2026-05-02T12:06:59Z</time></trkpt><trkpt lat="42.12322068223608" lon="13.69402682340438"><ele>782.3333333333333</ele><time>2026-05-02T12:07:00Z</time></trkpt><trkpt lat="42.12316682907713" lon="13.694089017902447"><ele>786.0</ele><time>2026-05-02T12:07:01Z</time></trkpt><trkpt lat="42.123103947044434" lon="13.694163852035965"><ele>789.6666666666667</ele><time>2026-05-02T12:07:02Z</time></trkpt><trkpt lat="42.123039670775015" lon="13.694218460303372"><ele>793.3333333333334</ele><time>2026-05-02T12:07:03Z</time></trkpt><trkpt lat="42.122979807320945" lon="13.694287259072881"><ele>797.0</ele><time>2026-05-02T12:07:04Z</time></trkpt><trkpt lat="42.12292425958711" lon="13.694347348897697"><ele>797.0</ele><time>2026-05-02T12:07:05Z</time></trkpt><trkpt lat="42.12286545604821" lon="13.694408725941582"><ele>797.0</ele><time>2026-05-02T12:07:06Z</time></trkpt><trkpt lat="42.12280264154237" lon="13.69445559665362"><ele>797.0</ele><time>2026-05-02T12:07:07Z</time></trkpt><trkpt lat="42.12273692437275" lon="13.694491724222328"><ele>797.0</ele><time>2026-05-02T12:07:08Z</time></trkpt><trkpt lat="42.12267049172288" lon="13.694522095964015"><ele>797.0</ele><time>2026-05-02T12:07:09Z</time></trkpt><trkpt lat="42.12260220386227" lon="13.694547897526606"><ele>797.0</ele><time>2026-05-02T12:07:10Z</time></trkpt><trkpt lat="42.122531913320174" lon="13.694572240308425"><ele>797.0</ele><time>2026-05-02T12:07:11Z</time></trkpt><trkpt lat="42.12246310997559" lon="13.694593609724372"><ele>796.8333333333334</ele><time>2026-05-02T12:07:12Z</time></trkpt><trkpt lat="42.1223902016654" lon="13.69461235147764"><ele>796.6666666666667</ele><time>2026-05-02T12:07:13Z</time></trkpt><trkpt lat="42.12232113080378" lon="13.694624252455892"><ele>796.5</ele><time>2026-05-02T12:07:14Z</time></trkpt><trkpt lat="42.12225771632857" lon="13.694621825222853"><ele>796.3333333333333</ele><time>2026-05-02T12:07:15Z</time></trkpt><trkpt lat="42.12215337011088" lon="13.694590113719766"><ele>796.1666666666666</ele><time>2026-05-02T12:07:17Z</time></trkpt><trkpt lat="42.12203962917083" lon="13.694550306574564"><ele>796.0</ele><time>2026-05-02T12:07:19Z</time></trkpt><trkpt lat="42.122100695765795" lon="13.6944065296495"><ele>798.8</ele><time>2026-05-02T12:07:29Z</time></trkpt><trkpt lat="42.122154676095285" lon="13.694313815160443"><ele>801.5999999999999</ele><time>2026-05-02T12:07:30Z</time></trkpt><trkpt lat="42.12219000240978" lon="13.694210648407923"><ele>804.4</ele><time>2026-05-02T12:07:31Z</time></trkpt><trkpt lat="42.122236129492656" lon="13.694088851494877"><ele>807.2</ele><time>2026-05-02T12:07:32Z</time></trkpt><trkpt lat="42.12227891650193" lon="13.693969222287484"><ele>810.0</ele><time>2026-05-02T12:07:33Z</time></trkpt><trkpt lat="42.12232460257918" lon="13.693832305145639"><ele>810.0</ele><time>2026-05-02T12:07:34Z</time></trkpt><trkpt lat="42.12237103103204" lon="13.693692287827131"><ele>810.0</ele><time>2026-05-02T12:07:35Z</time></trkpt><trkpt lat="42.12242125924386" lon="13.693549642612119"><ele>810.0</ele><time>2026-05-02T12:07:36Z</time></trkpt><trkpt lat="42.1224726231009" lon="13.69340215293262"><ele>810.0</ele><time>2026-05-02T12:07:37Z</time></trkpt><trkpt lat="42.122520541513055" lon="13.693262927513217"><ele>809.5</ele><time>2026-05-02T12:07:38Z</time></trkpt><trkpt lat="42.12256467926605" lon="13.693123452245722"><ele>809.0</ele><time>2026-05-02T12:07:39Z</time></trkpt><trkpt lat="42.122599813512736" lon="13.69300203132381"><ele>808.5</ele><time>2026-05-02T12:07:40Z</time></trkpt><trkpt lat="42.122604583698276" lon="13.69289792508796"><ele>808.0</ele><time>2026-05-02T12:07:41Z</time></trkpt><trkpt lat="42.12257623978082" lon="13.692812889784312"><ele>807.5</ele><time>2026-05-02T12:07:42Z</time></trkpt><trkpt lat="42.122510227676926" lon="13.69275742317101"><ele>807.0</ele><time>2026-05-02T12:07:43Z</time></trkpt><trkpt lat="42.12243777957234" lon="13.692730653680567"><ele>811.0</ele><time>2026-05-02T12:07:44Z</time></trkpt><trkpt lat="42.122349150663" lon="13.692801024070219"><ele>815.0</ele><time>2026-05-02T12:07:45Z</time></trkpt><trkpt lat="42.12226002871382" lon="13.692855078738654"><ele>819.0</ele><time>2026-05-02T12:07:46Z</time></trkpt><trkpt lat="42.12216941702601" lon="13.69292301938842"><ele>823.0</ele><time>2026-05-02T12:07:47Z</time></trkpt><trkpt lat="42.12207858613155" lon="13.692992894303572"><ele>827.0</ele><time>2026-05-02T12:07:48Z</time></trkpt><trkpt lat="42.12197615041791" lon="13.693067155300563"><ele>827.0</ele><time>2026-05-02T12:07:49Z</time></trkpt><trkpt lat="42.12187116274045" lon="13.693164952061869"><ele>827.0</ele><time>2026-05-02T12:07:50Z</time></trkpt><trkpt lat="42.121751974528834" lon="13.693221451496747"><ele>827.0</ele><time>2026-05-02T12:07:51Z</time></trkpt><trkpt lat="42.12164065788211" lon="13.693290884377909"><ele>827.0</ele><time>2026-05-02T12:07:52Z</time></trkpt><trkpt lat="42.1215355747251" lon="13.693368437156787"><ele>832.25</ele><time>2026-05-02T12:07:53Z</time></trkpt><trkpt lat="42.12141972273721" lon="13.693412344546818"><ele>837.5</ele><time>2026-05-02T12:07:54Z</time></trkpt><trkpt lat="42.12130111667253" lon="13.693462881458327"><ele>842.75</ele><time>2026-05-02T12:07:55Z</time></trkpt><trkpt lat="42.121184952170296" lon="13.693522420716452"><ele>848.0</ele><time>2026-05-02T12:07:56Z</time></trkpt><trkpt lat="42.12105844863749" lon="13.693541827108142"><ele>848.0</ele><time>2026-05-02T12:07:57Z</time></trkpt><trkpt lat="42.120935451902106" lon="13.693585414050833"><ele>848.0</ele><time>2026-05-02T12:07:58Z</time></trkpt><trkpt lat="42.120824997569876" lon="13.693652876223952"><ele>848.0</ele><time>2026-05-02T12:07:59.001Z</time></trkpt><trkpt lat="42.12070837928693" lon="13.693697573099742"><ele>848.0</ele><time>2026-05-02T12:08:00.001Z</time></trkpt><trkpt lat="42.12059339093481" lon="13.69374407913683"><ele>845.75</ele><time>2026-05-02T12:08:01.001Z</time></trkpt><trkpt lat="42.120477073299845" lon="13.693793788938693"><ele>843.5</ele><time>2026-05-02T12:08:02.001Z</time></trkpt><trkpt lat="42.12036120123164" lon="13.693838313115252"><ele>841.25</ele><time>2026-05-02T12:08:03.001Z</time></trkpt><trkpt lat="42.12023955077103" lon="13.693882596502718"><ele>839.0</ele><time>2026-05-02T12:08:04.001Z</time></trkpt><trkpt lat="42.12012102002121" lon="13.693930913933784"><ele>839.0</ele><time>2026-05-02T12:08:05.001Z</time></trkpt><trkpt lat="42.12000276832223" lon="13.693988984336322"><ele>839.0</ele><time>2026-05-02T12:08:06.001Z</time></trkpt><trkpt lat="42.119888109758946" lon="13.694043094095688"><ele>839.0</ele><time>2026-05-02T12:08:07.001Z</time></trkpt><trkpt lat="42.11976655360663" lon="13.694100972826087"><ele>839.0</ele><time>2026-05-02T12:08:08.001Z</time></trkpt><trkpt lat="42.1196463978797" lon="13.694152946574404"><ele>845.25</ele><time>2026-05-02T12:08:09.001Z</time></trkpt><trkpt lat="42.119524361564324" lon="13.694199004023753"><ele>851.5</ele><time>2026-05-02T12:08:10Z</time></trkpt><trkpt lat="42.11940435053546" lon="13.69424662641479"><ele>857.75</ele><time>2026-05-02T12:08:11Z</time></trkpt><trkpt lat="42.119281015311174" lon="13.694259199034349"><ele>864.0</ele><time>2026-05-02T12:08:12Z</time></trkpt><trkpt lat="42.11915624590629" lon="13.69428698181245"><ele>862.25</ele><time>2026-05-02T12:08:13Z</time></trkpt><trkpt lat="42.11903812107659" lon="13.694334040040882"><ele>860.5</ele><time>2026-05-02T12:08:14Z</time></trkpt><trkpt lat="42.11891577712274" lon="13.694348439864932"><ele>858.75</ele><time>2026-05-02T12:08:15Z</time></trkpt><trkpt lat="42.11880436160327" lon="13.694434655903718"><ele>857.0</ele><time>2026-05-02T12:08:16Z</time></trkpt><trkpt lat="42.11868633770125" lon="13.694490664474534"><ele>857.0</ele><time>2026-05-02T12:08:17Z</time></trkpt><trkpt lat="42.118577261702484" lon="13.694586045571224"><ele>857.0</ele><time>2026-05-02T12:08:18Z</time></trkpt><trkpt lat="42.118457850456785" lon="13.694653750565319"><ele>857.0</ele><time>2026-05-02T12:08:19Z</time></trkpt><trkpt lat="42.11833910888858" lon="13.694730105407457"><ele>857.0</ele><time>2026-05-02T12:08:20Z</time></trkpt><trkpt lat="42.1182201387892" lon="13.69480294408692"><ele>864.5</ele><time>2026-05-02T12:08:21Z</time></trkpt><trkpt lat="42.11810237001902" lon="13.694879653991148"><ele>872.0</ele><time>2026-05-02T12:08:22Z</time></trkpt><trkpt lat="42.11798271624012" lon="13.694957341543033"><ele>879.5</ele><time>2026-05-02T12:08:23Z</time></trkpt><trkpt lat="42.11786407612659" lon="13.695034719849925"><ele>887.0</ele><time>2026-05-02T12:08:24Z</time></trkpt><trkpt lat="42.11774106046892" lon="13.695103931057542"><ele>887.0</ele><time>2026-05-02T12:08:25Z</time></trkpt><trkpt lat="42.11761051888148" lon="13.695141487636318"><ele>887.0</ele><time>2026-05-02T12:08:26Z</time></trkpt><trkpt lat="42.117485514336124" lon="13.695179197185231"><ele>887.0</ele><time>2026-05-02T12:08:27Z</time></trkpt><trkpt lat="42.117354173672574" lon="13.695204390343504"><ele>887.0</ele><time>2026-05-02T12:08:28Z</time></trkpt><trkpt lat="42.1172269784645" lon="13.69522655017731"><ele>881.0</ele><time>2026-05-02T12:08:29Z</time></trkpt><trkpt lat="42.11710369357086" lon="13.69526926290588"><ele>875.0</ele><time>2026-05-02T12:08:30Z</time></trkpt><trkpt lat="42.11697916748221" lon="13.695295188494313"><ele>869.0</ele><time>2026-05-02T12:08:31Z</time></trkpt><trkpt lat="42.116857056527785" lon="13.695323940036687"><ele>863.0</ele><time>2026-05-02T12:08:32Z</time></trkpt><trkpt lat="42.116732998959115" lon="13.695359482928314"><ele>863.0</ele><time>2026-05-02T12:08:33Z</time></trkpt><trkpt lat="42.11660620957094" lon="13.695382396117457"><ele>863.0</ele><time>2026-05-02T12:08:34Z</time></trkpt><trkpt lat="42.116476886711446" lon="13.695407453125231"><ele>863.0</ele><time>2026-05-02T12:08:35Z</time></trkpt><trkpt lat="42.11634918865235" lon="13.695439950436588"><ele>863.0</ele><time>2026-05-02T12:08:36Z</time></trkpt><trkpt lat="42.11621927597715" lon="13.695478147845606"><ele>868.25</ele><time>2026-05-02T12:08:37Z</time></trkpt><trkpt lat="42.11608900561884" lon="13.695516951143551"><ele>873.5</ele><time>2026-05-02T12:08:38Z</time></trkpt><trkpt lat="42.115961135122205" lon="13.695555848697326"><ele>878.75</ele><time>2026-05-02T12:08:39Z</time></trkpt><trkpt lat="42.11582403695828" lon="13.695587952084578"><ele>884.0</ele><time>2026-05-02T12:08:40Z</time></trkpt><trkpt lat="42.11569129477231" lon="13.6956415925375"><ele>890.6666666666667</ele><time>2026-05-02T12:08:41Z</time></trkpt><trkpt lat="42.115534153602" lon="13.69565806078423"><ele>897.3333333333333</ele><time>2026-05-02T12:08:42Z</time></trkpt><trkpt lat="42.11537279654556" lon="13.695695781514102"><ele>904.0</ele><time>2026-05-02T12:08:43Z</time></trkpt><trkpt lat="42.1152128861492" lon="13.695733055466263"><ele>904.0</ele><time>2026-05-02T12:08:44Z</time></trkpt><trkpt lat="42.11505009849297" lon="13.69577100006004"><ele>904.0</ele><time>2026-05-02T12:08:45Z</time></trkpt><trkpt lat="42.11487939667102" lon="13.69581036747366"><ele>904.0</ele><time>2026-05-02T12:08:46Z</time></trkpt><trkpt lat="42.11471229514824" lon="13.695848796429324"><ele>910.0</ele><time>2026-05-02T12:08:47Z</time></trkpt><trkpt lat="42.114546179319696" lon="13.69588406599575"><ele>916.0</ele><time>2026-05-02T12:08:48Z</time></trkpt><trkpt lat="42.11439243446315" lon="13.695919074180797"><ele>922.0</ele><time>2026-05-02T12:08:49Z</time></trkpt><trkpt lat="42.114247405883226" lon="13.69595794630023"><ele>922.0</ele><time>2026-05-02T12:08:50Z</time></trkpt><trkpt lat="42.114108371629186" lon="13.696013119288903"><ele>922.0</ele><time>2026-05-02T12:08:51Z</time></trkpt><trkpt lat="42.11397024596816" lon="13.69604787017909"><ele>922.0</ele><time>2026-05-02T12:08:52Z</time></trkpt><trkpt lat="42.113833733066926" lon="13.696089989857432"><ele>922.0</ele><time>2026-05-02T12:08:53Z</time></trkpt><trkpt lat="42.11368918316247" lon="13.696134493083681"><ele>921.0</ele><time>2026-05-02T12:08:54Z</time></trkpt><trkpt lat="42.11354246574773" lon="13.696183167652487"><ele>920.0</ele><time>2026-05-02T12:08:55Z</time></trkpt><trkpt lat="42.113401783339064" lon="13.696232802684184"><ele>919.0</ele><time>2026-05-02T12:08:56Z</time></trkpt><trkpt lat="42.11325661235091" lon="13.696248575210191"><ele>918.0</ele><time>2026-05-02T12:08:57Z</time></trkpt><trkpt lat="42.113121826147314" lon="13.696311817547619"><ele>918.0</ele><time>2026-05-02T12:08:58Z</time></trkpt><trkpt lat="42.11298540673005" lon="13.696358685462569"><ele>918.0</ele><time>2026-05-02T12:08:59Z</time></trkpt><trkpt lat="42.11284647577316" lon="13.696418580471986"><ele>918.0</ele><time>2026-05-02T12:09:00Z</time></trkpt><trkpt lat="42.11271101976179" lon="13.696489483776373"><ele>918.0</ele><time>2026-05-02T12:09:01Z</time></trkpt><trkpt lat="42.112569984814684" lon="13.69658060235375"><ele>918.0</ele><time>2026-05-02T12:09:02Z</time></trkpt><trkpt lat="42.1124287704068" lon="13.696671677828624"><ele>918.0</ele><time>2026-05-02T12:09:03Z</time></trkpt><trkpt lat="42.11228159137098" lon="13.696764687615573"><ele>918.0</ele><time>2026-05-02T12:09:04Z</time></trkpt><trkpt lat="42.11213192260049" lon="13.69684799328869"><ele>914.6666666666667</ele><time>2026-05-02T12:09:05Z</time></trkpt><trkpt lat="42.11198030345319" lon="13.696930740185076"><ele>911.3333333333334</ele><time>2026-05-02T12:09:06Z</time></trkpt><trkpt lat="42.11184619856571" lon="13.697015713040734"><ele>908.0</ele><time>2026-05-02T12:09:07Z</time></trkpt><trkpt lat="42.111717317940915" lon="13.697091767559266"><ele>908.0</ele><time>2026-05-02T12:09:08Z</time></trkpt><trkpt lat="42.11158277400339" lon="13.697148897615637"><ele>908.0</ele><time>2026-05-02T12:09:09Z</time></trkpt><trkpt lat="42.111447665212694" lon="13.69720945305295"><ele>908.0</ele><time>2026-05-02T12:09:10Z</time></trkpt><trkpt lat="42.111312101197015" lon="13.697270397162143"><ele>908.0</ele><time>2026-05-02T12:09:11Z</time></trkpt><trkpt lat="42.11118373776389" lon="13.697355314949485"><ele>915.5</ele><time>2026-05-02T12:09:12Z</time></trkpt><trkpt lat="42.111047456248876" lon="13.697419960386254"><ele>923.0</ele><time>2026-05-02T12:09:13Z</time></trkpt><trkpt lat="42.11091733538301" lon="13.69748795395375"><ele>930.5</ele><time>2026-05-02T12:09:14Z</time></trkpt><trkpt lat="42.11079384992845" lon="13.697565338886944"><ele>938.0</ele><time>2026-05-02T12:09:15Z</time></trkpt><trkpt lat="42.110672616080834" lon="13.697653600205378"><ele>936.75</ele><time>2026-05-02T12:09:16Z</time></trkpt><trkpt lat="42.110553886462704" lon="13.69774703529999"><ele>935.5</ele><time>2026-05-02T12:09:17Z</time></trkpt><trkpt lat="42.11043144274945" lon="13.697836091546307"><ele>934.25</ele><time>2026-05-02T12:09:18Z</time></trkpt><trkpt lat="42.11030942900327" lon="13.69791355768249"><ele>933.0</ele><time>2026-05-02T12:09:19Z</time></trkpt><trkpt lat="42.11017788845905" lon="13.697951692185816"><ele>933.0</ele><time>2026-05-02T12:09:20Z</time></trkpt><trkpt lat="42.11004933172033" lon="13.6980111524195"><ele>933.0</ele><time>2026-05-02T12:09:21Z</time></trkpt><trkpt lat="42.10991625072836" lon="13.698072705214434"><ele>933.0</ele><time>2026-05-02T12:09:22Z</time></trkpt><trkpt lat="42.109783520431236" lon="13.69813409585593"><ele>933.0</ele><time>2026-05-02T12:09:23Z</time></trkpt><trkpt lat="42.10965149603606" lon="13.698200444748604"><ele>939.25</ele><time>2026-05-02T12:09:24Z</time></trkpt><trkpt lat="42.109519142562235" lon="13.698270865412274"><ele>945.5</ele><time>2026-05-02T12:09:25Z</time></trkpt><trkpt lat="42.10938879263108" lon="13.698332811682599"><ele>951.75</ele><time>2026-05-02T12:09:26Z</time></trkpt><trkpt lat="42.10925587873402" lon="13.698384065157727"><ele>958.0</ele><time>2026-05-02T12:09:27Z</time></trkpt><trkpt lat="42.10912678983454" lon="13.698427559691124"><ele>957.75</ele><time>2026-05-02T12:09:28Z</time></trkpt><trkpt lat="42.10900043988549" lon="13.698489770223562"><ele>957.5</ele><time>2026-05-02T12:09:29Z</time></trkpt><trkpt lat="42.108875586860414" lon="13.698517490196275"><ele>957.25</ele><time>2026-05-02T12:09:30Z</time></trkpt><trkpt lat="42.10875988920977" lon="13.698523929876792"><ele>957.0</ele><time>2026-05-02T12:09:31Z</time></trkpt><trkpt lat="42.108650758061344" lon="13.698539343513632"><ele>957.0</ele><time>2026-05-02T12:09:32Z</time></trkpt><trkpt lat="42.108553789124585" lon="13.698544367372"><ele>957.0</ele><time>2026-05-02T12:09:33Z</time></trkpt><trkpt lat="42.10846448386366" lon="13.69855132231157"><ele>957.0</ele><time>2026-05-02T12:09:34Z</time></trkpt><trkpt lat="42.10839056061583" lon="13.69847186088834"><ele>957.0</ele><time>2026-05-02T12:09:35Z</time></trkpt><trkpt lat="42.10835304679715" lon="13.698365824170882"><ele>957.0</ele><time>2026-05-02T12:09:36Z</time></trkpt><trkpt lat="42.108326022728605" lon="13.69824238985049"><ele>957.0</ele><time>2026-05-02T12:09:37Z</time></trkpt><trkpt lat="42.108288544305765" lon="13.69809581059375"><ele>957.0</ele><time>2026-05-02T12:09:38Z</time></trkpt><trkpt lat="42.10823100779909" lon="13.697956206950543"><ele>957.0</ele><time>2026-05-02T12:09:39Z</time></trkpt><trkpt lat="42.10817605448701" lon="13.697829079070667"><ele>957.0</ele><time>2026-05-02T12:09:40Z</time></trkpt><trkpt lat="42.10812423396697" lon="13.697728110437529"><ele>957.0</ele><time>2026-05-02T12:09:41Z</time></trkpt><trkpt lat="42.108080626874454" lon="13.697645891320613"><ele>956.0</ele><time>2026-05-02T12:09:42Z</time></trkpt><trkpt lat="42.108064629456834" lon="13.69755721773754"><ele>955.0</ele><time>2026-05-02T12:09:43Z</time></trkpt><trkpt lat="42.10797368039817" lon="13.697445229511889"><ele>954.0</ele><time>2026-05-02T12:09:45Z</time></trkpt><trkpt lat="42.10793656398938" lon="13.697364560652387"><ele>953.0</ele><time>2026-05-02T12:09:46Z</time></trkpt><trkpt lat="42.10793082056289" lon="13.697262371952604"><ele>952.0</ele><time>2026-05-02T12:09:47Z</time></trkpt><trkpt lat="42.107917735613945" lon="13.697161517781254"><ele>951.0</ele><time>2026-05-02T12:09:48Z</time></trkpt><trkpt lat="42.10788928942048" lon="13.697058607502585"><ele>951.0</ele><time>2026-05-02T12:09:49Z</time></trkpt><trkpt lat="42.10787282762127" lon="13.696959545950822"><ele>951.0</ele><time>2026-05-02T12:09:50Z</time></trkpt><trkpt lat="42.10785264658097" lon="13.69686201959998"><ele>951.0</ele><time>2026-05-02T12:09:51Z</time></trkpt><trkpt lat="42.10783058529297" lon="13.696752001841933"><ele>951.0</ele><time>2026-05-02T12:09:52Z</time></trkpt><trkpt lat="42.10781369715286" lon="13.696638942610956"><ele>951.0</ele><time>2026-05-02T12:09:53Z</time></trkpt><trkpt lat="42.1077929125864" lon="13.696529245607877"><ele>951.0</ele><time>2026-05-02T12:09:54Z</time></trkpt><trkpt lat="42.1077854266162" lon="13.696413806579814"><ele>950.5999999999999</ele><time>2026-05-02T12:09:55Z</time></trkpt><trkpt lat="42.10774947441087" lon="13.696300991149572"><ele>950.1999999999999</ele><time>2026-05-02T12:09:56Z</time></trkpt><trkpt lat="42.10773257499061" lon="13.69618212777218"><ele>949.8000000000001</ele><time>2026-05-02T12:09:57Z</time></trkpt><trkpt lat="42.10771171876196" lon="13.696063689360052"><ele>949.4000000000001</ele><time>2026-05-02T12:09:57.999Z</time></trkpt><trkpt lat="42.107689433311656" lon="13.695944862493105"><ele>949.0</ele><time>2026-05-02T12:09:58.999Z</time></trkpt><trkpt lat="42.107669695615265" lon="13.695819324994364"><ele>948.3333333333333</ele><time>2026-05-02T12:09:59.999Z</time></trkpt><trkpt lat="42.10765139031956" lon="13.695699408299754"><ele>947.6666666666666</ele><time>2026-05-02T12:10:00.999Z</time></trkpt><trkpt lat="42.107628403868226" lon="13.69557339348073"><ele>947.0</ele><time>2026-05-02T12:10:01.999Z</time></trkpt><trkpt lat="42.10760978255625" lon="13.695469842640064"><ele>946.3333333333333</ele><time>2026-05-02T12:10:02.999Z</time></trkpt><trkpt lat="42.10759160470459" lon="13.69535907560787"><ele>945.6666666666666</ele><time>2026-05-02T12:10:03.999Z</time></trkpt><trkpt lat="42.10757248611064" lon="13.695255031397288"><ele>945.0</ele><time>2026-05-02T12:10:05.001Z</time></trkpt><trkpt lat="42.10755254097103" lon="13.695151534038382"><ele>944.6666666666666</ele><time>2026-05-02T12:10:06.001Z</time></trkpt><trkpt lat="42.10753432072645" lon="13.695043304083123"><ele>944.3333333333333</ele><time>2026-05-02T12:10:07.001Z</time></trkpt><trkpt lat="42.10751865419004" lon="13.694939479663825"><ele>944.0</ele><time>2026-05-02T12:10:08.001Z</time></trkpt><trkpt lat="42.10751783038886" lon="13.694828746279274"><ele>943.6666666666666</ele><time>2026-05-02T12:10:09.001Z</time></trkpt><trkpt lat="42.107485628893606" lon="13.69472264140909"><ele>943.3333333333333</ele><time>2026-05-02T12:10:10.001Z</time></trkpt><trkpt lat="42.10747540538467" lon="13.694631663016683"><ele>943.0</ele><time>2026-05-02T12:10:11.001Z</time></trkpt><trkpt lat="42.107426934024886" lon="13.694486549911282"><ele>940.1666666666666</ele><time>2026-05-02T12:10:13.001Z</time></trkpt><trkpt lat="42.107357903224106" lon="13.694367550814784"><ele>937.3333333333333</ele><time>2026-05-02T12:10:15.001Z</time></trkpt><trkpt lat="42.107289707485414" lon="13.694339653224963"><ele>934.5</ele><time>2026-05-02T12:10:16.001Z</time></trkpt><trkpt lat="42.107205228119405" lon="13.694350854136015"><ele>931.6666666666667</ele><time>2026-05-02T12:10:17.001Z</time></trkpt><trkpt lat="42.10711812924295" lon="13.694351420372474"><ele>928.8333333333334</ele><time>2026-05-02T12:10:18.001Z</time></trkpt><trkpt lat="42.107028965812304" lon="13.694321915543277"><ele>926.0</ele><time>2026-05-02T12:10:19.001Z</time></trkpt><trkpt lat="42.106933245306934" lon="13.694312131460595"><ele>926.0</ele><time>2026-05-02T12:10:20.001Z</time></trkpt><trkpt lat="42.10683603233276" lon="13.694299219708679"><ele>925.9999999999999</ele><time>2026-05-02T12:10:21Z</time></trkpt><trkpt lat="42.10674069567112" lon="13.694283498389565"><ele>925.9999999999999</ele><time>2026-05-02T12:10:22Z</time></trkpt><trkpt lat="42.10664553475278" lon="13.694244496378117"><ele>926.0</ele><time>2026-05-02T12:10:23Z</time></trkpt><trkpt lat="42.106548440103836" lon="13.694210728015083"><ele>926.0</ele><time>2026-05-02T12:10:24Z</time></trkpt><trkpt lat="42.10645771849326" lon="13.69419019252577"><ele>923.5999999999999</ele><time>2026-05-02T12:10:25Z</time></trkpt><trkpt lat="42.10636313490168" lon="13.69418625378648"><ele>921.1999999999999</ele><time>2026-05-02T12:10:26Z</time></trkpt><trkpt lat="42.1062727278212" lon="13.694154225546672"><ele>918.8000000000001</ele><time>2026-05-02T12:10:27Z</time></trkpt><trkpt lat="42.10617981241986" lon="13.69415576302516"><ele>916.4000000000001</ele><time>2026-05-02T12:10:28Z</time></trkpt><trkpt lat="42.10609108466778" lon="13.69413915536406"><ele>914.0</ele><time>2026-05-02T12:10:29Z</time></trkpt><trkpt lat="42.10598800447324" lon="13.694113757266301"><ele>914.0</ele><time>2026-05-02T12:10:30Z</time></trkpt><trkpt lat="42.10588953348603" lon="13.69407056753879"><ele>914.0000000000001</ele><time>2026-05-02T12:10:31Z</time></trkpt><trkpt lat="42.105788343160846" lon="13.694045420495257"><ele>914.0000000000001</ele><time>2026-05-02T12:10:32Z</time></trkpt><trkpt lat="42.105698699759486" lon="13.694022478177732"><ele>914.0</ele><time>2026-05-02T12:10:33Z</time></trkpt><trkpt lat="42.10561903777208" lon="13.693999386652875"><ele>914.0</ele><time>2026-05-02T12:10:34Z</time></trkpt><trkpt lat="42.10552603257215" lon="13.693971406294624"><ele>912.6666666666667</ele><time>2026-05-02T12:10:35Z</time></trkpt><trkpt lat="42.105445525922356" lon="13.693972248876934"><ele>911.3333333333334</ele><time>2026-05-02T12:10:36Z</time></trkpt><trkpt lat="42.10536224247381" lon="13.693927772429005"><ele>910.0</ele><time>2026-05-02T12:10:37Z</time></trkpt><trkpt lat="42.10528703137044" lon="13.693906177695306"><ele>908.6666666666667</ele><time>2026-05-02T12:10:38Z</time></trkpt><trkpt lat="42.105221828483124" lon="13.693888223055714"><ele>907.3333333333334</ele><time>2026-05-02T12:10:39Z</time></trkpt><trkpt lat="42.10515645796627" lon="13.693878838141465"><ele>906.0</ele><time>2026-05-02T12:10:40Z</time></trkpt><trkpt lat="42.10507224256621" lon="13.693786944919474"><ele>906.0</ele><time>2026-05-02T12:10:42Z</time></trkpt><trkpt lat="42.10501052957393" lon="13.693654953364193"><ele>905.9999999999999</ele><time>2026-05-02T12:10:44Z</time></trkpt><trkpt lat="42.10496729383813" lon="13.693576890980303"><ele>905.9999999999999</ele><time>2026-05-02T12:10:45Z</time></trkpt><trkpt lat="42.10493224914748" lon="13.69350215861042"><ele>906.0</ele><time>2026-05-02T12:10:46Z</time></trkpt><trkpt lat="42.10487277408457" lon="13.69338198354099"><ele>906.0</ele><time>2026-05-02T12:10:48Z</time></trkpt><trkpt lat="42.10480124654928" lon="13.693291456166312"><ele>908.1666666666666</ele><time>2026-05-02T12:10:50Z</time></trkpt><trkpt lat="42.10468892001486" lon="13.693254636385422"><ele>910.3333333333333</ele><time>2026-05-02T12:10:52Z</time></trkpt><trkpt lat="42.104621754820215" lon="13.693273936923177"><ele>912.5</ele><time>2026-05-02T12:10:53Z</time></trkpt><trkpt lat="42.104549826733056" lon="13.693288638150758"><ele>914.6666666666666</ele><time>2026-05-02T12:10:54Z</time></trkpt><trkpt lat="42.10448028302824" lon="13.693273587718199"><ele>916.8333333333333</ele><time>2026-05-02T12:10:55Z</time></trkpt><trkpt lat="42.104410058279264" lon="13.693252441253748"><ele>919.0</ele><time>2026-05-02T12:10:56Z</time></trkpt><trkpt lat="42.10433925976806" lon="13.693233901693029"><ele>919.0</ele><time>2026-05-02T12:10:57Z</time></trkpt><trkpt lat="42.104268595112565" lon="13.693222351076209"><ele>918.9999999999999</ele><time>2026-05-02T12:10:58Z</time></trkpt><trkpt lat="42.104199279901465" lon="13.693239648063757"><ele>919.0</ele><time>2026-05-02T12:10:59Z</time></trkpt><trkpt lat="42.10414263206512" lon="13.693277019194907"><ele>919.0</ele><time>2026-05-02T12:11:00Z</time></trkpt><trkpt lat="42.10409466653141" lon="13.693340348788473"><ele>918.9999999999999</ele><time>2026-05-02T12:11:01Z</time></trkpt><trkpt lat="42.104059940904065" lon="13.693436277627326"><ele>919.0</ele><time>2026-05-02T12:11:02Z</time></trkpt><trkpt lat="42.104049314900266" lon="13.69353863658897"><ele>919.0</ele><time>2026-05-02T12:11:03Z</time></trkpt><trkpt lat="42.1040361333778" lon="13.693637629432938"><ele>919.8000000000001</ele><time>2026-05-02T12:11:04Z</time></trkpt><trkpt lat="42.10402423742971" lon="13.693733807518393"><ele>920.6000000000001</ele><time>2026-05-02T12:11:05Z</time></trkpt><trkpt lat="42.103986777898065" lon="13.693813557654629"><ele>921.4</ele><time>2026-05-02T12:11:06Z</time></trkpt><trkpt lat="42.103942640736214" lon="13.693915176281795"><ele>922.2</ele><time>2026-05-02T12:11:08Z</time></trkpt><trkpt lat="42.10385814228173" lon="13.694030052529437"><ele>923.0</ele><time>2026-05-02T12:11:10Z</time></trkpt><trkpt lat="42.10375530612936" lon="13.694086539168358"><ele>923.0000000000001</ele><time>2026-05-02T12:11:12Z</time></trkpt><trkpt lat="42.10365240430807" lon="13.694097737896223"><ele>923.0</ele><time>2026-05-02T12:11:14Z</time></trkpt><trkpt lat="42.10358439923558" lon="13.694096709730605"><ele>923.0</ele><time>2026-05-02T12:11:15Z</time></trkpt><trkpt lat="42.103511093803476" lon="13.694105657289983"><ele>923.0</ele><time>2026-05-02T12:11:16Z</time></trkpt><trkpt lat="42.103447401742685" lon="13.694081496870547"><ele>923.0000000000001</ele><time>2026-05-02T12:11:17Z</time></trkpt><trkpt lat="42.10332029531134" lon="13.694054335497691"><ele>923.0</ele><time>2026-05-02T12:11:19Z</time></trkpt><trkpt lat="42.10324471817727" lon="13.694060921891683"><ele>923.6666666666667</ele><time>2026-05-02T12:11:20Z</time></trkpt><trkpt lat="42.10316768706072" lon="13.694072916697722"><ele>924.3333333333334</ele><time>2026-05-02T12:11:21Z</time></trkpt><trkpt lat="42.103084942192886" lon="13.694082742296658"><ele>925.0</ele><time>2026-05-02T12:11:22Z</time></trkpt><trkpt lat="42.10300650108701" lon="13.694124061644859"><ele>925.6666666666667</ele><time>2026-05-02T12:11:23Z</time></trkpt><trkpt lat="42.10292865872294" lon="13.694143340530339"><ele>926.3333333333334</ele><time>2026-05-02T12:11:24Z</time></trkpt><trkpt lat="42.10283391579554" lon="13.69416680511843"><ele>927.0</ele><time>2026-05-02T12:11:25Z</time></trkpt><trkpt lat="42.1027366621971" lon="13.694190891522604"><ele>927.0</ele><time>2026-05-02T12:11:26Z</time></trkpt><trkpt lat="42.10262564494763" lon="13.69421660375584"><ele>927.0</ele><time>2026-05-02T12:11:27Z</time></trkpt><trkpt lat="42.10251197909778" lon="13.694241647807093"><ele>927.0</ele><time>2026-05-02T12:11:28Z</time></trkpt><trkpt lat="42.1023990820061" lon="13.694262160907398"><ele>927.0</ele><time>2026-05-02T12:11:29Z</time></trkpt><trkpt lat="42.10228272525455" lon="13.694264174927882"><ele>928.2</ele><time>2026-05-02T12:11:30Z</time></trkpt><trkpt lat="42.10218344646514" lon="13.694247382535407"><ele>929.4000000000001</ele><time>2026-05-02T12:11:31Z</time></trkpt><trkpt lat="42.10209427439256" lon="13.694212300137135"><ele>930.5999999999999</ele><time>2026-05-02T12:11:32Z</time></trkpt><trkpt lat="42.1020141892645" lon="13.694145004782554"><ele>931.8</ele><time>2026-05-02T12:11:33Z</time></trkpt><trkpt lat="42.10198562137732" lon="13.694011343676383"><ele>933.0</ele><time>2026-05-02T12:11:34Z</time></trkpt><trkpt lat="42.1019166513566" lon="13.69396701541095"><ele>933.0</ele><time>2026-05-02T12:11:35Z</time></trkpt><trkpt lat="42.10186703925135" lon="13.69388149619704"><ele>933.0</ele><time>2026-05-02T12:11:36Z</time></trkpt><trkpt lat="42.10182480105897" lon="13.693798807398316"><ele>933.0</ele><time>2026-05-02T12:11:37Z</time></trkpt><trkpt lat="42.101765068200564" lon="13.693725533251948"><ele>933.0</ele><time>2026-05-02T12:11:38Z</time></trkpt><trkpt lat="42.101722139126544" lon="13.693648058442603"><ele>933.0</ele><time>2026-05-02T12:11:39Z</time></trkpt><trkpt lat="42.10161234070087" lon="13.693552769311864"><ele>933.0</ele><time>2026-05-02T12:11:41Z</time></trkpt><trkpt lat="42.10153371301365" lon="13.693515840673806"><ele>935.3333333333334</ele><time>2026-05-02T12:11:42Z</time></trkpt><trkpt lat="42.101458034732566" lon="13.69348789880505"><ele>937.6666666666667</ele><time>2026-05-02T12:11:43Z</time></trkpt><trkpt lat="42.10138811816568" lon="13.693476227167544"><ele>940.0</ele><time>2026-05-02T12:11:44Z</time></trkpt><trkpt lat="42.10127839087757" lon="13.693553303573855"><ele>942.3333333333334</ele><time>2026-05-02T12:11:46Z</time></trkpt><trkpt lat="42.10122188291416" lon="13.693632496597301"><ele>944.6666666666667</ele><time>2026-05-02T12:11:47Z</time></trkpt><trkpt lat="42.10119197332761" lon="13.693727722728415"><ele>947.0</ele><time>2026-05-02T12:11:48Z</time></trkpt><trkpt lat="42.10114645779766" lon="13.693791842234662"><ele>947.0000000000001</ele><time>2026-05-02T12:11:48.999Z</time></trkpt><trkpt lat="42.10108322520184" lon="13.69388835595717"><ele>947.0</ele><time>2026-05-02T12:11:50.999Z</time></trkpt><trkpt lat="42.10100971716633" lon="13.693976445806511"><ele>947.0</ele><time>2026-05-02T12:11:52.999Z</time></trkpt><trkpt lat="42.10095983821037" lon="13.694031750727875"><ele>947.0</ele><time>2026-05-02T12:11:53.999Z</time></trkpt><trkpt lat="42.10090684905029" lon="13.694088836829367"><ele>947.0000000000001</ele><time>2026-05-02T12:11:54.999Z</time></trkpt><trkpt lat="42.100860792770725" lon="13.694148776232202"><ele>947.0</ele><time>2026-05-02T12:11:55.999Z</time></trkpt><trkpt lat="42.1008055922479" lon="13.69420725666938"><ele>949.8</ele><time>2026-05-02T12:11:56.999Z</time></trkpt><trkpt lat="42.10073992701886" lon="13.694255656744051"><ele>952.6</ele><time>2026-05-02T12:11:57.999Z</time></trkpt><trkpt lat="42.10068046806944" lon="13.694312445113386"><ele>955.3999999999999</ele><time>2026-05-02T12:11:58.999Z</time></trkpt><trkpt lat="42.100561774947096" lon="13.694352944044399"><ele>958.1999999999999</ele><time>2026-05-02T12:12:00.999Z</time></trkpt><trkpt lat="42.100451106571896" lon="13.694319739021445"><ele>961.0</ele><time>2026-05-02T12:12:02.999Z</time></trkpt><trkpt lat="42.10039216586486" lon="13.694278459655264"><ele>961.0</ele><time>2026-05-02T12:12:03.999Z</time></trkpt><trkpt lat="42.100324183996655" lon="13.694266384919748"><ele>960.9999999999999</ele><time>2026-05-02T12:12:04.999Z</time></trkpt><trkpt lat="42.100216691291344" lon="13.69423737298752"><ele>960.9999999999999</ele><time>2026-05-02T12:12:06.999Z</time></trkpt><trkpt lat="42.10011838827853" lon="13.694253038863963"><ele>961.0</ele><time>2026-05-02T12:12:08.999Z</time></trkpt><trkpt lat="42.1000337340114" lon="13.694180674824779"><ele>961.0</ele><time>2026-05-02T12:12:11.001Z</time></trkpt><trkpt lat="42.09996373947489" lon="13.694154607366666"><ele>963.8333333333333</ele><time>2026-05-02T12:12:12.001Z</time></trkpt><trkpt lat="42.099892458734736" lon="13.694126670381713"><ele>966.6666666666666</ele><time>2026-05-02T12:12:13.001Z</time></trkpt><trkpt lat="42.09982616991557" lon="13.694092497869564"><ele>969.5</ele><time>2026-05-02T12:12:14.001Z</time></trkpt><trkpt lat="42.09972899973156" lon="13.69399777481898"><ele>972.3333333333333</ele><time>2026-05-02T12:12:16.001Z</time></trkpt><trkpt lat="42.09970903321833" lon="13.693914994280464"><ele>975.1666666666666</ele><time>2026-05-02T12:12:17.001Z</time></trkpt><trkpt lat="42.09967940550842" lon="13.693759400660504"><ele>978.0</ele><time>2026-05-02T12:12:19.001Z</time></trkpt><trkpt lat="42.09963328146915" lon="13.693597179986178"><ele>979.8</ele><time>2026-05-02T12:12:21.001Z</time></trkpt><trkpt lat="42.09960328622338" lon="13.693507569816166"><ele>981.5999999999999</ele><time>2026-05-02T12:12:22.001Z</time></trkpt><trkpt lat="42.099571058137215" lon="13.69342597629471"><ele>983.4000000000001</ele><time>2026-05-02T12:12:23.001Z</time></trkpt><trkpt lat="42.099485067502485" lon="13.693296492581304"><ele>985.2</ele><time>2026-05-02T12:12:25Z</time></trkpt><trkpt lat="42.09937527601263" lon="13.693202202004283"><ele>987.0</ele><time>2026-05-02T12:12:27Z</time></trkpt><trkpt lat="42.099272570079584" lon="13.693143613116264"><ele>987.0</ele><time>2026-05-02T12:12:29Z</time></trkpt><trkpt lat="42.09918794814739" lon="13.693147634222973"><ele>987.0</ele><time>2026-05-02T12:12:31Z</time></trkpt><trkpt lat="42.09906921542925" lon="13.693203931284915"><ele>987.0</ele><time>2026-05-02T12:12:33Z</time></trkpt><trkpt lat="42.099008259295296" lon="13.693251974518757"><ele>987.0</ele><time>2026-05-02T12:12:34Z</time></trkpt><trkpt lat="42.098959145868335" lon="13.693305730170211"><ele>987.0</ele><time>2026-05-02T12:12:35Z</time></trkpt><trkpt lat="42.098902881471425" lon="13.693433607305543"><ele>990.4000000000001</ele><time>2026-05-02T12:12:37Z</time></trkpt><trkpt lat="42.09888467762288" lon="13.693526516332437"><ele>993.8000000000001</ele><time>2026-05-02T12:12:38Z</time></trkpt><trkpt lat="42.09888145578099" lon="13.693612849693796"><ele>997.2</ele><time>2026-05-02T12:12:39Z</time></trkpt><trkpt lat="42.09889949686809" lon="13.693773170890667"><ele>1000.6</ele><time>2026-05-02T12:12:41Z</time></trkpt><trkpt lat="42.09889978877066" lon="13.69392466170403"><ele>1004.0</ele><time>2026-05-02T12:12:43Z</time></trkpt><trkpt lat="42.098862608582046" lon="13.694065459461562"><ele>1004.0</ele><time>2026-05-02T12:12:45Z</time></trkpt><trkpt lat="42.098807497841314" lon="13.694173081768588"><ele>1004.0000000000001</ele><time>2026-05-02T12:12:47Z</time></trkpt><trkpt lat="42.09870063276086" lon="13.694213606825144"><ele>1004.0000000000001</ele><time>2026-05-02T12:12:49Z</time></trkpt><trkpt lat="42.09858339831188" lon="13.694290310530988"><ele>1004.0</ele><time>2026-05-02T12:12:51Z</time></trkpt><trkpt lat="42.09852067001706" lon="13.694357748281671"><ele>1004.0</ele><time>2026-05-02T12:12:52Z</time></trkpt><trkpt lat="42.098464113831845" lon="13.694431840219199"><ele>1004.0000000000001</ele><time>2026-05-02T12:12:53Z</time></trkpt><trkpt lat="42.098409512929955" lon="13.694494971989146"><ele>1004.0</ele><time>2026-05-02T12:12:54Z</time></trkpt><trkpt lat="42.09835771562038" lon="13.69457911657079"><ele>1004.0</ele><time>2026-05-02T12:12:55Z</time></trkpt><trkpt lat="42.09830780270162" lon="13.694669335431286"><ele>1004.0</ele><time>2026-05-02T12:12:56Z</time></trkpt><trkpt lat="42.09827307398437" lon="13.694774104508518"><ele>1004.0000000000001</ele><time>2026-05-02T12:12:57Z</time></trkpt><trkpt lat="42.098238134256285" lon="13.69489063143138"><ele>1004.0</ele><time>2026-05-02T12:12:58Z</time></trkpt><trkpt lat="42.098198623758684" lon="13.694961125422736"><ele>1004.0000000000001</ele><time>2026-05-02T12:12:59Z</time></trkpt><trkpt lat="42.0981444546605" lon="13.695040400687994"><ele>1004.0</ele><time>2026-05-02T12:13:00Z</time></trkpt><trkpt lat="42.09808746991505" lon="13.69513957464247"><ele>1004.0</ele><time>2026-05-02T12:13:01Z</time></trkpt><trkpt lat="42.09803504039923" lon="13.695243160512835"><ele>1004.0</ele><time>2026-05-02T12:13:02Z</time></trkpt><trkpt lat="42.0979815344909" lon="13.69534582651929"><ele>1004.0000000000001</ele><time>2026-05-02T12:13:03Z</time></trkpt><trkpt lat="42.09793889651818" lon="13.695417397328674"><ele>1004.0</ele><time>2026-05-02T12:13:04Z</time></trkpt><trkpt lat="42.097838419674765" lon="13.69551895796678"><ele>1002.8000000000001</ele><time>2026-05-02T12:13:06Z</time></trkpt><trkpt lat="42.09772258044329" lon="13.695557790125806"><ele>1001.6000000000001</ele><time>2026-05-02T12:13:08Z</time></trkpt><trkpt lat="42.09760256733373" lon="13.69561240704803"><ele>1000.4</ele><time>2026-05-02T12:13:10Z</time></trkpt><trkpt lat="42.09753011848196" lon="13.695642882384766"><ele>999.2</ele><time>2026-05-02T12:13:11Z</time></trkpt><trkpt lat="42.09746194137208" lon="13.695664041214346"><ele>998.0</ele><time>2026-05-02T12:13:12Z</time></trkpt><trkpt lat="42.097394991323824" lon="13.69568516629674"><ele>998.0000000000001</ele><time>2026-05-02T12:13:13Z</time></trkpt><trkpt lat="42.09732550319036" lon="13.695718138231372"><ele>998.0</ele><time>2026-05-02T12:13:14Z</time></trkpt><trkpt lat="42.09725596960519" lon="13.695760199294126"><ele>998.0</ele><time>2026-05-02T12:13:15Z</time></trkpt><trkpt lat="42.09718013720652" lon="13.695814563670625"><ele>998.0</ele><time>2026-05-02T12:13:16Z</time></trkpt><trkpt lat="42.097103162885816" lon="13.695856086020694"><ele>998.0000000000001</ele><time>2026-05-02T12:13:17Z</time></trkpt><trkpt lat="42.097026571864674" lon="13.695883208374696"><ele>998.0</ele><time>2026-05-02T12:13:18Z</time></trkpt><trkpt lat="42.096945246017846" lon="13.695898736638416"><ele>998.0000000000001</ele><time>2026-05-02T12:13:19Z</time></trkpt><trkpt lat="42.09686857785125" lon="13.6959032537284"><ele>998.0</ele><time>2026-05-02T12:13:20Z</time></trkpt><trkpt lat="42.09679475332748" lon="13.695897957456994"><ele>998.0</ele><time>2026-05-02T12:13:21Z</time></trkpt><trkpt lat="42.09671831000324" lon="13.695880574449735"><ele>998.0</ele><time>2026-05-02T12:13:22Z</time></trkpt><trkpt lat="42.0966598520241" lon="13.69584796094166"><ele>998.0000000000001</ele><time>2026-05-02T12:13:23Z</time></trkpt><trkpt lat="42.096566481843986" lon="13.695757436213984"><ele>998.0</ele><time>2026-05-02T12:13:25Z</time></trkpt><trkpt lat="42.096478470693626" lon="13.69568638738986"><ele>997.5999999999999</ele><time>2026-05-02T12:13:27Z</time></trkpt><trkpt lat="42.09637846813451" lon="13.695669077997193"><ele>997.1999999999999</ele><time>2026-05-02T12:13:29Z</time></trkpt><trkpt lat="42.096319630152486" lon="13.695701636055322"><ele>996.8</ele><time>2026-05-02T12:13:30Z</time></trkpt><trkpt lat="42.09625460465178" lon="13.695749142853042"><ele>996.4</ele><time>2026-05-02T12:13:31Z</time></trkpt><trkpt lat="42.09615285478791" lon="13.69583855781366"><ele>996.0</ele><time>2026-05-02T12:13:33Z</time></trkpt><trkpt lat="42.09604248113964" lon="13.695897689434014"><ele>996.0</ele><time>2026-05-02T12:13:35Z</time></trkpt><trkpt lat="42.095929665131685" lon="13.695932070489318"><ele>995.9999999999999</ele><time>2026-05-02T12:13:37Z</time></trkpt><trkpt lat="42.09581740938364" lon="13.69588855492139"><ele>995.9999999999999</ele><time>2026-05-02T12:13:39Z</time></trkpt><trkpt lat="42.09570551119491" lon="13.695799130466904"><ele>996.0</ele><time>2026-05-02T12:13:41Z</time></trkpt><trkpt lat="42.095631710624716" lon="13.695755948784367"><ele>996.0</ele><time>2026-05-02T12:13:41.999Z</time></trkpt><trkpt lat="42.09555866484757" lon="13.695729318752267"><ele>997.0</ele><time>2026-05-02T12:13:42.999Z</time></trkpt><trkpt lat="42.09548911789873" lon="13.695726710543797"><ele>997.9999999999999</ele><time>2026-05-02T12:13:43.999Z</time></trkpt><trkpt lat="42.095421929973334" lon="13.69573547606552"><ele>999.0</ele><time>2026-05-02T12:13:44.999Z</time></trkpt><trkpt lat="42.09535149004373" lon="13.695751400842777"><ele>1000.0</ele><time>2026-05-02T12:13:45.999Z</time></trkpt><trkpt lat="42.09528646113076" lon="13.695769302571014"><ele>1000.9999999999999</ele><time>2026-05-02T12:13:46.999Z</time></trkpt><trkpt lat="42.095217019777195" lon="13.695797057022068"><ele>1002.0</ele><time>2026-05-02T12:13:47.999Z</time></trkpt><trkpt lat="42.09515352245045" lon="13.695837051245668"><ele>1003.0</ele><time>2026-05-02T12:13:48.999Z</time></trkpt><trkpt lat="42.095070865882306" lon="13.695902347886172"><ele>1002.9999999999999</ele><time>2026-05-02T12:13:50.999Z</time></trkpt><trkpt lat="42.094999700009346" lon="13.695946659844129"><ele>1003.0</ele><time>2026-05-02T12:13:51.999Z</time></trkpt><trkpt lat="42.09491885578473" lon="13.695990332621085"><ele>1003.0</ele><time>2026-05-02T12:13:52.999Z</time></trkpt><trkpt lat="42.09484014930406" lon="13.696018034083668"><ele>1003.0</ele><time>2026-05-02T12:13:53.999Z</time></trkpt><trkpt lat="42.094760705194865" lon="13.696039779836237"><ele>1002.9999999999999</ele><time>2026-05-02T12:13:54.999Z</time></trkpt><trkpt lat="42.09468346696" lon="13.696069056539127"><ele>1003.0</ele><time>2026-05-02T12:13:55.999Z</time></trkpt><trkpt lat="42.094608591051475" lon="13.696102385540817"><ele>1002.1666666666666</ele><time>2026-05-02T12:13:56.999Z</time></trkpt><trkpt lat="42.09453644695582" lon="13.696145540814818"><ele>1001.3333333333333</ele><time>2026-05-02T12:13:57.999Z</time></trkpt><trkpt lat="42.09446940487132" lon="13.696197777604146"><ele>1000.5</ele><time>2026-05-02T12:13:58.999Z</time></trkpt><trkpt lat="42.09439991165954" lon="13.69624387346571"><ele>999.6666666666667</ele><time>2026-05-02T12:13:59.999Z</time></trkpt><trkpt lat="42.09433356133453" lon="13.696282265480182"><ele>998.8333333333334</ele><time>2026-05-02T12:14:00.999Z</time></trkpt><trkpt lat="42.09426524229445" lon="13.696301806838688"><ele>998.0</ele><time>2026-05-02T12:14:01.999Z</time></trkpt><trkpt lat="42.0941895805571" lon="13.696315103539561"><ele>998.0000000000001</ele><time>2026-05-02T12:14:02.999Z</time></trkpt><trkpt lat="42.09411450606879" lon="13.696337021520389"><ele>998.0</ele><time>2026-05-02T12:14:03.999Z</time></trkpt><trkpt lat="42.09404631132327" lon="13.696365027112689"><ele>998.0</ele><time>2026-05-02T12:14:04.999Z</time></trkpt><trkpt lat="42.093974134416094" lon="13.69638456321579"><ele>998.0</ele><time>2026-05-02T12:14:05.999Z</time></trkpt><trkpt lat="42.0939009400772" lon="13.696401632986875"><ele>998.0000000000001</ele><time>2026-05-02T12:14:06.999Z</time></trkpt><trkpt lat="42.093830048590256" lon="13.696430542084666"><ele>998.0</ele><time>2026-05-02T12:14:07.999Z</time></trkpt><trkpt lat="42.093756067875134" lon="13.696483346158995"><ele>999.0000000000001</ele><time>2026-05-02T12:14:08.999Z</time></trkpt><trkpt lat="42.093687429298875" lon="13.696545349335455"><ele>1000.0</ele><time>2026-05-02T12:14:09.999Z</time></trkpt><trkpt lat="42.09361948841857" lon="13.696620674545377"><ele>1001.0</ele><time>2026-05-02T12:14:10.999Z</time></trkpt><trkpt lat="42.09356278634872" lon="13.696700041624203"><ele>1002.0</ele><time>2026-05-02T12:14:11.999Z</time></trkpt><trkpt lat="42.09351867597253" lon="13.69678601134843"><ele>1003.0000000000001</ele><time>2026-05-02T12:14:12.999Z</time></trkpt><trkpt lat="42.0934705624763" lon="13.696874601743428"><ele>1004.0</ele><time>2026-05-02T12:14:13.999Z</time></trkpt><trkpt lat="42.093422841963935" lon="13.696954315474809"><ele>1004.0000000000001</ele><time>2026-05-02T12:14:14.999Z</time></trkpt><trkpt lat="42.09337243081781" lon="13.697042013802582"><ele>1004.0</ele><time>2026-05-02T12:14:16Z</time></trkpt><trkpt lat="42.09331831186864" lon="13.697134108958103"><ele>1004.0</ele><time>2026-05-02T12:14:17Z</time></trkpt><trkpt lat="42.093282276443425" lon="13.697219581912575"><ele>1004.0</ele><time>2026-05-02T12:14:18Z</time></trkpt><trkpt lat="42.093241916673314" lon="13.69729239115639"><ele>1004.0000000000001</ele><time>2026-05-02T12:14:19Z</time></trkpt><trkpt lat="42.09319760926009" lon="13.697379224445562"><ele>1004.0</ele><time>2026-05-02T12:14:20Z</time></trkpt><trkpt lat="42.09315227061876" lon="13.697478437298567"><ele>1003.8571428571427</ele><time>2026-05-02T12:14:21Z</time></trkpt><trkpt lat="42.09311759065982" lon="13.69757051769011"><ele>1003.7142857142857</ele><time>2026-05-02T12:14:22Z</time></trkpt><trkpt lat="42.09307380418772" lon="13.697658145701341"><ele>1003.5714285714284</ele><time>2026-05-02T12:14:23Z</time></trkpt><trkpt lat="42.09302130853347" lon="13.697733732219207"><ele>1003.4285714285713</ele><time>2026-05-02T12:14:24Z</time></trkpt><trkpt lat="42.09296187064827" lon="13.697786513086566"><ele>1003.2857142857142</ele><time>2026-05-02T12:14:25Z</time></trkpt><trkpt lat="42.09289576835555" lon="13.697816554844566"><ele>1003.1428571428571</ele><time>2026-05-02T12:14:26Z</time></trkpt><trkpt lat="42.09282019187834" lon="13.69781506134512"><ele>1003.0</ele><time>2026-05-02T12:14:27Z</time></trkpt><trkpt lat="42.0927532344706" lon="13.697785151408922"><ele>1002.9999999999999</ele><time>2026-05-02T12:14:28Z</time></trkpt><trkpt lat="42.0926900117031" lon="13.697729018008129"><ele>1003.0</ele><time>2026-05-02T12:14:29Z</time></trkpt><trkpt lat="42.09262370703964" lon="13.69768714939956"><ele>1003.0</ele><time>2026-05-02T12:14:30Z</time></trkpt><trkpt lat="42.09255208803857" lon="13.697675711452302"><ele>1003.0</ele><time>2026-05-02T12:14:31Z</time></trkpt><trkpt lat="42.09246852724187" lon="13.697685869420482"><ele>1002.9999999999999</ele><time>2026-05-02T12:14:32Z</time></trkpt><trkpt lat="42.09238360592053" lon="13.697710729380734"><ele>1003.0</ele><time>2026-05-02T12:14:33Z</time></trkpt><trkpt lat="42.09230575976351" lon="13.697746998759861"><ele>1001.6666666666666</ele><time>2026-05-02T12:14:34Z</time></trkpt><trkpt lat="42.09222596049767" lon="13.697771197852138"><ele>1000.3333333333333</ele><time>2026-05-02T12:14:35Z</time></trkpt><trkpt lat="42.092149806009154" lon="13.697797817811194"><ele>999.0</ele><time>2026-05-02T12:14:36Z</time></trkpt><trkpt lat="42.092078364116034" lon="13.697819419499224"><ele>997.6666666666667</ele><time>2026-05-02T12:14:37Z</time></trkpt><trkpt lat="42.092003874056296" lon="13.697830905392369"><ele>996.3333333333334</ele><time>2026-05-02T12:14:38Z</time></trkpt><trkpt lat="42.091924376557486" lon="13.697812009121483"><ele>995.0</ele><time>2026-05-02T12:14:39Z</time></trkpt><trkpt lat="42.09184488289187" lon="13.697797413321641"><ele>995.0000000000001</ele><time>2026-05-02T12:14:40Z</time></trkpt><trkpt lat="42.0917617715269" lon="13.697806845088365"><ele>995.0</ele><time>2026-05-02T12:14:41Z</time></trkpt><trkpt lat="42.091677511388525" lon="13.697829085498542"><ele>995.0</ele><time>2026-05-02T12:14:42Z</time></trkpt><trkpt lat="42.091611056900234" lon="13.697862416407716"><ele>995.0</ele><time>2026-05-02T12:14:43Z</time></trkpt><trkpt lat="42.091543422575526" lon="13.697918305393063"><ele>995.0000000000001</ele><time>2026-05-02T12:14:44Z</time></trkpt><trkpt lat="42.091473879639565" lon="13.69799323389408"><ele>995.0</ele><time>2026-05-02T12:14:45Z</time></trkpt><trkpt lat="42.091402455263015" lon="13.698057737890794"><ele>994.5000000000001</ele><time>2026-05-02T12:14:46Z</time></trkpt><trkpt lat="42.09132159002763" lon="13.698107899496115"><ele>994.0</ele><time>2026-05-02T12:14:47Z</time></trkpt><trkpt lat="42.0912399945836" lon="13.698151268490655"><ele>993.5</ele><time>2026-05-02T12:14:48Z</time></trkpt><trkpt lat="42.09116313655883" lon="13.698200397884673"><ele>993.0</ele><time>2026-05-02T12:14:49Z</time></trkpt><trkpt lat="42.09108738435267" lon="13.698252878452179"><ele>992.5000000000001</ele><time>2026-05-02T12:14:50Z</time></trkpt><trkpt lat="42.09101441030308" lon="13.698277909141353"><ele>992.0</ele><time>2026-05-02T12:14:51Z</time></trkpt><trkpt lat="42.090946043107735" lon="13.698303215530451"><ele>992.0000000000001</ele><time>2026-05-02T12:14:52Z</time></trkpt><trkpt lat="42.090852674052535" lon="13.698413472397808"><ele>992.0</ele><time>2026-05-02T12:14:54Z</time></trkpt><trkpt lat="42.09082682065408" lon="13.698498985766898"><ele>992.0</ele><time>2026-05-02T12:14:55Z</time></trkpt><trkpt lat="42.09081941614456" lon="13.698599898747899"><ele>992.0</ele><time>2026-05-02T12:14:56Z</time></trkpt><trkpt lat="42.09083168260734" lon="13.698687521909466"><ele>992.0000000000001</ele><time>2026-05-02T12:14:57Z</time></trkpt><trkpt lat="42.090828451062436" lon="13.698794921267579"><ele>992.0</ele><time>2026-05-02T12:14:58Z</time></trkpt><trkpt lat="42.090797433253286" lon="13.698892223104973"><ele>992.8333333333334</ele><time>2026-05-02T12:14:59Z</time></trkpt><trkpt lat="42.09075142152784" lon="13.698972464255046"><ele>993.6666666666667</ele><time>2026-05-02T12:15:00Z</time></trkpt><trkpt lat="42.090694866439364" lon="13.69903219602015"><ele>994.5</ele><time>2026-05-02T12:15:01Z</time></trkpt><trkpt lat="42.090637421068706" lon="13.699072512568709"><ele>995.3333333333333</ele><time>2026-05-02T12:15:02Z</time></trkpt><trkpt lat="42.09057158916411" lon="13.699125287047687"><ele>996.1666666666666</ele><time>2026-05-02T12:15:03Z</time></trkpt><trkpt lat="42.09049565215597" lon="13.69919790889134"><ele>997.0</ele><time>2026-05-02T12:15:04Z</time></trkpt><trkpt lat="42.090420253995845" lon="13.699254399344104"><ele>997.0</ele><time>2026-05-02T12:15:05Z</time></trkpt><trkpt lat="42.0903268632495" lon="13.699299724120104"><ele>997.0</ele><time>2026-05-02T12:15:06Z</time></trkpt><trkpt lat="42.090239813194856" lon="13.699354149243478"><ele>997.0</ele><time>2026-05-02T12:15:07Z</time></trkpt><trkpt lat="42.0901581474008" lon="13.69941176364413"><ele>997.0</ele><time>2026-05-02T12:15:08Z</time></trkpt><trkpt lat="42.09007383301766" lon="13.699486582365344"><ele>997.0</ele><time>2026-05-02T12:15:09Z</time></trkpt><trkpt lat="42.09000158787319" lon="13.699556973640805"><ele>997.8</ele><time>2026-05-02T12:15:10Z</time></trkpt><trkpt lat="42.08991875849653" lon="13.699618048275207"><ele>998.6</ele><time>2026-05-02T12:15:11Z</time></trkpt><trkpt lat="42.08984312543642" lon="13.699641230282928"><ele>999.3999999999999</ele><time>2026-05-02T12:15:12Z</time></trkpt><trkpt lat="42.08973181104737" lon="13.699622891871211"><ele>1000.1999999999999</ele><time>2026-05-02T12:15:14Z</time></trkpt><trkpt lat="42.08965317915671" lon="13.699506053398341"><ele>1001.0</ele><time>2026-05-02T12:15:16Z</time></trkpt><trkpt lat="42.08962049854246" lon="13.699422670696086"><ele>1000.8333333333334</ele><time>2026-05-02T12:15:17Z</time></trkpt><trkpt lat="42.08959160057428" lon="13.699331460887068"><ele>1000.6666666666667</ele><time>2026-05-02T12:15:18Z</time></trkpt><trkpt lat="42.08956983839828" lon="13.699241381911431"><ele>1000.5</ele><time>2026-05-02T12:15:19Z</time></trkpt><trkpt lat="42.089549839457575" lon="13.69915150459148"><ele>1000.3333333333333</ele><time>2026-05-02T12:15:20Z</time></trkpt><trkpt lat="42.08953169985723" lon="13.699063452907554"><ele>1000.1666666666666</ele><time>2026-05-02T12:15:21Z</time></trkpt><trkpt lat="42.0895208752976" lon="13.698977621413439"><ele>1000.0</ele><time>2026-05-02T12:15:22Z</time></trkpt><trkpt lat="42.089508861593686" lon="13.698821830373646"><ele>1000.0</ele><time>2026-05-02T12:15:24Z</time></trkpt><trkpt lat="42.089510944598956" lon="13.69867066419099"><ele>1000.0</ele><time>2026-05-02T12:15:26Z</time></trkpt><trkpt lat="42.08952683872259" lon="13.69850301290213"><ele>1000.0</ele><time>2026-05-02T12:15:28Z</time></trkpt><trkpt lat="42.08952005451261" lon="13.69834721195014"><ele>1000.0</ele><time>2026-05-02T12:15:30Z</time></trkpt><trkpt lat="42.08949522891728" lon="13.698268318385233"><ele>1000.0</ele><time>2026-05-02T12:15:31Z</time></trkpt><trkpt lat="42.08945543318603" lon="13.698190784018303"><ele>999.1666666666666</ele><time>2026-05-02T12:15:32Z</time></trkpt><trkpt lat="42.08940899519165" lon="13.698113041700253"><ele>998.3333333333333</ele><time>2026-05-02T12:15:33Z</time></trkpt><trkpt lat="42.089360249118336" lon="13.698036530161389"><ele>997.5</ele><time>2026-05-02T12:15:34Z</time></trkpt><trkpt lat="42.08924763890469" lon="13.698008580690304"><ele>996.6666666666667</ele><time>2026-05-02T12:15:35.999Z</time></trkpt><trkpt lat="42.089182372845755" lon="13.698049702118261"><ele>995.8333333333334</ele><time>2026-05-02T12:15:36.999Z</time></trkpt><trkpt lat="42.08909535690193" lon="13.698104926830634"><ele>995.0</ele><time>2026-05-02T12:15:37.999Z</time></trkpt><trkpt lat="42.0890311428704" lon="13.698150177564433"><ele>995.0000000000001</ele><time>2026-05-02T12:15:38.999Z</time></trkpt><trkpt lat="42.08897392118639" lon="13.698196414692777"><ele>995.0</ele><time>2026-05-02T12:15:39.999Z</time></trkpt><trkpt lat="42.08890896059432" lon="13.698270555438809"><ele>995.0</ele><time>2026-05-02T12:15:40.999Z</time></trkpt><trkpt lat="42.088855459651164" lon="13.698339205902979"><ele>995.0</ele><time>2026-05-02T12:15:41.999Z</time></trkpt><trkpt lat="42.088749789501435" lon="13.698415467617291"><ele>995.0000000000001</ele><time>2026-05-02T12:15:43.999Z</time></trkpt><trkpt lat="42.08868805482591" lon="13.698451223378667"><ele>995.0</ele><time>2026-05-02T12:15:44.999Z</time></trkpt><trkpt lat="42.088620334814856" lon="13.698494666127697"><ele>995.0000000000001</ele><time>2026-05-02T12:15:45.999Z</time></trkpt><trkpt lat="42.088551925453366" lon="13.698547595895468"><ele>995.0</ele><time>2026-05-02T12:15:46.999Z</time></trkpt><trkpt lat="42.088477104004724" lon="13.698587653548778"><ele>995.0</ele><time>2026-05-02T12:15:47.999Z</time></trkpt><trkpt lat="42.088391416122725" lon="13.69864200911867"><ele>995.0</ele><time>2026-05-02T12:15:48.999Z</time></trkpt><trkpt lat="42.08831926473367" lon="13.698681276052646"><ele>995.0000000000001</ele><time>2026-05-02T12:15:49.999Z</time></trkpt><trkpt lat="42.088242534582776" lon="13.698731355984439"><ele>995.0</ele><time>2026-05-02T12:15:50.999Z</time></trkpt><trkpt lat="42.088171145805006" lon="13.69879442827589"><ele>994.3333333333334</ele><time>2026-05-02T12:15:51.999Z</time></trkpt><trkpt lat="42.088107735007114" lon="13.698874597023558"><ele>993.6666666666667</ele><time>2026-05-02T12:15:52.999Z</time></trkpt><trkpt lat="42.0880529537464" lon="13.698959672659518"><ele>993.0</ele><time>2026-05-02T12:15:53.999Z</time></trkpt><trkpt lat="42.087996460065625" lon="13.699047727728113"><ele>992.3333333333333</ele><time>2026-05-02T12:15:54.999Z</time></trkpt><trkpt lat="42.087945825674616" lon="13.699135457918008"><ele>991.6666666666666</ele><time>2026-05-02T12:15:55.999Z</time></trkpt><trkpt lat="42.08789861402119" lon="13.699225088286928"><ele>991.0</ele><time>2026-05-02T12:15:56.999Z</time></trkpt><trkpt lat="42.087865336371955" lon="13.699320661791935"><ele>989.3333333333333</ele><time>2026-05-02T12:15:57.999Z</time></trkpt><trkpt lat="42.08785318691358" lon="13.699432698727746"><ele>987.6666666666666</ele><time>2026-05-02T12:15:58.999Z</time></trkpt><trkpt lat="42.08786576409615" lon="13.699552691580964"><ele>986.0</ele><time>2026-05-02T12:15:59.999Z</time></trkpt><trkpt lat="42.08787555132393" lon="13.699664251205657"><ele>984.3333333333333</ele><time>2026-05-02T12:16:00.999Z</time></trkpt><trkpt lat="42.087878279705436" lon="13.69977618117447"><ele>982.6666666666666</ele><time>2026-05-02T12:16:01.999Z</time></trkpt><trkpt lat="42.08786077821884" lon="13.699891047510574"><ele>981.0</ele><time>2026-05-02T12:16:02.999Z</time></trkpt><trkpt lat="42.0878253554981" lon="13.699994685774762"><ele>981.0</ele><time>2026-05-02T12:16:03.999Z</time></trkpt><trkpt lat="42.08777421815662" lon="13.700072439807805"><ele>981.0</ele><time>2026-05-02T12:16:04.999Z</time></trkpt><trkpt lat="42.08770034506412" lon="13.700119766276785"><ele>981.0</ele><time>2026-05-02T12:16:05.999Z</time></trkpt><trkpt lat="42.08761183237836" lon="13.700152541337474"><ele>981.0</ele><time>2026-05-02T12:16:06.999Z</time></trkpt><trkpt lat="42.08750763592251" lon="13.700173340575443"><ele>981.0</ele><time>2026-05-02T12:16:07.999Z</time></trkpt><trkpt lat="42.0874225945997" lon="13.70019702136895"><ele>981.0</ele><time>2026-05-02T12:16:08.999Z</time></trkpt><trkpt lat="42.08734245903304" lon="13.700221942559926"><ele>980.4</ele><time>2026-05-02T12:16:09.999Z</time></trkpt><trkpt lat="42.0872616280745" lon="13.700270608181045"><ele>979.8</ele><time>2026-05-02T12:16:10.999Z</time></trkpt><trkpt lat="42.08718219774652" lon="13.700346107522494"><ele>979.1999999999999</ele><time>2026-05-02T12:16:11.999Z</time></trkpt><trkpt lat="42.087099954903124" lon="13.700425049715783"><ele>978.5999999999999</ele><time>2026-05-02T12:16:12.999Z</time></trkpt><trkpt lat="42.08702201893916" lon="13.700485871384847"><ele>978.0</ele><time>2026-05-02T12:16:13.999Z</time></trkpt><trkpt lat="42.08695056975189" lon="13.700552020893547"><ele>978.0</ele><time>2026-05-02T12:16:14.999Z</time></trkpt><trkpt lat="42.0868835908014" lon="13.700614130556678"><ele>978.0</ele><time>2026-05-02T12:16:15.999Z</time></trkpt><trkpt lat="42.08681740645534" lon="13.700662688580787"><ele>978.0</ele><time>2026-05-02T12:16:16.999Z</time></trkpt><trkpt lat="42.08674504311857" lon="13.7007182256948"><ele>978.0</ele><time>2026-05-02T12:16:17.999Z</time></trkpt><trkpt lat="42.086680423005944" lon="13.700773534480566"><ele>978.0</ele><time>2026-05-02T12:16:18.999Z</time></trkpt><trkpt lat="42.086621812006115" lon="13.700835324624043"><ele>978.0</ele><time>2026-05-02T12:16:19.999Z</time></trkpt><trkpt lat="42.08656522756573" lon="13.700906854145625"><ele>977.2</ele><time>2026-05-02T12:16:20.999Z</time></trkpt><trkpt lat="42.086479405790435" lon="13.70101331235656"><ele>976.4</ele><time>2026-05-02T12:16:23Z</time></trkpt><trkpt lat="42.08641447195485" lon="13.701168188851419"><ele>975.6000000000001</ele><time>2026-05-02T12:16:25Z</time></trkpt><trkpt lat="42.086379318956304" lon="13.701267972671138"><ele>974.8000000000001</ele><time>2026-05-02T12:16:26Z</time></trkpt><trkpt lat="42.086346627828824" lon="13.701384927276065"><ele>974.0</ele><time>2026-05-02T12:16:27Z</time></trkpt><trkpt lat="42.08629671296207" lon="13.701528745374729"><ele>974.0</ele><time>2026-05-02T12:16:28Z</time></trkpt><trkpt lat="42.086234186222065" lon="13.701652026609388"><ele>974.0000000000001</ele><time>2026-05-02T12:16:29Z</time></trkpt><trkpt lat="42.0861682559325" lon="13.701765908084262"><ele>974.0000000000001</ele><time>2026-05-02T12:16:30Z</time></trkpt><trkpt lat="42.08610336379615" lon="13.701880385601713"><ele>974.0</ele><time>2026-05-02T12:16:31Z</time></trkpt><trkpt lat="42.08604734467687" lon="13.702008575356256"><ele>974.0</ele><time>2026-05-02T12:16:32Z</time></trkpt><trkpt lat="42.08599464315776" lon="13.702138425172928"><ele>973.25</ele><time>2026-05-02T12:16:33Z</time></trkpt><trkpt lat="42.08592248232387" lon="13.702255732464815"><ele>972.5</ele><time>2026-05-02T12:16:34Z</time></trkpt><trkpt lat="42.08584963913408" lon="13.702398530669226"><ele>971.75</ele><time>2026-05-02T12:16:35Z</time></trkpt><trkpt lat="42.08582119137058" lon="13.702543507427148"><ele>971.0</ele><time>2026-05-02T12:16:36Z</time></trkpt><trkpt lat="42.08577529275279" lon="13.702682894849477"><ele>969.5</ele><time>2026-05-02T12:16:37Z</time></trkpt><trkpt lat="42.08572383585197" lon="13.70281199005378"><ele>968.0</ele><time>2026-05-02T12:16:38Z</time></trkpt><trkpt lat="42.08565753187234" lon="13.702935757841818"><ele>966.5</ele><time>2026-05-02T12:16:39Z</time></trkpt><trkpt lat="42.085571017651326" lon="13.703059563478666"><ele>965.0</ele><time>2026-05-02T12:16:40Z</time></trkpt><trkpt lat="42.085475897813474" lon="13.703188193729396"><ele>965.0</ele><time>2026-05-02T12:16:41Z</time></trkpt><trkpt lat="42.085392624621875" lon="13.703311329924041"><ele>965.0</ele><time>2026-05-02T12:16:42Z</time></trkpt><trkpt lat="42.08529974438615" lon="13.703421616268212"><ele>965.0</ele><time>2026-05-02T12:16:43Z</time></trkpt><trkpt lat="42.085210617842954" lon="13.703515430527311"><ele>965.0</ele><time>2026-05-02T12:16:44Z</time></trkpt><trkpt lat="42.085121797136" lon="13.703597705855339"><ele>965.25</ele><time>2026-05-02T12:16:45Z</time></trkpt><trkpt lat="42.08502549610673" lon="13.703675475854503"><ele>965.5</ele><time>2026-05-02T12:16:46Z</time></trkpt><trkpt lat="42.084918202447184" lon="13.703749474111984"><ele>965.75</ele><time>2026-05-02T12:16:47Z</time></trkpt><trkpt lat="42.08482231887608" lon="13.703831459726665"><ele>966.0</ele><time>2026-05-02T12:16:48Z</time></trkpt><trkpt lat="42.084730858105054" lon="13.703922581181928"><ele>966.0</ele><time>2026-05-02T12:16:49Z</time></trkpt><trkpt lat="42.08464061344531" lon="13.704008380674177"><ele>965.9999999999999</ele><time>2026-05-02T12:16:50Z</time></trkpt><trkpt lat="42.08455521394962" lon="13.704086343732738"><ele>965.9999999999999</ele><time>2026-05-02T12:16:51Z</time></trkpt><trkpt lat="42.08447273784979" lon="13.704184701926636"><ele>966.0</ele><time>2026-05-02T12:16:52Z</time></trkpt><trkpt lat="42.08439548246697" lon="13.704285269527798"><ele>966.0</ele><time>2026-05-02T12:16:53Z</time></trkpt><trkpt lat="42.0843131571589" lon="13.704364563392398"><ele>966.4</ele><time>2026-05-02T12:16:54Z</time></trkpt><trkpt lat="42.08422854874218" lon="13.704450186297885"><ele>966.8</ele><time>2026-05-02T12:16:55Z</time></trkpt><trkpt lat="42.08415312824859" lon="13.704532993946065"><ele>967.1999999999999</ele><time>2026-05-02T12:16:56Z</time></trkpt><trkpt lat="42.08408055171837" lon="13.704623126288338"><ele>967.5999999999999</ele><time>2026-05-02T12:16:57Z</time></trkpt><trkpt lat="42.08400021566403" lon="13.704724458606565"><ele>968.0</ele><time>2026-05-02T12:16:58Z</time></trkpt><trkpt lat="42.08392578962285" lon="13.704828134127037"><ele>968.0</ele><time>2026-05-02T12:16:59Z</time></trkpt><trkpt lat="42.08385674704342" lon="13.704918871311659"><ele>968.0</ele><time>2026-05-02T12:17:00Z</time></trkpt><trkpt lat="42.08378260443332" lon="13.704995070556087"><ele>968.0</ele><time>2026-05-02T12:17:01Z</time></trkpt><trkpt lat="42.083699265227054" lon="13.705067584104379"><ele>968.0</ele><time>2026-05-02T12:17:02Z</time></trkpt><trkpt lat="42.08362178827154" lon="13.70513528153471"><ele>968.0</ele><time>2026-05-02T12:17:03Z</time></trkpt><trkpt lat="42.08355036175908" lon="13.705193544038913"><ele>967.3333333333334</ele><time>2026-05-02T12:17:04Z</time></trkpt><trkpt lat="42.08347526900901" lon="13.705256856455765"><ele>966.6666666666667</ele><time>2026-05-02T12:17:05Z</time></trkpt><trkpt lat="42.08340865855895" lon="13.705328152328972"><ele>966.0</ele><time>2026-05-02T12:17:06Z</time></trkpt><trkpt lat="42.08334985888409" lon="13.705395241574658"><ele>965.3333333333333</ele><time>2026-05-02T12:17:07Z</time></trkpt><trkpt lat="42.08329294177568" lon="13.705463310167834"><ele>964.6666666666666</ele><time>2026-05-02T12:17:08Z</time></trkpt><trkpt lat="42.08323975381247" lon="13.705548769219636"><ele>964.0</ele><time>2026-05-02T12:17:09Z</time></trkpt><trkpt lat="42.08318683226787" lon="13.705654606968826"><ele>964.8333333333333</ele><time>2026-05-02T12:17:10Z</time></trkpt><trkpt lat="42.08313941098906" lon="13.705747806986585"><ele>965.6666666666666</ele><time>2026-05-02T12:17:11Z</time></trkpt><trkpt lat="42.08308712280011" lon="13.705845961837655"><ele>966.5</ele><time>2026-05-02T12:17:12Z</time></trkpt><trkpt lat="42.083034206605454" lon="13.705947284551447"><ele>967.3333333333333</ele><time>2026-05-02T12:17:13Z</time></trkpt><trkpt lat="42.08297977625827" lon="13.706036830755622"><ele>968.1666666666666</ele><time>2026-05-02T12:17:14Z</time></trkpt><trkpt lat="42.08291741624487" lon="13.706129389528984"><ele>969.0</ele><time>2026-05-02T12:17:15Z</time></trkpt><trkpt lat="42.08286791326868" lon="13.706209894311971"><ele>969.0</ele><time>2026-05-02T12:17:16Z</time></trkpt><trkpt lat="42.08280492695821" lon="13.706321545190718"><ele>969.0</ele><time>2026-05-02T12:17:18Z</time></trkpt><trkpt lat="42.082698923357704" lon="13.706453298304845"><ele>969.0</ele><time>2026-05-02T12:17:20Z</time></trkpt><trkpt lat="42.08263301553897" lon="13.706547030236603"><ele>969.0</ele><time>2026-05-02T12:17:21Z</time></trkpt><trkpt lat="42.08256647169061" lon="13.706658428304083"><ele>969.0</ele><time>2026-05-02T12:17:22Z</time></trkpt><trkpt lat="42.08249315206331" lon="13.706785471649287"><ele>969.0</ele><time>2026-05-02T12:17:23Z</time></trkpt><trkpt lat="42.082408448828254" lon="13.70694053295511"><ele>969.0</ele><time>2026-05-02T12:17:24Z</time></trkpt><trkpt lat="42.082320049699845" lon="13.70710144210449"><ele>969.0</ele><time>2026-05-02T12:17:25Z</time></trkpt><trkpt lat="42.08222226864359" lon="13.707256504854094"><ele>974.6666666666667</ele><time>2026-05-02T12:17:26Z</time></trkpt><trkpt lat="42.08212057718377" lon="13.707404997799483"><ele>980.3333333333334</ele><time>2026-05-02T12:17:27Z</time></trkpt><trkpt lat="42.08201510384691" lon="13.707563633517333"><ele>986.0</ele><time>2026-05-02T12:17:28Z</time></trkpt><trkpt lat="42.08191027391549" lon="13.70772253007708"><ele>987.3333333333334</ele><time>2026-05-02T12:17:29Z</time></trkpt><trkpt lat="42.08180705280591" lon="13.707882194604196"><ele>988.6666666666667</ele><time>2026-05-02T12:17:30Z</time></trkpt><trkpt lat="42.08169912548273" lon="13.708043444604547"><ele>990.0</ele><time>2026-05-02T12:17:31Z</time></trkpt><trkpt lat="42.08158903336619" lon="13.70818664749543"><ele>990.0</ele><time>2026-05-02T12:17:32Z</time></trkpt><trkpt lat="42.08147264765379" lon="13.708310214087556"><ele>990.0</ele><time>2026-05-02T12:17:33Z</time></trkpt><trkpt lat="42.08134451936663" lon="13.708413024636224"><ele>990.0</ele><time>2026-05-02T12:17:34Z</time></trkpt><trkpt lat="42.081207347984176" lon="13.708494663639055"><ele>990.0</ele><time>2026-05-02T12:17:34.999Z</time></trkpt><trkpt lat="42.08106454031427" lon="13.708568411993678"><ele>985.6666666666667</ele><time>2026-05-02T12:17:35.999Z</time></trkpt><trkpt lat="42.0809187974686" lon="13.708651198838107"><ele>981.3333333333334</ele><time>2026-05-02T12:17:36.999Z</time></trkpt><trkpt lat="42.08077687704149" lon="13.70874079353864"><ele>977.0</ele><time>2026-05-02T12:17:37.999Z</time></trkpt><trkpt lat="42.08063233705302" lon="13.708830397088665"><ele>977.0</ele><time>2026-05-02T12:17:38.999Z</time></trkpt><trkpt lat="42.08048091469303" lon="13.708913522468988"><ele>977.0</ele><time>2026-05-02T12:17:39.999Z</time></trkpt><trkpt lat="42.08033234982228" lon="13.708999540617407"><ele>977.0</ele><time>2026-05-02T12:17:40.999Z</time></trkpt><trkpt lat="42.080185699669286" lon="13.709089748918007"><ele>977.0</ele><time>2026-05-02T12:17:41.999Z</time></trkpt><trkpt lat="42.08003813809922" lon="13.709182172559725"><ele>977.0</ele><time>2026-05-02T12:17:42.999Z</time></trkpt><trkpt lat="42.07989241829571" lon="13.709279304563731"><ele>977.0</ele><time>2026-05-02T12:17:43.999Z</time></trkpt><trkpt lat="42.07979895392508" lon="13.70941005671507"><ele>973.25</ele><time>2026-05-02T12:17:44.999Z</time></trkpt><trkpt lat="42.07962038933693" lon="13.70943400028062"><ele>969.5</ele><time>2026-05-02T12:17:45.999Z</time></trkpt><trkpt lat="42.079498089734216" lon="13.709499536914837"><ele>965.75</ele><time>2026-05-02T12:17:46.999Z</time></trkpt><trkpt lat="42.07937034371826" lon="13.70955612370504"><ele>962.0</ele><time>2026-05-02T12:17:47.999Z</time></trkpt><trkpt lat="42.07923305910111" lon="13.709544853435597"><ele>962.0</ele><time>2026-05-02T12:17:48.999Z</time></trkpt><trkpt lat="42.07910306649598" lon="13.709487786709014"><ele>962.0</ele><time>2026-05-02T12:17:49.999Z</time></trkpt><trkpt lat="42.07899258838456" lon="13.709378661761116"><ele>962.0</ele><time>2026-05-02T12:17:50.999Z</time></trkpt><trkpt lat="42.07890937456699" lon="13.709231136974008"><ele>962.0</ele><time>2026-05-02T12:17:51.999Z</time></trkpt><trkpt lat="42.07884688949539" lon="13.709066911640733"><ele>961.0</ele><time>2026-05-02T12:17:52.999Z</time></trkpt><trkpt lat="42.07878729518627" lon="13.708893658883818"><ele>960.0</ele><time>2026-05-02T12:17:53.999Z</time></trkpt><trkpt lat="42.078729001737855" lon="13.7087047991085"><ele>959.0</ele><time>2026-05-02T12:17:54.999Z</time></trkpt><trkpt lat="42.07866754542022" lon="13.70851282204052"><ele>958.0</ele><time>2026-05-02T12:17:55.999Z</time></trkpt><trkpt lat="42.07861232558394" lon="13.708311942384116"><ele>963.6666666666666</ele><time>2026-05-02T12:17:56.999Z</time></trkpt><trkpt lat="42.07857156573988" lon="13.708105497740641"><ele>969.3333333333333</ele><time>2026-05-02T12:17:57.999Z</time></trkpt><trkpt lat="42.07854038011068" lon="13.707901451428429"><ele>975.0</ele><time>2026-05-02T12:17:58.999Z</time></trkpt><trkpt lat="42.07850719849094" lon="13.707697640084803"><ele>978.5</ele><time>2026-05-02T12:17:59.999Z</time></trkpt><trkpt lat="42.07847340269529" lon="13.707493767236803"><ele>982.0</ele><time>2026-05-02T12:18:00.999Z</time></trkpt><trkpt lat="42.078442510773264" lon="13.707307830909304"><ele>985.5</ele><time>2026-05-02T12:18:01.999Z</time></trkpt><trkpt lat="42.07841533998036" lon="13.70713133497314"><ele>989.0</ele><time>2026-05-02T12:18:02.999Z</time></trkpt><trkpt lat="42.07839007433515" lon="13.706969653015095"><ele>992.6</ele><time>2026-05-02T12:18:03.999Z</time></trkpt><trkpt lat="42.0783513160047" lon="13.70683964111204"><ele>996.2</ele><time>2026-05-02T12:18:04.999Z</time></trkpt><trkpt lat="42.07829358537638" lon="13.706739852036119"><ele>999.8000000000001</ele><time>2026-05-02T12:18:05.999Z</time></trkpt><trkpt lat="42.07820077088798" lon="13.706701065500065"><ele>1003.4000000000001</ele><time>2026-05-02T12:18:06.999Z</time></trkpt><trkpt lat="42.07809960733712" lon="13.706736283941765"><ele>1007.0</ele><time>2026-05-02T12:18:07.999Z</time></trkpt><trkpt lat="42.07799473760943" lon="13.706882504237479"><ele>1005.5</ele><time>2026-05-02T12:18:08.999Z</time></trkpt><trkpt lat="42.077927324478324" lon="13.70703356106081"><ele>1004.0</ele><time>2026-05-02T12:18:09.999Z</time></trkpt><trkpt lat="42.077850624967795" lon="13.707167358859003"><ele>1002.5</ele><time>2026-05-02T12:18:10.999Z</time></trkpt><trkpt lat="42.07776278595924" lon="13.707310401706868"><ele>1001.0</ele><time>2026-05-02T12:18:11.999Z</time></trkpt><trkpt lat="42.07767181754441" lon="13.707451886071661"><ele>1001.0</ele><time>2026-05-02T12:18:12.999Z</time></trkpt><trkpt lat="42.07756113160351" lon="13.707578280572276"><ele>1001.0</ele><time>2026-05-02T12:18:13.999Z</time></trkpt><trkpt lat="42.077498543700976" lon="13.707746163295797"><ele>1001.0</ele><time>2026-05-02T12:18:14.999Z</time></trkpt><trkpt lat="42.07741331958887" lon="13.707876625636917"><ele>1001.0</ele><time>2026-05-02T12:18:15.999Z</time></trkpt><trkpt lat="42.077325811379716" lon="13.707978318146848"><ele>995.75</ele><time>2026-05-02T12:18:16.999Z</time></trkpt><trkpt lat="42.077214213821044" lon="13.708022225676235"><ele>990.5</ele><time>2026-05-02T12:18:17.999Z</time></trkpt><trkpt lat="42.07709151110306" lon="13.708013805548765"><ele>985.25</ele><time>2026-05-02T12:18:18.999Z</time></trkpt><trkpt lat="42.076966096050676" lon="13.707968341431464"><ele>980.0</ele><time>2026-05-02T12:18:19.999Z</time></trkpt><trkpt lat="42.076833501646" lon="13.707910933288545"><ele>980.0</ele><time>2026-05-02T12:18:20.999Z</time></trkpt><trkpt lat="42.076694670567264" lon="13.707857370735294"><ele>980.0</ele><time>2026-05-02T12:18:21.999Z</time></trkpt><trkpt lat="42.07655360940336" lon="13.707806266999729"><ele>980.0</ele><time>2026-05-02T12:18:22.999Z</time></trkpt><trkpt lat="42.0763962306838" lon="13.707758938499124"><ele>989.6666666666667</ele><time>2026-05-02T12:18:23.999Z</time></trkpt><trkpt lat="42.0762277137507" lon="13.707716139564614"><ele>999.3333333333333</ele><time>2026-05-02T12:18:24.999Z</time></trkpt><trkpt lat="42.076057481758774" lon="13.707659432066704"><ele>1009.0</ele><time>2026-05-02T12:18:25.999Z</time></trkpt><trkpt lat="42.07589113470139" lon="13.707607361248453"><ele>1004.6666666666666</ele><time>2026-05-02T12:18:26.999Z</time></trkpt><trkpt lat="42.075737698085575" lon="13.707557244541293"><ele>1000.3333333333333</ele><time>2026-05-02T12:18:28Z</time></trkpt><trkpt lat="42.07558545558915" lon="13.707499302847607"><ele>996.0</ele><time>2026-05-02T12:18:29Z</time></trkpt><trkpt lat="42.07544422969081" lon="13.707410069739076"><ele>996.0</ele><time>2026-05-02T12:18:30Z</time></trkpt><trkpt lat="42.07530716885546" lon="13.707296497517866"><ele>996.0</ele><time>2026-05-02T12:18:31Z</time></trkpt><trkpt lat="42.07517218367091" lon="13.707172674054128"><ele>996.0</ele><time>2026-05-02T12:18:32Z</time></trkpt><trkpt lat="42.07502932490149" lon="13.70706059446223"><ele>998.3333333333333</ele><time>2026-05-02T12:18:33Z</time></trkpt><trkpt lat="42.07484212973054" lon="13.707038820436923"><ele>1000.6666666666666</ele><time>2026-05-02T12:18:34Z</time></trkpt><trkpt lat="42.07464099135837" lon="13.707033281778246"><ele>1003.0</ele><time>2026-05-02T12:18:35Z</time></trkpt><trkpt lat="42.07463518939864" lon="13.706651581598237"><ele>1003.0</ele><time>2026-05-02T12:18:36Z</time></trkpt><trkpt lat="42.074514388560615" lon="13.706500322658497"><ele>1003.0</ele><time>2026-05-02T12:18:37Z</time></trkpt><trkpt lat="42.07439532415692" lon="13.706338762896356"><ele>1003.0</ele><time>2026-05-02T12:18:38Z</time></trkpt><trkpt lat="42.07427847099503" lon="13.706174298857624"><ele>1006.6666666666666</ele><time>2026-05-02T12:18:39Z</time></trkpt><trkpt lat="42.07416009296826" lon="13.70600809034961"><ele>1010.3333333333333</ele><time>2026-05-02T12:18:40Z</time></trkpt><trkpt lat="42.074046404784966" lon="13.705851280153245"><ele>1014.0</ele><time>2026-05-02T12:18:41Z</time></trkpt><trkpt lat="42.07393724537989" lon="13.705696384219818"><ele>1014.0</ele><time>2026-05-02T12:18:42Z</time></trkpt><trkpt lat="42.073837432873" lon="13.705549320008531"><ele>1014.0</ele><time>2026-05-02T12:18:43Z</time></trkpt><trkpt lat="42.073747471144934" lon="13.705407031698128"><ele>1014.0</ele><time>2026-05-02T12:18:44Z</time></trkpt><trkpt lat="42.07366092303611" lon="13.705281245759767"><ele>1014.0</ele><time>2026-05-02T12:18:45Z</time></trkpt><trkpt lat="42.073559451562296" lon="13.705181288356417"><ele>1018.0</ele><time>2026-05-02T12:18:46Z</time></trkpt><trkpt lat="42.07344459053405" lon="13.705131659915118"><ele>1022.0</ele><time>2026-05-02T12:18:47Z</time></trkpt><trkpt lat="42.073309248449036" lon="13.705136178284086"><ele>1026.0</ele><time>2026-05-02T12:18:48Z</time></trkpt><trkpt lat="42.073168833783875" lon="13.705187283304708"><ele>1030.0</ele><time>2026-05-02T12:18:49Z</time></trkpt><trkpt lat="42.07302137456809" lon="13.7052205029649"><ele>1031.3333333333333</ele><time>2026-05-02T12:18:50Z</time></trkpt><trkpt lat="42.0728622317852" lon="13.705240816145345"><ele>1032.6666666666667</ele><time>2026-05-02T12:18:51Z</time></trkpt><trkpt lat="42.072703102609076" lon="13.705262183854138"><ele>1034.0</ele><time>2026-05-02T12:18:52Z</time></trkpt><trkpt lat="42.07253416818559" lon="13.70527179120027"><ele>1031.0</ele><time>2026-05-02T12:18:53Z</time></trkpt><trkpt lat="42.072373433723655" lon="13.705288166217281"><ele>1028.0</ele><time>2026-05-02T12:18:54Z</time></trkpt><trkpt lat="42.072209049451175" lon="13.705302224935503"><ele>1025.0</ele><time>2026-05-02T12:18:55Z</time></trkpt><trkpt lat="42.07204319244652" lon="13.705317447653615"><ele>1025.0</ele><time>2026-05-02T12:18:56Z</time></trkpt><trkpt lat="42.07188123263016" lon="13.705336130151887"><ele>1025.0</ele><time>2026-05-02T12:18:57Z</time></trkpt><trkpt lat="42.07172745342131" lon="13.705371187071645"><ele>1025.0</ele><time>2026-05-02T12:18:58Z</time></trkpt><trkpt lat="42.07158470416118" lon="13.705445361151906"><ele>1029.0</ele><time>2026-05-02T12:18:59Z</time></trkpt><trkpt lat="42.071466425701274" lon="13.705570032646497"><ele>1033.0</ele><time>2026-05-02T12:19:00Z</time></trkpt><trkpt lat="42.07137460848446" lon="13.705730454766769"><ele>1037.0</ele><time>2026-05-02T12:19:01Z</time></trkpt><trkpt lat="42.07129926851771" lon="13.70589896997582"><ele>1041.0</ele><time>2026-05-02T12:19:02Z</time></trkpt><trkpt lat="42.071219199975374" lon="13.706058799153412"><ele>1037.75</ele><time>2026-05-02T12:19:03Z</time></trkpt><trkpt lat="42.071118297605494" lon="13.706192284182883"><ele>1034.5</ele><time>2026-05-02T12:19:04Z</time></trkpt><trkpt lat="42.070990994282255" lon="13.70627832114398"><ele>1031.25</ele><time>2026-05-02T12:19:05Z</time></trkpt><trkpt lat="42.070848141217596" lon="13.706336193957743"><ele>1028.0</ele><time>2026-05-02T12:19:06Z</time></trkpt><trkpt lat="42.0706994582913" lon="13.706362010263987"><ele>1028.0</ele><time>2026-05-02T12:19:07Z</time></trkpt><trkpt lat="42.07054721530554" lon="13.706355805237116"><ele>1028.0</ele><time>2026-05-02T12:19:08Z</time></trkpt><trkpt lat="42.07040858786942" lon="13.70633266389654"><ele>1028.0</ele><time>2026-05-02T12:19:09Z</time></trkpt><trkpt lat="42.07029232675827" lon="13.70631435767603"><ele>1028.0</ele><time>2026-05-02T12:19:10Z</time></trkpt><trkpt lat="42.07018775628492" lon="13.706275749317502"><ele>1028.0</ele><time>2026-05-02T12:19:11Z</time></trkpt><trkpt lat="42.070105510284606" lon="13.70618852162999"><ele>1028.0</ele><time>2026-05-02T12:19:12Z</time></trkpt><trkpt lat="42.07008139859003" lon="13.706078061659753"><ele>1028.0</ele><time>2026-05-02T12:19:13Z</time></trkpt><trkpt lat="42.07011583906167" lon="13.7059523835561"><ele>1028.0</ele><time>2026-05-02T12:19:14Z</time></trkpt><trkpt lat="42.070200626624626" lon="13.705845137630668"><ele>1028.0</ele><time>2026-05-02T12:19:15Z</time></trkpt><trkpt lat="42.07031999626633" lon="13.70580400275601"><ele>1034.3333333333335</ele><time>2026-05-02T12:19:16Z</time></trkpt><trkpt lat="42.07045674075272" lon="13.705811790189298"><ele>1040.6666666666667</ele><time>2026-05-02T12:19:17Z</time></trkpt><trkpt lat="42.07060502274576" lon="13.705840262724552"><ele>1047.0</ele><time>2026-05-02T12:19:18Z</time></trkpt><trkpt lat="42.070766426829515" lon="13.705879866096371"><ele>1045.0</ele><time>2026-05-02T12:19:19Z</time></trkpt><trkpt lat="42.070902470673914" lon="13.705863887273935"><ele>1043.0</ele><time>2026-05-02T12:19:20Z</time></trkpt><trkpt lat="42.071043435143594" lon="13.70576672768276"><ele>1041.0</ele><time>2026-05-02T12:19:21Z</time></trkpt><trkpt lat="42.07117734125786" lon="13.705593202586398"><ele>1041.0</ele><time>2026-05-02T12:19:22Z</time></trkpt><trkpt lat="42.071237432121634" lon="13.705558542848085"><ele>1041.0</ele><time>2026-05-02T12:19:23Z</time></trkpt><trkpt lat="42.07131968685579" lon="13.705364326738337"><ele>1041.0</ele><time>2026-05-02T12:19:24Z</time></trkpt><trkpt lat="42.07142431534435" lon="13.705187548369048"><ele>1041.0</ele><time>2026-05-02T12:19:25Z</time></trkpt><trkpt lat="42.07155324430501" lon="13.705038411795432"><ele>1042.6666666666667</ele><time>2026-05-02T12:19:26Z</time></trkpt><trkpt lat="42.07170111197595" lon="13.704910147664828"><ele>1044.3333333333335</ele><time>2026-05-02T12:19:27Z</time></trkpt><trkpt lat="42.07184649434189" lon="13.704782591528433"><ele>1046.0</ele><time>2026-05-02T12:19:28Z</time></trkpt><trkpt lat="42.07199144503078" lon="13.704645556833334"><ele>1046.0</ele><time>2026-05-02T12:19:29Z</time></trkpt><trkpt lat="42.072137359073004" lon="13.7045136380719"><ele>1046.0</ele><time>2026-05-02T12:19:30Z</time></trkpt><trkpt lat="42.07227659432709" lon="13.704367051880821"><ele>1046.0</ele><time>2026-05-02T12:19:31Z</time></trkpt><trkpt lat="42.07239988562639" lon="13.704213725651172"><ele>1047.5</ele><time>2026-05-02T12:19:32Z</time></trkpt><trkpt lat="42.07249733295729" lon="13.704046842653433"><ele>1049.0</ele><time>2026-05-02T12:19:33Z</time></trkpt><trkpt lat="42.07257136726354" lon="13.70388704551197"><ele>1050.5</ele><time>2026-05-02T12:19:34Z</time></trkpt><trkpt lat="42.07263953691775" lon="13.703747115619443"><ele>1052.0</ele><time>2026-05-02T12:19:35Z</time></trkpt><trkpt lat="42.07269112864102" lon="13.703626207951874"><ele>1054.8</ele><time>2026-05-02T12:19:36Z</time></trkpt><trkpt lat="42.07272570037632" lon="13.703514326540505"><ele>1057.6</ele><time>2026-05-02T12:19:36.999Z</time></trkpt><trkpt lat="42.072718706085595" lon="13.703400793407033"><ele>1060.3999999999999</ele><time>2026-05-02T12:19:37.999Z</time></trkpt><trkpt lat="42.07266331734969" lon="13.703305868937788"><ele>1063.2</ele><time>2026-05-02T12:19:38.999Z</time></trkpt><trkpt lat="42.072565822165295" lon="13.703266387837399"><ele>1066.0</ele><time>2026-05-02T12:19:39.999Z</time></trkpt><trkpt lat="42.07246202808485" lon="13.70330331844483"><ele>1065.5</ele><time>2026-05-02T12:19:40.999Z</time></trkpt><trkpt lat="42.072362465401376" lon="13.703407836973126"><ele>1065.0</ele><time>2026-05-02T12:19:41.999Z</time></trkpt><trkpt lat="42.07227853805455" lon="13.70355186524997"><ele>1064.5</ele><time>2026-05-02T12:19:42.999Z</time></trkpt><trkpt lat="42.07218086127558" lon="13.703707034417796"><ele>1064.0</ele><time>2026-05-02T12:19:43.999Z</time></trkpt><trkpt lat="42.072070229918275" lon="13.703853256058464"><ele>1064.0</ele><time>2026-05-02T12:19:44.999Z</time></trkpt><trkpt lat="42.07195098022453" lon="13.704000720980043"><ele>1064.0</ele><time>2026-05-02T12:19:45.999Z</time></trkpt><trkpt lat="42.07183514974435" lon="13.704132844347747"><ele>1064.0</ele><time>2026-05-02T12:19:46.999Z</time></trkpt><trkpt lat="42.071712412740986" lon="13.704255410549244"><ele>1061.6666666666667</ele><time>2026-05-02T12:19:47.999Z</time></trkpt><trkpt lat="42.071590323522265" lon="13.704356358857613"><ele>1059.3333333333333</ele><time>2026-05-02T12:19:48.999Z</time></trkpt><trkpt lat="42.07144897646707" lon="13.704420978521206"><ele>1057.0</ele><time>2026-05-02T12:19:49.999Z</time></trkpt><trkpt lat="42.07129202104485" lon="13.704430008472979"><ele>1062.6666666666665</ele><time>2026-05-02T12:19:50.999Z</time></trkpt><trkpt lat="42.07113159060993" lon="13.70440298436119"><ele>1068.3333333333333</ele><time>2026-05-02T12:19:51.999Z</time></trkpt><trkpt lat="42.07096739597188" lon="13.704370619778498"><ele>1074.0</ele><time>2026-05-02T12:19:52.999Z</time></trkpt><trkpt lat="42.07080074656062" lon="13.704345408356621"><ele>1082.3333333333333</ele><time>2026-05-02T12:19:53.999Z</time></trkpt><trkpt lat="42.07063234802278" lon="13.704326412965534"><ele>1090.6666666666665</ele><time>2026-05-02T12:19:54.999Z</time></trkpt><trkpt lat="42.070467342646346" lon="13.704327666672881"><ele>1099.0</ele><time>2026-05-02T12:19:55.999Z</time></trkpt><trkpt lat="42.07030397305705" lon="13.70435129137443"><ele>1100.3333333333333</ele><time>2026-05-02T12:19:56.999Z</time></trkpt><trkpt lat="42.07014598411402" lon="13.704418638961085"><ele>1101.6666666666667</ele><time>2026-05-02T12:19:57.999Z</time></trkpt><trkpt lat="42.070012283811224" lon="13.704550001837163"><ele>1103.0</ele><time>2026-05-02T12:19:58.999Z</time></trkpt><trkpt lat="42.06989243997182" lon="13.704706168626304"><ele>1103.0</ele><time>2026-05-02T12:19:59.999Z</time></trkpt><trkpt lat="42.06977929223764" lon="13.704878938520595"><ele>1103.0</ele><time>2026-05-02T12:20:00.999Z</time></trkpt><trkpt lat="42.06965863978263" lon="13.705044231142493"><ele>1103.0</ele><time>2026-05-02T12:20:01.999Z</time></trkpt><trkpt lat="42.069534064149146" lon="13.705198111074603"><ele>1092.3333333333335</ele><time>2026-05-02T12:20:02.999Z</time></trkpt><trkpt lat="42.06940204116841" lon="13.705342190004819"><ele>1081.6666666666667</ele><time>2026-05-02T12:20:03.999Z</time></trkpt><trkpt lat="42.06926377455446" lon="13.705465872326021"><ele>1071.0</ele><time>2026-05-02T12:20:04.999Z</time></trkpt><trkpt lat="42.06911130290444" lon="13.705573406610855"><ele>1077.0</ele><time>2026-05-02T12:20:05.999Z</time></trkpt><trkpt lat="42.068950899729515" lon="13.70566808485249"><ele>1083.0</ele><time>2026-05-02T12:20:06.999Z</time></trkpt><trkpt lat="42.068788695699325" lon="13.705754986454194"><ele>1089.0</ele><time>2026-05-02T12:20:07.999Z</time></trkpt><trkpt lat="42.06862619609654" lon="13.705815720725422"><ele>1089.0</ele><time>2026-05-02T12:20:08.999Z</time></trkpt><trkpt lat="42.06846171357428" lon="13.705870564919685"><ele>1089.0</ele><time>2026-05-02T12:20:09.999Z</time></trkpt><trkpt lat="42.06828894873705" lon="13.705912207288835"><ele>1089.0</ele><time>2026-05-02T12:20:10.999Z</time></trkpt><trkpt lat="42.06811440880593" lon="13.705941207326935"><ele>1093.6666666666667</ele><time>2026-05-02T12:20:11.999Z</time></trkpt><trkpt lat="42.06793921777692" lon="13.705978679101039"><ele>1098.3333333333335</ele><time>2026-05-02T12:20:12.999Z</time></trkpt><trkpt lat="42.06776327182808" lon="13.706020405454158"><ele>1103.0</ele><time>2026-05-02T12:20:13.999Z</time></trkpt><trkpt lat="42.06758895879635" lon="13.706051021467891"><ele>1105.0</ele><time>2026-05-02T12:20:14.999Z</time></trkpt><trkpt lat="42.06741059064264" lon="13.706061902505898"><ele>1107.0</ele><time>2026-05-02T12:20:15.999Z</time></trkpt><trkpt lat="42.067229036143296" lon="13.706067361773187"><ele>1109.0</ele><time>2026-05-02T12:20:16.999Z</time></trkpt><trkpt lat="42.067044656615906" lon="13.706071809750798"><ele>1109.0</ele><time>2026-05-02T12:20:17.999Z</time></trkpt><trkpt lat="42.066861813536946" lon="13.706077147300867"><ele>1109.0</ele><time>2026-05-02T12:20:18.999Z</time></trkpt><trkpt lat="42.06667801598793" lon="13.706080277174971"><ele>1109.0</ele><time>2026-05-02T12:20:19.999Z</time></trkpt><trkpt lat="42.066497482946936" lon="13.706080875316239"><ele>1100.3333333333335</ele><time>2026-05-02T12:20:20.999Z</time></trkpt><trkpt lat="42.06632205683847" lon="13.70609491073526"><ele>1091.6666666666667</ele><time>2026-05-02T12:20:21.999Z</time></trkpt><trkpt lat="42.0661493535678" lon="13.706136855744436"><ele>1083.0</ele><time>2026-05-02T12:20:22.999Z</time></trkpt><trkpt lat="42.06598215816903" lon="13.706190954388244"><ele>1083.0</ele><time>2026-05-02T12:20:23.999Z</time></trkpt><trkpt lat="42.0658096593004" lon="13.70624314180723"><ele>1083.0</ele><time>2026-05-02T12:20:24.999Z</time></trkpt><trkpt lat="42.065642013881536" lon="13.706265226751913"><ele>1083.0</ele><time>2026-05-02T12:20:25.999Z</time></trkpt><trkpt lat="42.06546467440578" lon="13.706241049603177"><ele>1086.6666666666667</ele><time>2026-05-02T12:20:26.999Z</time></trkpt><trkpt lat="42.0652927035123" lon="13.706200692600259"><ele>1090.3333333333335</ele><time>2026-05-02T12:20:27.999Z</time></trkpt><trkpt lat="42.06511352341178" lon="13.706163865769433"><ele>1094.0</ele><time>2026-05-02T12:20:28.999Z</time></trkpt><trkpt lat="42.06494089361635" lon="13.70614172417335"><ele>1101.3333333333335</ele><time>2026-05-02T12:20:29.999Z</time></trkpt><trkpt lat="42.064774391293746" lon="13.706129107429772"><ele>1108.6666666666667</ele><time>2026-05-02T12:20:30.999Z</time></trkpt><trkpt lat="42.06461851797996" lon="13.706121111159705"><ele>1116.0</ele><time>2026-05-02T12:20:31.999Z</time></trkpt><trkpt lat="42.06447760436743" lon="13.706115564981525"><ele>1116.0</ele><time>2026-05-02T12:20:32.999Z</time></trkpt><trkpt lat="42.06434901938423" lon="13.706109480961537"><ele>1116.0</ele><time>2026-05-02T12:20:34Z</time></trkpt><trkpt lat="42.06422537034127" lon="13.706098226185498"><ele>1116.0</ele><time>2026-05-02T12:20:35Z</time></trkpt><trkpt lat="42.06411839722206" lon="13.706062406736624"><ele>1116.0</ele><time>2026-05-02T12:20:36Z</time></trkpt><trkpt lat="42.06402605713193" lon="13.705997030738796"><ele>1115.3333333333333</ele><time>2026-05-02T12:20:37Z</time></trkpt><trkpt lat="42.063955887889634" lon="13.705917359415798"><ele>1114.6666666666667</ele><time>2026-05-02T12:20:38Z</time></trkpt><trkpt lat="42.063898171998076" lon="13.705837935414973"><ele>1114.0</ele><time>2026-05-02T12:20:39Z</time></trkpt><trkpt lat="42.06384927952239" lon="13.705762535115975"><ele>1113.3333333333335</ele><time>2026-05-02T12:20:40Z</time></trkpt><trkpt lat="42.06380462881809" lon="13.705696964594368"><ele>1112.6666666666667</ele><time>2026-05-02T12:20:41Z</time></trkpt><trkpt lat="42.063724295811234" lon="13.70560112942389"><ele>1112.0</ele><time>2026-05-02T12:20:43Z</time></trkpt><trkpt lat="42.06364390425426" lon="13.705487380119674"><ele>1112.0</ele><time>2026-05-02T12:20:45Z</time></trkpt><trkpt lat="42.063603429491046" lon="13.705406136581047"><ele>1112.0</ele><time>2026-05-02T12:20:46Z</time></trkpt><trkpt lat="42.063563846894304" lon="13.70531929340246"><ele>1112.0</ele><time>2026-05-02T12:20:47Z</time></trkpt><trkpt lat="42.06351838916004" lon="13.705229612743308"><ele>1112.0</ele><time>2026-05-02T12:20:48Z</time></trkpt><trkpt lat="42.06347481481574" lon="13.705146557164706"><ele>1112.0</ele><time>2026-05-02T12:20:49Z</time></trkpt><trkpt lat="42.06342785480475" lon="13.705059746233795"><ele>1112.0</ele><time>2026-05-02T12:20:50Z</time></trkpt><trkpt lat="42.06337582084924" lon="13.704954341638087"><ele>1110.6</ele><time>2026-05-02T12:20:51Z</time></trkpt><trkpt lat="42.063315672277156" lon="13.7048422876659"><ele>1109.2</ele><time>2026-05-02T12:20:52Z</time></trkpt><trkpt lat="42.06326136573957" lon="13.704718796005686"><ele>1107.8</ele><time>2026-05-02T12:20:53Z</time></trkpt><trkpt lat="42.06321158970163" lon="13.70458292603994"><ele>1106.4</ele><time>2026-05-02T12:20:54Z</time></trkpt><trkpt lat="42.06317243291418" lon="13.704432971046579"><ele>1105.0</ele><time>2026-05-02T12:20:55Z</time></trkpt><trkpt lat="42.06315119626726" lon="13.704267299292715"><ele>1099.75</ele><time>2026-05-02T12:20:56Z</time></trkpt><trkpt lat="42.063129307746294" lon="13.704097092233281"><ele>1094.5</ele><time>2026-05-02T12:20:57Z</time></trkpt><trkpt lat="42.063102943910955" lon="13.703934583097118"><ele>1089.25</ele><time>2026-05-02T12:20:58Z</time></trkpt><trkpt lat="42.06307468208416" lon="13.703784889922998"><ele>1084.0</ele><time>2026-05-02T12:20:59Z</time></trkpt><trkpt lat="42.06304439538254" lon="13.70365116718118"><ele>1085.5</ele><time>2026-05-02T12:21:00Z</time></trkpt><trkpt lat="42.063013927355115" lon="13.703530044070318"><ele>1087.0</ele><time>2026-05-02T12:21:01Z</time></trkpt><trkpt lat="42.062981166385256" lon="13.703419008795263"><ele>1088.5</ele><time>2026-05-02T12:21:02Z</time></trkpt><trkpt lat="42.062949624742224" lon="13.703315938748746"><ele>1090.0</ele><time>2026-05-02T12:21:03Z</time></trkpt><trkpt lat="42.0629133252473" lon="13.70322306436643"><ele>1091.5</ele><time>2026-05-02T12:21:04Z</time></trkpt><trkpt lat="42.06287557933236" lon="13.703147900126389"><ele>1093.0</ele><time>2026-05-02T12:21:05Z</time></trkpt><trkpt lat="42.06281475096769" lon="13.703070664562876"><ele>1093.0</ele><time>2026-05-02T12:21:07Z</time></trkpt><trkpt lat="42.06279838854108" lon="13.70315351249986"><ele>1093.0</ele><time>2026-05-02T12:21:12Z</time></trkpt><trkpt lat="42.062878857544554" lon="13.703263169951544"><ele>1093.0</ele><time>2026-05-02T12:21:14Z</time></trkpt><trkpt lat="42.062932722574146" lon="13.703350485438332"><ele>1093.0</ele><time>2026-05-02T12:21:15Z</time></trkpt><trkpt lat="42.062976445161574" lon="13.703469921589361"><ele>1093.0</ele><time>2026-05-02T12:21:16Z</time></trkpt><trkpt lat="42.06301474744529" lon="13.703607880455458"><ele>1090.75</ele><time>2026-05-02T12:21:17Z</time></trkpt><trkpt lat="42.063047869655534" lon="13.703757263841636"><ele>1088.5</ele><time>2026-05-02T12:21:18Z</time></trkpt><trkpt lat="42.06310162780229" lon="13.703899986472203"><ele>1086.25</ele><time>2026-05-02T12:21:19Z</time></trkpt><trkpt lat="42.06308779388054" lon="13.70407818201648"><ele>1084.0</ele><time>2026-05-02T12:21:20Z</time></trkpt><trkpt lat="42.06308725102832" lon="13.704258953149933"><ele>1084.0</ele><time>2026-05-02T12:21:21Z</time></trkpt><trkpt lat="42.06314369676342" lon="13.704409115358821"><ele>1084.0</ele><time>2026-05-02T12:21:22Z</time></trkpt><trkpt lat="42.063176706049035" lon="13.704563568446387"><ele>1084.0</ele><time>2026-05-02T12:21:23Z</time></trkpt><trkpt lat="42.06321938646205" lon="13.70471113536216"><ele>1084.0</ele><time>2026-05-02T12:21:24Z</time></trkpt><trkpt lat="42.06327532684606" lon="13.704854953694785"><ele>1089.25</ele><time>2026-05-02T12:21:25Z</time></trkpt><trkpt lat="42.06334319574547" lon="13.704989339361175"><ele>1094.5</ele><time>2026-05-02T12:21:26Z</time></trkpt><trkpt lat="42.06341844222389" lon="13.705113390149267"><ele>1099.75</ele><time>2026-05-02T12:21:27Z</time></trkpt><trkpt lat="42.06348823716735" lon="13.705227933280524"><ele>1105.0</ele><time>2026-05-02T12:21:28Z</time></trkpt><trkpt lat="42.06355401394652" lon="13.705337226285703"><ele>1106.1666666666665</ele><time>2026-05-02T12:21:29Z</time></trkpt><trkpt lat="42.063612680027056" lon="13.705436311012917"><ele>1107.3333333333333</ele><time>2026-05-02T12:21:30Z</time></trkpt><trkpt lat="42.06366772446589" lon="13.705526767111907"><ele>1108.5</ele><time>2026-05-02T12:21:31Z</time></trkpt><trkpt lat="42.063720314944" lon="13.70559675567088"><ele>1109.6666666666667</ele><time>2026-05-02T12:21:32Z</time></trkpt><trkpt lat="42.0637864411941" lon="13.705716196403994"><ele>1110.8333333333335</ele><time>2026-05-02T12:21:34Z</time></trkpt><trkpt lat="42.063744183892396" lon="13.705805308031847"><ele>1112.0</ele><time>2026-05-02T12:21:36Z</time></trkpt><trkpt lat="42.063659573759345" lon="13.705799375796108"><ele>1112.0</ele><time>2026-05-02T12:21:38Z</time></trkpt><trkpt lat="42.06359386288926" lon="13.705709853068207"><ele>1112.0</ele><time>2026-05-02T12:21:40Z</time></trkpt><trkpt lat="42.063509677695684" lon="13.705612168133731"><ele>1112.0</ele><time>2026-05-02T12:21:42Z</time></trkpt><trkpt lat="42.0634138598403" lon="13.705494607294051"><ele>1112.0</ele><time>2026-05-02T12:21:43.999Z</time></trkpt><trkpt lat="42.063364119293624" lon="13.7054366154889"><ele>1112.0</ele><time>2026-05-02T12:21:44.999Z</time></trkpt><trkpt lat="42.06331333985694" lon="13.70538552450926"><ele>1110.5</ele><time>2026-05-02T12:21:45.999Z</time></trkpt><trkpt lat="42.063211546205736" lon="13.705292631636928"><ele>1109.0</ele><time>2026-05-02T12:21:47.999Z</time></trkpt><trkpt lat="42.063120670562746" lon="13.705202658337324"><ele>1107.5</ele><time>2026-05-02T12:21:49.999Z</time></trkpt><trkpt lat="42.063018663445796" lon="13.705138660664566"><ele>1106.0</ele><time>2026-05-02T12:21:51.999Z</time></trkpt><trkpt lat="42.062923176470385" lon="13.705073437428398"><ele>1102.3333333333335</ele><time>2026-05-02T12:21:53.999Z</time></trkpt><trkpt lat="42.06282924244434" lon="13.705002667649708"><ele>1098.6666666666667</ele><time>2026-05-02T12:21:55.999Z</time></trkpt><trkpt lat="42.06271901615228" lon="13.704969883418455"><ele>1095.0</ele><time>2026-05-02T12:21:57.999Z</time></trkpt><trkpt lat="42.06264722989367" lon="13.704956213684234"><ele>1091.3333333333333</ele><time>2026-05-02T12:21:58.999Z</time></trkpt><trkpt lat="42.06256888458972" lon="13.704954509546399"><ele>1087.6666666666665</ele><time>2026-05-02T12:21:59.999Z</time></trkpt><trkpt lat="42.06249345659911" lon="13.704942755780591"><ele>1084.0</ele><time>2026-05-02T12:22:00.999Z</time></trkpt><trkpt lat="42.06241771309406" lon="13.704934382793075"><ele>1082.5714285714284</ele><time>2026-05-02T12:22:01.999Z</time></trkpt><trkpt lat="42.06234477383501" lon="13.704931972315514"><ele>1081.142857142857</ele><time>2026-05-02T12:22:02.999Z</time></trkpt><trkpt lat="42.06227122033146" lon="13.704933972158276"><ele>1079.7142857142858</ele><time>2026-05-02T12:22:03.999Z</time></trkpt><trkpt lat="42.06219617754813" lon="13.704932051698115"><ele>1078.2857142857142</ele><time>2026-05-02T12:22:04.999Z</time></trkpt><trkpt lat="42.06212665567551" lon="13.704924139961648"><ele>1076.857142857143</ele><time>2026-05-02T12:22:05.999Z</time></trkpt><trkpt lat="42.06205164029782" lon="13.704918329504435"><ele>1075.4285714285713</ele><time>2026-05-02T12:22:06.999Z</time></trkpt><trkpt lat="42.061973515048564" lon="13.704911523025833"><ele>1074.0</ele><time>2026-05-02T12:22:07.999Z</time></trkpt><trkpt lat="42.06189388953355" lon="13.704897623680873"><ele>1074.0</ele><time>2026-05-02T12:22:08.999Z</time></trkpt><trkpt lat="42.061828869067305" lon="13.704882726643445"><ele>1074.0</ele><time>2026-05-02T12:22:09.999Z</time></trkpt><trkpt lat="42.06172870556252" lon="13.704820592460123"><ele>1074.0</ele><time>2026-05-02T12:22:11.999Z</time></trkpt><trkpt lat="42.06168567851997" lon="13.704756524087362"><ele>1074.0</ele><time>2026-05-02T12:22:12.999Z</time></trkpt><trkpt lat="42.061627586958515" lon="13.704682095119265"><ele>1074.0</ele><time>2026-05-02T12:22:13.999Z</time></trkpt><trkpt lat="42.06155773469198" lon="13.704599026206807"><ele>1074.0</ele><time>2026-05-02T12:22:14.999Z</time></trkpt><trkpt lat="42.06150070336491" lon="13.704509070996396"><ele>1072.8</ele><time>2026-05-02T12:22:15.999Z</time></trkpt><trkpt lat="42.06144121524505" lon="13.704405921331846"><ele>1071.6000000000001</ele><time>2026-05-02T12:22:16.999Z</time></trkpt><trkpt lat="42.06138483317505" lon="13.70430021132591"><ele>1070.4</ele><time>2026-05-02T12:22:17.999Z</time></trkpt><trkpt lat="42.06132790277907" lon="13.704189994543478"><ele>1069.2</ele><time>2026-05-02T12:22:18.999Z</time></trkpt><trkpt lat="42.06127627962419" lon="13.70409201904495"><ele>1068.0</ele><time>2026-05-02T12:22:19.999Z</time></trkpt><trkpt lat="42.06121779078149" lon="13.704000287058678"><ele>1068.0</ele><time>2026-05-02T12:22:20.999Z</time></trkpt><trkpt lat="42.061170378048125" lon="13.703917537350474"><ele>1068.0</ele><time>2026-05-02T12:22:21.999Z</time></trkpt><trkpt lat="42.06111586334109" lon="13.703830570677132"><ele>1068.0</ele><time>2026-05-02T12:22:22.999Z</time></trkpt><trkpt lat="42.0610529175876" lon="13.70372466675472"><ele>1068.0</ele><time>2026-05-02T12:22:23.999Z</time></trkpt><trkpt lat="42.06098449139309" lon="13.703601364995373"><ele>1068.0</ele><time>2026-05-02T12:22:24.999Z</time></trkpt><trkpt lat="42.06092064453933" lon="13.70348762387969"><ele>1068.6</ele><time>2026-05-02T12:22:25.999Z</time></trkpt><trkpt lat="42.06085944806646" lon="13.703386279571074"><ele>1069.1999999999998</ele><time>2026-05-02T12:22:26.999Z</time></trkpt><trkpt lat="42.06080093165547" lon="13.7032881354691"><ele>1069.8</ele><time>2026-05-02T12:22:27.999Z</time></trkpt><trkpt lat="42.060744639793555" lon="13.70319478826134"><ele>1070.3999999999999</ele><time>2026-05-02T12:22:28.999Z</time></trkpt><trkpt lat="42.060695288563" lon="13.703095521281309"><ele>1071.0</ele><time>2026-05-02T12:22:29.999Z</time></trkpt><trkpt lat="42.060647297888" lon="13.703004881641165"><ele>1071.0</ele><time>2026-05-02T12:22:30.999Z</time></trkpt><trkpt lat="42.06059148425275" lon="13.70290765698399"><ele>1071.0</ele><time>2026-05-02T12:22:31.999Z</time></trkpt><trkpt lat="42.060538851406974" lon="13.7028202508451"><ele>1071.0</ele><time>2026-05-02T12:22:32.999Z</time></trkpt><trkpt lat="42.060486081691096" lon="13.702718125889124"><ele>1071.0</ele><time>2026-05-02T12:22:33.999Z</time></trkpt><trkpt lat="42.06043215272348" lon="13.702604884340873"><ele>1071.0</ele><time>2026-05-02T12:22:34.999Z</time></trkpt><trkpt lat="42.06037983461325" lon="13.702499242722192"><ele>1070.0</ele><time>2026-05-02T12:22:35.999Z</time></trkpt><trkpt lat="42.06032962144654" lon="13.702410832859762"><ele>1069.0</ele><time>2026-05-02T12:22:36.999Z</time></trkpt><trkpt lat="42.060278983177014" lon="13.702314528775686"><ele>1068.0</ele><time>2026-05-02T12:22:37.999Z</time></trkpt><trkpt lat="42.060223218767874" lon="13.702225167267004"><ele>1067.0</ele><time>2026-05-02T12:22:38.999Z</time></trkpt><trkpt lat="42.06016071609831" lon="13.702127788489912"><ele>1066.0</ele><time>2026-05-02T12:22:40Z</time></trkpt><trkpt lat="42.06011044227511" lon="13.702049062978055"><ele>1065.0</ele><time>2026-05-02T12:22:41Z</time></trkpt><trkpt lat="42.06005502943385" lon="13.701960061297994"><ele>1064.3333333333333</ele><time>2026-05-02T12:22:42Z</time></trkpt><trkpt lat="42.059999833918845" lon="13.70187374796352"><ele>1063.6666666666667</ele><time>2026-05-02T12:22:43Z</time></trkpt><trkpt lat="42.059947874224996" lon="13.701774415864723"><ele>1063.0</ele><time>2026-05-02T12:22:44Z</time></trkpt><trkpt lat="42.059898199506705" lon="13.701676582420145"><ele>1062.3333333333335</ele><time>2026-05-02T12:22:45Z</time></trkpt><trkpt lat="42.05984835087577" lon="13.701586463272944"><ele>1061.6666666666667</ele><time>2026-05-02T12:22:46Z</time></trkpt><trkpt lat="42.05978974734734" lon="13.701482499639486"><ele>1061.0</ele><time>2026-05-02T12:22:47Z</time></trkpt><trkpt lat="42.059732983369614" lon="13.70139331147806"><ele>1061.0</ele><time>2026-05-02T12:22:48Z</time></trkpt><trkpt lat="42.05967387897086" lon="13.701300803291447"><ele>1061.0</ele><time>2026-05-02T12:22:49Z</time></trkpt><trkpt lat="42.05962535071827" lon="13.70121405339866"><ele>1061.0</ele><time>2026-05-02T12:22:50Z</time></trkpt><trkpt lat="42.05957537738212" lon="13.701127583534134"><ele>1061.0</ele><time>2026-05-02T12:22:51Z</time></trkpt><trkpt lat="42.05952478717896" lon="13.701041528736749"><ele>1061.0</ele><time>2026-05-02T12:22:52Z</time></trkpt><trkpt lat="42.059470704947934" lon="13.700951740126827"><ele>1061.0</ele><time>2026-05-02T12:22:53Z</time></trkpt><trkpt lat="42.05941495170282" lon="13.700867073939882"><ele>1061.0</ele><time>2026-05-02T12:22:54Z</time></trkpt><trkpt lat="42.05935356407399" lon="13.700785796095937"><ele>1061.0</ele><time>2026-05-02T12:22:55Z</time></trkpt><trkpt lat="42.059292603488764" lon="13.70071436857882"><ele>1061.0</ele><time>2026-05-02T12:22:56Z</time></trkpt><trkpt lat="42.05922397640192" lon="13.700656939500655"><ele>1061.0</ele><time>2026-05-02T12:22:57Z</time></trkpt><trkpt lat="42.05915175975663" lon="13.700603183394277"><ele>1061.0</ele><time>2026-05-02T12:22:58Z</time></trkpt><trkpt lat="42.05908306633985" lon="13.70056747919703"><ele>1061.0</ele><time>2026-05-02T12:22:59Z</time></trkpt><trkpt lat="42.05900265691787" lon="13.70052685648376"><ele>1060.3333333333335</ele><time>2026-05-02T12:23:00Z</time></trkpt><trkpt lat="42.05892125493278" lon="13.700485007391922"><ele>1059.6666666666667</ele><time>2026-05-02T12:23:01Z</time></trkpt><trkpt lat="42.058830773983125" lon="13.700451259357967"><ele>1059.0</ele><time>2026-05-02T12:23:02Z</time></trkpt><trkpt lat="42.0587449711429" lon="13.700431551068663"><ele>1058.3333333333333</ele><time>2026-05-02T12:23:03Z</time></trkpt><trkpt lat="42.05865488420166" lon="13.700420305738382"><ele>1057.6666666666665</ele><time>2026-05-02T12:23:04Z</time></trkpt><trkpt lat="42.058571255225" lon="13.700415683742445"><ele>1057.0</ele><time>2026-05-02T12:23:05Z</time></trkpt><trkpt lat="42.058482320174434" lon="13.700404964638652"><ele>1057.0</ele><time>2026-05-02T12:23:06Z</time></trkpt><trkpt lat="42.05838714998857" lon="13.700394233983765"><ele>1057.0</ele><time>2026-05-02T12:23:07Z</time></trkpt><trkpt lat="42.05831206338739" lon="13.700387233158848"><ele>1057.0</ele><time>2026-05-02T12:23:08Z</time></trkpt><trkpt lat="42.05823826537742" lon="13.700382147608089"><ele>1057.0</ele><time>2026-05-02T12:23:09Z</time></trkpt><trkpt lat="42.05816762206355" lon="13.700373540258655"><ele>1057.0</ele><time>2026-05-02T12:23:10Z</time></trkpt><trkpt lat="42.05807583996304" lon="13.700373140999643"><ele>1057.0</ele><time>2026-05-02T12:23:11Z</time></trkpt><trkpt lat="42.057982065054745" lon="13.70037175462215"><ele>1056.0</ele><time>2026-05-02T12:23:12Z</time></trkpt><trkpt lat="42.05789070061355" lon="13.700367682601055"><ele>1055.0</ele><time>2026-05-02T12:23:13Z</time></trkpt><trkpt lat="42.05778249996243" lon="13.70034590736157"><ele>1054.0</ele><time>2026-05-02T12:23:15Z</time></trkpt><trkpt lat="42.0576354906484" lon="13.700316311931893"><ele>1053.0</ele><time>2026-05-02T12:23:17Z</time></trkpt><trkpt lat="42.05756392075575" lon="13.700307806389912"><ele>1052.0</ele><time>2026-05-02T12:23:18Z</time></trkpt><trkpt lat="42.057435566236464" lon="13.700298854296435"><ele>1051.8333333333335</ele><time>2026-05-02T12:23:20Z</time></trkpt><trkpt lat="42.057363363952255" lon="13.700288261513524"><ele>1051.6666666666667</ele><time>2026-05-02T12:23:21Z</time></trkpt><trkpt lat="42.05729053264444" lon="13.700275126166643"><ele>1051.5</ele><time>2026-05-02T12:23:22Z</time></trkpt><trkpt lat="42.05720057143264" lon="13.700264516360201"><ele>1051.3333333333333</ele><time>2026-05-02T12:23:23Z</time></trkpt><trkpt lat="42.057110280399144" lon="13.700261230287461"><ele>1051.1666666666665</ele><time>2026-05-02T12:23:24Z</time></trkpt><trkpt lat="42.05703746935744" lon="13.700250523337964"><ele>1051.0</ele><time>2026-05-02T12:23:25Z</time></trkpt><trkpt lat="42.056967915694564" lon="13.700236973783046"><ele>1051.0</ele><time>2026-05-02T12:23:26Z</time></trkpt><trkpt lat="42.0568976862552" lon="13.700222392172623"><ele>1051.0</ele><time>2026-05-02T12:23:27Z</time></trkpt><trkpt lat="42.05681594570508" lon="13.700204013870295"><ele>1051.0</ele><time>2026-05-02T12:23:28Z</time></trkpt><trkpt lat="42.05673728322007" lon="13.700188866982838"><ele>1051.0</ele><time>2026-05-02T12:23:29Z</time></trkpt><trkpt lat="42.05665362078995" lon="13.7001779107733"><ele>1051.0</ele><time>2026-05-02T12:23:30Z</time></trkpt><trkpt lat="42.05656502095853" lon="13.700164801281149"><ele>1051.0</ele><time>2026-05-02T12:23:31Z</time></trkpt><trkpt lat="42.056478679905126" lon="13.700153798566886"><ele>1051.2</ele><time>2026-05-02T12:23:32Z</time></trkpt><trkpt lat="42.05638996005682" lon="13.70014249531779"><ele>1051.3999999999999</ele><time>2026-05-02T12:23:33Z</time></trkpt><trkpt lat="42.05629806084701" lon="13.700125363960215"><ele>1051.6</ele><time>2026-05-02T12:23:34Z</time></trkpt><trkpt lat="42.05620624105038" lon="13.700107806904038"><ele>1051.8</ele><time>2026-05-02T12:23:35Z</time></trkpt><trkpt lat="42.05611350043817" lon="13.700093821556235"><ele>1052.0</ele><time>2026-05-02T12:23:36Z</time></trkpt><trkpt lat="42.05603067960042" lon="13.700080773484084"><ele>1052.0</ele><time>2026-05-02T12:23:37Z</time></trkpt><trkpt lat="42.05596073742762" lon="13.700070695893594"><ele>1052.0</ele><time>2026-05-02T12:23:38Z</time></trkpt><trkpt lat="42.05589221566903" lon="13.700054678829792"><ele>1052.0</ele><time>2026-05-02T12:23:39Z</time></trkpt><trkpt lat="42.055823098869304" lon="13.700036855778508"><ele>1052.0</ele><time>2026-05-02T12:23:40Z</time></trkpt><trkpt lat="42.055747062310665" lon="13.70002072781684"><ele>1052.0</ele><time>2026-05-02T12:23:41Z</time></trkpt><trkpt lat="42.05565912571265" lon="13.70000439337632"><ele>1052.0</ele><time>2026-05-02T12:23:42Z</time></trkpt><trkpt lat="42.05556774016992" lon="13.699994498551963"><ele>1051.6666666666667</ele><time>2026-05-02T12:23:43Z</time></trkpt><trkpt lat="42.05549161599051" lon="13.69998701952356"><ele>1051.3333333333335</ele><time>2026-05-02T12:23:44Z</time></trkpt><trkpt lat="42.055424634588846" lon="13.699979634816698"><ele>1051.0</ele><time>2026-05-02T12:23:45Z</time></trkpt><trkpt lat="42.055350285193384" lon="13.699969112289637"><ele>1050.6666666666667</ele><time>2026-05-02T12:23:46Z</time></trkpt><trkpt lat="42.055263461764014" lon="13.699953439311363"><ele>1050.3333333333333</ele><time>2026-05-02T12:23:47Z</time></trkpt><trkpt lat="42.055173737945545" lon="13.699921900587286"><ele>1050.0</ele><time>2026-05-02T12:23:48Z</time></trkpt><trkpt lat="42.05509637662326" lon="13.699893433431475"><ele>1050.0</ele><time>2026-05-02T12:23:49Z</time></trkpt><trkpt lat="42.05502343974982" lon="13.69986498114803"><ele>1050.0</ele><time>2026-05-02T12:23:50Z</time></trkpt><trkpt lat="42.05494734336229" lon="13.699831374413055"><ele>1050.0</ele><time>2026-05-02T12:23:51Z</time></trkpt><trkpt lat="42.054877304344636" lon="13.699798108888714"><ele>1050.0</ele><time>2026-05-02T12:23:52Z</time></trkpt><trkpt lat="42.05480497788855" lon="13.699760012123104"><ele>1050.0</ele><time>2026-05-02T12:23:52.999Z</time></trkpt><trkpt lat="42.05471628746206" lon="13.699709318467772"><ele>1050.0</ele><time>2026-05-02T12:23:53.999Z</time></trkpt><trkpt lat="42.05463582103397" lon="13.699658891442972"><ele>1049.6666666666667</ele><time>2026-05-02T12:23:54.999Z</time></trkpt><trkpt lat="42.05456369572491" lon="13.699618817248798"><ele>1049.3333333333333</ele><time>2026-05-02T12:23:55.999Z</time></trkpt><trkpt lat="42.054493192648714" lon="13.699597247711946"><ele>1049.0</ele><time>2026-05-02T12:23:56.999Z</time></trkpt><trkpt lat="42.05441175314936" lon="13.699582756055307"><ele>1048.6666666666665</ele><time>2026-05-02T12:23:57.999Z</time></trkpt><trkpt lat="42.054321895514725" lon="13.699556048024107"><ele>1048.3333333333333</ele><time>2026-05-02T12:23:58.999Z</time></trkpt><trkpt lat="42.05423061699703" lon="13.699521129922461"><ele>1048.0</ele><time>2026-05-02T12:23:59.999Z</time></trkpt><trkpt lat="42.05414418899039" lon="13.699477729555738"><ele>1048.6666666666665</ele><time>2026-05-02T12:24:00.999Z</time></trkpt><trkpt lat="42.05407152599883" lon="13.699439313138516"><ele>1049.3333333333333</ele><time>2026-05-02T12:24:01.999Z</time></trkpt><trkpt lat="42.054005192893605" lon="13.699404151597648"><ele>1050.0</ele><time>2026-05-02T12:24:02.999Z</time></trkpt><trkpt lat="42.053928203600776" lon="13.699360322653847"><ele>1050.6666666666667</ele><time>2026-05-02T12:24:03.999Z</time></trkpt><trkpt lat="42.053828254598535" lon="13.69930553498658"><ele>1051.3333333333335</ele><time>2026-05-02T12:24:04.999Z</time></trkpt><trkpt lat="42.053731299945376" lon="13.699261641501977"><ele>1052.0</ele><time>2026-05-02T12:24:05.999Z</time></trkpt><trkpt lat="42.05364535879753" lon="13.699222881246138"><ele>1052.0</ele><time>2026-05-02T12:24:06.999Z</time></trkpt><trkpt lat="42.05355749971329" lon="13.699175064518226"><ele>1052.0</ele><time>2026-05-02T12:24:07.999Z</time></trkpt><trkpt lat="42.05347421664478" lon="13.699132478322854"><ele>1052.0</ele><time>2026-05-02T12:24:08.999Z</time></trkpt><trkpt lat="42.05339450208519" lon="13.69908841720877"><ele>1052.0</ele><time>2026-05-02T12:24:09.999Z</time></trkpt><trkpt lat="42.05332195726997" lon="13.699053419477716"><ele>1052.0</ele><time>2026-05-02T12:24:10.999Z</time></trkpt><trkpt lat="42.0532566445481" lon="13.69902615626649"><ele>1052.0</ele><time>2026-05-02T12:24:11.999Z</time></trkpt><trkpt lat="42.053179391398835" lon="13.698985187381703"><ele>1052.3333333333335</ele><time>2026-05-02T12:24:12.999Z</time></trkpt><trkpt lat="42.05310958994044" lon="13.698928802138926"><ele>1052.6666666666667</ele><time>2026-05-02T12:24:13.999Z</time></trkpt><trkpt lat="42.05304209554237" lon="13.698865599806439"><ele>1053.0</ele><time>2026-05-02T12:24:14.999Z</time></trkpt><trkpt lat="42.05298080209897" lon="13.698802463866405"><ele>1053.3333333333333</ele><time>2026-05-02T12:24:15.999Z</time></trkpt><trkpt lat="42.05292865679114" lon="13.698749313201843"><ele>1053.6666666666665</ele><time>2026-05-02T12:24:16.999Z</time></trkpt><trkpt lat="42.052866468062746" lon="13.698677350852568"><ele>1054.0</ele><time>2026-05-02T12:24:17.999Z</time></trkpt><trkpt lat="42.05281197712147" lon="13.6986055771317"><ele>1054.3333333333333</ele><time>2026-05-02T12:24:18.999Z</time></trkpt><trkpt lat="42.052749189242284" lon="13.698520164958014"><ele>1054.6666666666665</ele><time>2026-05-02T12:24:19.999Z</time></trkpt><trkpt lat="42.052681248498224" lon="13.69844766121712"><ele>1055.0</ele><time>2026-05-02T12:24:20.999Z</time></trkpt><trkpt lat="42.052606866070356" lon="13.698378438318628"><ele>1055.3333333333333</ele><time>2026-05-02T12:24:21.999Z</time></trkpt><trkpt lat="42.05253624383191" lon="13.698308813991313"><ele>1055.6666666666667</ele><time>2026-05-02T12:24:22.999Z</time></trkpt><trkpt lat="42.0524690818721" lon="13.698242131156395"><ele>1056.0</ele><time>2026-05-02T12:24:23.999Z</time></trkpt><trkpt lat="42.05240786431364" lon="13.698180764757112"><ele>1056.0</ele><time>2026-05-02T12:24:24.999Z</time></trkpt><trkpt lat="42.05235225504701" lon="13.698122678831977"><ele>1056.0</ele><time>2026-05-02T12:24:25.999Z</time></trkpt><trkpt lat="42.052293104399354" lon="13.698056734923421"><ele>1056.0</ele><time>2026-05-02T12:24:26.999Z</time></trkpt><trkpt lat="42.05221961660177" lon="13.69797839463258"><ele>1056.0</ele><time>2026-05-02T12:24:27.999Z</time></trkpt><trkpt lat="42.052147433667784" lon="13.697890435004817"><ele>1056.0</ele><time>2026-05-02T12:24:28.999Z</time></trkpt><trkpt lat="42.052086723895584" lon="13.697816147280232"><ele>1056.0</ele><time>2026-05-02T12:24:29.999Z</time></trkpt><trkpt lat="42.05202789182409" lon="13.697734975022335"><ele>1056.0</ele><time>2026-05-02T12:24:30.999Z</time></trkpt><trkpt lat="42.05196757596947" lon="13.697648204389859"><ele>1056.0</ele><time>2026-05-02T12:24:31.999Z</time></trkpt><trkpt lat="42.051903390776694" lon="13.697558586956557"><ele>1056.0</ele><time>2026-05-02T12:24:32.999Z</time></trkpt><trkpt lat="42.051840430872325" lon="13.697481190396374"><ele>1056.0</ele><time>2026-05-02T12:24:33.999Z</time></trkpt><trkpt lat="42.05177687463117" lon="13.697411818502465"><ele>1056.0</ele><time>2026-05-02T12:24:34.999Z</time></trkpt><trkpt lat="42.0517121421694" lon="13.697347541767702"><ele>1056.0</ele><time>2026-05-02T12:24:35.999Z</time></trkpt><trkpt lat="42.051648590814786" lon="13.697281799529827"><ele>1055.8333333333333</ele><time>2026-05-02T12:24:36.999Z</time></trkpt><trkpt lat="42.05158306400771" lon="13.697206825092797"><ele>1055.6666666666667</ele><time>2026-05-02T12:24:37.999Z</time></trkpt><trkpt lat="42.051508046683686" lon="13.697125058004188"><ele>1055.5</ele><time>2026-05-02T12:24:38.999Z</time></trkpt><trkpt lat="42.051437655827144" lon="13.697043050969182"><ele>1055.3333333333335</ele><time>2026-05-02T12:24:39.999Z</time></trkpt><trkpt lat="42.05137640200155" lon="13.696972526139193"><ele>1055.1666666666667</ele><time>2026-05-02T12:24:40.999Z</time></trkpt><trkpt lat="42.05131609826782" lon="13.696912402107152"><ele>1055.0</ele><time>2026-05-02T12:24:41.999Z</time></trkpt><trkpt lat="42.051252425903215" lon="13.696848190394189"><ele>1055.0</ele><time>2026-05-02T12:24:42.999Z</time></trkpt><trkpt lat="42.05117961294404" lon="13.696761785348265"><ele>1055.0</ele><time>2026-05-02T12:24:43.999Z</time></trkpt><trkpt lat="42.05110619787839" lon="13.696671033312658"><ele>1055.0</ele><time>2026-05-02T12:24:44.999Z</time></trkpt><trkpt lat="42.05103593037761" lon="13.696580162317597"><ele>1055.0</ele><time>2026-05-02T12:24:46Z</time></trkpt><trkpt lat="42.050975620914954" lon="13.696508650477801"><ele>1055.0</ele><time>2026-05-02T12:24:47Z</time></trkpt><trkpt lat="42.05090491214658" lon="13.696429692645674"><ele>1055.0</ele><time>2026-05-02T12:24:48Z</time></trkpt><trkpt lat="42.05083318924814" lon="13.69635205038713"><ele>1055.0</ele><time>2026-05-02T12:24:49Z</time></trkpt><trkpt lat="42.05076967086956" lon="13.696270891112912"><ele>1055.0</ele><time>2026-05-02T12:24:50Z</time></trkpt><trkpt lat="42.050720658187664" lon="13.696195174726292"><ele>1055.0</ele><time>2026-05-02T12:24:51Z</time></trkpt><trkpt lat="42.0506612230766" lon="13.696107604575284"><ele>1055.0</ele><time>2026-05-02T12:24:52Z</time></trkpt><trkpt lat="42.05060137155992" lon="13.696026146530139"><ele>1055.0</ele><time>2026-05-02T12:24:53Z</time></trkpt><trkpt lat="42.05053481695066" lon="13.695936879047183"><ele>1054.3333333333335</ele><time>2026-05-02T12:24:54Z</time></trkpt><trkpt lat="42.05047187655791" lon="13.695849917080693"><ele>1053.6666666666667</ele><time>2026-05-02T12:24:55Z</time></trkpt><trkpt lat="42.05041498664301" lon="13.695773165774673"><ele>1053.0</ele><time>2026-05-02T12:24:56Z</time></trkpt><trkpt lat="42.05036058765854" lon="13.695704229139245"><ele>1052.3333333333333</ele><time>2026-05-02T12:24:57Z</time></trkpt><trkpt lat="42.05029033331276" lon="13.695629412921738"><ele>1051.6666666666665</ele><time>2026-05-02T12:24:58Z</time></trkpt><trkpt lat="42.050234170339834" lon="13.695556487217551"><ele>1051.0</ele><time>2026-05-02T12:24:59Z</time></trkpt><trkpt lat="42.050169955791624" lon="13.69546620783839"><ele>1051.0</ele><time>2026-05-02T12:25:00Z</time></trkpt><trkpt lat="42.05010409511101" lon="13.695375190343372"><ele>1051.0</ele><time>2026-05-02T12:25:01Z</time></trkpt><trkpt lat="42.0500378203977" lon="13.695287716607584"><ele>1051.0</ele><time>2026-05-02T12:25:02Z</time></trkpt><trkpt lat="42.049970897881416" lon="13.695197074918557"><ele>1051.0</ele><time>2026-05-02T12:25:03Z</time></trkpt><trkpt lat="42.04990299517325" lon="13.695103442660717"><ele>1051.0</ele><time>2026-05-02T12:25:04Z</time></trkpt><trkpt lat="42.049840188507865" lon="13.695012957357305"><ele>1051.8333333333333</ele><time>2026-05-02T12:25:05Z</time></trkpt><trkpt lat="42.049778695038015" lon="13.694922174096689"><ele>1052.6666666666665</ele><time>2026-05-02T12:25:06Z</time></trkpt><trkpt lat="42.049721428937175" lon="13.694843773980114"><ele>1053.5</ele><time>2026-05-02T12:25:07Z</time></trkpt><trkpt lat="42.049668915027674" lon="13.694767733530801"><ele>1054.3333333333333</ele><time>2026-05-02T12:25:08Z</time></trkpt><trkpt lat="42.04961262101266" lon="13.694689785358962"><ele>1055.1666666666667</ele><time>2026-05-02T12:25:09Z</time></trkpt><trkpt lat="42.049561909835944" lon="13.694625474619556"><ele>1056.0</ele><time>2026-05-02T12:25:10Z</time></trkpt><trkpt lat="42.049519637931326" lon="13.694561466724966"><ele>1056.0</ele><time>2026-05-02T12:25:11Z</time></trkpt><trkpt lat="42.04947126056244" lon="13.694487576524862"><ele>1056.0</ele><time>2026-05-02T12:25:12Z</time></trkpt><trkpt lat="42.049377119510126" lon="13.694364367475222"><ele>1056.0</ele><time>2026-05-02T12:25:14Z</time></trkpt><trkpt lat="42.04932169400018" lon="13.694293915769428"><ele>1056.0</ele><time>2026-05-02T12:25:15Z</time></trkpt><trkpt lat="42.04925340902192" lon="13.69421553236097"><ele>1056.0</ele><time>2026-05-02T12:25:16Z</time></trkpt><trkpt lat="42.04916979530126" lon="13.694129775904312"><ele>1055.75</ele><time>2026-05-02T12:25:17Z</time></trkpt><trkpt lat="42.04908379514557" lon="13.694026070017648"><ele>1055.5</ele><time>2026-05-02T12:25:18Z</time></trkpt><trkpt lat="42.049000329140725" lon="13.693901227295123"><ele>1055.25</ele><time>2026-05-02T12:25:19Z</time></trkpt><trkpt lat="42.048916279653575" lon="13.693805489287879"><ele>1055.0</ele><time>2026-05-02T12:25:20Z</time></trkpt><trkpt lat="42.04885841685866" lon="13.693664897194399"><ele>1055.0</ele><time>2026-05-02T12:25:21Z</time></trkpt><trkpt lat="42.04875412875989" lon="13.69368737824383"><ele>1055.0</ele><time>2026-05-02T12:25:22Z</time></trkpt><trkpt lat="42.04868708594904" lon="13.693603116992595"><ele>1055.0</ele><time>2026-05-02T12:25:23Z</time></trkpt><trkpt lat="42.04861294768076" lon="13.693520358487962"><ele>1055.0</ele><time>2026-05-02T12:25:24Z</time></trkpt><trkpt lat="42.04852874964344" lon="13.693437611494316"><ele>1055.0</ele><time>2026-05-02T12:25:25Z</time></trkpt><trkpt lat="42.04844985908579" lon="13.693365061210375"><ele>1054.6666666666667</ele><time>2026-05-02T12:25:26Z</time></trkpt><trkpt lat="42.048375367526994" lon="13.69329632473962"><ele>1054.3333333333335</ele><time>2026-05-02T12:25:27Z</time></trkpt><trkpt lat="42.04831267974915" lon="13.693226350563746"><ele>1054.0</ele><time>2026-05-02T12:25:28Z</time></trkpt><trkpt lat="42.048246328164566" lon="13.69314950830772"><ele>1053.6666666666667</ele><time>2026-05-02T12:25:29Z</time></trkpt><trkpt lat="42.04818292959329" lon="13.693081695265205"><ele>1053.3333333333333</ele><time>2026-05-02T12:25:30Z</time></trkpt><trkpt lat="42.0481222538424" lon="13.693010361915988"><ele>1053.0</ele><time>2026-05-02T12:25:31Z</time></trkpt><trkpt lat="42.048059767289644" lon="13.692934406556317"><ele>1053.0</ele><time>2026-05-02T12:25:32Z</time></trkpt><trkpt lat="42.04798727955599" lon="13.692848728052489"><ele>1053.0</ele><time>2026-05-02T12:25:33Z</time></trkpt><trkpt lat="42.047909745403345" lon="13.69276175811006"><ele>1053.0</ele><time>2026-05-02T12:25:34Z</time></trkpt><trkpt lat="42.047826307453626" lon="13.69267594787396"><ele>1053.0</ele><time>2026-05-02T12:25:35Z</time></trkpt><trkpt lat="42.04774727614272" lon="13.692590134085806"><ele>1053.0</ele><time>2026-05-02T12:25:36Z</time></trkpt><trkpt lat="42.047670153155806" lon="13.692512420835083"><ele>1050.2</ele><time>2026-05-02T12:25:37Z</time></trkpt><trkpt lat="42.047595563361575" lon="13.692438973490184"><ele>1047.4</ele><time>2026-05-02T12:25:38Z</time></trkpt><trkpt lat="42.047518699115095" lon="13.692367579635437"><ele>1044.6000000000001</ele><time>2026-05-02T12:25:39Z</time></trkpt><trkpt lat="42.04744705809784" lon="13.69229400987755"><ele>1041.8</ele><time>2026-05-02T12:25:40Z</time></trkpt><trkpt lat="42.047379547868914" lon="13.692223624756705"><ele>1039.0</ele><time>2026-05-02T12:25:41Z</time></trkpt><trkpt lat="42.04730796603933" lon="13.692146053161203"><ele>1039.0</ele><time>2026-05-02T12:25:42Z</time></trkpt><trkpt lat="42.04724728940356" lon="13.69208312575559"><ele>1039.0</ele><time>2026-05-02T12:25:43Z</time></trkpt><trkpt lat="42.047178632065936" lon="13.692028451440581"><ele>1039.0</ele><time>2026-05-02T12:25:44Z</time></trkpt><trkpt lat="42.04710951533579" lon="13.691966896783459"><ele>1039.0</ele><time>2026-05-02T12:25:45Z</time></trkpt><trkpt lat="42.04703591459752" lon="13.691912794551271"><ele>1039.0</ele><time>2026-05-02T12:25:46Z</time></trkpt><trkpt lat="42.04695857557508" lon="13.691854157783226"><ele>1039.0</ele><time>2026-05-02T12:25:47Z</time></trkpt><trkpt lat="42.046882151301766" lon="13.691792197637762"><ele>1036.3333333333333</ele><time>2026-05-02T12:25:48Z</time></trkpt><trkpt lat="42.046802780880675" lon="13.691732569464879"><ele>1033.6666666666665</ele><time>2026-05-02T12:25:49Z</time></trkpt><trkpt lat="42.046725477816445" lon="13.691677384199924"><ele>1031.0</ele><time>2026-05-02T12:25:50Z</time></trkpt><trkpt lat="42.046654786212116" lon="13.691624170744694"><ele>1028.3333333333333</ele><time>2026-05-02T12:25:51Z</time></trkpt><trkpt lat="42.046585743077806" lon="13.691569940181331"><ele>1025.6666666666667</ele><time>2026-05-02T12:25:52Z</time></trkpt><trkpt lat="42.046516521424614" lon="13.691519300236676"><ele>1023.0</ele><time>2026-05-02T12:25:52.999Z</time></trkpt><trkpt lat="42.04644202871086" lon="13.691459556359105"><ele>1023.0</ele><time>2026-05-02T12:25:53.999Z</time></trkpt><trkpt lat="42.04637147958898" lon="13.691405960269943"><ele>1023.0</ele><time>2026-05-02T12:25:54.999Z</time></trkpt><trkpt lat="42.046308743903076" lon="13.691360590955073"><ele>1023.0</ele><time>2026-05-02T12:25:55.999Z</time></trkpt><trkpt lat="42.04624019137177" lon="13.691308915371094"><ele>1023.0</ele><time>2026-05-02T12:25:56.999Z</time></trkpt><trkpt lat="42.04616878207369" lon="13.691249530609152"><ele>1023.0</ele><time>2026-05-02T12:25:57.999Z</time></trkpt><trkpt lat="42.046091852611966" lon="13.691180438421968"><ele>1023.0</ele><time>2026-05-02T12:25:58.999Z</time></trkpt><trkpt lat="42.046020691731385" lon="13.691110659610809"><ele>1022.0</ele><time>2026-05-02T12:25:59.999Z</time></trkpt><trkpt lat="42.04594672435699" lon="13.69103181901973"><ele>1021.0</ele><time>2026-05-02T12:26:00.999Z</time></trkpt><trkpt lat="42.04588693614825" lon="13.690954407469686"><ele>1020.0</ele><time>2026-05-02T12:26:01.999Z</time></trkpt><trkpt lat="42.04581931551396" lon="13.690887103237275"><ele>1019.0</ele><time>2026-05-02T12:26:02.999Z</time></trkpt><trkpt lat="42.04574627361313" lon="13.690815760980904"><ele>1018.0</ele><time>2026-05-02T12:26:03.999Z</time></trkpt><trkpt lat="42.04567664368997" lon="13.690738082582667"><ele>1017.0</ele><time>2026-05-02T12:26:04.999Z</time></trkpt><trkpt lat="42.045607764730256" lon="13.690663782161966"><ele>1017.0</ele><time>2026-05-02T12:26:05.999Z</time></trkpt><trkpt lat="42.04553698768998" lon="13.690584907066055"><ele>1017.0</ele><time>2026-05-02T12:26:06.999Z</time></trkpt><trkpt lat="42.04547944013884" lon="13.690509166956373"><ele>1017.0</ele><time>2026-05-02T12:26:07.999Z</time></trkpt><trkpt lat="42.045424998771445" lon="13.690420501889905"><ele>1017.0</ele><time>2026-05-02T12:26:08.999Z</time></trkpt><trkpt lat="42.04537259902121" lon="13.6903265706409"><ele>1017.0</ele><time>2026-05-02T12:26:09.999Z</time></trkpt><trkpt lat="42.04532441633841" lon="13.690225362777692"><ele>1017.0</ele><time>2026-05-02T12:26:10.999Z</time></trkpt><trkpt lat="42.045273985776916" lon="13.690121980966234"><ele>1014.8333333333334</ele><time>2026-05-02T12:26:11.999Z</time></trkpt><trkpt lat="42.04523290991342" lon="13.69002907629323"><ele>1012.6666666666667</ele><time>2026-05-02T12:26:12.999Z</time></trkpt><trkpt lat="42.04518394926762" lon="13.689931060490043"><ele>1010.5</ele><time>2026-05-02T12:26:13.999Z</time></trkpt><trkpt lat="42.045126881286514" lon="13.689819347826045"><ele>1008.3333333333334</ele><time>2026-05-02T12:26:14.999Z</time></trkpt><trkpt lat="42.04507266073459" lon="13.689703014992107"><ele>1006.1666666666667</ele><time>2026-05-02T12:26:15.999Z</time></trkpt><trkpt lat="42.04503773047401" lon="13.689610203381125"><ele>1004.0</ele><time>2026-05-02T12:26:16.999Z</time></trkpt><trkpt lat="42.0449989735871" lon="13.689511597308258"><ele>1007.2</ele><time>2026-05-02T12:26:17.999Z</time></trkpt><trkpt lat="42.044953636745795" lon="13.689380938839443"><ele>1010.4000000000001</ele><time>2026-05-02T12:26:18.999Z</time></trkpt><trkpt lat="42.044918582059104" lon="13.689253190025196"><ele>1013.6</ele><time>2026-05-02T12:26:19.999Z</time></trkpt><trkpt lat="42.04489158672258" lon="13.6891334232052"><ele>1016.8</ele><time>2026-05-02T12:26:20.999Z</time></trkpt><trkpt lat="42.04484548284945" lon="13.689018907449388"><ele>1020.0</ele><time>2026-05-02T12:26:21.999Z</time></trkpt><trkpt lat="42.044796432468296" lon="13.688898005156963"><ele>1020.0</ele><time>2026-05-02T12:26:22.999Z</time></trkpt><trkpt lat="42.04475924295536" lon="13.688793899053469"><ele>1020.0</ele><time>2026-05-02T12:26:23.999Z</time></trkpt><trkpt lat="42.0447170452804" lon="13.688692438945944"><ele>1020.0</ele><time>2026-05-02T12:26:24.999Z</time></trkpt><trkpt lat="42.04467348966145" lon="13.688599311126266"><ele>1020.0</ele><time>2026-05-02T12:26:25.999Z</time></trkpt><trkpt lat="42.04462788241274" lon="13.688496137976587"><ele>1020.0</ele><time>2026-05-02T12:26:26.999Z</time></trkpt><trkpt lat="42.04458412676176" lon="13.688384933892198"><ele>1020.0</ele><time>2026-05-02T12:26:27.999Z</time></trkpt><trkpt lat="42.04455182170768" lon="13.688277403421807"><ele>1016.3333333333334</ele><time>2026-05-02T12:26:28.999Z</time></trkpt><trkpt lat="42.04451344899861" lon="13.68818155226371"><ele>1012.6666666666667</ele><time>2026-05-02T12:26:29.999Z</time></trkpt><trkpt lat="42.044466426383174" lon="13.68809305170888"><ele>1009.0</ele><time>2026-05-02T12:26:30.999Z</time></trkpt><trkpt lat="42.04441693954" lon="13.688015896170654"><ele>1005.3333333333334</ele><time>2026-05-02T12:26:31.999Z</time></trkpt><trkpt lat="42.04436759030537" lon="13.687929909332981"><ele>1001.6666666666667</ele><time>2026-05-02T12:26:32.999Z</time></trkpt><trkpt lat="42.04431241184068" lon="13.687849304718346"><ele>998.0</ele><time>2026-05-02T12:26:33.999Z</time></trkpt><trkpt lat="42.04426066711532" lon="13.687771835275004"><ele>997.6666666666667</ele><time>2026-05-02T12:26:34.999Z</time></trkpt><trkpt lat="42.04421979152308" lon="13.687700333009786"><ele>997.3333333333334</ele><time>2026-05-02T12:26:35.999Z</time></trkpt><trkpt lat="42.04419652088842" lon="13.68761789353848"><ele>997.0</ele><time>2026-05-02T12:26:36.999Z</time></trkpt><trkpt lat="42.04416507557502" lon="13.68752649830093"><ele>996.6666666666667</ele><time>2026-05-02T12:26:37.999Z</time></trkpt><trkpt lat="42.04411440788989" lon="13.687397225429502"><ele>996.3333333333334</ele><time>2026-05-02T12:26:39.999Z</time></trkpt><trkpt lat="42.04406354635964" lon="13.687309167263631"><ele>996.0</ele><time>2026-05-02T12:26:41.999Z</time></trkpt><trkpt lat="42.044013055622166" lon="13.687227704016628"><ele>996.0</ele><time>2026-05-02T12:26:43.999Z</time></trkpt><trkpt lat="42.04396070149119" lon="13.687140589703917"><ele>995.9999999999999</ele><time>2026-05-02T12:26:45.999Z</time></trkpt><trkpt lat="42.04391955279433" lon="13.687069687265215"><ele>996.0</ele><time>2026-05-02T12:26:47.999Z</time></trkpt><trkpt lat="42.04387102376755" lon="13.687010064208025"><ele>996.0</ele><time>2026-05-02T12:26:49.999Z</time></trkpt><trkpt lat="42.04382786086736" lon="13.686948142519451"><ele>995.9999999999999</ele><time>2026-05-02T12:26:52Z</time></trkpt><trkpt lat="42.04377843229488" lon="13.686869230579983"><ele>996.0</ele><time>2026-05-02T12:26:56Z</time></trkpt><trkpt lat="42.04371650959859" lon="13.686802218019375"><ele>996.0</ele><time>2026-05-02T12:27:00Z</time></trkpt><trkpt lat="42.04367419396904" lon="13.686705227994464"><ele>992.0</ele><time>2026-05-02T12:27:04Z</time></trkpt><trkpt lat="42.04361936721297" lon="13.686654972499257"><ele>988.0</ele><time>2026-05-02T12:29:16Z</time></trkpt><trkpt lat="42.043577009598124" lon="13.686582031818359"><ele>984.0</ele><time>2026-05-02T12:29:21Z</time></trkpt><trkpt lat="42.043533917328645" lon="13.686484682114262"><ele>980.0</ele><time>2026-05-02T12:29:24Z</time></trkpt><trkpt lat="42.04350960346599" lon="13.686403850712242"><ele>976.0</ele><time>2026-05-02T12:29:26Z</time></trkpt><trkpt lat="42.043472804513826" lon="13.686283879717088"><ele>972.0</ele><time>2026-05-02T12:29:28Z</time></trkpt><trkpt lat="42.04342041059034" lon="13.68615713817183"><ele>973.0</ele><time>2026-05-02T12:29:30Z</time></trkpt><trkpt lat="42.043385108066275" lon="13.686040888508582"><ele>974.0</ele><time>2026-05-02T12:29:32Z</time></trkpt><trkpt lat="42.043348665103814" lon="13.685944002986945"><ele>975.0</ele><time>2026-05-02T12:29:34Z</time></trkpt><trkpt lat="42.04330031512809" lon="13.685858213925252"><ele>976.0</ele><time>2026-05-02T12:29:36Z</time></trkpt><trkpt lat="42.04325550086754" lon="13.68577255633799"><ele>977.0</ele><time>2026-05-02T12:29:38Z</time></trkpt><trkpt lat="42.04321246416019" lon="13.6856933119758"><ele>978.0</ele><time>2026-05-02T12:29:40Z</time></trkpt><trkpt lat="42.04315737046081" lon="13.685616376561212"><ele>978.0</ele><time>2026-05-02T12:29:42Z</time></trkpt><trkpt lat="42.04310855166546" lon="13.685543305904055"><ele>978.0000000000001</ele><time>2026-05-02T12:29:44Z</time></trkpt><trkpt lat="42.04309793337329" lon="13.68544330445503"><ele>978.0</ele><time>2026-05-02T12:29:46Z</time></trkpt><trkpt lat="42.04304630931712" lon="13.685377616991135"><ele>978.0</ele><time>2026-05-02T12:29:48Z</time></trkpt><trkpt lat="42.04299499419414" lon="13.685326737902837"><ele>978.0000000000001</ele><time>2026-05-02T12:29:50Z</time></trkpt><trkpt lat="42.04294839532855" lon="13.685262353320446"><ele>978.0</ele><time>2026-05-02T12:29:52Z</time></trkpt><trkpt lat="42.04290968475469" lon="13.68518678784768"><ele>978.0</ele><time>2026-05-02T12:29:54Z</time></trkpt><trkpt lat="42.04286598016043" lon="13.685104480695971"><ele>974.0</ele><time>2026-05-02T12:29:56Z</time></trkpt><trkpt lat="42.042821311687185" lon="13.685019479850839"><ele>970.0000000000001</ele><time>2026-05-02T12:29:58Z</time></trkpt><trkpt lat="42.042778770605906" lon="13.68493836232402"><ele>966.0</ele><time>2026-05-02T12:30:00Z</time></trkpt><trkpt lat="42.04274638920072" lon="13.68486251974322"><ele>962.0</ele><time>2026-05-02T12:30:02Z</time></trkpt><trkpt lat="42.042709850692326" lon="13.684783139600427"><ele>958.0000000000001</ele><time>2026-05-02T12:30:04Z</time></trkpt><trkpt lat="42.04267053627397" lon="13.684697335161369"><ele>954.0</ele><time>2026-05-02T12:30:06Z</time></trkpt><trkpt lat="42.042618357550865" lon="13.684626339534473"><ele>950.0</ele><time>2026-05-02T12:30:08Z</time></trkpt><trkpt lat="42.04255899601363" lon="13.684549326786161"><ele>950.0</ele><time>2026-05-02T12:30:10Z</time></trkpt><trkpt lat="42.042488038796705" lon="13.68447424912005"><ele>950.0</ele><time>2026-05-02T12:30:12Z</time></trkpt><trkpt lat="42.0424203853776" lon="13.684371249905274"><ele>950.0</ele><time>2026-05-02T12:30:14Z</time></trkpt><trkpt lat="42.042364411306025" lon="13.68426303911085"><ele>950.0</ele><time>2026-05-02T12:30:16Z</time></trkpt><trkpt lat="42.04228884694938" lon="13.684154584720874"><ele>950.0</ele><time>2026-05-02T12:30:18Z</time></trkpt><trkpt lat="42.04224142019255" lon="13.684096464637905"><ele>948.5000000000001</ele><time>2026-05-02T12:30:19Z</time></trkpt><trkpt lat="42.04216998927033" lon="13.683999164156333"><ele>947.0</ele><time>2026-05-02T12:30:21Z</time></trkpt><trkpt lat="42.04212511546031" lon="13.683920732463553"><ele>945.5</ele><time>2026-05-02T12:30:22.999Z</time></trkpt><trkpt lat="42.042043832241966" lon="13.683835818752062"><ele>944.0</ele><time>2026-05-02T12:30:25.999Z</time></trkpt><trkpt lat="42.04200050832785" lon="13.68375621746938"><ele>942.5000000000001</ele><time>2026-05-02T12:30:27.999Z</time></trkpt><trkpt lat="42.041951737594516" lon="13.683681337628624"><ele>941.0</ele><time>2026-05-02T12:30:29.999Z</time></trkpt><trkpt lat="42.04190638962654" lon="13.683594146948499"><ele>938.8333333333334</ele><time>2026-05-02T12:30:31.999Z</time></trkpt><trkpt lat="42.04185469728761" lon="13.683507510707502"><ele>936.6666666666667</ele><time>2026-05-02T12:30:33.999Z</time></trkpt><trkpt lat="42.041798371212614" lon="13.683421145328655"><ele>934.5</ele><time>2026-05-02T12:30:35.999Z</time></trkpt><trkpt lat="42.041738628028426" lon="13.683338168292641"><ele>932.3333333333333</ele><time>2026-05-02T12:30:37.999Z</time></trkpt><trkpt lat="42.041686959895976" lon="13.6832524303721"><ele>930.1666666666666</ele><time>2026-05-02T12:30:39.999Z</time></trkpt><trkpt lat="42.041626812198764" lon="13.683147770512141"><ele>928.0</ele><time>2026-05-02T12:30:41.999Z</time></trkpt><trkpt lat="42.041553808497596" lon="13.683019173092482"><ele>927.9999999999999</ele><time>2026-05-02T12:30:43.999Z</time></trkpt><trkpt lat="42.04151368295363" lon="13.682949886497918"><ele>928.0</ele><time>2026-05-02T12:30:44.999Z</time></trkpt><trkpt lat="42.041470187283096" lon="13.682879729537861"><ele>928.0</ele><time>2026-05-02T12:30:45.999Z</time></trkpt><trkpt lat="42.041428015977154" lon="13.682810736735856"><ele>928.0</ele><time>2026-05-02T12:30:46.999Z</time></trkpt><trkpt lat="42.04135008252825" lon="13.682682524792574"><ele>927.9999999999999</ele><time>2026-05-02T12:30:48.999Z</time></trkpt><trkpt lat="42.04130696332435" lon="13.682609792534052"><ele>928.0</ele><time>2026-05-02T12:30:49.999Z</time></trkpt><trkpt lat="42.041262220056325" lon="13.68254002509436"><ele>923.0</ele><time>2026-05-02T12:30:50.999Z</time></trkpt><trkpt lat="42.041221393205056" lon="13.682467198171574"><ele>918.0</ele><time>2026-05-02T12:30:51.999Z</time></trkpt><trkpt lat="42.041166713488934" lon="13.68231983774606"><ele>913.0</ele><time>2026-05-02T12:30:53.999Z</time></trkpt><trkpt lat="42.0411074202508" lon="13.682193125523291"><ele>908.0</ele><time>2026-05-02T12:30:55.999Z</time></trkpt><trkpt lat="42.04106309997088" lon="13.682121925477174"><ele>903.0</ele><time>2026-05-02T12:30:56.999Z</time></trkpt><trkpt lat="42.04100777850607" lon="13.682039999594332"><ele>903.0</ele><time>2026-05-02T12:30:57.999Z</time></trkpt><trkpt lat="42.04095320645691" lon="13.681967191574705"><ele>903.0</ele><time>2026-05-02T12:30:58.999Z</time></trkpt><trkpt lat="42.0409012947058" lon="13.681890323565755"><ele>903.0</ele><time>2026-05-02T12:30:59.999Z</time></trkpt><trkpt lat="42.04084876280573" lon="13.681816463754123"><ele>903.0</ele><time>2026-05-02T12:31:00.999Z</time></trkpt><trkpt lat="42.04078791126561" lon="13.681733675709703"><ele>903.0</ele><time>2026-05-02T12:31:01.999Z</time></trkpt><trkpt lat="42.04073066964278" lon="13.68165462565356"><ele>903.0</ele><time>2026-05-02T12:31:02.999Z</time></trkpt><trkpt lat="42.040670061204736" lon="13.681570130510435"><ele>902.0</ele><time>2026-05-02T12:31:04Z</time></trkpt><trkpt lat="42.040615085164" lon="13.681479610761432"><ele>901.0</ele><time>2026-05-02T12:31:05Z</time></trkpt><trkpt lat="42.04056670649732" lon="13.681393499991444"><ele>900.0</ele><time>2026-05-02T12:31:06Z</time></trkpt><trkpt lat="42.0405117910909" lon="13.681306791976004"><ele>899.0</ele><time>2026-05-02T12:31:07Z</time></trkpt><trkpt lat="42.04045015181603" lon="13.681228841810748"><ele>898.0</ele><time>2026-05-02T12:31:08Z</time></trkpt><trkpt lat="42.04037825175295" lon="13.681135198396138"><ele>897.0</ele><time>2026-05-02T12:31:09Z</time></trkpt><trkpt lat="42.04032439017101" lon="13.68105090098109"><ele>894.3333333333334</ele><time>2026-05-02T12:31:10Z</time></trkpt><trkpt lat="42.040266586981" lon="13.680965886518015"><ele>891.6666666666667</ele><time>2026-05-02T12:31:11Z</time></trkpt><trkpt lat="42.04021152968758" lon="13.68086857669187"><ele>889.0</ele><time>2026-05-02T12:31:12Z</time></trkpt><trkpt lat="42.04015918013078" lon="13.680773735954126"><ele>886.3333333333334</ele><time>2026-05-02T12:31:13Z</time></trkpt><trkpt lat="42.04010076854844" lon="13.680673351982616"><ele>883.6666666666667</ele><time>2026-05-02T12:31:14Z</time></trkpt><trkpt lat="42.040053818125216" lon="13.680578983695325"><ele>881.0</ele><time>2026-05-02T12:31:15Z</time></trkpt><trkpt lat="42.04001529187996" lon="13.680497291513303"><ele>881.0</ele><time>2026-05-02T12:31:16Z</time></trkpt><trkpt lat="42.03998108933838" lon="13.680421360706239"><ele>881.0</ele><time>2026-05-02T12:31:17Z</time></trkpt><trkpt lat="42.039945414202315" lon="13.680350076254095"><ele>881.0</ele><time>2026-05-02T12:31:18Z</time></trkpt><trkpt lat="42.03990602064483" lon="13.680281026115303"><ele>881.0</ele><time>2026-05-02T12:31:19Z</time></trkpt><trkpt lat="42.039864780784384" lon="13.680211798453755"><ele>881.0</ele><time>2026-05-02T12:31:20Z</time></trkpt><trkpt lat="42.03981990267582" lon="13.680144598425363"><ele>881.0</ele><time>2026-05-02T12:31:21Z</time></trkpt><trkpt lat="42.039778069267705" lon="13.680071584095382"><ele>881.0</ele><time>2026-05-02T12:31:22Z</time></trkpt><trkpt lat="42.03969502362082" lon="13.67992939951348"><ele>881.7142857142857</ele><time>2026-05-02T12:31:24Z</time></trkpt><trkpt lat="42.03964369800218" lon="13.679844332687644"><ele>882.4285714285714</ele><time>2026-05-02T12:31:25Z</time></trkpt><trkpt lat="42.03959793807" lon="13.679760081546089"><ele>883.1428571428571</ele><time>2026-05-02T12:31:26Z</time></trkpt><trkpt lat="42.03955621595198" lon="13.679680232717843"><ele>883.8571428571429</ele><time>2026-05-02T12:31:27Z</time></trkpt><trkpt lat="42.03951470845355" lon="13.679597684303653"><ele>884.5714285714287</ele><time>2026-05-02T12:31:28Z</time></trkpt><trkpt lat="42.039472823468515" lon="13.679517346777416"><ele>885.2857142857143</ele><time>2026-05-02T12:31:29Z</time></trkpt><trkpt lat="42.039430826782" lon="13.679440071312607"><ele>886.0</ele><time>2026-05-02T12:31:30Z</time></trkpt><trkpt lat="42.039390044289455" lon="13.679362885474532"><ele>886.4285714285714</ele><time>2026-05-02T12:31:31Z</time></trkpt><trkpt lat="42.03935120334596" lon="13.679293279270787"><ele>886.8571428571429</ele><time>2026-05-02T12:31:32Z</time></trkpt><trkpt lat="42.03931657312325" lon="13.679221575659282"><ele>887.2857142857142</ele><time>2026-05-02T12:31:33Z</time></trkpt><trkpt lat="42.03928164888349" lon="13.679135155115217"><ele>887.7142857142858</ele><time>2026-05-02T12:31:34Z</time></trkpt><trkpt lat="42.03924412512846" lon="13.679056010388416"><ele>888.1428571428571</ele><time>2026-05-02T12:31:35Z</time></trkpt><trkpt lat="42.03919696214035" lon="13.678983905921614"><ele>888.5714285714286</ele><time>2026-05-02T12:31:36Z</time></trkpt><trkpt lat="42.03915301295614" lon="13.678908499938569"><ele>889.0</ele><time>2026-05-02T12:31:37Z</time></trkpt><trkpt lat="42.03911256977248" lon="13.678828331485603"><ele>888.9999999999999</ele><time>2026-05-02T12:31:38Z</time></trkpt><trkpt lat="42.039064900128174" lon="13.67874067946357"><ele>889.0</ele><time>2026-05-02T12:31:39Z</time></trkpt><trkpt lat="42.03901073377416" lon="13.678646450704266"><ele>889.0</ele><time>2026-05-02T12:31:40Z</time></trkpt><trkpt lat="42.03895572921191" lon="13.678548110666663"><ele>889.0</ele><time>2026-05-02T12:31:41Z</time></trkpt><trkpt lat="42.03890399421697" lon="13.678453997595845"><ele>888.9999999999999</ele><time>2026-05-02T12:31:42Z</time></trkpt><trkpt lat="42.038854162774754" lon="13.678362054906238"><ele>889.0</ele><time>2026-05-02T12:31:43Z</time></trkpt><trkpt lat="42.0388021577068" lon="13.678271963847257"><ele>886.1666666666666</ele><time>2026-05-02T12:31:44Z</time></trkpt><trkpt lat="42.038747564678054" lon="13.678179610879795"><ele>883.3333333333333</ele><time>2026-05-02T12:31:45Z</time></trkpt><trkpt lat="42.038690096871804" lon="13.678087020477868"><ele>880.5</ele><time>2026-05-02T12:31:46Z</time></trkpt><trkpt lat="42.03862872561922" lon="13.677996307112974"><ele>877.6666666666667</ele><time>2026-05-02T12:31:47Z</time></trkpt><trkpt lat="42.03857196335277" lon="13.67790992616201"><ele>874.8333333333334</ele><time>2026-05-02T12:31:48Z</time></trkpt><trkpt lat="42.03852243883482" lon="13.677825031014434"><ele>872.0</ele><time>2026-05-02T12:31:49Z</time></trkpt><trkpt lat="42.03847197781391" lon="13.677741371574923"><ele>870.3333333333334</ele><time>2026-05-02T12:31:50Z</time></trkpt><trkpt lat="42.03841135272545" lon="13.677645990141526"><ele>868.6666666666667</ele><time>2026-05-02T12:31:51Z</time></trkpt><trkpt lat="42.03835222551349" lon="13.677557937378609"><ele>867.0</ele><time>2026-05-02T12:31:52Z</time></trkpt><trkpt lat="42.03830129638111" lon="13.677472562089864"><ele>865.3333333333333</ele><time>2026-05-02T12:31:53Z</time></trkpt><trkpt lat="42.03824796154462" lon="13.67738263000177"><ele>863.6666666666666</ele><time>2026-05-02T12:31:54Z</time></trkpt><trkpt lat="42.038189346255216" lon="13.677292878517562"><ele>862.0</ele><time>2026-05-02T12:31:55Z</time></trkpt><trkpt lat="42.0381130768171" lon="13.677207626005364"><ele>862.0</ele><time>2026-05-02T12:31:56Z</time></trkpt><trkpt lat="42.03802958312112" lon="13.677124817458647"><ele>862.0</ele><time>2026-05-02T12:31:57Z</time></trkpt><trkpt lat="42.037952906509524" lon="13.677044532662462"><ele>862.0</ele><time>2026-05-02T12:31:58Z</time></trkpt><trkpt lat="42.0378868201112" lon="13.676960574493615"><ele>862.0</ele><time>2026-05-02T12:31:59Z</time></trkpt><trkpt lat="42.037823086857266" lon="13.676882263796479"><ele>862.0</ele><time>2026-05-02T12:32:00Z</time></trkpt><trkpt lat="42.03776151589179" lon="13.676801719075184"><ele>860.1428571428572</ele><time>2026-05-02T12:32:01Z</time></trkpt><trkpt lat="42.03769947685665" lon="13.67672679846841"><ele>858.2857142857142</ele><time>2026-05-02T12:32:02Z</time></trkpt><trkpt lat="42.037639621012445" lon="13.676648943647834"><ele>856.4285714285714</ele><time>2026-05-02T12:32:03Z</time></trkpt><trkpt lat="42.03759087625134" lon="13.676580562108384"><ele>854.5714285714287</ele><time>2026-05-02T12:32:04Z</time></trkpt><trkpt lat="42.03754487428585" lon="13.676506726176981"><ele>852.7142857142858</ele><time>2026-05-02T12:32:05Z</time></trkpt><trkpt lat="42.03748962411828" lon="13.676455016232023"><ele>850.8571428571429</ele><time>2026-05-02T12:32:06Z</time></trkpt><trkpt lat="42.03743429746369" lon="13.676410098254172"><ele>849.0</ele><time>2026-05-02T12:32:07Z</time></trkpt><trkpt lat="42.03738161789497" lon="13.676346244581893"><ele>849.0</ele><time>2026-05-02T12:32:08Z</time></trkpt><trkpt lat="42.03733482681443" lon="13.676251087441523"><ele>849.0</ele><time>2026-05-02T12:32:09Z</time></trkpt><trkpt lat="42.0373009574829" lon="13.676163785943725"><ele>849.0</ele><time>2026-05-02T12:32:10Z</time></trkpt><trkpt lat="42.03726209981621" lon="13.676080025524518"><ele>849.0</ele><time>2026-05-02T12:32:11Z</time></trkpt><trkpt lat="42.03719900345082" lon="13.676014607399281"><ele>849.0</ele><time>2026-05-02T12:32:12Z</time></trkpt><trkpt lat="42.03712715596083" lon="13.675962202304671"><ele>849.0</ele><time>2026-05-02T12:32:13Z</time></trkpt><trkpt lat="42.03706488953435" lon="13.675892634442786"><ele>847.2857142857143</ele><time>2026-05-02T12:32:14Z</time></trkpt><trkpt lat="42.03700929156925" lon="13.675831428308628"><ele>845.5714285714286</ele><time>2026-05-02T12:32:15Z</time></trkpt><trkpt lat="42.03693924310241" lon="13.675765447175586"><ele>843.8571428571429</ele><time>2026-05-02T12:32:16Z</time></trkpt><trkpt lat="42.03688054898357" lon="13.675709935160162"><ele>842.1428571428571</ele><time>2026-05-02T12:32:17Z</time></trkpt><trkpt lat="42.03682132837976" lon="13.675656835702268"><ele>840.4285714285714</ele><time>2026-05-02T12:32:18Z</time></trkpt><trkpt lat="42.03676065119998" lon="13.675603197089316"><ele>838.7142857142858</ele><time>2026-05-02T12:32:19Z</time></trkpt><trkpt lat="42.036701957223094" lon="13.67555452114274"><ele>837.0</ele><time>2026-05-02T12:32:20Z</time></trkpt><trkpt lat="42.036642818607376" lon="13.675508807389125"><ele>837.2</ele><time>2026-05-02T12:32:21Z</time></trkpt><trkpt lat="42.03653826839766" lon="13.675413078057991"><ele>837.4000000000001</ele><time>2026-05-02T12:32:22.999Z</time></trkpt><trkpt lat="42.03648194024173" lon="13.675368754554245"><ele>837.5999999999999</ele><time>2026-05-02T12:32:23.999Z</time></trkpt><trkpt lat="42.0363910106633" lon="13.675284743897619"><ele>837.8</ele><time>2026-05-02T12:32:25.999Z</time></trkpt><trkpt lat="42.03627743195279" lon="13.675236995306046"><ele>838.0</ele><time>2026-05-02T12:32:27.999Z</time></trkpt><trkpt lat="42.03621310604288" lon="13.675241993856968"><ele>837.9999999999999</ele><time>2026-05-02T12:32:28.999Z</time></trkpt><trkpt lat="42.03614825349635" lon="13.675255806332569"><ele>838.0</ele><time>2026-05-02T12:32:29.999Z</time></trkpt><trkpt lat="42.03606433951214" lon="13.67526963590774"><ele>838.0</ele><time>2026-05-02T12:32:30.999Z</time></trkpt><trkpt lat="42.035980540848286" lon="13.675271036251731"><ele>838.0</ele><time>2026-05-02T12:32:31.999Z</time></trkpt><trkpt lat="42.03591359591216" lon="13.675249985331503"><ele>837.9999999999999</ele><time>2026-05-02T12:32:32.999Z</time></trkpt><trkpt lat="42.03585194701102" lon="13.675228987506877"><ele>838.0</ele><time>2026-05-02T12:32:33.999Z</time></trkpt><trkpt lat="42.035724446661064" lon="13.675219290234537"><ele>835.5999999999999</ele><time>2026-05-02T12:32:35.999Z</time></trkpt><trkpt lat="42.03566125256361" lon="13.675203408487937"><ele>833.1999999999999</ele><time>2026-05-02T12:32:36.999Z</time></trkpt><trkpt lat="42.035561189952816" lon="13.675135089530276"><ele>830.8</ele><time>2026-05-02T12:32:38.999Z</time></trkpt><trkpt lat="42.035488345989" lon="13.675021401693634"><ele>828.4</ele><time>2026-05-02T12:32:40.999Z</time></trkpt><trkpt lat="42.03543745602231" lon="13.674933126356859"><ele>826.0</ele><time>2026-05-02T12:32:42.999Z</time></trkpt><trkpt lat="42.035373834413186" lon="13.67482763011388"><ele>825.9999999999999</ele><time>2026-05-02T12:32:44.999Z</time></trkpt><trkpt lat="42.03527004494477" lon="13.674740275901812"><ele>826.0</ele><time>2026-05-02T12:32:46.999Z</time></trkpt><trkpt lat="42.03520520692738" lon="13.674723261677288"><ele>826.0</ele><time>2026-05-02T12:32:47.999Z</time></trkpt><trkpt lat="42.03510242030041" lon="13.674711590197212"><ele>826.0</ele><time>2026-05-02T12:32:49.999Z</time></trkpt><trkpt lat="42.03503415856274" lon="13.67469220014776"><ele>825.9999999999999</ele><time>2026-05-02T12:32:51.999Z</time></trkpt><trkpt lat="42.03496705129468" lon="13.6746622269303"><ele>826.0</ele><time>2026-05-02T12:32:53.999Z</time></trkpt><trkpt lat="42.03489976250789" lon="13.674631146986982"><ele>824.1666666666666</ele><time>2026-05-02T12:32:55.999Z</time></trkpt><trkpt lat="42.034836916648935" lon="13.674588132666777"><ele>822.3333333333333</ele><time>2026-05-02T12:32:57.999Z</time></trkpt><trkpt lat="42.03478644950551" lon="13.674513902314345"><ele>820.5</ele><time>2026-05-02T12:32:59.999Z</time></trkpt><trkpt lat="42.034735537418314" lon="13.674437629709091"><ele>818.6666666666667</ele><time>2026-05-02T12:33:01.999Z</time></trkpt><trkpt lat="42.03472574604841" lon="13.67435007237861"><ele>816.8333333333334</ele><time>2026-05-02T12:33:03.999Z</time></trkpt><trkpt lat="42.034711522287516" lon="13.674218647204853"><ele>815.0</ele><time>2026-05-02T12:33:05.999Z</time></trkpt><trkpt lat="42.034698689493545" lon="13.674130801629273"><ele>815.1666666666667</ele><time>2026-05-02T12:33:06.999Z</time></trkpt><trkpt lat="42.03468885428899" lon="13.674034182486931"><ele>815.3333333333334</ele><time>2026-05-02T12:33:07.999Z</time></trkpt><trkpt lat="42.034672683269434" lon="13.67392791006239"><ele>815.5</ele><time>2026-05-02T12:33:08.999Z</time></trkpt><trkpt lat="42.034667136520994" lon="13.673839866877"><ele>815.6666666666667</ele><time>2026-05-02T12:33:10Z</time></trkpt><trkpt lat="42.03470677039275" lon="13.673684880322378"><ele>815.8333333333334</ele><time>2026-05-02T12:33:12Z</time></trkpt><trkpt lat="42.03474141897379" lon="13.67359666169824"><ele>816.0</ele><time>2026-05-02T12:33:13Z</time></trkpt><trkpt lat="42.03479591460036" lon="13.673439609918342"><ele>816.0</ele><time>2026-05-02T12:33:15Z</time></trkpt><trkpt lat="42.03482263086033" lon="13.673342547498164"><ele>816.0</ele><time>2026-05-02T12:33:16Z</time></trkpt><trkpt lat="42.034846962610104" lon="13.673256064743198"><ele>816.0</ele><time>2026-05-02T12:33:17Z</time></trkpt><trkpt lat="42.03487037423881" lon="13.673146866043266"><ele>816.0</ele><time>2026-05-02T12:33:18Z</time></trkpt><trkpt lat="42.034901672249376" lon="13.67303145713193"><ele>816.0</ele><time>2026-05-02T12:33:19Z</time></trkpt><trkpt lat="42.034940353753356" lon="13.67292195966109"><ele>816.0</ele><time>2026-05-02T12:33:20Z</time></trkpt><trkpt lat="42.034983992066856" lon="13.672819629410567"><ele>818.3333333333334</ele><time>2026-05-02T12:33:21Z</time></trkpt><trkpt lat="42.035030754427076" lon="13.672713957369933"><ele>820.6666666666667</ele><time>2026-05-02T12:33:22Z</time></trkpt><trkpt lat="42.03507817648034" lon="13.672609990105105"><ele>823.0</ele><time>2026-05-02T12:33:23Z</time></trkpt><trkpt lat="42.03511675777633" lon="13.672524489562278"><ele>825.3333333333334</ele><time>2026-05-02T12:33:24Z</time></trkpt><trkpt lat="42.03514882479998" lon="13.672422501728407"><ele>827.6666666666667</ele><time>2026-05-02T12:33:25Z</time></trkpt><trkpt lat="42.03518995213506" lon="13.672320755093546"><ele>830.0</ele><time>2026-05-02T12:33:26Z</time></trkpt><trkpt lat="42.03523563819443" lon="13.672219216692103"><ele>830.0000000000001</ele><time>2026-05-02T12:33:27Z</time></trkpt><trkpt lat="42.03527321177063" lon="13.672132049730806"><ele>830.0</ele><time>2026-05-02T12:33:28Z</time></trkpt><trkpt lat="42.03530823701882" lon="13.67204033980895"><ele>830.0</ele><time>2026-05-02T12:33:29Z</time></trkpt><trkpt lat="42.03533519177873" lon="13.671936808704046"><ele>830.0</ele><time>2026-05-02T12:33:30Z</time></trkpt><trkpt lat="42.03535157820685" lon="13.671830087225914"><ele>830.0000000000001</ele><time>2026-05-02T12:33:31Z</time></trkpt><trkpt lat="42.03537184992215" lon="13.671738658121344"><ele>830.0</ele><time>2026-05-02T12:33:32Z</time></trkpt><trkpt lat="42.03539631925899" lon="13.671636207344733"><ele>831.0</ele><time>2026-05-02T12:33:33Z</time></trkpt><trkpt lat="42.035423828129396" lon="13.671528082791367"><ele>832.0</ele><time>2026-05-02T12:33:34Z</time></trkpt><trkpt lat="42.03545180296413" lon="13.671413856016425"><ele>833.0</ele><time>2026-05-02T12:33:35Z</time></trkpt><trkpt lat="42.03548079557739" lon="13.671297601803287"><ele>834.0</ele><time>2026-05-02T12:33:36Z</time></trkpt><trkpt lat="42.03551262020178" lon="13.671181081609467"><ele>835.0</ele><time>2026-05-02T12:33:37Z</time></trkpt><trkpt lat="42.03553577679822" lon="13.671048532774018"><ele>836.2</ele><time>2026-05-02T12:33:38Z</time></trkpt><trkpt lat="42.035561680678086" lon="13.670915831420752"><ele>837.4</ele><time>2026-05-02T12:33:39Z</time></trkpt><trkpt lat="42.03557810208699" lon="13.670781178459329"><ele>838.5999999999999</ele><time>2026-05-02T12:33:40Z</time></trkpt><trkpt lat="42.035590080823944" lon="13.670636652390996"><ele>839.8</ele><time>2026-05-02T12:33:41Z</time></trkpt><trkpt lat="42.035570300512255" lon="13.670457858202157"><ele>841.0</ele><time>2026-05-02T12:33:42Z</time></trkpt><trkpt lat="42.03553361697108" lon="13.670284202461648"><ele>841.5</ele><time>2026-05-02T12:33:43Z</time></trkpt><trkpt lat="42.035479722840336" lon="13.670098998845011"><ele>842.0</ele><time>2026-05-02T12:33:44Z</time></trkpt><trkpt lat="42.035634795530925" lon="13.67013982733758"><ele>842.5</ele><time>2026-05-02T12:33:45Z</time></trkpt><trkpt lat="42.03563399127416" lon="13.670019761260143"><ele>843.0</ele><time>2026-05-02T12:33:46Z</time></trkpt><trkpt lat="42.03562563678981" lon="13.669895154682314"><ele>843.0</ele><time>2026-05-02T12:33:47Z</time></trkpt><trkpt lat="42.0356060273147" lon="13.669768374443505"><ele>843.0</ele><time>2026-05-02T12:33:48Z</time></trkpt><trkpt lat="42.0355759802083" lon="13.669646638333555"><ele>843.0</ele><time>2026-05-02T12:33:49Z</time></trkpt><trkpt lat="42.03555825461706" lon="13.669531334601047"><ele>843.0</ele><time>2026-05-02T12:33:50Z</time></trkpt><trkpt lat="42.03554967582348" lon="13.6694271261485"><ele>843.0</ele><time>2026-05-02T12:33:51Z</time></trkpt><trkpt lat="42.0355580954669" lon="13.66933342793643"><ele>843.0</ele><time>2026-05-02T12:33:52Z</time></trkpt><trkpt lat="42.03559326366218" lon="13.669252728231115"><ele>843.1666666666666</ele><time>2026-05-02T12:33:53Z</time></trkpt><trkpt lat="42.03564572059682" lon="13.669179250597173"><ele>843.3333333333333</ele><time>2026-05-02T12:33:54Z</time></trkpt><trkpt lat="42.035713500561116" lon="13.669112132700183"><ele>843.5</ele><time>2026-05-02T12:33:55Z</time></trkpt><trkpt lat="42.035784196969956" lon="13.669053984344535"><ele>843.6666666666666</ele><time>2026-05-02T12:33:56Z</time></trkpt><trkpt lat="42.03585435941253" lon="13.668984696372997"><ele>843.8333333333333</ele><time>2026-05-02T12:33:57Z</time></trkpt><trkpt lat="42.035927261339" lon="13.668911381123692"><ele>844.0</ele><time>2026-05-02T12:33:58Z</time></trkpt><trkpt lat="42.03599866815717" lon="13.668839114005392"><ele>843.8333333333333</ele><time>2026-05-02T12:33:59Z</time></trkpt><trkpt lat="42.0360700366542" lon="13.668771784493966"><ele>843.6666666666666</ele><time>2026-05-02T12:34:00Z</time></trkpt><trkpt lat="42.036145874608536" lon="13.66871697595566"><ele>843.5</ele><time>2026-05-02T12:34:01Z</time></trkpt><trkpt lat="42.036219763709354" lon="13.668676367275541"><ele>843.3333333333333</ele><time>2026-05-02T12:34:02Z</time></trkpt><trkpt lat="42.03628516521237" lon="13.668630245541147"><ele>843.1666666666666</ele><time>2026-05-02T12:34:03Z</time></trkpt><trkpt lat="42.03634341676698" lon="13.668567217905322"><ele>843.0</ele><time>2026-05-02T12:34:05Z</time></trkpt><trkpt lat="42.03642307914306" lon="13.668569342898051"><ele>842.5999999999999</ele><time>2026-05-02T12:34:08Z</time></trkpt><trkpt lat="42.036539073029395" lon="13.668628792292218"><ele>842.1999999999999</ele><time>2026-05-02T12:34:10Z</time></trkpt><trkpt lat="42.03662205469763" lon="13.66866133023508"><ele>841.8</ele><time>2026-05-02T12:34:11Z</time></trkpt><trkpt lat="42.03671668697836" lon="13.668700789178692"><ele>841.4</ele><time>2026-05-02T12:34:12Z</time></trkpt><trkpt lat="42.03681974437014" lon="13.668735102814113"><ele>841.0</ele><time>2026-05-02T12:34:13Z</time></trkpt><trkpt lat="42.03692092142833" lon="13.6687715117834"><ele>842.4999999999999</ele><time>2026-05-02T12:34:14Z</time></trkpt><trkpt lat="42.037008390520086" lon="13.668805389439726"><ele>844.0</ele><time>2026-05-02T12:34:15Z</time></trkpt><trkpt lat="42.03709486467142" lon="13.668829372313606"><ele>845.5</ele><time>2026-05-02T12:34:16Z</time></trkpt><trkpt lat="42.037165185971055" lon="13.668851368514682"><ele>847.0</ele><time>2026-05-02T12:34:17Z</time></trkpt><trkpt lat="42.03723237217172" lon="13.668794109749074"><ele>848.4999999999999</ele><time>2026-05-02T12:34:19.999Z</time></trkpt><trkpt lat="42.037250287753885" lon="13.668708517034243"><ele>850.0</ele><time>2026-05-02T12:34:21.999Z</time></trkpt><trkpt lat="42.03725811508554" lon="13.668598561416783"><ele>850.1666666666666</ele><time>2026-05-02T12:34:23.999Z</time></trkpt><trkpt lat="42.037281136350046" lon="13.668434163164116"><ele>850.3333333333333</ele><time>2026-05-02T12:34:25.999Z</time></trkpt><trkpt lat="42.037303205485856" lon="13.668344020968195"><ele>850.5</ele><time>2026-05-02T12:34:26.999Z</time></trkpt><trkpt lat="42.03732194572931" lon="13.668254907329393"><ele>850.6666666666667</ele><time>2026-05-02T12:34:27.999Z</time></trkpt><trkpt lat="42.037340462442096" lon="13.668151760731087"><ele>850.8333333333334</ele><time>2026-05-02T12:34:28.999Z</time></trkpt><trkpt lat="42.037363401639766" lon="13.668038620223006"><ele>851.0</ele><time>2026-05-02T12:34:29.999Z</time></trkpt><trkpt lat="42.03738692346591" lon="13.667918911380996"><ele>851.0000000000001</ele><time>2026-05-02T12:34:30.999Z</time></trkpt><trkpt lat="42.03741043721868" lon="13.667817707930737"><ele>851.0</ele><time>2026-05-02T12:34:31.999Z</time></trkpt><trkpt lat="42.03742814147049" lon="13.667706004438575"><ele>851.0</ele><time>2026-05-02T12:34:32.999Z</time></trkpt><trkpt lat="42.03744402822065" lon="13.667581546715306"><ele>851.0</ele><time>2026-05-02T12:34:33.999Z</time></trkpt><trkpt lat="42.037454548026034" lon="13.667469868226032"><ele>851.0000000000001</ele><time>2026-05-02T12:34:34.999Z</time></trkpt><trkpt lat="42.03745940818696" lon="13.667375774555943"><ele>851.0</ele><time>2026-05-02T12:34:35.999Z</time></trkpt><trkpt lat="42.037471912527714" lon="13.667279712041962"><ele>851.3333333333334</ele><time>2026-05-02T12:34:36.999Z</time></trkpt><trkpt lat="42.037486717420954" lon="13.667182239598022"><ele>851.6666666666667</ele><time>2026-05-02T12:34:37.999Z</time></trkpt><trkpt lat="42.03751208412058" lon="13.66709051899152"><ele>852.0</ele><time>2026-05-02T12:34:38.999Z</time></trkpt><trkpt lat="42.03754833354094" lon="13.666986584346896"><ele>852.3333333333333</ele><time>2026-05-02T12:34:39.999Z</time></trkpt><trkpt lat="42.03759761582403" lon="13.666877699322026"><ele>852.6666666666666</ele><time>2026-05-02T12:34:40.999Z</time></trkpt><trkpt lat="42.03765115696843" lon="13.666782197560755"><ele>853.0</ele><time>2026-05-02T12:34:41.999Z</time></trkpt><trkpt lat="42.037706371041565" lon="13.666694543064692"><ele>853.0</ele><time>2026-05-02T12:34:42.999Z</time></trkpt><trkpt lat="42.037761934274506" lon="13.666610370217168"><ele>853.0</ele><time>2026-05-02T12:34:43.999Z</time></trkpt><trkpt lat="42.03781062719534" lon="13.66650087284773"><ele>853.0</ele><time>2026-05-02T12:34:44.999Z</time></trkpt><trkpt lat="42.03785016254921" lon="13.666377156979552"><ele>853.0</ele><time>2026-05-02T12:34:45.999Z</time></trkpt><trkpt lat="42.037887022145036" lon="13.66623648310834"><ele>853.0</ele><time>2026-05-02T12:34:46.999Z</time></trkpt><trkpt lat="42.037923258751775" lon="13.666074619930297"><ele>853.0</ele><time>2026-05-02T12:34:47.999Z</time></trkpt><trkpt lat="42.03795408650995" lon="13.665905686380126"><ele>853.0</ele><time>2026-05-02T12:34:48.999Z</time></trkpt><trkpt lat="42.037982965820746" lon="13.665721929355295"><ele>853.0</ele><time>2026-05-02T12:34:49.999Z</time></trkpt><trkpt lat="42.03800276224234" lon="13.665537244420376"><ele>853.0</ele><time>2026-05-02T12:34:50.999Z</time></trkpt><trkpt lat="42.03799662530995" lon="13.665314250348302"><ele>853.25</ele><time>2026-05-02T12:34:51.999Z</time></trkpt><trkpt lat="42.03801896208537" lon="13.665132193370704"><ele>853.5</ele><time>2026-05-02T12:34:52.999Z</time></trkpt><trkpt lat="42.03801417950143" lon="13.664924446257642"><ele>853.75</ele><time>2026-05-02T12:34:53.999Z</time></trkpt><trkpt lat="42.03813408219142" lon="13.664801245784215"><ele>854.0</ele><time>2026-05-02T12:34:54.999Z</time></trkpt><trkpt lat="42.03818426056466" lon="13.664617925278696"><ele>854.5</ele><time>2026-05-02T12:34:55.999Z</time></trkpt><trkpt lat="42.03823338593451" lon="13.664432955137078"><ele>855.0</ele><time>2026-05-02T12:34:56.999Z</time></trkpt><trkpt lat="42.03827892279689" lon="13.664251105453642"><ele>855.5</ele><time>2026-05-02T12:34:57.999Z</time></trkpt><trkpt lat="42.038317405377164" lon="13.664074366115017"><ele>856.0</ele><time>2026-05-02T12:34:58.999Z</time></trkpt><trkpt lat="42.038345328552516" lon="13.663913995942151"><ele>856.0</ele><time>2026-05-02T12:34:59.999Z</time></trkpt><trkpt lat="42.03836856849927" lon="13.66375014698768"><ele>856.0</ele><time>2026-05-02T12:35:00.999Z</time></trkpt><trkpt lat="42.03839434941761" lon="13.663579207648585"><ele>856.0</ele><time>2026-05-02T12:35:01.999Z</time></trkpt><trkpt lat="42.03842360018156" lon="13.663402665175475"><ele>856.0</ele><time>2026-05-02T12:35:02.999Z</time></trkpt><trkpt lat="42.03845906945721" lon="13.663227690993185"><ele>856.25</ele><time>2026-05-02T12:35:03.999Z</time></trkpt><trkpt lat="42.03850316657899" lon="13.663063674196291"><ele>856.5</ele><time>2026-05-02T12:35:04.999Z</time></trkpt><trkpt lat="42.03855643276354" lon="13.662904485166232"><ele>856.75</ele><time>2026-05-02T12:35:05.999Z</time></trkpt><trkpt lat="42.03861583801809" lon="13.6627392402601"><ele>857.0</ele><time>2026-05-02T12:35:06.999Z</time></trkpt><trkpt lat="42.03867588878278" lon="13.662576799410125"><ele>857.75</ele><time>2026-05-02T12:35:07.999Z</time></trkpt><trkpt lat="42.038722025374646" lon="13.662422286614136"><ele>858.5</ele><time>2026-05-02T12:35:08.999Z</time></trkpt><trkpt lat="42.03876078031254" lon="13.662250103089477"><ele>859.25</ele><time>2026-05-02T12:35:09.999Z</time></trkpt><trkpt lat="42.038803251053274" lon="13.662065670171634"><ele>860.0</ele><time>2026-05-02T12:35:10.999Z</time></trkpt><trkpt lat="42.038848258031244" lon="13.661880364024936"><ele>860.75</ele><time>2026-05-02T12:35:11.999Z</time></trkpt><trkpt lat="42.038890835757435" lon="13.661712588369676"><ele>861.5</ele><time>2026-05-02T12:35:12.999Z</time></trkpt><trkpt lat="42.03893441696802" lon="13.661565326985217"><ele>862.25</ele><time>2026-05-02T12:35:13.999Z</time></trkpt><trkpt lat="42.038993615091144" lon="13.661413106923524"><ele>863.0</ele><time>2026-05-02T12:35:14.999Z</time></trkpt><trkpt lat="42.039057079410135" lon="13.66125638027924"><ele>861.6666666666667</ele><time>2026-05-02T12:35:16Z</time></trkpt><trkpt lat="42.03915799146724" lon="13.661112765491646"><ele>860.3333333333333</ele><time>2026-05-02T12:35:17Z</time></trkpt><trkpt lat="42.03923270945181" lon="13.66095388094168"><ele>859.0</ele><time>2026-05-02T12:35:18Z</time></trkpt><trkpt lat="42.03924565090895" lon="13.660725279430574"><ele>859.0</ele><time>2026-05-02T12:35:19Z</time></trkpt><trkpt lat="42.039270381915834" lon="13.660496239914838"><ele>859.0</ele><time>2026-05-02T12:35:20Z</time></trkpt><trkpt lat="42.039316932519945" lon="13.660301118284034"><ele>859.0</ele><time>2026-05-02T12:35:21Z</time></trkpt><trkpt lat="42.03940143682448" lon="13.660149997174374"><ele>859.0</ele><time>2026-05-02T12:35:22Z</time></trkpt><trkpt lat="42.03945352784617" lon="13.659967509471382"><ele>859.0</ele><time>2026-05-02T12:35:23Z</time></trkpt><trkpt lat="42.039503760112375" lon="13.659790634063883"><ele>859.0</ele><time>2026-05-02T12:35:24Z</time></trkpt><trkpt lat="42.03956676944093" lon="13.659630526209579"><ele>859.0</ele><time>2026-05-02T12:35:25Z</time></trkpt><trkpt lat="42.03966218718691" lon="13.65950030863211"><ele>859.25</ele><time>2026-05-02T12:35:26Z</time></trkpt><trkpt lat="42.03977024448969" lon="13.659381119267705"><ele>859.5</ele><time>2026-05-02T12:35:27Z</time></trkpt><trkpt lat="42.03973886033539" lon="13.659167084393335"><ele>859.75</ele><time>2026-05-02T12:35:28Z</time></trkpt><trkpt lat="42.0397993183395" lon="13.659027395955418"><ele>860.0</ele><time>2026-05-02T12:35:29Z</time></trkpt><trkpt lat="42.03986516527856" lon="13.658901873005863"><ele>860.0</ele><time>2026-05-02T12:35:30Z</time></trkpt><trkpt lat="42.03994049896196" lon="13.658781542896351"><ele>860.0</ele><time>2026-05-02T12:35:31Z</time></trkpt><trkpt lat="42.040028077703134" lon="13.658687355579895"><ele>860.0</ele><time>2026-05-02T12:35:32Z</time></trkpt><trkpt lat="42.04013192148885" lon="13.65859725790499"><ele>860.0</ele><time>2026-05-02T12:35:33Z</time></trkpt><trkpt lat="42.040245339242" lon="13.658515182849664"><ele>859.25</ele><time>2026-05-02T12:35:34Z</time></trkpt><trkpt lat="42.040365583715165" lon="13.658422934455427"><ele>858.5</ele><time>2026-05-02T12:35:35Z</time></trkpt><trkpt lat="42.040490721297466" lon="13.658330553804536"><ele>857.75</ele><time>2026-05-02T12:35:36Z</time></trkpt><trkpt lat="42.04061861253899" lon="13.658235140335968"><ele>857.0</ele><time>2026-05-02T12:35:37Z</time></trkpt><trkpt lat="42.040745169957155" lon="13.658141156715754"><ele>857.75</ele><time>2026-05-02T12:35:38Z</time></trkpt><trkpt lat="42.04087715688117" lon="13.658052962326122"><ele>858.5</ele><time>2026-05-02T12:35:39Z</time></trkpt><trkpt lat="42.041005203601756" lon="13.657972724422255"><ele>859.25</ele><time>2026-05-02T12:35:40Z</time></trkpt><trkpt lat="42.0411241540972" lon="13.657886437040174"><ele>860.0</ele><time>2026-05-02T12:35:41Z</time></trkpt><trkpt lat="42.041239310265155" lon="13.657805566474961"><ele>860.0</ele><time>2026-05-02T12:35:42Z</time></trkpt><trkpt lat="42.04135516235562" lon="13.657723361182768"><ele>860.0</ele><time>2026-05-02T12:35:43Z</time></trkpt><trkpt lat="42.04146909571633" lon="13.657639631435751"><ele>860.0</ele><time>2026-05-02T12:35:44Z</time></trkpt><trkpt lat="42.04157962322508" lon="13.657564839858145"><ele>860.0</ele><time>2026-05-02T12:35:45Z</time></trkpt><trkpt lat="42.04169659102383" lon="13.657510805854967"><ele>860.0</ele><time>2026-05-02T12:35:46Z</time></trkpt><trkpt lat="42.04181256224569" lon="13.657458633077566"><ele>860.0</ele><time>2026-05-02T12:35:47Z</time></trkpt><trkpt lat="42.04193015459219" lon="13.657406934776388"><ele>860.0</ele><time>2026-05-02T12:35:48Z</time></trkpt><trkpt lat="42.04204601822169" lon="13.657345000872306"><ele>860.0</ele><time>2026-05-02T12:35:49Z</time></trkpt><trkpt lat="42.04215657650836" lon="13.657278085778842"><ele>860.0000000000001</ele><time>2026-05-02T12:35:50Z</time></trkpt><trkpt lat="42.04224452337162" lon="13.657227310983698"><ele>860.0</ele><time>2026-05-02T12:35:51Z</time></trkpt><trkpt lat="42.04230277391013" lon="13.657195109904162"><ele>860.0</ele><time>2026-05-02T12:35:52Z</time></trkpt><trkpt lat="42.042378377093605" lon="13.657169318205293"><ele>860.0</ele><time>2026-05-02T12:35:54Z</time></trkpt><trkpt lat="42.04245158025724" lon="13.65720790762602"><ele>860.0000000000001</ele><time>2026-05-02T12:35:56Z</time></trkpt><trkpt lat="42.04249092351396" lon="13.657312592834458"><ele>860.0</ele><time>2026-05-02T12:35:58Z</time></trkpt><trkpt lat="42.042535203690576" lon="13.657471418346708"><ele>859.8</ele><time>2026-05-02T12:36:00Z</time></trkpt><trkpt lat="42.04257272938145" lon="13.657620434637257"><ele>859.6</ele><time>2026-05-02T12:36:02Z</time></trkpt><trkpt lat="42.042596032199235" lon="13.657747960122157"><ele>859.4000000000001</ele><time>2026-05-02T12:36:04Z</time></trkpt><trkpt lat="42.042623706742695" lon="13.657899595102599"><ele>859.2</ele><time>2026-05-02T12:36:06Z</time></trkpt><trkpt lat="42.04266479937986" lon="13.658049604487372"><ele>859.0</ele><time>2026-05-02T12:36:08Z</time></trkpt><trkpt lat="42.04269619006092" lon="13.658147989550558"><ele>858.9999999999999</ele><time>2026-05-02T12:36:10Z</time></trkpt><trkpt lat="42.042765202234264" lon="13.658180897188727"><ele>859.0</ele><time>2026-05-02T12:36:12Z</time></trkpt><trkpt lat="42.042857068375746" lon="13.658124542504929"><ele>859.0</ele><time>2026-05-02T12:36:14Z</time></trkpt><trkpt lat="42.04293359724777" lon="13.658068901349347"><ele>859.0</ele><time>2026-05-02T12:36:15Z</time></trkpt><trkpt lat="42.043007444883216" lon="13.658017820288407"><ele>858.9999999999999</ele><time>2026-05-02T12:36:16Z</time></trkpt><trkpt lat="42.04309073152576" lon="13.657968198995633"><ele>859.0</ele><time>2026-05-02T12:36:17Z</time></trkpt><trkpt lat="42.043175488135006" lon="13.65790903642633"><ele>858.9999999999999</ele><time>2026-05-02T12:36:18Z</time></trkpt><trkpt lat="42.04324842877338" lon="13.657865842838168"><ele>859.0</ele><time>2026-05-02T12:36:19Z</time></trkpt><trkpt lat="42.04332505840992" lon="13.657820944603264"><ele>859.0</ele><time>2026-05-02T12:36:20Z</time></trkpt><trkpt lat="42.04339745669967" lon="13.657782230286681"><ele>859.0</ele><time>2026-05-02T12:36:21Z</time></trkpt><trkpt lat="42.04349106084281" lon="13.65773649764953"><ele>858.9999999999999</ele><time>2026-05-02T12:36:22Z</time></trkpt><trkpt lat="42.04357348164856" lon="13.65768564655564"><ele>859.0</ele><time>2026-05-02T12:36:23Z</time></trkpt><trkpt lat="42.04365951523312" lon="13.657634408977186"><ele>858.8333333333333</ele><time>2026-05-02T12:36:23.999Z</time></trkpt><trkpt lat="42.043747965713386" lon="13.65759436073526"><ele>858.6666666666666</ele><time>2026-05-02T12:36:24.999Z</time></trkpt><trkpt lat="42.04383916271232" lon="13.657553568269499"><ele>858.5</ele><time>2026-05-02T12:36:25.999Z</time></trkpt><trkpt lat="42.04391506611763" lon="13.657517048781614"><ele>858.3333333333333</ele><time>2026-05-02T12:36:26.999Z</time></trkpt><trkpt lat="42.04399501740121" lon="13.657487275037976"><ele>858.1666666666666</ele><time>2026-05-02T12:36:27.999Z</time></trkpt><trkpt lat="42.044064688531066" lon="13.657489583107871"><ele>858.0</ele><time>2026-05-02T12:36:28.999Z</time></trkpt><trkpt lat="42.044137723431604" lon="13.657519853837721"><ele>858.5999999999999</ele><time>2026-05-02T12:36:29.999Z</time></trkpt><trkpt lat="42.044216433268076" lon="13.657554012442436"><ele>859.1999999999999</ele><time>2026-05-02T12:36:30.999Z</time></trkpt><trkpt lat="42.04430547863859" lon="13.657559349304393"><ele>859.8</ele><time>2026-05-02T12:36:31.999Z</time></trkpt><trkpt lat="42.04439704414471" lon="13.657530458149337"><ele>860.4</ele><time>2026-05-02T12:36:32.999Z</time></trkpt><trkpt lat="42.04448639350202" lon="13.657485661586495"><ele>861.0</ele><time>2026-05-02T12:36:33.999Z</time></trkpt><trkpt lat="42.04457909570998" lon="13.657440375351003"><ele>861.0</ele><time>2026-05-02T12:36:34.999Z</time></trkpt><trkpt lat="42.044662553622096" lon="13.65740443083155"><ele>861.0</ele><time>2026-05-02T12:36:35.999Z</time></trkpt><trkpt lat="42.04471998953337" lon="13.6573682191339"><ele>861.0</ele><time>2026-05-02T12:36:36.999Z</time></trkpt><trkpt lat="42.04478309096708" lon="13.657330762916603"><ele>861.0</ele><time>2026-05-02T12:36:37.999Z</time></trkpt><trkpt lat="42.04485489024032" lon="13.657305330652273"><ele>861.0</ele><time>2026-05-02T12:36:38.999Z</time></trkpt><trkpt lat="42.04492566183532" lon="13.657291488492628"><ele>861.0</ele><time>2026-05-02T12:36:39.999Z</time></trkpt><trkpt lat="42.045000200088154" lon="13.657282514980665"><ele>861.0</ele><time>2026-05-02T12:36:40.999Z</time></trkpt><trkpt lat="42.04507144080951" lon="13.657260375524604"><ele>861.4</ele><time>2026-05-02T12:36:41.999Z</time></trkpt><trkpt lat="42.04514058472075" lon="13.65723087075728"><ele>861.8</ele><time>2026-05-02T12:36:42.999Z</time></trkpt><trkpt lat="42.04527145894014" lon="13.6572216763243"><ele>862.1999999999999</ele><time>2026-05-02T12:36:44.999Z</time></trkpt><trkpt lat="42.04535859507019" lon="13.65722342844637"><ele>862.5999999999999</ele><time>2026-05-02T12:36:45.999Z</time></trkpt><trkpt lat="42.045450255089555" lon="13.657197887466417"><ele>863.0</ele><time>2026-05-02T12:36:46.999Z</time></trkpt><trkpt lat="42.04554754612322" lon="13.657162760251222"><ele>863.0</ele><time>2026-05-02T12:36:47.999Z</time></trkpt><trkpt lat="42.04564111676477" lon="13.657116639442513"><ele>863.0</ele><time>2026-05-02T12:36:48.999Z</time></trkpt><trkpt lat="42.045731086010655" lon="13.657069230169899"><ele>863.0</ele><time>2026-05-02T12:36:49.999Z</time></trkpt><trkpt lat="42.04581818649753" lon="13.657021820884141"><ele>863.0</ele><time>2026-05-02T12:36:50.999Z</time></trkpt><trkpt lat="42.04589043870336" lon="13.656979351385523"><ele>863.0</ele><time>2026-05-02T12:36:51.999Z</time></trkpt><trkpt lat="42.04597001658739" lon="13.656932606940547"><ele>862.0</ele><time>2026-05-02T12:36:52.999Z</time></trkpt><trkpt lat="42.0460422540948" lon="13.656872714277064"><ele>861.0</ele><time>2026-05-02T12:36:53.999Z</time></trkpt><trkpt lat="42.046108391306724" lon="13.656795239915123"><ele>860.0</ele><time>2026-05-02T12:36:54.999Z</time></trkpt><trkpt lat="42.0461788424423" lon="13.656730100429677"><ele>859.0</ele><time>2026-05-02T12:36:55.999Z</time></trkpt><trkpt lat="42.04626970683828" lon="13.656667657948882"><ele>858.0</ele><time>2026-05-02T12:36:56.999Z</time></trkpt><trkpt lat="42.04635776797424" lon="13.656617839003543"><ele>858.0</ele><time>2026-05-02T12:36:57.999Z</time></trkpt><trkpt lat="42.04644143305601" lon="13.656559514741264"><ele>858.0</ele><time>2026-05-02T12:36:58.999Z</time></trkpt><trkpt lat="42.04651378902499" lon="13.656487000018018"><ele>858.0</ele><time>2026-05-02T12:36:59.999Z</time></trkpt><trkpt lat="42.046584499207555" lon="13.656410355844972"><ele>858.0</ele><time>2026-05-02T12:37:00.999Z</time></trkpt><trkpt lat="42.046661548991764" lon="13.656331045632442"><ele>858.0</ele><time>2026-05-02T12:37:01.999Z</time></trkpt><trkpt lat="42.046743243677824" lon="13.656267395929635"><ele>857.8</ele><time>2026-05-02T12:37:02.999Z</time></trkpt><trkpt lat="42.04681314754281" lon="13.656217235188853"><ele>857.5999999999999</ele><time>2026-05-02T12:37:03.999Z</time></trkpt><trkpt lat="42.04688875410677" lon="13.65616033826267"><ele>857.4000000000001</ele><time>2026-05-02T12:37:04.999Z</time></trkpt><trkpt lat="42.04697377316895" lon="13.65612589713807"><ele>857.2</ele><time>2026-05-02T12:37:05.999Z</time></trkpt><trkpt lat="42.04706501748408" lon="13.656090086070071"><ele>857.0</ele><time>2026-05-02T12:37:06.999Z</time></trkpt><trkpt lat="42.04715559454938" lon="13.65602870540599"><ele>857.0</ele><time>2026-05-02T12:37:07.999Z</time></trkpt><trkpt lat="42.04724345846268" lon="13.65595353921168"><ele>857.0</ele><time>2026-05-02T12:37:08.999Z</time></trkpt><trkpt lat="42.04732921616397" lon="13.655872423540586"><ele>857.0</ele><time>2026-05-02T12:37:09.999Z</time></trkpt><trkpt lat="42.04741218087324" lon="13.655791277124134"><ele>857.0</ele><time>2026-05-02T12:37:10.999Z</time></trkpt><trkpt lat="42.04748748366844" lon="13.655704645717634"><ele>857.0</ele><time>2026-05-02T12:37:11.999Z</time></trkpt><trkpt lat="42.04756145458565" lon="13.655646735399039"><ele>857.0</ele><time>2026-05-02T12:37:12.999Z</time></trkpt><trkpt lat="42.047643344288666" lon="13.65557306642872"><ele>857.0</ele><time>2026-05-02T12:37:13.999Z</time></trkpt><trkpt lat="42.04771815671734" lon="13.655508354538622"><ele>857.0</ele><time>2026-05-02T12:37:14.999Z</time></trkpt><trkpt lat="42.04778627888439" lon="13.655418875973346"><ele>857.0</ele><time>2026-05-02T12:37:15.999Z</time></trkpt><trkpt lat="42.04785401428602" lon="13.655305551320883"><ele>857.0</ele><time>2026-05-02T12:37:16.999Z</time></trkpt><trkpt lat="42.047923859183854" lon="13.655191939682753"><ele>857.0</ele><time>2026-05-02T12:37:17.999Z</time></trkpt><trkpt lat="42.04799913080991" lon="13.655087348608044"><ele>857.0</ele><time>2026-05-02T12:37:18.999Z</time></trkpt><trkpt lat="42.04808351385219" lon="13.654983527510426"><ele>857.0</ele><time>2026-05-02T12:37:19.999Z</time></trkpt><trkpt lat="42.04816927963941" lon="13.654866492845215"><ele>857.0</ele><time>2026-05-02T12:37:20.999Z</time></trkpt><trkpt lat="42.0482401433972" lon="13.654765100825061"><ele>857.0</ele><time>2026-05-02T12:37:22Z</time></trkpt><trkpt lat="42.04830179379746" lon="13.654662847993409"><ele>857.4000000000001</ele><time>2026-05-02T12:37:23Z</time></trkpt><trkpt lat="42.04835740221772" lon="13.654538425267694"><ele>857.8000000000001</ele><time>2026-05-02T12:37:24Z</time></trkpt><trkpt lat="42.04841675029713" lon="13.65441881747899"><ele>858.2</ele><time>2026-05-02T12:37:25Z</time></trkpt><trkpt lat="42.04848124515458" lon="13.654335450647565"><ele>858.6</ele><time>2026-05-02T12:37:26Z</time></trkpt><trkpt lat="42.04856766081" lon="13.654261145809471"><ele>859.0</ele><time>2026-05-02T12:37:27Z</time></trkpt><trkpt lat="42.048667903287054" lon="13.65418078283349"><ele>859.0</ele><time>2026-05-02T12:37:28Z</time></trkpt><trkpt lat="42.04874229269187" lon="13.654096378238497"><ele>859.0000000000001</ele><time>2026-05-02T12:37:29Z</time></trkpt><trkpt lat="42.04881457430046" lon="13.654000417004672"><ele>859.0000000000001</ele><time>2026-05-02T12:37:30Z</time></trkpt><trkpt lat="42.048875169787976" lon="13.653904959789793"><ele>859.0</ele><time>2026-05-02T12:37:31Z</time></trkpt><trkpt lat="42.048941404353414" lon="13.653824354550892"><ele>859.0</ele><time>2026-05-02T12:37:32Z</time></trkpt><trkpt lat="42.04902675066133" lon="13.653751617876157"><ele>859.0</ele><time>2026-05-02T12:37:33Z</time></trkpt><trkpt lat="42.049110160505116" lon="13.653681135187993"><ele>859.0000000000001</ele><time>2026-05-02T12:37:34Z</time></trkpt><trkpt lat="42.04919125916531" lon="13.653614550793108"><ele>859.0000000000001</ele><time>2026-05-02T12:37:35Z</time></trkpt><trkpt lat="42.04925723539903" lon="13.653542786967911"><ele>859.0</ele><time>2026-05-02T12:37:36Z</time></trkpt><trkpt lat="42.0493129218099" lon="13.653455404843294"><ele>859.0</ele><time>2026-05-02T12:37:37Z</time></trkpt><trkpt lat="42.049378908675436" lon="13.65333948777598"><ele>858.6666666666666</ele><time>2026-05-02T12:37:38Z</time></trkpt><trkpt lat="42.04943735716591" lon="13.653242159701025"><ele>858.3333333333333</ele><time>2026-05-02T12:37:39Z</time></trkpt><trkpt lat="42.049500349042226" lon="13.653159394356756"><ele>858.0</ele><time>2026-05-02T12:37:40Z</time></trkpt><trkpt lat="42.04957296260451" lon="13.653079081762057"><ele>857.6666666666667</ele><time>2026-05-02T12:37:41Z</time></trkpt><trkpt lat="42.04962905561999" lon="13.653016492042902"><ele>857.3333333333334</ele><time>2026-05-02T12:37:42Z</time></trkpt><trkpt lat="42.049674087257316" lon="13.652948476668172"><ele>857.0</ele><time>2026-05-02T12:37:43Z</time></trkpt><trkpt lat="42.049726198861265" lon="13.652793020000024"><ele>857.1666666666667</ele><time>2026-05-02T12:37:45Z</time></trkpt><trkpt lat="42.049762555857555" lon="13.652693073088146"><ele>857.3333333333334</ele><time>2026-05-02T12:37:46Z</time></trkpt><trkpt lat="42.049815966260546" lon="13.652610718901014"><ele>857.5</ele><time>2026-05-02T12:37:47Z</time></trkpt><trkpt lat="42.04986733476442" lon="13.652558839521449"><ele>857.6666666666667</ele><time>2026-05-02T12:37:48Z</time></trkpt><trkpt lat="42.049952109429995" lon="13.652466201929412"><ele>857.8333333333334</ele><time>2026-05-02T12:37:50Z</time></trkpt><trkpt lat="42.05000569654381" lon="13.65238461210672"><ele>858.0</ele><time>2026-05-02T12:37:51Z</time></trkpt><trkpt lat="42.05004735449764" lon="13.652312713596428"><ele>858.0</ele><time>2026-05-02T12:37:52Z</time></trkpt><trkpt lat="42.050085213470396" lon="13.652238805246194"><ele>858.0</ele><time>2026-05-02T12:37:53Z</time></trkpt><trkpt lat="42.0501267279336" lon="13.652154243874813"><ele>858.0</ele><time>2026-05-02T12:37:54Z</time></trkpt><trkpt lat="42.050177380136766" lon="13.652088179311159"><ele>858.0</ele><time>2026-05-02T12:37:55Z</time></trkpt><trkpt lat="42.050235751750954" lon="13.652032285552849"><ele>858.0</ele><time>2026-05-02T12:37:56Z</time></trkpt><trkpt lat="42.0503106832483" lon="13.651978021044949"><ele>858.0</ele><time>2026-05-02T12:37:57Z</time></trkpt><trkpt lat="42.05037396683467" lon="13.651924651953395"><ele>858.0</ele><time>2026-05-02T12:37:58Z</time></trkpt><trkpt lat="42.050484322167485" lon="13.651847608421477"><ele>857.4</ele><time>2026-05-02T12:38:00Z</time></trkpt><trkpt lat="42.05055760573643" lon="13.651813260206584"><ele>856.8</ele><time>2026-05-02T12:38:01Z</time></trkpt><trkpt lat="42.05065375337207" lon="13.65176519209586"><ele>856.2</ele><time>2026-05-02T12:38:02Z</time></trkpt><trkpt lat="42.0507447939883" lon="13.65169562291437"><ele>855.6</ele><time>2026-05-02T12:38:03Z</time></trkpt><trkpt lat="42.05081765427138" lon="13.651621119439506"><ele>855.0</ele><time>2026-05-02T12:38:04Z</time></trkpt><trkpt lat="42.05087699868829" lon="13.651495056473763"><ele>855.6</ele><time>2026-05-02T12:38:06Z</time></trkpt><trkpt lat="42.05092530243606" lon="13.651311611631638"><ele>856.2</ele><time>2026-05-02T12:38:08Z</time></trkpt><trkpt lat="42.050956644719655" lon="13.65120414076439"><ele>856.8</ele><time>2026-05-02T12:38:09Z</time></trkpt><trkpt lat="42.050966421952566" lon="13.651092362715223"><ele>857.4</ele><time>2026-05-02T12:38:10Z</time></trkpt><trkpt lat="42.050945504633695" lon="13.650973139814095"><ele>858.0</ele><time>2026-05-02T12:38:11Z</time></trkpt><trkpt lat="42.050905008901324" lon="13.650843912731386"><ele>858.0</ele><time>2026-05-02T12:38:12Z</time></trkpt><trkpt lat="42.050869119179225" lon="13.65071233060365"><ele>858.0</ele><time>2026-05-02T12:38:13Z</time></trkpt><trkpt lat="42.05083745389783" lon="13.650582002366395"><ele>858.0</ele><time>2026-05-02T12:38:14Z</time></trkpt><trkpt lat="42.05082364102758" lon="13.65047194536533"><ele>858.0</ele><time>2026-05-02T12:38:15Z</time></trkpt><trkpt lat="42.05082597469351" lon="13.650373842820303"><ele>858.0</ele><time>2026-05-02T12:38:16Z</time></trkpt><trkpt lat="42.050853975458494" lon="13.650288459420732"><ele>858.0</ele><time>2026-05-02T12:38:17Z</time></trkpt><trkpt lat="42.05090799106365" lon="13.650192513644553"><ele>857.0</ele><time>2026-05-02T12:38:18Z</time></trkpt><trkpt lat="42.05097857468932" lon="13.650093774162405"><ele>856.0</ele><time>2026-05-02T12:38:19Z</time></trkpt><trkpt lat="42.0510548330542" lon="13.64998124335808"><ele>855.0</ele><time>2026-05-02T12:38:20Z</time></trkpt><trkpt lat="42.05113313590281" lon="13.649871169811309"><ele>854.0</ele><time>2026-05-02T12:38:21Z</time></trkpt><trkpt lat="42.05119768515301" lon="13.649767385513707"><ele>853.0</ele><time>2026-05-02T12:38:22Z</time></trkpt><trkpt lat="42.05125966721384" lon="13.649681014843003"><ele>853.0</ele><time>2026-05-02T12:38:23Z</time></trkpt><trkpt lat="42.05132480708868" lon="13.649586301641616"><ele>853.0</ele><time>2026-05-02T12:38:24Z</time></trkpt><trkpt lat="42.05139310124213" lon="13.649476602732191"><ele>853.0</ele><time>2026-05-02T12:38:25Z</time></trkpt><trkpt lat="42.05145897244889" lon="13.649367182969694"><ele>853.0</ele><time>2026-05-02T12:38:26Z</time></trkpt><trkpt lat="42.051512548523625" lon="13.649248678794459"><ele>853.0</ele><time>2026-05-02T12:38:27Z</time></trkpt><trkpt lat="42.05155411857848" lon="13.64912751423243"><ele>852.8</ele><time>2026-05-02T12:38:27.999Z</time></trkpt><trkpt lat="42.05158847691393" lon="13.649002550634798"><ele>852.5999999999999</ele><time>2026-05-02T12:38:28.999Z</time></trkpt><trkpt lat="42.051614407149906" lon="13.648871268160836"><ele>852.4000000000001</ele><time>2026-05-02T12:38:29.999Z</time></trkpt><trkpt lat="42.05165752604151" lon="13.648749202873553"><ele>852.2</ele><time>2026-05-02T12:38:30.999Z</time></trkpt><trkpt lat="42.05171257168985" lon="13.64864112377557"><ele>852.0</ele><time>2026-05-02T12:38:31.999Z</time></trkpt><trkpt lat="42.05177864980156" lon="13.648548614050803"><ele>852.0</ele><time>2026-05-02T12:38:32.999Z</time></trkpt><trkpt lat="42.051849999351745" lon="13.648461748048941"><ele>852.0</ele><time>2026-05-02T12:38:33.999Z</time></trkpt><trkpt lat="42.051923104668376" lon="13.648376120106583"><ele>852.0</ele><time>2026-05-02T12:38:34.999Z</time></trkpt><trkpt lat="42.05199452603683" lon="13.64828942775095"><ele>852.0</ele><time>2026-05-02T12:38:35.999Z</time></trkpt><trkpt lat="42.052070895252314" lon="13.64820671152891"><ele>852.0</ele><time>2026-05-02T12:38:36.999Z</time></trkpt><trkpt lat="42.052150119933486" lon="13.648111490825794"><ele>852.0</ele><time>2026-05-02T12:38:37.999Z</time></trkpt><trkpt lat="42.05224253450281" lon="13.648003595390206"><ele>852.0</ele><time>2026-05-02T12:38:38.999Z</time></trkpt><trkpt lat="42.052332787407884" lon="13.647901407205664"><ele>852.0</ele><time>2026-05-02T12:38:39.999Z</time></trkpt><trkpt lat="42.052410140822644" lon="13.64781670113265"><ele>852.0</ele><time>2026-05-02T12:38:40.999Z</time></trkpt><trkpt lat="42.052478093011146" lon="13.647748160222015"><ele>852.0</ele><time>2026-05-02T12:38:41.999Z</time></trkpt><trkpt lat="42.0525495638786" lon="13.647679734731826"><ele>852.25</ele><time>2026-05-02T12:38:42.999Z</time></trkpt><trkpt lat="42.052637115931205" lon="13.64757120793584"><ele>852.5</ele><time>2026-05-02T12:38:43.999Z</time></trkpt><trkpt lat="42.05271601999166" lon="13.64746292484029"><ele>852.75</ele><time>2026-05-02T12:38:44.999Z</time></trkpt><trkpt lat="42.05279862700684" lon="13.647349447263279"><ele>853.0</ele><time>2026-05-02T12:38:45.999Z</time></trkpt><trkpt lat="42.052889789304004" lon="13.647253822613196"><ele>853.0</ele><time>2026-05-02T12:38:46.999Z</time></trkpt><trkpt lat="42.05298271150806" lon="13.647157584982706"><ele>853.0</ele><time>2026-05-02T12:38:47.999Z</time></trkpt><trkpt lat="42.0530745466447" lon="13.647072546572668"><ele>853.0</ele><time>2026-05-02T12:38:48.999Z</time></trkpt><trkpt lat="42.05316326598634" lon="13.646990508219282"><ele>853.0</ele><time>2026-05-02T12:38:49.999Z</time></trkpt><trkpt lat="42.05324718944496" lon="13.646914503021257"><ele>853.0</ele><time>2026-05-02T12:38:50.999Z</time></trkpt><trkpt lat="42.0533289340285" lon="13.646839079524138"><ele>853.5</ele><time>2026-05-02T12:38:51.999Z</time></trkpt><trkpt lat="42.05341170898376" lon="13.646752589104066"><ele>854.0</ele><time>2026-05-02T12:38:52.999Z</time></trkpt><trkpt lat="42.053498770762644" lon="13.646656633575745"><ele>854.5</ele><time>2026-05-02T12:38:53.999Z</time></trkpt><trkpt lat="42.05359357523798" lon="13.64656288294155"><ele>855.0</ele><time>2026-05-02T12:38:54.999Z</time></trkpt><trkpt lat="42.05368611931438" lon="13.646461045277041"><ele>855.0</ele><time>2026-05-02T12:38:55.999Z</time></trkpt><trkpt lat="42.05377875500378" lon="13.646355613684477"><ele>855.0</ele><time>2026-05-02T12:38:56.999Z</time></trkpt><trkpt lat="42.05386741952529" lon="13.646254303750984"><ele>855.0</ele><time>2026-05-02T12:38:57.999Z</time></trkpt><trkpt lat="42.053948776725235" lon="13.646150912969516"><ele>855.0</ele><time>2026-05-02T12:38:58.999Z</time></trkpt><trkpt lat="42.05403210948623" lon="13.646050922371172"><ele>854.6</ele><time>2026-05-02T12:38:59.999Z</time></trkpt><trkpt lat="42.05411505782764" lon="13.645950448791465"><ele>854.2</ele><time>2026-05-02T12:39:00.999Z</time></trkpt><trkpt lat="42.05419918280407" lon="13.645858477156278"><ele>853.8</ele><time>2026-05-02T12:39:01.999Z</time></trkpt><trkpt lat="42.05427826525277" lon="13.645768856951662"><ele>853.4</ele><time>2026-05-02T12:39:02.999Z</time></trkpt><trkpt lat="42.05435809372397" lon="13.645679645215303"><ele>853.0</ele><time>2026-05-02T12:39:03.999Z</time></trkpt><trkpt lat="42.05444520874157" lon="13.645590883970177"><ele>853.0</ele><time>2026-05-02T12:39:04.999Z</time></trkpt><trkpt lat="42.054531072175024" lon="13.645497082881853"><ele>853.0</ele><time>2026-05-02T12:39:05.999Z</time></trkpt><trkpt lat="42.054613312252314" lon="13.645395419701751"><ele>853.0</ele><time>2026-05-02T12:39:06.999Z</time></trkpt><trkpt lat="42.05468912671836" lon="13.645283715061963"><ele>853.0</ele><time>2026-05-02T12:39:07.999Z</time></trkpt><trkpt lat="42.054760322454044" lon="13.645164330436055"><ele>853.0</ele><time>2026-05-02T12:39:08.999Z</time></trkpt><trkpt lat="42.054834188323795" lon="13.64503150602147"><ele>853.2</ele><time>2026-05-02T12:39:09.999Z</time></trkpt><trkpt lat="42.054891468329956" lon="13.644905290320818"><ele>853.4</ele><time>2026-05-02T12:39:10.999Z</time></trkpt><trkpt lat="42.05493934509134" lon="13.644778831833346"><ele>853.6000000000001</ele><time>2026-05-02T12:39:11.999Z</time></trkpt><trkpt lat="42.054972422165946" lon="13.64463623923135"><ele>853.8000000000001</ele><time>2026-05-02T12:39:12.999Z</time></trkpt><trkpt lat="42.054997323786985" lon="13.644500929551457"><ele>854.0</ele><time>2026-05-02T12:39:13.999Z</time></trkpt><trkpt lat="42.05501086600728" lon="13.644395534044069"><ele>853.5714285714286</ele><time>2026-05-02T12:39:14.999Z</time></trkpt><trkpt lat="42.055019295610165" lon="13.644295112192566"><ele>853.1428571428571</ele><time>2026-05-02T12:39:15.999Z</time></trkpt><trkpt lat="42.05503891340428" lon="13.644203592973142"><ele>852.7142857142858</ele><time>2026-05-02T12:39:16.999Z</time></trkpt><trkpt lat="42.055065642272794" lon="13.644123346201686"><ele>852.2857142857142</ele><time>2026-05-02T12:39:17.999Z</time></trkpt><trkpt lat="42.05509936877183" lon="13.644050755487399"><ele>851.8571428571429</ele><time>2026-05-02T12:39:18.999Z</time></trkpt><trkpt lat="42.05513558991351" lon="13.643980830075508"><ele>851.4285714285714</ele><time>2026-05-02T12:39:19.999Z</time></trkpt><trkpt lat="42.055164628554046" lon="13.64388517608299"><ele>851.0</ele><time>2026-05-02T12:39:20.999Z</time></trkpt><trkpt lat="42.055188210671055" lon="13.643771001413873"><ele>851.0</ele><time>2026-05-02T12:39:21.999Z</time></trkpt><trkpt lat="42.05521071150204" lon="13.643649370515531"><ele>851.0</ele><time>2026-05-02T12:39:22.999Z</time></trkpt><trkpt lat="42.05523456249714" lon="13.64351984514331"><ele>851.0</ele><time>2026-05-02T12:39:23.999Z</time></trkpt><trkpt lat="42.05525652696546" lon="13.643382925900315"><ele>851.0</ele><time>2026-05-02T12:39:24.999Z</time></trkpt><trkpt lat="42.05528045696313" lon="13.643252509561652"><ele>851.0</ele><time>2026-05-02T12:39:25.999Z</time></trkpt><trkpt lat="42.05530353815166" lon="13.643128246957883"><ele>851.0</ele><time>2026-05-02T12:39:26.999Z</time></trkpt><trkpt lat="42.055330723469126" lon="13.642999134628337"><ele>851.0</ele><time>2026-05-02T12:39:28Z</time></trkpt><trkpt lat="42.05537250800283" lon="13.642870610049957"><ele>851.0</ele><time>2026-05-02T12:39:29Z</time></trkpt><trkpt lat="42.05543239969168" lon="13.642739429593338"><ele>851.0</ele><time>2026-05-02T12:39:30Z</time></trkpt><trkpt lat="42.05547295269895" lon="13.642589423969081"><ele>851.0</ele><time>2026-05-02T12:39:31Z</time></trkpt><trkpt lat="42.05549032078551" lon="13.642436689371667"><ele>851.0</ele><time>2026-05-02T12:39:32Z</time></trkpt><trkpt lat="42.05548978423591" lon="13.642281726584828"><ele>851.0</ele><time>2026-05-02T12:39:33Z</time></trkpt><trkpt lat="42.05560675068139" lon="13.64229577636798"><ele>851.0</ele><time>2026-05-02T12:39:34Z</time></trkpt><trkpt lat="42.05567188106821" lon="13.64223333353578"><ele>851.0</ele><time>2026-05-02T12:39:35Z</time></trkpt><trkpt lat="42.055749742181206" lon="13.64218800098494"><ele>851.0</ele><time>2026-05-02T12:39:36Z</time></trkpt><trkpt lat="42.05584517074841" lon="13.642149766875262"><ele>852.5</ele><time>2026-05-02T12:39:37Z</time></trkpt><trkpt lat="42.055951575998556" lon="13.642117301296189"><ele>854.0</ele><time>2026-05-02T12:39:38Z</time></trkpt><trkpt lat="42.056058065928994" lon="13.642086401957807"><ele>855.5</ele><time>2026-05-02T12:39:39Z</time></trkpt><trkpt lat="42.056166645566734" lon="13.642032659625329"><ele>857.0</ele><time>2026-05-02T12:39:40Z</time></trkpt><trkpt lat="42.05627447336754" lon="13.64196753179266"><ele>856.0</ele><time>2026-05-02T12:39:41Z</time></trkpt><trkpt lat="42.056396975879046" lon="13.641904726109344"><ele>855.0</ele><time>2026-05-02T12:39:42Z</time></trkpt><trkpt lat="42.05652851247052" lon="13.641852879263018"><ele>854.0</ele><time>2026-05-02T12:39:43Z</time></trkpt><trkpt lat="42.05667229482517" lon="13.641809872083666"><ele>853.0</ele><time>2026-05-02T12:39:44Z</time></trkpt><trkpt lat="42.05680494923824" lon="13.641754228005293"><ele>853.0</ele><time>2026-05-02T12:39:45Z</time></trkpt><trkpt lat="42.05692450852276" lon="13.641703416496783"><ele>853.0</ele><time>2026-05-02T12:39:46Z</time></trkpt><trkpt lat="42.05703289289938" lon="13.641679295928045"><ele>853.0</ele><time>2026-05-02T12:39:47Z</time></trkpt><trkpt lat="42.05712950107832" lon="13.641689550401704"><ele>853.0</ele><time>2026-05-02T12:39:48Z</time></trkpt><trkpt lat="42.05722559395548" lon="13.641730482172719"><ele>853.0</ele><time>2026-05-02T12:39:49Z</time></trkpt><trkpt lat="42.05732046792675" lon="13.641765762259075"><ele>853.0</ele><time>2026-05-02T12:39:50Z</time></trkpt><trkpt lat="42.05742244783409" lon="13.64177353784116"><ele>853.0</ele><time>2026-05-02T12:39:51Z</time></trkpt><trkpt lat="42.05753869004348" lon="13.64176858318232"><ele>853.0</ele><time>2026-05-02T12:39:52Z</time></trkpt><trkpt lat="42.05765866154971" lon="13.641749791762436"><ele>853.0</ele><time>2026-05-02T12:39:53Z</time></trkpt><trkpt lat="42.05778032166644" lon="13.64170063841792"><ele>853.5</ele><time>2026-05-02T12:39:54Z</time></trkpt><trkpt lat="42.057897770099835" lon="13.641625371887756"><ele>854.0</ele><time>2026-05-02T12:39:55Z</time></trkpt><trkpt lat="42.058017533462966" lon="13.641553888105976"><ele>854.5</ele><time>2026-05-02T12:39:56Z</time></trkpt><trkpt lat="42.058141462420316" lon="13.64149539312707"><ele>855.0</ele><time>2026-05-02T12:39:57Z</time></trkpt><trkpt lat="42.058262073374515" lon="13.641440815575057"><ele>855.5</ele><time>2026-05-02T12:39:58Z</time></trkpt><trkpt lat="42.05837323305042" lon="13.6413760749878"><ele>856.0</ele><time>2026-05-02T12:39:59Z</time></trkpt><trkpt lat="42.058489139209954" lon="13.64132723103438"><ele>856.5</ele><time>2026-05-02T12:40:00Z</time></trkpt><trkpt lat="42.058612554229015" lon="13.641278734264851"><ele>857.0</ele><time>2026-05-02T12:40:01Z</time></trkpt><trkpt lat="42.05872467169683" lon="13.641226423880559"><ele>857.0</ele><time>2026-05-02T12:40:02Z</time></trkpt><trkpt lat="42.05884172311051" lon="13.641165979873458"><ele>857.0</ele><time>2026-05-02T12:40:03Z</time></trkpt><trkpt lat="42.05896012435427" lon="13.641155308055808"><ele>857.0</ele><time>2026-05-02T12:40:03.999Z</time></trkpt><trkpt lat="42.05909828290703" lon="13.641152401284403"><ele>857.0</ele><time>2026-05-02T12:40:04.999Z</time></trkpt><trkpt lat="42.05923636697284" lon="13.641152232290375"><ele>857.5</ele><time>2026-05-02T12:40:05.999Z</time></trkpt><trkpt lat="42.059361999444555" lon="13.641146350290786"><ele>858.0</ele><time>2026-05-02T12:40:06.999Z</time></trkpt><trkpt lat="42.05947730043318" lon="13.641138082770013"><ele>858.5</ele><time>2026-05-02T12:40:07.999Z</time></trkpt><trkpt lat="42.05959142543835" lon="13.641142283108524"><ele>859.0</ele><time>2026-05-02T12:40:08.999Z</time></trkpt><trkpt lat="42.059715252069886" lon="13.641135500457713"><ele>859.25</ele><time>2026-05-02T12:40:09.999Z</time></trkpt><trkpt lat="42.059847617382225" lon="13.641124736269203"><ele>859.5</ele><time>2026-05-02T12:40:10.999Z</time></trkpt><trkpt lat="42.05999000604776" lon="13.641128840157466"><ele>859.75</ele><time>2026-05-02T12:40:11.999Z</time></trkpt><trkpt lat="42.06012908999231" lon="13.641150917590235"><ele>860.0</ele><time>2026-05-02T12:40:12.999Z</time></trkpt><trkpt lat="42.060244374611614" lon="13.641221893843934"><ele>860.0</ele><time>2026-05-02T12:40:13.999Z</time></trkpt><trkpt lat="42.060358322294505" lon="13.641305620798986"><ele>860.0</ele><time>2026-05-02T12:40:14.999Z</time></trkpt><trkpt lat="42.060522129434375" lon="13.641215694932448"><ele>860.0</ele><time>2026-05-02T12:40:15.999Z</time></trkpt><trkpt lat="42.06064966222455" lon="13.641197077892146"><ele>860.0</ele><time>2026-05-02T12:40:16.999Z</time></trkpt><trkpt lat="42.06077971480433" lon="13.641185941906368"><ele>860.0</ele><time>2026-05-02T12:40:17.999Z</time></trkpt><trkpt lat="42.06090672965397" lon="13.64116956112154"><ele>860.0</ele><time>2026-05-02T12:40:18.999Z</time></trkpt><trkpt lat="42.0610334408284" lon="13.641148220863515"><ele>860.0</ele><time>2026-05-02T12:40:19.999Z</time></trkpt><trkpt lat="42.06115517099315" lon="13.641115304019523"><ele>860.0</ele><time>2026-05-02T12:40:20.999Z</time></trkpt><trkpt lat="42.06127800387638" lon="13.641073449158169"><ele>860.0</ele><time>2026-05-02T12:40:21.999Z</time></trkpt><trkpt lat="42.06139531783634" lon="13.641025780790207"><ele>860.0</ele><time>2026-05-02T12:40:22.999Z</time></trkpt><trkpt lat="42.061513991618966" lon="13.640993631751796"><ele>860.0</ele><time>2026-05-02T12:40:23.999Z</time></trkpt><trkpt lat="42.06163407813032" lon="13.640946284872689"><ele>860.0</ele><time>2026-05-02T12:40:24.999Z</time></trkpt><trkpt lat="42.06175381889707" lon="13.64088069851989"><ele>861.75</ele><time>2026-05-02T12:40:25.999Z</time></trkpt><trkpt lat="42.06187520806548" lon="13.640790634367683"><ele>863.5</ele><time>2026-05-02T12:40:26.999Z</time></trkpt><trkpt lat="42.06199450628328" lon="13.640678082708021"><ele>865.25</ele><time>2026-05-02T12:40:27.999Z</time></trkpt><trkpt lat="42.06211457216778" lon="13.640547019642835"><ele>867.0</ele><time>2026-05-02T12:40:28.999Z</time></trkpt><trkpt lat="42.06223475346885" lon="13.640413079493854"><ele>867.0</ele><time>2026-05-02T12:40:29.999Z</time></trkpt><trkpt lat="42.062348473562864" lon="13.64028477857133"><ele>867.0</ele><time>2026-05-02T12:40:30.999Z</time></trkpt><trkpt lat="42.06244260943198" lon="13.640166910267157"><ele>867.0</ele><time>2026-05-02T12:40:31.999Z</time></trkpt><trkpt lat="42.06252621604759" lon="13.64004763524639"><ele>867.0</ele><time>2026-05-02T12:40:32.999Z</time></trkpt><trkpt lat="42.062612259369004" lon="13.639947373876476"><ele>867.0</ele><time>2026-05-02T12:40:33.999Z</time></trkpt><trkpt lat="42.06270477032583" lon="13.639847819097715"><ele>867.0</ele><time>2026-05-02T12:40:34.999Z</time></trkpt><trkpt lat="42.06280975688355" lon="13.639753413920026"><ele>867.0</ele><time>2026-05-02T12:40:35.999Z</time></trkpt><trkpt lat="42.062925462497795" lon="13.639675328381056"><ele>867.0</ele><time>2026-05-02T12:40:36.999Z</time></trkpt><trkpt lat="42.06304535245049" lon="13.639600801528644"><ele>867.0</ele><time>2026-05-02T12:40:37.999Z</time></trkpt><trkpt lat="42.06317438105117" lon="13.63951665258594"><ele>867.0</ele><time>2026-05-02T12:40:38.999Z</time></trkpt><trkpt lat="42.063298267986035" lon="13.639431916861518"><ele>867.0</ele><time>2026-05-02T12:40:39.999Z</time></trkpt><trkpt lat="42.06341895496918" lon="13.639336733283848"><ele>867.0</ele><time>2026-05-02T12:40:40.999Z</time></trkpt><trkpt lat="42.06353681921942" lon="13.639238799638292"><ele>866.5</ele><time>2026-05-02T12:40:41.999Z</time></trkpt><trkpt lat="42.06365755985486" lon="13.63914562490151"><ele>866.0</ele><time>2026-05-02T12:40:42.999Z</time></trkpt><trkpt lat="42.063774036559764" lon="13.639049420561456"><ele>865.5</ele><time>2026-05-02T12:40:43.999Z</time></trkpt><trkpt lat="42.06387890253816" lon="13.638946605284753"><ele>865.0</ele><time>2026-05-02T12:40:44.999Z</time></trkpt><trkpt lat="42.06398016484425" lon="13.638833062244421"><ele>865.0</ele><time>2026-05-02T12:40:45.999Z</time></trkpt><trkpt lat="42.06409062733106" lon="13.638728181400548"><ele>865.0</ele><time>2026-05-02T12:40:46.999Z</time></trkpt><trkpt lat="42.06420993420927" lon="13.638631798181445"><ele>865.0</ele><time>2026-05-02T12:40:47.999Z</time></trkpt><trkpt lat="42.06432352131383" lon="13.638545041356098"><ele>865.0</ele><time>2026-05-02T12:40:48.999Z</time></trkpt><trkpt lat="42.064416572412696" lon="13.638428860065712"><ele>864.6666666666666</ele><time>2026-05-02T12:40:49.999Z</time></trkpt><trkpt lat="42.06452532986175" lon="13.638315208049638"><ele>864.3333333333333</ele><time>2026-05-02T12:40:50.999Z</time></trkpt><trkpt lat="42.06466241543276" lon="13.638156105258131"><ele>864.0</ele><time>2026-05-02T12:40:51.999Z</time></trkpt><trkpt lat="42.064788892420495" lon="13.637999809843892"><ele>864.0</ele><time>2026-05-02T12:40:52.999Z</time></trkpt><trkpt lat="42.064919121529016" lon="13.637812479424532"><ele>864.0</ele><time>2026-05-02T12:40:53.999Z</time></trkpt><trkpt lat="42.06497837109135" lon="13.637841504051226"><ele>864.0</ele><time>2026-05-02T12:40:54.999Z</time></trkpt><trkpt lat="42.06508392146255" lon="13.637720469646792"><ele>864.0</ele><time>2026-05-02T12:40:55.999Z</time></trkpt><trkpt lat="42.06518220116299" lon="13.6376068233794"><ele>864.2</ele><time>2026-05-02T12:40:56.999Z</time></trkpt><trkpt lat="42.06527182025923" lon="13.637501658823156"><ele>864.4000000000001</ele><time>2026-05-02T12:40:57.999Z</time></trkpt><trkpt lat="42.06535021814161" lon="13.637394829055971"><ele>864.6</ele><time>2026-05-02T12:40:58.999Z</time></trkpt><trkpt lat="42.06542762027214" lon="13.637311474720752"><ele>864.8</ele><time>2026-05-02T12:40:59.999Z</time></trkpt><trkpt lat="42.06551686050945" lon="13.637219217656302"><ele>865.0</ele><time>2026-05-02T12:41:00.999Z</time></trkpt><trkpt lat="42.06561722256766" lon="13.637136442268098"><ele>865.0</ele><time>2026-05-02T12:41:01.999Z</time></trkpt><trkpt lat="42.06571504573252" lon="13.637059623237814"><ele>865.0</ele><time>2026-05-02T12:41:02.999Z</time></trkpt><trkpt lat="42.065800413224586" lon="13.636998535037051"><ele>865.0</ele><time>2026-05-02T12:41:03.999Z</time></trkpt><trkpt lat="42.06588790886594" lon="13.636929046459342"><ele>865.0</ele><time>2026-05-02T12:41:04.999Z</time></trkpt><trkpt lat="42.06598554617337" lon="13.636849306581249"><ele>865.0</ele><time>2026-05-02T12:41:05.999Z</time></trkpt><trkpt lat="42.066084519057505" lon="13.636761420708392"><ele>865.25</ele><time>2026-05-02T12:41:06.999Z</time></trkpt><trkpt lat="42.06619036827518" lon="13.636676175169658"><ele>865.5</ele><time>2026-05-02T12:41:07.999Z</time></trkpt><trkpt lat="42.06630147372763" lon="13.636589591401437"><ele>865.75</ele><time>2026-05-02T12:41:08.999Z</time></trkpt><trkpt lat="42.066419550398535" lon="13.636500329958075"><ele>866.0</ele><time>2026-05-02T12:41:09.999Z</time></trkpt><trkpt lat="42.06653069135036" lon="13.636407359423172"><ele>867.25</ele><time>2026-05-02T12:41:10.999Z</time></trkpt><trkpt lat="42.06664255620783" lon="13.636318413396616"><ele>868.5</ele><time>2026-05-02T12:41:11.999Z</time></trkpt><trkpt lat="42.06674839431834" lon="13.636228753482712"><ele>869.75</ele><time>2026-05-02T12:41:12.999Z</time></trkpt><trkpt lat="42.06684124352522" lon="13.636150937496435"><ele>871.0</ele><time>2026-05-02T12:41:13.999Z</time></trkpt><trkpt lat="42.06692035475884" lon="13.636081897365562"><ele>871.0</ele><time>2026-05-02T12:41:14.999Z</time></trkpt><trkpt lat="42.066999055135355" lon="13.636006252054148"><ele>870.9999999999999</ele><time>2026-05-02T12:41:15.999Z</time></trkpt><trkpt lat="42.06706612503439" lon="13.635936068625377"><ele>870.9999999999999</ele><time>2026-05-02T12:41:16.999Z</time></trkpt><trkpt lat="42.06714402107947" lon="13.635877150728223"><ele>871.0</ele><time>2026-05-02T12:41:17.999Z</time></trkpt><trkpt lat="42.06723572979466" lon="13.635837614908139"><ele>871.0</ele><time>2026-05-02T12:41:18.999Z</time></trkpt><trkpt lat="42.06733494667423" lon="13.635816550333969"><ele>871.0</ele><time>2026-05-02T12:41:19.999Z</time></trkpt><trkpt lat="42.06742570377826" lon="13.635810016116432"><ele>870.9999999999999</ele><time>2026-05-02T12:41:20.999Z</time></trkpt><trkpt lat="42.06751492414637" lon="13.635781498147507"><ele>870.9999999999999</ele><time>2026-05-02T12:41:21.999Z</time></trkpt><trkpt lat="42.06759702271437" lon="13.63570775184945"><ele>871.0</ele><time>2026-05-02T12:41:22.999Z</time></trkpt><trkpt lat="42.067690500187446" lon="13.635618209938908"><ele>871.0</ele><time>2026-05-02T12:41:23.999Z</time></trkpt><trkpt lat="42.06778890802701" lon="13.635518630087006"><ele>872.25</ele><time>2026-05-02T12:41:24.999Z</time></trkpt><trkpt lat="42.06790027264537" lon="13.635417806875893"><ele>873.5</ele><time>2026-05-02T12:41:25.999Z</time></trkpt><trkpt lat="42.06802331861647" lon="13.635298950217024"><ele>874.75</ele><time>2026-05-02T12:41:26.999Z</time></trkpt><trkpt lat="42.068137012085224" lon="13.635185940533844"><ele>876.0</ele><time>2026-05-02T12:41:27.999Z</time></trkpt><trkpt lat="42.06824509342407" lon="13.635070743680837"><ele>878.25</ele><time>2026-05-02T12:41:28.999Z</time></trkpt><trkpt lat="42.06833362596331" lon="13.634971026142644"><ele>880.5</ele><time>2026-05-02T12:41:29.999Z</time></trkpt><trkpt lat="42.06841884276254" lon="13.634900837291692"><ele>882.75</ele><time>2026-05-02T12:41:30.999Z</time></trkpt><trkpt lat="42.06852472095057" lon="13.634778637793456"><ele>885.0</ele><time>2026-05-02T12:41:31.999Z</time></trkpt><trkpt lat="42.068610697695846" lon="13.634678834902862"><ele>885.0</ele><time>2026-05-02T12:41:32.999Z</time></trkpt><trkpt lat="42.06869665052966" lon="13.634573935093192"><ele>885.0</ele><time>2026-05-02T12:41:34Z</time></trkpt><trkpt lat="42.068779074249605" lon="13.634471263663102"><ele>885.0</ele><time>2026-05-02T12:41:35Z</time></trkpt><trkpt lat="42.06886300355617" lon="13.634381239799875"><ele>885.0</ele><time>2026-05-02T12:41:36Z</time></trkpt><trkpt lat="42.06894225481423" lon="13.634296457720437"><ele>885.0</ele><time>2026-05-02T12:41:37Z</time></trkpt><trkpt lat="42.06901864347808" lon="13.6342192071148"><ele>884.5</ele><time>2026-05-02T12:41:38Z</time></trkpt><trkpt lat="42.06908621498283" lon="13.634123765644196"><ele>884.0</ele><time>2026-05-02T12:41:39Z</time></trkpt><trkpt lat="42.069142509058516" lon="13.634029288008012"><ele>883.5</ele><time>2026-05-02T12:41:40Z</time></trkpt><trkpt lat="42.06919805761214" lon="13.633944774211772"><ele>883.0</ele><time>2026-05-02T12:41:41Z</time></trkpt><trkpt lat="42.06924334768966" lon="13.633877136028865"><ele>882.5</ele><time>2026-05-02T12:41:42Z</time></trkpt><trkpt lat="42.06933943778212" lon="13.633809290598226"><ele>882.0</ele><time>2026-05-02T12:41:44Z</time></trkpt><trkpt lat="42.069405221164004" lon="13.633813292858177"><ele>883.0</ele><time>2026-05-02T12:41:45Z</time></trkpt><trkpt lat="42.06947205019429" lon="13.633849406576338"><ele>884.0</ele><time>2026-05-02T12:41:46Z</time></trkpt><trkpt lat="42.06952892843323" lon="13.633900313197922"><ele>885.0</ele><time>2026-05-02T12:41:47Z</time></trkpt><trkpt lat="42.06961222119844" lon="13.633952148539262"><ele>886.0</ele><time>2026-05-02T12:41:49Z</time></trkpt><trkpt lat="42.06966271895856" lon="13.634006529125928"><ele>887.0</ele><time>2026-05-02T12:41:51Z</time></trkpt><trkpt lat="42.0696566865431" lon="13.634152793074668"><ele>888.0</ele><time>2026-05-02T12:41:53Z</time></trkpt><trkpt lat="42.06966171094656" lon="13.634245128172727"><ele>888.0</ele><time>2026-05-02T12:41:54Z</time></trkpt><trkpt lat="42.06969246588593" lon="13.634341319439482"><ele>888.0</ele><time>2026-05-02T12:41:55Z</time></trkpt><trkpt lat="42.06974701114574" lon="13.634447079892821"><ele>888.0</ele><time>2026-05-02T12:41:56Z</time></trkpt><trkpt lat="42.06981428019179" lon="13.634554908774154"><ele>888.0</ele><time>2026-05-02T12:41:57Z</time></trkpt><trkpt lat="42.06987800458773" lon="13.634676424037231"><ele>888.0</ele><time>2026-05-02T12:41:58Z</time></trkpt><trkpt lat="42.06995335061795" lon="13.634796360733468"><ele>888.25</ele><time>2026-05-02T12:41:59Z</time></trkpt><trkpt lat="42.07001985137827" lon="13.63492879687283"><ele>888.5</ele><time>2026-05-02T12:42:00Z</time></trkpt><trkpt lat="42.07009299134575" lon="13.635053197322804"><ele>888.75</ele><time>2026-05-02T12:42:01Z</time></trkpt><trkpt lat="42.070177933741036" lon="13.635162129936589"><ele>889.0</ele><time>2026-05-02T12:42:02Z</time></trkpt><trkpt lat="42.07024089569563" lon="13.635291256472312"><ele>893.0</ele><time>2026-05-02T12:42:03Z</time></trkpt><trkpt lat="42.07031323077812" lon="13.635418314168776"><ele>897.0</ele><time>2026-05-02T12:42:04Z</time></trkpt><trkpt lat="42.07038580691455" lon="13.635544701129435"><ele>901.0</ele><time>2026-05-02T12:42:05Z</time></trkpt><trkpt lat="42.070462955479684" lon="13.635672770575763"><ele>905.0</ele><time>2026-05-02T12:42:06Z</time></trkpt><trkpt lat="42.0705429039815" lon="13.635813372073224"><ele>905.0</ele><time>2026-05-02T12:42:07Z</time></trkpt><trkpt lat="42.07062487219549" lon="13.635960401288639"><ele>905.0</ele><time>2026-05-02T12:42:08Z</time></trkpt><trkpt lat="42.07069055862491" lon="13.636136877145182"><ele>905.0</ele><time>2026-05-02T12:42:09Z</time></trkpt><trkpt lat="42.070788122779504" lon="13.636287407241532"><ele>905.0</ele><time>2026-05-02T12:42:10Z</time></trkpt><trkpt lat="42.07087542117667" lon="13.636449865968006"><ele>905.0</ele><time>2026-05-02T12:42:11Z</time></trkpt><trkpt lat="42.07098741186305" lon="13.6365939772581"><ele>905.0</ele><time>2026-05-02T12:42:12Z</time></trkpt><trkpt lat="42.07111492643674" lon="13.636728560837398"><ele>905.0</ele><time>2026-05-02T12:42:13Z</time></trkpt><trkpt lat="42.07124696823226" lon="13.636850901905131"><ele>912.0</ele><time>2026-05-02T12:42:14Z</time></trkpt><trkpt lat="42.07137031752537" lon="13.63698302909097"><ele>919.0</ele><time>2026-05-02T12:42:15Z</time></trkpt><trkpt lat="42.0714741040305" lon="13.63713968066332"><ele>926.0</ele><time>2026-05-02T12:42:16Z</time></trkpt><trkpt lat="42.07158999111499" lon="13.637291523923986"><ele>918.3333333333334</ele><time>2026-05-02T12:42:17Z</time></trkpt><trkpt lat="42.07172215418933" lon="13.637414846854984"><ele>910.6666666666667</ele><time>2026-05-02T12:42:18Z</time></trkpt><trkpt lat="42.07184427323846" lon="13.637544454959787"><ele>903.0</ele><time>2026-05-02T12:42:19Z</time></trkpt><trkpt lat="42.07197082506379" lon="13.637660988053813"><ele>903.0</ele><time>2026-05-02T12:42:20Z</time></trkpt><trkpt lat="42.07209949794663" lon="13.637767180041843"><ele>903.0</ele><time>2026-05-02T12:42:21Z</time></trkpt><trkpt lat="42.07223238895922" lon="13.637862241263935"><ele>903.0</ele><time>2026-05-02T12:42:22Z</time></trkpt><trkpt lat="42.072376238113385" lon="13.637937868322414"><ele>905.3333333333333</ele><time>2026-05-02T12:42:23Z</time></trkpt><trkpt lat="42.07252111155757" lon="13.638017661458846"><ele>907.6666666666666</ele><time>2026-05-02T12:42:24Z</time></trkpt><trkpt lat="42.072664996786045" lon="13.638086981677104"><ele>910.0</ele><time>2026-05-02T12:42:25Z</time></trkpt><trkpt lat="42.072800849430905" lon="13.638176803869609"><ele>910.0</ele><time>2026-05-02T12:42:26Z</time></trkpt><trkpt lat="42.07293038868178" lon="13.638240784460832"><ele>910.0</ele><time>2026-05-02T12:42:27Z</time></trkpt><trkpt lat="42.073028412983476" lon="13.638359679364108"><ele>910.0</ele><time>2026-05-02T12:42:28Z</time></trkpt><trkpt lat="42.07311300176097" lon="13.638480893961631"><ele>910.0</ele><time>2026-05-02T12:42:29Z</time></trkpt><trkpt lat="42.073196943512166" lon="13.638615521026551"><ele>911.75</ele><time>2026-05-02T12:42:30Z</time></trkpt><trkpt lat="42.07329603685159" lon="13.638752653948066"><ele>913.5</ele><time>2026-05-02T12:42:31Z</time></trkpt><trkpt lat="42.07338226976355" lon="13.638908085017013"><ele>915.25</ele><time>2026-05-02T12:42:32Z</time></trkpt><trkpt lat="42.07347594414138" lon="13.6390710134654"><ele>917.0</ele><time>2026-05-02T12:42:33Z</time></trkpt><trkpt lat="42.07358212743637" lon="13.639212318964693"><ele>917.0</ele><time>2026-05-02T12:42:34Z</time></trkpt><trkpt lat="42.0737014404122" lon="13.6393479810442"><ele>917.0</ele><time>2026-05-02T12:42:35Z</time></trkpt><trkpt lat="42.073822119042546" lon="13.639489451387854"><ele>917.0</ele><time>2026-05-02T12:42:36Z</time></trkpt><trkpt lat="42.073941970238074" lon="13.639624469363243"><ele>918.6666666666667</ele><time>2026-05-02T12:42:37Z</time></trkpt><trkpt lat="42.07406715594776" lon="13.639752458919896"><ele>920.3333333333333</ele><time>2026-05-02T12:42:38Z</time></trkpt><trkpt lat="42.07419190212184" lon="13.63988170349133"><ele>922.0</ele><time>2026-05-02T12:42:39Z</time></trkpt><trkpt lat="42.074314365100754" lon="13.640014176422694"><ele>922.0</ele><time>2026-05-02T12:42:40Z</time></trkpt><trkpt lat="42.07443494456133" lon="13.640152337611193"><ele>922.0</ele><time>2026-05-02T12:42:41Z</time></trkpt><trkpt lat="42.074554885489114" lon="13.640303738544794"><ele>922.0</ele><time>2026-05-02T12:42:42Z</time></trkpt><trkpt lat="42.07466957697168" lon="13.640457320700868"><ele>924.0</ele><time>2026-05-02T12:42:43Z</time></trkpt><trkpt lat="42.07478178580496" lon="13.640611450779952"><ele>926.0</ele><time>2026-05-02T12:42:44Z</time></trkpt><trkpt lat="42.074891161705224" lon="13.6407657392679"><ele>928.0</ele><time>2026-05-02T12:42:45Z</time></trkpt><trkpt lat="42.07499793518641" lon="13.64091974242747"><ele>928.0</ele><time>2026-05-02T12:42:46Z</time></trkpt><trkpt lat="42.07510437710053" lon="13.641087246795529"><ele>928.0</ele><time>2026-05-02T12:42:47Z</time></trkpt><trkpt lat="42.07520903395216" lon="13.641248214375235"><ele>928.0</ele><time>2026-05-02T12:42:48Z</time></trkpt><trkpt lat="42.07530888971801" lon="13.641408642639234"><ele>930.6666666666666</ele><time>2026-05-02T12:42:49Z</time></trkpt><trkpt lat="42.075413195197804" lon="13.641568735474557"><ele>933.3333333333333</ele><time>2026-05-02T12:42:50Z</time></trkpt><trkpt lat="42.0755166222726" lon="13.64172242958405"><ele>936.0</ele><time>2026-05-02T12:42:51Z</time></trkpt><trkpt lat="42.075627314257105" lon="13.641868621471614"><ele>936.0</ele><time>2026-05-02T12:42:52Z</time></trkpt><trkpt lat="42.075739112155794" lon="13.642006948407868"><ele>936.0</ele><time>2026-05-02T12:42:53Z</time></trkpt><trkpt lat="42.07585926138133" lon="13.64215101229497"><ele>936.0</ele><time>2026-05-02T12:42:54Z</time></trkpt><trkpt lat="42.07598699001704" lon="13.64228552530581"><ele>936.0</ele><time>2026-05-02T12:42:55Z</time></trkpt><trkpt lat="42.076111302031435" lon="13.642432113849807"><ele>936.0</ele><time>2026-05-02T12:42:55.999Z</time></trkpt><trkpt lat="42.07625116283333" lon="13.642575254748069"><ele>936.0</ele><time>2026-05-02T12:42:56.999Z</time></trkpt><trkpt lat="42.076381160541516" lon="13.642732944269078"><ele>938.0</ele><time>2026-05-02T12:42:57.999Z</time></trkpt><trkpt lat="42.07650236231779" lon="13.64289363824433"><ele>940.0</ele><time>2026-05-02T12:42:58.999Z</time></trkpt><trkpt lat="42.076627214534064" lon="13.643059700479803"><ele>942.0</ele><time>2026-05-02T12:42:59.999Z</time></trkpt><trkpt lat="42.0767441741225" lon="13.643222956214144"><ele>942.0</ele><time>2026-05-02T12:43:00.999Z</time></trkpt><trkpt lat="42.07685795112423" lon="13.643395913379445"><ele>942.0</ele><time>2026-05-02T12:43:01.999Z</time></trkpt><trkpt lat="42.07696979714814" lon="13.643566392013723"><ele>942.0</ele><time>2026-05-02T12:43:02.999Z</time></trkpt><trkpt lat="42.07708380761508" lon="13.643724628413985"><ele>944.3333333333333</ele><time>2026-05-02T12:43:03.999Z</time></trkpt><trkpt lat="42.077200766737526" lon="13.643886759986271"><ele>946.6666666666666</ele><time>2026-05-02T12:43:04.999Z</time></trkpt><trkpt lat="42.07732713938374" lon="13.64402642450517"><ele>949.0</ele><time>2026-05-02T12:43:05.999Z</time></trkpt><trkpt lat="42.07745266623118" lon="13.64416787745302"><ele>949.0</ele><time>2026-05-02T12:43:06.999Z</time></trkpt><trkpt lat="42.07758806645546" lon="13.644292301055673"><ele>949.0</ele><time>2026-05-02T12:43:07.999Z</time></trkpt><trkpt lat="42.0777555298275" lon="13.644439979246632"><ele>949.0</ele><time>2026-05-02T12:43:08.999Z</time></trkpt><trkpt lat="42.077872847551895" lon="13.644637575844673"><ele>953.3333333333333</ele><time>2026-05-02T12:43:09.999Z</time></trkpt><trkpt lat="42.07798248031972" lon="13.64485831609738"><ele>957.6666666666667</ele><time>2026-05-02T12:43:11.999Z</time></trkpt><trkpt lat="42.078066257463874" lon="13.645020863554219"><ele>962.0</ele><time>2026-05-02T12:43:12.999Z</time></trkpt><trkpt lat="42.078167226941346" lon="13.645173058284719"><ele>961.5</ele><time>2026-05-02T12:43:13.999Z</time></trkpt><trkpt lat="42.07825685251556" lon="13.645332536057307"><ele>961.0</ele><time>2026-05-02T12:43:14.999Z</time></trkpt><trkpt lat="42.07833636181485" lon="13.645505279057597"><ele>960.5</ele><time>2026-05-02T12:43:15.999Z</time></trkpt><trkpt lat="42.078412033098104" lon="13.645644320661177"><ele>960.0</ele><time>2026-05-02T12:43:16.999Z</time></trkpt><trkpt lat="42.078496425906344" lon="13.645753777782021"><ele>960.0</ele><time>2026-05-02T12:43:17.999Z</time></trkpt><trkpt lat="42.07858146555155" lon="13.645879764086992"><ele>960.0</ele><time>2026-05-02T12:43:18.999Z</time></trkpt><trkpt lat="42.07871608628924" lon="13.645947077756874"><ele>960.0</ele><time>2026-05-02T12:43:19.999Z</time></trkpt><trkpt lat="42.07883928178904" lon="13.646044607905582"><ele>960.0</ele><time>2026-05-02T12:43:20.999Z</time></trkpt><trkpt lat="42.07895836749621" lon="13.64616479421762"><ele>960.3333333333333</ele><time>2026-05-02T12:43:21.999Z</time></trkpt><trkpt lat="42.07907091135133" lon="13.646304398204657"><ele>960.6666666666666</ele><time>2026-05-02T12:43:22.999Z</time></trkpt><trkpt lat="42.079161116773385" lon="13.646476357463179"><ele>961.0</ele><time>2026-05-02T12:43:23.999Z</time></trkpt><trkpt lat="42.07924819445726" lon="13.646647797025693"><ele>961.0</ele><time>2026-05-02T12:43:24.999Z</time></trkpt><trkpt lat="42.0793255737491" lon="13.646827827215596"><ele>961.0</ele><time>2026-05-02T12:43:25.999Z</time></trkpt><trkpt lat="42.07939518826272" lon="13.646993558005578"><ele>961.0</ele><time>2026-05-02T12:43:26.999Z</time></trkpt><trkpt lat="42.07947503950022" lon="13.647137659712248"><ele>961.0</ele><time>2026-05-02T12:43:27.999Z</time></trkpt><trkpt lat="42.079521004094694" lon="13.64727959042167"><ele>963.75</ele><time>2026-05-02T12:43:28.999Z</time></trkpt><trkpt lat="42.079588210495764" lon="13.647396187337506"><ele>966.5</ele><time>2026-05-02T12:43:29.999Z</time></trkpt><trkpt lat="42.0796642504757" lon="13.647513928936768"><ele>969.25</ele><time>2026-05-02T12:43:30.999Z</time></trkpt><trkpt lat="42.0797407115314" lon="13.647626463874271"><ele>972.0</ele><time>2026-05-02T12:43:31.999Z</time></trkpt><trkpt lat="42.079901464946225" lon="13.647608562929284"><ele>969.4000000000001</ele><time>2026-05-02T12:43:32.999Z</time></trkpt><trkpt lat="42.08000911227047" lon="13.64766374612391"><ele>966.8000000000001</ele><time>2026-05-02T12:43:33.999Z</time></trkpt><trkpt lat="42.080111330030775" lon="13.647732725020438"><ele>964.2</ele><time>2026-05-02T12:43:34.999Z</time></trkpt><trkpt lat="42.08021033752601" lon="13.647793331940509"><ele>961.6</ele><time>2026-05-02T12:43:35.999Z</time></trkpt><trkpt lat="42.08031464321591" lon="13.647834788234901"><ele>959.0</ele><time>2026-05-02T12:43:36.999Z</time></trkpt><trkpt lat="42.08041431106653" lon="13.647844555002179"><ele>959.0</ele><time>2026-05-02T12:43:37.999Z</time></trkpt><trkpt lat="42.08051695609745" lon="13.647830362919002"><ele>959.0000000000001</ele><time>2026-05-02T12:43:38.999Z</time></trkpt><trkpt lat="42.08061732618059" lon="13.647794396238622"><ele>959.0000000000001</ele><time>2026-05-02T12:43:40Z</time></trkpt><trkpt lat="42.08071646837945" lon="13.647739444561687"><ele>959.0</ele><time>2026-05-02T12:43:41Z</time></trkpt><trkpt lat="42.08081713062621" lon="13.647655789815301"><ele>959.0</ele><time>2026-05-02T12:43:42Z</time></trkpt><trkpt lat="42.08094463078521" lon="13.647617758091597"><ele>960.25</ele><time>2026-05-02T12:43:43Z</time></trkpt><trkpt lat="42.08105668971362" lon="13.647551891706133"><ele>961.5</ele><time>2026-05-02T12:43:44Z</time></trkpt><trkpt lat="42.08116845024251" lon="13.647489404442142"><ele>962.75</ele><time>2026-05-02T12:43:45Z</time></trkpt><trkpt lat="42.08127789499266" lon="13.64742997009466"><ele>964.0</ele><time>2026-05-02T12:43:46Z</time></trkpt><trkpt lat="42.0813805887178" lon="13.647356087485909"><ele>964.0</ele><time>2026-05-02T12:43:47Z</time></trkpt><trkpt lat="42.081479522210216" lon="13.647269909564816"><ele>964.0</ele><time>2026-05-02T12:43:48Z</time></trkpt><trkpt lat="42.081571310755166" lon="13.647177063937557"><ele>964.0</ele><time>2026-05-02T12:43:49Z</time></trkpt><trkpt lat="42.08165856904884" lon="13.647070107880573"><ele>964.0</ele><time>2026-05-02T12:43:50Z</time></trkpt><trkpt lat="42.08173857318874" lon="13.646947716272201"><ele>966.5</ele><time>2026-05-02T12:43:51Z</time></trkpt><trkpt lat="42.08182702740289" lon="13.646831867591128"><ele>969.0</ele><time>2026-05-02T12:43:52Z</time></trkpt><trkpt lat="42.08191488533281" lon="13.646701921379957"><ele>971.5</ele><time>2026-05-02T12:43:53Z</time></trkpt><trkpt lat="42.082003777376535" lon="13.646576024146825"><ele>974.0</ele><time>2026-05-02T12:43:54Z</time></trkpt><trkpt lat="42.08209387309485" lon="13.646446524941055"><ele>974.0</ele><time>2026-05-02T12:43:55Z</time></trkpt><trkpt lat="42.08220197596561" lon="13.646343774117232"><ele>974.0</ele><time>2026-05-02T12:43:56Z</time></trkpt><trkpt lat="42.082292670573096" lon="13.646244943073405"><ele>974.0</ele><time>2026-05-02T12:43:57Z</time></trkpt><trkpt lat="42.08238383674261" lon="13.646146771206732"><ele>974.0</ele><time>2026-05-02T12:43:58Z</time></trkpt><trkpt lat="42.0824930534797" lon="13.646083317984028"><ele>976.25</ele><time>2026-05-02T12:43:59Z</time></trkpt><trkpt lat="42.08261158546744" lon="13.646053757804381"><ele>978.5</ele><time>2026-05-02T12:44:00Z</time></trkpt><trkpt lat="42.08272467546182" lon="13.645986621956737"><ele>980.75</ele><time>2026-05-02T12:44:01Z</time></trkpt><trkpt lat="42.082850110109455" lon="13.64594608663393"><ele>983.0</ele><time>2026-05-02T12:44:02Z</time></trkpt><trkpt lat="42.08295424670068" lon="13.645883253824449"><ele>983.0</ele><time>2026-05-02T12:44:03Z</time></trkpt><trkpt lat="42.08306866444128" lon="13.645795955773751"><ele>983.0</ele><time>2026-05-02T12:44:04Z</time></trkpt><trkpt lat="42.0831804515309" lon="13.645719022449631"><ele>983.0</ele><time>2026-05-02T12:44:05Z</time></trkpt><trkpt lat="42.08329263881212" lon="13.64564170185311"><ele>983.0</ele><time>2026-05-02T12:44:06Z</time></trkpt><trkpt lat="42.083389506250526" lon="13.645535678867901"><ele>985.5</ele><time>2026-05-02T12:44:07Z</time></trkpt><trkpt lat="42.08349285230984" lon="13.645438597479826"><ele>988.0</ele><time>2026-05-02T12:44:08Z</time></trkpt><trkpt lat="42.083603948685926" lon="13.645343787245817"><ele>990.5</ele><time>2026-05-02T12:44:09Z</time></trkpt><trkpt lat="42.08370528017331" lon="13.645230102266291"><ele>993.0</ele><time>2026-05-02T12:44:10Z</time></trkpt><trkpt lat="42.08379234100797" lon="13.64510519334655"><ele>994.0</ele><time>2026-05-02T12:44:11Z</time></trkpt><trkpt lat="42.083881857943545" lon="13.644988002034133"><ele>995.0</ele><time>2026-05-02T12:44:12Z</time></trkpt><trkpt lat="42.08395361903612" lon="13.644857238318524"><ele>996.0</ele><time>2026-05-02T12:44:13Z</time></trkpt><trkpt lat="42.084014979507586" lon="13.644715003726187"><ele>997.0</ele><time>2026-05-02T12:44:14Z</time></trkpt><trkpt lat="42.08404781108953" lon="13.64455865962257"><ele>998.0</ele><time>2026-05-02T12:44:15Z</time></trkpt><trkpt lat="42.08408366222653" lon="13.644402311763734"><ele>999.0</ele><time>2026-05-02T12:44:16Z</time></trkpt><trkpt lat="42.08410585322009" lon="13.64423612917492"><ele>1000.0</ele><time>2026-05-02T12:44:17Z</time></trkpt><trkpt lat="42.08415554159638" lon="13.64409157731534"><ele>1001.0</ele><time>2026-05-02T12:44:18Z</time></trkpt><trkpt lat="42.08419450267914" lon="13.64395103079875"><ele>1002.0</ele><time>2026-05-02T12:44:19Z</time></trkpt><trkpt lat="42.08423987627537" lon="13.643818760000569"><ele>1003.0</ele><time>2026-05-02T12:44:20Z</time></trkpt><trkpt lat="42.08428314999103" lon="13.643671887679766"><ele>1004.0</ele><time>2026-05-02T12:44:21Z</time></trkpt><trkpt lat="42.084335770538935" lon="13.643519799673252"><ele>1005.0</ele><time>2026-05-02T12:44:22Z</time></trkpt><trkpt lat="42.08437979069238" lon="13.643365594661606"><ele>1006.5</ele><time>2026-05-02T12:44:23Z</time></trkpt><trkpt lat="42.08443357931011" lon="13.643219662549532"><ele>1008.0</ele><time>2026-05-02T12:44:24Z</time></trkpt><trkpt lat="42.08450570995686" lon="13.6430850920396"><ele>1009.5</ele><time>2026-05-02T12:44:25Z</time></trkpt><trkpt lat="42.08457007021801" lon="13.642940609647589"><ele>1011.0</ele><time>2026-05-02T12:44:26Z</time></trkpt><trkpt lat="42.08464360135015" lon="13.64280340260444"><ele>1012.0</ele><time>2026-05-02T12:44:27Z</time></trkpt><trkpt lat="42.08471641714336" lon="13.64265211955215"><ele>1013.0</ele><time>2026-05-02T12:44:28Z</time></trkpt><trkpt lat="42.08478902516689" lon="13.64251455265286"><ele>1014.0</ele><time>2026-05-02T12:44:29Z</time></trkpt><trkpt lat="42.08485293129579" lon="13.642379561468434"><ele>1015.0</ele><time>2026-05-02T12:44:30Z</time></trkpt><trkpt lat="42.08488595688104" lon="13.642205220356264"><ele>1015.0</ele><time>2026-05-02T12:44:31Z</time></trkpt><trkpt lat="42.084906836346335" lon="13.642032472459562"><ele>1015.0</ele><time>2026-05-02T12:44:32Z</time></trkpt><trkpt lat="42.08492918082789" lon="13.641870687862369"><ele>1015.0</ele><time>2026-05-02T12:44:33Z</time></trkpt><trkpt lat="42.08495072101439" lon="13.641762343913326"><ele>1015.0</ele><time>2026-05-02T12:44:34Z</time></trkpt><trkpt lat="42.08497636426372" lon="13.641673473451176"><ele>1015.0</ele><time>2026-05-02T12:44:35Z</time></trkpt><trkpt lat="42.08505223031774" lon="13.64136812239384"><ele>1018.5</ele><time>2026-05-02T12:44:36Z</time></trkpt><trkpt lat="42.08510429564756" lon="13.641209475185507"><ele>1022.0</ele><time>2026-05-02T12:44:37Z</time></trkpt><trkpt lat="42.085142333259554" lon="13.6410531631212"><ele>1025.5</ele><time>2026-05-02T12:44:38Z</time></trkpt><trkpt lat="42.08518982320075" lon="13.640912128999581"><ele>1029.0</ele><time>2026-05-02T12:44:39Z</time></trkpt><trkpt lat="42.08521722112774" lon="13.640766213528114"><ele>1030.4</ele><time>2026-05-02T12:44:40Z</time></trkpt><trkpt lat="42.085239015058555" lon="13.640616246729325"><ele>1031.8000000000002</ele><time>2026-05-02T12:44:41Z</time></trkpt><trkpt lat="42.0852359937157" lon="13.64048548621197"><ele>1033.1999999999998</ele><time>2026-05-02T12:44:42Z</time></trkpt><trkpt lat="42.08521345379796" lon="13.640360754968258"><ele>1034.6</ele><time>2026-05-02T12:44:43Z</time></trkpt><trkpt lat="42.08518441556103" lon="13.640242755563893"><ele>1036.0</ele><time>2026-05-02T12:44:44Z</time></trkpt><trkpt lat="42.08516562331214" lon="13.640117394490478"><ele>1037.0</ele><time>2026-05-02T12:44:45Z</time></trkpt><trkpt lat="42.085138821941406" lon="13.640008600986414"><ele>1038.0</ele><time>2026-05-02T12:44:46Z</time></trkpt><trkpt lat="42.085165652378315" lon="13.639900455245607"><ele>1039.0</ele><time>2026-05-02T12:44:47Z</time></trkpt><trkpt lat="42.085211217872136" lon="13.639806570798516"><ele>1040.0</ele><time>2026-05-02T12:44:48Z</time></trkpt><trkpt lat="42.085264227361414" lon="13.639692568856214"><ele>1041.0</ele><time>2026-05-02T12:44:49Z</time></trkpt><trkpt lat="42.0853095490507" lon="13.639564129172289"><ele>1042.1666666666667</ele><time>2026-05-02T12:44:50Z</time></trkpt><trkpt lat="42.0853624269593" lon="13.639465192940232"><ele>1043.3333333333333</ele><time>2026-05-02T12:44:51Z</time></trkpt><trkpt lat="42.08538923371794" lon="13.639376054121964"><ele>1044.5</ele><time>2026-05-02T12:44:52Z</time></trkpt><trkpt lat="42.08540343293887" lon="13.639271090995152"><ele>1045.6666666666665</ele><time>2026-05-02T12:44:53Z</time></trkpt><trkpt lat="42.085393871177594" lon="13.639162696473544"><ele>1046.8333333333333</ele><time>2026-05-02T12:44:54Z</time></trkpt><trkpt lat="42.08536590693303" lon="13.639061142400827"><ele>1048.0</ele><time>2026-05-02T12:44:55Z</time></trkpt><trkpt lat="42.085320736683485" lon="13.638955018669497"><ele>1048.0</ele><time>2026-05-02T12:44:56Z</time></trkpt><trkpt lat="42.08529323420164" lon="13.638838813765389"><ele>1048.0</ele><time>2026-05-02T12:44:57Z</time></trkpt><trkpt lat="42.08525350533539" lon="13.638729470114122"><ele>1048.0</ele><time>2026-05-02T12:44:58Z</time></trkpt><trkpt lat="42.08524167133466" lon="13.638595262588458"><ele>1048.0</ele><time>2026-05-02T12:44:59Z</time></trkpt><trkpt lat="42.085201321331176" lon="13.638486306025479"><ele>1048.0</ele><time>2026-05-02T12:45:00Z</time></trkpt><trkpt lat="42.085183075156145" lon="13.638361283361247"><ele>1049.8</ele><time>2026-05-02T12:45:01Z</time></trkpt><trkpt lat="42.08514997085213" lon="13.638230137562259"><ele>1051.6</ele><time>2026-05-02T12:45:02Z</time></trkpt><trkpt lat="42.08512394025739" lon="13.638104977435422"><ele>1053.4</ele><time>2026-05-02T12:45:03Z</time></trkpt><trkpt lat="42.085097681797905" lon="13.637986687275038"><ele>1055.2</ele><time>2026-05-02T12:45:04Z</time></trkpt><trkpt lat="42.08509065624225" lon="13.637873042855386"><ele>1057.0</ele><time>2026-05-02T12:45:05Z</time></trkpt><trkpt lat="42.08507555762196" lon="13.637751859262835"><ele>1058.2</ele><time>2026-05-02T12:45:06Z</time></trkpt><trkpt lat="42.085060182117935" lon="13.63764245429956"><ele>1059.4</ele><time>2026-05-02T12:45:07Z</time></trkpt><trkpt lat="42.085059466602814" lon="13.637494847104401"><ele>1060.6</ele><time>2026-05-02T12:45:08Z</time></trkpt><trkpt lat="42.085040260487695" lon="13.637362303590667"><ele>1061.8</ele><time>2026-05-02T12:45:09Z</time></trkpt><trkpt lat="42.085042724919965" lon="13.637226241019253"><ele>1063.0</ele><time>2026-05-02T12:45:10Z</time></trkpt><trkpt lat="42.085029053621504" lon="13.637081859399409"><ele>1065.3333333333333</ele><time>2026-05-02T12:45:11Z</time></trkpt><trkpt lat="42.085001703257646" lon="13.636900359715405"><ele>1067.6666666666667</ele><time>2026-05-02T12:45:12Z</time></trkpt><trkpt lat="42.08493023932766" lon="13.636713244292029"><ele>1070.0</ele><time>2026-05-02T12:45:13Z</time></trkpt><trkpt lat="42.08483226426792" lon="13.63653927474014"><ele>1070.2</ele><time>2026-05-02T12:45:14Z</time></trkpt><trkpt lat="42.08477263702755" lon="13.636456569667121"><ele>1070.4</ele><time>2026-05-02T12:45:16Z</time></trkpt><trkpt lat="42.08470240590877" lon="13.636348157494071"><ele>1070.6</ele><time>2026-05-02T12:45:17Z</time></trkpt><trkpt lat="42.08463203505315" lon="13.63623461831829"><ele>1070.8</ele><time>2026-05-02T12:45:18Z</time></trkpt><trkpt lat="42.08457084193788" lon="13.636124786477856"><ele>1071.0</ele><time>2026-05-02T12:45:19Z</time></trkpt><trkpt lat="42.08450275291227" lon="13.636021564682277"><ele>1072.3999999999999</ele><time>2026-05-02T12:45:20Z</time></trkpt><trkpt lat="42.08442813835951" lon="13.635923623842823"><ele>1073.8</ele><time>2026-05-02T12:45:21Z</time></trkpt><trkpt lat="42.08436013621428" lon="13.635811327777002"><ele>1075.1999999999998</ele><time>2026-05-02T12:45:22Z</time></trkpt><trkpt lat="42.08427603696898" lon="13.635743732463538"><ele>1076.6</ele><time>2026-05-02T12:45:23Z</time></trkpt><trkpt lat="42.084226741860135" lon="13.635658663394368"><ele>1078.0</ele><time>2026-05-02T12:45:24Z</time></trkpt><trkpt lat="42.08418423783367" lon="13.635590567607155"><ele>1078.0</ele><time>2026-05-02T12:45:25Z</time></trkpt><trkpt lat="42.08415178915317" lon="13.63543417915008"><ele>1078.0</ele><time>2026-05-02T12:45:27Z</time></trkpt><trkpt lat="42.084144746471054" lon="13.635342147542774"><ele>1078.0</ele><time>2026-05-02T12:45:27.999Z</time></trkpt><trkpt lat="42.084135077663824" lon="13.635236249782558"><ele>1078.0</ele><time>2026-05-02T12:45:28.999Z</time></trkpt><trkpt lat="42.08412207309805" lon="13.635123302433499"><ele>1078.0</ele><time>2026-05-02T12:45:29.999Z</time></trkpt><trkpt lat="42.08409443959401" lon="13.635010156447532"><ele>1078.0</ele><time>2026-05-02T12:45:30.999Z</time></trkpt><trkpt lat="42.084063086597276" lon="13.634890666281995"><ele>1078.6</ele><time>2026-05-02T12:45:31.999Z</time></trkpt><trkpt lat="42.084029746675455" lon="13.634763698054554"><ele>1079.1999999999998</ele><time>2026-05-02T12:45:32.999Z</time></trkpt><trkpt lat="42.08399532193514" lon="13.634632598857918"><ele>1079.8</ele><time>2026-05-02T12:45:33.999Z</time></trkpt><trkpt lat="42.08396553716787" lon="13.634497503680576"><ele>1080.3999999999999</ele><time>2026-05-02T12:45:34.999Z</time></trkpt><trkpt lat="42.083948085833875" lon="13.634380954365392"><ele>1081.0</ele><time>2026-05-02T12:45:35.999Z</time></trkpt><trkpt lat="42.08395737344738" lon="13.63427055769713"><ele>1081.0</ele><time>2026-05-02T12:45:36.999Z</time></trkpt><trkpt lat="42.08398182830939" lon="13.634160311159558"><ele>1081.0</ele><time>2026-05-02T12:45:37.999Z</time></trkpt><trkpt lat="42.084017938638844" lon="13.634057144441112"><ele>1081.0</ele><time>2026-05-02T12:45:38.999Z</time></trkpt><trkpt lat="42.0840871253034" lon="13.633989786327678"><ele>1081.0</ele><time>2026-05-02T12:45:39.999Z</time></trkpt><trkpt lat="42.08414034762561" lon="13.633896242447305"><ele>1081.0</ele><time>2026-05-02T12:45:40.999Z</time></trkpt><trkpt lat="42.084191054019605" lon="13.63382906931451"><ele>1081.0</ele><time>2026-05-02T12:45:41.999Z</time></trkpt><trkpt lat="42.08423879455549" lon="13.633755242591963"><ele>1082.0</ele><time>2026-05-02T12:45:42.999Z</time></trkpt><trkpt lat="42.08429007971914" lon="13.633682691348529"><ele>1083.0</ele><time>2026-05-02T12:45:43.999Z</time></trkpt><trkpt lat="42.08446902763225" lon="13.63374595797354"><ele>1084.0</ele><time>2026-05-02T12:45:44.999Z</time></trkpt><trkpt lat="42.084536443885895" lon="13.633654930321827"><ele>1085.0</ele><time>2026-05-02T12:45:46Z</time></trkpt><trkpt lat="42.08459759078608" lon="13.63352461102205"><ele>1085.0</ele><time>2026-05-02T12:45:47Z</time></trkpt><trkpt lat="42.08465995630022" lon="13.633390008476491"><ele>1085.0</ele><time>2026-05-02T12:45:48Z</time></trkpt><trkpt lat="42.084717961734356" lon="13.633261250061743"><ele>1085.0</ele><time>2026-05-02T12:45:49Z</time></trkpt><trkpt lat="42.08479443417091" lon="13.633148543073116"><ele>1085.0</ele><time>2026-05-02T12:45:50Z</time></trkpt><trkpt lat="42.08488321024045" lon="13.633048530001458"><ele>1087.4</ele><time>2026-05-02T12:45:51Z</time></trkpt><trkpt lat="42.08497037985396" lon="13.632962482671154"><ele>1089.8</ele><time>2026-05-02T12:45:52Z</time></trkpt><trkpt lat="42.085059163756064" lon="13.63288036119038"><ele>1092.2</ele><time>2026-05-02T12:45:53Z</time></trkpt><trkpt lat="42.085125106674234" lon="13.632779944463623"><ele>1094.6</ele><time>2026-05-02T12:45:54Z</time></trkpt><trkpt lat="42.08517805401967" lon="13.632633036124128"><ele>1097.0</ele><time>2026-05-02T12:45:55Z</time></trkpt><trkpt lat="42.08522648177828" lon="13.63246901039617"><ele>1098.0</ele><time>2026-05-02T12:45:56Z</time></trkpt><trkpt lat="42.08523599138668" lon="13.632289210569036"><ele>1099.0</ele><time>2026-05-02T12:45:58Z</time></trkpt><trkpt lat="42.08521862081786" lon="13.632141013409358"><ele>1100.0</ele><time>2026-05-02T12:45:59Z</time></trkpt><trkpt lat="42.085193355011796" lon="13.631990946163343"><ele>1101.0</ele><time>2026-05-02T12:46:00Z</time></trkpt><trkpt lat="42.08518570352836" lon="13.63185667880587"><ele>1101.8</ele><time>2026-05-02T12:46:01Z</time></trkpt><trkpt lat="42.085204140804436" lon="13.631739000098873"><ele>1102.6</ele><time>2026-05-02T12:46:02Z</time></trkpt><trkpt lat="42.08524183295134" lon="13.631609729018406"><ele>1103.4</ele><time>2026-05-02T12:46:03Z</time></trkpt><trkpt lat="42.08529809979807" lon="13.631477429776355"><ele>1104.2</ele><time>2026-05-02T12:46:04Z</time></trkpt><trkpt lat="42.085364007041136" lon="13.631370571995483"><ele>1105.0</ele><time>2026-05-02T12:46:05Z</time></trkpt><trkpt lat="42.0854339845166" lon="13.631274109754813"><ele>1105.0</ele><time>2026-05-02T12:46:06Z</time></trkpt><trkpt lat="42.08549600891572" lon="13.631176050676144"><ele>1105.0</ele><time>2026-05-02T12:46:07Z</time></trkpt><trkpt lat="42.08553071406129" lon="13.631074793996868"><ele>1105.0</ele><time>2026-05-02T12:46:08Z</time></trkpt><trkpt lat="42.08552785518108" lon="13.630976280207738"><ele>1105.0</ele><time>2026-05-02T12:46:09Z</time></trkpt><trkpt lat="42.085515895196714" lon="13.630860854003847"><ele>1105.0</ele><time>2026-05-02T12:46:10Z</time></trkpt><trkpt lat="42.08549300468419" lon="13.630730974629534"><ele>1105.0</ele><time>2026-05-02T12:46:11Z</time></trkpt><trkpt lat="42.08546937839565" lon="13.6305884282298"><ele>1106.25</ele><time>2026-05-02T12:46:12Z</time></trkpt><trkpt lat="42.08546027118719" lon="13.630444676548557"><ele>1107.5</ele><time>2026-05-02T12:46:13Z</time></trkpt><trkpt lat="42.08545346468649" lon="13.63028953393349"><ele>1108.75</ele><time>2026-05-02T12:46:14Z</time></trkpt><trkpt lat="42.085446286435285" lon="13.630126317129514"><ele>1110.0</ele><time>2026-05-02T12:46:15Z</time></trkpt><trkpt lat="42.0854406671192" lon="13.629960555479274"><ele>1111.2</ele><time>2026-05-02T12:46:16Z</time></trkpt><trkpt lat="42.08544493012505" lon="13.629807659105465"><ele>1112.4</ele><time>2026-05-02T12:46:17Z</time></trkpt><trkpt lat="42.08545528317372" lon="13.629667968083385"><ele>1113.6</ele><time>2026-05-02T12:46:18Z</time></trkpt><trkpt lat="42.08548285270623" lon="13.629542094268428"><ele>1114.8</ele><time>2026-05-02T12:46:19Z</time></trkpt><trkpt lat="42.08551851134217" lon="13.629420275066051"><ele>1116.0</ele><time>2026-05-02T12:46:20Z</time></trkpt><trkpt lat="42.08555797286251" lon="13.629278146560134"><ele>1116.75</ele><time>2026-05-02T12:46:21Z</time></trkpt><trkpt lat="42.08559233586224" lon="13.629125640220504"><ele>1117.5</ele><time>2026-05-02T12:46:22Z</time></trkpt><trkpt lat="42.08562693551106" lon="13.628967194850643"><ele>1118.25</ele><time>2026-05-02T12:46:23Z</time></trkpt><trkpt lat="42.08566085550786" lon="13.62879725014877"><ele>1119.0</ele><time>2026-05-02T12:46:24Z</time></trkpt><trkpt lat="42.08569446517331" lon="13.628623463287633"><ele>1119.8</ele><time>2026-05-02T12:46:25Z</time></trkpt><trkpt lat="42.08572344607669" lon="13.628461623487873"><ele>1120.6000000000001</ele><time>2026-05-02T12:46:26Z</time></trkpt><trkpt lat="42.085753544164156" lon="13.62833414712742"><ele>1121.4</ele><time>2026-05-02T12:46:27Z</time></trkpt><trkpt lat="42.08580446657475" lon="13.628232853075172"><ele>1122.2</ele><time>2026-05-02T12:46:28Z</time></trkpt><trkpt lat="42.08587019155987" lon="13.628137676402744"><ele>1123.0</ele><time>2026-05-02T12:46:29Z</time></trkpt><trkpt lat="42.085945013706635" lon="13.628048212077909"><ele>1124.8</ele><time>2026-05-02T12:46:30Z</time></trkpt><trkpt lat="42.086011390286195" lon="13.627928875567283"><ele>1126.6</ele><time>2026-05-02T12:46:31Z</time></trkpt><trkpt lat="42.08605135903165" lon="13.627792056592392"><ele>1128.4</ele><time>2026-05-02T12:46:32Z</time></trkpt><trkpt lat="42.08608089820079" lon="13.627650805189115"><ele>1130.2</ele><time>2026-05-02T12:46:33Z</time></trkpt><trkpt lat="42.086103451738985" lon="13.627508514619938"><ele>1132.0</ele><time>2026-05-02T12:46:34Z</time></trkpt><trkpt lat="42.08613719326055" lon="13.627364378804373"><ele>1133.25</ele><time>2026-05-02T12:46:35Z</time></trkpt><trkpt lat="42.086189186006266" lon="13.6272268014272"><ele>1134.5</ele><time>2026-05-02T12:46:36Z</time></trkpt><trkpt lat="42.086244655424146" lon="13.627082805999255"><ele>1135.75</ele><time>2026-05-02T12:46:37Z</time></trkpt><trkpt lat="42.08630598034315" lon="13.626938863048734"><ele>1137.0</ele><time>2026-05-02T12:46:38Z</time></trkpt><trkpt lat="42.08636046689027" lon="13.626787536779153"><ele>1137.75</ele><time>2026-05-02T12:46:39Z</time></trkpt><trkpt lat="42.08640195338395" lon="13.626633969376742"><ele>1138.5</ele><time>2026-05-02T12:46:40Z</time></trkpt><trkpt lat="42.086428492925" lon="13.626466988503259"><ele>1139.25</ele><time>2026-05-02T12:46:41Z</time></trkpt><trkpt lat="42.08643721326752" lon="13.62629266396989"><ele>1140.0</ele><time>2026-05-02T12:46:42Z</time></trkpt><trkpt lat="42.086426706797894" lon="13.626110732461976"><ele>1141.25</ele><time>2026-05-02T12:46:43Z</time></trkpt><trkpt lat="42.086389734855054" lon="13.625942676697564"><ele>1142.5</ele><time>2026-05-02T12:46:44Z</time></trkpt><trkpt lat="42.08637089648332" lon="13.625764624260396"><ele>1143.75</ele><time>2026-05-02T12:46:45Z</time></trkpt><trkpt lat="42.08633792816342" lon="13.62558313403794"><ele>1145.0</ele><time>2026-05-02T12:46:46Z</time></trkpt><trkpt lat="42.08633336793002" lon="13.625401795525837"><ele>1148.3333333333335</ele><time>2026-05-02T12:46:47Z</time></trkpt><trkpt lat="42.08628428215892" lon="13.625206508296172"><ele>1151.6666666666667</ele><time>2026-05-02T12:46:48Z</time></trkpt><trkpt lat="42.08620273564815" lon="13.625016964500823"><ele>1155.0</ele><time>2026-05-02T12:46:49Z</time></trkpt><trkpt lat="42.08615175644848" lon="13.624817225767599"><ele>1155.0</ele><time>2026-05-02T12:46:50Z</time></trkpt><trkpt lat="42.08612176302449" lon="13.624629997087983"><ele>1155.0</ele><time>2026-05-02T12:46:51Z</time></trkpt><trkpt lat="42.08610044747141" lon="13.624448275831593"><ele>1155.0</ele><time>2026-05-02T12:46:52Z</time></trkpt><trkpt lat="42.08609821696318" lon="13.624267354078517"><ele>1155.0</ele><time>2026-05-02T12:46:53Z</time></trkpt><trkpt lat="42.08610169687875" lon="13.624084067787827"><ele>1156.0</ele><time>2026-05-02T12:46:54Z</time></trkpt><trkpt lat="42.08609485754174" lon="13.623895096605613"><ele>1157.0</ele><time>2026-05-02T12:46:55Z</time></trkpt><trkpt lat="42.08605882475069" lon="13.623720279859668"><ele>1158.0</ele><time>2026-05-02T12:46:56Z</time></trkpt><trkpt lat="42.085987766902264" lon="13.623566513905397"><ele>1159.0</ele><time>2026-05-02T12:46:57Z</time></trkpt><trkpt lat="42.08592980995354" lon="13.623447773968847"><ele>1160.6666666666665</ele><time>2026-05-02T12:46:58Z</time></trkpt><trkpt lat="42.0858889681671" lon="13.623343816069527"><ele>1162.3333333333333</ele><time>2026-05-02T12:46:59Z</time></trkpt><trkpt lat="42.08584739925872" lon="13.62326571433141"><ele>1164.0</ele><time>2026-05-02T12:47:00Z</time></trkpt><trkpt lat="42.085808190146814" lon="13.62319180379551"><ele>1165.6666666666667</ele><time>2026-05-02T12:47:01Z</time></trkpt><trkpt lat="42.08571004861518" lon="13.623103927396901"><ele>1167.3333333333335</ele><time>2026-05-02T12:47:03Z</time></trkpt><trkpt lat="42.08564705857214" lon="13.623088039439038"><ele>1169.0</ele><time>2026-05-02T12:47:04Z</time></trkpt><trkpt lat="42.085577172522406" lon="13.623092790835175"><ele>1169.6000000000001</ele><time>2026-05-02T12:47:05Z</time></trkpt><trkpt lat="42.08549401962571" lon="13.623121555636876"><ele>1170.2</ele><time>2026-05-02T12:47:06Z</time></trkpt><trkpt lat="42.08540807617756" lon="13.623171926918063"><ele>1170.8000000000002</ele><time>2026-05-02T12:47:07Z</time></trkpt><trkpt lat="42.08532470806624" lon="13.62324033734105"><ele>1171.4</ele><time>2026-05-02T12:47:08Z</time></trkpt><trkpt lat="42.08524625694424" lon="13.623302560523411"><ele>1172.0</ele><time>2026-05-02T12:47:09Z</time></trkpt><trkpt lat="42.085173888685375" lon="13.623361995977216"><ele>1172.0</ele><time>2026-05-02T12:47:10Z</time></trkpt><trkpt lat="42.085088615900254" lon="13.623416907516301"><ele>1172.0</ele><time>2026-05-02T12:47:11Z</time></trkpt><trkpt lat="42.08499255518121" lon="13.623479775564268"><ele>1172.0</ele><time>2026-05-02T12:47:12Z</time></trkpt><trkpt lat="42.084901801368176" lon="13.623552302179377"><ele>1172.0</ele><time>2026-05-02T12:47:13Z</time></trkpt><trkpt lat="42.08480006355917" lon="13.623616252405526"><ele>1172.0</ele><time>2026-05-02T12:47:14Z</time></trkpt><trkpt lat="42.084674459184505" lon="13.623659453084526"><ele>1171.4</ele><time>2026-05-02T12:47:15Z</time></trkpt><trkpt lat="42.08461520378475" lon="13.623749981959193"><ele>1170.8000000000002</ele><time>2026-05-02T12:47:16Z</time></trkpt><trkpt lat="42.08458036569036" lon="13.623853571953775"><ele>1170.2</ele><time>2026-05-02T12:47:17Z</time></trkpt><trkpt lat="42.08454906557595" lon="13.623962975810992"><ele>1169.6000000000001</ele><time>2026-05-02T12:47:18Z</time></trkpt><trkpt lat="42.084367959320566" lon="13.62392772308133"><ele>1169.0</ele><time>2026-05-02T12:47:19Z</time></trkpt><trkpt lat="42.084304046764274" lon="13.623972665355954"><ele>1169.0</ele><time>2026-05-02T12:47:20Z</time></trkpt><trkpt lat="42.08424060534685" lon="13.624027846203894"><ele>1169.0</ele><time>2026-05-02T12:47:21Z</time></trkpt><trkpt lat="42.084175670025694" lon="13.624089057438741"><ele>1169.0</ele><time>2026-05-02T12:47:22Z</time></trkpt><trkpt lat="42.08411608728357" lon="13.624166894509443"><ele>1169.0</ele><time>2026-05-02T12:47:23Z</time></trkpt><trkpt lat="42.08406802443263" lon="13.62424684734948"><ele>1169.0</ele><time>2026-05-02T12:47:24Z</time></trkpt><trkpt lat="42.084040427190516" lon="13.62433333372553"><ele>1169.0</ele><time>2026-05-02T12:47:25Z</time></trkpt><trkpt lat="42.084017375451204" lon="13.624431592771918"><ele>1168.1666666666667</ele><time>2026-05-02T12:47:26Z</time></trkpt><trkpt lat="42.08399428763614" lon="13.624547468639298"><ele>1167.3333333333335</ele><time>2026-05-02T12:47:27Z</time></trkpt><trkpt lat="42.083975230473264" lon="13.624661835590604"><ele>1166.5</ele><time>2026-05-02T12:47:28Z</time></trkpt><trkpt lat="42.08395736300572" lon="13.62477481291217"><ele>1165.6666666666667</ele><time>2026-05-02T12:47:29Z</time></trkpt><trkpt lat="42.083940168847285" lon="13.624889022927269"><ele>1164.8333333333333</ele><time>2026-05-02T12:47:30Z</time></trkpt><trkpt lat="42.08392743311856" lon="13.625006560393617"><ele>1164.0</ele><time>2026-05-02T12:47:31Z</time></trkpt><trkpt lat="42.083915872821215" lon="13.62512948333387"><ele>1164.0</ele><time>2026-05-02T12:47:31.999Z</time></trkpt><trkpt lat="42.083897815166935" lon="13.625244722187611"><ele>1164.0</ele><time>2026-05-02T12:47:32.999Z</time></trkpt><trkpt lat="42.08388120381551" lon="13.625357237828766"><ele>1164.0</ele><time>2026-05-02T12:47:33.999Z</time></trkpt><trkpt lat="42.08386687193732" lon="13.625470183140095"><ele>1164.0</ele><time>2026-05-02T12:47:34.999Z</time></trkpt><trkpt lat="42.0838543286987" lon="13.625581880034243"><ele>1164.0</ele><time>2026-05-02T12:47:35.999Z</time></trkpt><trkpt lat="42.08383877212412" lon="13.625691006207408"><ele>1164.0</ele><time>2026-05-02T12:47:36.999Z</time></trkpt><trkpt lat="42.083829843308365" lon="13.625790302688284"><ele>1162.7142857142858</ele><time>2026-05-02T12:47:37.999Z</time></trkpt><trkpt lat="42.08381608552394" lon="13.625883285389849"><ele>1161.4285714285713</ele><time>2026-05-02T12:47:38.999Z</time></trkpt><trkpt lat="42.08380309804099" lon="13.62597548302007"><ele>1160.142857142857</ele><time>2026-05-02T12:47:39.999Z</time></trkpt><trkpt lat="42.0837925009431" lon="13.626070823421488"><ele>1158.857142857143</ele><time>2026-05-02T12:47:40.999Z</time></trkpt><trkpt lat="42.08377716515029" lon="13.626169347992656"><ele>1157.5714285714284</ele><time>2026-05-02T12:47:41.999Z</time></trkpt><trkpt lat="42.08376504021421" lon="13.626271949190752"><ele>1156.2857142857142</ele><time>2026-05-02T12:47:42.999Z</time></trkpt><trkpt lat="42.08375340236277" lon="13.6263793311304"><ele>1155.0</ele><time>2026-05-02T12:47:43.999Z</time></trkpt><trkpt lat="42.083740641962144" lon="13.626486530771075"><ele>1153.4285714285713</ele><time>2026-05-02T12:47:44.999Z</time></trkpt><trkpt lat="42.083728003495494" lon="13.626592924458292"><ele>1151.857142857143</ele><time>2026-05-02T12:47:45.999Z</time></trkpt><trkpt lat="42.08371398056286" lon="13.62669471749925"><ele>1150.2857142857142</ele><time>2026-05-02T12:47:46.999Z</time></trkpt><trkpt lat="42.08369716996763" lon="13.62678664717697"><ele>1148.7142857142858</ele><time>2026-05-02T12:47:47.999Z</time></trkpt><trkpt lat="42.08367959831952" lon="13.626884823785975"><ele>1147.142857142857</ele><time>2026-05-02T12:47:48.999Z</time></trkpt><trkpt lat="42.083660205796456" lon="13.626977054515237"><ele>1145.5714285714284</ele><time>2026-05-02T12:47:49.999Z</time></trkpt><trkpt lat="42.08364204284392" lon="13.62707217805897"><ele>1144.0</ele><time>2026-05-02T12:47:50.999Z</time></trkpt><trkpt lat="42.08362332749323" lon="13.627157933266336"><ele>1142.6666666666665</ele><time>2026-05-02T12:47:52Z</time></trkpt><trkpt lat="42.08360893113759" lon="13.62725372693991"><ele>1141.3333333333333</ele><time>2026-05-02T12:47:53Z</time></trkpt><trkpt lat="42.08359212033477" lon="13.62734489156709"><ele>1140.0</ele><time>2026-05-02T12:47:54Z</time></trkpt><trkpt lat="42.08356129867924" lon="13.627437057983714"><ele>1138.6666666666667</ele><time>2026-05-02T12:47:55Z</time></trkpt><trkpt lat="42.08352226230723" lon="13.627522383665518"><ele>1137.3333333333335</ele><time>2026-05-02T12:47:56.001Z</time></trkpt><trkpt lat="42.08346689392625" lon="13.627596788283531"><ele>1136.0</ele><time>2026-05-02T12:47:57Z</time></trkpt><trkpt lat="42.08340348029492" lon="13.627663835258051"><ele>1136.0</ele><time>2026-05-02T12:47:58.001Z</time></trkpt><trkpt lat="42.08333776812647" lon="13.627721762436938"><ele>1136.0</ele><time>2026-05-02T12:47:59.001Z</time></trkpt><trkpt lat="42.08327221747123" lon="13.627767216972233"><ele>1136.0</ele><time>2026-05-02T12:48:00Z</time></trkpt><trkpt lat="42.08321234854352" lon="13.627806034000024"><ele>1136.0</ele><time>2026-05-02T12:48:01.001Z</time></trkpt><trkpt lat="42.08310009980129" lon="13.627878886708348"><ele>1136.0</ele><time>2026-05-02T12:48:03Z</time></trkpt><trkpt lat="42.08304475489859" lon="13.627924086952131"><ele>1136.0</ele><time>2026-05-02T12:48:04.001Z</time></trkpt><trkpt lat="42.08297828044135" lon="13.627974554226578"><ele>1134.1666666666667</ele><time>2026-05-02T12:48:05.001Z</time></trkpt><trkpt lat="42.08290304144101" lon="13.628023702061967"><ele>1132.3333333333335</ele><time>2026-05-02T12:48:06.001Z</time></trkpt><trkpt lat="42.0828271147775" lon="13.62807198934052"><ele>1130.5</ele><time>2026-05-02T12:48:07Z</time></trkpt><trkpt lat="42.08275748498502" lon="13.628120058192984"><ele>1128.6666666666667</ele><time>2026-05-02T12:48:08Z</time></trkpt><trkpt lat="42.082682947503024" lon="13.628165580117756"><ele>1126.8333333333333</ele><time>2026-05-02T12:48:09Z</time></trkpt><trkpt lat="42.08260458607786" lon="13.628217483466084"><ele>1125.0</ele><time>2026-05-02T12:48:10Z</time></trkpt><trkpt lat="42.08252365640023" lon="13.628270653428025"><ele>1125.0</ele><time>2026-05-02T12:48:11Z</time></trkpt><trkpt lat="42.082450002386125" lon="13.628331943228055"><ele>1125.0</ele><time>2026-05-02T12:48:12Z</time></trkpt><trkpt lat="42.08237311115595" lon="13.628379640079027"><ele>1125.0</ele><time>2026-05-02T12:48:13Z</time></trkpt><trkpt lat="42.082301866855055" lon="13.628426111009022"><ele>1125.0</ele><time>2026-05-02T12:48:14Z</time></trkpt><trkpt lat="42.08223468943596" lon="13.628469398180673"><ele>1125.0</ele><time>2026-05-02T12:48:15Z</time></trkpt><trkpt lat="42.08211530450691" lon="13.628531695181678"><ele>1124.0</ele><time>2026-05-02T12:48:17Z</time></trkpt><trkpt lat="42.08205508592947" lon="13.62856932137138"><ele>1123.0</ele><time>2026-05-02T12:48:18Z</time></trkpt><trkpt lat="42.08199549153664" lon="13.628596866515396"><ele>1122.0</ele><time>2026-05-02T12:48:19Z</time></trkpt><trkpt lat="42.08191564525903" lon="13.628615349260402"><ele>1121.0</ele><time>2026-05-02T12:48:20Z</time></trkpt><trkpt lat="42.08183319118261" lon="13.62862054841931"><ele>1120.0</ele><time>2026-05-02T12:48:21Z</time></trkpt><trkpt lat="42.08175792234793" lon="13.628607938130191"><ele>1119.0</ele><time>2026-05-02T12:48:22Z</time></trkpt><trkpt lat="42.081684749204136" lon="13.628584362876325"><ele>1118.0</ele><time>2026-05-02T12:48:23Z</time></trkpt><trkpt lat="42.08161440392242" lon="13.628552061341752"><ele>1115.7142857142858</ele><time>2026-05-02T12:48:24Z</time></trkpt><trkpt lat="42.08154824571314" lon="13.628522641938726"><ele>1113.4285714285716</ele><time>2026-05-02T12:48:25Z</time></trkpt><trkpt lat="42.081484378939074" lon="13.628491559061883"><ele>1111.142857142857</ele><time>2026-05-02T12:48:26Z</time></trkpt><trkpt lat="42.081420835007215" lon="13.628459078432114"><ele>1108.857142857143</ele><time>2026-05-02T12:48:27Z</time></trkpt><trkpt lat="42.08135541475559" lon="13.628424795052409"><ele>1106.5714285714284</ele><time>2026-05-02T12:48:28Z</time></trkpt><trkpt lat="42.08129167371162" lon="13.628393342859589"><ele>1104.2857142857142</ele><time>2026-05-02T12:48:29Z</time></trkpt><trkpt lat="42.081224142306" lon="13.628350200833495"><ele>1102.0</ele><time>2026-05-02T12:48:30Z</time></trkpt><trkpt lat="42.081154628683535" lon="13.628300608551434"><ele>1102.0</ele><time>2026-05-02T12:48:31Z</time></trkpt><trkpt lat="42.081089108113886" lon="13.628238184701587"><ele>1102.0</ele><time>2026-05-02T12:48:32Z</time></trkpt><trkpt lat="42.081029026699866" lon="13.628172651191942"><ele>1102.0</ele><time>2026-05-02T12:48:33Z</time></trkpt><trkpt lat="42.0809666719916" lon="13.628087098391331"><ele>1102.0</ele><time>2026-05-02T12:48:34Z</time></trkpt><trkpt lat="42.08090803282649" lon="13.627991633722981"><ele>1102.0</ele><time>2026-05-02T12:48:35Z</time></trkpt><trkpt lat="42.08083450817132" lon="13.627897802797891"><ele>1102.0</ele><time>2026-05-02T12:48:36Z</time></trkpt><trkpt lat="42.08076686792981" lon="13.627803832567972"><ele>1100.0</ele><time>2026-05-02T12:48:37Z</time></trkpt><trkpt lat="42.0806989641147" lon="13.62770953088548"><ele>1098.0</ele><time>2026-05-02T12:48:38Z</time></trkpt><trkpt lat="42.08063256779811" lon="13.62759627518363"><ele>1096.0</ele><time>2026-05-02T12:48:39Z</time></trkpt><trkpt lat="42.08056124456547" lon="13.627491830036856"><ele>1094.0</ele><time>2026-05-02T12:48:40Z</time></trkpt><trkpt lat="42.08049097104188" lon="13.627393684646393"><ele>1092.0</ele><time>2026-05-02T12:48:41Z</time></trkpt><trkpt lat="42.08043010485279" lon="13.627310104607385"><ele>1092.0</ele><time>2026-05-02T12:48:42Z</time></trkpt><trkpt lat="42.08039329254408" lon="13.627186465756127"><ele>1092.0</ele><time>2026-05-02T12:48:43Z</time></trkpt><trkpt lat="42.080355398555156" lon="13.627084884980542"><ele>1092.0</ele><time>2026-05-02T12:48:44Z</time></trkpt><trkpt lat="42.08032937638976" lon="13.626978335042912"><ele>1092.0</ele><time>2026-05-02T12:48:45Z</time></trkpt><trkpt lat="42.08031867855633" lon="13.626866592613341"><ele>1092.0</ele><time>2026-05-02T12:48:46Z</time></trkpt><trkpt lat="42.08031818266885" lon="13.626748157614536"><ele>1092.0</ele><time>2026-05-02T12:48:47Z</time></trkpt><trkpt lat="42.08033039205024" lon="13.626641312465"><ele>1092.4</ele><time>2026-05-02T12:48:48Z</time></trkpt><trkpt lat="42.080355689258674" lon="13.626520421449335"><ele>1092.8000000000002</ele><time>2026-05-02T12:48:49Z</time></trkpt><trkpt lat="42.08038667460733" lon="13.62640604695542"><ele>1093.2</ele><time>2026-05-02T12:48:50Z</time></trkpt><trkpt lat="42.0804200795223" lon="13.626294497893314"><ele>1093.6000000000001</ele><time>2026-05-02T12:48:51Z</time></trkpt><trkpt lat="42.08044732448267" lon="13.62616143328251"><ele>1094.0</ele><time>2026-05-02T12:48:52Z</time></trkpt><trkpt lat="42.080451879152115" lon="13.626040661094768"><ele>1094.3333333333335</ele><time>2026-05-02T12:48:53Z</time></trkpt><trkpt lat="42.080439303014565" lon="13.625926598999332"><ele>1094.6666666666667</ele><time>2026-05-02T12:48:54Z</time></trkpt><trkpt lat="42.080411671914874" lon="13.62582207555135"><ele>1095.0</ele><time>2026-05-02T12:48:55Z</time></trkpt><trkpt lat="42.08038304944622" lon="13.62570947047043"><ele>1095.3333333333333</ele><time>2026-05-02T12:48:56Z</time></trkpt><trkpt lat="42.08036458026485" lon="13.625593553395879"><ele>1095.6666666666665</ele><time>2026-05-02T12:48:57Z</time></trkpt><trkpt lat="42.08035323457429" lon="13.62546588499996"><ele>1096.0</ele><time>2026-05-02T12:48:58Z</time></trkpt><trkpt lat="42.080345953734984" lon="13.625331597212199"><ele>1096.6</ele><time>2026-05-02T12:48:59Z</time></trkpt><trkpt lat="42.0803385616947" lon="13.625199015414163"><ele>1097.1999999999998</ele><time>2026-05-02T12:49:00Z</time></trkpt><trkpt lat="42.08033546290558" lon="13.625055344452697"><ele>1097.8000000000002</ele><time>2026-05-02T12:49:01Z</time></trkpt><trkpt lat="42.08033603092537" lon="13.624910067094344"><ele>1098.4</ele><time>2026-05-02T12:49:02Z</time></trkpt><trkpt lat="42.08033364448998" lon="13.624765887602958"><ele>1099.0</ele><time>2026-05-02T12:49:03Z</time></trkpt><trkpt lat="42.08033792134418" lon="13.624635151445386"><ele>1099.0</ele><time>2026-05-02T12:49:04Z</time></trkpt><trkpt lat="42.080349640833845" lon="13.624507863490331"><ele>1099.0</ele><time>2026-05-02T12:49:05Z</time></trkpt><trkpt lat="42.08038005917477" lon="13.624399762963181"><ele>1099.0</ele><time>2026-05-02T12:49:06Z</time></trkpt><trkpt lat="42.08041775613147" lon="13.624280684749312"><ele>1099.0</ele><time>2026-05-02T12:49:07Z</time></trkpt><trkpt lat="42.08043943754429" lon="13.624165398048257"><ele>1099.0</ele><time>2026-05-02T12:49:08Z</time></trkpt><trkpt lat="42.08045578565291" lon="13.624044891025399"><ele>1099.0</ele><time>2026-05-02T12:49:09Z</time></trkpt><trkpt lat="42.08044656062105" lon="13.62392644087909"><ele>1099.0</ele><time>2026-05-02T12:49:10Z</time></trkpt><trkpt lat="42.08042645290144" lon="13.623794292097502"><ele>1099.0</ele><time>2026-05-02T12:49:11Z</time></trkpt><trkpt lat="42.080399473770825" lon="13.623651122844896"><ele>1099.0</ele><time>2026-05-02T12:49:12Z</time></trkpt><trkpt lat="42.080379718880835" lon="13.623508093344652"><ele>1099.0</ele><time>2026-05-02T12:49:13Z</time></trkpt><trkpt lat="42.08037023820565" lon="13.623371250375367"><ele>1099.4</ele><time>2026-05-02T12:49:14Z</time></trkpt><trkpt lat="42.08036480823996" lon="13.623243184503355"><ele>1099.8000000000002</ele><time>2026-05-02T12:49:15Z</time></trkpt><trkpt lat="42.08037259173727" lon="13.623098376990926"><ele>1100.1999999999998</ele><time>2026-05-02T12:49:16Z</time></trkpt><trkpt lat="42.08039259067259" lon="13.622966899166697"><ele>1100.6</ele><time>2026-05-02T12:49:17Z</time></trkpt><trkpt lat="42.08041156279226" lon="13.622859357071947"><ele>1101.0</ele><time>2026-05-02T12:49:18Z</time></trkpt><trkpt lat="42.080430590123825" lon="13.62274217888225"><ele>1101.0</ele><time>2026-05-02T12:49:19Z</time></trkpt><trkpt lat="42.08044224831849" lon="13.622624775115622"><ele>1101.0</ele><time>2026-05-02T12:49:20Z</time></trkpt><trkpt lat="42.08045104287341" lon="13.622506401649051"><ele>1101.0</ele><time>2026-05-02T12:49:21Z</time></trkpt><trkpt lat="42.08045999058199" lon="13.622409788787781"><ele>1101.0</ele><time>2026-05-02T12:49:22Z</time></trkpt><trkpt lat="42.08048998447868" lon="13.622301721349245"><ele>1101.0</ele><time>2026-05-02T12:49:23Z</time></trkpt><trkpt lat="42.080533657485866" lon="13.622211349068573"><ele>1101.0</ele><time>2026-05-02T12:49:24Z</time></trkpt><trkpt lat="42.08058500949245" lon="13.622117188386781"><ele>1101.0</ele><time>2026-05-02T12:49:25Z</time></trkpt><trkpt lat="42.08063250150641" lon="13.622019796314726"><ele>1101.0</ele><time>2026-05-02T12:49:26Z</time></trkpt><trkpt lat="42.08068684214904" lon="13.621922578151056"><ele>1101.0</ele><time>2026-05-02T12:49:27Z</time></trkpt><trkpt lat="42.08075008808102" lon="13.621835194864882"><ele>1101.0</ele><time>2026-05-02T12:49:28Z</time></trkpt><trkpt lat="42.08081264998346" lon="13.621769839743953"><ele>1101.0</ele><time>2026-05-02T12:49:29Z</time></trkpt><trkpt lat="42.08087082796837" lon="13.621696431608328"><ele>1101.0</ele><time>2026-05-02T12:49:30Z</time></trkpt><trkpt lat="42.080916123008954" lon="13.621623177426597"><ele>1102.6</ele><time>2026-05-02T12:49:31Z</time></trkpt><trkpt lat="42.08095220588571" lon="13.621523619385941"><ele>1104.1999999999998</ele><time>2026-05-02T12:49:32Z</time></trkpt><trkpt lat="42.08098236441124" lon="13.621403426090025"><ele>1105.8000000000002</ele><time>2026-05-02T12:49:33Z</time></trkpt><trkpt lat="42.08102209632966" lon="13.621288055275375"><ele>1107.4</ele><time>2026-05-02T12:49:34Z</time></trkpt><trkpt lat="42.08106702072388" lon="13.621183384173158"><ele>1109.0</ele><time>2026-05-02T12:49:35Z</time></trkpt><trkpt lat="42.08111656289154" lon="13.621062517431788"><ele>1109.0</ele><time>2026-05-02T12:49:36Z</time></trkpt><trkpt lat="42.08116152797325" lon="13.620939511890414"><ele>1109.0</ele><time>2026-05-02T12:49:37Z</time></trkpt><trkpt lat="42.08119638628835" lon="13.620828258926297"><ele>1109.0</ele><time>2026-05-02T12:49:38Z</time></trkpt><trkpt lat="42.08122707654592" lon="13.620696710518661"><ele>1109.0</ele><time>2026-05-02T12:49:39Z</time></trkpt><trkpt lat="42.081255160765465" lon="13.620566852209357"><ele>1109.0</ele><time>2026-05-02T12:49:40Z</time></trkpt><trkpt lat="42.08127376842198" lon="13.620434096255435"><ele>1107.6000000000001</ele><time>2026-05-02T12:49:41Z</time></trkpt><trkpt lat="42.08131099954921" lon="13.620300558322354"><ele>1106.2</ele><time>2026-05-02T12:49:42Z</time></trkpt><trkpt lat="42.08134831472077" lon="13.620184111723379"><ele>1104.8000000000002</ele><time>2026-05-02T12:49:43Z</time></trkpt><trkpt lat="42.08138424551346" lon="13.620076126199987"><ele>1103.4</ele><time>2026-05-02T12:49:44Z</time></trkpt><trkpt lat="42.08141391296769" lon="13.619971286347942"><ele>1102.0</ele><time>2026-05-02T12:49:45Z</time></trkpt><trkpt lat="42.08144234958027" lon="13.61984288411146"><ele>1102.0</ele><time>2026-05-02T12:49:46Z</time></trkpt><trkpt lat="42.08147241765684" lon="13.619714046682747"><ele>1102.0</ele><time>2026-05-02T12:49:47Z</time></trkpt><trkpt lat="42.081501278539676" lon="13.619595146500073"><ele>1102.0</ele><time>2026-05-02T12:49:48Z</time></trkpt><trkpt lat="42.081531959320614" lon="13.619467539921693"><ele>1102.0</ele><time>2026-05-02T12:49:49Z</time></trkpt><trkpt lat="42.08156585797929" lon="13.61934980497085"><ele>1102.0</ele><time>2026-05-02T12:49:50Z</time></trkpt><trkpt lat="42.08161318887589" lon="13.619230724288615"><ele>1103.4</ele><time>2026-05-02T12:49:51Z</time></trkpt><trkpt lat="42.08164236184938" lon="13.619129836907582"><ele>1104.8000000000002</ele><time>2026-05-02T12:49:52Z</time></trkpt><trkpt lat="42.081665623232716" lon="13.619024228656276"><ele>1106.2</ele><time>2026-05-02T12:49:53Z</time></trkpt><trkpt lat="42.081699264674604" lon="13.618910642969714"><ele>1107.6000000000001</ele><time>2026-05-02T12:49:54Z</time></trkpt><trkpt lat="42.081740366795664" lon="13.61878847494355"><ele>1109.0</ele><time>2026-05-02T12:49:55Z</time></trkpt><trkpt lat="42.08178467387852" lon="13.61866224949984"><ele>1107.1666666666667</ele><time>2026-05-02T12:49:56Z</time></trkpt><trkpt lat="42.08182154277205" lon="13.61854393338403"><ele>1105.3333333333335</ele><time>2026-05-02T12:49:56.999Z</time></trkpt><trkpt lat="42.08185185261538" lon="13.618435963544878"><ele>1103.5</ele><time>2026-05-02T12:49:58.001Z</time></trkpt><trkpt lat="42.08188985617031" lon="13.618328925205171"><ele>1101.6666666666667</ele><time>2026-05-02T12:49:59.001Z</time></trkpt><trkpt lat="42.081919100789754" lon="13.618229566412818"><ele>1099.8333333333333</ele><time>2026-05-02T12:50:00.001Z</time></trkpt><trkpt lat="42.08195462896013" lon="13.618113602100522"><ele>1098.0</ele><time>2026-05-02T12:50:01.001Z</time></trkpt><trkpt lat="42.0819816955148" lon="13.618003474358114"><ele>1098.0</ele><time>2026-05-02T12:50:02.001Z</time></trkpt><trkpt lat="42.08201293231252" lon="13.617892483638716"><ele>1098.0</ele><time>2026-05-02T12:50:03.001Z</time></trkpt><trkpt lat="42.08204749783957" lon="13.61777302233267"><ele>1098.0</ele><time>2026-05-02T12:50:04.001Z</time></trkpt><trkpt lat="42.08207591931393" lon="13.617652859423774"><ele>1098.0</ele><time>2026-05-02T12:50:05.001Z</time></trkpt><trkpt lat="42.08210234163214" lon="13.617530668382372"><ele>1098.0</ele><time>2026-05-02T12:50:06.001Z</time></trkpt><trkpt lat="42.08211844879368" lon="13.617418616299101"><ele>1096.1666666666667</ele><time>2026-05-02T12:50:07.001Z</time></trkpt><trkpt lat="42.082139161153194" lon="13.617303450487574"><ele>1094.3333333333333</ele><time>2026-05-02T12:50:08.001Z</time></trkpt><trkpt lat="42.082156916999004" lon="13.617202893800155"><ele>1092.5</ele><time>2026-05-02T12:50:09.001Z</time></trkpt><trkpt lat="42.08217944575597" lon="13.617081562028048"><ele>1090.6666666666665</ele><time>2026-05-02T12:50:10.001Z</time></trkpt><trkpt lat="42.08220608912662" lon="13.61696989900073"><ele>1088.8333333333333</ele><time>2026-05-02T12:50:11.001Z</time></trkpt><trkpt lat="42.082226222586954" lon="13.616872049352564"><ele>1087.0</ele><time>2026-05-02T12:50:12.001Z</time></trkpt><trkpt lat="42.08223947594943" lon="13.6167833975794"><ele>1085.8333333333333</ele><time>2026-05-02T12:50:13.001Z</time></trkpt><trkpt lat="42.082247691029465" lon="13.616685887499532"><ele>1084.6666666666665</ele><time>2026-05-02T12:50:14.001Z</time></trkpt><trkpt lat="42.082228903112494" lon="13.616520579501774"><ele>1083.5</ele><time>2026-05-02T12:50:16.001Z</time></trkpt><trkpt lat="42.08221806220201" lon="13.616421575179224"><ele>1082.3333333333333</ele><time>2026-05-02T12:50:17.001Z</time></trkpt><trkpt lat="42.082209042571435" lon="13.616314393596888"><ele>1081.1666666666667</ele><time>2026-05-02T12:50:18.001Z</time></trkpt><trkpt lat="42.08220413111213" lon="13.616197750177623"><ele>1080.0</ele><time>2026-05-02T12:50:19.001Z</time></trkpt><trkpt lat="42.08220553243061" lon="13.616083410946286"><ele>1078.6666666666667</ele><time>2026-05-02T12:50:20.001Z</time></trkpt><trkpt lat="42.082202016402306" lon="13.615969965876127"><ele>1077.3333333333333</ele><time>2026-05-02T12:50:21.001Z</time></trkpt><trkpt lat="42.08220529288218" lon="13.615863202776064"><ele>1076.0</ele><time>2026-05-02T12:50:22.001Z</time></trkpt><trkpt lat="42.0822089286525" lon="13.61574366801933"><ele>1074.6666666666665</ele><time>2026-05-02T12:50:23.001Z</time></trkpt><trkpt lat="42.082212794854414" lon="13.615628717974909"><ele>1073.3333333333333</ele><time>2026-05-02T12:50:24Z</time></trkpt><trkpt lat="42.08220844874141" lon="13.615509187714775"><ele>1072.0</ele><time>2026-05-02T12:50:25Z</time></trkpt><trkpt lat="42.08220442466446" lon="13.615362818699706"><ele>1071.0</ele><time>2026-05-02T12:50:27Z</time></trkpt><trkpt lat="42.08219496160629" lon="13.615210806019896"><ele>1070.0</ele><time>2026-05-02T12:50:29Z</time></trkpt><trkpt lat="42.082191381392676" lon="13.615120510598478"><ele>1069.0</ele><time>2026-05-02T12:50:30Z</time></trkpt><trkpt lat="42.08218791236877" lon="13.615028181096786"><ele>1068.0</ele><time>2026-05-02T12:50:31Z</time></trkpt><trkpt lat="42.08218188268049" lon="13.614930766658949"><ele>1067.0</ele><time>2026-05-02T12:50:32Z</time></trkpt><trkpt lat="42.08217786875663" lon="13.614838979605796"><ele>1066.0</ele><time>2026-05-02T12:50:33Z</time></trkpt><trkpt lat="42.08217408674112" lon="13.614734715127819"><ele>1066.0</ele><time>2026-05-02T12:50:34Z</time></trkpt><trkpt lat="42.08217582437438" lon="13.614620739623124"><ele>1066.0</ele><time>2026-05-02T12:50:35Z</time></trkpt><trkpt lat="42.082171626034594" lon="13.614511922949807"><ele>1066.0</ele><time>2026-05-02T12:50:36Z</time></trkpt><trkpt lat="42.08216622266548" lon="13.614400814794367"><ele>1066.0</ele><time>2026-05-02T12:50:37Z</time></trkpt><trkpt lat="42.08216330008433" lon="13.614295209740355"><ele>1066.0</ele><time>2026-05-02T12:50:38Z</time></trkpt><trkpt lat="42.08215834398593" lon="13.61419023410111"><ele>1066.0</ele><time>2026-05-02T12:50:39Z</time></trkpt><trkpt lat="42.08215287983952" lon="13.614078858946863"><ele>1064.8333333333333</ele><time>2026-05-02T12:50:40Z</time></trkpt><trkpt lat="42.0821478923614" lon="13.613977252199652"><ele>1063.6666666666665</ele><time>2026-05-02T12:50:41Z</time></trkpt><trkpt lat="42.082142482263386" lon="13.613859507582138"><ele>1062.5</ele><time>2026-05-02T12:50:42Z</time></trkpt><trkpt lat="42.08213512444217" lon="13.613735304505925"><ele>1061.3333333333333</ele><time>2026-05-02T12:50:43Z</time></trkpt><trkpt lat="42.08212648599756" lon="13.613628878813628"><ele>1060.1666666666667</ele><time>2026-05-02T12:50:44Z</time></trkpt><trkpt lat="42.08211596608402" lon="13.613513406529007"><ele>1059.0</ele><time>2026-05-02T12:50:45Z</time></trkpt><trkpt lat="42.082102367317056" lon="13.613394028086828"><ele>1058.1666666666667</ele><time>2026-05-02T12:50:46Z</time></trkpt><trkpt lat="42.08209686080388" lon="13.613276323904937"><ele>1057.3333333333333</ele><time>2026-05-02T12:50:47Z</time></trkpt><trkpt lat="42.0820928196141" lon="13.61316640649281"><ele>1056.5</ele><time>2026-05-02T12:50:48Z</time></trkpt><trkpt lat="42.082090638702084" lon="13.613050760265917"><ele>1055.6666666666665</ele><time>2026-05-02T12:50:49Z</time></trkpt><trkpt lat="42.082083473287284" lon="13.612937305332679"><ele>1054.8333333333333</ele><time>2026-05-02T12:50:50Z</time></trkpt><trkpt lat="42.08208209905822" lon="13.612814412841844"><ele>1054.0</ele><time>2026-05-02T12:50:51Z</time></trkpt><trkpt lat="42.0820805137175" lon="13.612711140237408"><ele>1053.1666666666665</ele><time>2026-05-02T12:50:52Z</time></trkpt><trkpt lat="42.08207845723489" lon="13.612597703929323"><ele>1052.3333333333333</ele><time>2026-05-02T12:50:53Z</time></trkpt><trkpt lat="42.08207649962544" lon="13.612479261855004"><ele>1051.5</ele><time>2026-05-02T12:50:54Z</time></trkpt><trkpt lat="42.08206915251053" lon="13.612364153656518"><ele>1050.6666666666667</ele><time>2026-05-02T12:50:55Z</time></trkpt><trkpt lat="42.08205368520079" lon="13.612251226122034"><ele>1049.8333333333335</ele><time>2026-05-02T12:50:56Z</time></trkpt><trkpt lat="42.082044073096654" lon="13.612142458916203"><ele>1049.0</ele><time>2026-05-02T12:50:57Z</time></trkpt><trkpt lat="42.08203931325373" lon="13.612043991523283"><ele>1047.6000000000001</ele><time>2026-05-02T12:50:58Z</time></trkpt><trkpt lat="42.08203523703493" lon="13.611880995511681"><ele>1046.2</ele><time>2026-05-02T12:51:00Z</time></trkpt><trkpt lat="42.082026166386854" lon="13.611728696366162"><ele>1044.8000000000002</ele><time>2026-05-02T12:51:02Z</time></trkpt><trkpt lat="42.082016856758415" lon="13.611578147327682"><ele>1043.4</ele><time>2026-05-02T12:51:04Z</time></trkpt><trkpt lat="42.08201729419343" lon="13.611491258888249"><ele>1042.0</ele><time>2026-05-02T12:51:05Z</time></trkpt><trkpt lat="42.08201227004545" lon="13.611404778643251"><ele>1042.0</ele><time>2026-05-02T12:51:06Z</time></trkpt><trkpt lat="42.0820103887903" lon="13.611317452636357"><ele>1042.0</ele><time>2026-05-02T12:51:07Z</time></trkpt><trkpt lat="42.08201383451952" lon="13.611164699389084"><ele>1042.0</ele><time>2026-05-02T12:51:09Z</time></trkpt><trkpt lat="42.08202623830458" lon="13.61100812997304"><ele>1042.0</ele><time>2026-05-02T12:51:11Z</time></trkpt><trkpt lat="42.08204455811844" lon="13.610838018819202"><ele>1042.0</ele><time>2026-05-02T12:51:13Z</time></trkpt><trkpt lat="42.08206566372372" lon="13.610756490244453"><ele>1039.8</ele><time>2026-05-02T12:51:14Z</time></trkpt><trkpt lat="42.082095411860415" lon="13.610676606166024"><ele>1037.6</ele><time>2026-05-02T12:51:15Z</time></trkpt><trkpt lat="42.082134868735665" lon="13.610606177904335"><ele>1035.3999999999999</ele><time>2026-05-02T12:51:16Z</time></trkpt><trkpt lat="42.08221671074927" lon="13.61051596208376"><ele>1033.2</ele><time>2026-05-02T12:51:18Z</time></trkpt><trkpt lat="42.08231127256584" lon="13.610466122558197"><ele>1031.0</ele><time>2026-05-02T12:51:20Z</time></trkpt><trkpt lat="42.08242168965411" lon="13.610455857998678"><ele>1031.8</ele><time>2026-05-02T12:51:22Z</time></trkpt><trkpt lat="42.082533129952495" lon="13.610456058206747"><ele>1032.6</ele><time>2026-05-02T12:51:24Z</time></trkpt><trkpt lat="42.08263028071562" lon="13.610443980826805"><ele>1033.4</ele><time>2026-05-02T12:51:26Z</time></trkpt><trkpt lat="42.082723318292594" lon="13.610396678683637"><ele>1034.2</ele><time>2026-05-02T12:51:28Z</time></trkpt><trkpt lat="42.08279952639833" lon="13.610324337359552"><ele>1035.0</ele><time>2026-05-02T12:51:30Z</time></trkpt><trkpt lat="42.08283264012366" lon="13.610247413318401"><ele>1035.0</ele><time>2026-05-02T12:51:32Z</time></trkpt><trkpt lat="42.08283448101711" lon="13.610148862739093"><ele>1035.0</ele><time>2026-05-02T12:51:34Z</time></trkpt><trkpt lat="42.08276677667155" lon="13.610151310601966"><ele>1035.0</ele><time>2026-05-02T12:51:55Z</time></trkpt><trkpt lat="42.08270105290768" lon="13.610139370128556"><ele>1035.0</ele><time>2026-05-02T12:51:57Z</time></trkpt><trkpt lat="42.08263281614343" lon="13.610096585718093"><ele>1035.0</ele><time>2026-05-02T12:51:59Z</time></trkpt><trkpt lat="42.08256202977922" lon="13.610068502230598"><ele>1035.0</ele><time>2026-05-02T12:52:01Z</time></trkpt><trkpt lat="42.08249792681037" lon="13.610074561918612"><ele>1035.0</ele><time>2026-05-02T12:52:03Z</time></trkpt><trkpt lat="42.08242635781275" lon="13.61006648030941"><ele>1032.2</ele><time>2026-05-02T12:52:05.001Z</time></trkpt><trkpt lat="42.08234653818645" lon="13.610042951684523"><ele>1029.4</ele><time>2026-05-02T12:52:07.001Z</time></trkpt><trkpt lat="42.08224786766947" lon="13.610021630460169"><ele>1026.6</ele><time>2026-05-02T12:52:09.001Z</time></trkpt><trkpt lat="42.082184714340855" lon="13.610017553364854"><ele>1023.8</ele><time>2026-05-02T12:52:10.001Z</time></trkpt><trkpt lat="42.082071564497156" lon="13.610000924190352"><ele>1021.0</ele><time>2026-05-02T12:52:12Z</time></trkpt><trkpt lat="42.081967925323504" lon="13.610006073388933"><ele>1021.0</ele><time>2026-05-02T12:52:14Z</time></trkpt><trkpt lat="42.081855182050944" lon="13.610022365768513"><ele>1020.9999999999999</ele><time>2026-05-02T12:52:16Z</time></trkpt><trkpt lat="42.08174722339235" lon="13.610033627023306"><ele>1020.9999999999999</ele><time>2026-05-02T12:52:18Z</time></trkpt><trkpt lat="42.08165702049846" lon="13.610027525333289"><ele>1021.0</ele><time>2026-05-02T12:52:20Z</time></trkpt><trkpt lat="42.081572638797134" lon="13.610045892383335"><ele>1021.0</ele><time>2026-05-02T12:52:22Z</time></trkpt><trkpt lat="42.081457605882704" lon="13.61008846183213"><ele>1018.9999999999999</ele><time>2026-05-02T12:52:24Z</time></trkpt><trkpt lat="42.08136006553934" lon="13.610149472735419"><ele>1017.0</ele><time>2026-05-02T12:52:26Z</time></trkpt><trkpt lat="42.08127295885137" lon="13.610209802648079"><ele>1015.0</ele><time>2026-05-02T12:52:28Z</time></trkpt><trkpt lat="42.0812097250944" lon="13.610262302599864"><ele>1013.0</ele><time>2026-05-02T12:52:30Z</time></trkpt><trkpt lat="42.08114468577492" lon="13.610288750382956"><ele>1010.9999999999999</ele><time>2026-05-02T12:52:32Z</time></trkpt><trkpt lat="42.0810590236171" lon="13.610269325107254"><ele>1009.0</ele><time>2026-05-02T12:52:35Z</time></trkpt><trkpt lat="42.08096521504955" lon="13.610254570860064"><ele>1008.9999999999999</ele><time>2026-05-02T12:52:38Z</time></trkpt><trkpt lat="42.08088831867876" lon="13.610222469309205"><ele>1009.0</ele><time>2026-05-02T12:52:40Z</time></trkpt><trkpt lat="42.08082175900501" lon="13.610208972636807"><ele>1009.0</ele><time>2026-05-02T12:52:42Z</time></trkpt><trkpt lat="42.080753424806744" lon="13.610202005879701"><ele>1009.0</ele><time>2026-05-02T12:52:44Z</time></trkpt><trkpt lat="42.080678488815344" lon="13.610229852000908"><ele>1008.9999999999999</ele><time>2026-05-02T12:54:10.001Z</time></trkpt><trkpt lat="42.08060332889639" lon="13.610250815876828"><ele>1009.0</ele><time>2026-05-02T12:54:13.001Z</time></trkpt><trkpt lat="42.080515548601234" lon="13.610266423640901"><ele>1007.3333333333333</ele><time>2026-05-02T12:54:16.001Z</time></trkpt><trkpt lat="42.08044096126981" lon="13.610286707488617"><ele>1005.6666666666666</ele><time>2026-05-02T12:54:19.001Z</time></trkpt><trkpt lat="42.08037662346315" lon="13.610311047042375"><ele>1004.0</ele><time>2026-05-02T12:54:23.001Z</time></trkpt><trkpt lat="42.08029411572063" lon="13.610334244333178"><ele>1002.3333333333333</ele><time>2026-05-02T12:54:30Z</time></trkpt><trkpt lat="42.080197146626716" lon="13.61035911723853"><ele>1000.6666666666666</ele><time>2026-05-02T12:54:33Z</time></trkpt><trkpt lat="42.080127497611805" lon="13.610350805769135"><ele>999.0</ele><time>2026-05-02T12:54:35Z</time></trkpt><trkpt lat="42.08005375237698" lon="13.610341580898739"><ele>999.0</ele><time>2026-05-02T12:54:37Z</time></trkpt><trkpt lat="42.079945829248125" lon="13.610353961671647"><ele>999.0000000000001</ele><time>2026-05-02T12:54:39Z</time></trkpt><trkpt lat="42.079845216543085" lon="13.610380607904109"><ele>999.0000000000001</ele><time>2026-05-02T12:54:41Z</time></trkpt><trkpt lat="42.0797490825064" lon="13.610409923320015"><ele>999.0</ele><time>2026-05-02T12:54:43Z</time></trkpt><trkpt lat="42.079659317749375" lon="13.61044014738733"><ele>999.0</ele><time>2026-05-02T12:54:45Z</time></trkpt><trkpt lat="42.07959229301995" lon="13.610449068697275"><ele>996.4000000000001</ele><time>2026-05-02T12:54:47Z</time></trkpt><trkpt lat="42.07950749668589" lon="13.610442774750394"><ele>993.8000000000001</ele><time>2026-05-02T12:54:49Z</time></trkpt><trkpt lat="42.079407208279726" lon="13.610388709723974"><ele>991.1999999999999</ele><time>2026-05-02T12:54:51Z</time></trkpt><trkpt lat="42.07930034120138" lon="13.610335725271959"><ele>988.5999999999999</ele><time>2026-05-02T12:54:53Z</time></trkpt><trkpt lat="42.0791919170819" lon="13.610303146677305"><ele>986.0</ele><time>2026-05-02T12:54:55Z</time></trkpt><trkpt lat="42.079103811098086" lon="13.610262025646266"><ele>983.0</ele><time>2026-05-02T12:54:57Z</time></trkpt><trkpt lat="42.079039617487304" lon="13.610261985555235"><ele>979.9999999999999</ele><time>2026-05-02T12:54:59Z</time></trkpt><trkpt lat="42.07893489755829" lon="13.610247794975187"><ele>976.9999999999999</ele><time>2026-05-02T12:55:03Z</time></trkpt><trkpt lat="42.078850136312404" lon="13.610255410822875"><ele>974.0</ele><time>2026-05-02T12:55:05Z</time></trkpt><trkpt lat="42.07874350935487" lon="13.610275274341307"><ele>971.0</ele><time>2026-05-02T12:55:07Z</time></trkpt><trkpt lat="42.07863318861137" lon="13.610275024771099"><ele>971.0</ele><time>2026-05-02T12:55:09Z</time></trkpt><trkpt lat="42.078516799490814" lon="13.61025492390486"><ele>970.9999999999999</ele><time>2026-05-02T12:55:11Z</time></trkpt><trkpt lat="42.07838888413411" lon="13.610235427543971"><ele>970.9999999999999</ele><time>2026-05-02T12:55:13Z</time></trkpt><trkpt lat="42.07832538094021" lon="13.61022603920887"><ele>971.0</ele><time>2026-05-02T12:55:14Z</time></trkpt><trkpt lat="42.07821878973855" lon="13.610224665689701"><ele>971.0</ele><time>2026-05-02T12:55:16Z</time></trkpt><trkpt lat="42.078127044197664" lon="13.610260928507028"><ele>968.8</ele><time>2026-05-02T12:55:18Z</time></trkpt><trkpt lat="42.07805645415617" lon="13.610297006720138"><ele>966.5999999999999</ele><time>2026-05-02T12:55:20Z</time></trkpt><trkpt lat="42.077966650356956" lon="13.610309821459404"><ele>964.4</ele><time>2026-05-02T12:55:22Z</time></trkpt><trkpt lat="42.07784634831204" lon="13.610298605059615"><ele>962.2</ele><time>2026-05-02T12:55:24Z</time></trkpt><trkpt lat="42.077726914820396" lon="13.610278221015555"><ele>960.0</ele><time>2026-05-02T12:55:26Z</time></trkpt><trkpt lat="42.077613698172705" lon="13.610295174317967"><ele>960.2</ele><time>2026-05-02T12:55:28Z</time></trkpt><trkpt lat="42.07749983040354" lon="13.610342754751171"><ele>960.4</ele><time>2026-05-02T12:55:30Z</time></trkpt><trkpt lat="42.07740747839304" lon="13.610338513905138"><ele>960.5999999999999</ele><time>2026-05-02T12:55:32Z</time></trkpt><trkpt lat="42.077321617658804" lon="13.610341331730613"><ele>960.8</ele><time>2026-05-02T12:55:34Z</time></trkpt><trkpt lat="42.0772417452001" lon="13.610378767647997"><ele>961.0</ele><time>2026-05-02T12:55:36Z</time></trkpt><trkpt lat="42.07714750665022" lon="13.610416085455865"><ele>958.1999999999999</ele><time>2026-05-02T12:55:38Z</time></trkpt><trkpt lat="42.077062673239304" lon="13.6104372391199"><ele>955.3999999999999</ele><time>2026-05-02T12:55:40Z</time></trkpt><trkpt lat="42.076971771454176" lon="13.61040710499219"><ele>952.6</ele><time>2026-05-02T12:55:42Z</time></trkpt><trkpt lat="42.076869558430566" lon="13.610390753715627"><ele>949.8</ele><time>2026-05-02T12:55:44Z</time></trkpt><trkpt lat="42.07675358994295" lon="13.610396681413189"><ele>947.0</ele><time>2026-05-02T12:55:45.999Z</time></trkpt><trkpt lat="42.076660842925094" lon="13.610404006624629"><ele>943.8</ele><time>2026-05-02T12:55:47.999Z</time></trkpt><trkpt lat="42.07657324341887" lon="13.61040521288577"><ele>940.6</ele><time>2026-05-02T12:55:49.999Z</time></trkpt><trkpt lat="42.07646544523027" lon="13.610400753033128"><ele>937.3999999999999</ele><time>2026-05-02T12:55:51.999Z</time></trkpt><trkpt lat="42.076367508524676" lon="13.61042488870694"><ele>934.1999999999999</ele><time>2026-05-02T12:55:53.999Z</time></trkpt><trkpt lat="42.07627982513142" lon="13.61044028615075"><ele>931.0</ele><time>2026-05-02T12:55:55.999Z</time></trkpt><trkpt lat="42.07618751955879" lon="13.610442794493942"><ele>930.9999999999999</ele><time>2026-05-02T12:55:57.999Z</time></trkpt><trkpt lat="42.07610151781606" lon="13.610515741975368"><ele>931.0</ele><time>2026-05-02T12:55:59.999Z</time></trkpt><trkpt lat="42.076046223509124" lon="13.610592298759018"><ele>931.0</ele><time>2026-05-02T12:56:01.999Z</time></trkpt><trkpt lat="42.07600446942012" lon="13.610664859684608"><ele>931.0</ele><time>2026-05-02T12:56:03.999Z</time></trkpt><trkpt lat="42.07594218228272" lon="13.61072705172255"><ele>930.9999999999999</ele><time>2026-05-02T12:56:05.999Z</time></trkpt><trkpt lat="42.075869428674146" lon="13.610775296825036"><ele>931.0</ele><time>2026-05-02T12:56:07.999Z</time></trkpt><trkpt lat="42.075802950903864" lon="13.610824677079304"><ele>931.0</ele><time>2026-05-02T12:56:09.999Z</time></trkpt><trkpt lat="42.075818111593314" lon="13.610910215115084"><ele>931.0</ele><time>2026-05-02T12:56:10.999Z</time></trkpt><trkpt lat="42.07576237952448" lon="13.61096166980452"><ele>931.0</ele><time>2026-05-02T12:56:13.999Z</time></trkpt><trkpt lat="42.07570683086082" lon="13.61101295514631"><ele>931.0</ele><time>2026-05-02T12:56:18Z</time></trkpt><trkpt lat="42.07565016372841" lon="13.611065273104613"><ele>931.0</ele><time>2026-05-02T12:56:21Z</time></trkpt><trkpt lat="42.07559408076599" lon="13.611120210435267"><ele>931.0</ele><time>2026-05-02T12:56:24Z</time></trkpt><trkpt lat="42.07566464430078" lon="13.611051903913985"><ele>931.0</ele><time>2026-05-02T12:59:29Z</time></trkpt><trkpt lat="42.07572244894469" lon="13.610998535745196"><ele>919.0</ele><time>2026-05-02T12:59:36Z</time></trkpt><trkpt lat="42.07579413142116" lon="13.611015317772594"><ele>931.0</ele><time>2026-05-02T12:59:50Z</time></trkpt><trkpt lat="42.07585318303755" lon="13.610965251763103"><ele>931.0</ele><time>2026-05-02T12:59:59Z</time></trkpt></trkseg><trkseg><trkpt lat="42.07550758066643" lon="13.61106320025209"><ele>918.9999999999999</ele><time>2026-05-02T13:45:23.999Z</time></trkpt><trkpt lat="42.07544166535808" lon="13.611065922369193"><ele>919.0</ele><time>2026-05-02T13:46:03.999Z</time></trkpt><trkpt lat="42.07536630813489" lon="13.611087158042558"><ele>919.0</ele><time>2026-05-02T13:46:06.998Z</time></trkpt><trkpt lat="42.07529198011363" lon="13.611155818219915"><ele>919.0</ele><time>2026-05-02T13:46:09.998Z</time></trkpt><trkpt lat="42.07522914084086" lon="13.611208377844788"><ele>918.9999999999999</ele><time>2026-05-02T13:46:11.998Z</time></trkpt><trkpt lat="42.075171049980014" lon="13.61125967626908"><ele>919.0</ele><time>2026-05-02T13:46:13.998Z</time></trkpt><trkpt lat="42.075103739658545" lon="13.611317535688746"><ele>918.8000000000001</ele><time>2026-05-02T13:46:15.998Z</time></trkpt><trkpt lat="42.07501271712287" lon="13.611330204616667"><ele>918.6000000000001</ele><time>2026-05-02T13:46:17.998Z</time></trkpt><trkpt lat="42.074874730669585" lon="13.611303188864456"><ele>918.4</ele><time>2026-05-02T13:46:19.998Z</time></trkpt><trkpt lat="42.07478478124518" lon="13.611261796014466"><ele>918.2</ele><time>2026-05-02T13:46:20.998Z</time></trkpt><trkpt lat="42.07469538865291" lon="13.611245026169682"><ele>918.0</ele><time>2026-05-02T13:46:21.998Z</time></trkpt><trkpt lat="42.07460608295053" lon="13.611210604219922"><ele>916.4</ele><time>2026-05-02T13:46:22.998Z</time></trkpt><trkpt lat="42.07451861074019" lon="13.611169662803734"><ele>914.8</ele><time>2026-05-02T13:46:23.998Z</time></trkpt><trkpt lat="42.07442410482782" lon="13.611120942840493"><ele>913.2</ele><time>2026-05-02T13:46:24.998Z</time></trkpt><trkpt lat="42.07433356674305" lon="13.611073353976948"><ele>911.6</ele><time>2026-05-02T13:46:25.998Z</time></trkpt><trkpt lat="42.07423884866812" lon="13.611022264271384"><ele>910.0</ele><time>2026-05-02T13:46:26.998Z</time></trkpt><trkpt lat="42.0741462868578" lon="13.610969944396743"><ele>908.4</ele><time>2026-05-02T13:46:27.998Z</time></trkpt><trkpt lat="42.074059698699614" lon="13.610919339181223"><ele>906.8</ele><time>2026-05-02T13:46:28.998Z</time></trkpt><trkpt lat="42.07397010144268" lon="13.610863641499527"><ele>905.2</ele><time>2026-05-02T13:46:29.998Z</time></trkpt><trkpt lat="42.073886035438456" lon="13.610805929033893"><ele>903.6</ele><time>2026-05-02T13:46:30.998Z</time></trkpt><trkpt lat="42.07380588094856" lon="13.610744478708945"><ele>902.0</ele><time>2026-05-02T13:46:31.998Z</time></trkpt><trkpt lat="42.07372091818475" lon="13.610679848456767"><ele>902.0</ele><time>2026-05-02T13:46:32.998Z</time></trkpt><trkpt lat="42.07362790360139" lon="13.610634342025323"><ele>902.0</ele><time>2026-05-02T13:46:33.998Z</time></trkpt><trkpt lat="42.073548945504974" lon="13.61053971880664"><ele>902.0</ele><time>2026-05-02T13:46:34.999Z</time></trkpt><trkpt lat="42.07345980388406" lon="13.610443980657411"><ele>902.0</ele><time>2026-05-02T13:46:35.999Z</time></trkpt><trkpt lat="42.073367975199545" lon="13.610350240359963"><ele>902.0</ele><time>2026-05-02T13:46:36.999Z</time></trkpt><trkpt lat="42.073273095909464" lon="13.610254223481688"><ele>899.25</ele><time>2026-05-02T13:46:37.999Z</time></trkpt><trkpt lat="42.07317887156091" lon="13.610155009262707"><ele>896.5</ele><time>2026-05-02T13:46:38.999Z</time></trkpt><trkpt lat="42.07308797703703" lon="13.610054320444767"><ele>893.75</ele><time>2026-05-02T13:46:39.999Z</time></trkpt><trkpt lat="42.072998752343295" lon="13.609952394542635"><ele>891.0</ele><time>2026-05-02T13:46:40.999Z</time></trkpt><trkpt lat="42.07290805975522" lon="13.609846629274685"><ele>891.0</ele><time>2026-05-02T13:46:41.999Z</time></trkpt><trkpt lat="42.07280616806458" lon="13.60974261588615"><ele>891.0</ele><time>2026-05-02T13:46:42.999Z</time></trkpt><trkpt lat="42.07271129570122" lon="13.609629982618957"><ele>891.0</ele><time>2026-05-02T13:46:44Z</time></trkpt><trkpt lat="42.07263170324941" lon="13.609508792373509"><ele>891.0</ele><time>2026-05-02T13:46:44.999Z</time></trkpt><trkpt lat="42.0725506602099" lon="13.60940871534862"><ele>890.5999999999999</ele><time>2026-05-02T13:46:45.999Z</time></trkpt><trkpt lat="42.072476497554085" lon="13.609317268004906"><ele>890.1999999999999</ele><time>2026-05-02T13:46:46.999Z</time></trkpt><trkpt lat="42.07240664495754" lon="13.609231135245908"><ele>889.8000000000001</ele><time>2026-05-02T13:46:47.999Z</time></trkpt><trkpt lat="42.072337794721534" lon="13.609148534089044"><ele>889.4000000000001</ele><time>2026-05-02T13:46:48.999Z</time></trkpt><trkpt lat="42.072255124224235" lon="13.609091594841503"><ele>889.0</ele><time>2026-05-02T13:46:49.999Z</time></trkpt><trkpt lat="42.072193645714286" lon="13.609005488112839"><ele>887.0</ele><time>2026-05-02T13:46:50.999Z</time></trkpt><trkpt lat="42.07219744363074" lon="13.608840820870471"><ele>885.0</ele><time>2026-05-02T13:46:51.999Z</time></trkpt><trkpt lat="42.07215874658126" lon="13.60870284467458"><ele>883.0</ele><time>2026-05-02T13:46:52.999Z</time></trkpt><trkpt lat="42.072143281842024" lon="13.608552697738011"><ele>881.0</ele><time>2026-05-02T13:46:53.999Z</time></trkpt><trkpt lat="42.07212308578213" lon="13.608397992059944"><ele>880.25</ele><time>2026-05-02T13:46:54.999Z</time></trkpt><trkpt lat="42.07209726257291" lon="13.608246252478876"><ele>879.5</ele><time>2026-05-02T13:46:55.999Z</time></trkpt><trkpt lat="42.07207707040641" lon="13.608096096942175"><ele>878.75</ele><time>2026-05-02T13:46:56.999Z</time></trkpt><trkpt lat="42.07207199027723" lon="13.607947670753253"><ele>878.0</ele><time>2026-05-02T13:46:57.999Z</time></trkpt><trkpt lat="42.07207383226606" lon="13.607795494906666"><ele>876.8</ele><time>2026-05-02T13:46:58.999Z</time></trkpt><trkpt lat="42.072076684558304" lon="13.607638998249328"><ele>875.5999999999999</ele><time>2026-05-02T13:46:59.999Z</time></trkpt><trkpt lat="42.07207931504078" lon="13.607484146418308"><ele>874.4000000000001</ele><time>2026-05-02T13:47:00.999Z</time></trkpt><trkpt lat="42.072070593362504" lon="13.607350684424782"><ele>873.2</ele><time>2026-05-02T13:47:01.999Z</time></trkpt><trkpt lat="42.07206883832219" lon="13.607216029017582"><ele>872.0</ele><time>2026-05-02T13:47:02.999Z</time></trkpt><trkpt lat="42.072066309720725" lon="13.607079853528873"><ele>870.2</ele><time>2026-05-02T13:47:03.999Z</time></trkpt><trkpt lat="42.07204549367385" lon="13.606943004190233"><ele>868.4000000000001</ele><time>2026-05-02T13:47:04.999Z</time></trkpt><trkpt lat="42.07200930190542" lon="13.606812622357321"><ele>866.5999999999999</ele><time>2026-05-02T13:47:05.999Z</time></trkpt><trkpt lat="42.071947708928704" lon="13.60668411615406"><ele>864.8</ele><time>2026-05-02T13:47:06.999Z</time></trkpt><trkpt lat="42.0718711898973" lon="13.606564006005605"><ele>863.0</ele><time>2026-05-02T13:47:07.999Z</time></trkpt><trkpt lat="42.07178331316147" lon="13.606452719925613"><ele>863.0</ele><time>2026-05-02T13:47:08.999Z</time></trkpt><trkpt lat="42.07169107883262" lon="13.606347721369179"><ele>863.0</ele><time>2026-05-02T13:47:09.999Z</time></trkpt><trkpt lat="42.071611166742116" lon="13.606235681702536"><ele>863.0</ele><time>2026-05-02T13:47:10.999Z</time></trkpt><trkpt lat="42.07151872743614" lon="13.606144354005567"><ele>863.0</ele><time>2026-05-02T13:47:11.999Z</time></trkpt><trkpt lat="42.071411527721104" lon="13.606080102630203"><ele>860.0</ele><time>2026-05-02T13:47:12.999Z</time></trkpt><trkpt lat="42.07131212041921" lon="13.606030522194915"><ele>857.0</ele><time>2026-05-02T13:47:13.999Z</time></trkpt><trkpt lat="42.071209313668284" lon="13.605979246288737"><ele>854.0</ele><time>2026-05-02T13:47:14.999Z</time></trkpt><trkpt lat="42.07111772370446" lon="13.605913702963203"><ele>851.0</ele><time>2026-05-02T13:47:15.999Z</time></trkpt><trkpt lat="42.071033173293735" lon="13.605821901994286"><ele>848.0</ele><time>2026-05-02T13:47:16.999Z</time></trkpt><trkpt lat="42.07094317718178" lon="13.60573104440279"><ele>848.0</ele><time>2026-05-02T13:47:17.999Z</time></trkpt><trkpt lat="42.0708502372565" lon="13.6056378768284"><ele>848.0</ele><time>2026-05-02T13:47:18.999Z</time></trkpt><trkpt lat="42.07075240171677" lon="13.605547027802407"><ele>848.0</ele><time>2026-05-02T13:47:19.999Z</time></trkpt><trkpt lat="42.07065097831458" lon="13.60546039081809"><ele>848.0</ele><time>2026-05-02T13:47:20.999Z</time></trkpt><trkpt lat="42.07055304977706" lon="13.605374036660738"><ele>844.8</ele><time>2026-05-02T13:47:21.999Z</time></trkpt><trkpt lat="42.07045937549735" lon="13.605287131225586"><ele>841.5999999999999</ele><time>2026-05-02T13:47:22.999Z</time></trkpt><trkpt lat="42.070368221777876" lon="13.605202136067367"><ele>838.4000000000001</ele><time>2026-05-02T13:47:23.999Z</time></trkpt><trkpt lat="42.07027751262457" lon="13.605115981893885"><ele>835.2</ele><time>2026-05-02T13:47:24.999Z</time></trkpt><trkpt lat="42.070187261225044" lon="13.605030262492697"><ele>832.0</ele><time>2026-05-02T13:47:25.999Z</time></trkpt><trkpt lat="42.07009572546741" lon="13.60494211720823"><ele>832.0</ele><time>2026-05-02T13:47:26.999Z</time></trkpt><trkpt lat="42.07000470202919" lon="13.604854341009286"><ele>832.0</ele><time>2026-05-02T13:47:27.999Z</time></trkpt><trkpt lat="42.06991439304345" lon="13.604767222189619"><ele>832.0</ele><time>2026-05-02T13:47:28.999Z</time></trkpt><trkpt lat="42.0698207000858" lon="13.604676835633116"><ele>832.0</ele><time>2026-05-02T13:47:29.999Z</time></trkpt><trkpt lat="42.06972279752078" lon="13.604582388034489"><ele>827.25</ele><time>2026-05-02T13:47:30.999Z</time></trkpt><trkpt lat="42.069616201923196" lon="13.604482526225484"><ele>822.5</ele><time>2026-05-02T13:47:31.999Z</time></trkpt><trkpt lat="42.06951142447209" lon="13.604385088439713"><ele>817.75</ele><time>2026-05-02T13:47:32.999Z</time></trkpt><trkpt lat="42.06940505491827" lon="13.604285490226347"><ele>813.0</ele><time>2026-05-02T13:47:33.999Z</time></trkpt><trkpt lat="42.06929941693014" lon="13.604182994168815"><ele>813.0</ele><time>2026-05-02T13:47:34.999Z</time></trkpt><trkpt lat="42.0691932633966" lon="13.604069314426367"><ele>813.0</ele><time>2026-05-02T13:47:35.999Z</time></trkpt><trkpt lat="42.06909197040753" lon="13.60395204582023"><ele>813.0</ele><time>2026-05-02T13:47:36.999Z</time></trkpt><trkpt lat="42.06898930739888" lon="13.603837129041981"><ele>813.0</ele><time>2026-05-02T13:47:37.999Z</time></trkpt><trkpt lat="42.06888631072944" lon="13.603729433955811"><ele>812.0</ele><time>2026-05-02T13:47:38.999Z</time></trkpt><trkpt lat="42.068790872899164" lon="13.603631067870655"><ele>811.0</ele><time>2026-05-02T13:47:39.999Z</time></trkpt><trkpt lat="42.068704489454234" lon="13.603535048023467"><ele>810.0</ele><time>2026-05-02T13:47:40.999Z</time></trkpt><trkpt lat="42.068620191201205" lon="13.603442847607953"><ele>809.0</ele><time>2026-05-02T13:47:41.999Z</time></trkpt><trkpt lat="42.068533854685356" lon="13.603390306716937"><ele>808.0</ele><time>2026-05-02T13:47:42.999Z</time></trkpt><trkpt lat="42.06846104925059" lon="13.603351045648036"><ele>807.9999999999999</ele><time>2026-05-02T13:47:43.999Z</time></trkpt><trkpt lat="42.06838115403659" lon="13.603349504802457"><ele>808.0</ele><time>2026-05-02T13:47:44.999Z</time></trkpt><trkpt lat="42.068314908421435" lon="13.603398836842551"><ele>808.0</ele><time>2026-05-02T13:47:45.999Z</time></trkpt><trkpt lat="42.068262259827755" lon="13.603463786218024"><ele>808.0</ele><time>2026-05-02T13:47:46.999Z</time></trkpt><trkpt lat="42.068188176564995" lon="13.603553704321182"><ele>807.9999999999999</ele><time>2026-05-02T13:47:47.999Z</time></trkpt><trkpt lat="42.06810355474735" lon="13.603536840133756"><ele>808.0</ele><time>2026-05-02T13:47:48.999Z</time></trkpt><trkpt lat="42.067964577669706" lon="13.603534548573585"><ele>809.8</ele><time>2026-05-02T13:47:50.999Z</time></trkpt><trkpt lat="42.06786119380138" lon="13.603528989228261"><ele>811.5999999999999</ele><time>2026-05-02T13:47:51.999Z</time></trkpt><trkpt lat="42.067759078337204" lon="13.603522935349556"><ele>813.4000000000001</ele><time>2026-05-02T13:47:52.999Z</time></trkpt><trkpt lat="42.067648784583426" lon="13.603514500626483"><ele>815.2</ele><time>2026-05-02T13:47:53.999Z</time></trkpt><trkpt lat="42.06753856055761" lon="13.603506543178431"><ele>817.0</ele><time>2026-05-02T13:47:54.999Z</time></trkpt><trkpt lat="42.067417869346095" lon="13.60350080115456"><ele>818.0</ele><time>2026-05-02T13:47:55.999Z</time></trkpt><trkpt lat="42.06729415511808" lon="13.603496183253249"><ele>819.0</ele><time>2026-05-02T13:47:56.999Z</time></trkpt><trkpt lat="42.067166499240884" lon="13.603483832414947"><ele>820.0</ele><time>2026-05-02T13:47:57.999Z</time></trkpt><trkpt lat="42.06704990616695" lon="13.603465175519116"><ele>821.0</ele><time>2026-05-02T13:47:58.999Z</time></trkpt><trkpt lat="42.06693875351169" lon="13.60345913982052"><ele>821.0</ele><time>2026-05-02T13:47:59.999Z</time></trkpt><trkpt lat="42.06681720511678" lon="13.603420423983785"><ele>821.0</ele><time>2026-05-02T13:48:00.999Z</time></trkpt><trkpt lat="42.06669905551542" lon="13.603376521748608"><ele>821.0</ele><time>2026-05-02T13:48:01.999Z</time></trkpt><trkpt lat="42.066582883115075" lon="13.60333455500318"><ele>821.0</ele><time>2026-05-02T13:48:02.999Z</time></trkpt><trkpt lat="42.066467660699495" lon="13.603284001778587"><ele>822.4</ele><time>2026-05-02T13:48:03.999Z</time></trkpt><trkpt lat="42.06636012359303" lon="13.603263243839253"><ele>823.8</ele><time>2026-05-02T13:48:04.999Z</time></trkpt><trkpt lat="42.066248769233894" lon="13.603269244852013"><ele>825.1999999999999</ele><time>2026-05-02T13:48:05.999Z</time></trkpt><trkpt lat="42.06614493585361" lon="13.603283426417457"><ele>826.5999999999999</ele><time>2026-05-02T13:48:06.999Z</time></trkpt><trkpt lat="42.06605109488591" lon="13.603295347612336"><ele>828.0</ele><time>2026-05-02T13:48:07.999Z</time></trkpt><trkpt lat="42.06597006587897" lon="13.603305444949276"><ele>828.0</ele><time>2026-05-02T13:48:08.999Z</time></trkpt><trkpt lat="42.06590500512849" lon="13.60331415646472"><ele>828.0</ele><time>2026-05-02T13:48:09.999Z</time></trkpt><trkpt lat="42.06584085095452" lon="13.603323302752596"><ele>828.0</ele><time>2026-05-02T13:48:10.999Z</time></trkpt><trkpt lat="42.06576072073405" lon="13.60331527458992"><ele>828.0</ele><time>2026-05-02T13:48:12.999Z</time></trkpt><trkpt lat="42.06573088103933" lon="13.603177580123969"><ele>828.0</ele><time>2026-05-02T13:48:14.999Z</time></trkpt><trkpt lat="42.06572216888151" lon="13.60307969918881"><ele>828.0</ele><time>2026-05-02T13:48:15.999Z</time></trkpt><trkpt lat="42.065699620134716" lon="13.60297956810666"><ele>828.1666666666666</ele><time>2026-05-02T13:48:16.999Z</time></trkpt><trkpt lat="42.065674998712446" lon="13.602873905424367"><ele>828.3333333333333</ele><time>2026-05-02T13:48:17.999Z</time></trkpt><trkpt lat="42.06566889450407" lon="13.602780162839322"><ele>828.5</ele><time>2026-05-02T13:48:18.999Z</time></trkpt><trkpt lat="42.06570727283975" lon="13.60265356751474"><ele>828.6666666666666</ele><time>2026-05-02T13:48:20.999Z</time></trkpt><trkpt lat="42.065763056020614" lon="13.602591444894104"><ele>828.8333333333333</ele><time>2026-05-02T13:48:22.998Z</time></trkpt><trkpt lat="42.06583028315481" lon="13.602502813408165"><ele>829.0</ele><time>2026-05-02T13:48:24.998Z</time></trkpt><trkpt lat="42.06584881408713" lon="13.6024030476955"><ele>828.8000000000001</ele><time>2026-05-02T13:48:25.998Z</time></trkpt><trkpt lat="42.065867995236495" lon="13.602300607834835"><ele>828.6</ele><time>2026-05-02T13:48:26.998Z</time></trkpt><trkpt lat="42.065895122227836" lon="13.60217471995936"><ele>828.4</ele><time>2026-05-02T13:48:27.998Z</time></trkpt><trkpt lat="42.06591897494041" lon="13.602053422825774"><ele>828.2</ele><time>2026-05-02T13:48:28.998Z</time></trkpt><trkpt lat="42.06595012979174" lon="13.601907734917814"><ele>828.0</ele><time>2026-05-02T13:48:29.998Z</time></trkpt><trkpt lat="42.065983342281434" lon="13.601748205208832"><ele>828.0</ele><time>2026-05-02T13:48:30.998Z</time></trkpt><trkpt lat="42.066019328986336" lon="13.601581949137282"><ele>828.0</ele><time>2026-05-02T13:48:31.998Z</time></trkpt><trkpt lat="42.06605002122646" lon="13.60142903287438"><ele>828.0</ele><time>2026-05-02T13:48:32.998Z</time></trkpt><trkpt lat="42.0660612464821" lon="13.601288302337618"><ele>828.0</ele><time>2026-05-02T13:48:33.998Z</time></trkpt><trkpt lat="42.0660570904263" lon="13.601144153431374"><ele>828.2</ele><time>2026-05-02T13:48:34.998Z</time></trkpt><trkpt lat="42.06606035570166" lon="13.601010378980192"><ele>828.4</ele><time>2026-05-02T13:48:35.998Z</time></trkpt><trkpt lat="42.06606690437806" lon="13.600864993040549"><ele>828.6</ele><time>2026-05-02T13:48:36.998Z</time></trkpt><trkpt lat="42.06608123245037" lon="13.600722059166932"><ele>828.8000000000001</ele><time>2026-05-02T13:48:37.998Z</time></trkpt><trkpt lat="42.06609341355388" lon="13.600580126162628"><ele>829.0</ele><time>2026-05-02T13:48:38.998Z</time></trkpt><trkpt lat="42.06611299554" lon="13.600455933792444"><ele>829.0</ele><time>2026-05-02T13:48:39.998Z</time></trkpt><trkpt lat="42.066130942876896" lon="13.600354393667505"><ele>829.0</ele><time>2026-05-02T13:48:40.999Z</time></trkpt><trkpt lat="42.06615845458607" lon="13.600227440903389"><ele>829.0</ele><time>2026-05-02T13:48:42.999Z</time></trkpt><trkpt lat="42.06592927819481" lon="13.600201287169469"><ele>829.0</ele><time>2026-05-02T13:48:45.999Z</time></trkpt><trkpt lat="42.065826395906456" lon="13.600188149558772"><ele>827.0</ele><time>2026-05-02T13:48:46.999Z</time></trkpt><trkpt lat="42.065724932478474" lon="13.60018008283359"><ele>825.0</ele><time>2026-05-02T13:48:47.999Z</time></trkpt><trkpt lat="42.06562909284623" lon="13.600172397999488"><ele>823.0</ele><time>2026-05-02T13:48:48.999Z</time></trkpt><trkpt lat="42.06553354524491" lon="13.600163862647651"><ele>821.0</ele><time>2026-05-02T13:48:49.999Z</time></trkpt><trkpt lat="42.065435241107096" lon="13.600154707222849"><ele>819.0</ele><time>2026-05-02T13:48:50.999Z</time></trkpt><trkpt lat="42.06533773890831" lon="13.600160624307506"><ele>819.0</ele><time>2026-05-02T13:48:51.999Z</time></trkpt><trkpt lat="42.065240543862025" lon="13.600157236002591"><ele>819.0</ele><time>2026-05-02T13:48:52.999Z</time></trkpt><trkpt lat="42.06515026399058" lon="13.600132549582385"><ele>819.0</ele><time>2026-05-02T13:48:53.999Z</time></trkpt><trkpt lat="42.06505353340004" lon="13.600126573667529"><ele>819.0</ele><time>2026-05-02T13:48:54.999Z</time></trkpt><trkpt lat="42.06496006223471" lon="13.600144067566593"><ele>819.0</ele><time>2026-05-02T13:48:55.999Z</time></trkpt><trkpt lat="42.0648628174344" lon="13.600136892075172"><ele>817.2</ele><time>2026-05-02T13:48:56.999Z</time></trkpt><trkpt lat="42.064763339818924" lon="13.600134419167732"><ele>815.4000000000001</ele><time>2026-05-02T13:48:57.999Z</time></trkpt><trkpt lat="42.06465735119438" lon="13.600149232703956"><ele>813.6</ele><time>2026-05-02T13:48:58.999Z</time></trkpt><trkpt lat="42.06455221952004" lon="13.600159502098329"><ele>811.8</ele><time>2026-05-02T13:48:59.999Z</time></trkpt><trkpt lat="42.06445086614902" lon="13.600163597267668"><ele>810.0</ele><time>2026-05-02T13:49:00.999Z</time></trkpt><trkpt lat="42.064358360043" lon="13.60016309339475"><ele>810.0</ele><time>2026-05-02T13:49:01.999Z</time></trkpt><trkpt lat="42.06427091141694" lon="13.600126900191082"><ele>810.0</ele><time>2026-05-02T13:49:02.999Z</time></trkpt><trkpt lat="42.06417307009546" lon="13.600132870495624"><ele>810.0</ele><time>2026-05-02T13:49:03.999Z</time></trkpt><trkpt lat="42.06408638440214" lon="13.600101171014437"><ele>810.0</ele><time>2026-05-02T13:49:04.999Z</time></trkpt><trkpt lat="42.06399487878419" lon="13.600064392645283"><ele>810.0</ele><time>2026-05-02T13:49:05.999Z</time></trkpt><trkpt lat="42.06391291919556" lon="13.600034474104048"><ele>808.6666666666666</ele><time>2026-05-02T13:49:06.999Z</time></trkpt><trkpt lat="42.06384534766463" lon="13.599997412735357"><ele>807.3333333333333</ele><time>2026-05-02T13:49:07.999Z</time></trkpt><trkpt lat="42.0637440601589" lon="13.599979371766642"><ele>806.0</ele><time>2026-05-02T13:49:09.999Z</time></trkpt><trkpt lat="42.063681410807376" lon="13.599926600832795"><ele>804.6666666666666</ele><time>2026-05-02T13:49:11.999Z</time></trkpt><trkpt lat="42.06373822565615" lon="13.599812259222043"><ele>803.3333333333333</ele><time>2026-05-02T13:49:13.999Z</time></trkpt><trkpt lat="42.063761384215056" lon="13.599718248111891"><ele>802.0</ele><time>2026-05-02T13:49:16.999Z</time></trkpt><trkpt lat="42.06381860181185" lon="13.59957755375231"><ele>800.9999999999999</ele><time>2026-05-02T13:49:18.999Z</time></trkpt><trkpt lat="42.06385271133659" lon="13.599481562680106"><ele>800.0</ele><time>2026-05-02T13:49:19.999Z</time></trkpt><trkpt lat="42.063882521861935" lon="13.599384882517967"><ele>799.0</ele><time>2026-05-02T13:49:20.999Z</time></trkpt><trkpt lat="42.06392295738822" lon="13.599304685584105"><ele>798.0</ele><time>2026-05-02T13:49:21.999Z</time></trkpt><trkpt lat="42.063954049968416" lon="13.599213781205941"><ele>796.9999999999999</ele><time>2026-05-02T13:49:22.999Z</time></trkpt><trkpt lat="42.06397963359719" lon="13.599135859244875"><ele>796.0</ele><time>2026-05-02T13:49:23.999Z</time></trkpt><trkpt lat="42.06400133804522" lon="13.599011524949004"><ele>796.0</ele><time>2026-05-02T13:49:25.999Z</time></trkpt><trkpt lat="42.06407273736414" lon="13.598960269834702"><ele>796.0</ele><time>2026-05-02T13:49:28.999Z</time></trkpt><trkpt lat="42.06420601230186" lon="13.59898192280191"><ele>796.0</ele><time>2026-05-02T13:49:30.999Z</time></trkpt><trkpt lat="42.06428425896628" lon="13.598987355366937"><ele>796.0</ele><time>2026-05-02T13:49:31.999Z</time></trkpt><trkpt lat="42.06435598479983" lon="13.598987807552229"><ele>796.0</ele><time>2026-05-02T13:49:32.999Z</time></trkpt><trkpt lat="42.06448314425422" lon="13.598978285828483"><ele>797.5999999999999</ele><time>2026-05-02T13:49:34.999Z</time></trkpt><trkpt lat="42.06455856006295" lon="13.598968989731084"><ele>799.2</ele><time>2026-05-02T13:49:35.999Z</time></trkpt><trkpt lat="42.0646476116459" lon="13.598978847059577"><ele>800.8</ele><time>2026-05-02T13:49:36.999Z</time></trkpt><trkpt lat="42.06473521473275" lon="13.598988442203307"><ele>802.4000000000001</ele><time>2026-05-02T13:49:37.999Z</time></trkpt><trkpt lat="42.06483150276433" lon="13.599000647610778"><ele>804.0</ele><time>2026-05-02T13:49:38.999Z</time></trkpt><trkpt lat="42.064937708012124" lon="13.59900502846402"><ele>806.2</ele><time>2026-05-02T13:49:39.999Z</time></trkpt><trkpt lat="42.06503749853404" lon="13.599006297496757"><ele>808.4000000000001</ele><time>2026-05-02T13:49:40.999Z</time></trkpt><trkpt lat="42.0651394611539" lon="13.599010428248024"><ele>810.6</ele><time>2026-05-02T13:49:41.999Z</time></trkpt><trkpt lat="42.06524130103242" lon="13.599009411522035"><ele>812.8</ele><time>2026-05-02T13:49:42.999Z</time></trkpt><trkpt lat="42.06534187935104" lon="13.599013853450595"><ele>815.0</ele><time>2026-05-02T13:49:43.999Z</time></trkpt><trkpt lat="42.06544671806299" lon="13.599014654517246"><ele>815.0</ele><time>2026-05-02T13:49:44.999Z</time></trkpt><trkpt lat="42.065547809102156" lon="13.599015265002322"><ele>815.0</ele><time>2026-05-02T13:49:45.999Z</time></trkpt><trkpt lat="42.06565585686591" lon="13.599015186962097"><ele>815.0</ele><time>2026-05-02T13:49:46.999Z</time></trkpt><trkpt lat="42.065764239950724" lon="13.599020896797276"><ele>815.0</ele><time>2026-05-02T13:49:47.999Z</time></trkpt><trkpt lat="42.06587361504284" lon="13.599046348612385"><ele>815.0</ele><time>2026-05-02T13:49:48.999Z</time></trkpt><trkpt lat="42.06597884701761" lon="13.599051294513576"><ele>816.6666666666667</ele><time>2026-05-02T13:49:49.999Z</time></trkpt><trkpt lat="42.066084438206055" lon="13.59905604592525"><ele>818.3333333333334</ele><time>2026-05-02T13:49:50.999Z</time></trkpt><trkpt lat="42.066178209665516" lon="13.599045810597401"><ele>820.0</ele><time>2026-05-02T13:49:51.999Z</time></trkpt><trkpt lat="42.06625338345029" lon="13.599059342718618"><ele>821.6666666666667</ele><time>2026-05-02T13:49:52.999Z</time></trkpt><trkpt lat="42.06635449938806" lon="13.599066676682655"><ele>823.3333333333334</ele><time>2026-05-02T13:49:54.999Z</time></trkpt><trkpt lat="42.066421783668076" lon="13.599067843264072"><ele>825.0</ele><time>2026-05-02T13:49:57.999Z</time></trkpt><trkpt lat="42.066442906255" lon="13.598917616446391"><ele>825.0</ele><time>2026-05-02T13:49:58.999Z</time></trkpt><trkpt lat="42.06646474702177" lon="13.598812374451725"><ele>825.0</ele><time>2026-05-02T13:49:59.999Z</time></trkpt><trkpt lat="42.066496595068905" lon="13.598696328263186"><ele>825.0</ele><time>2026-05-02T13:50:00.999Z</time></trkpt><trkpt lat="42.066529208446916" lon="13.598583051199927"><ele>825.0</ele><time>2026-05-02T13:50:01.999Z</time></trkpt><trkpt lat="42.06659617999189" lon="13.598476344236309"><ele>825.0</ele><time>2026-05-02T13:50:02.999Z</time></trkpt><trkpt lat="42.06663491242423" lon="13.598349898669731"><ele>825.6666666666666</ele><time>2026-05-02T13:50:03.999Z</time></trkpt><trkpt lat="42.066697055487545" lon="13.598252018010044"><ele>826.3333333333333</ele><time>2026-05-02T13:50:04.999Z</time></trkpt><trkpt lat="42.06678329202338" lon="13.598213634256394"><ele>827.0</ele><time>2026-05-02T13:50:05.999Z</time></trkpt><trkpt lat="42.06681398079999" lon="13.598070390162466"><ele>827.6666666666666</ele><time>2026-05-02T13:50:06.999Z</time></trkpt><trkpt lat="42.06683672004809" lon="13.59798744080112"><ele>828.3333333333333</ele><time>2026-05-02T13:50:07.999Z</time></trkpt><trkpt lat="42.06686367318987" lon="13.5978977572529"><ele>829.0</ele><time>2026-05-02T13:50:09.999Z</time></trkpt><trkpt lat="42.06697213096501" lon="13.597947635820514"><ele>829.0</ele><time>2026-05-02T13:50:11.999Z</time></trkpt><trkpt lat="42.06704339707616" lon="13.597943989223111"><ele>829.0</ele><time>2026-05-02T13:50:12.999Z</time></trkpt><trkpt lat="42.06713048256251" lon="13.597941598935341"><ele>829.0</ele><time>2026-05-02T13:50:13.999Z</time></trkpt><trkpt lat="42.06723790954032" lon="13.5979487824437"><ele>829.0</ele><time>2026-05-02T13:50:14.999Z</time></trkpt><trkpt lat="42.06734744586176" lon="13.59797297477195"><ele>829.0</ele><time>2026-05-02T13:50:15.999Z</time></trkpt><trkpt lat="42.06745955897337" lon="13.598008569245486"><ele>831.75</ele><time>2026-05-02T13:50:16.999Z</time></trkpt><trkpt lat="42.06757818588932" lon="13.598040479453955"><ele>834.5</ele><time>2026-05-02T13:50:17.999Z</time></trkpt><trkpt lat="42.06770921827016" lon="13.598074374244415"><ele>837.25</ele><time>2026-05-02T13:50:18.999Z</time></trkpt><trkpt lat="42.06784368839723" lon="13.598090749362031"><ele>840.0</ele><time>2026-05-02T13:50:19.999Z</time></trkpt><trkpt lat="42.06797464318694" lon="13.59812560922106"><ele>840.0</ele><time>2026-05-02T13:50:20.999Z</time></trkpt><trkpt lat="42.06810770112279" lon="13.59816686097671"><ele>840.0</ele><time>2026-05-02T13:50:21.999Z</time></trkpt><trkpt lat="42.06824104285963" lon="13.598208805614057"><ele>840.0</ele><time>2026-05-02T13:50:22.998Z</time></trkpt><trkpt lat="42.06837684260895" lon="13.598242885706313"><ele>840.0</ele><time>2026-05-02T13:50:23.998Z</time></trkpt><trkpt lat="42.06850994692686" lon="13.598277842006564"><ele>842.0</ele><time>2026-05-02T13:50:24.998Z</time></trkpt><trkpt lat="42.068641237326574" lon="13.598328002667065"><ele>844.0</ele><time>2026-05-02T13:50:25.998Z</time></trkpt><trkpt lat="42.068803521124096" lon="13.598394204536598"><ele>846.0</ele><time>2026-05-02T13:50:26.998Z</time></trkpt><trkpt lat="42.06890419171321" lon="13.59836318644316"><ele>848.0</ele><time>2026-05-02T13:50:27.998Z</time></trkpt><trkpt lat="42.06901987785763" lon="13.598398291518782"><ele>850.0</ele><time>2026-05-02T13:50:28.998Z</time></trkpt><trkpt lat="42.069123441139276" lon="13.598429102961106"><ele>852.0</ele><time>2026-05-02T13:50:29.998Z</time></trkpt><trkpt lat="42.069218138864194" lon="13.59845908333703"><ele>854.0</ele><time>2026-05-02T13:50:30.998Z</time></trkpt><trkpt lat="42.06929645825457" lon="13.598484686037166"><ele>856.0</ele><time>2026-05-02T13:50:31.998Z</time></trkpt><trkpt lat="42.06937484723295" lon="13.598589406565782"><ele>858.0</ele><time>2026-05-02T13:50:33.998Z</time></trkpt><trkpt lat="42.069310992538085" lon="13.598749082970684"><ele>858.5999999999999</ele><time>2026-05-02T13:50:35.998Z</time></trkpt><trkpt lat="42.06929093924039" lon="13.598868729823817"><ele>859.1999999999999</ele><time>2026-05-02T13:50:36.998Z</time></trkpt><trkpt lat="42.06928627464603" lon="13.599000588730185"><ele>859.8</ele><time>2026-05-02T13:50:37.998Z</time></trkpt><trkpt lat="42.069287638652824" lon="13.599149700221732"><ele>860.4</ele><time>2026-05-02T13:50:38.998Z</time></trkpt><trkpt lat="42.06928374272985" lon="13.59930149371842"><ele>861.0</ele><time>2026-05-02T13:50:39.998Z</time></trkpt><trkpt lat="42.06928942390856" lon="13.599446845101161"><ele>861.3333333333334</ele><time>2026-05-02T13:50:40.998Z</time></trkpt><trkpt lat="42.06929060898017" lon="13.599559338576718"><ele>861.6666666666667</ele><time>2026-05-02T13:50:41.998Z</time></trkpt><trkpt lat="42.06930380025676" lon="13.599647987752554"><ele>862.0</ele><time>2026-05-02T13:50:42.998Z</time></trkpt><trkpt lat="42.06933123948755" lon="13.599738377478408"><ele>862.3333333333334</ele><time>2026-05-02T13:50:43.998Z</time></trkpt><trkpt lat="42.069356095622474" lon="13.599826931978209"><ele>862.6666666666667</ele><time>2026-05-02T13:50:44.998Z</time></trkpt><trkpt lat="42.069391649261945" lon="13.59992765974975"><ele>863.0</ele><time>2026-05-02T13:50:46.999Z</time></trkpt><trkpt lat="42.06955210069456" lon="13.599917401189627"><ele>863.0</ele><time>2026-05-02T13:50:49.999Z</time></trkpt><trkpt lat="42.069636345023696" lon="13.599860836318305"><ele>863.0</ele><time>2026-05-02T13:50:50.999Z</time></trkpt><trkpt lat="42.06972859740557" lon="13.599805272627664"><ele>863.0</ele><time>2026-05-02T13:50:51.999Z</time></trkpt><trkpt lat="42.06982860963961" lon="13.599765300428054"><ele>863.0</ele><time>2026-05-02T13:50:52.999Z</time></trkpt><trkpt lat="42.06993619074942" lon="13.599749358667477"><ele>863.0</ele><time>2026-05-02T13:50:53.999Z</time></trkpt><trkpt lat="42.070056196119864" lon="13.599744330884954"><ele>864.75</ele><time>2026-05-02T13:50:54.999Z</time></trkpt><trkpt lat="42.07018106238493" lon="13.599737216530205"><ele>866.5</ele><time>2026-05-02T13:50:55.999Z</time></trkpt><trkpt lat="42.07031101492283" lon="13.59973167352372"><ele>868.25</ele><time>2026-05-02T13:50:56.999Z</time></trkpt><trkpt lat="42.07044379236453" lon="13.599716850767486"><ele>870.0</ele><time>2026-05-02T13:50:57.999Z</time></trkpt><trkpt lat="42.07058243924861" lon="13.599683753142267"><ele>870.0</ele><time>2026-05-02T13:50:58.999Z</time></trkpt><trkpt lat="42.070715113287434" lon="13.599628174958717"><ele>870.0</ele><time>2026-05-02T13:50:59.999Z</time></trkpt><trkpt lat="42.07086083446609" lon="13.599573336321143"><ele>870.0</ele><time>2026-05-02T13:51:00.999Z</time></trkpt><trkpt lat="42.0710186298585" lon="13.599503763015274"><ele>872.0</ele><time>2026-05-02T13:51:01.999Z</time></trkpt><trkpt lat="42.07117939234179" lon="13.599435578280259"><ele>874.0</ele><time>2026-05-02T13:51:02.999Z</time></trkpt><trkpt lat="42.07135183337936" lon="13.599399506976056"><ele>876.0</ele><time>2026-05-02T13:51:03.999Z</time></trkpt><trkpt lat="42.07148663151671" lon="13.599286947073859"><ele>878.3333333333333</ele><time>2026-05-02T13:51:04.999Z</time></trkpt><trkpt lat="42.0716609685664" lon="13.599224338598855"><ele>880.6666666666666</ele><time>2026-05-02T13:51:05.999Z</time></trkpt><trkpt lat="42.07184443795238" lon="13.599142728967282"><ele>883.0</ele><time>2026-05-02T13:51:06.999Z</time></trkpt><trkpt lat="42.07193924953647" lon="13.59909381361831"><ele>883.0</ele><time>2026-05-02T13:51:07.999Z</time></trkpt><trkpt lat="42.07208677315592" lon="13.59902554242244"><ele>883.0</ele><time>2026-05-02T13:51:08.999Z</time></trkpt><trkpt lat="42.072227820343016" lon="13.598964484851923"><ele>883.0</ele><time>2026-05-02T13:51:09.999Z</time></trkpt><trkpt lat="42.07237354692424" lon="13.598899398780013"><ele>885.3333333333333</ele><time>2026-05-02T13:51:10.999Z</time></trkpt><trkpt lat="42.0725179214075" lon="13.598832086406404"><ele>887.6666666666667</ele><time>2026-05-02T13:51:11.999Z</time></trkpt><trkpt lat="42.07266336337203" lon="13.598767998121149"><ele>890.0</ele><time>2026-05-02T13:51:12.999Z</time></trkpt><trkpt lat="42.07280885998784" lon="13.598701846074654"><ele>892.0</ele><time>2026-05-02T13:51:13.999Z</time></trkpt><trkpt lat="42.07295221032919" lon="13.598640505137908"><ele>894.0</ele><time>2026-05-02T13:51:14.999Z</time></trkpt><trkpt lat="42.073096435948415" lon="13.598575184909807"><ele>896.0</ele><time>2026-05-02T13:51:15.999Z</time></trkpt><trkpt lat="42.07324086038023" lon="13.598511339462476"><ele>898.6666666666667</ele><time>2026-05-02T13:51:16.999Z</time></trkpt><trkpt lat="42.073385751770076" lon="13.59844167893302"><ele>901.3333333333333</ele><time>2026-05-02T13:51:17.999Z</time></trkpt><trkpt lat="42.073530008464246" lon="13.598369538579252"><ele>904.0</ele><time>2026-05-02T13:51:18.999Z</time></trkpt><trkpt lat="42.07367674553651" lon="13.59829425544895"><ele>904.0</ele><time>2026-05-02T13:51:19.999Z</time></trkpt><trkpt lat="42.07382924861299" lon="13.598223898489639"><ele>904.0</ele><time>2026-05-02T13:51:20.999Z</time></trkpt><trkpt lat="42.073983254853395" lon="13.598174319678794"><ele>904.0</ele><time>2026-05-02T13:51:21.999Z</time></trkpt><trkpt lat="42.07413830206652" lon="13.598146095958228"><ele>907.0</ele><time>2026-05-02T13:51:22.999Z</time></trkpt><trkpt lat="42.07429379900648" lon="13.598156617987488"><ele>910.0</ele><time>2026-05-02T13:51:23.999Z</time></trkpt><trkpt lat="42.07444376204518" lon="13.598159403961095"><ele>913.0</ele><time>2026-05-02T13:51:24.999Z</time></trkpt><trkpt lat="42.07459552136367" lon="13.598166385966884"><ele>913.0</ele><time>2026-05-02T13:51:25.999Z</time></trkpt><trkpt lat="42.07474510369794" lon="13.598160844059521"><ele>913.0</ele><time>2026-05-02T13:51:26.999Z</time></trkpt><trkpt lat="42.07489078829808" lon="13.598171250515945"><ele>913.0</ele><time>2026-05-02T13:51:27.999Z</time></trkpt><trkpt lat="42.07503811001069" lon="13.598177535793607"><ele>913.0</ele><time>2026-05-02T13:51:28.999Z</time></trkpt><trkpt lat="42.075184600340705" lon="13.598188132383942"><ele>916.6666666666666</ele><time>2026-05-02T13:51:29.999Z</time></trkpt><trkpt lat="42.075341141433555" lon="13.59820466214995"><ele>920.3333333333333</ele><time>2026-05-02T13:51:30.999Z</time></trkpt><trkpt lat="42.07548931852399" lon="13.598211574907218"><ele>924.0</ele><time>2026-05-02T13:51:31.999Z</time></trkpt><trkpt lat="42.07564047086285" lon="13.598219700864883"><ele>927.3333333333333</ele><time>2026-05-02T13:51:32.999Z</time></trkpt><trkpt lat="42.07579435851931" lon="13.598224841101963"><ele>930.6666666666666</ele><time>2026-05-02T13:51:33.999Z</time></trkpt><trkpt lat="42.075953126323675" lon="13.598218541496635"><ele>934.0</ele><time>2026-05-02T13:51:34.999Z</time></trkpt><trkpt lat="42.07610301133473" lon="13.598192906811915"><ele>934.0</ele><time>2026-05-02T13:51:35.999Z</time></trkpt><trkpt lat="42.07624088045671" lon="13.598147927309235"><ele>934.0</ele><time>2026-05-02T13:51:36.999Z</time></trkpt><trkpt lat="42.07636666249838" lon="13.59808825398487"><ele>934.0</ele><time>2026-05-02T13:51:37.999Z</time></trkpt><trkpt lat="42.07647812298514" lon="13.597996643739895"><ele>934.0</ele><time>2026-05-02T13:51:38.999Z</time></trkpt><trkpt lat="42.076558858893065" lon="13.597860196711862"><ele>937.5</ele><time>2026-05-02T13:51:39.999Z</time></trkpt><trkpt lat="42.076619926543366" lon="13.597712659971135"><ele>941.0</ele><time>2026-05-02T13:51:40.999Z</time></trkpt><trkpt lat="42.07669013167224" lon="13.597566654755514"><ele>944.5</ele><time>2026-05-02T13:51:41.999Z</time></trkpt><trkpt lat="42.07677320031246" lon="13.597460759253451"><ele>948.0</ele><time>2026-05-02T13:51:42.999Z</time></trkpt><trkpt lat="42.076839504546065" lon="13.597361449584117"><ele>948.0</ele><time>2026-05-02T13:51:43.999Z</time></trkpt><trkpt lat="42.07693928389435" lon="13.597318260771429"><ele>948.0</ele><time>2026-05-02T13:51:44.999Z</time></trkpt><trkpt lat="42.07703913344713" lon="13.597299213497829"><ele>948.0</ele><time>2026-05-02T13:51:45.999Z</time></trkpt><trkpt lat="42.0771429570118" lon="13.597289549503117"><ele>948.0</ele><time>2026-05-02T13:51:46.999Z</time></trkpt><trkpt lat="42.07723273424567" lon="13.597349844921615"><ele>948.0</ele><time>2026-05-02T13:51:47.999Z</time></trkpt><trkpt lat="42.07728389542281" lon="13.597468189861301"><ele>948.0</ele><time>2026-05-02T13:51:48.999Z</time></trkpt><trkpt lat="42.07731139133199" lon="13.597602911591313"><ele>948.0</ele><time>2026-05-02T13:51:49.999Z</time></trkpt><trkpt lat="42.077342204923845" lon="13.597743749025616"><ele>948.0</ele><time>2026-05-02T13:51:50.999Z</time></trkpt><trkpt lat="42.07738990059534" lon="13.59788159266049"><ele>948.0</ele><time>2026-05-02T13:51:51.999Z</time></trkpt><trkpt lat="42.07744751418392" lon="13.597994465905439"><ele>948.0</ele><time>2026-05-02T13:51:52.999Z</time></trkpt><trkpt lat="42.077501710271186" lon="13.59806492443178"><ele>949.4</ele><time>2026-05-02T13:51:53.999Z</time></trkpt><trkpt lat="42.077590476586685" lon="13.59803633749338"><ele>950.8</ele><time>2026-05-02T13:51:54.999Z</time></trkpt><trkpt lat="42.077645480006545" lon="13.597963255538385"><ele>952.2</ele><time>2026-05-02T13:51:55.999Z</time></trkpt><trkpt lat="42.07766808488133" lon="13.59785414329164"><ele>953.6</ele><time>2026-05-02T13:51:56.999Z</time></trkpt><trkpt lat="42.07765075447397" lon="13.597729381252307"><ele>955.0</ele><time>2026-05-02T13:51:57.999Z</time></trkpt><trkpt lat="42.0775967361152" lon="13.597604523016908"><ele>955.25</ele><time>2026-05-02T13:51:58.999Z</time></trkpt><trkpt lat="42.07752935174766" lon="13.597464031439854"><ele>955.5</ele><time>2026-05-02T13:51:59.999Z</time></trkpt><trkpt lat="42.07746140387633" lon="13.597310884338336"><ele>955.75</ele><time>2026-05-02T13:52:00.999Z</time></trkpt><trkpt lat="42.07740219051518" lon="13.597135328567385"><ele>956.0</ele><time>2026-05-02T13:52:01.999Z</time></trkpt><trkpt lat="42.07734257284951" lon="13.596954007420088"><ele>956.0</ele><time>2026-05-02T13:52:02.999Z</time></trkpt><trkpt lat="42.077266831463184" lon="13.596789512103719"><ele>956.0</ele><time>2026-05-02T13:52:03.999Z</time></trkpt><trkpt lat="42.07719992279864" lon="13.596620361765002"><ele>956.0</ele><time>2026-05-02T13:52:04.999Z</time></trkpt><trkpt lat="42.07713945873885" lon="13.596458372540493"><ele>956.0</ele><time>2026-05-02T13:52:05.999Z</time></trkpt><trkpt lat="42.077095770966785" lon="13.596309936167534"><ele>955.8</ele><time>2026-05-02T13:52:06.999Z</time></trkpt><trkpt lat="42.07705826637276" lon="13.596165238371526"><ele>955.5999999999999</ele><time>2026-05-02T13:52:07.999Z</time></trkpt><trkpt lat="42.0770680455022" lon="13.596023676350587"><ele>955.4</ele><time>2026-05-02T13:52:08.999Z</time></trkpt><trkpt lat="42.07711442373771" lon="13.595887597591977"><ele>955.2</ele><time>2026-05-02T13:52:09.999Z</time></trkpt><trkpt lat="42.07717725663118" lon="13.595762625427508"><ele>955.0</ele><time>2026-05-02T13:52:10.999Z</time></trkpt><trkpt lat="42.077254605459174" lon="13.595642174791738"><ele>955.0</ele><time>2026-05-02T13:52:11.999Z</time></trkpt><trkpt lat="42.07733756950594" lon="13.595530285282946"><ele>955.0</ele><time>2026-05-02T13:52:12.999Z</time></trkpt><trkpt lat="42.077428858787606" lon="13.595420615567386"><ele>955.0</ele><time>2026-05-02T13:52:13.999Z</time></trkpt><trkpt lat="42.077527237340135" lon="13.595313569833763"><ele>955.0</ele><time>2026-05-02T13:52:14.999Z</time></trkpt><trkpt lat="42.077630347419" lon="13.595207142582284"><ele>958.5</ele><time>2026-05-02T13:52:15.999Z</time></trkpt><trkpt lat="42.07773173024831" lon="13.595092623742365"><ele>962.0</ele><time>2026-05-02T13:52:16.999Z</time></trkpt><trkpt lat="42.07783259665358" lon="13.594969211315357"><ele>965.5</ele><time>2026-05-02T13:52:17.999Z</time></trkpt><trkpt lat="42.07793311443196" lon="13.594848594418096"><ele>969.0</ele><time>2026-05-02T13:52:18.999Z</time></trkpt><trkpt lat="42.07803479783032" lon="13.594752281823958"><ele>969.0</ele><time>2026-05-02T13:52:19.999Z</time></trkpt><trkpt lat="42.07813968433296" lon="13.594685448226619"><ele>969.0000000000001</ele><time>2026-05-02T13:52:20.999Z</time></trkpt><trkpt lat="42.07823747985856" lon="13.594623785136783"><ele>969.0000000000001</ele><time>2026-05-02T13:52:21.999Z</time></trkpt><trkpt lat="42.078318538193514" lon="13.594526542742253"><ele>969.0</ele><time>2026-05-02T13:52:22.999Z</time></trkpt><trkpt lat="42.07836267523666" lon="13.594390579721582"><ele>969.0</ele><time>2026-05-02T13:52:23.999Z</time></trkpt><trkpt lat="42.0783621347297" lon="13.594241929117828"><ele>970.4000000000001</ele><time>2026-05-02T13:52:24.999Z</time></trkpt><trkpt lat="42.07832571195813" lon="13.594098550405471"><ele>971.8000000000001</ele><time>2026-05-02T13:52:25.999Z</time></trkpt><trkpt lat="42.078290087716596" lon="13.593964991046649"><ele>973.1999999999999</ele><time>2026-05-02T13:52:26.999Z</time></trkpt><trkpt lat="42.078293369280466" lon="13.593820900378804"><ele>974.5999999999999</ele><time>2026-05-02T13:52:27.999Z</time></trkpt><trkpt lat="42.0783474955435" lon="13.593685832804306"><ele>976.0</ele><time>2026-05-02T13:52:28.999Z</time></trkpt><trkpt lat="42.07845858347245" lon="13.593613533742115"><ele>976.0</ele><time>2026-05-02T13:52:29.999Z</time></trkpt><trkpt lat="42.07854958341799" lon="13.593496180891583"><ele>976.0</ele><time>2026-05-02T13:52:30.999Z</time></trkpt><trkpt lat="42.07865369340531" lon="13.593397092345755"><ele>976.0</ele><time>2026-05-02T13:52:31.999Z</time></trkpt><trkpt lat="42.078762980892456" lon="13.593290214200312"><ele>976.0</ele><time>2026-05-02T13:52:32.999Z</time></trkpt><trkpt lat="42.07887286000148" lon="13.593177973707554"><ele>976.0</ele><time>2026-05-02T13:52:33.999Z</time></trkpt><trkpt lat="42.0789884874358" lon="13.593079747340797"><ele>976.0</ele><time>2026-05-02T13:52:34.999Z</time></trkpt><trkpt lat="42.07912019046913" lon="13.592992114575033"><ele>976.0</ele><time>2026-05-02T13:52:35.998Z</time></trkpt><trkpt lat="42.07923974463877" lon="13.592883619628275"><ele>976.0</ele><time>2026-05-02T13:52:36.998Z</time></trkpt><trkpt lat="42.07931064334759" lon="13.592769715946046"><ele>979.5</ele><time>2026-05-02T13:52:37.998Z</time></trkpt><trkpt lat="42.07941379295731" lon="13.592678914769794"><ele>983.0</ele><time>2026-05-02T13:52:38.998Z</time></trkpt><trkpt lat="42.079520743177476" lon="13.592583620093256"><ele>986.5</ele><time>2026-05-02T13:52:39.998Z</time></trkpt><trkpt lat="42.07962894387665" lon="13.592488114524981"><ele>990.0</ele><time>2026-05-02T13:52:40.998Z</time></trkpt><trkpt lat="42.079735979053176" lon="13.59239326280088"><ele>990.0</ele><time>2026-05-02T13:52:41.998Z</time></trkpt><trkpt lat="42.079837899684584" lon="13.59229970616659"><ele>990.0</ele><time>2026-05-02T13:52:42.998Z</time></trkpt><trkpt lat="42.07992783291844" lon="13.592218658292712"><ele>990.0</ele><time>2026-05-02T13:52:43.998Z</time></trkpt><trkpt lat="42.08001145386413" lon="13.592141493010178"><ele>990.0</ele><time>2026-05-02T13:52:44.998Z</time></trkpt><trkpt lat="42.08009789507031" lon="13.592063721587412"><ele>990.0</ele><time>2026-05-02T13:52:45.998Z</time></trkpt><trkpt lat="42.08018367091083" lon="13.591991346228408"><ele>992.8</ele><time>2026-05-02T13:52:46.998Z</time></trkpt><trkpt lat="42.08027323105692" lon="13.591921921387668"><ele>995.6</ele><time>2026-05-02T13:52:47.998Z</time></trkpt><trkpt lat="42.08036438023998" lon="13.591858123978353"><ele>998.4000000000001</ele><time>2026-05-02T13:52:48.998Z</time></trkpt><trkpt lat="42.080454253515946" lon="13.591787226596534"><ele>1001.2</ele><time>2026-05-02T13:52:49.998Z</time></trkpt><trkpt lat="42.08053799199999" lon="13.591722061833554"><ele>1004.0</ele><time>2026-05-02T13:52:50.998Z</time></trkpt><trkpt lat="42.08061126149759" lon="13.591656785997493"><ele>1004.0000000000001</ele><time>2026-05-02T13:52:51.998Z</time></trkpt><trkpt lat="42.08066164527254" lon="13.5915841561258"><ele>1004.0</ele><time>2026-05-02T13:52:52.999Z</time></trkpt><trkpt lat="42.08071013364178" lon="13.59149597284449"><ele>1004.0</ele><time>2026-05-02T13:52:53.999Z</time></trkpt><trkpt lat="42.08074402030749" lon="13.59139427774118"><ele>1004.0</ele><time>2026-05-02T13:52:54.999Z</time></trkpt><trkpt lat="42.08075714734049" lon="13.591301295700129"><ele>1004.0000000000001</ele><time>2026-05-02T13:52:55.999Z</time></trkpt><trkpt lat="42.08076201534086" lon="13.591195914594946"><ele>1004.0</ele><time>2026-05-02T13:52:57.999Z</time></trkpt><trkpt lat="42.08075507037654" lon="13.591014713188235"><ele>1004.0</ele><time>2026-05-02T13:53:20.999Z</time></trkpt><trkpt lat="42.08062064568051" lon="13.59121151807881"><ele>1004.0</ele><time>2026-05-02T13:53:21.999Z</time></trkpt><trkpt lat="42.080529607244316" lon="13.591141680846775"><ele>1004.0</ele><time>2026-05-02T13:53:23.999Z</time></trkpt><trkpt lat="42.08043103502702" lon="13.591064833834569"><ele>1004.0</ele><time>2026-05-02T13:53:25.999Z</time></trkpt><trkpt lat="42.080364343993196" lon="13.591014724967057"><ele>1004.8333333333334</ele><time>2026-05-02T13:53:26.999Z</time></trkpt><trkpt lat="42.08029596289264" lon="13.590936214194995"><ele>1005.6666666666667</ele><time>2026-05-02T13:53:27.999Z</time></trkpt><trkpt lat="42.080207967162934" lon="13.590894541711497"><ele>1006.5</ele><time>2026-05-02T13:53:28.999Z</time></trkpt><trkpt lat="42.08012571003056" lon="13.590837304696871"><ele>1007.3333333333333</ele><time>2026-05-02T13:53:29.999Z</time></trkpt><trkpt lat="42.08005417671516" lon="13.590770873494362"><ele>1008.1666666666666</ele><time>2026-05-02T13:53:30.999Z</time></trkpt><trkpt lat="42.079981926661816" lon="13.590716417044957"><ele>1009.0</ele><time>2026-05-02T13:53:31.999Z</time></trkpt><trkpt lat="42.079905607385705" lon="13.590669498946877"><ele>1004.3333333333333</ele><time>2026-05-02T13:53:32.999Z</time></trkpt><trkpt lat="42.07983968960759" lon="13.590616195943873"><ele>999.6666666666666</ele><time>2026-05-02T13:53:33.999Z</time></trkpt><trkpt lat="42.07977649109492" lon="13.590558637239045"><ele>995.0</ele><time>2026-05-02T13:53:34.999Z</time></trkpt><trkpt lat="42.079725752598634" lon="13.590489082639104"><ele>990.3333333333333</ele><time>2026-05-02T13:53:35.999Z</time></trkpt><trkpt lat="42.07970614414021" lon="13.590396602503331"><ele>985.6666666666666</ele><time>2026-05-02T13:53:36.999Z</time></trkpt><trkpt lat="42.07969607550864" lon="13.590276715990028"><ele>981.0</ele><time>2026-05-02T13:53:38.999Z</time></trkpt><trkpt lat="42.079672989578725" lon="13.590149061897298"><ele>980.8333333333334</ele><time>2026-05-02T13:53:40.999Z</time></trkpt><trkpt lat="42.07966155580381" lon="13.590064046288667"><ele>980.6666666666667</ele><time>2026-05-02T13:53:41.999Z</time></trkpt><trkpt lat="42.07966405068573" lon="13.589973965664402"><ele>980.5</ele><time>2026-05-02T13:53:42.999Z</time></trkpt><trkpt lat="42.079695982293046" lon="13.58988320207047"><ele>980.3333333333334</ele><time>2026-05-02T13:53:43.999Z</time></trkpt><trkpt lat="42.079716814718786" lon="13.589771870664606"><ele>980.1666666666667</ele><time>2026-05-02T13:53:44.999Z</time></trkpt><trkpt lat="42.07976076122439" lon="13.589662194678805"><ele>980.0</ele><time>2026-05-02T13:53:45.999Z</time></trkpt><trkpt lat="42.07980084833014" lon="13.589554586808577"><ele>978.3333333333334</ele><time>2026-05-02T13:53:46.999Z</time></trkpt><trkpt lat="42.07984529965249" lon="13.58945568991831"><ele>976.6666666666667</ele><time>2026-05-02T13:53:47.999Z</time></trkpt><trkpt lat="42.07988974307444" lon="13.589361034305954"><ele>975.0</ele><time>2026-05-02T13:53:48.999Z</time></trkpt><trkpt lat="42.0799352599051" lon="13.589261969248051"><ele>973.3333333333333</ele><time>2026-05-02T13:53:49.999Z</time></trkpt><trkpt lat="42.07997793391424" lon="13.58916556389496"><ele>971.6666666666666</ele><time>2026-05-02T13:53:50.999Z</time></trkpt><trkpt lat="42.08001742480878" lon="13.589083781045693"><ele>970.0</ele><time>2026-05-02T13:53:51.999Z</time></trkpt><trkpt lat="42.080069368758856" lon="13.589021619534886"><ele>974.9999999999999</ele><time>2026-05-02T13:53:52.999Z</time></trkpt><trkpt lat="42.08013234508034" lon="13.588980028669141"><ele>980.0</ele><time>2026-05-02T13:53:53.999Z</time></trkpt><trkpt lat="42.0802020962277" lon="13.588931407506731"><ele>985.0</ele><time>2026-05-02T13:53:54.999Z</time></trkpt><trkpt lat="42.08027753027073" lon="13.588876859938356"><ele>990.0</ele><time>2026-05-02T13:53:55.999Z</time></trkpt><trkpt lat="42.0803488018526" lon="13.588812206859881"><ele>994.9999999999999</ele><time>2026-05-02T13:53:56.999Z</time></trkpt><trkpt lat="42.08042226476426" lon="13.588756065705919"><ele>1000.0</ele><time>2026-05-02T13:53:57.999Z</time></trkpt><trkpt lat="42.080493826695765" lon="13.588702374479881"><ele>999.2857142857142</ele><time>2026-05-02T13:53:58.999Z</time></trkpt><trkpt lat="42.08055353518477" lon="13.58865580484122"><ele>998.5714285714287</ele><time>2026-05-02T13:53:59.999Z</time></trkpt><trkpt lat="42.08061363747851" lon="13.58860845536103"><ele>997.8571428571429</ele><time>2026-05-02T13:54:00.999Z</time></trkpt><trkpt lat="42.08067156984242" lon="13.588567995027779"><ele>997.1428571428571</ele><time>2026-05-02T13:54:01.999Z</time></trkpt><trkpt lat="42.08073755097673" lon="13.588534617837631"><ele>996.4285714285713</ele><time>2026-05-02T13:54:02.999Z</time></trkpt><trkpt lat="42.0808105020687" lon="13.588534298748423"><ele>995.7142857142858</ele><time>2026-05-02T13:54:03.999Z</time></trkpt><trkpt lat="42.080889267704265" lon="13.58854886538852"><ele>995.0</ele><time>2026-05-02T13:54:04.999Z</time></trkpt><trkpt lat="42.08096715858712" lon="13.588574519799815"><ele>995.0000000000001</ele><time>2026-05-02T13:54:05.999Z</time></trkpt><trkpt lat="42.08104558874087" lon="13.588603807737194"><ele>995.0</ele><time>2026-05-02T13:54:06.999Z</time></trkpt><trkpt lat="42.081122736428355" lon="13.588636056686447"><ele>995.0</ele><time>2026-05-02T13:54:07.999Z</time></trkpt><trkpt lat="42.08120016225837" lon="13.588674314229616"><ele>995.0</ele><time>2026-05-02T13:54:08.999Z</time></trkpt><trkpt lat="42.08126814801566" lon="13.588702131095532"><ele>995.0000000000001</ele><time>2026-05-02T13:54:09.999Z</time></trkpt><trkpt lat="42.08134648434315" lon="13.588747641513269"><ele>995.0</ele><time>2026-05-02T13:54:11.999Z</time></trkpt><trkpt lat="42.081384946387864" lon="13.588559634022607"><ele>995.0000000000001</ele><time>2026-05-02T13:54:12.999Z</time></trkpt><trkpt lat="42.08139346277814" lon="13.588472391870347"><ele>995.0</ele><time>2026-05-02T13:54:13.999Z</time></trkpt><trkpt lat="42.08133432028345" lon="13.588397589526258"><ele>995.0</ele><time>2026-05-02T13:54:14.999Z</time></trkpt><trkpt lat="42.081324745244096" lon="13.588269790555866"><ele>995.0</ele><time>2026-05-02T13:54:16.999Z</time></trkpt><trkpt lat="42.081418989507355" lon="13.58824171558241"><ele>995.0000000000001</ele><time>2026-05-02T13:54:18.999Z</time></trkpt><trkpt lat="42.08150804215879" lon="13.588290462968997"><ele>995.0</ele><time>2026-05-02T13:54:20.999Z</time></trkpt><trkpt lat="42.08157434942979" lon="13.588252079784677"><ele>995.0</ele><time>2026-05-02T13:54:22.999Z</time></trkpt><trkpt lat="42.081597213478275" lon="13.588133146618723"><ele>995.0</ele><time>2026-05-02T13:54:24.999Z</time></trkpt><trkpt lat="42.08155514122566" lon="13.588060916096893"><ele>995.0</ele><time>2026-05-02T13:54:27.999Z</time></trkpt><trkpt lat="42.081609449135" lon="13.588112236659677"><ele>995.0</ele><time>2026-05-02T13:54:34.999Z</time></trkpt><trkpt lat="42.081533692329195" lon="13.588313345372564"><ele>995.0</ele><time>2026-05-02T13:54:35.999Z</time></trkpt><trkpt lat="42.08151350959637" lon="13.588052871145425"><ele>995.0</ele><time>2026-05-02T13:54:36.999Z</time></trkpt><trkpt lat="42.08141840640093" lon="13.588047866125592"><ele>995.0</ele><time>2026-05-02T13:54:39.999Z</time></trkpt><trkpt lat="42.08134050696769" lon="13.58800791019073"><ele>995.0</ele><time>2026-05-02T13:54:40.999Z</time></trkpt><trkpt lat="42.081286185249745" lon="13.588330629334264"><ele>995.0</ele><time>2026-05-02T13:54:42.999Z</time></trkpt><trkpt lat="42.08131657484464" lon="13.588443288442493"><ele>995.0</ele><time>2026-05-02T13:54:44.999Z</time></trkpt><trkpt lat="42.08137081993082" lon="13.588580849244345"><ele>995.0</ele><time>2026-05-02T13:54:46.999Z</time></trkpt><trkpt lat="42.081327952811314" lon="13.588686232897063"><ele>995.0</ele><time>2026-05-02T13:54:48.999Z</time></trkpt><trkpt lat="42.081375501408054" lon="13.588747483366827"><ele>995.0</ele><time>2026-05-02T13:54:51.999Z</time></trkpt><trkpt lat="42.08147890999759" lon="13.588830486505856"><ele>995.0</ele><time>2026-05-02T13:54:54.998Z</time></trkpt><trkpt lat="42.081615730927005" lon="13.588883687727822"><ele>997.0</ele><time>2026-05-02T13:54:56.998Z</time></trkpt><trkpt lat="42.08169531438587" lon="13.588913111019018"><ele>999.0</ele><time>2026-05-02T13:54:57.998Z</time></trkpt><trkpt lat="42.08175988480994" lon="13.5889384353215"><ele>1001.0</ele><time>2026-05-02T13:54:59Z</time></trkpt><trkpt lat="42.0818248441499" lon="13.58898656044621"><ele>1003.0</ele><time>2026-05-02T13:55:01Z</time></trkpt><trkpt lat="42.08186964663322" lon="13.58878030157984"><ele>1005.0</ele><time>2026-05-02T13:55:05Z</time></trkpt><trkpt lat="42.08196069171018" lon="13.588720042666122"><ele>1005.0</ele><time>2026-05-02T13:55:07Z</time></trkpt><trkpt lat="42.082019128941106" lon="13.58877086604499"><ele>1005.0</ele><time>2026-05-02T13:55:08Z</time></trkpt><trkpt lat="42.082091194984834" lon="13.588770040037032"><ele>1005.0</ele><time>2026-05-02T13:55:09Z</time></trkpt><trkpt lat="42.082173500626745" lon="13.588766836525428"><ele>1005.0</ele><time>2026-05-02T13:55:10Z</time></trkpt><trkpt lat="42.08226424486263" lon="13.588758311707185"><ele>1005.0</ele><time>2026-05-02T13:55:11Z</time></trkpt><trkpt lat="42.08234595157061" lon="13.588735484286088"><ele>1005.0</ele><time>2026-05-02T13:55:12Z</time></trkpt><trkpt lat="42.08242153988472" lon="13.588720503553619"><ele>1005.5</ele><time>2026-05-02T13:55:13Z</time></trkpt><trkpt lat="42.082503552286504" lon="13.588730788443534"><ele>1006.0</ele><time>2026-05-02T13:55:15Z</time></trkpt><trkpt lat="42.08257787170634" lon="13.58872352625097"><ele>1006.5</ele><time>2026-05-02T13:55:38.999Z</time></trkpt><trkpt lat="42.0826463099887" lon="13.588685518550331"><ele>1007.0</ele><time>2026-05-02T13:55:40.999Z</time></trkpt><trkpt lat="42.08272310955268" lon="13.588705338683239"><ele>1007.5</ele><time>2026-05-02T13:55:42.999Z</time></trkpt><trkpt lat="42.08279410810755" lon="13.588724052441174"><ele>1008.0</ele><time>2026-05-02T13:55:44.999Z</time></trkpt><trkpt lat="42.082865642110015" lon="13.588750506008406"><ele>1008.0</ele><time>2026-05-02T13:55:47.999Z</time></trkpt><trkpt lat="42.08293124022809" lon="13.58876842000086"><ele>1008.0</ele><time>2026-05-02T13:55:52.999Z</time></trkpt><trkpt lat="42.083010295854805" lon="13.588793765102636"><ele>1008.0</ele><time>2026-05-02T13:55:55.999Z</time></trkpt><trkpt lat="42.083071870211086" lon="13.588821854823966"><ele>1008.0</ele><time>2026-05-02T13:56:00.999Z</time></trkpt><trkpt lat="42.083154541616096" lon="13.588834431508012"><ele>1008.0</ele><time>2026-05-02T13:56:03.999Z</time></trkpt><trkpt lat="42.08322626999387" lon="13.588822065734774"><ele>1008.0</ele><time>2026-05-02T13:56:05.999Z</time></trkpt><trkpt lat="42.083302984966764" lon="13.588824622043699"><ele>1008.0</ele><time>2026-05-02T13:56:07.999Z</time></trkpt><trkpt lat="42.08338018872765" lon="13.58883138710581"><ele>1006.2</ele><time>2026-05-02T13:56:09.999Z</time></trkpt><trkpt lat="42.08347569987805" lon="13.588829580934716"><ele>1004.4</ele><time>2026-05-02T13:56:12.999Z</time></trkpt><trkpt lat="42.083572096113656" lon="13.588851356559193"><ele>1002.6000000000001</ele><time>2026-05-02T13:56:14.999Z</time></trkpt><trkpt lat="42.083659878451854" lon="13.588831385216471"><ele>1000.8000000000001</ele><time>2026-05-02T13:56:16.999Z</time></trkpt><trkpt lat="42.08375868346146" lon="13.588856042435658"><ele>999.0</ele><time>2026-05-02T13:56:18.999Z</time></trkpt><trkpt lat="42.083867470144796" lon="13.588845405507072"><ele>999.0</ele><time>2026-05-02T13:56:20.999Z</time></trkpt><trkpt lat="42.08395452558539" lon="13.58884712026592"><ele>999.0000000000001</ele><time>2026-05-02T13:56:22.999Z</time></trkpt><trkpt lat="42.084040370177156" lon="13.58884852514984"><ele>999.0000000000001</ele><time>2026-05-02T13:56:24.999Z</time></trkpt><trkpt lat="42.08412791539533" lon="13.588854620116146"><ele>999.0</ele><time>2026-05-02T13:56:26.999Z</time></trkpt><trkpt lat="42.084229190986136" lon="13.588828772556106"><ele>999.0</ele><time>2026-05-02T13:56:28.999Z</time></trkpt><trkpt lat="42.084329304721024" lon="13.58882986099615"><ele>997.0</ele><time>2026-05-02T13:56:30.999Z</time></trkpt><trkpt lat="42.08443965899204" lon="13.588822303531757"><ele>995.0000000000001</ele><time>2026-05-02T13:56:32.999Z</time></trkpt><trkpt lat="42.084502991596175" lon="13.588806009533592"><ele>993.0000000000001</ele><time>2026-05-02T13:56:33.999Z</time></trkpt><trkpt lat="42.08462187848131" lon="13.588784641363814"><ele>991.0</ele><time>2026-05-02T13:56:35.999Z</time></trkpt><trkpt lat="42.08472919707314" lon="13.588791140064084"><ele>989.0</ele><time>2026-05-02T13:56:37.999Z</time></trkpt><trkpt lat="42.08479930826608" lon="13.588762400885198"><ele>985.5000000000001</ele><time>2026-05-02T13:56:39.999Z</time></trkpt><trkpt lat="42.08480579635804" lon="13.5886548490836"><ele>982.0</ele><time>2026-05-02T13:56:41.999Z</time></trkpt><trkpt lat="42.08471703509957" lon="13.588599957751377"><ele>978.5</ele><time>2026-05-02T13:56:43.999Z</time></trkpt><trkpt lat="42.0846521176059" lon="13.588600937196786"><ele>975.0</ele><time>2026-05-02T13:56:44.999Z</time></trkpt><trkpt lat="42.084578757231355" lon="13.588592202804938"><ele>971.5000000000001</ele><time>2026-05-02T13:56:45.999Z</time></trkpt><trkpt lat="42.08448389513114" lon="13.588540746810375"><ele>968.0</ele><time>2026-05-02T13:56:47.999Z</time></trkpt><trkpt lat="42.08439579171766" lon="13.588478925966015"><ele>968.0</ele><time>2026-05-02T13:56:49.999Z</time></trkpt><trkpt lat="42.08430693807965" lon="13.588400532477309"><ele>968.0</ele><time>2026-05-02T13:56:51.999Z</time></trkpt><trkpt lat="42.08420115469201" lon="13.588314039077282"><ele>968.0</ele><time>2026-05-02T13:56:53.999Z</time></trkpt><trkpt lat="42.084155811099535" lon="13.588202707249716"><ele>968.0</ele><time>2026-05-02T13:56:55.999Z</time></trkpt><trkpt lat="42.084171791616136" lon="13.588070913152443"><ele>968.0</ele><time>2026-05-02T13:56:58.999Z</time></trkpt><trkpt lat="42.084223305662306" lon="13.588011758692653"><ele>968.0</ele><time>2026-05-02T13:57:00.999Z</time></trkpt><trkpt lat="42.08428882712957" lon="13.587976136125285"><ele>968.0</ele><time>2026-05-02T13:57:02.999Z</time></trkpt><trkpt lat="42.08437647748406" lon="13.587912796879763"><ele>968.0</ele><time>2026-05-02T13:57:06Z</time></trkpt><trkpt lat="42.08442842979195" lon="13.587843099064312"><ele>968.0</ele><time>2026-05-02T13:57:08Z</time></trkpt><trkpt lat="42.08450302892688" lon="13.587740096133818"><ele>968.0</ele><time>2026-05-02T13:57:10Z</time></trkpt><trkpt lat="42.08458552418171" lon="13.587640109647316"><ele>965.4</ele><time>2026-05-02T13:57:12Z</time></trkpt><trkpt lat="42.08464934468501" lon="13.587536910568934"><ele>962.8</ele><time>2026-05-02T13:57:14Z</time></trkpt><trkpt lat="42.0847278360892" lon="13.587436257167463"><ele>960.2</ele><time>2026-05-02T13:57:16Z</time></trkpt><trkpt lat="42.08482548434555" lon="13.587332511931706"><ele>957.6</ele><time>2026-05-02T13:57:18Z</time></trkpt><trkpt lat="42.084883865318325" lon="13.587275758206774"><ele>955.0</ele><time>2026-05-02T13:57:19Z</time></trkpt><trkpt lat="42.084948207310646" lon="13.587218577086677"><ele>954.4285714285713</ele><time>2026-05-02T13:57:20Z</time></trkpt><trkpt lat="42.08502390957495" lon="13.587163625691884"><ele>953.8571428571429</ele><time>2026-05-02T13:57:21Z</time></trkpt><trkpt lat="42.08508740599362" lon="13.587126213914816"><ele>953.2857142857142</ele><time>2026-05-02T13:57:22Z</time></trkpt><trkpt lat="42.08514384762374" lon="13.587083134614515"><ele>952.7142857142857</ele><time>2026-05-02T13:57:23Z</time></trkpt><trkpt lat="42.08521565947099" lon="13.587058057834058"><ele>952.1428571428571</ele><time>2026-05-02T13:57:24Z</time></trkpt><trkpt lat="42.08528780659189" lon="13.587045627597998"><ele>951.5714285714286</ele><time>2026-05-02T13:57:25Z</time></trkpt><trkpt lat="42.08535746898256" lon="13.587024319855285"><ele>951.0</ele><time>2026-05-02T13:57:26Z</time></trkpt><trkpt lat="42.0854251711394" lon="13.586980131045706"><ele>950.0</ele><time>2026-05-02T13:57:27Z</time></trkpt><trkpt lat="42.08547954470858" lon="13.586909434382324"><ele>949.0</ele><time>2026-05-02T13:57:28Z</time></trkpt><trkpt lat="42.0855105417941" lon="13.58683325283114"><ele>948.0</ele><time>2026-05-02T13:57:29Z</time></trkpt><trkpt lat="42.08552851165893" lon="13.58666844919012"><ele>947.0</ele><time>2026-05-02T13:57:31Z</time></trkpt><trkpt lat="42.08551328507014" lon="13.586582449793509"><ele>946.0</ele><time>2026-05-02T13:57:32Z</time></trkpt><trkpt lat="42.08548354257286" lon="13.586478041689077"><ele>945.0</ele><time>2026-05-02T13:57:33Z</time></trkpt><trkpt lat="42.08545149970233" lon="13.58639181253102"><ele>945.0</ele><time>2026-05-02T13:57:34Z</time></trkpt><trkpt lat="42.08542097553886" lon="13.586305894527351"><ele>945.0</ele><time>2026-05-02T13:57:35Z</time></trkpt><trkpt lat="42.08538693147938" lon="13.586203762909257"><ele>945.0</ele><time>2026-05-02T13:57:36Z</time></trkpt><trkpt lat="42.085378017145125" lon="13.586098304127518"><ele>945.0</ele><time>2026-05-02T13:57:37Z</time></trkpt><trkpt lat="42.08536960869372" lon="13.58600421831485"><ele>945.0</ele><time>2026-05-02T13:57:38Z</time></trkpt><trkpt lat="42.085365435168555" lon="13.585898512972022"><ele>945.0</ele><time>2026-05-02T13:57:39Z</time></trkpt><trkpt lat="42.08536372869527" lon="13.585790748146573"><ele>944.8333333333334</ele><time>2026-05-02T13:57:40Z</time></trkpt><trkpt lat="42.08541507371533" lon="13.58570291223804"><ele>944.6666666666667</ele><time>2026-05-02T13:57:41Z</time></trkpt><trkpt lat="42.08544543772053" lon="13.585619386324392"><ele>944.5</ele><time>2026-05-02T13:57:42Z</time></trkpt><trkpt lat="42.08549770367714" lon="13.585467728585835"><ele>944.3333333333334</ele><time>2026-05-02T13:57:44Z</time></trkpt><trkpt lat="42.085517812587696" lon="13.585369381523172"><ele>944.1666666666667</ele><time>2026-05-02T13:57:49.999Z</time></trkpt><trkpt lat="42.08554814513985" lon="13.585291699730094"><ele>944.0</ele><time>2026-05-02T13:57:53.999Z</time></trkpt><trkpt lat="42.08558653087249" lon="13.585186109041324"><ele>943.6666666666667</ele><time>2026-05-02T13:57:55.999Z</time></trkpt><trkpt lat="42.085623964625526" lon="13.585075904269472"><ele>943.3333333333334</ele><time>2026-05-02T13:57:57.999Z</time></trkpt><trkpt lat="42.08567845381652" lon="13.58492658754867"><ele>943.0</ele><time>2026-05-02T13:57:59.999Z</time></trkpt><trkpt lat="42.08571156620577" lon="13.584838173069516"><ele>942.6666666666667</ele><time>2026-05-02T13:58:00.999Z</time></trkpt><trkpt lat="42.08574899987397" lon="13.584744856858801"><ele>942.3333333333334</ele><time>2026-05-02T13:58:01.999Z</time></trkpt><trkpt lat="42.085778852115105" lon="13.584658684555441"><ele>942.0</ele><time>2026-05-02T13:58:02.999Z</time></trkpt><trkpt lat="42.08582028885243" lon="13.584577249304724"><ele>946.4000000000001</ele><time>2026-05-02T13:58:03.999Z</time></trkpt><trkpt lat="42.085898305749936" lon="13.584463116775094"><ele>950.8000000000001</ele><time>2026-05-02T13:58:05.999Z</time></trkpt><trkpt lat="42.08599148016507" lon="13.584364274213806"><ele>955.2</ele><time>2026-05-02T13:58:07.999Z</time></trkpt><trkpt lat="42.08605964930645" lon="13.584286009963288"><ele>959.6</ele><time>2026-05-02T13:58:09.999Z</time></trkpt><trkpt lat="42.086117399374594" lon="13.584236413845357"><ele>964.0</ele><time>2026-05-02T13:58:12.999Z</time></trkpt><trkpt lat="42.08613974288846" lon="13.584131895528092"><ele>963.9999999999999</ele><time>2026-05-02T14:09:48Z</time></trkpt><trkpt lat="42.0861047687483" lon="13.58403438613555"><ele>964.0</ele><time>2026-05-02T14:09:50Z</time></trkpt><trkpt lat="42.086081567450236" lon="13.583942166706166"><ele>964.0</ele><time>2026-05-02T14:09:51Z</time></trkpt><trkpt lat="42.086063144640065" lon="13.583843374328092"><ele>964.0</ele><time>2026-05-02T14:09:52Z</time></trkpt><trkpt lat="42.086043883051964" lon="13.583735843356987"><ele>963.9999999999999</ele><time>2026-05-02T14:09:53Z</time></trkpt><trkpt lat="42.08601307444604" lon="13.583624991399143"><ele>964.0</ele><time>2026-05-02T14:09:54Z</time></trkpt><trkpt lat="42.08596933649227" lon="13.583508764870578"><ele>964.6</ele><time>2026-05-02T14:09:55Z</time></trkpt><trkpt lat="42.085916333626734" lon="13.583396128049245"><ele>965.2</ele><time>2026-05-02T14:09:56Z</time></trkpt><trkpt lat="42.08586983660546" lon="13.5832817913277"><ele>965.8000000000001</ele><time>2026-05-02T14:09:57Z</time></trkpt><trkpt lat="42.08581387598798" lon="13.583173504484341"><ele>966.4000000000001</ele><time>2026-05-02T14:09:58Z</time></trkpt><trkpt lat="42.08574777520286" lon="13.583039528622969"><ele>967.0</ele><time>2026-05-02T14:09:59Z</time></trkpt><trkpt lat="42.085691582291226" lon="13.582964531572758"><ele>965.6</ele><time>2026-05-02T14:10:00Z</time></trkpt><trkpt lat="42.085631552184566" lon="13.582852989484696"><ele>964.2</ele><time>2026-05-02T14:10:01Z</time></trkpt><trkpt lat="42.0855889615985" lon="13.58273282311375"><ele>962.8</ele><time>2026-05-02T14:10:02Z</time></trkpt><trkpt lat="42.08553587992717" lon="13.58261265416769"><ele>961.4</ele><time>2026-05-02T14:10:03Z</time></trkpt><trkpt lat="42.085471445377344" lon="13.58248380390216"><ele>960.0</ele><time>2026-05-02T14:10:04Z</time></trkpt><trkpt lat="42.085428883518446" lon="13.582338016275076"><ele>960.0</ele><time>2026-05-02T14:10:05Z</time></trkpt><trkpt lat="42.08538622125935" lon="13.58219887205076"><ele>960.0</ele><time>2026-05-02T14:10:06Z</time></trkpt><trkpt lat="42.08534150728385" lon="13.582040922165538"><ele>960.0</ele><time>2026-05-02T14:10:07Z</time></trkpt><trkpt lat="42.08529214677243" lon="13.581891593380242"><ele>960.0</ele><time>2026-05-02T14:10:08Z</time></trkpt><trkpt lat="42.0852590740335" lon="13.581740713594318"><ele>962.25</ele><time>2026-05-02T14:10:09Z</time></trkpt><trkpt lat="42.085209335922364" lon="13.58159792149108"><ele>964.5</ele><time>2026-05-02T14:10:10Z</time></trkpt><trkpt lat="42.08514427638371" lon="13.581463258714757"><ele>966.75</ele><time>2026-05-02T14:10:11Z</time></trkpt><trkpt lat="42.08509477851256" lon="13.58132323478847"><ele>969.0</ele><time>2026-05-02T14:10:12Z</time></trkpt><trkpt lat="42.0850503567196" lon="13.581188790262493"><ele>970.2</ele><time>2026-05-02T14:10:13Z</time></trkpt><trkpt lat="42.085006766914525" lon="13.581047324533241"><ele>971.4000000000001</ele><time>2026-05-02T14:10:14Z</time></trkpt><trkpt lat="42.08496392713504" lon="13.580902659539655"><ele>972.6</ele><time>2026-05-02T14:10:15Z</time></trkpt><trkpt lat="42.08492763471899" lon="13.580784142253718"><ele>973.8</ele><time>2026-05-02T14:10:16Z</time></trkpt><trkpt lat="42.08489721116425" lon="13.580677871472261"><ele>975.0</ele><time>2026-05-02T14:10:17Z</time></trkpt><trkpt lat="42.08488647306291" lon="13.5805803168844"><ele>975.0</ele><time>2026-05-02T14:10:18Z</time></trkpt><trkpt lat="42.08485290873983" lon="13.580501263971886"><ele>975.0</ele><time>2026-05-02T14:10:19Z</time></trkpt><trkpt lat="42.084837193118844" lon="13.580401791393543"><ele>975.0</ele><time>2026-05-02T14:10:20Z</time></trkpt><trkpt lat="42.08483019754623" lon="13.580296458285973"><ele>975.0</ele><time>2026-05-02T14:10:21Z</time></trkpt><trkpt lat="42.084825675696564" lon="13.580156221517086"><ele>975.0</ele><time>2026-05-02T14:10:23Z</time></trkpt><trkpt lat="42.084824847149655" lon="13.580070798771757"><ele>975.0</ele><time>2026-05-02T14:10:24Z</time></trkpt><trkpt lat="42.0848246757433" lon="13.579984769408476"><ele>975.6</ele><time>2026-05-02T14:10:25Z</time></trkpt><trkpt lat="42.084844723785096" lon="13.579828062925197"><ele>976.2</ele><time>2026-05-02T14:10:27Z</time></trkpt><trkpt lat="42.08488084072381" lon="13.579714376011829"><ele>976.8</ele><time>2026-05-02T14:10:29Z</time></trkpt><trkpt lat="42.08492018063252" lon="13.57961879490776"><ele>977.4</ele><time>2026-05-02T14:10:31Z</time></trkpt><trkpt lat="42.08497257740542" lon="13.579521694713346"><ele>978.0</ele><time>2026-05-02T14:10:33Z</time></trkpt><trkpt lat="42.085025774262654" lon="13.579421823554508"><ele>975.2</ele><time>2026-05-02T14:10:34.999Z</time></trkpt><trkpt lat="42.08508114554751" lon="13.579339974282"><ele>972.4</ele><time>2026-05-02T14:10:36.999Z</time></trkpt><trkpt lat="42.08514278890765" lon="13.579257719825618"><ele>969.6000000000001</ele><time>2026-05-02T14:10:38.999Z</time></trkpt><trkpt lat="42.085212246629695" lon="13.579132376689103"><ele>966.8000000000001</ele><time>2026-05-02T14:10:40.999Z</time></trkpt><trkpt lat="42.08529683350555" lon="13.579015244299578"><ele>964.0</ele><time>2026-05-02T14:10:42.999Z</time></trkpt><trkpt lat="42.08538177544124" lon="13.578914656020851"><ele>964.0</ele><time>2026-05-02T14:10:44.999Z</time></trkpt><trkpt lat="42.08546003519981" lon="13.578806970358109"><ele>964.0000000000001</ele><time>2026-05-02T14:10:46.999Z</time></trkpt><trkpt lat="42.08554975257195" lon="13.57871067354926"><ele>964.0000000000001</ele><time>2026-05-02T14:10:48.999Z</time></trkpt><trkpt lat="42.085623010136736" lon="13.578601005330547"><ele>964.0</ele><time>2026-05-02T14:10:50.999Z</time></trkpt><trkpt lat="42.08567186770936" lon="13.57848379446525"><ele>964.0</ele><time>2026-05-02T14:10:52.999Z</time></trkpt><trkpt lat="42.085731534052215" lon="13.578381124961595"><ele>963.6666666666666</ele><time>2026-05-02T14:10:54.999Z</time></trkpt><trkpt lat="42.085797524114206" lon="13.578284773283688"><ele>963.3333333333333</ele><time>2026-05-02T14:10:56.999Z</time></trkpt><trkpt lat="42.085827802278054" lon="13.5781850103542"><ele>963.0</ele><time>2026-05-02T14:10:58.999Z</time></trkpt><trkpt lat="42.0858741366524" lon="13.5780905837743"><ele>962.6666666666667</ele><time>2026-05-02T14:11:00.999Z</time></trkpt><trkpt lat="42.08590191284783" lon="13.57801210427595"><ele>962.3333333333334</ele><time>2026-05-02T14:11:02.999Z</time></trkpt><trkpt lat="42.08592352087224" lon="13.577899703590615"><ele>962.0</ele><time>2026-05-02T14:11:05.999Z</time></trkpt><trkpt lat="42.08596005646108" lon="13.577811699799264"><ele>959.5000000000001</ele><time>2026-05-02T14:11:07.999Z</time></trkpt><trkpt lat="42.085985606648464" lon="13.57770635761464"><ele>957.0</ele><time>2026-05-02T14:11:09.999Z</time></trkpt><trkpt lat="42.08601203043663" lon="13.577619154785493"><ele>954.5</ele><time>2026-05-02T14:11:11.999Z</time></trkpt><trkpt lat="42.08605066863603" lon="13.577524803841497"><ele>952.0</ele><time>2026-05-02T14:11:14.999Z</time></trkpt><trkpt lat="42.086080773114084" lon="13.577437343909194"><ele>949.5000000000001</ele><time>2026-05-02T14:11:18.999Z</time></trkpt><trkpt lat="42.086135474772284" lon="13.577324503262394"><ele>947.0</ele><time>2026-05-02T14:11:19.999Z</time></trkpt><trkpt lat="42.08604779957958" lon="13.57713239454996"><ele>947.0000000000001</ele><time>2026-05-02T14:11:21.999Z</time></trkpt><trkpt lat="42.0859542438983" lon="13.577099531343976"><ele>947.0</ele><time>2026-05-02T14:11:22.999Z</time></trkpt><trkpt lat="42.085857473949645" lon="13.5771073148498"><ele>947.0</ele><time>2026-05-02T14:11:24.999Z</time></trkpt><trkpt lat="42.0857674622271" lon="13.577131509584941"><ele>947.0</ele><time>2026-05-02T14:11:26.999Z</time></trkpt><trkpt lat="42.085699947619815" lon="13.577149777395023"><ele>947.0000000000001</ele><time>2026-05-02T14:11:28.999Z</time></trkpt><trkpt lat="42.08561908195938" lon="13.577172321757397"><ele>947.0</ele><time>2026-05-02T14:11:32.999Z</time></trkpt><trkpt lat="42.08554333814923" lon="13.5771981369998"><ele>944.2</ele><time>2026-05-02T14:11:35.999Z</time></trkpt><trkpt lat="42.08547075421977" lon="13.577208955376438"><ele>941.4000000000001</ele><time>2026-05-02T14:11:38.999Z</time></trkpt><trkpt lat="42.08536096386748" lon="13.577191266114"><ele>938.5999999999999</ele><time>2026-05-02T14:11:40.999Z</time></trkpt><trkpt lat="42.08526285417358" lon="13.577206534527878"><ele>935.8</ele><time>2026-05-02T14:11:42.999Z</time></trkpt><trkpt lat="42.08523563554491" lon="13.577355953002199"><ele>933.0</ele><time>2026-05-02T14:11:44Z</time></trkpt><trkpt lat="42.08513410095793" lon="13.577325556742911"><ele>933.0</ele><time>2026-05-02T14:11:46Z</time></trkpt><trkpt lat="42.08505112609" lon="13.577301320328926"><ele>933.0</ele><time>2026-05-02T14:11:48Z</time></trkpt><trkpt lat="42.0849820969403" lon="13.577238361059075"><ele>933.0</ele><time>2026-05-02T14:11:50Z</time></trkpt><trkpt lat="42.08498329127652" lon="13.577122047797031"><ele>933.0</ele><time>2026-05-02T14:11:52Z</time></trkpt><trkpt lat="42.0850466899141" lon="13.57702056684148"><ele>933.0</ele><time>2026-05-02T14:11:54Z</time></trkpt><trkpt lat="42.08510621448676" lon="13.57695566815695"><ele>933.0</ele><time>2026-05-02T14:11:57Z</time></trkpt><trkpt lat="42.085173148286906" lon="13.57688621560013"><ele>930.5</ele><time>2026-05-02T14:12:03Z</time></trkpt><trkpt lat="42.085231323841136" lon="13.576830083226023"><ele>928.0</ele><time>2026-05-02T14:12:07Z</time></trkpt><trkpt lat="42.08529205602027" lon="13.57680410903612"><ele>925.5</ele><time>2026-05-02T14:12:10Z</time></trkpt><trkpt lat="42.08538539864695" lon="13.576753222490666"><ele>923.0</ele><time>2026-05-02T14:12:14Z</time></trkpt><trkpt lat="42.08543744692978" lon="13.576672617836897"><ele>920.5</ele><time>2026-05-02T14:12:18Z</time></trkpt><trkpt lat="42.0854721961019" lon="13.576556640828711"><ele>918.0</ele><time>2026-05-02T14:12:21Z</time></trkpt><trkpt lat="42.08541588161708" lon="13.576455404049737"><ele>918.0</ele><time>2026-05-02T14:12:23Z</time></trkpt><trkpt lat="42.085309294576575" lon="13.576433614245662"><ele>918.0</ele><time>2026-05-02T14:12:27Z</time></trkpt><trkpt lat="42.08524489856892" lon="13.576446615844754"><ele>918.0</ele><time>2026-05-02T14:12:31.999Z</time></trkpt><trkpt lat="42.08518097193717" lon="13.576430293820437"><ele>918.0</ele><time>2026-05-02T14:12:35.999Z</time></trkpt><trkpt lat="42.08511855654299" lon="13.5764154428181"><ele>918.0</ele><time>2026-05-02T14:12:37.999Z</time></trkpt><trkpt lat="42.085050611038184" lon="13.57637661486372"><ele>918.0</ele><time>2026-05-02T14:12:39.999Z</time></trkpt><trkpt lat="42.0849795023675" lon="13.576331854558736"><ele>916.8333333333334</ele><time>2026-05-02T14:12:41.999Z</time></trkpt><trkpt lat="42.084904559202755" lon="13.57629603071465"><ele>915.6666666666667</ele><time>2026-05-02T14:12:43.999Z</time></trkpt><trkpt lat="42.08483313521093" lon="13.576273800245572"><ele>914.5</ele><time>2026-05-02T14:12:45.999Z</time></trkpt><trkpt lat="42.08473391602726" lon="13.576262967132875"><ele>913.3333333333334</ele><time>2026-05-02T14:12:48.999Z</time></trkpt><trkpt lat="42.08465748994206" lon="13.576237969483657"><ele>912.1666666666667</ele><time>2026-05-02T14:12:50.999Z</time></trkpt><trkpt lat="42.084581069862494" lon="13.576234315582182"><ele>911.0</ele><time>2026-05-02T14:12:52.999Z</time></trkpt><trkpt lat="42.084493339431965" lon="13.576219644647825"><ele>911.0</ele><time>2026-05-02T14:12:55.999Z</time></trkpt><trkpt lat="42.084408180602715" lon="13.576209948809288"><ele>911.0</ele><time>2026-05-02T14:12:58.999Z</time></trkpt><trkpt lat="42.08434623779648" lon="13.576190738148448"><ele>911.0</ele><time>2026-05-02T14:13:00.999Z</time></trkpt><trkpt lat="42.084269528562466" lon="13.576171896369472"><ele>911.0</ele><time>2026-05-02T14:13:03.999Z</time></trkpt><trkpt lat="42.08420394924015" lon="13.576156452559724"><ele>911.0</ele><time>2026-05-02T14:13:08.999Z</time></trkpt><trkpt lat="42.0841382216007" lon="13.576136754327154"><ele>911.0</ele><time>2026-05-02T14:13:14.999Z</time></trkpt><trkpt lat="42.08407270058197" lon="13.576130593259233"><ele>911.0</ele><time>2026-05-02T14:13:33.999Z</time></trkpt><trkpt lat="42.08399493989099" lon="13.57611164120007"><ele>908.0000000000001</ele><time>2026-05-02T14:13:43.998Z</time></trkpt><trkpt lat="42.083925282515914" lon="13.57609025365294"><ele>905.0</ele><time>2026-05-02T14:13:47.998Z</time></trkpt><trkpt lat="42.083850376089615" lon="13.576092258380607"><ele>902.0</ele><time>2026-05-02T14:13:52Z</time></trkpt><trkpt lat="42.083785704624354" lon="13.576093669209572"><ele>899.0</ele><time>2026-05-02T14:13:54Z</time></trkpt><trkpt lat="42.08366295029047" lon="13.576072558737723"><ele>896.0000000000001</ele><time>2026-05-02T14:13:57Z</time></trkpt><trkpt lat="42.08358015694697" lon="13.57599592780324"><ele>893.0</ele><time>2026-05-02T14:13:59Z</time></trkpt><trkpt lat="42.08352317418319" lon="13.575929116468451"><ele>893.0</ele><time>2026-05-02T14:14:01Z</time></trkpt><trkpt lat="42.08347325227703" lon="13.575872723934253"><ele>893.0</ele><time>2026-05-02T14:14:03Z</time></trkpt><trkpt lat="42.08341381207829" lon="13.57580514320701"><ele>893.0</ele><time>2026-05-02T14:14:05Z</time></trkpt><trkpt lat="42.08337066573654" lon="13.575738312258158"><ele>893.0</ele><time>2026-05-02T14:14:08Z</time></trkpt><trkpt lat="42.08331734267868" lon="13.575638807706287"><ele>893.0</ele><time>2026-05-02T14:14:11Z</time></trkpt><trkpt lat="42.08328397706522" lon="13.575564962651008"><ele>893.0</ele><time>2026-05-02T14:14:13Z</time></trkpt><trkpt lat="42.08324353729553" lon="13.575496422163678"><ele>893.0</ele><time>2026-05-02T14:14:15Z</time></trkpt><trkpt lat="42.08319445979765" lon="13.575408218379028"><ele>891.4</ele><time>2026-05-02T14:14:17Z</time></trkpt><trkpt lat="42.08314176571902" lon="13.575274717177926"><ele>889.8</ele><time>2026-05-02T14:14:19Z</time></trkpt><trkpt lat="42.0830915403973" lon="13.57513642099746"><ele>888.2</ele><time>2026-05-02T14:14:21Z</time></trkpt><trkpt lat="42.0830563198145" lon="13.575005691449402"><ele>886.6</ele><time>2026-05-02T14:14:23Z</time></trkpt><trkpt lat="42.083034292715226" lon="13.57491872816222"><ele>885.0</ele><time>2026-05-02T14:14:23.999Z</time></trkpt><trkpt lat="42.08299637234778" lon="13.574787803512233"><ele>885.0</ele><time>2026-05-02T14:14:25.999Z</time></trkpt><trkpt lat="42.08294472034292" lon="13.574655314908567"><ele>885.0</ele><time>2026-05-02T14:14:27.999Z</time></trkpt><trkpt lat="42.08289613294064" lon="13.574541265794233"><ele>885.0</ele><time>2026-05-02T14:14:29.999Z</time></trkpt><trkpt lat="42.082861989402865" lon="13.574469229101629"><ele>885.0</ele><time>2026-05-02T14:14:30.999Z</time></trkpt><trkpt lat="42.082817309757694" lon="13.574391856130568"><ele>885.0</ele><time>2026-05-02T14:14:31.999Z</time></trkpt><trkpt lat="42.082779543199685" lon="13.574315872354108"><ele>885.0</ele><time>2026-05-02T14:14:32.999Z</time></trkpt><trkpt lat="42.082733500029434" lon="13.57421049720567"><ele>883.8</ele><time>2026-05-02T14:14:34.999Z</time></trkpt><trkpt lat="42.082691444946846" lon="13.574089974169517"><ele>882.6</ele><time>2026-05-02T14:14:37.999Z</time></trkpt><trkpt lat="42.08262568766362" lon="13.573974185729744"><ele>881.4000000000001</ele><time>2026-05-02T14:14:39.999Z</time></trkpt><trkpt lat="42.08258406499423" lon="13.57390560859354"><ele>880.2</ele><time>2026-05-02T14:14:40.999Z</time></trkpt><trkpt lat="42.08251588315873" lon="13.573791020162357"><ele>879.0</ele><time>2026-05-02T14:14:42.999Z</time></trkpt><trkpt lat="42.08244590251489" lon="13.573690802386311"><ele>878.3333333333334</ele><time>2026-05-02T14:14:44.999Z</time></trkpt><trkpt lat="42.08238364085185" lon="13.573567581110922"><ele>877.6666666666667</ele><time>2026-05-02T14:14:46.999Z</time></trkpt><trkpt lat="42.08232516106491" lon="13.573480018670855"><ele>877.0</ele><time>2026-05-02T14:14:48.999Z</time></trkpt><trkpt lat="42.082289267528395" lon="13.573403950711178"><ele>876.3333333333334</ele><time>2026-05-02T14:14:50.999Z</time></trkpt><trkpt lat="42.08224104987352" lon="13.573319998690218"><ele>875.6666666666667</ele><time>2026-05-02T14:14:52.999Z</time></trkpt><trkpt lat="42.08217685485684" lon="13.5732292043854"><ele>875.0</ele><time>2026-05-02T14:14:55.999Z</time></trkpt><trkpt lat="42.08211582862147" lon="13.573163761305763"><ele>875.0000000000001</ele><time>2026-05-02T14:14:58.999Z</time></trkpt><trkpt lat="42.08206343360965" lon="13.573086124171294"><ele>875.0</ele><time>2026-05-02T14:15:01.999Z</time></trkpt><trkpt lat="42.081986853183324" lon="13.57300836364725"><ele>875.0</ele><time>2026-05-02T14:15:04.999Z</time></trkpt><trkpt lat="42.08193264710957" lon="13.572950604343783"><ele>875.0</ele><time>2026-05-02T14:15:06.999Z</time></trkpt><trkpt lat="42.08187471196186" lon="13.572894824636666"><ele>875.0000000000001</ele><time>2026-05-02T14:15:08.999Z</time></trkpt><trkpt lat="42.0818068197763" lon="13.572813878121007"><ele>875.0</ele><time>2026-05-02T14:15:10.999Z</time></trkpt><trkpt lat="42.08174268424542" lon="13.572729026344918"><ele>874.6666666666667</ele><time>2026-05-02T14:15:12.999Z</time></trkpt><trkpt lat="42.08169953957156" lon="13.57264302418516"><ele>874.3333333333334</ele><time>2026-05-02T14:15:14.999Z</time></trkpt><trkpt lat="42.08164973642409" lon="13.572552882796938"><ele>874.0</ele><time>2026-05-02T14:15:16.999Z</time></trkpt><trkpt lat="42.08160991124636" lon="13.572479739217965"><ele>873.6666666666667</ele><time>2026-05-02T14:15:18.999Z</time></trkpt><trkpt lat="42.08154313058121" lon="13.572400349550273"><ele>873.3333333333334</ele><time>2026-05-02T14:15:21.999Z</time></trkpt><trkpt lat="42.08149251063213" lon="13.572338377891962"><ele>873.0</ele><time>2026-05-02T14:15:23.999Z</time></trkpt><trkpt lat="42.08141538600387" lon="13.572233955791225"><ele>873.0</ele><time>2026-05-02T14:15:26.999Z</time></trkpt><trkpt lat="42.08142441904661" lon="13.572122634175102"><ele>873.0</ele><time>2026-05-02T14:15:28.999Z</time></trkpt><trkpt lat="42.081465367223416" lon="13.571998702766209"><ele>873.0</ele><time>2026-05-02T14:15:30.999Z</time></trkpt><trkpt lat="42.08149984966103" lon="13.571905706099926"><ele>873.0</ele><time>2026-05-02T14:15:32.999Z</time></trkpt><trkpt lat="42.08147822883782" lon="13.5717951710824"><ele>873.0</ele><time>2026-05-02T14:15:34.999Z</time></trkpt><trkpt lat="42.08138811900926" lon="13.571683985868571"><ele>871.8571428571428</ele><time>2026-05-02T14:15:36.999Z</time></trkpt><trkpt lat="42.081334735422466" lon="13.571634301447833"><ele>870.7142857142857</ele><time>2026-05-02T14:15:37.999Z</time></trkpt><trkpt lat="42.08128141582219" lon="13.571581967318542"><ele>869.5714285714286</ele><time>2026-05-02T14:15:38.999Z</time></trkpt><trkpt lat="42.08123123293881" lon="13.571528688034624"><ele>868.4285714285713</ele><time>2026-05-02T14:15:39.998Z</time></trkpt><trkpt lat="42.08116742436249" lon="13.57145261968675"><ele>867.2857142857143</ele><time>2026-05-02T14:15:41.998Z</time></trkpt><trkpt lat="42.08109599209528" lon="13.571416049860966"><ele>866.1428571428571</ele><time>2026-05-02T14:15:43.998Z</time></trkpt><trkpt lat="42.08104565778459" lon="13.571362386717556"><ele>865.0</ele><time>2026-05-02T14:15:45.998Z</time></trkpt><trkpt lat="42.08097889162872" lon="13.571283142727461"><ele>864.9999999999999</ele><time>2026-05-02T14:15:47.998Z</time></trkpt><trkpt lat="42.08092402905368" lon="13.57121590243523"><ele>865.0</ele><time>2026-05-02T14:15:49.998Z</time></trkpt><trkpt lat="42.08086409993088" lon="13.571147281882016"><ele>865.0</ele><time>2026-05-02T14:15:51.998Z</time></trkpt><trkpt lat="42.080802541607135" lon="13.571036184668857"><ele>865.0</ele><time>2026-05-02T14:15:53.998Z</time></trkpt><trkpt lat="42.08077131442405" lon="13.570948472019795"><ele>864.9999999999999</ele><time>2026-05-02T14:15:54.998Z</time></trkpt><trkpt lat="42.0807377714061" lon="13.570832357160755"><ele>865.0</ele><time>2026-05-02T14:15:56Z</time></trkpt><trkpt lat="42.08070061867591" lon="13.570756538235097"><ele>865.4999999999999</ele><time>2026-05-02T14:15:57Z</time></trkpt><trkpt lat="42.080665996737835" lon="13.57067906541984"><ele>866.0</ele><time>2026-05-02T14:15:58Z</time></trkpt><trkpt lat="42.0806291606984" lon="13.570587657859411"><ele>866.5</ele><time>2026-05-02T14:15:59Z</time></trkpt><trkpt lat="42.08059427993793" lon="13.570486883326994"><ele>867.0</ele><time>2026-05-02T14:16:00Z</time></trkpt><trkpt lat="42.080555923117295" lon="13.570400790235649"><ele>867.4999999999999</ele><time>2026-05-02T14:16:01Z</time></trkpt><trkpt lat="42.08052121383814" lon="13.57031051739388"><ele>868.0</ele><time>2026-05-02T14:16:02Z</time></trkpt><trkpt lat="42.08047979974776" lon="13.570211781912917"><ele>867.9999999999999</ele><time>2026-05-02T14:16:03Z</time></trkpt><trkpt lat="42.08044699200114" lon="13.570105778547067"><ele>868.0</ele><time>2026-05-02T14:16:04Z</time></trkpt><trkpt lat="42.08042692874966" lon="13.570011044852107"><ele>868.0</ele><time>2026-05-02T14:16:05Z</time></trkpt><trkpt lat="42.08041142242608" lon="13.569923249531648"><ele>868.0</ele><time>2026-05-02T14:16:06Z</time></trkpt><trkpt lat="42.08038888487628" lon="13.569826310714905"><ele>867.9999999999999</ele><time>2026-05-02T14:16:07Z</time></trkpt><trkpt lat="42.080370009082735" lon="13.569735563968472"><ele>868.0</ele><time>2026-05-02T14:16:08Z</time></trkpt><trkpt lat="42.08034652273942" lon="13.569599759860806"><ele>865.8</ele><time>2026-05-02T14:16:10Z</time></trkpt><trkpt lat="42.080334481290784" lon="13.569480377898357"><ele>863.5999999999999</ele><time>2026-05-02T14:16:12Z</time></trkpt><trkpt lat="42.08032651727324" lon="13.569365093669747"><ele>861.4000000000001</ele><time>2026-05-02T14:16:14Z</time></trkpt><trkpt lat="42.08031992426327" lon="13.569236742797925"><ele>859.2</ele><time>2026-05-02T14:16:16Z</time></trkpt><trkpt lat="42.08029042329267" lon="13.569121440233511"><ele>857.0</ele><time>2026-05-02T14:16:18Z</time></trkpt><trkpt lat="42.08024218229791" lon="13.569021021679916"><ele>857.0000000000001</ele><time>2026-05-02T14:16:20Z</time></trkpt><trkpt lat="42.080174480548926" lon="13.568897795774928"><ele>857.0</ele><time>2026-05-02T14:16:22Z</time></trkpt><trkpt lat="42.08012028207763" lon="13.568738390034293"><ele>857.0</ele><time>2026-05-02T14:16:24Z</time></trkpt><trkpt lat="42.08010171662025" lon="13.568652502741454"><ele>857.0</ele><time>2026-05-02T14:16:25Z</time></trkpt><trkpt lat="42.08008143648327" lon="13.568570945507242"><ele>857.0000000000001</ele><time>2026-05-02T14:16:25.999Z</time></trkpt><trkpt lat="42.08005972471683" lon="13.568482866455462"><ele>857.0</ele><time>2026-05-02T14:16:26.999Z</time></trkpt><trkpt lat="42.080044033030646" lon="13.5683927241553"><ele>854.8333333333334</ele><time>2026-05-02T14:16:27.999Z</time></trkpt><trkpt lat="42.08003525120185" lon="13.568297843780371"><ele>852.6666666666667</ele><time>2026-05-02T14:16:28.999Z</time></trkpt><trkpt lat="42.080019299646885" lon="13.568206658894542"><ele>850.5</ele><time>2026-05-02T14:16:29.999Z</time></trkpt><trkpt lat="42.08000866674614" lon="13.56811722431689"><ele>848.3333333333333</ele><time>2026-05-02T14:16:30.999Z</time></trkpt><trkpt lat="42.08000613245581" lon="13.567948827848547"><ele>846.1666666666666</ele><time>2026-05-02T14:16:32.999Z</time></trkpt><trkpt lat="42.0800258790043" lon="13.567796402541642"><ele>844.0</ele><time>2026-05-02T14:16:34.999Z</time></trkpt><trkpt lat="42.080046894505834" lon="13.567714985376782"><ele>842.6666666666666</ele><time>2026-05-02T14:16:35.999Z</time></trkpt><trkpt lat="42.08009827471133" lon="13.567571083564546"><ele>841.3333333333333</ele><time>2026-05-02T14:16:37.999Z</time></trkpt><trkpt lat="42.08012733016703" lon="13.56747294947106"><ele>840.0</ele><time>2026-05-02T14:16:38.999Z</time></trkpt><trkpt lat="42.0801675279834" lon="13.567390126385773"><ele>838.6666666666667</ele><time>2026-05-02T14:16:39.999Z</time></trkpt><trkpt lat="42.080212877772794" lon="13.567303680823397"><ele>837.3333333333334</ele><time>2026-05-02T14:16:40.999Z</time></trkpt><trkpt lat="42.08025859820647" lon="13.567218003195107"><ele>836.0</ele><time>2026-05-02T14:16:41.999Z</time></trkpt><trkpt lat="42.08030129765821" lon="13.567143168364566"><ele>836.0000000000001</ele><time>2026-05-02T14:16:42.999Z</time></trkpt><trkpt lat="42.08034759944582" lon="13.56707675169469"><ele>836.0</ele><time>2026-05-02T14:16:43.999Z</time></trkpt><trkpt lat="42.080395351174246" lon="13.567012449463663"><ele>836.0</ele><time>2026-05-02T14:16:44.999Z</time></trkpt><trkpt lat="42.0804428605264" lon="13.566951346683481"><ele>836.0</ele><time>2026-05-02T14:16:45.999Z</time></trkpt><trkpt lat="42.080526209328276" lon="13.566857850274403"><ele>836.0000000000001</ele><time>2026-05-02T14:16:47.999Z</time></trkpt><trkpt lat="42.08057346234359" lon="13.566766553007541"><ele>836.0</ele><time>2026-05-02T14:16:49.999Z</time></trkpt><trkpt lat="42.080576920109245" lon="13.566658690008994"><ele>836.3333333333334</ele><time>2026-05-02T14:16:51.999Z</time></trkpt><trkpt lat="42.080549415187065" lon="13.566569897230886"><ele>836.6666666666667</ele><time>2026-05-02T14:16:53.999Z</time></trkpt><trkpt lat="42.08051794975419" lon="13.566481166776498"><ele>837.0</ele><time>2026-05-02T14:16:55.999Z</time></trkpt><trkpt lat="42.08046968654483" lon="13.566343928673264"><ele>837.3333333333333</ele><time>2026-05-02T14:16:57.999Z</time></trkpt><trkpt lat="42.08045124010937" lon="13.56622193150583"><ele>837.6666666666666</ele><time>2026-05-02T14:16:58.999Z</time></trkpt><trkpt lat="42.08044538902167" lon="13.5661081593039"><ele>838.0</ele><time>2026-05-02T14:16:59.999Z</time></trkpt><trkpt lat="42.080452543952454" lon="13.565986093090707"><ele>837.9999999999999</ele><time>2026-05-02T14:17:00.999Z</time></trkpt><trkpt lat="42.08045803128968" lon="13.565882932434157"><ele>838.0</ele><time>2026-05-02T14:17:01.999Z</time></trkpt><trkpt lat="42.080456702476766" lon="13.56578602962065"><ele>838.0</ele><time>2026-05-02T14:17:02.999Z</time></trkpt><trkpt lat="42.08044505995223" lon="13.565693110327343"><ele>838.0</ele><time>2026-05-02T14:17:03.999Z</time></trkpt><trkpt lat="42.08041313345234" lon="13.565610499047004"><ele>837.9999999999999</ele><time>2026-05-02T14:17:04.999Z</time></trkpt><trkpt lat="42.08036866462958" lon="13.565500808793288"><ele>838.0</ele><time>2026-05-02T14:17:05.999Z</time></trkpt><trkpt lat="42.08031230203321" lon="13.565383169795778"><ele>835.5999999999999</ele><time>2026-05-02T14:17:06.999Z</time></trkpt><trkpt lat="42.08026131476748" lon="13.565254018741772"><ele>833.1999999999999</ele><time>2026-05-02T14:17:07.999Z</time></trkpt><trkpt lat="42.08021793093151" lon="13.565120421445245"><ele>830.8</ele><time>2026-05-02T14:17:08.999Z</time></trkpt><trkpt lat="42.08017200881656" lon="13.564985354514908"><ele>828.4</ele><time>2026-05-02T14:17:09.999Z</time></trkpt><trkpt lat="42.08012856134338" lon="13.564855935042264"><ele>826.0</ele><time>2026-05-02T14:17:10.999Z</time></trkpt><trkpt lat="42.080090814837384" lon="13.564723645873956"><ele>826.0</ele><time>2026-05-02T14:17:11.999Z</time></trkpt><trkpt lat="42.08006033878657" lon="13.564591104973799"><ele>826.0</ele><time>2026-05-02T14:17:12.999Z</time></trkpt><trkpt lat="42.08003877151518" lon="13.564466427079877"><ele>826.0</ele><time>2026-05-02T14:17:13.999Z</time></trkpt><trkpt lat="42.080030945685046" lon="13.56434730127291"><ele>826.0</ele><time>2026-05-02T14:17:14.999Z</time></trkpt><trkpt lat="42.08002930792947" lon="13.564218715777566"><ele>826.0</ele><time>2026-05-02T14:17:15.999Z</time></trkpt><trkpt lat="42.080030827330575" lon="13.564087125338483"><ele>824.4</ele><time>2026-05-02T14:17:16.999Z</time></trkpt><trkpt lat="42.080029267779416" lon="13.563951425843987"><ele>822.8</ele><time>2026-05-02T14:17:17.999Z</time></trkpt><trkpt lat="42.080029327195845" lon="13.563805862941363"><ele>821.1999999999999</ele><time>2026-05-02T14:17:18.999Z</time></trkpt><trkpt lat="42.08001752378533" lon="13.56365643463148"><ele>819.5999999999999</ele><time>2026-05-02T14:17:19.999Z</time></trkpt><trkpt lat="42.08001177007399" lon="13.56352572629084"><ele>818.0</ele><time>2026-05-02T14:17:20.999Z</time></trkpt><trkpt lat="42.08001046919625" lon="13.563400391678249"><ele>817.8333333333334</ele><time>2026-05-02T14:17:21.999Z</time></trkpt><trkpt lat="42.08000443171274" lon="13.563281011928424"><ele>817.6666666666667</ele><time>2026-05-02T14:17:22.999Z</time></trkpt><trkpt lat="42.080002532965295" lon="13.5631625367578"><ele>817.5</ele><time>2026-05-02T14:17:23.999Z</time></trkpt><trkpt lat="42.07999880759647" lon="13.563053237779684"><ele>817.3333333333333</ele><time>2026-05-02T14:17:24.999Z</time></trkpt><trkpt lat="42.08000705020588" lon="13.5629550890877"><ele>817.1666666666666</ele><time>2026-05-02T14:17:25.999Z</time></trkpt><trkpt lat="42.08001844805716" lon="13.562863067910138"><ele>817.0</ele><time>2026-05-02T14:17:26.999Z</time></trkpt><trkpt lat="42.080031730876925" lon="13.562695462324474"><ele>815.2</ele><time>2026-05-02T14:17:28.999Z</time></trkpt><trkpt lat="42.08003906415353" lon="13.56256318886884"><ele>813.4000000000001</ele><time>2026-05-02T14:17:30.999Z</time></trkpt><trkpt lat="42.08001960863376" lon="13.562424991472934"><ele>811.5999999999999</ele><time>2026-05-02T14:17:32.999Z</time></trkpt><trkpt lat="42.079974590441594" lon="13.562310321367164"><ele>809.8</ele><time>2026-05-02T14:17:34.999Z</time></trkpt><trkpt lat="42.07992948608614" lon="13.562200441164167"><ele>808.0</ele><time>2026-05-02T14:17:36.999Z</time></trkpt><trkpt lat="42.07987332423649" lon="13.562070242535047"><ele>811.1666666666666</ele><time>2026-05-02T14:17:38.999Z</time></trkpt><trkpt lat="42.07984639072465" lon="13.561904746961558"><ele>814.3333333333333</ele><time>2026-05-02T14:17:40.999Z</time></trkpt><trkpt lat="42.07984199195551" lon="13.561810043040435"><ele>817.5</ele><time>2026-05-02T14:17:41.999Z</time></trkpt><trkpt lat="42.079842286642496" lon="13.561697451735204"><ele>820.6666666666667</ele><time>2026-05-02T14:17:42.999Z</time></trkpt><trkpt lat="42.0798475809888" lon="13.561573254575537"><ele>823.8333333333334</ele><time>2026-05-02T14:17:43.999Z</time></trkpt><trkpt lat="42.07985563638894" lon="13.561470740190721"><ele>827.0</ele><time>2026-05-02T14:17:44.999Z</time></trkpt><trkpt lat="42.07987604188437" lon="13.561384639312623"><ele>827.0</ele><time>2026-05-02T14:17:45.998Z</time></trkpt><trkpt lat="42.079911676815556" lon="13.561313703244576"><ele>827.0</ele><time>2026-05-02T14:17:46.998Z</time></trkpt><trkpt lat="42.07995010426467" lon="13.56123444836117"><ele>827.0</ele><time>2026-05-02T14:17:47.998Z</time></trkpt><trkpt lat="42.07999906969537" lon="13.561169297357596"><ele>827.0</ele><time>2026-05-02T14:17:48.998Z</time></trkpt><trkpt lat="42.080049086437214" lon="13.561105842822654"><ele>827.0</ele><time>2026-05-02T14:17:49.998Z</time></trkpt><trkpt lat="42.08009007866614" lon="13.56103193321999"><ele>827.0</ele><time>2026-05-02T14:17:50.998Z</time></trkpt><trkpt lat="42.08012797341994" lon="13.560902937292362"><ele>827.0</ele><time>2026-05-02T14:17:52.998Z</time></trkpt><trkpt lat="42.08012226062842" lon="13.560750629456924"><ele>822.8</ele><time>2026-05-02T14:17:54.998Z</time></trkpt><trkpt lat="42.080109686098375" lon="13.560665164264305"><ele>818.6</ele><time>2026-05-02T14:17:55.998Z</time></trkpt><trkpt lat="42.08007290873649" lon="13.560507269536025"><ele>814.4</ele><time>2026-05-02T14:17:57.998Z</time></trkpt><trkpt lat="42.08001845363369" lon="13.56037075282517"><ele>810.1999999999999</ele><time>2026-05-02T14:17:59.998Z</time></trkpt><trkpt lat="42.07996532533009" lon="13.560240457938358"><ele>806.0</ele><time>2026-05-02T14:18:02Z</time></trkpt><trkpt lat="42.0799190647707" lon="13.560115967831546"><ele>806.0</ele><time>2026-05-02T14:18:04Z</time></trkpt><trkpt lat="42.07986852185722" lon="13.560022162242218"><ele>806.0</ele><time>2026-05-02T14:18:06Z</time></trkpt><trkpt lat="42.07981042430082" lon="13.559931472587474"><ele>806.0</ele><time>2026-05-02T14:18:08Z</time></trkpt><trkpt lat="42.07974736734135" lon="13.559833308376085"><ele>806.0</ele><time>2026-05-02T14:18:10Z</time></trkpt><trkpt lat="42.07968077670206" lon="13.559717809639059"><ele>806.0</ele><time>2026-05-02T14:18:12Z</time></trkpt><trkpt lat="42.07962279977194" lon="13.559600318400182"><ele>800.0</ele><time>2026-05-02T14:18:14Z</time></trkpt><trkpt lat="42.079552523599645" lon="13.55946454903175"><ele>794.0</ele><time>2026-05-02T14:18:16Z</time></trkpt><trkpt lat="42.07948384248966" lon="13.559334742764788"><ele>788.0</ele><time>2026-05-02T14:18:18Z</time></trkpt><trkpt lat="42.07942453755075" lon="13.55921073749742"><ele>782.0</ele><time>2026-05-02T14:18:20Z</time></trkpt><trkpt lat="42.079368682589426" lon="13.55908216974598"><ele>782.0000000000001</ele><time>2026-05-02T14:18:22Z</time></trkpt><trkpt lat="42.079305306331705" lon="13.55893277198514"><ele>782.0</ele><time>2026-05-02T14:18:24Z</time></trkpt><trkpt lat="42.07926347108869" lon="13.558858080898428"><ele>782.0</ele><time>2026-05-02T14:18:25Z</time></trkpt><trkpt lat="42.07922134213423" lon="13.558779987099046"><ele>782.0</ele><time>2026-05-02T14:18:26Z</time></trkpt><trkpt lat="42.07917683932281" lon="13.558705161649481"><ele>782.0000000000001</ele><time>2026-05-02T14:18:27Z</time></trkpt><trkpt lat="42.07912242793871" lon="13.558628849416428"><ele>782.0</ele><time>2026-05-02T14:18:28Z</time></trkpt><trkpt lat="42.079068572214844" lon="13.558547815819958"><ele>782.3333333333334</ele><time>2026-05-02T14:18:29Z</time></trkpt><trkpt lat="42.07901915425263" lon="13.55846535810663"><ele>782.6666666666667</ele><time>2026-05-02T14:18:30Z</time></trkpt><trkpt lat="42.078968937196834" lon="13.558385885646656"><ele>783.0</ele><time>2026-05-02T14:18:31Z</time></trkpt><trkpt lat="42.078917764948294" lon="13.558300652408507"><ele>783.3333333333333</ele><time>2026-05-02T14:18:32Z</time></trkpt><trkpt lat="42.07886300349975" lon="13.558198804254392"><ele>783.6666666666666</ele><time>2026-05-02T14:18:33Z</time></trkpt><trkpt lat="42.07882138243512" lon="13.558104773863253"><ele>784.0</ele><time>2026-05-02T14:18:34Z</time></trkpt><trkpt lat="42.078785727499614" lon="13.558013258867014"><ele>783.9999999999999</ele><time>2026-05-02T14:18:35Z</time></trkpt><trkpt lat="42.07874506654407" lon="13.557925897801647"><ele>784.0</ele><time>2026-05-02T14:18:35.999Z</time></trkpt><trkpt lat="42.07869117922277" lon="13.557830123698109"><ele>784.0</ele><time>2026-05-02T14:18:36.999Z</time></trkpt><trkpt lat="42.07864134197553" lon="13.557734420236963"><ele>784.0</ele><time>2026-05-02T14:18:37.999Z</time></trkpt><trkpt lat="42.0786001833894" lon="13.557636156229169"><ele>783.9999999999999</ele><time>2026-05-02T14:18:38.999Z</time></trkpt><trkpt lat="42.07856163413724" lon="13.5575170121249"><ele>784.0</ele><time>2026-05-02T14:18:39.999Z</time></trkpt><trkpt lat="42.07851947717241" lon="13.557393360929657"><ele>780.0</ele><time>2026-05-02T14:18:40.999Z</time></trkpt><trkpt lat="42.07847098127615" lon="13.557285639043092"><ele>776.0</ele><time>2026-05-02T14:18:41.999Z</time></trkpt><trkpt lat="42.07842563188473" lon="13.557172989710947"><ele>772.0</ele><time>2026-05-02T14:18:42.999Z</time></trkpt><trkpt lat="42.078383935693644" lon="13.557091589335739"><ele>768.0</ele><time>2026-05-02T14:18:43.999Z</time></trkpt><trkpt lat="42.07832829284059" lon="13.556967806667481"><ele>764.0</ele><time>2026-05-02T14:18:45.999Z</time></trkpt><trkpt lat="42.078270671194886" lon="13.55686178730821"><ele>765.5</ele><time>2026-05-02T14:18:47.999Z</time></trkpt><trkpt lat="42.078222368538334" lon="13.55671848641783"><ele>767.0</ele><time>2026-05-02T14:18:49.999Z</time></trkpt><trkpt lat="42.078199302034925" lon="13.556621153088711"><ele>768.5</ele><time>2026-05-02T14:18:50.999Z</time></trkpt><trkpt lat="42.07818648292141" lon="13.556511116352981"><ele>770.0</ele><time>2026-05-02T14:18:51.999Z</time></trkpt><trkpt lat="42.07817224226698" lon="13.556397081120542"><ele>771.5000000000001</ele><time>2026-05-02T14:18:52.999Z</time></trkpt><trkpt lat="42.07815723780785" lon="13.556289355337654"><ele>773.0</ele><time>2026-05-02T14:18:53.999Z</time></trkpt><trkpt lat="42.07814593079263" lon="13.556185614456531"><ele>773.0000000000001</ele><time>2026-05-02T14:18:54.999Z</time></trkpt><trkpt lat="42.07812790790535" lon="13.55608508674342"><ele>773.0</ele><time>2026-05-02T14:18:55.999Z</time></trkpt><trkpt lat="42.078102092388754" lon="13.555990850942397"><ele>773.0</ele><time>2026-05-02T14:18:56.999Z</time></trkpt><trkpt lat="42.078064621538246" lon="13.55588767063086"><ele>773.0</ele><time>2026-05-02T14:18:57.999Z</time></trkpt><trkpt lat="42.07801240835786" lon="13.555794234695792"><ele>773.0000000000001</ele><time>2026-05-02T14:18:58.999Z</time></trkpt><trkpt lat="42.07795195957657" lon="13.555703202201324"><ele>773.0</ele><time>2026-05-02T14:18:59.999Z</time></trkpt><trkpt lat="42.07789734138593" lon="13.555604439627341"><ele>773.0000000000001</ele><time>2026-05-02T14:19:00.999Z</time></trkpt><trkpt lat="42.07785298400001" lon="13.555504342995"><ele>773.0</ele><time>2026-05-02T14:19:01.999Z</time></trkpt><trkpt lat="42.077819670943995" lon="13.55539737690868"><ele>773.0</ele><time>2026-05-02T14:19:02.999Z</time></trkpt><trkpt lat="42.07780943563354" lon="13.555298807937023"><ele>773.0</ele><time>2026-05-02T14:19:03.999Z</time></trkpt><trkpt lat="42.077806962752504" lon="13.555203715193432"><ele>773.0000000000001</ele><time>2026-05-02T14:19:04.999Z</time></trkpt><trkpt lat="42.07781967481405" lon="13.555109367819698"><ele>773.0</ele><time>2026-05-02T14:19:05.999Z</time></trkpt><trkpt lat="42.077822564003355" lon="13.555001704853812"><ele>770.5000000000001</ele><time>2026-05-02T14:19:06.999Z</time></trkpt><trkpt lat="42.07781590005373" lon="13.554899376923698"><ele>768.0</ele><time>2026-05-02T14:19:07.999Z</time></trkpt><trkpt lat="42.07779674715722" lon="13.554810046961235"><ele>765.5</ele><time>2026-05-02T14:19:08.999Z</time></trkpt><trkpt lat="42.07776377497973" lon="13.554731788452834"><ele>763.0</ele><time>2026-05-02T14:19:09.999Z</time></trkpt><trkpt lat="42.077708025203506" lon="13.554637679235112"><ele>760.5</ele><time>2026-05-02T14:19:10.999Z</time></trkpt><trkpt lat="42.07765751314055" lon="13.554543517371101"><ele>758.0</ele><time>2026-05-02T14:19:11.999Z</time></trkpt><trkpt lat="42.07760385160838" lon="13.55446582040753"><ele>758.6666666666666</ele><time>2026-05-02T14:19:12.999Z</time></trkpt><trkpt lat="42.07753523751565" lon="13.55439684430011"><ele>759.3333333333333</ele><time>2026-05-02T14:19:13.999Z</time></trkpt><trkpt lat="42.07746111483478" lon="13.554326139806625"><ele>760.0</ele><time>2026-05-02T14:19:14.999Z</time></trkpt><trkpt lat="42.07737735267237" lon="13.554257216892852"><ele>760.6666666666666</ele><time>2026-05-02T14:19:15.999Z</time></trkpt><trkpt lat="42.077304297985755" lon="13.554197359309013"><ele>761.3333333333334</ele><time>2026-05-02T14:19:16.999Z</time></trkpt><trkpt lat="42.07724657038262" lon="13.554135237152234"><ele>762.0</ele><time>2026-05-02T14:19:17.999Z</time></trkpt><trkpt lat="42.07720562222958" lon="13.55406000091927"><ele>762.0</ele><time>2026-05-02T14:19:18.999Z</time></trkpt><trkpt lat="42.0771716641792" lon="13.553966502909601"><ele>762.0</ele><time>2026-05-02T14:19:19.999Z</time></trkpt><trkpt lat="42.07714922689515" lon="13.553879801194725"><ele>762.0</ele><time>2026-05-02T14:19:20.999Z</time></trkpt><trkpt lat="42.07712697257774" lon="13.553746014893749"><ele>762.0</ele><time>2026-05-02T14:19:22.999Z</time></trkpt><trkpt lat="42.07709437669186" lon="13.553624673787175"><ele>762.0</ele><time>2026-05-02T14:19:24.999Z</time></trkpt><trkpt lat="42.077043345202135" lon="13.553520938636657"><ele>762.0</ele><time>2026-05-02T14:19:26.999Z</time></trkpt><trkpt lat="42.077010480375016" lon="13.553426172571486"><ele>759.5</ele><time>2026-05-02T14:19:28.999Z</time></trkpt><trkpt lat="42.077064615017505" lon="13.553358984783458"><ele>757.0</ele><time>2026-05-02T14:19:30.999Z</time></trkpt><trkpt lat="42.07712800332049" lon="13.553351673792918"><ele>754.5</ele><time>2026-05-02T14:19:31.999Z</time></trkpt><trkpt lat="42.077210133112395" lon="13.553335860368861"><ele>752.0</ele><time>2026-05-02T14:19:32.999Z</time></trkpt><trkpt lat="42.07730087392666" lon="13.553298965666594"><ele>749.5</ele><time>2026-05-02T14:19:33.999Z</time></trkpt><trkpt lat="42.07740149876636" lon="13.553248465399458"><ele>747.0</ele><time>2026-05-02T14:19:34.999Z</time></trkpt><trkpt lat="42.07749057618375" lon="13.5531715443081"><ele>747.0</ele><time>2026-05-02T14:19:35.999Z</time></trkpt><trkpt lat="42.07756082086426" lon="13.553056504238954"><ele>747.0</ele><time>2026-05-02T14:19:36.999Z</time></trkpt><trkpt lat="42.0775987303305" lon="13.552905108187009"><ele>747.0</ele><time>2026-05-02T14:19:37.999Z</time></trkpt><trkpt lat="42.077594549084566" lon="13.55274186183003"><ele>747.0</ele><time>2026-05-02T14:19:38.999Z</time></trkpt><trkpt lat="42.07755054579768" lon="13.55257417893357"><ele>747.0</ele><time>2026-05-02T14:19:39.999Z</time></trkpt><trkpt lat="42.07749315144706" lon="13.55240825213296"><ele>747.0</ele><time>2026-05-02T14:19:40.999Z</time></trkpt><trkpt lat="42.07744118024704" lon="13.552232658896754"><ele>747.0</ele><time>2026-05-02T14:19:41.999Z</time></trkpt><trkpt lat="42.077393646650016" lon="13.552057085725366"><ele>747.0</ele><time>2026-05-02T14:19:42.999Z</time></trkpt><trkpt lat="42.07734561658311" lon="13.551889262360337"><ele>747.0</ele><time>2026-05-02T14:19:43.999Z</time></trkpt><trkpt lat="42.07730168997388" lon="13.551727488662557"><ele>747.0</ele><time>2026-05-02T14:19:44.999Z</time></trkpt><trkpt lat="42.077263250910605" lon="13.5515626063554"><ele>747.0</ele><time>2026-05-02T14:19:45.999Z</time></trkpt><trkpt lat="42.077174103723706" lon="13.551453518362148"><ele>747.0</ele><time>2026-05-02T14:19:46.999Z</time></trkpt><trkpt lat="42.077093346795024" lon="13.551322095370852"><ele>748.6</ele><time>2026-05-02T14:19:47.999Z</time></trkpt><trkpt lat="42.077000747685794" lon="13.551205380082653"><ele>750.2</ele><time>2026-05-02T14:19:48.999Z</time></trkpt><trkpt lat="42.07689627219235" lon="13.551114102931363"><ele>751.8</ele><time>2026-05-02T14:19:49.999Z</time></trkpt><trkpt lat="42.07681116752049" lon="13.55104911700403"><ele>753.4</ele><time>2026-05-02T14:19:50.999Z</time></trkpt><trkpt lat="42.07672900386055" lon="13.550990564081268"><ele>755.0</ele><time>2026-05-02T14:19:51.999Z</time></trkpt><trkpt lat="42.07665315279182" lon="13.550935390814118"><ele>754.1666666666666</ele><time>2026-05-02T14:19:52.999Z</time></trkpt><trkpt lat="42.07658909484931" lon="13.550875197732074"><ele>753.3333333333333</ele><time>2026-05-02T14:19:53.999Z</time></trkpt><trkpt lat="42.07654422499051" lon="13.550778453674392"><ele>752.5</ele><time>2026-05-02T14:19:54.999Z</time></trkpt><trkpt lat="42.076526339601564" lon="13.550667750705045"><ele>751.6666666666666</ele><time>2026-05-02T14:19:55.999Z</time></trkpt><trkpt lat="42.0765413542175" lon="13.550577280147538"><ele>750.8333333333334</ele><time>2026-05-02T14:19:56.999Z</time></trkpt><trkpt lat="42.076598354601884" lon="13.550443241166334"><ele>750.0</ele><time>2026-05-02T14:19:58.998Z</time></trkpt><trkpt lat="42.076676903095915" lon="13.550365735673003"><ele>750.0</ele><time>2026-05-02T14:19:59.998Z</time></trkpt><trkpt lat="42.076788589839936" lon="13.550318313167095"><ele>750.0</ele><time>2026-05-02T14:20:00.998Z</time></trkpt><trkpt lat="42.0769085486634" lon="13.550268227694064"><ele>750.0</ele><time>2026-05-02T14:20:01.998Z</time></trkpt><trkpt lat="42.07703645991595" lon="13.550220840639513"><ele>750.0</ele><time>2026-05-02T14:20:02.998Z</time></trkpt><trkpt lat="42.07717434651707" lon="13.55018025350629"><ele>750.0</ele><time>2026-05-02T14:20:03.998Z</time></trkpt><trkpt lat="42.07731366614066" lon="13.550128638622981"><ele>750.0</ele><time>2026-05-02T14:20:04.998Z</time></trkpt><trkpt lat="42.077452208604925" lon="13.550069068986836"><ele>750.0</ele><time>2026-05-02T14:20:05.998Z</time></trkpt><trkpt lat="42.07759383154064" lon="13.55001432100513"><ele>750.0</ele><time>2026-05-02T14:20:06.998Z</time></trkpt><trkpt lat="42.0777222442623" lon="13.549963952633563"><ele>750.0</ele><time>2026-05-02T14:20:08Z</time></trkpt><trkpt lat="42.07784513155536" lon="13.54989704541844"><ele>750.0</ele><time>2026-05-02T14:20:09Z</time></trkpt><trkpt lat="42.0779601261633" lon="13.549798439286894"><ele>750.0</ele><time>2026-05-02T14:20:10Z</time></trkpt><trkpt lat="42.07804722995717" lon="13.549650011927657"><ele>750.0</ele><time>2026-05-02T14:20:11Z</time></trkpt><trkpt lat="42.07809333412837" lon="13.549480746046923"><ele>750.0</ele><time>2026-05-02T14:20:12Z</time></trkpt><trkpt lat="42.07811074638356" lon="13.549289504724596"><ele>750.0</ele><time>2026-05-02T14:20:13Z</time></trkpt><trkpt lat="42.07813459874659" lon="13.549097191356"><ele>750.0</ele><time>2026-05-02T14:20:14Z</time></trkpt><trkpt lat="42.07817869668048" lon="13.548905698791447"><ele>750.0</ele><time>2026-05-02T14:20:15Z</time></trkpt><trkpt lat="42.078242193561834" lon="13.548741654509906"><ele>753.0</ele><time>2026-05-02T14:20:16Z</time></trkpt><trkpt lat="42.07833050423277" lon="13.548626972626693"><ele>756.0</ele><time>2026-05-02T14:20:17Z</time></trkpt><trkpt lat="42.078440995884534" lon="13.548551297773363"><ele>759.0</ele><time>2026-05-02T14:20:18Z</time></trkpt><trkpt lat="42.07856960544459" lon="13.54850805535435"><ele>762.0</ele><time>2026-05-02T14:20:19Z</time></trkpt><trkpt lat="42.07871041630649" lon="13.548485283266393"><ele>762.0</ele><time>2026-05-02T14:20:20Z</time></trkpt><trkpt lat="42.078853101597886" lon="13.548451058129954"><ele>762.0</ele><time>2026-05-02T14:20:21Z</time></trkpt><trkpt lat="42.079000417870844" lon="13.548427110351057"><ele>762.0</ele><time>2026-05-02T14:20:22Z</time></trkpt><trkpt lat="42.07914843518198" lon="13.548403837540691"><ele>762.0</ele><time>2026-05-02T14:20:23Z</time></trkpt><trkpt lat="42.07929803409998" lon="13.548385118720594"><ele>765.25</ele><time>2026-05-02T14:20:24Z</time></trkpt><trkpt lat="42.079447345421954" lon="13.54835844722654"><ele>768.5</ele><time>2026-05-02T14:20:25Z</time></trkpt><trkpt lat="42.0795938633318" lon="13.54832481423275"><ele>771.75</ele><time>2026-05-02T14:20:26Z</time></trkpt><trkpt lat="42.079734163132954" lon="13.548286636103485"><ele>775.0</ele><time>2026-05-02T14:20:27Z</time></trkpt><trkpt lat="42.07986933502379" lon="13.548257994558"><ele>776.0</ele><time>2026-05-02T14:20:28Z</time></trkpt><trkpt lat="42.07999421906471" lon="13.548228712106173"><ele>777.0</ele><time>2026-05-02T14:20:29Z</time></trkpt><trkpt lat="42.0801102511695" lon="13.548204539279498"><ele>778.0</ele><time>2026-05-02T14:20:30Z</time></trkpt><trkpt lat="42.08022015316434" lon="13.548186118451088"><ele>779.0</ele><time>2026-05-02T14:20:31Z</time></trkpt><trkpt lat="42.08032447882431" lon="13.548175040455337"><ele>779.0000000000001</ele><time>2026-05-02T14:20:32Z</time></trkpt><trkpt lat="42.08041545951534" lon="13.548175550481984"><ele>779.0</ele><time>2026-05-02T14:20:33Z</time></trkpt><trkpt lat="42.08049370431189" lon="13.548206216052453"><ele>779.0</ele><time>2026-05-02T14:20:34Z</time></trkpt><trkpt lat="42.08055214206731" lon="13.548262942617853"><ele>779.0</ele><time>2026-05-02T14:20:35Z</time></trkpt><trkpt lat="42.08057530823758" lon="13.54834331106742"><ele>779.0000000000001</ele><time>2026-05-02T14:20:36Z</time></trkpt><trkpt lat="42.08059239995136" lon="13.548464885172823"><ele>779.0</ele><time>2026-05-02T14:20:38Z</time></trkpt><trkpt lat="42.08069657821695" lon="13.548432620190122"><ele>779.0</ele><time>2026-05-02T14:20:40Z</time></trkpt><trkpt lat="42.08076356101892" lon="13.548340528769463"><ele>779.0</ele><time>2026-05-02T14:20:41Z</time></trkpt><trkpt lat="42.08083943618339" lon="13.54823752301822"><ele>779.0</ele><time>2026-05-02T14:20:42Z</time></trkpt><trkpt lat="42.08092800443126" lon="13.548140914456685"><ele>779.0</ele><time>2026-05-02T14:20:43Z</time></trkpt><trkpt lat="42.08102665998668" lon="13.548037987191183"><ele>779.0</ele><time>2026-05-02T14:20:44Z</time></trkpt><trkpt lat="42.08111654967335" lon="13.547936974839313"><ele>777.0</ele><time>2026-05-02T14:20:45Z</time></trkpt><trkpt lat="42.081201698571874" lon="13.54785664532955"><ele>775.0</ele><time>2026-05-02T14:20:46Z</time></trkpt><trkpt lat="42.081289770948885" lon="13.547790647025254"><ele>773.0</ele><time>2026-05-02T14:20:46.999Z</time></trkpt><trkpt lat="42.081382288925695" lon="13.547660899816838"><ele>771.0</ele><time>2026-05-02T14:20:47.999Z</time></trkpt><trkpt lat="42.081484925824775" lon="13.547558502999696"><ele>771.0</ele><time>2026-05-02T14:20:48.999Z</time></trkpt><trkpt lat="42.081587994428794" lon="13.547467707725364"><ele>771.0</ele><time>2026-05-02T14:20:49.999Z</time></trkpt><trkpt lat="42.081697101218175" lon="13.54739521217418"><ele>771.0</ele><time>2026-05-02T14:20:50.999Z</time></trkpt><trkpt lat="42.081806758272535" lon="13.54734413037692"><ele>771.0</ele><time>2026-05-02T14:20:51.999Z</time></trkpt><trkpt lat="42.081917124061754" lon="13.547301558627222"><ele>771.4</ele><time>2026-05-02T14:20:52.999Z</time></trkpt><trkpt lat="42.08202726044546" lon="13.547255339944797"><ele>771.8</ele><time>2026-05-02T14:20:53.999Z</time></trkpt><trkpt lat="42.08212074541873" lon="13.54721219406292"><ele>772.1999999999999</ele><time>2026-05-02T14:20:54.999Z</time></trkpt><trkpt lat="42.08221760834792" lon="13.547150479880353"><ele>772.5999999999999</ele><time>2026-05-02T14:20:55.999Z</time></trkpt><trkpt lat="42.082296199696195" lon="13.547055458661967"><ele>773.0</ele><time>2026-05-02T14:20:56.999Z</time></trkpt><trkpt lat="42.082355305328356" lon="13.546926630759435"><ele>773.5999999999999</ele><time>2026-05-02T14:20:57.999Z</time></trkpt><trkpt lat="42.08240221959621" lon="13.546781048228135"><ele>774.1999999999999</ele><time>2026-05-02T14:20:58.999Z</time></trkpt><trkpt lat="42.082435317564496" lon="13.54663721132963"><ele>774.8</ele><time>2026-05-02T14:20:59.999Z</time></trkpt><trkpt lat="42.082469587438396" lon="13.546499423549472"><ele>775.4</ele><time>2026-05-02T14:21:00.999Z</time></trkpt><trkpt lat="42.0825054906975" lon="13.546360838160819"><ele>776.0</ele><time>2026-05-02T14:21:01.999Z</time></trkpt><trkpt lat="42.082537980756975" lon="13.546200979417087"><ele>774.5</ele><time>2026-05-02T14:21:02.999Z</time></trkpt><trkpt lat="42.082561624754746" lon="13.546032918172054"><ele>773.0</ele><time>2026-05-02T14:21:03.999Z</time></trkpt><trkpt lat="42.082574272204944" lon="13.545882895406338"><ele>771.5</ele><time>2026-05-02T14:21:04.999Z</time></trkpt><trkpt lat="42.0825822463098" lon="13.545735533492445"><ele>770.0</ele><time>2026-05-02T14:21:05.999Z</time></trkpt><trkpt lat="42.082582863416164" lon="13.545591380084462"><ele>770.0</ele><time>2026-05-02T14:21:06.999Z</time></trkpt><trkpt lat="42.082565702607205" lon="13.545442405495171"><ele>770.0</ele><time>2026-05-02T14:21:07.999Z</time></trkpt><trkpt lat="42.08254025096483" lon="13.545303451951954"><ele>770.0</ele><time>2026-05-02T14:21:08.999Z</time></trkpt><trkpt lat="42.08251005656037" lon="13.545135589493697"><ele>770.0</ele><time>2026-05-02T14:21:09.999Z</time></trkpt><trkpt lat="42.08248730589171" lon="13.544976458775455"><ele>769.5</ele><time>2026-05-02T14:21:10.999Z</time></trkpt><trkpt lat="42.08245636556294" lon="13.544818860272096"><ele>769.0</ele><time>2026-05-02T14:21:11.999Z</time></trkpt><trkpt lat="42.082427013352195" lon="13.544660904302468"><ele>768.5</ele><time>2026-05-02T14:21:12.999Z</time></trkpt><trkpt lat="42.0823956466293" lon="13.544505285724231"><ele>768.0</ele><time>2026-05-02T14:21:13.999Z</time></trkpt><trkpt lat="42.08237140306748" lon="13.544353795964975"><ele>765.2</ele><time>2026-05-02T14:21:14.999Z</time></trkpt><trkpt lat="42.0823587838474" lon="13.544203037319331"><ele>762.4</ele><time>2026-05-02T14:21:15.999Z</time></trkpt><trkpt lat="42.082362358930894" lon="13.544051167388327"><ele>759.6</ele><time>2026-05-02T14:21:16.999Z</time></trkpt><trkpt lat="42.08237196437858" lon="13.543912893587502"><ele>756.8000000000001</ele><time>2026-05-02T14:21:17.999Z</time></trkpt><trkpt lat="42.082376643446" lon="13.543790547132955"><ele>754.0</ele><time>2026-05-02T14:21:18.999Z</time></trkpt><trkpt lat="42.08236973783882" lon="13.543682816496165"><ele>753.4000000000001</ele><time>2026-05-02T14:21:19.999Z</time></trkpt><trkpt lat="42.08234989776432" lon="13.54359341458997"><ele>752.8</ele><time>2026-05-02T14:21:20.999Z</time></trkpt><trkpt lat="42.08230305954586" lon="13.543490165350137"><ele>752.2</ele><time>2026-05-02T14:21:22.999Z</time></trkpt><trkpt lat="42.082188736540964" lon="13.543486177700698"><ele>751.5999999999999</ele><time>2026-05-02T14:21:24.999Z</time></trkpt><trkpt lat="42.08210865670781" lon="13.543515990331196"><ele>751.0</ele><time>2026-05-02T14:21:25.999Z</time></trkpt><trkpt lat="42.08200736675529" lon="13.543524374277052"><ele>751.0</ele><time>2026-05-02T14:21:26.999Z</time></trkpt><trkpt lat="42.081896953484055" lon="13.543520898211094"><ele>751.0</ele><time>2026-05-02T14:21:27.999Z</time></trkpt><trkpt lat="42.08177277223041" lon="13.543516835361078"><ele>751.0</ele><time>2026-05-02T14:21:28.999Z</time></trkpt><trkpt lat="42.08164492492013" lon="13.543514123709828"><ele>751.0</ele><time>2026-05-02T14:21:29.999Z</time></trkpt><trkpt lat="42.081527368527276" lon="13.543512089849854"><ele>750.1999999999999</ele><time>2026-05-02T14:21:30.999Z</time></trkpt><trkpt lat="42.08141126873453" lon="13.543506839479635"><ele>749.4</ele><time>2026-05-02T14:21:31.999Z</time></trkpt><trkpt lat="42.081298702799494" lon="13.543505159521006"><ele>748.6</ele><time>2026-05-02T14:21:32.999Z</time></trkpt><trkpt lat="42.081192488778605" lon="13.543495923036184"><ele>747.8</ele><time>2026-05-02T14:21:33.999Z</time></trkpt><trkpt lat="42.081096463712484" lon="13.543487505785395"><ele>747.0</ele><time>2026-05-02T14:21:34.999Z</time></trkpt><trkpt lat="42.08099573954273" lon="13.543489059904"><ele>747.0</ele><time>2026-05-02T14:21:35.999Z</time></trkpt><trkpt lat="42.08088225394079" lon="13.543492085329168"><ele>747.0</ele><time>2026-05-02T14:21:36.999Z</time></trkpt><trkpt lat="42.08075862832661" lon="13.543492409875403"><ele>747.0</ele><time>2026-05-02T14:21:37.999Z</time></trkpt><trkpt lat="42.08063588402373" lon="13.543494051725641"><ele>747.0</ele><time>2026-05-02T14:21:38.999Z</time></trkpt><trkpt lat="42.08051349580453" lon="13.543497704062563"><ele>746.4000000000001</ele><time>2026-05-02T14:21:39.999Z</time></trkpt><trkpt lat="42.080398398292886" lon="13.543505497763228"><ele>745.8000000000001</ele><time>2026-05-02T14:21:40.999Z</time></trkpt><trkpt lat="42.08029512832488" lon="13.543513686588874"><ele>745.2</ele><time>2026-05-02T14:21:41.999Z</time></trkpt><trkpt lat="42.08019947414129" lon="13.543508258158495"><ele>744.6</ele><time>2026-05-02T14:21:42.999Z</time></trkpt><trkpt lat="42.08010862045642" lon="13.543500162073995"><ele>744.0</ele><time>2026-05-02T14:21:43.999Z</time></trkpt><trkpt lat="42.0800216770036" lon="13.543495704278405"><ele>744.0</ele><time>2026-05-02T14:21:44.999Z</time></trkpt><trkpt lat="42.079940719069455" lon="13.543497592139328"><ele>744.0</ele><time>2026-05-02T14:21:45.999Z</time></trkpt><trkpt lat="42.07987423524413" lon="13.543497936624377"><ele>744.0</ele><time>2026-05-02T14:21:46.999Z</time></trkpt><trkpt lat="42.07977470854252" lon="13.5434460417428"><ele>744.0</ele><time>2026-05-02T14:21:48.999Z</time></trkpt><trkpt lat="42.079744486755914" lon="13.543362473067237"><ele>744.0</ele><time>2026-05-02T14:21:49.999Z</time></trkpt><trkpt lat="42.07972286853546" lon="13.543248731371849"><ele>744.0</ele><time>2026-05-02T14:21:50.999Z</time></trkpt><trkpt lat="42.07968723543764" lon="13.54313863746423"><ele>743.4000000000001</ele><time>2026-05-02T14:21:51.999Z</time></trkpt><trkpt lat="42.079649889320045" lon="13.543032161261008"><ele>742.8</ele><time>2026-05-02T14:21:52.999Z</time></trkpt><trkpt lat="42.07959796638447" lon="13.542946914175092"><ele>742.2</ele><time>2026-05-02T14:21:53.999Z</time></trkpt><trkpt lat="42.07952558282729" lon="13.542888351666384"><ele>741.5999999999999</ele><time>2026-05-02T14:21:54.999Z</time></trkpt><trkpt lat="42.07942848088021" lon="13.542853458828489"><ele>741.0</ele><time>2026-05-02T14:21:55.999Z</time></trkpt><trkpt lat="42.07932952652005" lon="13.542842690882644"><ele>741.0</ele><time>2026-05-02T14:21:56.999Z</time></trkpt><trkpt lat="42.07922053890576" lon="13.542826824228039"><ele>741.0</ele><time>2026-05-02T14:21:57.999Z</time></trkpt><trkpt lat="42.07911840706935" lon="13.542794176352407"><ele>741.0</ele><time>2026-05-02T14:21:58.999Z</time></trkpt><trkpt lat="42.07902439943853" lon="13.542749786035557"><ele>741.0</ele><time>2026-05-02T14:21:59.999Z</time></trkpt><trkpt lat="42.07894209489281" lon="13.542683907316276"><ele>741.0</ele><time>2026-05-02T14:22:00.999Z</time></trkpt><trkpt lat="42.078866922207084" lon="13.54260667564441"><ele>740.5</ele><time>2026-05-02T14:22:01.999Z</time></trkpt><trkpt lat="42.07879887407362" lon="13.542508161752663"><ele>740.0</ele><time>2026-05-02T14:22:02.999Z</time></trkpt><trkpt lat="42.07874232232826" lon="13.542411268487196"><ele>739.5</ele><time>2026-05-02T14:22:03.999Z</time></trkpt><trkpt lat="42.07868605552699" lon="13.54232666600213"><ele>739.0</ele><time>2026-05-02T14:22:04.999Z</time></trkpt><trkpt lat="42.07862850590089" lon="13.542255079732799"><ele>738.5</ele><time>2026-05-02T14:22:05.999Z</time></trkpt><trkpt lat="42.078569551536816" lon="13.542187603513634"><ele>738.0</ele><time>2026-05-02T14:22:06.999Z</time></trkpt><trkpt lat="42.078509644665886" lon="13.542116336783025"><ele>738.3333333333334</ele><time>2026-05-02T14:22:07.999Z</time></trkpt><trkpt lat="42.07845060943891" lon="13.542047484067018"><ele>738.6666666666666</ele><time>2026-05-02T14:22:08.999Z</time></trkpt><trkpt lat="42.0783940851686" lon="13.54198435035212"><ele>739.0</ele><time>2026-05-02T14:22:09.999Z</time></trkpt><trkpt lat="42.07835040269103" lon="13.541913371446181"><ele>739.3333333333333</ele><time>2026-05-02T14:22:10.998Z</time></trkpt><trkpt lat="42.078320971328" lon="13.54183092259024"><ele>739.6666666666666</ele><time>2026-05-02T14:22:11.998Z</time></trkpt><trkpt lat="42.07831397764033" lon="13.541746192203286"><ele>740.0</ele><time>2026-05-02T14:22:12.998Z</time></trkpt><trkpt lat="42.078382466349126" lon="13.541609153769507"><ele>740.0</ele><time>2026-05-02T14:22:15Z</time></trkpt><trkpt lat="42.07843012623022" lon="13.54147458125944"><ele>740.0</ele><time>2026-05-02T14:22:17Z</time></trkpt><trkpt lat="42.07839234539059" lon="13.541395108541455"><ele>740.0</ele><time>2026-05-02T14:22:18Z</time></trkpt><trkpt lat="42.078339498674026" lon="13.541322213915164"><ele>740.0</ele><time>2026-05-02T14:22:19Z</time></trkpt><trkpt lat="42.07832134345575" lon="13.541194746819182"><ele>740.0</ele><time>2026-05-02T14:22:21Z</time></trkpt><trkpt lat="42.07840214372059" lon="13.541104874441599"><ele>740.4</ele><time>2026-05-02T14:22:23Z</time></trkpt><trkpt lat="42.078361354236804" lon="13.540955916292393"><ele>740.8</ele><time>2026-05-02T14:22:25Z</time></trkpt><trkpt lat="42.07830568560001" lon="13.540876724140658"><ele>741.2</ele><time>2026-05-02T14:22:26Z</time></trkpt><trkpt lat="42.07825101678475" lon="13.540789514354044"><ele>741.6</ele><time>2026-05-02T14:22:27Z</time></trkpt><trkpt lat="42.07820089025609" lon="13.540692464352938"><ele>742.0</ele><time>2026-05-02T14:22:28Z</time></trkpt><trkpt lat="42.07814262757297" lon="13.540587880656098"><ele>740.5</ele><time>2026-05-02T14:22:29Z</time></trkpt><trkpt lat="42.07808516188518" lon="13.54048592925903"><ele>739.0</ele><time>2026-05-02T14:22:30Z</time></trkpt><trkpt lat="42.078033426308494" lon="13.540400541677153"><ele>737.5</ele><time>2026-05-02T14:22:31Z</time></trkpt><trkpt lat="42.077986750455835" lon="13.540320641156145"><ele>736.0</ele><time>2026-05-02T14:22:32Z</time></trkpt><trkpt lat="42.077964695950925" lon="13.540240509914861"><ele>734.5</ele><time>2026-05-02T14:22:33Z</time></trkpt><trkpt lat="42.078013443847865" lon="13.540100026562321"><ele>733.0</ele><time>2026-05-02T14:22:35Z</time></trkpt><trkpt lat="42.07807310004708" lon="13.540043491037705"><ele>733.0</ele><time>2026-05-02T14:22:36Z</time></trkpt><trkpt lat="42.07814177097262" lon="13.539992889143088"><ele>733.0</ele><time>2026-05-02T14:22:37Z</time></trkpt><trkpt lat="42.07820343331896" lon="13.539952037012794"><ele>733.0</ele><time>2026-05-02T14:22:38Z</time></trkpt><trkpt lat="42.07829626345672" lon="13.539880799310588"><ele>733.0</ele><time>2026-05-02T14:22:40Z</time></trkpt><trkpt lat="42.07834755151523" lon="13.539944448284762"><ele>733.0</ele><time>2026-05-02T14:22:42Z</time></trkpt><trkpt lat="42.07839792367565" lon="13.54003103134946"><ele>733.0</ele><time>2026-05-02T14:22:44Z</time></trkpt><trkpt lat="42.07853640658485" lon="13.539999181215865"><ele>734.6666666666667</ele><time>2026-05-02T14:22:46Z</time></trkpt><trkpt lat="42.07862294541211" lon="13.539989235121055"><ele>736.3333333333334</ele><time>2026-05-02T14:22:47Z</time></trkpt><trkpt lat="42.07872301686768" lon="13.539980400473361"><ele>738.0</ele><time>2026-05-02T14:22:48Z</time></trkpt><trkpt lat="42.07881482504929" lon="13.539975003035845"><ele>739.6666666666666</ele><time>2026-05-02T14:22:49Z</time></trkpt><trkpt lat="42.07889487540041" lon="13.539974458343044"><ele>741.3333333333333</ele><time>2026-05-02T14:22:49.999Z</time></trkpt><trkpt lat="42.078966761041904" lon="13.539973276314361"><ele>743.0</ele><time>2026-05-02T14:22:50.999Z</time></trkpt><trkpt lat="42.07907260969533" lon="13.539973277681302"><ele>743.3333333333333</ele><time>2026-05-02T14:22:52.999Z</time></trkpt><trkpt lat="42.07912933728835" lon="13.540046616091203"><ele>743.6666666666666</ele><time>2026-05-02T14:22:55.999Z</time></trkpt><trkpt lat="42.07915893143241" lon="13.540191657086941"><ele>744.0</ele><time>2026-05-02T14:22:57.999Z</time></trkpt><trkpt lat="42.07918180218294" lon="13.540271556120482"><ele>744.3333333333334</ele><time>2026-05-02T14:22:58.999Z</time></trkpt><trkpt lat="42.07921886258056" lon="13.54034204444184"><ele>744.6666666666667</ele><time>2026-05-02T14:22:59.999Z</time></trkpt><trkpt lat="42.07933469010584" lon="13.540361425871648"><ele>745.0</ele><time>2026-05-02T14:23:01.999Z</time></trkpt><trkpt lat="42.07939327522439" lon="13.540328476590565"><ele>745.0</ele><time>2026-05-02T14:23:02.999Z</time></trkpt><trkpt lat="42.07950824240182" lon="13.540296900496473"><ele>745.0</ele><time>2026-05-02T14:23:04.999Z</time></trkpt><trkpt lat="42.079584467250676" lon="13.540308422727037"><ele>745.0</ele><time>2026-05-02T14:23:07.999Z</time></trkpt><trkpt lat="42.079615626731126" lon="13.54044920358188"><ele>745.0</ele><time>2026-05-02T14:23:09.999Z</time></trkpt><trkpt lat="42.07962803643878" lon="13.540538792948306"><ele>745.0</ele><time>2026-05-02T14:23:10.999Z</time></trkpt><trkpt lat="42.07965349050959" lon="13.540643488277503"><ele>744.8</ele><time>2026-05-02T14:23:11.999Z</time></trkpt><trkpt lat="42.07969707821381" lon="13.540759422511485"><ele>744.6</ele><time>2026-05-02T14:23:12.999Z</time></trkpt><trkpt lat="42.079753747904576" lon="13.540845347548993"><ele>744.4000000000001</ele><time>2026-05-02T14:23:13.999Z</time></trkpt><trkpt lat="42.079832477973376" lon="13.540917993389858"><ele>744.2</ele><time>2026-05-02T14:23:14.999Z</time></trkpt><trkpt lat="42.079935344263276" lon="13.540990113789661"><ele>744.0</ele><time>2026-05-02T14:23:15.999Z</time></trkpt><trkpt lat="42.08005036810226" lon="13.541037147470954"><ele>744.0</ele><time>2026-05-02T14:23:16.999Z</time></trkpt><trkpt lat="42.080167586102256" lon="13.541061442569275"><ele>744.0</ele><time>2026-05-02T14:23:17.999Z</time></trkpt><trkpt lat="42.080285602896794" lon="13.541070354037934"><ele>744.0</ele><time>2026-05-02T14:23:18.999Z</time></trkpt><trkpt lat="42.08041305365045" lon="13.541063948184652"><ele>744.0</ele><time>2026-05-02T14:23:19.999Z</time></trkpt><trkpt lat="42.08054723651981" lon="13.541049737262432"><ele>744.0</ele><time>2026-05-02T14:23:20.999Z</time></trkpt><trkpt lat="42.08069099435816" lon="13.541045971072482"><ele>744.0</ele><time>2026-05-02T14:23:21.999Z</time></trkpt><trkpt lat="42.08083384477758" lon="13.541042635774524"><ele>744.0</ele><time>2026-05-02T14:23:22.999Z</time></trkpt><trkpt lat="42.08098077093737" lon="13.541033506422464"><ele>744.0</ele><time>2026-05-02T14:23:23.999Z</time></trkpt><trkpt lat="42.081118010235805" lon="13.541033104506552"><ele>744.25</ele><time>2026-05-02T14:23:24.999Z</time></trkpt><trkpt lat="42.081258249099236" lon="13.541047627899838"><ele>744.5</ele><time>2026-05-02T14:23:25.999Z</time></trkpt><trkpt lat="42.08138623568171" lon="13.541064442244545"><ele>744.75</ele><time>2026-05-02T14:23:26.999Z</time></trkpt><trkpt lat="42.08150480764775" lon="13.541079875742534"><ele>745.0</ele><time>2026-05-02T14:23:27.999Z</time></trkpt><trkpt lat="42.08161259667404" lon="13.541108654714767"><ele>745.1666666666667</ele><time>2026-05-02T14:23:28.999Z</time></trkpt><trkpt lat="42.0817055034026" lon="13.541143653143715"><ele>745.3333333333334</ele><time>2026-05-02T14:23:29.999Z</time></trkpt><trkpt lat="42.08178220409604" lon="13.541182485054248"><ele>745.5</ele><time>2026-05-02T14:23:30.999Z</time></trkpt><trkpt lat="42.08184867966303" lon="13.541232077849576"><ele>745.6666666666666</ele><time>2026-05-02T14:23:31.999Z</time></trkpt><trkpt lat="42.081903827430516" lon="13.54129700539285"><ele>745.8333333333333</ele><time>2026-05-02T14:23:32.999Z</time></trkpt><trkpt lat="42.08195244925334" lon="13.541364591780445"><ele>746.0</ele><time>2026-05-02T14:23:33.999Z</time></trkpt><trkpt lat="42.08199807649169" lon="13.541427340980766"><ele>746.0</ele><time>2026-05-02T14:23:34.999Z</time></trkpt><trkpt lat="42.082041783382024" lon="13.541494324738826"><ele>746.0</ele><time>2026-05-02T14:23:35.999Z</time></trkpt><trkpt lat="42.08208389196261" lon="13.541557439269674"><ele>746.0</ele><time>2026-05-02T14:23:36.999Z</time></trkpt><trkpt lat="42.082124009374716" lon="13.541637840336108"><ele>746.0</ele><time>2026-05-02T14:23:39.999Z</time></trkpt><trkpt lat="42.08219026922328" lon="13.541664412692205"><ele>746.0</ele><time>2026-05-02T14:23:43.999Z</time></trkpt><trkpt lat="42.082238215739466" lon="13.541594920877916"><ele>746.0</ele><time>2026-05-02T14:23:47.999Z</time></trkpt><trkpt lat="42.08227716893202" lon="13.541522299671575"><ele>746.0</ele><time>2026-05-02T14:24:39Z</time></trkpt><trkpt lat="42.082254860769005" lon="13.541385226053118"><ele>746.0</ele><time>2026-05-02T14:29:00Z</time></trkpt><trkpt lat="42.08212702272548" lon="13.541419577868306"><ele>746.0</ele><time>2026-05-02T14:29:03Z</time></trkpt><trkpt lat="42.08209451245701" lon="13.541521509522582"><ele>746.0</ele><time>2026-05-02T14:29:12Z</time></trkpt><trkpt lat="42.08211872878938" lon="13.541656446357091"><ele>746.0</ele><time>2026-05-02T14:29:14Z</time></trkpt><trkpt lat="42.08215588919248" lon="13.541750326153137"><ele>746.0</ele><time>2026-05-02T14:29:15Z</time></trkpt><trkpt lat="42.08220152328043" lon="13.541849046646231"><ele>746.0</ele><time>2026-05-02T14:29:16Z</time></trkpt><trkpt lat="42.08225835825468" lon="13.54195573439861"><ele>746.0</ele><time>2026-05-02T14:29:17Z</time></trkpt><trkpt lat="42.08231023296635" lon="13.54206352487515"><ele>746.0</ele><time>2026-05-02T14:29:18Z</time></trkpt><trkpt lat="42.08235542954327" lon="13.542166404456896"><ele>746.0</ele><time>2026-05-02T14:29:19Z</time></trkpt><trkpt lat="42.08239930528881" lon="13.54227161402151"><ele>746.0</ele><time>2026-05-02T14:29:20Z</time></trkpt><trkpt lat="42.08242683290374" lon="13.542380446423836"><ele>746.1666666666666</ele><time>2026-05-02T14:29:21Z</time></trkpt><trkpt lat="42.08246219375673" lon="13.542471246991804"><ele>746.3333333333333</ele><time>2026-05-02T14:29:22Z</time></trkpt><trkpt lat="42.0825048131751" lon="13.542579159725355"><ele>746.5</ele><time>2026-05-02T14:29:24Z</time></trkpt><trkpt lat="42.08246608771146" lon="13.542690022620896"><ele>746.6666666666666</ele><time>2026-05-02T14:29:27Z</time></trkpt><trkpt lat="42.082380033976506" lon="13.542797749664382"><ele>746.8333333333334</ele><time>2026-05-02T14:29:29Z</time></trkpt><trkpt lat="42.08234373617523" lon="13.542881898770547"><ele>747.0</ele><time>2026-05-02T14:29:30Z</time></trkpt><trkpt lat="42.08232159420603" lon="13.542984275914163"><ele>747.8</ele><time>2026-05-02T14:29:31Z</time></trkpt><trkpt lat="42.08230929529247" lon="13.54308263723526"><ele>748.6</ele><time>2026-05-02T14:29:32Z</time></trkpt><trkpt lat="42.082301543005805" lon="13.543228309928303"><ele>749.4</ele><time>2026-05-02T14:29:34Z</time></trkpt><trkpt lat="42.08228458622637" lon="13.543325772768817"><ele>750.1999999999999</ele><time>2026-05-02T14:29:35.999Z</time></trkpt><trkpt lat="42.08245494277768" lon="13.543262736975702"><ele>751.0</ele><time>2026-05-02T14:29:38.999Z</time></trkpt><trkpt lat="42.082488873792286" lon="13.543176555119226"><ele>752.6666666666667</ele><time>2026-05-02T14:29:39.999Z</time></trkpt><trkpt lat="42.08253422661132" lon="13.543085364117882"><ele>754.3333333333334</ele><time>2026-05-02T14:29:40.999Z</time></trkpt><trkpt lat="42.082593810199675" lon="13.543005313774412"><ele>756.0</ele><time>2026-05-02T14:29:41.999Z</time></trkpt><trkpt lat="42.08266659160266" lon="13.542948606462081"><ele>757.6666666666666</ele><time>2026-05-02T14:29:42.999Z</time></trkpt><trkpt lat="42.082740140795" lon="13.542961038202373"><ele>759.3333333333333</ele><time>2026-05-02T14:29:43.999Z</time></trkpt><trkpt lat="42.082809326470176" lon="13.542954115557327"><ele>761.0</ele><time>2026-05-02T14:29:44.999Z</time></trkpt><trkpt lat="42.08288751996567" lon="13.54301246250141"><ele>761.0</ele><time>2026-05-02T14:29:45.999Z</time></trkpt><trkpt lat="42.08298414008539" lon="13.543049002551525"><ele>761.0</ele><time>2026-05-02T14:29:46.999Z</time></trkpt><trkpt lat="42.0830886574487" lon="13.543062736619941"><ele>761.0</ele><time>2026-05-02T14:29:47.999Z</time></trkpt><trkpt lat="42.08319983982637" lon="13.543050037040379"><ele>761.0</ele><time>2026-05-02T14:29:48.999Z</time></trkpt><trkpt lat="42.08331026519771" lon="13.543067824849365"><ele>761.0</ele><time>2026-05-02T14:29:49.999Z</time></trkpt><trkpt lat="42.08342955547732" lon="13.543070454836812"><ele>765.0</ele><time>2026-05-02T14:29:50.999Z</time></trkpt><trkpt lat="42.08355732757843" lon="13.543084973433464"><ele>769.0</ele><time>2026-05-02T14:29:51.999Z</time></trkpt><trkpt lat="42.083683002235844" lon="13.543078781917881"><ele>773.0</ele><time>2026-05-02T14:29:52.999Z</time></trkpt><trkpt lat="42.083808705088785" lon="13.543058824364964"><ele>777.0</ele><time>2026-05-02T14:29:53.999Z</time></trkpt><trkpt lat="42.0839304754058" lon="13.543030905941025"><ele>777.0</ele><time>2026-05-02T14:29:54.999Z</time></trkpt><trkpt lat="42.0840457007631" lon="13.542989279214003"><ele>777.0</ele><time>2026-05-02T14:29:55.999Z</time></trkpt><trkpt lat="42.084155501760094" lon="13.542944333040936"><ele>777.0</ele><time>2026-05-02T14:29:56.999Z</time></trkpt><trkpt lat="42.08426819287113" lon="13.542920149703482"><ele>777.0</ele><time>2026-05-02T14:29:57.999Z</time></trkpt><trkpt lat="42.084384791490315" lon="13.542915378722164"><ele>779.25</ele><time>2026-05-02T14:29:58.999Z</time></trkpt><trkpt lat="42.08450283310125" lon="13.54293289256392"><ele>781.5</ele><time>2026-05-02T14:29:59.999Z</time></trkpt><trkpt lat="42.08462506315954" lon="13.542953459459236"><ele>783.75</ele><time>2026-05-02T14:30:00.999Z</time></trkpt><trkpt lat="42.08474656174133" lon="13.542969145245845"><ele>786.0</ele><time>2026-05-02T14:30:01.999Z</time></trkpt><trkpt lat="42.08486347980629" lon="13.542974350812228"><ele>787.8</ele><time>2026-05-02T14:30:02.999Z</time></trkpt><trkpt lat="42.08497285400999" lon="13.542979451667623"><ele>789.5999999999999</ele><time>2026-05-02T14:30:03.999Z</time></trkpt><trkpt lat="42.085075864274025" lon="13.543014309410305"><ele>791.4</ele><time>2026-05-02T14:30:04.999Z</time></trkpt><trkpt lat="42.085173217520584" lon="13.542997767447055"><ele>793.2</ele><time>2026-05-02T14:30:05.999Z</time></trkpt><trkpt lat="42.08526757170949" lon="13.543030854455283"><ele>795.0</ele><time>2026-05-02T14:30:06.999Z</time></trkpt><trkpt lat="42.08535611128722" lon="13.543080993009895"><ele>795.0</ele><time>2026-05-02T14:30:07.999Z</time></trkpt><trkpt lat="42.08543818402562" lon="13.543129240023438"><ele>795.0</ele><time>2026-05-02T14:30:08.999Z</time></trkpt><trkpt lat="42.08549266469375" lon="13.54319220693527"><ele>795.0</ele><time>2026-05-02T14:30:09.999Z</time></trkpt><trkpt lat="42.085568306267554" lon="13.543235868403256"><ele>795.0</ele><time>2026-05-02T14:30:10.999Z</time></trkpt><trkpt lat="42.085656490991205" lon="13.543283660811463"><ele>795.0</ele><time>2026-05-02T14:30:11.999Z</time></trkpt><trkpt lat="42.085756481492325" lon="13.543336857736096"><ele>795.0</ele><time>2026-05-02T14:30:12.999Z</time></trkpt><trkpt lat="42.085854280250054" lon="13.543385994304378"><ele>794.8</ele><time>2026-05-02T14:30:13.999Z</time></trkpt><trkpt lat="42.085947674736985" lon="13.54343046259127"><ele>794.6</ele><time>2026-05-02T14:30:14.999Z</time></trkpt><trkpt lat="42.08604738153993" lon="13.543472298426304"><ele>794.4000000000001</ele><time>2026-05-02T14:30:15.999Z</time></trkpt><trkpt lat="42.086150639604675" lon="13.543502025856709"><ele>794.2</ele><time>2026-05-02T14:30:16.999Z</time></trkpt><trkpt lat="42.0862551467266" lon="13.543525846290317"><ele>794.0</ele><time>2026-05-02T14:30:17.999Z</time></trkpt><trkpt lat="42.086356116727885" lon="13.543547918798058"><ele>794.0</ele><time>2026-05-02T14:30:18.999Z</time></trkpt><trkpt lat="42.08646020244437" lon="13.543570049056836"><ele>794.0</ele><time>2026-05-02T14:30:19.999Z</time></trkpt><trkpt lat="42.08656644065339" lon="13.543566776210254"><ele>794.0</ele><time>2026-05-02T14:30:20.999Z</time></trkpt><trkpt lat="42.086668721344154" lon="13.543581534822467"><ele>794.0</ele><time>2026-05-02T14:30:21.999Z</time></trkpt><trkpt lat="42.086766851191875" lon="13.543578898611628"><ele>794.0</ele><time>2026-05-02T14:30:22.999Z</time></trkpt><trkpt lat="42.08687281883444" lon="13.54357448575981"><ele>793.6</ele><time>2026-05-02T14:30:23.999Z</time></trkpt><trkpt lat="42.08697509139686" lon="13.5435497172808"><ele>793.2</ele><time>2026-05-02T14:30:24.999Z</time></trkpt><trkpt lat="42.08706945693382" lon="13.543493901747814"><ele>792.8000000000001</ele><time>2026-05-02T14:30:25.999Z</time></trkpt><trkpt lat="42.08715760752555" lon="13.54341466110637"><ele>792.4000000000001</ele><time>2026-05-02T14:30:26.999Z</time></trkpt><trkpt lat="42.08723938762404" lon="13.54332514459001"><ele>792.0</ele><time>2026-05-02T14:30:27.999Z</time></trkpt><trkpt lat="42.087309522833024" lon="13.543222195140032"><ele>792.0</ele><time>2026-05-02T14:30:28.999Z</time></trkpt><trkpt lat="42.08735441661191" lon="13.54313347997918"><ele>792.0</ele><time>2026-05-02T14:30:29.999Z</time></trkpt><trkpt lat="42.08741697054724" lon="13.543025668490808"><ele>792.0</ele><time>2026-05-02T14:30:31.999Z</time></trkpt><trkpt lat="42.08747010465992" lon="13.542954625527395"><ele>792.0</ele><time>2026-05-02T14:30:33.999Z</time></trkpt><trkpt lat="42.087511819510205" lon="13.542889865954406"><ele>792.0</ele><time>2026-05-02T14:30:36.999Z</time></trkpt><trkpt lat="42.087529794427596" lon="13.542800174177938"><ele>792.0</ele><time>2026-05-02T14:31:11Z</time></trkpt><trkpt lat="42.08755959985312" lon="13.542724679560619"><ele>792.0</ele><time>2026-05-02T14:31:13Z</time></trkpt><trkpt lat="42.087624408646285" lon="13.542688329004228"><ele>792.0</ele><time>2026-05-02T14:31:17Z</time></trkpt><trkpt lat="42.0876734283867" lon="13.54258102525499"><ele>792.0</ele><time>2026-05-02T14:31:21Z</time></trkpt><trkpt lat="42.08773257425698" lon="13.542614262003468"><ele>792.0</ele><time>2026-05-02T14:31:22Z</time></trkpt><trkpt lat="42.08773401238129" lon="13.542507481837141"><ele>792.0</ele><time>2026-05-02T14:31:23Z</time></trkpt><trkpt lat="42.08778363972151" lon="13.542407992095558"><ele>792.0</ele><time>2026-05-02T14:31:25Z</time></trkpt><trkpt lat="42.08786740341088" lon="13.542268703708602"><ele>792.0</ele><time>2026-05-02T14:31:27Z</time></trkpt><trkpt lat="42.08794663982067" lon="13.542212180727738"><ele>792.0</ele><time>2026-05-02T14:31:28Z</time></trkpt><trkpt lat="42.08803082410863" lon="13.542151673173713"><ele>792.0</ele><time>2026-05-02T14:31:29Z</time></trkpt><trkpt lat="42.08813573636836" lon="13.542085320528457"><ele>792.0</ele><time>2026-05-02T14:31:30Z</time></trkpt><trkpt lat="42.088240874933334" lon="13.54202259423191"><ele>792.0</ele><time>2026-05-02T14:31:31Z</time></trkpt><trkpt lat="42.08833016434839" lon="13.541960244507298"><ele>792.8</ele><time>2026-05-02T14:31:32Z</time></trkpt><trkpt lat="42.088420953048434" lon="13.541908889090209"><ele>793.6</ele><time>2026-05-02T14:31:33Z</time></trkpt><trkpt lat="42.08850297656235" lon="13.54185247564185"><ele>794.4</ele><time>2026-05-02T14:31:34Z</time></trkpt><trkpt lat="42.08859035218956" lon="13.541807237552412"><ele>795.1999999999999</ele><time>2026-05-02T14:31:34.999Z</time></trkpt><trkpt lat="42.088653615512975" lon="13.541707329879513"><ele>796.0</ele><time>2026-05-02T14:31:35.999Z</time></trkpt><trkpt lat="42.08870140568872" lon="13.54159678352554"><ele>796.0</ele><time>2026-05-02T14:31:36.999Z</time></trkpt><trkpt lat="42.08871383033875" lon="13.54145304925403"><ele>796.0</ele><time>2026-05-02T14:31:37.999Z</time></trkpt><trkpt lat="42.08869236146962" lon="13.541306094945435"><ele>796.0</ele><time>2026-05-02T14:31:38.999Z</time></trkpt><trkpt lat="42.08864916448184" lon="13.541158773312587"><ele>796.0</ele><time>2026-05-02T14:31:39.999Z</time></trkpt><trkpt lat="42.08859561362475" lon="13.541017334468112"><ele>795.75</ele><time>2026-05-02T14:31:40.999Z</time></trkpt><trkpt lat="42.08852041798984" lon="13.540885250779858"><ele>795.5</ele><time>2026-05-02T14:31:41.999Z</time></trkpt><trkpt lat="42.088438851754475" lon="13.540759412412966"><ele>795.25</ele><time>2026-05-02T14:31:42.999Z</time></trkpt><trkpt lat="42.08836657834825" lon="13.540626929759231"><ele>795.0</ele><time>2026-05-02T14:31:43.999Z</time></trkpt><trkpt lat="42.08831903910463" lon="13.540488772101249"><ele>794.75</ele><time>2026-05-02T14:31:44.999Z</time></trkpt><trkpt lat="42.088299538045085" lon="13.540335205749308"><ele>794.5</ele><time>2026-05-02T14:31:45.999Z</time></trkpt><trkpt lat="42.08829477404315" lon="13.54017963109914"><ele>794.25</ele><time>2026-05-02T14:31:46.999Z</time></trkpt><trkpt lat="42.08829683793485" lon="13.54001016609413"><ele>794.0</ele><time>2026-05-02T14:31:47.999Z</time></trkpt><trkpt lat="42.08830367534693" lon="13.539824373067304"><ele>794.0</ele><time>2026-05-02T14:31:48.999Z</time></trkpt><trkpt lat="42.088315285111236" lon="13.539645412419972"><ele>794.0</ele><time>2026-05-02T14:31:49.999Z</time></trkpt><trkpt lat="42.088326889851494" lon="13.539486465725112"><ele>794.0</ele><time>2026-05-02T14:31:50.999Z</time></trkpt><trkpt lat="42.08834530653194" lon="13.53934346766394"><ele>794.0</ele><time>2026-05-02T14:31:51.999Z</time></trkpt><trkpt lat="42.088360643994186" lon="13.539204159189309"><ele>794.0000000000001</ele><time>2026-05-02T14:31:52.999Z</time></trkpt><trkpt lat="42.08836839291518" lon="13.539071956528732"><ele>794.0</ele><time>2026-05-02T14:31:53.999Z</time></trkpt><trkpt lat="42.08836872823259" lon="13.538947287954956"><ele>794.0</ele><time>2026-05-02T14:31:54.999Z</time></trkpt><trkpt lat="42.08835985683426" lon="13.53883776278309"><ele>794.0</ele><time>2026-05-02T14:31:55.999Z</time></trkpt><trkpt lat="42.08834293497709" lon="13.5387518216159"><ele>794.0000000000001</ele><time>2026-05-02T14:31:56.999Z</time></trkpt><trkpt lat="42.08832671383735" lon="13.538630182595817"><ele>794.0</ele><time>2026-05-02T14:31:58.999Z</time></trkpt><trkpt lat="42.08845862277784" lon="13.538594904821798"><ele>794.0000000000001</ele><time>2026-05-02T14:32:01.999Z</time></trkpt><trkpt lat="42.08852514586456" lon="13.538560105156485"><ele>794.0</ele><time>2026-05-02T14:32:02.999Z</time></trkpt><trkpt lat="42.08859321502953" lon="13.538524497063737"><ele>794.0</ele><time>2026-05-02T14:32:03.999Z</time></trkpt><trkpt lat="42.088678508741594" lon="13.53847843833242"><ele>794.0</ele><time>2026-05-02T14:32:04.999Z</time></trkpt><trkpt lat="42.08875751118355" lon="13.538416339245394"><ele>794.0000000000001</ele><time>2026-05-02T14:32:05.999Z</time></trkpt><trkpt lat="42.08883611223026" lon="13.538371638373606"><ele>794.0</ele><time>2026-05-02T14:32:06.999Z</time></trkpt><trkpt lat="42.08891579332835" lon="13.538311933059783"><ele>794.0</ele><time>2026-05-02T14:32:07.999Z</time></trkpt><trkpt lat="42.088966107193755" lon="13.538218798333164"><ele>794.0</ele><time>2026-05-02T14:32:08.999Z</time></trkpt><trkpt lat="42.08901496041161" lon="13.538103501320403"><ele>794.0</ele><time>2026-05-02T14:32:09.999Z</time></trkpt><trkpt lat="42.089058926343455" lon="13.53799267842161"><ele>794.0</ele><time>2026-05-02T14:32:10.999Z</time></trkpt><trkpt lat="42.08911660539786" lon="13.537879872539712"><ele>794.0</ele><time>2026-05-02T14:32:11.999Z</time></trkpt><trkpt lat="42.08917684394945" lon="13.537767585345302"><ele>796.25</ele><time>2026-05-02T14:32:12.999Z</time></trkpt><trkpt lat="42.08923893105721" lon="13.537648379746074"><ele>798.5</ele><time>2026-05-02T14:32:13.999Z</time></trkpt><trkpt lat="42.08931688838603" lon="13.537549094784087"><ele>800.75</ele><time>2026-05-02T14:32:14.999Z</time></trkpt><trkpt lat="42.08941361514285" lon="13.537444649078802"><ele>803.0</ele><time>2026-05-02T14:32:15.999Z</time></trkpt><trkpt lat="42.089518122833894" lon="13.537341143133517"><ele>803.0</ele><time>2026-05-02T14:32:16.999Z</time></trkpt><trkpt lat="42.08962504635418" lon="13.537226124220659"><ele>803.0</ele><time>2026-05-02T14:32:17.999Z</time></trkpt><trkpt lat="42.08973239479209" lon="13.537109735872642"><ele>803.0</ele><time>2026-05-02T14:32:18.999Z</time></trkpt><trkpt lat="42.089840158676424" lon="13.536994781109687"><ele>803.0</ele><time>2026-05-02T14:32:19.999Z</time></trkpt><trkpt lat="42.089955735260546" lon="13.536899567211794"><ele>804.8</ele><time>2026-05-02T14:32:20.999Z</time></trkpt><trkpt lat="42.09003973425143" lon="13.536771845795192"><ele>806.5999999999999</ele><time>2026-05-02T14:32:21.999Z</time></trkpt><trkpt lat="42.090128224014904" lon="13.53665461215956"><ele>808.4000000000001</ele><time>2026-05-02T14:32:22.999Z</time></trkpt><trkpt lat="42.09017881216302" lon="13.536556102290579"><ele>810.2</ele><time>2026-05-02T14:32:23.999Z</time></trkpt><trkpt lat="42.090237461826725" lon="13.53648675611782"><ele>812.0</ele><time>2026-05-02T14:32:24.999Z</time></trkpt><trkpt lat="42.09032539202444" lon="13.536403950816997"><ele>811.0</ele><time>2026-05-02T14:32:26.999Z</time></trkpt><trkpt lat="42.090310466389205" lon="13.536170842033663"><ele>810.0</ele><time>2026-05-02T14:32:29.999Z</time></trkpt><trkpt lat="42.09028226491865" lon="13.536058592023451"><ele>809.0</ele><time>2026-05-02T14:32:30.999Z</time></trkpt><trkpt lat="42.09025416697387" lon="13.535935205151635"><ele>808.0</ele><time>2026-05-02T14:32:31.999Z</time></trkpt><trkpt lat="42.09023282694613" lon="13.535804455018221"><ele>808.0</ele><time>2026-05-02T14:32:32.999Z</time></trkpt><trkpt lat="42.09021251768579" lon="13.535673753245817"><ele>808.0</ele><time>2026-05-02T14:32:33.999Z</time></trkpt><trkpt lat="42.09019647707483" lon="13.53554420288143"><ele>808.0</ele><time>2026-05-02T14:32:34.999Z</time></trkpt><trkpt lat="42.09019598398316" lon="13.535424045941927"><ele>808.0</ele><time>2026-05-02T14:32:35.999Z</time></trkpt><trkpt lat="42.0902024549257" lon="13.535297238213213"><ele>808.0</ele><time>2026-05-02T14:32:36.999Z</time></trkpt><trkpt lat="42.090218691865935" lon="13.535176378475608"><ele>807.9999999999999</ele><time>2026-05-02T14:32:37.999Z</time></trkpt><trkpt lat="42.09024549177578" lon="13.535081071113114"><ele>808.0</ele><time>2026-05-02T14:32:38.999Z</time></trkpt><trkpt lat="42.090263119119555" lon="13.534977794484798"><ele>808.0</ele><time>2026-05-02T14:32:40.999Z</time></trkpt><trkpt lat="42.09026526510493" lon="13.534837601201929"><ele>808.0</ele><time>2026-05-02T14:32:42.999Z</time></trkpt><trkpt lat="42.09026835554714" lon="13.534725862873081"><ele>807.9999999999999</ele><time>2026-05-02T14:32:44Z</time></trkpt><trkpt lat="42.09030741304816" lon="13.53461774808404"><ele>808.0</ele><time>2026-05-02T14:32:45Z</time></trkpt><trkpt lat="42.090343214418866" lon="13.534481014147143"><ele>808.0</ele><time>2026-05-02T14:32:46Z</time></trkpt><trkpt lat="42.09040224130733" lon="13.534373047743705"><ele>808.0</ele><time>2026-05-02T14:32:47Z</time></trkpt><trkpt lat="42.09047771803452" lon="13.534255755186276"><ele>808.0</ele><time>2026-05-02T14:32:48Z</time></trkpt><trkpt lat="42.09056208783734" lon="13.534134717361058"><ele>808.0</ele><time>2026-05-02T14:32:49Z</time></trkpt><trkpt lat="42.09064833054924" lon="13.534001717465"><ele>808.0</ele><time>2026-05-02T14:32:50Z</time></trkpt><trkpt lat="42.090738777111866" lon="13.533858176334542"><ele>808.0</ele><time>2026-05-02T14:32:51Z</time></trkpt><trkpt lat="42.09082665707076" lon="13.533702333790071"><ele>808.0</ele><time>2026-05-02T14:32:52Z</time></trkpt><trkpt lat="42.09091199482193" lon="13.533535689693188"><ele>808.0</ele><time>2026-05-02T14:32:53Z</time></trkpt><trkpt lat="42.09099210416715" lon="13.53337831653232"><ele>809.5</ele><time>2026-05-02T14:32:54Z</time></trkpt><trkpt lat="42.091061666768404" lon="13.533213142147105"><ele>811.0</ele><time>2026-05-02T14:32:55Z</time></trkpt><trkpt lat="42.091133107802875" lon="13.533091914270235"><ele>812.5</ele><time>2026-05-02T14:32:56Z</time></trkpt><trkpt lat="42.09118402812799" lon="13.532940884270426"><ele>814.0</ele><time>2026-05-02T14:32:57Z</time></trkpt><trkpt lat="42.09124069496725" lon="13.532808956986903"><ele>814.25</ele><time>2026-05-02T14:32:58Z</time></trkpt><trkpt lat="42.09132803804868" lon="13.532726057976678"><ele>814.5</ele><time>2026-05-02T14:32:59Z</time></trkpt><trkpt lat="42.09139990682484" lon="13.53261108967639"><ele>814.75</ele><time>2026-05-02T14:33:00Z</time></trkpt><trkpt lat="42.09149588880139" lon="13.532514769429365"><ele>815.0</ele><time>2026-05-02T14:33:01Z</time></trkpt><trkpt lat="42.09158659971915" lon="13.532399334743506"><ele>816.25</ele><time>2026-05-02T14:33:02Z</time></trkpt><trkpt lat="42.09167974143026" lon="13.53227004087303"><ele>817.5</ele><time>2026-05-02T14:33:03Z</time></trkpt><trkpt lat="42.09176796188895" lon="13.532133413845674"><ele>818.75</ele><time>2026-05-02T14:33:04Z</time></trkpt><trkpt lat="42.09184568712141" lon="13.531987775324499"><ele>820.0</ele><time>2026-05-02T14:33:05Z</time></trkpt><trkpt lat="42.09190948281757" lon="13.531836186379497"><ele>820.0</ele><time>2026-05-02T14:33:06Z</time></trkpt><trkpt lat="42.09196659214069" lon="13.531683089866"><ele>820.0</ele><time>2026-05-02T14:33:07Z</time></trkpt><trkpt lat="42.09201317602065" lon="13.531520885219898"><ele>820.0</ele><time>2026-05-02T14:33:08Z</time></trkpt><trkpt lat="42.092051372708426" lon="13.531353536402282"><ele>820.0</ele><time>2026-05-02T14:33:09Z</time></trkpt><trkpt lat="42.0920834513894" lon="13.531187465190843"><ele>819.5</ele><time>2026-05-02T14:33:10Z</time></trkpt><trkpt lat="42.09211750597844" lon="13.531014646689844"><ele>819.0</ele><time>2026-05-02T14:33:11Z</time></trkpt><trkpt lat="42.09215192176343" lon="13.53084917305168"><ele>818.5</ele><time>2026-05-02T14:33:12Z</time></trkpt><trkpt lat="42.09219182311786" lon="13.530693875588483"><ele>818.0</ele><time>2026-05-02T14:33:13Z</time></trkpt><trkpt lat="42.0922319387411" lon="13.530550873230345"><ele>818.0</ele><time>2026-05-02T14:33:14Z</time></trkpt><trkpt lat="42.09226209612916" lon="13.530412348742418"><ele>818.0</ele><time>2026-05-02T14:33:15Z</time></trkpt><trkpt lat="42.09231599309091" lon="13.530297181020698"><ele>818.0</ele><time>2026-05-02T14:33:16Z</time></trkpt><trkpt lat="42.09234771995278" lon="13.530164152664755"><ele>818.0</ele><time>2026-05-02T14:33:17Z</time></trkpt><trkpt lat="42.09241051274594" lon="13.53003952560047"><ele>818.0</ele><time>2026-05-02T14:33:18Z</time></trkpt><trkpt lat="42.092473957318525" lon="13.529900365275145"><ele>819.75</ele><time>2026-05-02T14:33:19Z</time></trkpt><trkpt lat="42.09253385026559" lon="13.529755791790297"><ele>821.5</ele><time>2026-05-02T14:33:20Z</time></trkpt><trkpt lat="42.092592147488695" lon="13.529602850803665"><ele>823.25</ele><time>2026-05-02T14:33:21Z</time></trkpt><trkpt lat="42.09265288527506" lon="13.52945489357065"><ele>825.0</ele><time>2026-05-02T14:33:22Z</time></trkpt><trkpt lat="42.092711903412926" lon="13.52930208514172"><ele>825.0</ele><time>2026-05-02T14:33:23Z</time></trkpt><trkpt lat="42.09276689863784" lon="13.529141729591483"><ele>825.0</ele><time>2026-05-02T14:33:24Z</time></trkpt><trkpt lat="42.092824002213725" lon="13.5289801822705"><ele>825.0</ele><time>2026-05-02T14:33:25Z</time></trkpt><trkpt lat="42.09287779298647" lon="13.528817074367842"><ele>825.0</ele><time>2026-05-02T14:33:26Z</time></trkpt><trkpt lat="42.09293085887419" lon="13.528657560082962"><ele>824.2</ele><time>2026-05-02T14:33:27Z</time></trkpt><trkpt lat="42.09298597249228" lon="13.528516971341206"><ele>823.4</ele><time>2026-05-02T14:33:28Z</time></trkpt><trkpt lat="42.09303877304486" lon="13.528386954948596"><ele>822.5999999999999</ele><time>2026-05-02T14:33:29Z</time></trkpt><trkpt lat="42.09308975887417" lon="13.528278184942902"><ele>821.8</ele><time>2026-05-02T14:33:29.999Z</time></trkpt><trkpt lat="42.09313999465376" lon="13.528194046074336"><ele>821.0</ele><time>2026-05-02T14:33:30.999Z</time></trkpt><trkpt lat="42.09320011535531" lon="13.528121649986641"><ele>822.4</ele><time>2026-05-02T14:33:31.999Z</time></trkpt><trkpt lat="42.09327152245981" lon="13.528038738727377"><ele>823.8</ele><time>2026-05-02T14:33:32.999Z</time></trkpt><trkpt lat="42.093350187765566" lon="13.527952963232444"><ele>825.1999999999999</ele><time>2026-05-02T14:33:33.999Z</time></trkpt><trkpt lat="42.09342681657834" lon="13.52787064547185"><ele>826.5999999999999</ele><time>2026-05-02T14:33:34.999Z</time></trkpt><trkpt lat="42.093501464249854" lon="13.527798827130626"><ele>828.0</ele><time>2026-05-02T14:33:35.999Z</time></trkpt><trkpt lat="42.09357058924118" lon="13.5277280652781"><ele>828.0</ele><time>2026-05-02T14:33:36.999Z</time></trkpt><trkpt lat="42.09364592335821" lon="13.527668168212566"><ele>828.0</ele><time>2026-05-02T14:33:37.999Z</time></trkpt><trkpt lat="42.09372114893485" lon="13.52762391569726"><ele>828.0</ele><time>2026-05-02T14:33:38.999Z</time></trkpt><trkpt lat="42.09378125778223" lon="13.527594261203518"><ele>828.0</ele><time>2026-05-02T14:33:39.999Z</time></trkpt><trkpt lat="42.093856459409004" lon="13.52751389881153"><ele>828.0</ele><time>2026-05-02T14:33:41.999Z</time></trkpt><trkpt lat="42.09386980968" lon="13.527427595729652"><ele>828.0</ele><time>2026-05-02T14:33:43.999Z</time></trkpt><trkpt lat="42.093878982563574" lon="13.5273117752218"><ele>828.0</ele><time>2026-05-02T14:33:45.999Z</time></trkpt><trkpt lat="42.09389431911724" lon="13.527154798273344"><ele>828.0</ele><time>2026-05-02T14:33:47.999Z</time></trkpt><trkpt lat="42.09390204912035" lon="13.527002861108505"><ele>828.0</ele><time>2026-05-02T14:33:49.999Z</time></trkpt><trkpt lat="42.09391018536065" lon="13.526841399392788"><ele>828.0</ele><time>2026-05-02T14:33:51.999Z</time></trkpt><trkpt lat="42.093933613950455" lon="13.526696042523966"><ele>827.6666666666666</ele><time>2026-05-02T14:33:53.999Z</time></trkpt><trkpt lat="42.09395123367061" lon="13.526609030981797"><ele>827.3333333333333</ele><time>2026-05-02T14:33:54.999Z</time></trkpt><trkpt lat="42.09397530734273" lon="13.526524144849564"><ele>827.0</ele><time>2026-05-02T14:33:55.999Z</time></trkpt><trkpt lat="42.09400823905527" lon="13.526357778400168"><ele>826.6666666666666</ele><time>2026-05-02T14:33:57.999Z</time></trkpt><trkpt lat="42.094019284054596" lon="13.52627032078833"><ele>826.3333333333333</ele><time>2026-05-02T14:33:58.999Z</time></trkpt><trkpt lat="42.09402873027259" lon="13.526178104119868"><ele>826.0</ele><time>2026-05-02T14:33:59.999Z</time></trkpt><trkpt lat="42.094049612956745" lon="13.526031087313426"><ele>827.0</ele><time>2026-05-02T14:34:01.999Z</time></trkpt><trkpt lat="42.09411273022185" lon="13.525918175925659"><ele>828.0</ele><time>2026-05-02T14:34:03.999Z</time></trkpt><trkpt lat="42.09418665502145" lon="13.525781678709782"><ele>829.0</ele><time>2026-05-02T14:34:05.999Z</time></trkpt><trkpt lat="42.09421730213049" lon="13.525642741911685"><ele>830.0</ele><time>2026-05-02T14:34:07.999Z</time></trkpt><trkpt lat="42.09421196966649" lon="13.525521439926175"><ele>831.0</ele><time>2026-05-02T14:34:09.999Z</time></trkpt><trkpt lat="42.094214139876065" lon="13.525375445775415"><ele>828.1999999999999</ele><time>2026-05-02T14:34:11.999Z</time></trkpt><trkpt lat="42.09427434426996" lon="13.525224109829933"><ele>825.4</ele><time>2026-05-02T14:34:13.999Z</time></trkpt><trkpt lat="42.09432725797185" lon="13.525148455468315"><ele>822.6</ele><time>2026-05-02T14:34:14.999Z</time></trkpt><trkpt lat="42.09438674786574" lon="13.525084069168855"><ele>819.8</ele><time>2026-05-02T14:34:15.999Z</time></trkpt><trkpt lat="42.09443910167464" lon="13.525017435532044"><ele>817.0</ele><time>2026-05-02T14:34:16.999Z</time></trkpt><trkpt lat="42.09452429104834" lon="13.524913695615083"><ele>817.0</ele><time>2026-05-02T14:34:18.999Z</time></trkpt><trkpt lat="42.094604408986264" lon="13.524829672846664"><ele>817.0</ele><time>2026-05-02T14:34:20.999Z</time></trkpt><trkpt lat="42.094690589474425" lon="13.524742927631644"><ele>817.0</ele><time>2026-05-02T14:34:22.999Z</time></trkpt><trkpt lat="42.09478014287853" lon="13.524652951514781"><ele>817.0</ele><time>2026-05-02T14:34:24.999Z</time></trkpt><trkpt lat="42.09484667126515" lon="13.524563073485712"><ele>817.0</ele><time>2026-05-02T14:34:26.999Z</time></trkpt><trkpt lat="42.0949206735515" lon="13.5244862132674"><ele>817.8</ele><time>2026-05-02T14:34:28.999Z</time></trkpt><trkpt lat="42.0949911964416" lon="13.524438353282862"><ele>818.6</ele><time>2026-05-02T14:34:30.999Z</time></trkpt><trkpt lat="42.09508101900809" lon="13.524372734740716"><ele>819.4</ele><time>2026-05-02T14:34:32.999Z</time></trkpt><trkpt lat="42.09518250984238" lon="13.52429895577639"><ele>820.1999999999999</ele><time>2026-05-02T14:34:34.999Z</time></trkpt><trkpt lat="42.09528849537883" lon="13.524202012240119"><ele>821.0</ele><time>2026-05-02T14:34:36.999Z</time></trkpt><trkpt lat="42.09534694635597" lon="13.524140764888774"><ele>821.0000000000001</ele><time>2026-05-02T14:34:37.999Z</time></trkpt><trkpt lat="42.09541086602313" lon="13.524094181396372"><ele>821.0</ele><time>2026-05-02T14:34:38.999Z</time></trkpt><trkpt lat="42.095470371382106" lon="13.52403252242101"><ele>821.0</ele><time>2026-05-02T14:34:39.999Z</time></trkpt><trkpt lat="42.09552531774951" lon="13.52395023143361"><ele>821.0</ele><time>2026-05-02T14:34:40.999Z</time></trkpt><trkpt lat="42.09559568699222" lon="13.523910234645749"><ele>821.0000000000001</ele><time>2026-05-02T14:34:41.999Z</time></trkpt><trkpt lat="42.095639933547524" lon="13.523843398579519"><ele>821.0</ele><time>2026-05-02T14:34:42.999Z</time></trkpt><trkpt lat="42.09571240326973" lon="13.523737285303604"><ele>822.5999999999999</ele><time>2026-05-02T14:34:44.999Z</time></trkpt><trkpt lat="42.09576440789617" lon="13.52358723720204"><ele>824.2</ele><time>2026-05-02T14:34:46.999Z</time></trkpt><trkpt lat="42.09578670458363" lon="13.523497644845545"><ele>825.8</ele><time>2026-05-02T14:34:47.999Z</time></trkpt><trkpt lat="42.09582635199048" lon="13.523338343882612"><ele>827.4000000000001</ele><time>2026-05-02T14:34:50Z</time></trkpt><trkpt lat="42.095856717904155" lon="13.523201789444437"><ele>829.0</ele><time>2026-05-02T14:34:52Z</time></trkpt><trkpt lat="42.095911664089954" lon="13.523093145132261"><ele>829.0</ele><time>2026-05-02T14:34:54Z</time></trkpt><trkpt lat="42.095975406773086" lon="13.522945789509796"><ele>829.0</ele><time>2026-05-02T14:34:56Z</time></trkpt><trkpt lat="42.095989350483606" lon="13.522858275783653"><ele>829.0</ele><time>2026-05-02T14:34:57Z</time></trkpt><trkpt lat="42.09604260553723" lon="13.522710426414418"><ele>829.0</ele><time>2026-05-02T14:34:59Z</time></trkpt><trkpt lat="42.09610144893184" lon="13.522594036000681"><ele>829.0</ele><time>2026-05-02T14:35:01Z</time></trkpt><trkpt lat="42.096142752038084" lon="13.522454007286653"><ele>829.8000000000001</ele><time>2026-05-02T14:35:03Z</time></trkpt><trkpt lat="42.09615221995364" lon="13.522317629534934"><ele>830.6</ele><time>2026-05-02T14:35:05Z</time></trkpt><trkpt lat="42.09618446349008" lon="13.522234331573314"><ele>831.4</ele><time>2026-05-02T14:35:07Z</time></trkpt><trkpt lat="42.09621686097713" lon="13.522131998149211"><ele>832.2</ele><time>2026-05-02T14:35:09Z</time></trkpt><trkpt lat="42.09618509159111" lon="13.522015334176409"><ele>833.0</ele><time>2026-05-02T14:35:10Z</time></trkpt><trkpt lat="42.096233479458526" lon="13.521887441954107"><ele>833.3333333333334</ele><time>2026-05-02T14:35:12Z</time></trkpt><trkpt lat="42.09626888060608" lon="13.521793873228543"><ele>833.6666666666667</ele><time>2026-05-02T14:35:14Z</time></trkpt><trkpt lat="42.09630084529029" lon="13.521690726551025"><ele>834.0</ele><time>2026-05-02T14:35:44.999Z</time></trkpt><trkpt lat="42.09632232059916" lon="13.521609961093251"><ele>834.3333333333333</ele><time>2026-05-02T14:40:19Z</time></trkpt><trkpt lat="42.0963583682175" lon="13.521539112918823"><ele>834.6666666666666</ele><time>2026-05-02T14:41:26Z</time></trkpt><trkpt lat="42.09636521778107" lon="13.521406855668632"><ele>835.0</ele><time>2026-05-02T14:41:29Z</time></trkpt><trkpt lat="42.096368057970096" lon="13.521319646270147"><ele>834.8333333333333</ele><time>2026-05-02T14:41:31Z</time></trkpt><trkpt lat="42.096391103763175" lon="13.521203408502195"><ele>834.6666666666666</ele><time>2026-05-02T14:47:00.999Z</time></trkpt><trkpt lat="42.0964329029714" lon="13.52109330405165"><ele>834.5</ele><time>2026-05-02T14:47:03.999Z</time></trkpt><trkpt lat="42.09647919211912" lon="13.521001667846754"><ele>834.3333333333333</ele><time>2026-05-02T14:47:05.999Z</time></trkpt><trkpt lat="42.09654515893324" lon="13.520924219869238"><ele>834.1666666666666</ele><time>2026-05-02T14:47:07.999Z</time></trkpt><trkpt lat="42.09660096763603" lon="13.520848759163846"><ele>834.0</ele><time>2026-05-02T14:47:09.999Z</time></trkpt><trkpt lat="42.09667346555992" lon="13.520736090115797"><ele>835.6</ele><time>2026-05-02T14:47:11.999Z</time></trkpt><trkpt lat="42.09674664707222" lon="13.520611978732449"><ele>837.2</ele><time>2026-05-02T14:47:13.999Z</time></trkpt><trkpt lat="42.09682398026317" lon="13.520478145554936"><ele>838.8000000000001</ele><time>2026-05-02T14:47:15.999Z</time></trkpt><trkpt lat="42.0969053222898" lon="13.520364639071321"><ele>840.4000000000001</ele><time>2026-05-02T14:47:17.999Z</time></trkpt><trkpt lat="42.096948815030245" lon="13.52029502729899"><ele>842.0</ele><time>2026-05-02T14:47:18.999Z</time></trkpt><trkpt lat="42.09703670761122" lon="13.52020307830392"><ele>842.0000000000001</ele><time>2026-05-02T14:47:20.999Z</time></trkpt><trkpt lat="42.097139498718164" lon="13.520139753955593"><ele>842.0</ele><time>2026-05-02T14:47:22.999Z</time></trkpt><trkpt lat="42.09723977410102" lon="13.520096993036702"><ele>842.0</ele><time>2026-05-02T14:47:24.999Z</time></trkpt><trkpt lat="42.09730104491069" lon="13.52007310583968"><ele>842.0</ele><time>2026-05-02T14:47:26Z</time></trkpt><trkpt lat="42.09739098366232" lon="13.520035268197164"><ele>842.0000000000001</ele><time>2026-05-02T14:47:28Z</time></trkpt><trkpt lat="42.09741050376753" lon="13.519947920716406"><ele>842.0</ele><time>2026-05-02T14:47:31Z</time></trkpt><trkpt lat="42.09738183482889" lon="13.519816048464941"><ele>842.0000000000001</ele><time>2026-05-02T14:47:34Z</time></trkpt><trkpt lat="42.097310035532075" lon="13.519712763387242"><ele>842.0</ele><time>2026-05-02T14:47:36Z</time></trkpt><trkpt lat="42.09731364289688" lon="13.519608882391077"><ele>842.0</ele><time>2026-05-02T14:47:39Z</time></trkpt><trkpt lat="42.09730243023029" lon="13.519503349991714"><ele>842.0</ele><time>2026-05-02T14:47:42Z</time></trkpt><trkpt lat="42.09719892134393" lon="13.51953718012083"><ele>842.0000000000001</ele><time>2026-05-02T14:52:37.999Z</time></trkpt><trkpt lat="42.09712787263995" lon="13.519582171853267"><ele>842.0</ele><time>2026-05-02T14:52:38.999Z</time></trkpt><trkpt lat="42.09705433566042" lon="13.519627069930909"><ele>845.25</ele><time>2026-05-02T14:52:39.999Z</time></trkpt><trkpt lat="42.09731082365888" lon="13.51948362218767"><ele>848.5</ele><time>2026-05-02T14:52:42.999Z</time></trkpt><trkpt lat="42.09730515061161" lon="13.519379455997347"><ele>851.75</ele><time>2026-05-02T14:52:47.999Z</time></trkpt><trkpt lat="42.09726214526867" lon="13.519307237425888"><ele>855.0</ele><time>2026-05-02T14:52:50.999Z</time></trkpt><trkpt lat="42.09718890823777" lon="13.519178322793332"><ele>855.0</ele><time>2026-05-02T14:52:52.999Z</time></trkpt><trkpt lat="42.09715701316285" lon="13.519090058972852"><ele>855.0</ele><time>2026-05-02T14:52:53.999Z</time></trkpt><trkpt lat="42.09714103626999" lon="13.518991738520828"><ele>855.0</ele><time>2026-05-02T14:52:55.999Z</time></trkpt><trkpt lat="42.09718336693726" lon="13.518872467569524"><ele>855.0</ele><time>2026-05-02T14:52:57.999Z</time></trkpt><trkpt lat="42.097232508632885" lon="13.518748817710678"><ele>855.0</ele><time>2026-05-02T15:05:40.999Z</time></trkpt><trkpt lat="42.09727353947021" lon="13.518605470663902"><ele>857.3333333333334</ele><time>2026-05-02T15:05:42.999Z</time></trkpt><trkpt lat="42.09729926546298" lon="13.518524221856913"><ele>859.6666666666667</ele><time>2026-05-02T15:05:43.999Z</time></trkpt><trkpt lat="42.0973293864911" lon="13.518423902987072"><ele>862.0</ele><time>2026-05-02T15:05:44.999Z</time></trkpt><trkpt lat="42.09736250572207" lon="13.51832654023473"><ele>864.3333333333334</ele><time>2026-05-02T15:05:45.999Z</time></trkpt><trkpt lat="42.09739565756929" lon="13.518234718007525"><ele>866.6666666666667</ele><time>2026-05-02T15:05:46.999Z</time></trkpt><trkpt lat="42.09743884705931" lon="13.518136552940069"><ele>869.0</ele><time>2026-05-02T15:05:47.999Z</time></trkpt><trkpt lat="42.097479354053725" lon="13.51804052028205"><ele>870.1666666666667</ele><time>2026-05-02T15:05:48.999Z</time></trkpt><trkpt lat="42.097530155918946" lon="13.517948440045739"><ele>871.3333333333334</ele><time>2026-05-02T15:05:49.999Z</time></trkpt><trkpt lat="42.09757379864284" lon="13.517867996253807"><ele>872.5</ele><time>2026-05-02T15:05:50.999Z</time></trkpt><trkpt lat="42.097617917973245" lon="13.51777754548369"><ele>873.6666666666667</ele><time>2026-05-02T15:05:51.999Z</time></trkpt><trkpt lat="42.097659731981345" lon="13.517684411866615"><ele>874.8333333333334</ele><time>2026-05-02T15:05:52.999Z</time></trkpt><trkpt lat="42.09770504035015" lon="13.517597005981445"><ele>876.0</ele><time>2026-05-02T15:05:53.999Z</time></trkpt><trkpt lat="42.097749723507185" lon="13.517511275358112"><ele>876.0</ele><time>2026-05-02T15:05:54.999Z</time></trkpt><trkpt lat="42.09779882590716" lon="13.517420065982332"><ele>876.0</ele><time>2026-05-02T15:05:55.999Z</time></trkpt><trkpt lat="42.09783706464964" lon="13.517332173884004"><ele>876.0</ele><time>2026-05-02T15:05:56.999Z</time></trkpt><trkpt lat="42.0978725750528" lon="13.517248678435068"><ele>876.0</ele><time>2026-05-02T15:05:57.999Z</time></trkpt><trkpt lat="42.09790762713734" lon="13.517168333306284"><ele>876.0</ele><time>2026-05-02T15:05:58.999Z</time></trkpt><trkpt lat="42.097931103605504" lon="13.517077403114694"><ele>876.0</ele><time>2026-05-02T15:05:59.999Z</time></trkpt><trkpt lat="42.09795569950287" lon="13.51698867942712"><ele>876.0</ele><time>2026-05-02T15:06:00.999Z</time></trkpt><trkpt lat="42.09797131773601" lon="13.516903627476871"><ele>876.0</ele><time>2026-05-02T15:06:01.999Z</time></trkpt><trkpt lat="42.09799406906981" lon="13.516731390857874"><ele>875.9999999999999</ele><time>2026-05-02T15:06:03.999Z</time></trkpt><trkpt lat="42.09801134373981" lon="13.51663614918835"><ele>875.9999999999999</ele><time>2026-05-02T15:06:04.999Z</time></trkpt><trkpt lat="42.098030364982925" lon="13.51654309526958"><ele>876.0</ele><time>2026-05-02T15:06:05.999Z</time></trkpt><trkpt lat="42.09807141739094" lon="13.516362824081392"><ele>876.0</ele><time>2026-05-02T15:06:07.999Z</time></trkpt><trkpt lat="42.09808823813762" lon="13.516261613864497"><ele>877.3333333333334</ele><time>2026-05-02T15:06:08.999Z</time></trkpt><trkpt lat="42.09810874637018" lon="13.516159274698918"><ele>878.6666666666667</ele><time>2026-05-02T15:06:09.999Z</time></trkpt><trkpt lat="42.09813433623309" lon="13.516060869721162"><ele>880.0</ele><time>2026-05-02T15:06:10.999Z</time></trkpt><trkpt lat="42.09816215912341" lon="13.51596451408276"><ele>881.3333333333334</ele><time>2026-05-02T15:06:11.999Z</time></trkpt><trkpt lat="42.09819919532312" lon="13.51587154867208"><ele>882.6666666666667</ele><time>2026-05-02T15:06:12.999Z</time></trkpt><trkpt lat="42.09824762611836" lon="13.515795541123616"><ele>884.0</ele><time>2026-05-02T15:06:13.999Z</time></trkpt><trkpt lat="42.098307528263994" lon="13.515728448640685"><ele>886.2857142857143</ele><time>2026-05-02T15:06:14.999Z</time></trkpt><trkpt lat="42.09836212380376" lon="13.51565779475177"><ele>888.5714285714287</ele><time>2026-05-02T15:06:16Z</time></trkpt><trkpt lat="42.098410792415585" lon="13.515583235170674"><ele>890.8571428571429</ele><time>2026-05-02T15:06:17Z</time></trkpt><trkpt lat="42.09845470904821" lon="13.51549723766426"><ele>893.1428571428572</ele><time>2026-05-02T15:06:18Z</time></trkpt><trkpt lat="42.09849254990443" lon="13.515409708378414"><ele>895.4285714285714</ele><time>2026-05-02T15:06:19Z</time></trkpt><trkpt lat="42.09853133889642" lon="13.515332845365826"><ele>897.7142857142859</ele><time>2026-05-02T15:06:20Z</time></trkpt><trkpt lat="42.098570408337174" lon="13.515260630028253"><ele>900.0000000000001</ele><time>2026-05-02T15:06:21Z</time></trkpt><trkpt lat="42.09862047409964" lon="13.51516819761266"><ele>901.0</ele><time>2026-05-02T15:06:23Z</time></trkpt><trkpt lat="42.0986787642447" lon="13.515063671750571"><ele>902.0</ele><time>2026-05-02T15:06:25Z</time></trkpt><trkpt lat="42.09875266972455" lon="13.51492700372379"><ele>903.0</ele><time>2026-05-02T15:06:27Z</time></trkpt><trkpt lat="42.09879115166262" lon="13.514848182070113"><ele>904.0</ele><time>2026-05-02T15:06:28Z</time></trkpt><trkpt lat="42.098830873444086" lon="13.514758325585419"><ele>905.0</ele><time>2026-05-02T15:06:29Z</time></trkpt><trkpt lat="42.09887401317905" lon="13.514663039447946"><ele>905.8333333333334</ele><time>2026-05-02T15:06:30Z</time></trkpt><trkpt lat="42.09891540093095" lon="13.514565784933957"><ele>906.6666666666667</ele><time>2026-05-02T15:06:31Z</time></trkpt><trkpt lat="42.0989402882992" lon="13.514472194208759"><ele>907.5</ele><time>2026-05-02T15:06:32Z</time></trkpt><trkpt lat="42.09897041807512" lon="13.514372190742119"><ele>908.3333333333333</ele><time>2026-05-02T15:06:33Z</time></trkpt><trkpt lat="42.09901211474585" lon="13.51428044315165"><ele>909.1666666666666</ele><time>2026-05-02T15:06:35Z</time></trkpt><trkpt lat="42.0990803420708" lon="13.514218410514745"><ele>910.0</ele><time>2026-05-02T15:06:37Z</time></trkpt><trkpt lat="42.09912922726406" lon="13.514124506852568"><ele>912.0</ele><time>2026-05-02T15:06:40Z</time></trkpt><trkpt lat="42.09915755717981" lon="13.514047426412464"><ele>914.0</ele><time>2026-05-02T15:06:42Z</time></trkpt><trkpt lat="42.099199640526614" lon="13.513888203764694"><ele>916.0</ele><time>2026-05-02T15:06:53Z</time></trkpt><trkpt lat="42.099224751965856" lon="13.513771836531241"><ele>918.0</ele><time>2026-05-02T15:06:54Z</time></trkpt><trkpt lat="42.09925461576709" lon="13.513652367042283"><ele>920.0</ele><time>2026-05-02T15:06:55Z</time></trkpt><trkpt lat="42.09929944640674" lon="13.513534270450922"><ele>922.5</ele><time>2026-05-02T15:06:56Z</time></trkpt><trkpt lat="42.0993600433812" lon="13.513405307882962"><ele>925.0</ele><time>2026-05-02T15:06:57Z</time></trkpt><trkpt lat="42.09941911537817" lon="13.513276556784222"><ele>927.5</ele><time>2026-05-02T15:06:58Z</time></trkpt><trkpt lat="42.09948143323919" lon="13.51314055872088"><ele>930.0</ele><time>2026-05-02T15:06:59Z</time></trkpt><trkpt lat="42.09954637467379" lon="13.513000817636286"><ele>932.5</ele><time>2026-05-02T15:07:00Z</time></trkpt><trkpt lat="42.09960736610091" lon="13.512857197722523"><ele>935.0</ele><time>2026-05-02T15:07:01Z</time></trkpt><trkpt lat="42.0996584517307" lon="13.512705363155735"><ele>937.5</ele><time>2026-05-02T15:07:02Z</time></trkpt><trkpt lat="42.099713612694465" lon="13.512558139201627"><ele>940.0</ele><time>2026-05-02T15:07:03Z</time></trkpt><trkpt lat="42.099775497343074" lon="13.51241461633418"><ele>940.0</ele><time>2026-05-02T15:07:04Z</time></trkpt><trkpt lat="42.099830438520904" lon="13.512294352689361"><ele>940.0</ele><time>2026-05-02T15:07:05Z</time></trkpt><trkpt lat="42.099896197043144" lon="13.512186269695212"><ele>940.0</ele><time>2026-05-02T15:07:06Z</time></trkpt><trkpt lat="42.09995208396951" lon="13.512100436314265"><ele>940.0</ele><time>2026-05-02T15:07:07Z</time></trkpt><trkpt lat="42.10002034190485" lon="13.512001024705611"><ele>940.0</ele><time>2026-05-02T15:07:08Z</time></trkpt><trkpt lat="42.100080627085255" lon="13.51189543463433"><ele>940.6</ele><time>2026-05-02T15:07:08.999Z</time></trkpt><trkpt lat="42.100127464763965" lon="13.511791309749116"><ele>941.2</ele><time>2026-05-02T15:07:09.999Z</time></trkpt><trkpt lat="42.10016533588383" lon="13.51167656943253"><ele>941.8</ele><time>2026-05-02T15:07:10.999Z</time></trkpt><trkpt lat="42.10019521544154" lon="13.511551201863824"><ele>942.4</ele><time>2026-05-02T15:07:11.999Z</time></trkpt><trkpt lat="42.10022981505245" lon="13.511418934340316"><ele>943.0</ele><time>2026-05-02T15:07:12.999Z</time></trkpt><trkpt lat="42.10027531131427" lon="13.511275854404861"><ele>944.4</ele><time>2026-05-02T15:07:13.999Z</time></trkpt><trkpt lat="42.10031416364783" lon="13.511145022076285"><ele>945.8</ele><time>2026-05-02T15:07:14.999Z</time></trkpt><trkpt lat="42.10034768465892" lon="13.511015059469024"><ele>947.2</ele><time>2026-05-02T15:07:15.999Z</time></trkpt><trkpt lat="42.10037243213658" lon="13.510903589850717"><ele>948.6</ele><time>2026-05-02T15:07:16.999Z</time></trkpt><trkpt lat="42.10040327211373" lon="13.510779467411693"><ele>950.0</ele><time>2026-05-02T15:07:17.999Z</time></trkpt><trkpt lat="42.100439022867306" lon="13.510652801055304"><ele>950.0000000000001</ele><time>2026-05-02T15:07:18.999Z</time></trkpt><trkpt lat="42.10047146101001" lon="13.510526004726163"><ele>950.0</ele><time>2026-05-02T15:07:19.999Z</time></trkpt><trkpt lat="42.100496573600054" lon="13.51041573548856"><ele>950.0</ele><time>2026-05-02T15:07:20.999Z</time></trkpt><trkpt lat="42.10051149403473" lon="13.510290353662034"><ele>950.0</ele><time>2026-05-02T15:07:22.999Z</time></trkpt><trkpt lat="42.10051664434637" lon="13.51017687684512"><ele>950.0000000000001</ele><time>2026-05-02T15:07:25.999Z</time></trkpt><trkpt lat="42.10052667705923" lon="13.510078249650268"><ele>950.0</ele><time>2026-05-02T15:07:28.999Z</time></trkpt><trkpt lat="42.10057796940205" lon="13.509958213176166"><ele>951.0000000000001</ele><time>2026-05-02T15:07:30.999Z</time></trkpt><trkpt lat="42.10062380985206" lon="13.509817373613195"><ele>952.0</ele><time>2026-05-02T15:07:32.999Z</time></trkpt><trkpt lat="42.100669056231794" lon="13.509754577531492"><ele>953.0</ele><time>2026-05-02T15:07:36.999Z</time></trkpt><trkpt lat="42.100717087767094" lon="13.509683135372374"><ele>954.0</ele><time>2026-05-02T15:07:38.999Z</time></trkpt><trkpt lat="42.100755422877064" lon="13.509611026989312"><ele>955.0000000000001</ele><time>2026-05-02T15:07:39.999Z</time></trkpt><trkpt lat="42.10080226516207" lon="13.509498541577662"><ele>956.0</ele><time>2026-05-02T15:07:40.999Z</time></trkpt><trkpt lat="42.100865440423895" lon="13.509374897556532"><ele>956.0</ele><time>2026-05-02T15:07:41.999Z</time></trkpt><trkpt lat="42.10093645909675" lon="13.509245579482222"><ele>956.0</ele><time>2026-05-02T15:07:42.999Z</time></trkpt><trkpt lat="42.101003002673245" lon="13.509101700933416"><ele>956.0</ele><time>2026-05-02T15:07:43.999Z</time></trkpt><trkpt lat="42.101175625901185" lon="13.50902250704627"><ele>956.0</ele><time>2026-05-02T15:07:44.999Z</time></trkpt><trkpt lat="42.10129835919986" lon="13.508889702330979"><ele>956.0</ele><time>2026-05-02T15:07:45.999Z</time></trkpt><trkpt lat="42.10142888621455" lon="13.508751665142052"><ele>956.0</ele><time>2026-05-02T15:07:46.999Z</time></trkpt><trkpt lat="42.101557584290845" lon="13.508599414783566"><ele>956.0</ele><time>2026-05-02T15:07:47.999Z</time></trkpt><trkpt lat="42.1016310418403" lon="13.508417582390218"><ele>955.0</ele><time>2026-05-02T15:07:48.999Z</time></trkpt><trkpt lat="42.10175410048874" lon="13.508263537096035"><ele>954.0</ele><time>2026-05-02T15:07:49.999Z</time></trkpt><trkpt lat="42.10188154267643" lon="13.508104862279698"><ele>953.0</ele><time>2026-05-02T15:07:50.999Z</time></trkpt><trkpt lat="42.10200021743525" lon="13.50794490799556"><ele>951.0</ele><time>2026-05-02T15:07:51.999Z</time></trkpt><trkpt lat="42.10211813706679" lon="13.507777741329996"><ele>949.0</ele><time>2026-05-02T15:07:52.999Z</time></trkpt><trkpt lat="42.10222426161103" lon="13.507609520371275"><ele>947.0</ele><time>2026-05-02T15:07:53.999Z</time></trkpt><trkpt lat="42.10232157935023" lon="13.507431740313207"><ele>947.0</ele><time>2026-05-02T15:07:54.999Z</time></trkpt><trkpt lat="42.10240857182579" lon="13.507243106131506"><ele>947.0</ele><time>2026-05-02T15:07:55.999Z</time></trkpt><trkpt lat="42.10248959629042" lon="13.507053737464883"><ele>947.0</ele><time>2026-05-02T15:07:56.999Z</time></trkpt><trkpt lat="42.10256643733505" lon="13.506861803026602"><ele>951.0</ele><time>2026-05-02T15:07:57.999Z</time></trkpt><trkpt lat="42.102641328245376" lon="13.506669798040592"><ele>955.0</ele><time>2026-05-02T15:07:58.999Z</time></trkpt><trkpt lat="42.10270638350791" lon="13.506465991975036"><ele>959.0</ele><time>2026-05-02T15:07:59.999Z</time></trkpt><trkpt lat="42.10276801397184" lon="13.506255608841478"><ele>956.3333333333334</ele><time>2026-05-02T15:08:00.999Z</time></trkpt><trkpt lat="42.10282502974763" lon="13.506042891989154"><ele>953.6666666666667</ele><time>2026-05-02T15:08:01.999Z</time></trkpt><trkpt lat="42.10288289413793" lon="13.505828499206642"><ele>951.0</ele><time>2026-05-02T15:08:02.999Z</time></trkpt><trkpt lat="42.102945845658084" lon="13.505611673442719"><ele>949.3333333333333</ele><time>2026-05-02T15:08:03.999Z</time></trkpt><trkpt lat="42.103006839988126" lon="13.505400334812828"><ele>947.6666666666666</ele><time>2026-05-02T15:08:04.999Z</time></trkpt><trkpt lat="42.103070459060646" lon="13.50520685048875"><ele>946.0</ele><time>2026-05-02T15:08:05.999Z</time></trkpt><trkpt lat="42.10316319712899" lon="13.505068146133143"><ele>951.25</ele><time>2026-05-02T15:08:06.999Z</time></trkpt><trkpt lat="42.10326296546518" lon="13.504950991343582"><ele>956.5</ele><time>2026-05-02T15:08:07.999Z</time></trkpt><trkpt lat="42.10338102299058" lon="13.504862651581464"><ele>961.75</ele><time>2026-05-02T15:08:08.999Z</time></trkpt><trkpt lat="42.1035100768064" lon="13.504792312633297"><ele>967.0</ele><time>2026-05-02T15:08:09.999Z</time></trkpt><trkpt lat="42.10364177562062" lon="13.504714672673519"><ele>967.0</ele><time>2026-05-02T15:08:10.999Z</time></trkpt><trkpt lat="42.103778000181286" lon="13.504628932653734"><ele>967.0</ele><time>2026-05-02T15:08:11.999Z</time></trkpt><trkpt lat="42.103906764262426" lon="13.50452323584224"><ele>967.0</ele><time>2026-05-02T15:08:12.999Z</time></trkpt><trkpt lat="42.10403927300185" lon="13.504414907357898"><ele>968.3333333333333</ele><time>2026-05-02T15:08:13.999Z</time></trkpt><trkpt lat="42.10415793066646" lon="13.50428862201906"><ele>969.6666666666667</ele><time>2026-05-02T15:08:14.999Z</time></trkpt><trkpt lat="42.10427173593342" lon="13.504149290086"><ele>971.0</ele><time>2026-05-02T15:08:15.999Z</time></trkpt><trkpt lat="42.104374808596184" lon="13.503990773429868"><ele>971.0</ele><time>2026-05-02T15:08:16.999Z</time></trkpt><trkpt lat="42.104474237085" lon="13.503815770340223"><ele>971.0</ele><time>2026-05-02T15:08:17.999Z</time></trkpt><trkpt lat="42.104561479170435" lon="13.503633496025023"><ele>971.0</ele><time>2026-05-02T15:08:18.999Z</time></trkpt><trkpt lat="42.10463847662412" lon="13.503454786374776"><ele>970.0</ele><time>2026-05-02T15:08:19.999Z</time></trkpt><trkpt lat="42.10471040449523" lon="13.503271391794899"><ele>969.0</ele><time>2026-05-02T15:08:20.999Z</time></trkpt><trkpt lat="42.104784416706075" lon="13.503093026707186"><ele>968.0</ele><time>2026-05-02T15:08:21.999Z</time></trkpt><trkpt lat="42.10485140639475" lon="13.502916919611467"><ele>974.6666666666667</ele><time>2026-05-02T15:08:22.999Z</time></trkpt><trkpt lat="42.10491503005458" lon="13.502732037054813"><ele>981.3333333333333</ele><time>2026-05-02T15:08:23.999Z</time></trkpt><trkpt lat="42.10497472439447" lon="13.502534908103316"><ele>988.0</ele><time>2026-05-02T15:08:24.999Z</time></trkpt><trkpt lat="42.10502681225319" lon="13.502344717373747"><ele>988.0</ele><time>2026-05-02T15:08:26Z</time></trkpt><trkpt lat="42.10507035317737" lon="13.502172612469648"><ele>988.0</ele><time>2026-05-02T15:08:27Z</time></trkpt><trkpt lat="42.105110371149884" lon="13.502016028713674"><ele>988.0</ele><time>2026-05-02T15:08:27.999Z</time></trkpt><trkpt lat="42.105153164017" lon="13.501859205524553"><ele>988.0</ele><time>2026-05-02T15:08:28.999Z</time></trkpt><trkpt lat="42.10519490291111" lon="13.501695482716498"><ele>987.25</ele><time>2026-05-02T15:08:29.999Z</time></trkpt><trkpt lat="42.10523526420929" lon="13.50152973536108"><ele>986.5</ele><time>2026-05-02T15:08:30.999Z</time></trkpt><trkpt lat="42.10527555699432" lon="13.501356200242947"><ele>985.75</ele><time>2026-05-02T15:08:31.999Z</time></trkpt><trkpt lat="42.1053128173227" lon="13.501177602041954"><ele>985.0</ele><time>2026-05-02T15:08:32.999Z</time></trkpt><trkpt lat="42.10534961744154" lon="13.500992636260847"><ele>984.75</ele><time>2026-05-02T15:08:34Z</time></trkpt><trkpt lat="42.105376172312816" lon="13.500805451448295"><ele>984.5</ele><time>2026-05-02T15:08:35Z</time></trkpt><trkpt lat="42.10539659254505" lon="13.50061779479555"><ele>984.25</ele><time>2026-05-02T15:08:36Z</time></trkpt><trkpt lat="42.105414658516736" lon="13.500425203989504"><ele>984.0</ele><time>2026-05-02T15:08:37Z</time></trkpt><trkpt lat="42.105428209059994" lon="13.500239514461596"><ele>986.0</ele><time>2026-05-02T15:08:38Z</time></trkpt><trkpt lat="42.105426731675934" lon="13.500056767844294"><ele>988.0</ele><time>2026-05-02T15:08:39Z</time></trkpt><trkpt lat="42.105399804285646" lon="13.499873871991682"><ele>990.0</ele><time>2026-05-02T15:08:40Z</time></trkpt><trkpt lat="42.1053363638913" lon="13.499700515311051"><ele>992.0</ele><time>2026-05-02T15:08:41Z</time></trkpt><trkpt lat="42.10524572482929" lon="13.499548847212427"><ele>992.0</ele><time>2026-05-02T15:08:42Z</time></trkpt><trkpt lat="42.10513704058986" lon="13.499411345582415"><ele>992.0</ele><time>2026-05-02T15:08:43Z</time></trkpt><trkpt lat="42.105022001562865" lon="13.49927952104941"><ele>992.0</ele><time>2026-05-02T15:08:44Z</time></trkpt><trkpt lat="42.10490671321254" lon="13.499155478905234"><ele>992.0</ele><time>2026-05-02T15:08:45Z</time></trkpt><trkpt lat="42.10479282018825" lon="13.499032895208448"><ele>992.0</ele><time>2026-05-02T15:08:46Z</time></trkpt><trkpt lat="42.104702700553865" lon="13.498908040367871"><ele>992.0</ele><time>2026-05-02T15:08:47Z</time></trkpt><trkpt lat="42.10462977361866" lon="13.498778846364559"><ele>992.0</ele><time>2026-05-02T15:08:48Z</time></trkpt><trkpt lat="42.10457819482634" lon="13.498655048731159"><ele>992.0</ele><time>2026-05-02T15:08:49Z</time></trkpt><trkpt lat="42.10454762249333" lon="13.498537671659514"><ele>992.0</ele><time>2026-05-02T15:08:50Z</time></trkpt><trkpt lat="42.10453101148138" lon="13.49841903553136"><ele>992.4000000000001</ele><time>2026-05-02T15:08:51Z</time></trkpt><trkpt lat="42.104521910058985" lon="13.498285240026297"><ele>992.8000000000001</ele><time>2026-05-02T15:08:52Z</time></trkpt><trkpt lat="42.104528318129596" lon="13.498144122547417"><ele>993.2</ele><time>2026-05-02T15:08:53Z</time></trkpt><trkpt lat="42.10455945805253" lon="13.497999849651999"><ele>993.6</ele><time>2026-05-02T15:08:54Z</time></trkpt><trkpt lat="42.10461708926585" lon="13.497866890522767"><ele>994.0</ele><time>2026-05-02T15:08:55Z</time></trkpt><trkpt lat="42.104700305645096" lon="13.497754890108963"><ele>994.0</ele><time>2026-05-02T15:08:56Z</time></trkpt><trkpt lat="42.104795530218745" lon="13.497659938098794"><ele>994.0</ele><time>2026-05-02T15:08:57Z</time></trkpt><trkpt lat="42.10489214726812" lon="13.49757054286304"><ele>994.0</ele><time>2026-05-02T15:08:58Z</time></trkpt><trkpt lat="42.104989620247686" lon="13.497483876735961"><ele>994.0</ele><time>2026-05-02T15:08:59Z</time></trkpt><trkpt lat="42.1050912221295" lon="13.497398779346367"><ele>995.75</ele><time>2026-05-02T15:09:00Z</time></trkpt><trkpt lat="42.105191911136046" lon="13.497316138542528"><ele>997.5</ele><time>2026-05-02T15:09:01Z</time></trkpt><trkpt lat="42.10529580037923" lon="13.497229917166592"><ele>999.25</ele><time>2026-05-02T15:09:02Z</time></trkpt><trkpt lat="42.10539568851662" lon="13.49714179636788"><ele>1001.0</ele><time>2026-05-02T15:09:03Z</time></trkpt><trkpt lat="42.10549663263597" lon="13.497055175603032"><ele>1001.0</ele><time>2026-05-02T15:09:04Z</time></trkpt><trkpt lat="42.1055943894143" lon="13.496977379502733"><ele>1000.9999999999999</ele><time>2026-05-02T15:09:05Z</time></trkpt><trkpt lat="42.105684654930464" lon="13.496903227150007"><ele>1000.9999999999999</ele><time>2026-05-02T15:09:06Z</time></trkpt><trkpt lat="42.10577008668635" lon="13.496833074396692"><ele>1001.0</ele><time>2026-05-02T15:09:07Z</time></trkpt><trkpt lat="42.10585013093862" lon="13.496770362122392"><ele>1001.0</ele><time>2026-05-02T15:09:08Z</time></trkpt><trkpt lat="42.10592629206131" lon="13.496712455645516"><ele>1002.8</ele><time>2026-05-02T15:09:09Z</time></trkpt><trkpt lat="42.106000071954156" lon="13.49665169571122"><ele>1004.5999999999999</ele><time>2026-05-02T15:09:10Z</time></trkpt><trkpt lat="42.106080011870375" lon="13.496580907581201"><ele>1006.4</ele><time>2026-05-02T15:09:11Z</time></trkpt><trkpt lat="42.1061627202585" lon="13.496502110667297"><ele>1008.2</ele><time>2026-05-02T15:09:12Z</time></trkpt><trkpt lat="42.106248968890064" lon="13.496417990993713"><ele>1010.0</ele><time>2026-05-02T15:09:13Z</time></trkpt><trkpt lat="42.1063422641604" lon="13.496320007507702"><ele>1009.25</ele><time>2026-05-02T15:09:14Z</time></trkpt><trkpt lat="42.106431343778844" lon="13.4961977821184"><ele>1008.5</ele><time>2026-05-02T15:09:15Z</time></trkpt><trkpt lat="42.10651697483481" lon="13.496056609560105"><ele>1007.75</ele><time>2026-05-02T15:09:15.999Z</time></trkpt><trkpt lat="42.10658373425359" lon="13.49589854741931"><ele>1007.0</ele><time>2026-05-02T15:09:16.999Z</time></trkpt><trkpt lat="42.10663629572265" lon="13.49572731927917"><ele>1009.75</ele><time>2026-05-02T15:09:17.999Z</time></trkpt><trkpt lat="42.106677783938096" lon="13.495550396856997"><ele>1012.5</ele><time>2026-05-02T15:09:18.999Z</time></trkpt><trkpt lat="42.10671022130988" lon="13.495371593758476"><ele>1015.25</ele><time>2026-05-02T15:09:19.999Z</time></trkpt><trkpt lat="42.106741291553604" lon="13.495189244972764"><ele>1018.0</ele><time>2026-05-02T15:09:20.999Z</time></trkpt><trkpt lat="42.10677482521044" lon="13.49500587805583"><ele>1018.0</ele><time>2026-05-02T15:09:21.999Z</time></trkpt><trkpt lat="42.10681109463168" lon="13.494818188259394"><ele>1018.0</ele><time>2026-05-02T15:09:22.999Z</time></trkpt><trkpt lat="42.10685322157279" lon="13.494632965944062"><ele>1018.0</ele><time>2026-05-02T15:09:23.999Z</time></trkpt><trkpt lat="42.106902741584406" lon="13.494440726496315"><ele>1018.0</ele><time>2026-05-02T15:09:24.999Z</time></trkpt><trkpt lat="42.10696851348822" lon="13.49426417721548"><ele>1017.5</ele><time>2026-05-02T15:09:25.999Z</time></trkpt><trkpt lat="42.107062295883914" lon="13.494108027581072"><ele>1017.0</ele><time>2026-05-02T15:09:26.999Z</time></trkpt><trkpt lat="42.107169860415844" lon="13.493970660013378"><ele>1016.5</ele><time>2026-05-02T15:09:27.999Z</time></trkpt><trkpt lat="42.107279076051846" lon="13.493841737642473"><ele>1016.0</ele><time>2026-05-02T15:09:28.999Z</time></trkpt><trkpt lat="42.1073836538185" lon="13.493699054493637"><ele>1019.5</ele><time>2026-05-02T15:09:29.999Z</time></trkpt><trkpt lat="42.10748171156549" lon="13.493556697572055"><ele>1023.0</ele><time>2026-05-02T15:09:30.999Z</time></trkpt><trkpt lat="42.10757435097664" lon="13.493416179708516"><ele>1026.5</ele><time>2026-05-02T15:09:31.999Z</time></trkpt><trkpt lat="42.10765106613808" lon="13.493273091451945"><ele>1030.0</ele><time>2026-05-02T15:09:32.999Z</time></trkpt><trkpt lat="42.10769280070589" lon="13.493108459906514"><ele>1030.0</ele><time>2026-05-02T15:09:33.999Z</time></trkpt><trkpt lat="42.10771138954448" lon="13.492923103522289"><ele>1030.0</ele><time>2026-05-02T15:09:34.999Z</time></trkpt><trkpt lat="42.10776613692641" lon="13.492750686977079"><ele>1030.0</ele><time>2026-05-02T15:09:35.999Z</time></trkpt><trkpt lat="42.107843373172905" lon="13.492585322814334"><ele>1030.0</ele><time>2026-05-02T15:09:36.999Z</time></trkpt><trkpt lat="42.107929950477256" lon="13.492420773574816"><ele>1033.0</ele><time>2026-05-02T15:09:37.999Z</time></trkpt><trkpt lat="42.107537709346886" lon="13.492190648229741"><ele>1036.0</ele><time>2026-05-02T15:09:38.999Z</time></trkpt><trkpt lat="42.107495161921356" lon="13.492016655691632"><ele>1038.0</ele><time>2026-05-02T15:09:39.999Z</time></trkpt><trkpt lat="42.107448534751654" lon="13.491860503944828"><ele>1040.0</ele><time>2026-05-02T15:09:40.999Z</time></trkpt><trkpt lat="42.10739588633109" lon="13.491731436806177"><ele>1042.0</ele><time>2026-05-02T15:09:41.999Z</time></trkpt><trkpt lat="42.10733343731142" lon="13.491621875559714"><ele>1044.0</ele><time>2026-05-02T15:09:42.999Z</time></trkpt><trkpt lat="42.10727459701871" lon="13.49151727830917"><ele>1046.0</ele><time>2026-05-02T15:09:43.999Z</time></trkpt><trkpt lat="42.10720509643638" lon="13.491414433668611"><ele>1042.6</ele><time>2026-05-02T15:09:44.999Z</time></trkpt><trkpt lat="42.107135480496325" lon="13.491307688358399"><ele>1039.1999999999998</ele><time>2026-05-02T15:09:45.999Z</time></trkpt><trkpt lat="42.10708125706636" lon="13.491189593465043"><ele>1035.8000000000002</ele><time>2026-05-02T15:09:46.999Z</time></trkpt><trkpt lat="42.10705403088008" lon="13.491047784389997"><ele>1032.4</ele><time>2026-05-02T15:09:47.999Z</time></trkpt><trkpt lat="42.10705042511643" lon="13.490887269905677"><ele>1029.0</ele><time>2026-05-02T15:09:48.999Z</time></trkpt><trkpt lat="42.107061635129725" lon="13.490713383618948"><ele>1029.0</ele><time>2026-05-02T15:09:49.999Z</time></trkpt><trkpt lat="42.10708554651907" lon="13.490508828486814"><ele>1029.0</ele><time>2026-05-02T15:09:50.999Z</time></trkpt><trkpt lat="42.107137796964686" lon="13.490304112749666"><ele>1029.0</ele><time>2026-05-02T15:09:51.999Z</time></trkpt><trkpt lat="42.107197928034765" lon="13.49009765806687"><ele>1030.3333333333333</ele><time>2026-05-02T15:09:52.999Z</time></trkpt><trkpt lat="42.10724643358691" lon="13.489885029976914"><ele>1031.6666666666665</ele><time>2026-05-02T15:09:53.999Z</time></trkpt><trkpt lat="42.107283657869964" lon="13.48967394869437"><ele>1033.0</ele><time>2026-05-02T15:09:54.999Z</time></trkpt><trkpt lat="42.10731997606646" lon="13.489467019494608"><ele>1034.5</ele><time>2026-05-02T15:09:55.999Z</time></trkpt><trkpt lat="42.10736264075704" lon="13.489270597274336"><ele>1036.0</ele><time>2026-05-02T15:09:56.999Z</time></trkpt><trkpt lat="42.1074070998842" lon="13.489083874810984"><ele>1037.5</ele><time>2026-05-02T15:09:57.999Z</time></trkpt><trkpt lat="42.10745731654322" lon="13.488911151135456"><ele>1039.0</ele><time>2026-05-02T15:09:58.999Z</time></trkpt><trkpt lat="42.107529058988014" lon="13.488752933313943"><ele>1041.0</ele><time>2026-05-02T15:09:59.999Z</time></trkpt><trkpt lat="42.1076266352662" lon="13.488629326982368"><ele>1043.0</ele><time>2026-05-02T15:10:00.999Z</time></trkpt><trkpt lat="42.10774435659982" lon="13.488534596892269"><ele>1045.0</ele><time>2026-05-02T15:10:01.999Z</time></trkpt><trkpt lat="42.1078774321573" lon="13.488467784064756"><ele>1047.0</ele><time>2026-05-02T15:10:02.999Z</time></trkpt><trkpt lat="42.10801851884331" lon="13.488421393125025"><ele>1047.0</ele><time>2026-05-02T15:10:03.999Z</time></trkpt><trkpt lat="42.10815838099135" lon="13.488386395075507"><ele>1047.0</ele><time>2026-05-02T15:10:04.999Z</time></trkpt><trkpt lat="42.10829916906725" lon="13.488336694548765"><ele>1047.0</ele><time>2026-05-02T15:10:05.999Z</time></trkpt><trkpt lat="42.10843348775586" lon="13.48826786046607"><ele>1047.0</ele><time>2026-05-02T15:10:06.999Z</time></trkpt><trkpt lat="42.108561233613734" lon="13.488173211860149"><ele>1049.5</ele><time>2026-05-02T15:10:07.999Z</time></trkpt><trkpt lat="42.108681785183585" lon="13.488057990928782"><ele>1052.0</ele><time>2026-05-02T15:10:08.999Z</time></trkpt><trkpt lat="42.10879135222908" lon="13.487921510999012"><ele>1054.5</ele><time>2026-05-02T15:10:09.999Z</time></trkpt><trkpt lat="42.108894990156955" lon="13.487773378331712"><ele>1057.0</ele><time>2026-05-02T15:10:10.999Z</time></trkpt><trkpt lat="42.10898967130106" lon="13.487614205332779"><ele>1061.0</ele><time>2026-05-02T15:10:11.999Z</time></trkpt><trkpt lat="42.10908183360841" lon="13.487454155775355"><ele>1065.0</ele><time>2026-05-02T15:10:12.999Z</time></trkpt><trkpt lat="42.109169865316574" lon="13.487271476623626"><ele>1069.0</ele><time>2026-05-02T15:10:13.999Z</time></trkpt><trkpt lat="42.10925288111855" lon="13.487081840531784"><ele>1069.0</ele><time>2026-05-02T15:10:14.999Z</time></trkpt><trkpt lat="42.10933959007448" lon="13.486893608061742"><ele>1069.0</ele><time>2026-05-02T15:10:15.999Z</time></trkpt><trkpt lat="42.109427647551136" lon="13.486707342540372"><ele>1069.0</ele><time>2026-05-02T15:10:16.999Z</time></trkpt><trkpt lat="42.109519594563245" lon="13.486516660665625"><ele>1069.0</ele><time>2026-05-02T15:10:17.999Z</time></trkpt><trkpt lat="42.10961080015889" lon="13.486331911119885"><ele>1069.0</ele><time>2026-05-02T15:10:18.999Z</time></trkpt><trkpt lat="42.109701878830634" lon="13.486151265035286"><ele>1069.0</ele><time>2026-05-02T15:10:19.999Z</time></trkpt><trkpt lat="42.109792718508615" lon="13.48596963609875"><ele>1067.3333333333333</ele><time>2026-05-02T15:10:20.999Z</time></trkpt><trkpt lat="42.1098791062762" lon="13.485790083959502"><ele>1065.6666666666667</ele><time>2026-05-02T15:10:21.999Z</time></trkpt><trkpt lat="42.10995760485733" lon="13.485600451554097"><ele>1064.0</ele><time>2026-05-02T15:10:22.999Z</time></trkpt><trkpt lat="42.11002109834173" lon="13.485397480113658"><ele>1070.3333333333335</ele><time>2026-05-02T15:10:23.999Z</time></trkpt><trkpt lat="42.11005449030654" lon="13.485188273996041"><ele>1076.6666666666667</ele><time>2026-05-02T15:10:24.999Z</time></trkpt><trkpt lat="42.110051104601034" lon="13.484967580156248"><ele>1083.0</ele><time>2026-05-02T15:10:25.999Z</time></trkpt><trkpt lat="42.11002090320141" lon="13.48474741351003"><ele>1085.0</ele><time>2026-05-02T15:10:26.999Z</time></trkpt><trkpt lat="42.109985725230985" lon="13.484535861443065"><ele>1087.0</ele><time>2026-05-02T15:10:28Z</time></trkpt><trkpt lat="42.10995784464282" lon="13.484324236347543"><ele>1089.0</ele><time>2026-05-02T15:10:29Z</time></trkpt><trkpt lat="42.109940358133336" lon="13.48411329001209"><ele>1089.0</ele><time>2026-05-02T15:10:30Z</time></trkpt><trkpt lat="42.109933627880864" lon="13.483906554178981"><ele>1089.0</ele><time>2026-05-02T15:10:31Z</time></trkpt><trkpt lat="42.10994730064174" lon="13.483704954476734"><ele>1089.0</ele><time>2026-05-02T15:10:32Z</time></trkpt><trkpt lat="42.109990595587526" lon="13.483509082225368"><ele>1088.6666666666667</ele><time>2026-05-02T15:10:33Z</time></trkpt><trkpt lat="42.11005951202655" lon="13.483318879994496"><ele>1088.3333333333335</ele><time>2026-05-02T15:10:34Z</time></trkpt><trkpt lat="42.110144338459" lon="13.483135864947409"><ele>1088.0</ele><time>2026-05-02T15:10:35Z</time></trkpt><trkpt lat="42.11024077337965" lon="13.482962576398958"><ele>1085.6666666666667</ele><time>2026-05-02T15:10:36Z</time></trkpt><trkpt lat="42.110347831104086" lon="13.48279296885984"><ele>1083.3333333333333</ele><time>2026-05-02T15:10:37Z</time></trkpt><trkpt lat="42.11046725835963" lon="13.482646950712478"><ele>1081.0</ele><time>2026-05-02T15:10:38Z</time></trkpt><trkpt lat="42.110593741850295" lon="13.482513510808532"><ele>1081.0</ele><time>2026-05-02T15:10:39Z</time></trkpt><trkpt lat="42.11072061261566" lon="13.482382135023437"><ele>1081.0</ele><time>2026-05-02T15:10:40Z</time></trkpt><trkpt lat="42.1108423579576" lon="13.482238356226398"><ele>1081.0</ele><time>2026-05-02T15:10:41Z</time></trkpt><trkpt lat="42.1109482138135" lon="13.48207598754143"><ele>1086.0</ele><time>2026-05-02T15:10:42Z</time></trkpt><trkpt lat="42.11103660560586" lon="13.481896952223975"><ele>1091.0</ele><time>2026-05-02T15:10:43Z</time></trkpt><trkpt lat="42.11110223035771" lon="13.481699785359018"><ele>1096.0</ele><time>2026-05-02T15:10:44Z</time></trkpt><trkpt lat="42.11114747354342" lon="13.481491615561717"><ele>1096.0</ele><time>2026-05-02T15:10:45Z</time></trkpt><trkpt lat="42.11118120419886" lon="13.48127913284215"><ele>1096.0</ele><time>2026-05-02T15:10:46Z</time></trkpt><trkpt lat="42.1112151541327" lon="13.481065773818035"><ele>1096.0</ele><time>2026-05-02T15:10:47Z</time></trkpt><trkpt lat="42.111248588710104" lon="13.480856602252038"><ele>1096.3333333333333</ele><time>2026-05-02T15:10:48Z</time></trkpt><trkpt lat="42.11128117884355" lon="13.480643466044672"><ele>1096.6666666666667</ele><time>2026-05-02T15:10:49Z</time></trkpt><trkpt lat="42.111314740267325" lon="13.480434637917993"><ele>1097.0</ele><time>2026-05-02T15:10:50Z</time></trkpt><trkpt lat="42.11133881323245" lon="13.48021748440693"><ele>1097.6666666666667</ele><time>2026-05-02T15:10:51Z</time></trkpt><trkpt lat="42.11134755214994" lon="13.480005413625618"><ele>1098.3333333333333</ele><time>2026-05-02T15:10:52Z</time></trkpt><trkpt lat="42.11134301635942" lon="13.479793531530131"><ele>1099.0</ele><time>2026-05-02T15:10:53Z</time></trkpt><trkpt lat="42.111308623148524" lon="13.47957815460978"><ele>1102.0</ele><time>2026-05-02T15:10:54Z</time></trkpt><trkpt lat="42.111254196242044" lon="13.479367702914375"><ele>1105.0</ele><time>2026-05-02T15:10:55Z</time></trkpt><trkpt lat="42.11119075620136" lon="13.47916833196963"><ele>1108.0</ele><time>2026-05-02T15:10:56Z</time></trkpt><trkpt lat="42.111136189513864" lon="13.47896659237715"><ele>1109.0</ele><time>2026-05-02T15:10:57Z</time></trkpt><trkpt lat="42.11108824665327" lon="13.478762275301401"><ele>1110.0</ele><time>2026-05-02T15:10:58Z</time></trkpt><trkpt lat="42.11103402502678" lon="13.478559942810806"><ele>1111.0</ele><time>2026-05-02T15:10:59Z</time></trkpt><trkpt lat="42.11099060163082" lon="13.478357871302327"><ele>1111.0</ele><time>2026-05-02T15:11:00Z</time></trkpt><trkpt lat="42.110971586722656" lon="13.47816217606061"><ele>1111.0</ele><time>2026-05-02T15:11:01Z</time></trkpt><trkpt lat="42.11096417314008" lon="13.477961358803414"><ele>1111.0</ele><time>2026-05-02T15:11:02Z</time></trkpt><trkpt lat="42.110955772869765" lon="13.47775262920739"><ele>1110.6666666666665</ele><time>2026-05-02T15:11:03Z</time></trkpt><trkpt lat="42.11093308099538" lon="13.477541860323534"><ele>1110.3333333333333</ele><time>2026-05-02T15:11:04Z</time></trkpt><trkpt lat="42.110895003522856" lon="13.477325960527246"><ele>1110.0</ele><time>2026-05-02T15:11:05Z</time></trkpt><trkpt lat="42.110834074151484" lon="13.477127689768317"><ele>1112.3333333333333</ele><time>2026-05-02T15:11:06Z</time></trkpt><trkpt lat="42.11075423557966" lon="13.476950283835695"><ele>1114.6666666666665</ele><time>2026-05-02T15:11:07Z</time></trkpt><trkpt lat="42.11065858983354" lon="13.47679311345282"><ele>1117.0</ele><time>2026-05-02T15:11:08Z</time></trkpt><trkpt lat="42.110565353947614" lon="13.476627228041345"><ele>1112.0</ele><time>2026-05-02T15:11:09Z</time></trkpt><trkpt lat="42.11047186036044" lon="13.476465591750094"><ele>1107.0</ele><time>2026-05-02T15:11:10Z</time></trkpt><trkpt lat="42.11038460649728" lon="13.476301256352176"><ele>1102.0</ele><time>2026-05-02T15:11:11Z</time></trkpt><trkpt lat="42.11030725466403" lon="13.476127563489696"><ele>1102.0</ele><time>2026-05-02T15:11:12Z</time></trkpt><trkpt lat="42.11025530723056" lon="13.475929433473869"><ele>1102.0</ele><time>2026-05-02T15:11:13Z</time></trkpt><trkpt lat="42.110210675276605" lon="13.475727003049174"><ele>1102.0</ele><time>2026-05-02T15:11:14Z</time></trkpt><trkpt lat="42.110173674069856" lon="13.475513785005843"><ele>1101.6666666666665</ele><time>2026-05-02T15:11:15Z</time></trkpt><trkpt lat="42.110142185997034" lon="13.475293605166254"><ele>1101.3333333333333</ele><time>2026-05-02T15:11:16Z</time></trkpt><trkpt lat="42.11010472111132" lon="13.475070820327252"><ele>1101.0</ele><time>2026-05-02T15:11:17Z</time></trkpt><trkpt lat="42.110017486251586" lon="13.47484068226741"><ele>1102.0</ele><time>2026-05-02T15:11:18Z</time></trkpt><trkpt lat="42.10990128734362" lon="13.474608682711"><ele>1103.0</ele><time>2026-05-02T15:11:19Z</time></trkpt><trkpt lat="42.10991310782187" lon="13.474444418541728"><ele>1104.0</ele><time>2026-05-02T15:11:20Z</time></trkpt><trkpt lat="42.109823770280954" lon="13.474248098539247"><ele>1100.6666666666667</ele><time>2026-05-02T15:11:21Z</time></trkpt><trkpt lat="42.10973454680226" lon="13.474050246897118"><ele>1097.3333333333335</ele><time>2026-05-02T15:11:22Z</time></trkpt><trkpt lat="42.10964942832212" lon="13.473851292253913"><ele>1094.0</ele><time>2026-05-02T15:11:23Z</time></trkpt><trkpt lat="42.10956030298307" lon="13.473648876226525"><ele>1094.0</ele><time>2026-05-02T15:11:24Z</time></trkpt><trkpt lat="42.109471305574424" lon="13.473445107357854"><ele>1094.0</ele><time>2026-05-02T15:11:25Z</time></trkpt><trkpt lat="42.10938747646567" lon="13.473245399760938"><ele>1094.0</ele><time>2026-05-02T15:11:26Z</time></trkpt><trkpt lat="42.10930428717966" lon="13.47304827998827"><ele>1095.0</ele><time>2026-05-02T15:11:27Z</time></trkpt><trkpt lat="42.109225946800116" lon="13.472844576671847"><ele>1096.0</ele><time>2026-05-02T15:11:28Z</time></trkpt><trkpt lat="42.10915730105222" lon="13.472637755199598"><ele>1097.0</ele><time>2026-05-02T15:11:29Z</time></trkpt><trkpt lat="42.109102196827365" lon="13.472423737556808"><ele>1094.6666666666667</ele><time>2026-05-02T15:11:29.999Z</time></trkpt><trkpt lat="42.109055870133645" lon="13.472206073357055"><ele>1092.3333333333333</ele><time>2026-05-02T15:11:30.999Z</time></trkpt><trkpt lat="42.10900843210538" lon="13.471991965761392"><ele>1090.0</ele><time>2026-05-02T15:11:31.999Z</time></trkpt><trkpt lat="42.10895804306106" lon="13.471778949212233"><ele>1090.0</ele><time>2026-05-02T15:11:32.999Z</time></trkpt><trkpt lat="42.10890200376973" lon="13.471560324554783"><ele>1090.0</ele><time>2026-05-02T15:11:33.999Z</time></trkpt><trkpt lat="42.108851391562325" lon="13.471339733437219"><ele>1090.0</ele><time>2026-05-02T15:11:34.999Z</time></trkpt><trkpt lat="42.108821817045744" lon="13.47112034236639"><ele>1090.3333333333333</ele><time>2026-05-02T15:11:35.999Z</time></trkpt><trkpt lat="42.10880823966924" lon="13.470896094360485"><ele>1090.6666666666667</ele><time>2026-05-02T15:11:36.999Z</time></trkpt><trkpt lat="42.10881362283068" lon="13.470670898553527"><ele>1091.0</ele><time>2026-05-02T15:11:37.999Z</time></trkpt><trkpt lat="42.1088272142444" lon="13.470451408924388"><ele>1089.6666666666667</ele><time>2026-05-02T15:11:38.999Z</time></trkpt><trkpt lat="42.10883478264843" lon="13.470232477826654"><ele>1088.3333333333333</ele><time>2026-05-02T15:11:39.999Z</time></trkpt><trkpt lat="42.108830916767744" lon="13.470012711175585"><ele>1087.0</ele><time>2026-05-02T15:11:40.999Z</time></trkpt><trkpt lat="42.10880233542582" lon="13.469790136661528"><ele>1086.6666666666665</ele><time>2026-05-02T15:11:41.999Z</time></trkpt><trkpt lat="42.10874667290064" lon="13.469568887085781"><ele>1086.3333333333333</ele><time>2026-05-02T15:11:42.999Z</time></trkpt><trkpt lat="42.10867120694538" lon="13.469352664244822"><ele>1086.0</ele><time>2026-05-02T15:11:43.999Z</time></trkpt><trkpt lat="42.10858786628223" lon="13.469142371468243"><ele>1086.0</ele><time>2026-05-02T15:11:44.999Z</time></trkpt><trkpt lat="42.108502419925884" lon="13.468919032354652"><ele>1086.0</ele><time>2026-05-02T15:11:45.999Z</time></trkpt><trkpt lat="42.10842636238461" lon="13.468698868162669"><ele>1086.0</ele><time>2026-05-02T15:11:46.999Z</time></trkpt><trkpt lat="42.10834990088679" lon="13.46848208928508"><ele>1086.6666666666667</ele><time>2026-05-02T15:11:47.999Z</time></trkpt><trkpt lat="42.108270667140594" lon="13.468267404135814"><ele>1087.3333333333335</ele><time>2026-05-02T15:11:48.999Z</time></trkpt><trkpt lat="42.10818732266028" lon="13.468047263471819"><ele>1088.0</ele><time>2026-05-02T15:11:49.999Z</time></trkpt><trkpt lat="42.108111774654404" lon="13.467835014456288"><ele>1088.0</ele><time>2026-05-02T15:11:50.999Z</time></trkpt><trkpt lat="42.108029267372714" lon="13.467616623194575"><ele>1088.0</ele><time>2026-05-02T15:11:51.999Z</time></trkpt><trkpt lat="42.10795253106455" lon="13.467399815053653"><ele>1088.0</ele><time>2026-05-02T15:11:52.999Z</time></trkpt><trkpt lat="42.107877757107595" lon="13.467185967121146"><ele>1089.6666666666667</ele><time>2026-05-02T15:11:53.999Z</time></trkpt><trkpt lat="42.10780061327378" lon="13.46696898630261"><ele>1091.3333333333333</ele><time>2026-05-02T15:11:54.999Z</time></trkpt><trkpt lat="42.10772515990106" lon="13.466757232050327"><ele>1093.0</ele><time>2026-05-02T15:11:55.999Z</time></trkpt><trkpt lat="42.10765343949703" lon="13.46654860484248"><ele>1093.0</ele><time>2026-05-02T15:11:56.999Z</time></trkpt><trkpt lat="42.107577422410266" lon="13.466337794361925"><ele>1093.0</ele><time>2026-05-02T15:11:57.999Z</time></trkpt><trkpt lat="42.10750364413496" lon="13.466135913663988"><ele>1093.0</ele><time>2026-05-02T15:11:58.999Z</time></trkpt><trkpt lat="42.10744157682087" lon="13.465931815307412"><ele>1095.25</ele><time>2026-05-02T15:11:59.999Z</time></trkpt><trkpt lat="42.10739401292922" lon="13.465715924427174"><ele>1097.5</ele><time>2026-05-02T15:12:00.999Z</time></trkpt><trkpt lat="42.10738211019692" lon="13.46551718462394"><ele>1099.75</ele><time>2026-05-02T15:12:01.999Z</time></trkpt><trkpt lat="42.107433442392356" lon="13.465372638858526"><ele>1102.0</ele><time>2026-05-02T15:12:02.999Z</time></trkpt><trkpt lat="42.10751303985473" lon="13.465226956881963"><ele>1103.0</ele><time>2026-05-02T15:12:03.999Z</time></trkpt><trkpt lat="42.107602551715914" lon="13.465085994817635"><ele>1104.0</ele><time>2026-05-02T15:12:04.999Z</time></trkpt><trkpt lat="42.10752920539865" lon="13.464659954714342"><ele>1102.3333333333333</ele><time>2026-05-02T15:12:05.999Z</time></trkpt><trkpt lat="42.10762886035327" lon="13.464474736972601"><ele>1100.6666666666665</ele><time>2026-05-02T15:12:06.999Z</time></trkpt><trkpt lat="42.10773897782712" lon="13.464297015049866"><ele>1099.0</ele><time>2026-05-02T15:12:07.999Z</time></trkpt><trkpt lat="42.10784718164276" lon="13.464112267232254"><ele>1099.0</ele><time>2026-05-02T15:12:08.999Z</time></trkpt><trkpt lat="42.107953210402364" lon="13.463926763944295"><ele>1099.0</ele><time>2026-05-02T15:12:09.999Z</time></trkpt><trkpt lat="42.10805369885961" lon="13.463735553997415"><ele>1099.0</ele><time>2026-05-02T15:12:10.999Z</time></trkpt><trkpt lat="42.108155992537526" lon="13.463548010150523"><ele>1101.6666666666665</ele><time>2026-05-02T15:12:11.999Z</time></trkpt><trkpt lat="42.10825819273783" lon="13.463359784853187"><ele>1104.3333333333333</ele><time>2026-05-02T15:12:12.999Z</time></trkpt><trkpt lat="42.108354206557756" lon="13.463167195881388"><ele>1107.0</ele><time>2026-05-02T15:12:13.999Z</time></trkpt><trkpt lat="42.10844060026499" lon="13.462979983957787"><ele>1108.0</ele><time>2026-05-02T15:12:14.999Z</time></trkpt><trkpt lat="42.10851527627581" lon="13.462802462497296"><ele>1109.0</ele><time>2026-05-02T15:12:15.999Z</time></trkpt><trkpt lat="42.10857388379897" lon="13.46262183280711"><ele>1110.0</ele><time>2026-05-02T15:12:16.999Z</time></trkpt><trkpt lat="42.10862135154412" lon="13.462438212860949"><ele>1111.0</ele><time>2026-05-02T15:12:17.999Z</time></trkpt><trkpt lat="42.10866194047346" lon="13.462252153633194"><ele>1111.2</ele><time>2026-05-02T15:12:18.999Z</time></trkpt><trkpt lat="42.10869711028935" lon="13.46209483956318"><ele>1111.3999999999999</ele><time>2026-05-02T15:12:19.999Z</time></trkpt><trkpt lat="42.1087304020337" lon="13.461968814084447"><ele>1111.6</ele><time>2026-05-02T15:12:20.999Z</time></trkpt><trkpt lat="42.10875268148596" lon="13.461875756414768"><ele>1111.8</ele><time>2026-05-02T15:12:21.999Z</time></trkpt><trkpt lat="42.108772921494555" lon="13.46173682517374"><ele>1112.0</ele><time>2026-05-02T15:12:23.999Z</time></trkpt><trkpt lat="42.10875457404633" lon="13.461614382415988"><ele>1112.0</ele><time>2026-05-02T15:12:25.999Z</time></trkpt><trkpt lat="42.10872311048903" lon="13.461502943484891"><ele>1112.0</ele><time>2026-05-02T15:12:27.999Z</time></trkpt><trkpt lat="42.10870292841517" lon="13.461371628195813"><ele>1112.0</ele><time>2026-05-02T15:12:29.999Z</time></trkpt><trkpt lat="42.108670971321814" lon="13.461227787752279"><ele>1112.0</ele><time>2026-05-02T15:12:31.999Z</time></trkpt><trkpt lat="42.108646415168465" lon="13.461117033608907"><ele>1112.0</ele><time>2026-05-02T15:12:34Z</time></trkpt><trkpt lat="42.1086108112778" lon="13.460997687383674"><ele>1110.6</ele><time>2026-05-02T15:12:36Z</time></trkpt><trkpt lat="42.10858093958875" lon="13.460858250110359"><ele>1109.2</ele><time>2026-05-02T15:12:38Z</time></trkpt><trkpt lat="42.10856767544789" lon="13.460713562403011"><ele>1107.8</ele><time>2026-05-02T15:12:40Z</time></trkpt><trkpt lat="42.10854781922688" lon="13.460579009834401"><ele>1106.4</ele><time>2026-05-02T15:12:42Z</time></trkpt><trkpt lat="42.10851293733757" lon="13.460440264448378"><ele>1105.0</ele><time>2026-05-02T15:12:44Z</time></trkpt><trkpt lat="42.10848263013889" lon="13.460320223862407"><ele>1102.6</ele><time>2026-05-02T15:12:46Z</time></trkpt><trkpt lat="42.10842874828835" lon="13.460209721013337"><ele>1100.2</ele><time>2026-05-02T15:12:48Z</time></trkpt><trkpt lat="42.108418188431045" lon="13.460078269438613"><ele>1097.8</ele><time>2026-05-02T15:12:50Z</time></trkpt><trkpt lat="42.10849064879478" lon="13.459972752979349"><ele>1095.4</ele><time>2026-05-02T15:12:52Z</time></trkpt><trkpt lat="42.10856370946785" lon="13.459885969060203"><ele>1093.0</ele><time>2026-05-02T15:12:54Z</time></trkpt><trkpt lat="42.1085880159447" lon="13.459767517351144"><ele>1093.0</ele><time>2026-05-02T15:12:56Z</time></trkpt><trkpt lat="42.108577347365" lon="13.45964789969484"><ele>1093.0</ele><time>2026-05-02T15:12:58Z</time></trkpt><trkpt lat="42.10854892046721" lon="13.45953667527294"><ele>1093.0</ele><time>2026-05-02T15:13:00Z</time></trkpt><trkpt lat="42.1085328574419" lon="13.459433448288689"><ele>1093.0</ele><time>2026-05-02T15:13:02Z</time></trkpt><trkpt lat="42.10852797320982" lon="13.459333171147588"><ele>1093.0</ele><time>2026-05-02T15:13:04Z</time></trkpt><trkpt lat="42.108513672010965" lon="13.4592182057718"><ele>1093.0</ele><time>2026-05-02T15:13:06Z</time></trkpt><trkpt lat="42.108511618162055" lon="13.45910693202618"><ele>1091.1666666666665</ele><time>2026-05-02T15:13:08Z</time></trkpt><trkpt lat="42.108506883008616" lon="13.45899655696153"><ele>1089.3333333333333</ele><time>2026-05-02T15:13:10Z</time></trkpt><trkpt lat="42.108501052653516" lon="13.458899201885245"><ele>1087.5</ele><time>2026-05-02T15:13:12Z</time></trkpt><trkpt lat="42.10850483470092" lon="13.458805695071014"><ele>1085.6666666666667</ele><time>2026-05-02T15:13:14Z</time></trkpt><trkpt lat="42.10852273612148" lon="13.45871409508916"><ele>1083.8333333333335</ele><time>2026-05-02T15:13:16Z</time></trkpt><trkpt lat="42.10854267771538" lon="13.458620643358055"><ele>1082.0</ele><time>2026-05-02T15:13:18Z</time></trkpt><trkpt lat="42.10854051350411" lon="13.458494906976163"><ele>1080.5</ele><time>2026-05-02T15:13:21Z</time></trkpt><trkpt lat="42.10855412555556" lon="13.458376530728033"><ele>1079.0</ele><time>2026-05-02T15:13:24Z</time></trkpt><trkpt lat="42.10856149752827" lon="13.458272787170667"><ele>1077.5</ele><time>2026-05-02T15:13:29Z</time></trkpt><trkpt lat="42.1085570055856" lon="13.458146334889761"><ele>1076.0</ele><time>2026-05-02T15:13:32Z</time></trkpt><trkpt lat="42.10855893790432" lon="13.458043895336367"><ele>1074.5</ele><time>2026-05-02T15:13:34Z</time></trkpt><trkpt lat="42.1085679687947" lon="13.457925162473574"><ele>1073.0</ele><time>2026-05-02T15:13:36Z</time></trkpt><trkpt lat="42.108596272011376" lon="13.457789977986543"><ele>1071.2</ele><time>2026-05-02T15:13:38Z</time></trkpt><trkpt lat="42.10863396161953" lon="13.457664948469843"><ele>1069.4</ele><time>2026-05-02T15:13:40Z</time></trkpt><trkpt lat="42.10866009498543" lon="13.457528685368834"><ele>1067.6000000000001</ele><time>2026-05-02T15:13:42Z</time></trkpt><trkpt lat="42.10864679292172" lon="13.457361395924197"><ele>1065.8</ele><time>2026-05-02T15:13:44Z</time></trkpt><trkpt lat="42.10864490724361" lon="13.457211180555953"><ele>1064.0</ele><time>2026-05-02T15:13:46Z</time></trkpt><trkpt lat="42.108646485435195" lon="13.457078959585326"><ele>1062.0</ele><time>2026-05-02T15:13:48Z</time></trkpt><trkpt lat="42.10864700900741" lon="13.45695846099878"><ele>1060.0</ele><time>2026-05-02T15:13:50Z</time></trkpt><trkpt lat="42.10865198694684" lon="13.456832733168895"><ele>1058.0</ele><time>2026-05-02T15:13:52Z</time></trkpt><trkpt lat="42.108662887166965" lon="13.456684595061832"><ele>1056.0</ele><time>2026-05-02T15:13:54Z</time></trkpt><trkpt lat="42.10865785653601" lon="13.456525987756685"><ele>1054.0</ele><time>2026-05-02T15:13:55.999Z</time></trkpt><trkpt lat="42.10864782138771" lon="13.456422404228457"><ele>1054.0</ele><time>2026-05-02T15:13:57.999Z</time></trkpt><trkpt lat="42.10864136756531" lon="13.45632146613138"><ele>1054.0</ele><time>2026-05-02T15:13:59.999Z</time></trkpt><trkpt lat="42.10863560045567" lon="13.456227554340606"><ele>1054.0</ele><time>2026-05-02T15:14:01.999Z</time></trkpt><trkpt lat="42.10862009926802" lon="13.456139973240242"><ele>1054.0</ele><time>2026-05-02T15:14:03.999Z</time></trkpt><trkpt lat="42.10859619409306" lon="13.456045278413757"><ele>1054.0</ele><time>2026-05-02T15:14:05.999Z</time></trkpt><trkpt lat="42.10856825685557" lon="13.455948474515674"><ele>1054.0</ele><time>2026-05-02T15:14:07.999Z</time></trkpt><trkpt lat="42.108523743404035" lon="13.455837845476962"><ele>1052.8333333333333</ele><time>2026-05-02T15:14:09.999Z</time></trkpt><trkpt lat="42.10849135230821" lon="13.455729192702083"><ele>1051.6666666666665</ele><time>2026-05-02T15:14:11.999Z</time></trkpt><trkpt lat="42.108474510845895" lon="13.455625280765345"><ele>1050.5</ele><time>2026-05-02T15:14:13.999Z</time></trkpt><trkpt lat="42.10846714212933" lon="13.455506461369735"><ele>1049.3333333333333</ele><time>2026-05-02T15:14:15.999Z</time></trkpt><trkpt lat="42.10844879604985" lon="13.455376573016759"><ele>1048.1666666666667</ele><time>2026-05-02T15:14:17.999Z</time></trkpt><trkpt lat="42.1084301874173" lon="13.455278371121732"><ele>1047.0</ele><time>2026-05-02T15:14:19.999Z</time></trkpt><trkpt lat="42.10840059226114" lon="13.455180206913104"><ele>1045.8</ele><time>2026-05-02T15:14:21.999Z</time></trkpt><trkpt lat="42.10839477874301" lon="13.455059120404076"><ele>1044.6</ele><time>2026-05-02T15:14:23.999Z</time></trkpt><trkpt lat="42.108370842191704" lon="13.454922009256544"><ele>1043.3999999999999</ele><time>2026-05-02T15:14:25.999Z</time></trkpt><trkpt lat="42.10833852869617" lon="13.454803492739895"><ele>1042.2</ele><time>2026-05-02T15:14:27.999Z</time></trkpt><trkpt lat="42.108313735566206" lon="13.454674073824958"><ele>1041.0</ele><time>2026-05-02T15:14:29.999Z</time></trkpt><trkpt lat="42.10830648360103" lon="13.454579904671652"><ele>1040.2857142857142</ele><time>2026-05-02T15:14:30.999Z</time></trkpt><trkpt lat="42.10830069782355" lon="13.454482136420815"><ele>1039.5714285714287</ele><time>2026-05-02T15:14:31.999Z</time></trkpt><trkpt lat="42.10829000245645" lon="13.454386783666662"><ele>1038.857142857143</ele><time>2026-05-02T15:14:32.999Z</time></trkpt><trkpt lat="42.108271142557" lon="13.454284362155864"><ele>1038.142857142857</ele><time>2026-05-02T15:14:33.999Z</time></trkpt><trkpt lat="42.10825639947802" lon="13.454184518762165"><ele>1037.4285714285716</ele><time>2026-05-02T15:14:34.999Z</time></trkpt><trkpt lat="42.10825109822685" lon="13.454087449557264"><ele>1036.7142857142858</ele><time>2026-05-02T15:14:35.999Z</time></trkpt><trkpt lat="42.10824982151881" lon="13.453992543938538"><ele>1036.0</ele><time>2026-05-02T15:14:36.999Z</time></trkpt><trkpt lat="42.10825126738677" lon="13.453901301132328"><ele>1033.3333333333333</ele><time>2026-05-02T15:14:37.999Z</time></trkpt><trkpt lat="42.1082364262653" lon="13.45373171949964"><ele>1030.6666666666665</ele><time>2026-05-02T15:14:40.001Z</time></trkpt><trkpt lat="42.10822730946592" lon="13.453627930520575"><ele>1028.0</ele><time>2026-05-02T15:14:41.001Z</time></trkpt><trkpt lat="42.10821394438243" lon="13.453534519965242"><ele>1025.3333333333333</ele><time>2026-05-02T15:14:42.001Z</time></trkpt><trkpt lat="42.10819964347739" lon="13.453438812704805"><ele>1022.6666666666666</ele><time>2026-05-02T15:14:43.001Z</time></trkpt><trkpt lat="42.1081828129407" lon="13.453353218562132"><ele>1020.0</ele><time>2026-05-02T15:14:44.001Z</time></trkpt><trkpt lat="42.10815358569441" lon="13.453266752473777"><ele>1020.0</ele><time>2026-05-02T15:14:45.001Z</time></trkpt><trkpt lat="42.10811853467785" lon="13.4531786185399"><ele>1020.0</ele><time>2026-05-02T15:14:46.001Z</time></trkpt><trkpt lat="42.108085551612916" lon="13.453098971368416"><ele>1020.0</ele><time>2026-05-02T15:14:47.001Z</time></trkpt><trkpt lat="42.108051607721755" lon="13.452946288607606"><ele>1020.0</ele><time>2026-05-02T15:14:49.001Z</time></trkpt><trkpt lat="42.10803749042534" lon="13.452787813974702"><ele>1020.0</ele><time>2026-05-02T15:14:51Z</time></trkpt><trkpt lat="42.10802876812198" lon="13.45262491125629"><ele>1019.0</ele><time>2026-05-02T15:14:53Z</time></trkpt><trkpt lat="42.108026103081045" lon="13.45253158148421"><ele>1018.0</ele><time>2026-05-02T15:14:54Z</time></trkpt><trkpt lat="42.10803135024969" lon="13.452432114091824"><ele>1017.0</ele><time>2026-05-02T15:14:55Z</time></trkpt><trkpt lat="42.108034478997325" lon="13.452346267683735"><ele>1016.0</ele><time>2026-05-02T15:14:56Z</time></trkpt><trkpt lat="42.10803359125318" lon="13.452245532956729"><ele>1015.0</ele><time>2026-05-02T15:14:57Z</time></trkpt><trkpt lat="42.10803456778729" lon="13.452153701812717"><ele>1014.0</ele><time>2026-05-02T15:14:58Z</time></trkpt><trkpt lat="42.10803378654472" lon="13.451996493062326"><ele>1014.0</ele><time>2026-05-02T15:15:00Z</time></trkpt><trkpt lat="42.10801569409021" lon="13.45191087750572"><ele>1014.0</ele><time>2026-05-02T15:15:01Z</time></trkpt><trkpt lat="42.107984064577195" lon="13.451816192261727"><ele>1014.0</ele><time>2026-05-02T15:15:02Z</time></trkpt><trkpt lat="42.10795575106234" lon="13.451720401370418"><ele>1014.0</ele><time>2026-05-02T15:15:03Z</time></trkpt><trkpt lat="42.10793908644883" lon="13.451574550362777"><ele>1014.0</ele><time>2026-05-02T15:15:05Z</time></trkpt><trkpt lat="42.10794277414022" lon="13.451462930347152"><ele>1014.0</ele><time>2026-05-02T15:15:07Z</time></trkpt><trkpt lat="42.10790544912548" lon="13.451346480941885"><ele>1013.8571428571429</ele><time>2026-05-02T15:15:09Z</time></trkpt><trkpt lat="42.10786818301212" lon="13.4512716525694"><ele>1013.7142857142858</ele><time>2026-05-02T15:15:10Z</time></trkpt><trkpt lat="42.10784177936439" lon="13.451191159497613"><ele>1013.5714285714287</ele><time>2026-05-02T15:15:11Z</time></trkpt><trkpt lat="42.107814322789196" lon="13.451104291012943"><ele>1013.4285714285714</ele><time>2026-05-02T15:15:12Z</time></trkpt><trkpt lat="42.107780774423986" lon="13.451009814776647"><ele>1013.2857142857144</ele><time>2026-05-02T15:15:13Z</time></trkpt><trkpt lat="42.10774807657598" lon="13.450913452048455"><ele>1013.1428571428572</ele><time>2026-05-02T15:15:14Z</time></trkpt><trkpt lat="42.1077154215166" lon="13.450823582850687"><ele>1013.0</ele><time>2026-05-02T15:15:15Z</time></trkpt><trkpt lat="42.10767618555145" lon="13.4507428853327"><ele>1013.0000000000001</ele><time>2026-05-02T15:15:16Z</time></trkpt><trkpt lat="42.10763837551011" lon="13.450667608413383"><ele>1013.0</ele><time>2026-05-02T15:15:17Z</time></trkpt><trkpt lat="42.107605434325485" lon="13.450593282412806"><ele>1013.0</ele><time>2026-05-02T15:15:18Z</time></trkpt><trkpt lat="42.10754021544519" lon="13.450453516506002"><ele>1013.0</ele><time>2026-05-02T15:15:20Z</time></trkpt><trkpt lat="42.10750673146306" lon="13.450376561683658"><ele>1013.0000000000001</ele><time>2026-05-02T15:15:21Z</time></trkpt><trkpt lat="42.10747079906377" lon="13.450299761364263"><ele>1013.0</ele><time>2026-05-02T15:15:22Z</time></trkpt><trkpt lat="42.10743491635606" lon="13.45022974441327"><ele>1011.6666666666667</ele><time>2026-05-02T15:15:23Z</time></trkpt><trkpt lat="42.10736452495958" lon="13.450092966369336"><ele>1010.3333333333334</ele><time>2026-05-02T15:15:25Z</time></trkpt><trkpt lat="42.10733129796718" lon="13.450020514601931"><ele>1009.0</ele><time>2026-05-02T15:15:26Z</time></trkpt><trkpt lat="42.10726582271143" lon="13.449886703193403"><ele>1007.6666666666667</ele><time>2026-05-02T15:15:28Z</time></trkpt><trkpt lat="42.10722850698232" lon="13.449810393607796"><ele>1006.3333333333334</ele><time>2026-05-02T15:15:29Z</time></trkpt><trkpt lat="42.10718605163863" lon="13.449728679142178"><ele>1005.0</ele><time>2026-05-02T15:15:30Z</time></trkpt><trkpt lat="42.10715010438244" lon="13.449656508929571"><ele>1004.25</ele><time>2026-05-02T15:15:31Z</time></trkpt><trkpt lat="42.1070880667797" lon="13.44951874499458"><ele>1003.5</ele><time>2026-05-02T15:15:33Z</time></trkpt><trkpt lat="42.10701808143944" lon="13.44940566665195"><ele>1002.75</ele><time>2026-05-02T15:15:35Z</time></trkpt><trkpt lat="42.10695490896117" lon="13.449270471905145"><ele>1002.0</ele><time>2026-05-02T15:15:37Z</time></trkpt><trkpt lat="42.10690155023896" lon="13.449124585277504"><ele>1002.0</ele><time>2026-05-02T15:15:39Z</time></trkpt><trkpt lat="42.1068507380998" lon="13.449002268017365"><ele>1002.0</ele><time>2026-05-02T15:15:41Z</time></trkpt><trkpt lat="42.106784911811424" lon="13.448844853831805"><ele>1002.0</ele><time>2026-05-02T15:15:43Z</time></trkpt><trkpt lat="42.10673683991999" lon="13.44870879904705"><ele>1002.0</ele><time>2026-05-02T15:15:45Z</time></trkpt><trkpt lat="42.106707748437344" lon="13.44863322337347"><ele>1002.0</ele><time>2026-05-02T15:15:46Z</time></trkpt><trkpt lat="42.106679883583055" lon="13.448552197015093"><ele>1001.6</ele><time>2026-05-02T15:15:47Z</time></trkpt><trkpt lat="42.10662664558372" lon="13.448408448129133"><ele>1001.2</ele><time>2026-05-02T15:15:49Z</time></trkpt><trkpt lat="42.10656860599704" lon="13.448264088301885"><ele>1000.8</ele><time>2026-05-02T15:15:51Z</time></trkpt><trkpt lat="42.10653770057038" lon="13.448186783732156"><ele>1000.4</ele><time>2026-05-02T15:15:52Z</time></trkpt><trkpt lat="42.1064579365722" lon="13.44808657400782"><ele>1000.0</ele><time>2026-05-02T15:15:54Z</time></trkpt><trkpt lat="42.10639536278233" lon="13.448058022945903"><ele>998.8</ele><time>2026-05-02T15:15:55Z</time></trkpt><trkpt lat="42.106321336560846" lon="13.448043421273098"><ele>997.6</ele><time>2026-05-02T15:15:56Z</time></trkpt><trkpt lat="42.10623863601581" lon="13.448031724703943"><ele>996.4000000000001</ele><time>2026-05-02T15:15:57Z</time></trkpt><trkpt lat="42.10617038075071" lon="13.44801986091544"><ele>995.2</ele><time>2026-05-02T15:15:58Z</time></trkpt><trkpt lat="42.10605274329113" lon="13.44796491793151"><ele>994.0</ele><time>2026-05-02T15:16:00Z</time></trkpt><trkpt lat="42.10595616738731" lon="13.44788776976105"><ele>993.6666666666666</ele><time>2026-05-02T15:16:02Z</time></trkpt><trkpt lat="42.10589468895111" lon="13.447743572832932"><ele>993.3333333333333</ele><time>2026-05-02T15:16:04Z</time></trkpt><trkpt lat="42.105864683340315" lon="13.447649814363144"><ele>993.0</ele><time>2026-05-02T15:16:05Z</time></trkpt><trkpt lat="42.10583497716116" lon="13.44755493144018"><ele>992.6666666666667</ele><time>2026-05-02T15:16:06Z</time></trkpt><trkpt lat="42.10580753906674" lon="13.44746333308988"><ele>992.3333333333334</ele><time>2026-05-02T15:16:07Z</time></trkpt><trkpt lat="42.1057797095783" lon="13.447355772932136"><ele>992.0</ele><time>2026-05-02T15:16:08Z</time></trkpt><trkpt lat="42.10575759260664" lon="13.44724872091573"><ele>991.1666666666667</ele><time>2026-05-02T15:16:09Z</time></trkpt><trkpt lat="42.10573923625724" lon="13.44715426105675"><ele>990.3333333333334</ele><time>2026-05-02T15:16:09.999Z</time></trkpt><trkpt lat="42.10572790735701" lon="13.447065955358244"><ele>989.5</ele><time>2026-05-02T15:16:10.999Z</time></trkpt><trkpt lat="42.10571178448681" lon="13.446922871560835"><ele>988.6666666666667</ele><time>2026-05-02T15:16:12.999Z</time></trkpt><trkpt lat="42.10572740082335" lon="13.446787103400778"><ele>987.8333333333334</ele><time>2026-05-02T15:16:14.999Z</time></trkpt><trkpt lat="42.105768138023606" lon="13.446679032695124"><ele>987.0</ele><time>2026-05-02T15:16:16.999Z</time></trkpt><trkpt lat="42.105807246488006" lon="13.44658848465006"><ele>986.8</ele><time>2026-05-02T15:16:18.999Z</time></trkpt><trkpt lat="42.105834679544266" lon="13.446497544907542"><ele>986.6</ele><time>2026-05-02T15:16:20.999Z</time></trkpt><trkpt lat="42.10582611338229" lon="13.44636382160471"><ele>986.3999999999999</ele><time>2026-05-02T15:16:22.999Z</time></trkpt><trkpt lat="42.105766676853435" lon="13.44622531572785"><ele>986.1999999999999</ele><time>2026-05-02T15:16:24.999Z</time></trkpt><trkpt lat="42.105704502353326" lon="13.446117658756277"><ele>986.0</ele><time>2026-05-02T15:16:26.999Z</time></trkpt><trkpt lat="42.105658539922864" lon="13.446013151768383"><ele>984.1999999999999</ele><time>2026-05-02T15:16:28.999Z</time></trkpt><trkpt lat="42.10561247659907" lon="13.445908637341969"><ele>982.3999999999999</ele><time>2026-05-02T15:16:30.999Z</time></trkpt><trkpt lat="42.105548116962424" lon="13.445779475842013"><ele>980.6</ele><time>2026-05-02T15:16:32.999Z</time></trkpt><trkpt lat="42.105515431844154" lon="13.445662996876191"><ele>978.8</ele><time>2026-05-02T15:16:34.999Z</time></trkpt><trkpt lat="42.10546607345122" lon="13.445560890103737"><ele>977.0</ele><time>2026-05-02T15:16:36.999Z</time></trkpt><trkpt lat="42.10540497349808" lon="13.445425283418912"><ele>977.0000000000001</ele><time>2026-05-02T15:16:38.999Z</time></trkpt><trkpt lat="42.1053768917706" lon="13.445338966916692"><ele>977.0</ele><time>2026-05-02T15:16:39.999Z</time></trkpt><trkpt lat="42.10534901599778" lon="13.445245067396234"><ele>977.0</ele><time>2026-05-02T15:16:40.999Z</time></trkpt><trkpt lat="42.105316113930876" lon="13.445143399898534"><ele>977.0</ele><time>2026-05-02T15:16:41.999Z</time></trkpt><trkpt lat="42.10528348746495" lon="13.4450377527543"><ele>977.0000000000001</ele><time>2026-05-02T15:16:42.999Z</time></trkpt><trkpt lat="42.10524636955086" lon="13.444938943907085"><ele>977.0</ele><time>2026-05-02T15:16:44.001Z</time></trkpt><trkpt lat="42.105200184264426" lon="13.444821221990797"><ele>977.0</ele><time>2026-05-02T15:16:45.001Z</time></trkpt><trkpt lat="42.10515681528008" lon="13.44470305869009"><ele>977.0</ele><time>2026-05-02T15:16:46.001Z</time></trkpt><trkpt lat="42.105116705914455" lon="13.444590128540575"><ele>977.0</ele><time>2026-05-02T15:16:47.001Z</time></trkpt><trkpt lat="42.10507235462317" lon="13.444467792888842"><ele>977.0</ele><time>2026-05-02T15:16:48.001Z</time></trkpt><trkpt lat="42.10502123173375" lon="13.444346706672194"><ele>977.0</ele><time>2026-05-02T15:16:49.001Z</time></trkpt><trkpt lat="42.104976830726436" lon="13.444214030231263"><ele>976.6666666666667</ele><time>2026-05-02T15:16:50.001Z</time></trkpt><trkpt lat="42.10493786294575" lon="13.444093551862698"><ele>976.3333333333334</ele><time>2026-05-02T15:16:51.001Z</time></trkpt><trkpt lat="42.10489191859182" lon="13.443994655616251"><ele>976.0</ele><time>2026-05-02T15:16:52.001Z</time></trkpt><trkpt lat="42.104846739594" lon="13.443904063211049"><ele>975.6666666666667</ele><time>2026-05-02T15:16:53.001Z</time></trkpt><trkpt lat="42.10480537699113" lon="13.443827480855147"><ele>975.3333333333334</ele><time>2026-05-02T15:16:54.001Z</time></trkpt><trkpt lat="42.10475886507743" lon="13.443763965586461"><ele>975.0</ele><time>2026-05-02T15:16:55.001Z</time></trkpt><trkpt lat="42.10471339126234" lon="13.443704332675349"><ele>974.6666666666666</ele><time>2026-05-02T15:16:56.001Z</time></trkpt><trkpt lat="42.10466814101622" lon="13.44362011558411"><ele>974.3333333333333</ele><time>2026-05-02T15:16:57.001Z</time></trkpt><trkpt lat="42.10463290228579" lon="13.443519893008139"><ele>974.0</ele><time>2026-05-02T15:16:58Z</time></trkpt><trkpt lat="42.10460998658753" lon="13.443422813292614"><ele>973.6666666666666</ele><time>2026-05-02T15:16:59Z</time></trkpt><trkpt lat="42.10458727823697" lon="13.443335643809453"><ele>973.3333333333333</ele><time>2026-05-02T15:17:00Z</time></trkpt><trkpt lat="42.10455844351474" lon="13.443257354350207"><ele>973.0</ele><time>2026-05-02T15:17:01Z</time></trkpt><trkpt lat="42.10448231394605" lon="13.443106219006701"><ele>972.9999999999999</ele><time>2026-05-02T15:17:03Z</time></trkpt><trkpt lat="42.104433111779684" lon="13.443016577882583"><ele>973.0</ele><time>2026-05-02T15:17:04Z</time></trkpt><trkpt lat="42.104373653497646" lon="13.442917461784281"><ele>973.0</ele><time>2026-05-02T15:17:05Z</time></trkpt><trkpt lat="42.10431577017406" lon="13.442832708001848"><ele>973.0</ele><time>2026-05-02T15:17:06Z</time></trkpt><trkpt lat="42.10426043811483" lon="13.442747322992242"><ele>972.9999999999999</ele><time>2026-05-02T15:17:07Z</time></trkpt><trkpt lat="42.10420643222484" lon="13.442660834208226"><ele>973.0</ele><time>2026-05-02T15:17:08Z</time></trkpt><trkpt lat="42.104151051120255" lon="13.442563403286453"><ele>973.0</ele><time>2026-05-02T15:17:09Z</time></trkpt><trkpt lat="42.104107886169025" lon="13.442473103319289"><ele>973.0</ele><time>2026-05-02T15:17:10Z</time></trkpt><trkpt lat="42.10406676014681" lon="13.44236641192609"><ele>973.0</ele><time>2026-05-02T15:17:11Z</time></trkpt><trkpt lat="42.10402591681313" lon="13.442246370265098"><ele>973.0</ele><time>2026-05-02T15:17:12Z</time></trkpt><trkpt lat="42.103985798109406" lon="13.442129445853304"><ele>973.0</ele><time>2026-05-02T15:17:13Z</time></trkpt><trkpt lat="42.10393552884237" lon="13.442012591957388"><ele>972.4</ele><time>2026-05-02T15:17:14Z</time></trkpt><trkpt lat="42.10389047659364" lon="13.441887233185025"><ele>971.8</ele><time>2026-05-02T15:17:15Z</time></trkpt><trkpt lat="42.10384771893097" lon="13.441765801745845"><ele>971.2</ele><time>2026-05-02T15:17:16Z</time></trkpt><trkpt lat="42.103794274383276" lon="13.44164572229232"><ele>970.6</ele><time>2026-05-02T15:17:17Z</time></trkpt><trkpt lat="42.103728090457246" lon="13.441552081328831"><ele>970.0</ele><time>2026-05-02T15:17:18Z</time></trkpt><trkpt lat="42.10368344629643" lon="13.44143291330511"><ele>970.0</ele><time>2026-05-02T15:17:19Z</time></trkpt><trkpt lat="42.1036187431086" lon="13.441338948175504"><ele>970.0</ele><time>2026-05-02T15:17:20Z</time></trkpt><trkpt lat="42.10354368457722" lon="13.441248018752608"><ele>970.0</ele><time>2026-05-02T15:17:21Z</time></trkpt><trkpt lat="42.10347733104101" lon="13.441154098797595"><ele>970.0</ele><time>2026-05-02T15:17:22Z</time></trkpt><trkpt lat="42.10341685074145" lon="13.441060229363444"><ele>970.0</ele><time>2026-05-02T15:17:23Z</time></trkpt><trkpt lat="42.10336478196943" lon="13.440967722143784"><ele>970.3333333333333</ele><time>2026-05-02T15:17:24Z</time></trkpt><trkpt lat="42.10332084158577" lon="13.44088649057673"><ele>970.6666666666666</ele><time>2026-05-02T15:17:25Z</time></trkpt><trkpt lat="42.103269368322806" lon="13.440782256518503"><ele>971.0</ele><time>2026-05-02T15:17:27Z</time></trkpt><trkpt lat="42.10323926723378" lon="13.440668076385933"><ele>971.3333333333333</ele><time>2026-05-02T15:17:29Z</time></trkpt><trkpt lat="42.10319813760469" lon="13.440597696203337"><ele>971.6666666666666</ele><time>2026-05-02T15:17:30Z</time></trkpt><trkpt lat="42.103139886521184" lon="13.440521691077025"><ele>972.0</ele><time>2026-05-02T15:17:31Z</time></trkpt><trkpt lat="42.103081174801616" lon="13.440448806386017"><ele>972.0</ele><time>2026-05-02T15:17:32Z</time></trkpt><trkpt lat="42.1030266884941" lon="13.440378047077049"><ele>972.0</ele><time>2026-05-02T15:17:33Z</time></trkpt><trkpt lat="42.10296925497366" lon="13.440309266895358"><ele>972.0</ele><time>2026-05-02T15:17:34Z</time></trkpt><trkpt lat="42.10290136067204" lon="13.440225663178515"><ele>972.0</ele><time>2026-05-02T15:17:35Z</time></trkpt><trkpt lat="42.1028264243133" lon="13.44014550048907"><ele>972.0</ele><time>2026-05-02T15:17:36Z</time></trkpt><trkpt lat="42.102742698740556" lon="13.440087696649798"><ele>972.0</ele><time>2026-05-02T15:17:37Z</time></trkpt><trkpt lat="42.102648222013784" lon="13.440053083829703"><ele>972.0</ele><time>2026-05-02T15:17:38Z</time></trkpt><trkpt lat="42.10255498299478" lon="13.440015542081342"><ele>972.0</ele><time>2026-05-02T15:17:39Z</time></trkpt><trkpt lat="42.1024679040462" lon="13.439982833762038"><ele>972.0</ele><time>2026-05-02T15:17:40Z</time></trkpt><trkpt lat="42.10240473892059" lon="13.43992885480602"><ele>972.0</ele><time>2026-05-02T15:17:41Z</time></trkpt><trkpt lat="42.10234882552135" lon="13.439866133642678"><ele>972.0</ele><time>2026-05-02T15:17:42Z</time></trkpt><trkpt lat="42.10228349951998" lon="13.439791831599237"><ele>972.0</ele><time>2026-05-02T15:17:43Z</time></trkpt><trkpt lat="42.102231330397096" lon="13.439715725636786"><ele>971.8333333333334</ele><time>2026-05-02T15:17:44Z</time></trkpt><trkpt lat="42.102175722107496" lon="13.439638257717647"><ele>971.6666666666667</ele><time>2026-05-02T15:17:45Z</time></trkpt><trkpt lat="42.10211759115748" lon="13.439554183105708"><ele>971.5</ele><time>2026-05-02T15:17:46Z</time></trkpt><trkpt lat="42.10205979086499" lon="13.43946740596605"><ele>971.3333333333334</ele><time>2026-05-02T15:17:47Z</time></trkpt><trkpt lat="42.102007949379725" lon="13.439374007472354"><ele>971.1666666666667</ele><time>2026-05-02T15:17:48Z</time></trkpt><trkpt lat="42.10195340886336" lon="13.43927284074021"><ele>971.0</ele><time>2026-05-02T15:17:49Z</time></trkpt><trkpt lat="42.10189251703172" lon="13.439179823821473"><ele>971.8</ele><time>2026-05-02T15:17:50Z</time></trkpt><trkpt lat="42.1018194196038" lon="13.43909863637835"><ele>972.5999999999999</ele><time>2026-05-02T15:17:51Z</time></trkpt><trkpt lat="42.10173872619984" lon="13.439010980128074"><ele>973.4</ele><time>2026-05-02T15:17:52Z</time></trkpt><trkpt lat="42.10167092074664" lon="13.438914124364942"><ele>974.2</ele><time>2026-05-02T15:17:53Z</time></trkpt><trkpt lat="42.10161450518216" lon="13.43883915986551"><ele>975.0</ele><time>2026-05-02T15:17:54Z</time></trkpt><trkpt lat="42.10155329816599" lon="13.438747143453462"><ele>975.0</ele><time>2026-05-02T15:17:55Z</time></trkpt><trkpt lat="42.10149647512852" lon="13.438647933768411"><ele>975.0</ele><time>2026-05-02T15:17:56Z</time></trkpt><trkpt lat="42.10143580987118" lon="13.43855650137915"><ele>975.0</ele><time>2026-05-02T15:17:57Z</time></trkpt><trkpt lat="42.10137584693112" lon="13.438456056435424"><ele>975.0</ele><time>2026-05-02T15:17:58Z</time></trkpt><trkpt lat="42.101322714622796" lon="13.438353228941535"><ele>975.0</ele><time>2026-05-02T15:17:59Z</time></trkpt><trkpt lat="42.10127218054599" lon="13.438240599032488"><ele>975.0</ele><time>2026-05-02T15:18:00Z</time></trkpt><trkpt lat="42.101208889231195" lon="13.438136854682005"><ele>975.0</ele><time>2026-05-02T15:18:01Z</time></trkpt><trkpt lat="42.10114103714393" lon="13.438023108448032"><ele>975.0</ele><time>2026-05-02T15:18:02Z</time></trkpt><trkpt lat="42.10107353711209" lon="13.437912531203086"><ele>975.0</ele><time>2026-05-02T15:18:03Z</time></trkpt><trkpt lat="42.10100683285185" lon="13.437817813347943"><ele>975.0</ele><time>2026-05-02T15:18:04Z</time></trkpt><trkpt lat="42.10094473421114" lon="13.437719901053132"><ele>975.0</ele><time>2026-05-02T15:18:05Z</time></trkpt><trkpt lat="42.10089689086076" lon="13.437628478672323"><ele>975.0</ele><time>2026-05-02T15:18:06Z</time></trkpt><trkpt lat="42.100858717065506" lon="13.437553572896329"><ele>975.0</ele><time>2026-05-02T15:18:07Z</time></trkpt><trkpt lat="42.100817157967555" lon="13.437473216457082"><ele>975.0</ele><time>2026-05-02T15:18:08Z</time></trkpt><trkpt lat="42.100773346060706" lon="13.437404706543754"><ele>975.0</ele><time>2026-05-02T15:18:09Z</time></trkpt><trkpt lat="42.10071123320447" lon="13.437305102634896"><ele>975.0</ele><time>2026-05-02T15:18:11Z</time></trkpt><trkpt lat="42.10064267784047" lon="13.437206832919596"><ele>974.4</ele><time>2026-05-02T15:18:12.999Z</time></trkpt><trkpt lat="42.10058906481988" lon="13.437113268458393"><ele>973.8</ele><time>2026-05-02T15:18:13.999Z</time></trkpt><trkpt lat="42.10053467396584" lon="13.437005618653636"><ele>973.2</ele><time>2026-05-02T15:18:14.999Z</time></trkpt><trkpt lat="42.100483464353424" lon="13.436891491570277"><ele>972.6</ele><time>2026-05-02T15:18:15.999Z</time></trkpt><trkpt lat="42.10042565391922" lon="13.436770991273484"><ele>972.0</ele><time>2026-05-02T15:18:16.999Z</time></trkpt><trkpt lat="42.10036984975609" lon="13.436653310065477"><ele>972.0</ele><time>2026-05-02T15:18:17.999Z</time></trkpt><trkpt lat="42.10031301640376" lon="13.436547271676789"><ele>972.0</ele><time>2026-05-02T15:18:18.999Z</time></trkpt><trkpt lat="42.10024542284981" lon="13.436448707339249"><ele>972.0</ele><time>2026-05-02T15:18:19.999Z</time></trkpt><trkpt lat="42.10021510551408" lon="13.436344132783674"><ele>972.0</ele><time>2026-05-02T15:18:20.999Z</time></trkpt><trkpt lat="42.10016570541908" lon="13.436245177126889"><ele>972.0</ele><time>2026-05-02T15:18:21.999Z</time></trkpt><trkpt lat="42.10012465767177" lon="13.436141303022433"><ele>972.0</ele><time>2026-05-02T15:18:22.999Z</time></trkpt><trkpt lat="42.100086475241476" lon="13.436029658570178"><ele>972.0</ele><time>2026-05-02T15:18:23.999Z</time></trkpt><trkpt lat="42.100042594761184" lon="13.43592155137788"><ele>972.0</ele><time>2026-05-02T15:18:24.999Z</time></trkpt><trkpt lat="42.09999842237515" lon="13.435816977384029"><ele>972.0</ele><time>2026-05-02T15:18:25.999Z</time></trkpt><trkpt lat="42.09995815499397" lon="13.435712940905391"><ele>972.0</ele><time>2026-05-02T15:18:26.999Z</time></trkpt><trkpt lat="42.09991461911462" lon="13.435606126672553"><ele>972.0</ele><time>2026-05-02T15:18:27.999Z</time></trkpt><trkpt lat="42.099881163625454" lon="13.435513435507886"><ele>972.3333333333334</ele><time>2026-05-02T15:18:28.999Z</time></trkpt><trkpt lat="42.09985361209791" lon="13.435426868279302"><ele>972.6666666666667</ele><time>2026-05-02T15:18:29.999Z</time></trkpt><trkpt lat="42.09982076738681" lon="13.43532714521795"><ele>973.0</ele><time>2026-05-02T15:18:30.999Z</time></trkpt><trkpt lat="42.09978477029554" lon="13.435220404863987"><ele>973.3333333333334</ele><time>2026-05-02T15:18:31.999Z</time></trkpt><trkpt lat="42.09974500668802" lon="13.435108489241346"><ele>973.6666666666667</ele><time>2026-05-02T15:18:32.999Z</time></trkpt><trkpt lat="42.09970830826706" lon="13.434997837792066"><ele>974.0</ele><time>2026-05-02T15:18:33.999Z</time></trkpt><trkpt lat="42.099673721559306" lon="13.43489773746806"><ele>974.0</ele><time>2026-05-02T15:18:34.999Z</time></trkpt><trkpt lat="42.09962974779401" lon="13.434782200112512"><ele>974.0000000000001</ele><time>2026-05-02T15:18:35.999Z</time></trkpt><trkpt lat="42.09958604578342" lon="13.434666431087766"><ele>974.0000000000001</ele><time>2026-05-02T15:18:36.999Z</time></trkpt><trkpt lat="42.09953598514856" lon="13.434560933251067"><ele>974.0</ele><time>2026-05-02T15:18:37.999Z</time></trkpt><trkpt lat="42.09948925319098" lon="13.434441888499038"><ele>974.0</ele><time>2026-05-02T15:18:38.999Z</time></trkpt><trkpt lat="42.09944850330322" lon="13.434337308410992"><ele>974.2</ele><time>2026-05-02T15:18:39.999Z</time></trkpt><trkpt lat="42.09941436921725" lon="13.434247840175178"><ele>974.4000000000001</ele><time>2026-05-02T15:18:40.999Z</time></trkpt><trkpt lat="42.09938404165856" lon="13.434111323196488"><ele>974.6</ele><time>2026-05-02T15:18:42.999Z</time></trkpt><trkpt lat="42.09936782699766" lon="13.434004769403753"><ele>974.8</ele><time>2026-05-02T15:18:44.999Z</time></trkpt><trkpt lat="42.09932971613195" lon="13.433870650675487"><ele>975.0</ele><time>2026-05-02T15:19:01.001Z</time></trkpt><trkpt lat="42.09926586926916" lon="13.433789904063705"><ele>974.25</ele><time>2026-05-02T15:19:02.001Z</time></trkpt><trkpt lat="42.099180214927685" lon="13.433715829566918"><ele>973.5</ele><time>2026-05-02T15:19:03.001Z</time></trkpt><trkpt lat="42.09908505235788" lon="13.433632989019765"><ele>972.75</ele><time>2026-05-02T15:19:04Z</time></trkpt><trkpt lat="42.09897285919071" lon="13.433521118015975"><ele>972.0</ele><time>2026-05-02T15:19:05Z</time></trkpt><trkpt lat="42.09884162441391" lon="13.433395837693192"><ele>972.0</ele><time>2026-05-02T15:19:06Z</time></trkpt><trkpt lat="42.098716520149274" lon="13.433265420220543"><ele>972.0</ele><time>2026-05-02T15:19:07Z</time></trkpt><trkpt lat="42.098608583251746" lon="13.43315897638484"><ele>972.0</ele><time>2026-05-02T15:19:08Z</time></trkpt><trkpt lat="42.09851063276249" lon="13.433055132775552"><ele>972.0</ele><time>2026-05-02T15:19:09Z</time></trkpt><trkpt lat="42.09841614707089" lon="13.432962722764472"><ele>971.4000000000001</ele><time>2026-05-02T15:19:10Z</time></trkpt><trkpt lat="42.09832593715281" lon="13.432876982694324"><ele>970.8000000000001</ele><time>2026-05-02T15:19:11Z</time></trkpt><trkpt lat="42.09824478508751" lon="13.432792567146445"><ele>970.2</ele><time>2026-05-02T15:19:12Z</time></trkpt><trkpt lat="42.098161257380696" lon="13.432698980034004"><ele>969.6</ele><time>2026-05-02T15:19:13Z</time></trkpt><trkpt lat="42.098072723516424" lon="13.432613725530215"><ele>969.0</ele><time>2026-05-02T15:19:14Z</time></trkpt><trkpt lat="42.097998770959606" lon="13.432537720002072"><ele>969.0</ele><time>2026-05-02T15:19:15Z</time></trkpt><trkpt lat="42.09793094958969" lon="13.432466935642713"><ele>969.0</ele><time>2026-05-02T15:19:16Z</time></trkpt><trkpt lat="42.09788431365169" lon="13.4324062060641"><ele>969.0</ele><time>2026-05-02T15:19:17Z</time></trkpt><trkpt lat="42.097893795930105" lon="13.432321298988496"><ele>969.0</ele><time>2026-05-02T15:19:19Z</time></trkpt><trkpt lat="42.09794853857716" lon="13.432262398047056"><ele>969.0</ele><time>2026-05-02T15:19:21Z</time></trkpt><trkpt lat="42.0980454995175" lon="13.432233226671022"><ele>969.0</ele><time>2026-05-02T15:19:23Z</time></trkpt><trkpt lat="42.09811143013349" lon="13.432262236414871"><ele>969.0</ele><time>2026-05-02T15:19:24Z</time></trkpt><trkpt lat="42.098179796837755" lon="13.432319747484389"><ele>969.0000000000001</ele><time>2026-05-02T15:19:25Z</time></trkpt><trkpt lat="42.09825471501587" lon="13.43239575839034"><ele>969.0000000000001</ele><time>2026-05-02T15:19:26Z</time></trkpt><trkpt lat="42.09833485463076" lon="13.432465452201683"><ele>969.0</ele><time>2026-05-02T15:19:27Z</time></trkpt><trkpt lat="42.09841710706855" lon="13.432530704958356"><ele>969.0</ele><time>2026-05-02T15:19:28Z</time></trkpt><trkpt lat="42.09849892108667" lon="13.43259488785349"><ele>968.0</ele><time>2026-05-02T15:19:29Z</time></trkpt><trkpt lat="42.09857046840901" lon="13.432656711337186"><ele>967.0</ele><time>2026-05-02T15:19:30Z</time></trkpt><trkpt lat="42.098635723546586" lon="13.43271854410923"><ele>966.0</ele><time>2026-05-02T15:19:31Z</time></trkpt><trkpt lat="42.098699579570834" lon="13.432778943862"><ele>965.0</ele><time>2026-05-02T15:19:32Z</time></trkpt><trkpt lat="42.09877368752447" lon="13.432842899703394"><ele>964.0</ele><time>2026-05-02T15:19:33Z</time></trkpt><trkpt lat="42.09887069541841" lon="13.432893304467417"><ele>963.0</ele><time>2026-05-02T15:19:34Z</time></trkpt><trkpt lat="42.09897259266187" lon="13.432934314845278"><ele>963.0</ele><time>2026-05-02T15:19:35Z</time></trkpt><trkpt lat="42.09907787191649" lon="13.43296165475952"><ele>963.0</ele><time>2026-05-02T15:19:36Z</time></trkpt><trkpt lat="42.09916018786821" lon="13.432972409982632"><ele>963.0</ele><time>2026-05-02T15:19:37Z</time></trkpt><trkpt lat="42.09922995260316" lon="13.432981822237403"><ele>963.0</ele><time>2026-05-02T15:19:38Z</time></trkpt><trkpt lat="42.09932585765609" lon="13.433040509710656"><ele>963.0</ele><time>2026-05-02T15:19:40Z</time></trkpt><trkpt lat="42.09939805390864" lon="13.433114515083576"><ele>964.0</ele><time>2026-05-02T15:19:42Z</time></trkpt><trkpt lat="42.09948335543614" lon="13.433091689701461"><ele>965.0</ele><time>2026-05-02T15:19:44Z</time></trkpt><trkpt lat="42.099539660636005" lon="13.433035792394575"><ele>966.0</ele><time>2026-05-02T15:19:46Z</time></trkpt><trkpt lat="42.09960583296861" lon="13.432996493237665"><ele>967.0</ele><time>2026-05-02T15:19:48Z</time></trkpt><trkpt lat="42.09968935784526" lon="13.432956603191142"><ele>968.0</ele><time>2026-05-02T15:19:51Z</time></trkpt><trkpt lat="42.099763682648046" lon="13.432911181772925"><ele>969.0</ele><time>2026-05-02T15:19:54Z</time></trkpt><trkpt lat="42.09983436210635" lon="13.432873740874232"><ele>965.8333333333334</ele><time>2026-05-02T15:19:57Z</time></trkpt><trkpt lat="42.09990501241172" lon="13.4328276917871"><ele>962.6666666666667</ele><time>2026-05-02T15:20:00Z</time></trkpt><trkpt lat="42.09996749659597" lon="13.432769814928974"><ele>959.5</ele><time>2026-05-02T15:20:03Z</time></trkpt><trkpt lat="42.10002678584965" lon="13.432687919809538"><ele>956.3333333333334</ele><time>2026-05-02T15:20:07Z</time></trkpt><trkpt lat="42.10009048025132" lon="13.432598966682116"><ele>953.1666666666667</ele><time>2026-05-02T15:20:09Z</time></trkpt><trkpt lat="42.10014823183337" lon="13.432496788514339"><ele>950.0</ele><time>2026-05-02T15:20:11Z</time></trkpt><trkpt lat="42.10018554419571" lon="13.432383052292696"><ele>950.0</ele><time>2026-05-02T15:20:13Z</time></trkpt><trkpt lat="42.10022451048751" lon="13.432292774013634"><ele>950.0000000000001</ele><time>2026-05-02T15:20:16Z</time></trkpt><trkpt lat="42.10027283201274" lon="13.432188303300999"><ele>950.0</ele><time>2026-05-02T15:20:18.999Z</time></trkpt><trkpt lat="42.1002669066194" lon="13.432093728482316"><ele>950.0</ele><time>2026-05-02T15:20:25.999Z</time></trkpt><trkpt lat="42.10022125080683" lon="13.432034525209575"><ele>950.0000000000001</ele><time>2026-05-02T15:20:33.999Z</time></trkpt><trkpt lat="42.10016324858235" lon="13.431971291118682"><ele>950.0</ele><time>2026-05-02T15:20:40.999Z</time></trkpt><trkpt lat="42.10012353111499" lon="13.431896823768337"><ele>950.0</ele><time>2026-05-02T15:20:44.999Z</time></trkpt><trkpt lat="42.10006104060381" lon="13.431863404042018"><ele>949.3333333333334</ele><time>2026-05-02T15:20:49.999Z</time></trkpt><trkpt lat="42.09998769325465" lon="13.431908847096627"><ele>948.6666666666667</ele><time>2026-05-02T15:20:55.001Z</time></trkpt><trkpt lat="42.099912778694595" lon="13.431968698285127"><ele>948.0</ele><time>2026-05-02T15:20:57Z</time></trkpt><trkpt lat="42.09984740039557" lon="13.43199820569985"><ele>947.3333333333333</ele><time>2026-05-02T15:20:59.001Z</time></trkpt><trkpt lat="42.09978699994011" lon="13.432028918073808"><ele>946.6666666666666</ele><time>2026-05-02T15:21:48Z</time></trkpt><trkpt lat="42.099719285005726" lon="13.432079266128204"><ele>946.0</ele><time>2026-05-02T15:21:50Z</time></trkpt><trkpt lat="42.09961417661491" lon="13.432105923508194"><ele>944.5999999999999</ele><time>2026-05-02T15:21:52Z</time></trkpt><trkpt lat="42.09951393694214" lon="13.432105586927785"><ele>943.1999999999999</ele><time>2026-05-02T15:21:54Z</time></trkpt><trkpt lat="42.09941561634606" lon="13.4320846924993"><ele>941.8000000000001</ele><time>2026-05-02T15:21:56Z</time></trkpt><trkpt lat="42.09933080117226" lon="13.43202419939095"><ele>940.4000000000001</ele><time>2026-05-02T15:21:58Z</time></trkpt><trkpt lat="42.09921572684869" lon="13.431968646063702"><ele>939.0</ele><time>2026-05-02T15:22:00Z</time></trkpt><trkpt lat="42.09910428677223" lon="13.431912359214044"><ele>940.2</ele><time>2026-05-02T15:22:02Z</time></trkpt><trkpt lat="42.0990134321351" lon="13.43181260321032"><ele>941.4000000000001</ele><time>2026-05-02T15:22:04Z</time></trkpt><trkpt lat="42.0989257153061" lon="13.431701539638716"><ele>942.6</ele><time>2026-05-02T15:22:06Z</time></trkpt><trkpt lat="42.09882740084636" lon="13.431587542371954"><ele>943.8</ele><time>2026-05-02T15:22:08Z</time></trkpt><trkpt lat="42.09877764740048" lon="13.4315152298204"><ele>945.0</ele><time>2026-05-02T15:22:09Z</time></trkpt><trkpt lat="42.09872887199015" lon="13.431447137085662"><ele>945.0</ele><time>2026-05-02T15:22:10Z</time></trkpt><trkpt lat="42.09867778124517" lon="13.431383312815925"><ele>945.0</ele><time>2026-05-02T15:22:11Z</time></trkpt><trkpt lat="42.098629235707456" lon="13.431318033912595"><ele>945.0</ele><time>2026-05-02T15:22:12Z</time></trkpt><trkpt lat="42.098584528642796" lon="13.43125411339872"><ele>945.0</ele><time>2026-05-02T15:22:13Z</time></trkpt><trkpt lat="42.09853521309893" lon="13.4311989183166"><ele>945.0</ele><time>2026-05-02T15:22:14Z</time></trkpt><trkpt lat="42.098437667435576" lon="13.431094594120504"><ele>945.0</ele><time>2026-05-02T15:22:15.999Z</time></trkpt><trkpt lat="42.09838702378375" lon="13.431035706193311"><ele>946.1666666666666</ele><time>2026-05-02T15:22:16.999Z</time></trkpt><trkpt lat="42.098320276032865" lon="13.430968569043648"><ele>947.3333333333333</ele><time>2026-05-02T15:22:17.999Z</time></trkpt><trkpt lat="42.09826215114645" lon="13.430907154123437"><ele>948.5</ele><time>2026-05-02T15:22:18.999Z</time></trkpt><trkpt lat="42.09821521625035" lon="13.430820554823574"><ele>949.6666666666666</ele><time>2026-05-02T15:22:19.999Z</time></trkpt><trkpt lat="42.098147966024555" lon="13.43068616332773"><ele>950.8333333333333</ele><time>2026-05-02T15:22:21.999Z</time></trkpt><trkpt lat="42.09808999625692" lon="13.4306139618763"><ele>952.0</ele><time>2026-05-02T15:22:22.999Z</time></trkpt><trkpt lat="42.09802687772647" lon="13.430525585943462"><ele>949.9999999999999</ele><time>2026-05-02T15:22:23.999Z</time></trkpt><trkpt lat="42.09797845565288" lon="13.43044770960348"><ele>948.0</ele><time>2026-05-02T15:22:24.999Z</time></trkpt><trkpt lat="42.09793693757444" lon="13.430366267860238"><ele>946.0</ele><time>2026-05-02T15:22:25.999Z</time></trkpt><trkpt lat="42.09790555478552" lon="13.430275414069238"><ele>944.0</ele><time>2026-05-02T15:22:26.999Z</time></trkpt><trkpt lat="42.09786034165827" lon="13.430172141604006"><ele>941.9999999999999</ele><time>2026-05-02T15:22:27.999Z</time></trkpt><trkpt lat="42.09780318942001" lon="13.430070484304409"><ele>940.0</ele><time>2026-05-02T15:22:28.999Z</time></trkpt><trkpt lat="42.097755258929155" lon="13.429959730981269"><ele>940.0</ele><time>2026-05-02T15:22:29.999Z</time></trkpt><trkpt lat="42.09772164923736" lon="13.429846551203603"><ele>940.0</ele><time>2026-05-02T15:22:30.999Z</time></trkpt><trkpt lat="42.09767458988415" lon="13.429713780243354"><ele>940.0</ele><time>2026-05-02T15:22:31.999Z</time></trkpt><trkpt lat="42.097632785208965" lon="13.429587502803745"><ele>940.0</ele><time>2026-05-02T15:22:32.999Z</time></trkpt><trkpt lat="42.09760186863399" lon="13.429472038859775"><ele>940.0</ele><time>2026-05-02T15:22:33.999Z</time></trkpt><trkpt lat="42.097584279436354" lon="13.429370872789189"><ele>938.6</ele><time>2026-05-02T15:22:34.999Z</time></trkpt><trkpt lat="42.097562191107365" lon="13.429252348148589"><ele>937.2</ele><time>2026-05-02T15:22:35.999Z</time></trkpt><trkpt lat="42.09754115556993" lon="13.429137232689747"><ele>935.8</ele><time>2026-05-02T15:22:36.999Z</time></trkpt><trkpt lat="42.09751363709565" lon="13.429016440151551"><ele>934.4</ele><time>2026-05-02T15:22:37.999Z</time></trkpt><trkpt lat="42.09748601896466" lon="13.428898320882608"><ele>933.0</ele><time>2026-05-02T15:22:38.999Z</time></trkpt><trkpt lat="42.097455269679585" lon="13.42877727150605"><ele>933.0</ele><time>2026-05-02T15:22:39.999Z</time></trkpt><trkpt lat="42.097426969796864" lon="13.4286588696477"><ele>933.0</ele><time>2026-05-02T15:22:40.999Z</time></trkpt><trkpt lat="42.09739854446843" lon="13.428551146027337"><ele>933.0</ele><time>2026-05-02T15:22:41.999Z</time></trkpt><trkpt lat="42.09736506127052" lon="13.428442556152586"><ele>933.0</ele><time>2026-05-02T15:22:42.999Z</time></trkpt><trkpt lat="42.09732720587718" lon="13.428321154208913"><ele>933.0</ele><time>2026-05-02T15:22:43.999Z</time></trkpt><trkpt lat="42.097293064254885" lon="13.428206110984545"><ele>933.2</ele><time>2026-05-02T15:22:44.999Z</time></trkpt><trkpt lat="42.09725959747639" lon="13.428103138348321"><ele>933.4</ele><time>2026-05-02T15:22:45.999Z</time></trkpt><trkpt lat="42.0972260186566" lon="13.42794195664071"><ele>933.6000000000001</ele><time>2026-05-02T15:22:47.999Z</time></trkpt><trkpt lat="42.097181168699315" lon="13.427763571531141"><ele>933.8000000000001</ele><time>2026-05-02T15:22:49.999Z</time></trkpt><trkpt lat="42.097160117722574" lon="13.427664264171714"><ele>934.0</ele><time>2026-05-02T15:22:50.999Z</time></trkpt><trkpt lat="42.09715226836902" lon="13.427558218728171"><ele>933.9999999999999</ele><time>2026-05-02T15:22:51.999Z</time></trkpt><trkpt lat="42.0971358829642" lon="13.427458007079718"><ele>934.0</ele><time>2026-05-02T15:22:52.999Z</time></trkpt><trkpt lat="42.09711068793778" lon="13.42736032498976"><ele>934.0</ele><time>2026-05-02T15:22:53.999Z</time></trkpt><trkpt lat="42.09707998390116" lon="13.427251743519559"><ele>934.0</ele><time>2026-05-02T15:22:54.999Z</time></trkpt><trkpt lat="42.097060534605234" lon="13.42713206385124"><ele>933.9999999999999</ele><time>2026-05-02T15:22:55.999Z</time></trkpt><trkpt lat="42.09704225710638" lon="13.42701993015173"><ele>934.0</ele><time>2026-05-02T15:22:56.999Z</time></trkpt><trkpt lat="42.09702054353353" lon="13.426905052715876"><ele>932.8333333333333</ele><time>2026-05-02T15:22:57.999Z</time></trkpt><trkpt lat="42.09699906697909" lon="13.426791247677052"><ele>931.6666666666666</ele><time>2026-05-02T15:22:58.999Z</time></trkpt><trkpt lat="42.096985520409454" lon="13.426681333852388"><ele>930.5</ele><time>2026-05-02T15:22:59.999Z</time></trkpt><trkpt lat="42.096971991427615" lon="13.426558780903378"><ele>929.3333333333333</ele><time>2026-05-02T15:23:01Z</time></trkpt><trkpt lat="42.0969523435593" lon="13.426450101323182"><ele>928.1666666666666</ele><time>2026-05-02T15:23:02Z</time></trkpt><trkpt lat="42.09693054000373" lon="13.426335571978266"><ele>927.0</ele><time>2026-05-02T15:23:03Z</time></trkpt><trkpt lat="42.09692478485179" lon="13.426233502977773"><ele>926.3333333333334</ele><time>2026-05-02T15:23:04Z</time></trkpt><trkpt lat="42.09691209620557" lon="13.426135569335477"><ele>925.6666666666667</ele><time>2026-05-02T15:23:05Z</time></trkpt><trkpt lat="42.09688543673433" lon="13.426022010407443"><ele>925.0</ele><time>2026-05-02T15:23:06Z</time></trkpt><trkpt lat="42.09685480690548" lon="13.425891528470048"><ele>924.3333333333334</ele><time>2026-05-02T15:23:07Z</time></trkpt><trkpt lat="42.096828112985776" lon="13.425769476656649"><ele>923.6666666666667</ele><time>2026-05-02T15:23:08Z</time></trkpt><trkpt lat="42.09681197858054" lon="13.42564882605808"><ele>923.0</ele><time>2026-05-02T15:23:09Z</time></trkpt><trkpt lat="42.09679769604538" lon="13.42553036262881"><ele>922.2</ele><time>2026-05-02T15:23:10Z</time></trkpt><trkpt lat="42.09676862363327" lon="13.425418778808126"><ele>921.4</ele><time>2026-05-02T15:23:11Z</time></trkpt><trkpt lat="42.096724057546574" lon="13.425298573268133"><ele>920.6000000000001</ele><time>2026-05-02T15:23:12Z</time></trkpt><trkpt lat="42.09669056604011" lon="13.425171181860037"><ele>919.8000000000001</ele><time>2026-05-02T15:23:13Z</time></trkpt><trkpt lat="42.09665685817001" lon="13.425036905165353"><ele>919.0</ele><time>2026-05-02T15:23:14Z</time></trkpt><trkpt lat="42.096620756581366" lon="13.42489935103733"><ele>919.4000000000001</ele><time>2026-05-02T15:23:15Z</time></trkpt><trkpt lat="42.09657526802282" lon="13.424765543825716"><ele>919.8000000000001</ele><time>2026-05-02T15:23:16Z</time></trkpt><trkpt lat="42.096522750184" lon="13.424639023708696"><ele>920.1999999999999</ele><time>2026-05-02T15:23:17Z</time></trkpt><trkpt lat="42.096467008021236" lon="13.424511462517371"><ele>920.5999999999999</ele><time>2026-05-02T15:23:18Z</time></trkpt><trkpt lat="42.096416319729" lon="13.424394458473227"><ele>921.0</ele><time>2026-05-02T15:23:19Z</time></trkpt><trkpt lat="42.09636615874794" lon="13.424276634472204"><ele>921.0</ele><time>2026-05-02T15:23:20Z</time></trkpt><trkpt lat="42.096304576912935" lon="13.424173285436964"><ele>920.9999999999999</ele><time>2026-05-02T15:23:21Z</time></trkpt><trkpt lat="42.096239675844764" lon="13.424071773962327"><ele>920.9999999999999</ele><time>2026-05-02T15:23:22Z</time></trkpt><trkpt lat="42.09617673619709" lon="13.423977442971907"><ele>921.0</ele><time>2026-05-02T15:23:23Z</time></trkpt><trkpt lat="42.096119165752896" lon="13.423877552967769"><ele>921.0</ele><time>2026-05-02T15:23:24Z</time></trkpt><trkpt lat="42.096065036253094" lon="13.423781251172903"><ele>919.4</ele><time>2026-05-02T15:23:25Z</time></trkpt><trkpt lat="42.09600759213973" lon="13.42368246453319"><ele>917.8</ele><time>2026-05-02T15:23:26Z</time></trkpt><trkpt lat="42.09595772178502" lon="13.423578598850233"><ele>916.1999999999999</ele><time>2026-05-02T15:23:27Z</time></trkpt><trkpt lat="42.09590935382393" lon="13.42346536815667"><ele>914.5999999999999</ele><time>2026-05-02T15:23:28Z</time></trkpt><trkpt lat="42.095863335489966" lon="13.423355895129182"><ele>913.0</ele><time>2026-05-02T15:23:29Z</time></trkpt><trkpt lat="42.09581731330882" lon="13.423243551431797"><ele>912.9999999999999</ele><time>2026-05-02T15:23:30Z</time></trkpt><trkpt lat="42.09577928189598" lon="13.423129694872728"><ele>913.0</ele><time>2026-05-02T15:23:31Z</time></trkpt><trkpt lat="42.09574403740966" lon="13.423011023621964"><ele>913.0</ele><time>2026-05-02T15:23:32Z</time></trkpt><trkpt lat="42.09571475534602" lon="13.422909997239385"><ele>913.0</ele><time>2026-05-02T15:23:33Z</time></trkpt><trkpt lat="42.095680367258694" lon="13.42281125870914"><ele>912.9999999999999</ele><time>2026-05-02T15:23:34Z</time></trkpt><trkpt lat="42.09564965370282" lon="13.422705276701048"><ele>913.0</ele><time>2026-05-02T15:23:35Z</time></trkpt><trkpt lat="42.09563889036352" lon="13.422593593748239"><ele>914.8</ele><time>2026-05-02T15:23:36Z</time></trkpt><trkpt lat="42.09562951211976" lon="13.422470790011866"><ele>916.5999999999999</ele><time>2026-05-02T15:23:37Z</time></trkpt><trkpt lat="42.095612455684375" lon="13.422332323446176"><ele>918.4000000000001</ele><time>2026-05-02T15:23:38Z</time></trkpt><trkpt lat="42.09559642859695" lon="13.42217876155488"><ele>920.2</ele><time>2026-05-02T15:23:39Z</time></trkpt><trkpt lat="42.095594814106256" lon="13.422033599179988"><ele>922.0</ele><time>2026-05-02T15:23:40Z</time></trkpt><trkpt lat="42.09558758140997" lon="13.421907123241034"><ele>922.0</ele><time>2026-05-02T15:23:41Z</time></trkpt><trkpt lat="42.09557387849964" lon="13.421790936443953"><ele>922.0</ele><time>2026-05-02T15:23:42Z</time></trkpt><trkpt lat="42.09556788432755" lon="13.421667312039522"><ele>922.0</ele><time>2026-05-02T15:23:43Z</time></trkpt><trkpt lat="42.09556538565098" lon="13.421534800294227"><ele>922.0</ele><time>2026-05-02T15:23:44Z</time></trkpt><trkpt lat="42.095563024534734" lon="13.42139659365096"><ele>922.0</ele><time>2026-05-02T15:23:45Z</time></trkpt><trkpt lat="42.09555821126352" lon="13.421265203646263"><ele>920.4000000000001</ele><time>2026-05-02T15:23:46Z</time></trkpt><trkpt lat="42.095547568204296" lon="13.421133403982443"><ele>918.8000000000001</ele><time>2026-05-02T15:23:47Z</time></trkpt><trkpt lat="42.09554088054594" lon="13.42099753120313"><ele>917.2</ele><time>2026-05-02T15:23:48Z</time></trkpt><trkpt lat="42.09554030207398" lon="13.420870922382342"><ele>915.6</ele><time>2026-05-02T15:23:49Z</time></trkpt><trkpt lat="42.09553952869463" lon="13.420742982758295"><ele>914.0</ele><time>2026-05-02T15:23:50Z</time></trkpt><trkpt lat="42.0955406015121" lon="13.4206197652079"><ele>914.0</ele><time>2026-05-02T15:23:51Z</time></trkpt><trkpt lat="42.09554762790023" lon="13.420485566075644"><ele>914.0000000000001</ele><time>2026-05-02T15:23:52Z</time></trkpt><trkpt lat="42.09554916139953" lon="13.420352023565652"><ele>914.0000000000001</ele><time>2026-05-02T15:23:53Z</time></trkpt><trkpt lat="42.09553678002357" lon="13.420218198258244"><ele>914.0</ele><time>2026-05-02T15:23:54Z</time></trkpt><trkpt lat="42.095516111177645" lon="13.42008718663291"><ele>914.0</ele><time>2026-05-02T15:23:55Z</time></trkpt><trkpt lat="42.09549781353756" lon="13.41999321449046"><ele>913.8000000000001</ele><time>2026-05-02T15:23:56Z</time></trkpt><trkpt lat="42.09547849736601" lon="13.419832808596066"><ele>913.6000000000001</ele><time>2026-05-02T15:23:58Z</time></trkpt><trkpt lat="42.09547735440291" lon="13.419724035562691"><ele>913.4</ele><time>2026-05-02T15:23:59Z</time></trkpt><trkpt lat="42.09547663475772" lon="13.419593400919773"><ele>913.2</ele><time>2026-05-02T15:24:00Z</time></trkpt><trkpt lat="42.09547677411226" lon="13.419476162409962"><ele>913.0</ele><time>2026-05-02T15:24:01Z</time></trkpt><trkpt lat="42.09547449289426" lon="13.419364550387572"><ele>912.3333333333333</ele><time>2026-05-02T15:24:02Z</time></trkpt><trkpt lat="42.095474613599514" lon="13.419251659005493"><ele>911.6666666666666</ele><time>2026-05-02T15:24:03Z</time></trkpt><trkpt lat="42.0954780210507" lon="13.419144903294578"><ele>911.0</ele><time>2026-05-02T15:24:04Z</time></trkpt><trkpt lat="42.09548036435" lon="13.419014103557002"><ele>910.3333333333333</ele><time>2026-05-02T15:24:05Z</time></trkpt><trkpt lat="42.09548051892975" lon="13.41889160524785"><ele>909.6666666666666</ele><time>2026-05-02T15:24:06Z</time></trkpt><trkpt lat="42.09548039429539" lon="13.418782990901914"><ele>909.0</ele><time>2026-05-02T15:24:07Z</time></trkpt><trkpt lat="42.09547827726863" lon="13.418681529896709"><ele>908.1666666666666</ele><time>2026-05-02T15:24:08Z</time></trkpt><trkpt lat="42.09547279317804" lon="13.418570264990775"><ele>907.3333333333333</ele><time>2026-05-02T15:24:09Z</time></trkpt><trkpt lat="42.09546648359017" lon="13.418450603110767"><ele>906.5</ele><time>2026-05-02T15:24:10Z</time></trkpt><trkpt lat="42.095459833767386" lon="13.41833129809585"><ele>905.6666666666666</ele><time>2026-05-02T15:24:11Z</time></trkpt><trkpt lat="42.095463414096585" lon="13.418212021793224"><ele>904.8333333333333</ele><time>2026-05-02T15:24:12Z</time></trkpt><trkpt lat="42.095469109673594" lon="13.418095950125812"><ele>904.0</ele><time>2026-05-02T15:24:13Z</time></trkpt><trkpt lat="42.09547131371995" lon="13.4179813554823"><ele>903.1666666666666</ele><time>2026-05-02T15:24:14Z</time></trkpt><trkpt lat="42.09547037007224" lon="13.417873573711512"><ele>902.3333333333333</ele><time>2026-05-02T15:24:15Z</time></trkpt><trkpt lat="42.09546106302376" lon="13.417766429807106"><ele>901.5</ele><time>2026-05-02T15:24:16Z</time></trkpt><trkpt lat="42.095429761211776" lon="13.417652415343445"><ele>900.6666666666667</ele><time>2026-05-02T15:24:17Z</time></trkpt><trkpt lat="42.095400073985836" lon="13.417550273748445"><ele>899.8333333333334</ele><time>2026-05-02T15:24:17.999Z</time></trkpt><trkpt lat="42.095363746708735" lon="13.417423473318726"><ele>899.0</ele><time>2026-05-02T15:24:18.999Z</time></trkpt><trkpt lat="42.095333660906476" lon="13.41729466973361"><ele>899.0000000000001</ele><time>2026-05-02T15:24:19.999Z</time></trkpt><trkpt lat="42.09531699278434" lon="13.4171653248359"><ele>899.0</ele><time>2026-05-02T15:24:20.999Z</time></trkpt><trkpt lat="42.09529158813699" lon="13.417042492404534"><ele>899.0</ele><time>2026-05-02T15:24:21.999Z</time></trkpt><trkpt lat="42.095273118038584" lon="13.416920674411445"><ele>899.0</ele><time>2026-05-02T15:24:22.999Z</time></trkpt><trkpt lat="42.095253856259845" lon="13.41681178654256"><ele>899.0000000000001</ele><time>2026-05-02T15:24:23.999Z</time></trkpt><trkpt lat="42.09523787557427" lon="13.416706974729433"><ele>899.0</ele><time>2026-05-02T15:24:24.999Z</time></trkpt><trkpt lat="42.09522372649335" lon="13.416623891503775"><ele>898.0000000000001</ele><time>2026-05-02T15:24:25.999Z</time></trkpt><trkpt lat="42.09519711939651" lon="13.416528084905364"><ele>897.0</ele><time>2026-05-02T15:24:27.999Z</time></trkpt><trkpt lat="42.09526608131197" lon="13.416449010078962"><ele>896.0</ele><time>2026-05-02T15:24:31.999Z</time></trkpt><trkpt lat="42.09536316292984" lon="13.416444801384047"><ele>895.0</ele><time>2026-05-02T15:24:33.999Z</time></trkpt><trkpt lat="42.095449139513356" lon="13.416363830162854"><ele>894.0000000000001</ele><time>2026-05-02T15:24:35.999Z</time></trkpt><trkpt lat="42.095492997867616" lon="13.416294869617147"><ele>893.0</ele><time>2026-05-02T15:24:36.999Z</time></trkpt><trkpt lat="42.095572498857166" lon="13.416162928546226"><ele>892.1666666666667</ele><time>2026-05-02T15:24:38.999Z</time></trkpt><trkpt lat="42.09560527414073" lon="13.416088068696"><ele>891.3333333333334</ele><time>2026-05-02T15:24:39.999Z</time></trkpt><trkpt lat="42.09563235918081" lon="13.41599841284115"><ele>890.5</ele><time>2026-05-02T15:24:40.999Z</time></trkpt><trkpt lat="42.095645501297845" lon="13.415894920667673"><ele>889.6666666666667</ele><time>2026-05-02T15:24:41.999Z</time></trkpt><trkpt lat="42.095648297198274" lon="13.415788336297815"><ele>888.8333333333334</ele><time>2026-05-02T15:24:42.999Z</time></trkpt><trkpt lat="42.09564703107644" lon="13.41568110002074"><ele>888.0</ele><time>2026-05-02T15:24:43.999Z</time></trkpt><trkpt lat="42.09565986252449" lon="13.415570077298003"><ele>887.4</ele><time>2026-05-02T15:24:44.999Z</time></trkpt><trkpt lat="42.09567758976697" lon="13.415485020728466"><ele>886.8</ele><time>2026-05-02T15:24:45.999Z</time></trkpt><trkpt lat="42.095758763153626" lon="13.415355868879885"><ele>886.2</ele><time>2026-05-02T15:24:47.999Z</time></trkpt><trkpt lat="42.09582148372904" lon="13.415280118607143"><ele>885.6</ele><time>2026-05-02T15:24:48.999Z</time></trkpt><trkpt lat="42.095882649158696" lon="13.415201677620292"><ele>885.0</ele><time>2026-05-02T15:24:49.999Z</time></trkpt><trkpt lat="42.09594979668918" lon="13.415105973771476"><ele>886.6666666666666</ele><time>2026-05-02T15:24:50.999Z</time></trkpt><trkpt lat="42.09602228700853" lon="13.415015785423638"><ele>888.3333333333333</ele><time>2026-05-02T15:24:51.999Z</time></trkpt><trkpt lat="42.09607938619855" lon="13.414948102958625"><ele>890.0</ele><time>2026-05-02T15:24:52.999Z</time></trkpt><trkpt lat="42.096138093041944" lon="13.414894314995609"><ele>891.6666666666666</ele><time>2026-05-02T15:24:53.999Z</time></trkpt><trkpt lat="42.09621143059542" lon="13.414840113285877"><ele>893.3333333333333</ele><time>2026-05-02T15:24:54.999Z</time></trkpt><trkpt lat="42.0962885994012" lon="13.414782371084218"><ele>895.0</ele><time>2026-05-02T15:24:55.999Z</time></trkpt><trkpt lat="42.096360126204154" lon="13.414734034209067"><ele>894.9999999999999</ele><time>2026-05-02T15:24:56.999Z</time></trkpt><trkpt lat="42.096439237233156" lon="13.414687069977688"><ele>895.0</ele><time>2026-05-02T15:24:57.999Z</time></trkpt><trkpt lat="42.09651863209193" lon="13.41463453911482"><ele>895.0</ele><time>2026-05-02T15:24:58.999Z</time></trkpt><trkpt lat="42.09659707538867" lon="13.414581073558791"><ele>895.0</ele><time>2026-05-02T15:24:59.999Z</time></trkpt><trkpt lat="42.09667322537869" lon="13.414528849029159"><ele>894.9999999999999</ele><time>2026-05-02T15:25:00.999Z</time></trkpt><trkpt lat="42.096745265223895" lon="13.414486918056092"><ele>895.0</ele><time>2026-05-02T15:25:01.999Z</time></trkpt><trkpt lat="42.096816743129" lon="13.414446838756737"><ele>895.6666666666666</ele><time>2026-05-02T15:25:02.999Z</time></trkpt><trkpt lat="42.09688336068322" lon="13.414409902499377"><ele>896.3333333333333</ele><time>2026-05-02T15:25:03.999Z</time></trkpt><trkpt lat="42.09695599562699" lon="13.414376738151756"><ele>897.0</ele><time>2026-05-02T15:25:04.999Z</time></trkpt><trkpt lat="42.097029225748344" lon="13.414352473390618"><ele>897.6666666666667</ele><time>2026-05-02T15:25:05.999Z</time></trkpt><trkpt lat="42.09711258918743" lon="13.414320037077095"><ele>898.3333333333334</ele><time>2026-05-02T15:25:07Z</time></trkpt><trkpt lat="42.097186671728096" lon="13.414278366410178"><ele>899.0</ele><time>2026-05-02T15:25:08Z</time></trkpt><trkpt lat="42.097253321664695" lon="13.414211940240376"><ele>899.0000000000001</ele><time>2026-05-02T15:25:09Z</time></trkpt><trkpt lat="42.09730626677837" lon="13.41414107288987"><ele>899.0</ele><time>2026-05-02T15:25:10Z</time></trkpt><trkpt lat="42.09735087523193" lon="13.41406649089718"><ele>899.0</ele><time>2026-05-02T15:25:11Z</time></trkpt><trkpt lat="42.097399277824664" lon="13.414005080569613"><ele>899.0</ele><time>2026-05-02T15:25:12Z</time></trkpt><trkpt lat="42.097457343203416" lon="13.413950275692088"><ele>899.0000000000001</ele><time>2026-05-02T15:25:13Z</time></trkpt><trkpt lat="42.09752794876715" lon="13.413895333317756"><ele>899.0</ele><time>2026-05-02T15:25:14Z</time></trkpt><trkpt lat="42.09763819887221" lon="13.41384188936732"><ele>898.6666666666667</ele><time>2026-05-02T15:25:16Z</time></trkpt><trkpt lat="42.0977614624985" lon="13.413790616534676"><ele>898.3333333333334</ele><time>2026-05-02T15:25:18Z</time></trkpt><trkpt lat="42.097836871985145" lon="13.413770870902548"><ele>898.0</ele><time>2026-05-02T15:25:19Z</time></trkpt><trkpt lat="42.09790891598554" lon="13.41375337307187"><ele>897.6666666666667</ele><time>2026-05-02T15:25:20Z</time></trkpt><trkpt lat="42.097972974030384" lon="13.413737329380586"><ele>897.3333333333334</ele><time>2026-05-02T15:25:21Z</time></trkpt><trkpt lat="42.098072186394184" lon="13.413694140398743"><ele>897.0</ele><time>2026-05-02T15:25:23Z</time></trkpt><trkpt lat="42.09819305021431" lon="13.413614405138375"><ele>897.1666666666666</ele><time>2026-05-02T15:25:25Z</time></trkpt><trkpt lat="42.09826198814543" lon="13.41355800292256"><ele>897.3333333333333</ele><time>2026-05-02T15:25:26Z</time></trkpt><trkpt lat="42.09833483325421" lon="13.413489850547586"><ele>897.5</ele><time>2026-05-02T15:25:27Z</time></trkpt><trkpt lat="42.09840494383421" lon="13.413431136024268"><ele>897.6666666666666</ele><time>2026-05-02T15:25:28Z</time></trkpt><trkpt lat="42.098484764056494" lon="13.413367683311714"><ele>897.8333333333333</ele><time>2026-05-02T15:25:29Z</time></trkpt><trkpt lat="42.09856080074575" lon="13.413306045248948"><ele>898.0</ele><time>2026-05-02T15:25:30Z</time></trkpt><trkpt lat="42.0986318638609" lon="13.413232462209644"><ele>898.0</ele><time>2026-05-02T15:25:31Z</time></trkpt><trkpt lat="42.09870236709782" lon="13.413153070659646"><ele>898.0</ele><time>2026-05-02T15:25:32Z</time></trkpt><trkpt lat="42.09877248593591" lon="13.413065555301332"><ele>898.0</ele><time>2026-05-02T15:25:33Z</time></trkpt><trkpt lat="42.09884236113654" lon="13.412971175551496"><ele>898.0</ele><time>2026-05-02T15:25:34Z</time></trkpt><trkpt lat="42.09890680898127" lon="13.412881259057047"><ele>898.0</ele><time>2026-05-02T15:25:35Z</time></trkpt><trkpt lat="42.09896515183699" lon="13.412800994519449"><ele>897.4999999999999</ele><time>2026-05-02T15:25:36Z</time></trkpt><trkpt lat="42.099021678020534" lon="13.412720841558196"><ele>897.0</ele><time>2026-05-02T15:25:37Z</time></trkpt><trkpt lat="42.0990748085333" lon="13.412639618435893"><ele>896.5</ele><time>2026-05-02T15:25:38Z</time></trkpt><trkpt lat="42.0991240450125" lon="13.412554331028549"><ele>896.0</ele><time>2026-05-02T15:25:39Z</time></trkpt><trkpt lat="42.09917276352701" lon="13.41246746493009"><ele>895.4999999999999</ele><time>2026-05-02T15:25:40Z</time></trkpt><trkpt lat="42.09922129282488" lon="13.412367226065436"><ele>895.0</ele><time>2026-05-02T15:25:41Z</time></trkpt><trkpt lat="42.099272547166706" lon="13.412262528832072"><ele>893.8</ele><time>2026-05-02T15:25:42Z</time></trkpt><trkpt lat="42.099312532536935" lon="13.412150808152342"><ele>892.6</ele><time>2026-05-02T15:25:43Z</time></trkpt><trkpt lat="42.09935091037487" lon="13.412027181100516"><ele>891.4000000000001</ele><time>2026-05-02T15:25:44Z</time></trkpt><trkpt lat="42.09939238053104" lon="13.411913883208081"><ele>890.2</ele><time>2026-05-02T15:25:45Z</time></trkpt><trkpt lat="42.09944787931263" lon="13.411825930705321"><ele>889.0</ele><time>2026-05-02T15:25:46Z</time></trkpt><trkpt lat="42.09951300910135" lon="13.411739742426423"><ele>888.9999999999999</ele><time>2026-05-02T15:25:47Z</time></trkpt><trkpt lat="42.09957375049024" lon="13.411643499330024"><ele>889.0</ele><time>2026-05-02T15:25:48Z</time></trkpt><trkpt lat="42.0996236218637" lon="13.411559776020379"><ele>889.0</ele><time>2026-05-02T15:25:49Z</time></trkpt><trkpt lat="42.09967022439317" lon="13.411484091207807"><ele>889.0</ele><time>2026-05-02T15:25:50Z</time></trkpt><trkpt lat="42.09972715932069" lon="13.411431931570888"><ele>888.9999999999999</ele><time>2026-05-02T15:25:51Z</time></trkpt><trkpt lat="42.099796811638186" lon="13.411407530197788"><ele>889.0</ele><time>2026-05-02T15:25:52Z</time></trkpt><trkpt lat="42.099867391651664" lon="13.411390945911961"><ele>888.8333333333333</ele><time>2026-05-02T15:25:53Z</time></trkpt><trkpt lat="42.09993178053141" lon="13.411359319730671"><ele>888.6666666666666</ele><time>2026-05-02T15:25:54Z</time></trkpt><trkpt lat="42.09998742838206" lon="13.411293830419956"><ele>888.5</ele><time>2026-05-02T15:25:55Z</time></trkpt><trkpt lat="42.10004083922371" lon="13.411207867087949"><ele>888.3333333333333</ele><time>2026-05-02T15:25:56Z</time></trkpt><trkpt lat="42.100101868988375" lon="13.411101697307126"><ele>888.1666666666666</ele><time>2026-05-02T15:25:57Z</time></trkpt><trkpt lat="42.100167575301775" lon="13.410996101098847"><ele>888.0</ele><time>2026-05-02T15:25:58Z</time></trkpt><trkpt lat="42.10023320780585" lon="13.410883787377095"><ele>887.4</ele><time>2026-05-02T15:25:59Z</time></trkpt><trkpt lat="42.100293997082666" lon="13.41077047441455"><ele>886.8</ele><time>2026-05-02T15:26:00Z</time></trkpt><trkpt lat="42.100360340477614" lon="13.410657014214085"><ele>886.2</ele><time>2026-05-02T15:26:01Z</time></trkpt><trkpt lat="42.100426754091174" lon="13.410561059888158"><ele>885.6</ele><time>2026-05-02T15:26:02Z</time></trkpt><trkpt lat="42.100481574204096" lon="13.410466533810395"><ele>885.0</ele><time>2026-05-02T15:26:03Z</time></trkpt><trkpt lat="42.10054132841047" lon="13.410362235147943"><ele>884.2</ele><time>2026-05-02T15:26:04Z</time></trkpt><trkpt lat="42.10060423729285" lon="13.410248343210032"><ele>883.4</ele><time>2026-05-02T15:26:05Z</time></trkpt><trkpt lat="42.10065223492082" lon="13.410128000291222"><ele>882.5999999999999</ele><time>2026-05-02T15:26:06Z</time></trkpt><trkpt lat="42.100697772210204" lon="13.410003951589644"><ele>881.8</ele><time>2026-05-02T15:26:07Z</time></trkpt><trkpt lat="42.10073973231369" lon="13.409875037153741"><ele>881.0</ele><time>2026-05-02T15:26:08Z</time></trkpt><trkpt lat="42.10078269086201" lon="13.409746285337844"><ele>879.8</ele><time>2026-05-02T15:26:09Z</time></trkpt><trkpt lat="42.10082902304881" lon="13.409617067398143"><ele>878.5999999999999</ele><time>2026-05-02T15:26:10Z</time></trkpt><trkpt lat="42.10087822329816" lon="13.409503169419331"><ele>877.4</ele><time>2026-05-02T15:26:11Z</time></trkpt><trkpt lat="42.10091364183049" lon="13.40938222316616"><ele>876.2</ele><time>2026-05-02T15:26:12Z</time></trkpt><trkpt lat="42.1009490721873" lon="13.40926644219539"><ele>875.0</ele><time>2026-05-02T15:26:13Z</time></trkpt><trkpt lat="42.100987499363" lon="13.409166843293752"><ele>875.0000000000001</ele><time>2026-05-02T15:26:14Z</time></trkpt><trkpt lat="42.1010296482497" lon="13.40906045109991"><ele>875.0</ele><time>2026-05-02T15:26:15Z</time></trkpt><trkpt lat="42.101074991663374" lon="13.408952283882995"><ele>875.0</ele><time>2026-05-02T15:26:16Z</time></trkpt><trkpt lat="42.101119382717286" lon="13.408846427782136"><ele>875.0</ele><time>2026-05-02T15:26:17Z</time></trkpt><trkpt lat="42.10116211860253" lon="13.408745397760248"><ele>875.0000000000001</ele><time>2026-05-02T15:26:18Z</time></trkpt><trkpt lat="42.101202663192495" lon="13.408647156861086"><ele>875.0</ele><time>2026-05-02T15:26:19Z</time></trkpt><trkpt lat="42.10123949150072" lon="13.408542136650782"><ele>874.1666666666667</ele><time>2026-05-02T15:26:20Z</time></trkpt><trkpt lat="42.10127366845962" lon="13.408436123279643"><ele>873.3333333333334</ele><time>2026-05-02T15:26:21Z</time></trkpt><trkpt lat="42.10130394617139" lon="13.408335585034429"><ele>872.5</ele><time>2026-05-02T15:26:21.999Z</time></trkpt><trkpt lat="42.10133460160724" lon="13.408233317572133"><ele>871.6666666666667</ele><time>2026-05-02T15:26:22.999Z</time></trkpt><trkpt lat="42.10136358483702" lon="13.408125647006665"><ele>870.8333333333334</ele><time>2026-05-02T15:26:23.999Z</time></trkpt><trkpt lat="42.1013901566709" lon="13.408015404967333"><ele>870.0</ele><time>2026-05-02T15:26:24.999Z</time></trkpt><trkpt lat="42.10140502655095" lon="13.407903261197424"><ele>869.6666666666666</ele><time>2026-05-02T15:26:25.999Z</time></trkpt><trkpt lat="42.10142138999912" lon="13.40780461385496"><ele>869.3333333333333</ele><time>2026-05-02T15:26:26.999Z</time></trkpt><trkpt lat="42.101452409519915" lon="13.407694636382288"><ele>869.0</ele><time>2026-05-02T15:26:27.999Z</time></trkpt><trkpt lat="42.10149285515688" lon="13.407594199693852"><ele>868.6666666666666</ele><time>2026-05-02T15:26:28.999Z</time></trkpt><trkpt lat="42.10153633683898" lon="13.407490478439628"><ele>868.3333333333333</ele><time>2026-05-02T15:26:29.999Z</time></trkpt><trkpt lat="42.10158103908218" lon="13.407395428182133"><ele>868.0</ele><time>2026-05-02T15:26:30.999Z</time></trkpt><trkpt lat="42.10162688863932" lon="13.40728869788681"><ele>867.6666666666666</ele><time>2026-05-02T15:26:31.999Z</time></trkpt><trkpt lat="42.101670973712444" lon="13.407186115330422"><ele>867.3333333333333</ele><time>2026-05-02T15:26:32.999Z</time></trkpt><trkpt lat="42.10171326580664" lon="13.40707619756903"><ele>867.0</ele><time>2026-05-02T15:26:33.999Z</time></trkpt><trkpt lat="42.101752724318764" lon="13.406987603864973"><ele>866.6666666666667</ele><time>2026-05-02T15:26:34.999Z</time></trkpt><trkpt lat="42.10179125120247" lon="13.406902740512667"><ele>866.3333333333334</ele><time>2026-05-02T15:26:35.999Z</time></trkpt><trkpt lat="42.101827117443726" lon="13.406827148335077"><ele>866.0</ele><time>2026-05-02T15:26:36.999Z</time></trkpt><trkpt lat="42.10185829190209" lon="13.406737301724766"><ele>865.0000000000001</ele><time>2026-05-02T15:26:37.999Z</time></trkpt><trkpt lat="42.10190186514045" lon="13.406664137804004"><ele>864.0</ele><time>2026-05-02T15:26:38.999Z</time></trkpt><trkpt lat="42.10195972555363" lon="13.406605097207752"><ele>863.0</ele><time>2026-05-02T15:26:39.999Z</time></trkpt><trkpt lat="42.10202635002585" lon="13.406549710955167"><ele>862.0</ele><time>2026-05-02T15:26:40.999Z</time></trkpt><trkpt lat="42.102091192877765" lon="13.406496529329539"><ele>861.0000000000001</ele><time>2026-05-02T15:26:41.999Z</time></trkpt><trkpt lat="42.10215893703148" lon="13.406435157117977"><ele>860.0</ele><time>2026-05-02T15:26:42.999Z</time></trkpt><trkpt lat="42.10222631414984" lon="13.406376612256219"><ele>859.1666666666667</ele><time>2026-05-02T15:26:43.999Z</time></trkpt><trkpt lat="42.10229737034055" lon="13.40630169719382"><ele>858.3333333333334</ele><time>2026-05-02T15:26:44.999Z</time></trkpt><trkpt lat="42.102365576893206" lon="13.406218481927967"><ele>857.5</ele><time>2026-05-02T15:26:45.999Z</time></trkpt><trkpt lat="42.10241860558474" lon="13.406116664905039"><ele>856.6666666666667</ele><time>2026-05-02T15:26:46.999Z</time></trkpt><trkpt lat="42.10246727311897" lon="13.406021580511013"><ele>855.8333333333334</ele><time>2026-05-02T15:26:47.999Z</time></trkpt><trkpt lat="42.10251591752818" lon="13.405945381145946"><ele>855.0</ele><time>2026-05-02T15:26:48.999Z</time></trkpt><trkpt lat="42.10256509279607" lon="13.405861096884156"><ele>854.8333333333334</ele><time>2026-05-02T15:26:49.999Z</time></trkpt><trkpt lat="42.10259433237649" lon="13.405775788678701"><ele>854.6666666666667</ele><time>2026-05-02T15:26:50.999Z</time></trkpt><trkpt lat="42.10261441052447" lon="13.405672431559946"><ele>854.5</ele><time>2026-05-02T15:26:51.999Z</time></trkpt><trkpt lat="42.102637491659344" lon="13.405559080854117"><ele>854.3333333333334</ele><time>2026-05-02T15:26:52.999Z</time></trkpt><trkpt lat="42.10266951099173" lon="13.405436306955085"><ele>854.1666666666667</ele><time>2026-05-02T15:26:53.999Z</time></trkpt><trkpt lat="42.10270395776582" lon="13.405334678965154"><ele>854.0</ele><time>2026-05-02T15:26:54.999Z</time></trkpt><trkpt lat="42.10274719232501" lon="13.405217674243657"><ele>853.4000000000001</ele><time>2026-05-02T15:26:55.999Z</time></trkpt><trkpt lat="42.10278478707658" lon="13.40510967243081"><ele>852.8000000000001</ele><time>2026-05-02T15:26:56.999Z</time></trkpt><trkpt lat="42.10283149548456" lon="13.40498818126558"><ele>852.2</ele><time>2026-05-02T15:26:57.999Z</time></trkpt><trkpt lat="42.10287507433801" lon="13.404870316947838"><ele>851.5999999999999</ele><time>2026-05-02T15:26:58.999Z</time></trkpt><trkpt lat="42.10291768981433" lon="13.404748474040694"><ele>851.0</ele><time>2026-05-02T15:26:59.999Z</time></trkpt><trkpt lat="42.1029493882769" lon="13.404638100487645"><ele>850.4</ele><time>2026-05-02T15:27:00.999Z</time></trkpt><trkpt lat="42.10298046125069" lon="13.40451689140696"><ele>849.8</ele><time>2026-05-02T15:27:01.999Z</time></trkpt><trkpt lat="42.10301139265468" lon="13.404401670064354"><ele>849.1999999999999</ele><time>2026-05-02T15:27:02.999Z</time></trkpt><trkpt lat="42.103052680188846" lon="13.40428246949783"><ele>848.5999999999999</ele><time>2026-05-02T15:27:03.999Z</time></trkpt><trkpt lat="42.10309568878048" lon="13.404163076053202"><ele>848.0</ele><time>2026-05-02T15:27:04.999Z</time></trkpt><trkpt lat="42.103149724338756" lon="13.404043638939518"><ele>848.0</ele><time>2026-05-02T15:27:05.999Z</time></trkpt><trkpt lat="42.10319095261473" lon="13.403935941063173"><ele>848.0</ele><time>2026-05-02T15:27:06.999Z</time></trkpt><trkpt lat="42.10324146359694" lon="13.403814515585209"><ele>848.0</ele><time>2026-05-02T15:27:07.999Z</time></trkpt><trkpt lat="42.103293340330744" lon="13.403715430520313"><ele>848.0</ele><time>2026-05-02T15:27:08.999Z</time></trkpt><trkpt lat="42.10334545354547" lon="13.40361887036462"><ele>848.0</ele><time>2026-05-02T15:27:09.999Z</time></trkpt><trkpt lat="42.10339279419238" lon="13.403519573418796"><ele>847.2</ele><time>2026-05-02T15:27:10.999Z</time></trkpt><trkpt lat="42.103443892780675" lon="13.403406921587372"><ele>846.4</ele><time>2026-05-02T15:27:11.999Z</time></trkpt><trkpt lat="42.10349758233851" lon="13.403296485664354"><ele>845.6</ele><time>2026-05-02T15:27:13Z</time></trkpt><trkpt lat="42.103539328228166" lon="13.40318342375561"><ele>844.8000000000001</ele><time>2026-05-02T15:27:14Z</time></trkpt><trkpt lat="42.10358791131386" lon="13.40308851966958"><ele>844.0</ele><time>2026-05-02T15:27:15Z</time></trkpt><trkpt lat="42.10363381998397" lon="13.402987076246548"><ele>843.3333333333333</ele><time>2026-05-02T15:27:16Z</time></trkpt><trkpt lat="42.10368065584539" lon="13.402885523283604"><ele>842.6666666666666</ele><time>2026-05-02T15:27:17Z</time></trkpt><trkpt lat="42.10372885288666" lon="13.402789608890316"><ele>842.0</ele><time>2026-05-02T15:27:18Z</time></trkpt><trkpt lat="42.1037795279817" lon="13.402692747191411"><ele>841.3333333333333</ele><time>2026-05-02T15:27:19Z</time></trkpt><trkpt lat="42.10383600850287" lon="13.402593504647898"><ele>840.6666666666666</ele><time>2026-05-02T15:27:20Z</time></trkpt><trkpt lat="42.10389344089884" lon="13.402504571645327"><ele>840.0</ele><time>2026-05-02T15:27:21Z</time></trkpt><trkpt lat="42.103952394079265" lon="13.402416010571494"><ele>840.0</ele><time>2026-05-02T15:27:22Z</time></trkpt><trkpt lat="42.10402116909063" lon="13.402327328580508"><ele>840.0</ele><time>2026-05-02T15:27:23Z</time></trkpt><trkpt lat="42.104091235611506" lon="13.402247597531517"><ele>840.0</ele><time>2026-05-02T15:27:24Z</time></trkpt><trkpt lat="42.104159300531464" lon="13.402159771146767"><ele>840.0</ele><time>2026-05-02T15:27:25Z</time></trkpt><trkpt lat="42.104223785034826" lon="13.402047327932138"><ele>840.0</ele><time>2026-05-02T15:27:26Z</time></trkpt><trkpt lat="42.10428271008292" lon="13.401932593141577"><ele>839.8</ele><time>2026-05-02T15:27:27Z</time></trkpt><trkpt lat="42.1043393882826" lon="13.401824967916086"><ele>839.6</ele><time>2026-05-02T15:27:28Z</time></trkpt><trkpt lat="42.104394710210336" lon="13.401711918881869"><ele>839.4000000000001</ele><time>2026-05-02T15:27:29Z</time></trkpt><trkpt lat="42.10445414532226" lon="13.401605048786777"><ele>839.2</ele><time>2026-05-02T15:27:30Z</time></trkpt><trkpt lat="42.104508935320915" lon="13.401497589804869"><ele>839.0</ele><time>2026-05-02T15:27:31Z</time></trkpt><trkpt lat="42.10457130914697" lon="13.40139384948948"><ele>838.4000000000001</ele><time>2026-05-02T15:27:32Z</time></trkpt><trkpt lat="42.104627814586806" lon="13.401297703740552"><ele>837.8</ele><time>2026-05-02T15:27:33Z</time></trkpt><trkpt lat="42.10468855156352" lon="13.40119138631051"><ele>837.2</ele><time>2026-05-02T15:27:34Z</time></trkpt><trkpt lat="42.104746944788" lon="13.401091701421574"><ele>836.5999999999999</ele><time>2026-05-02T15:27:35Z</time></trkpt><trkpt lat="42.10480931564995" lon="13.400979081858848"><ele>836.0</ele><time>2026-05-02T15:27:36Z</time></trkpt><trkpt lat="42.10486554489985" lon="13.40087180022493"><ele>836.3333333333334</ele><time>2026-05-02T15:27:37Z</time></trkpt><trkpt lat="42.10492351094477" lon="13.400772086995175"><ele>836.6666666666667</ele><time>2026-05-02T15:27:38Z</time></trkpt><trkpt lat="42.1049738181473" lon="13.400679568039589"><ele>837.0</ele><time>2026-05-02T15:27:39Z</time></trkpt><trkpt lat="42.10502990962254" lon="13.400580337532169"><ele>837.3333333333333</ele><time>2026-05-02T15:27:40Z</time></trkpt><trkpt lat="42.10508113818443" lon="13.40049685668993"><ele>837.6666666666666</ele><time>2026-05-02T15:27:41Z</time></trkpt><trkpt lat="42.105123161465286" lon="13.400410469952853"><ele>838.0</ele><time>2026-05-02T15:27:42Z</time></trkpt><trkpt lat="42.10518067736242" lon="13.400304605657373"><ele>837.3333333333333</ele><time>2026-05-02T15:27:43Z</time></trkpt><trkpt lat="42.10522968322476" lon="13.400213998102892"><ele>836.6666666666666</ele><time>2026-05-02T15:27:44Z</time></trkpt><trkpt lat="42.10527725785527" lon="13.40012414051747"><ele>836.0</ele><time>2026-05-02T15:27:45Z</time></trkpt><trkpt lat="42.10532689035121" lon="13.400037202736094"><ele>835.3333333333333</ele><time>2026-05-02T15:27:46Z</time></trkpt><trkpt lat="42.10538321471296" lon="13.399928412103401"><ele>834.6666666666666</ele><time>2026-05-02T15:27:47Z</time></trkpt><trkpt lat="42.1054280820995" lon="13.399811790158221"><ele>834.0</ele><time>2026-05-02T15:27:48Z</time></trkpt><trkpt lat="42.10547783406896" lon="13.399705731637084"><ele>833.8333333333334</ele><time>2026-05-02T15:27:49Z</time></trkpt><trkpt lat="42.10551811093786" lon="13.399607902887047"><ele>833.6666666666667</ele><time>2026-05-02T15:27:50Z</time></trkpt><trkpt lat="42.10555554385375" lon="13.39951323009166"><ele>833.5</ele><time>2026-05-02T15:27:51Z</time></trkpt><trkpt lat="42.10559005179489" lon="13.399411441220524"><ele>833.3333333333334</ele><time>2026-05-02T15:27:52Z</time></trkpt><trkpt lat="42.10561631843515" lon="13.399307500873814"><ele>833.1666666666667</ele><time>2026-05-02T15:27:53Z</time></trkpt><trkpt lat="42.10562502593081" lon="13.399188502904453"><ele>833.0</ele><time>2026-05-02T15:27:54Z</time></trkpt><trkpt lat="42.10562297926096" lon="13.399069589534296"><ele>833.0000000000001</ele><time>2026-05-02T15:27:55Z</time></trkpt><trkpt lat="42.10562021206978" lon="13.398973720914714"><ele>833.0</ele><time>2026-05-02T15:27:56Z</time></trkpt><trkpt lat="42.105639149955294" lon="13.398847366053726"><ele>833.0</ele><time>2026-05-02T15:27:58Z</time></trkpt><trkpt lat="42.1056670675103" lon="13.398735799367527"><ele>833.0</ele><time>2026-05-02T15:28:00Z</time></trkpt><trkpt lat="42.1057048743766" lon="13.398657694255132"><ele>833.0000000000001</ele><time>2026-05-02T15:28:01Z</time></trkpt><trkpt lat="42.10575949979719" lon="13.398572306147567"><ele>833.0</ele><time>2026-05-02T15:28:02Z</time></trkpt><trkpt lat="42.10583019570003" lon="13.398491235005608"><ele>833.0</ele><time>2026-05-02T15:28:03Z</time></trkpt><trkpt lat="42.10591699467704" lon="13.39842433810892"><ele>833.0</ele><time>2026-05-02T15:28:04Z</time></trkpt><trkpt lat="42.10600850398136" lon="13.398360293441764"><ele>833.0</ele><time>2026-05-02T15:28:05Z</time></trkpt><trkpt lat="42.1061009758975" lon="13.398296387705086"><ele>833.0</ele><time>2026-05-02T15:28:06Z</time></trkpt><trkpt lat="42.106193488269604" lon="13.398228363387064"><ele>833.0</ele><time>2026-05-02T15:28:07Z</time></trkpt><trkpt lat="42.10630025535184" lon="13.398155278499376"><ele>833.0</ele><time>2026-05-02T15:28:08Z</time></trkpt><trkpt lat="42.10640824334284" lon="13.398081250118064"><ele>833.0</ele><time>2026-05-02T15:28:09Z</time></trkpt><trkpt lat="42.10651115487385" lon="13.398001352105346"><ele>833.0</ele><time>2026-05-02T15:28:10Z</time></trkpt><trkpt lat="42.106607339177636" lon="13.397911875120734"><ele>833.0</ele><time>2026-05-02T15:28:11Z</time></trkpt><trkpt lat="42.106699828948805" lon="13.397802641272266"><ele>834.0</ele><time>2026-05-02T15:28:12Z</time></trkpt><trkpt lat="42.10677065958173" lon="13.397668334905887"><ele>835.0</ele><time>2026-05-02T15:28:13Z</time></trkpt><trkpt lat="42.10683422497443" lon="13.397524147897649"><ele>836.0</ele><time>2026-05-02T15:28:14Z</time></trkpt><trkpt lat="42.106951812916485" lon="13.397423087115182"><ele>837.0</ele><time>2026-05-02T15:28:15Z</time></trkpt><trkpt lat="42.107023354094686" lon="13.397287613928027"><ele>837.4000000000001</ele><time>2026-05-02T15:28:16Z</time></trkpt><trkpt lat="42.107083919540386" lon="13.397157239640302"><ele>837.8000000000001</ele><time>2026-05-02T15:28:17Z</time></trkpt><trkpt lat="42.10713179491142" lon="13.39703538065333"><ele>838.2</ele><time>2026-05-02T15:28:18Z</time></trkpt><trkpt lat="42.10717456858563" lon="13.396936759941815"><ele>838.6</ele><time>2026-05-02T15:28:19Z</time></trkpt><trkpt lat="42.10720626015707" lon="13.396858687622982"><ele>839.0</ele><time>2026-05-02T15:28:20Z</time></trkpt><trkpt lat="42.10720428033872" lon="13.396712793811636"><ele>839.0</ele><time>2026-05-02T15:28:22Z</time></trkpt><trkpt lat="42.10715979256929" lon="13.396647104253734"><ele>839.0</ele><time>2026-05-02T15:28:23Z</time></trkpt><trkpt lat="42.107096185451596" lon="13.39656401093761"><ele>839.0</ele><time>2026-05-02T15:28:24Z</time></trkpt><trkpt lat="42.107047456887734" lon="13.396460030112577"><ele>839.0</ele><time>2026-05-02T15:28:25Z</time></trkpt><trkpt lat="42.106993226241954" lon="13.396321841429335"><ele>839.0</ele><time>2026-05-02T15:28:26Z</time></trkpt><trkpt lat="42.106927244609565" lon="13.396178006218454"><ele>840.0</ele><time>2026-05-02T15:28:27Z</time></trkpt><trkpt lat="42.10685652647399" lon="13.39602404068486"><ele>841.0</ele><time>2026-05-02T15:28:27.999Z</time></trkpt><trkpt lat="42.10678019793489" lon="13.395863045228449"><ele>842.0</ele><time>2026-05-02T15:28:28.999Z</time></trkpt><trkpt lat="42.10670242368548" lon="13.395705204307403"><ele>843.0</ele><time>2026-05-02T15:28:29.999Z</time></trkpt><trkpt lat="42.10662418747973" lon="13.395528877910651"><ele>842.75</ele><time>2026-05-02T15:28:30.999Z</time></trkpt><trkpt lat="42.10654537938926" lon="13.395353984800101"><ele>842.5</ele><time>2026-05-02T15:28:31.999Z</time></trkpt><trkpt lat="42.10647102568998" lon="13.395200448755906"><ele>842.25</ele><time>2026-05-02T15:28:32.999Z</time></trkpt><trkpt lat="42.10640134107613" lon="13.395050498916309"><ele>842.0</ele><time>2026-05-02T15:28:33.999Z</time></trkpt><trkpt lat="42.10633813976621" lon="13.394902139622157"><ele>842.0</ele><time>2026-05-02T15:28:34.999Z</time></trkpt><trkpt lat="42.10627345383585" lon="13.394761845805778"><ele>842.0</ele><time>2026-05-02T15:28:35.999Z</time></trkpt><trkpt lat="42.106210458415674" lon="13.394619175308144"><ele>842.0</ele><time>2026-05-02T15:28:36.999Z</time></trkpt><trkpt lat="42.106152177466974" lon="13.39448386865633"><ele>842.0</ele><time>2026-05-02T15:28:37.999Z</time></trkpt><trkpt lat="42.10609963255507" lon="13.394374062386314"><ele>842.1666666666667</ele><time>2026-05-02T15:28:38.999Z</time></trkpt><trkpt lat="42.10606305603938" lon="13.39429529799666"><ele>842.3333333333334</ele><time>2026-05-02T15:28:39.999Z</time></trkpt><trkpt lat="42.10602246789993" lon="13.394221385773276"><ele>842.5</ele><time>2026-05-02T15:28:42.999Z</time></trkpt><trkpt lat="42.10591823623718" lon="13.394168968987108"><ele>842.6666666666667</ele><time>2026-05-02T15:28:44.999Z</time></trkpt><trkpt lat="42.10584017225972" lon="13.394134083183065"><ele>842.8333333333334</ele><time>2026-05-02T15:28:45.999Z</time></trkpt><trkpt lat="42.10575187221785" lon="13.394102013325302"><ele>843.0</ele><time>2026-05-02T15:28:46.999Z</time></trkpt><trkpt lat="42.10567104842671" lon="13.394062397547982"><ele>841.5</ele><time>2026-05-02T15:28:47.999Z</time></trkpt><trkpt lat="42.105598470898094" lon="13.39402616202554"><ele>840.0</ele><time>2026-05-02T15:28:48.999Z</time></trkpt><trkpt lat="42.10553010094238" lon="13.393986628137505"><ele>838.5</ele><time>2026-05-02T15:28:49.999Z</time></trkpt><trkpt lat="42.10546165742706" lon="13.393961550534895"><ele>837.0</ele><time>2026-05-02T15:28:50.999Z</time></trkpt><trkpt lat="42.10532869485037" lon="13.393978035513577"><ele>835.5</ele><time>2026-05-02T15:28:52.999Z</time></trkpt><trkpt lat="42.10525701193919" lon="13.394032787869541"><ele>834.0</ele><time>2026-05-02T15:28:53.999Z</time></trkpt><trkpt lat="42.105188294786345" lon="13.394108726072298"><ele>834.0</ele><time>2026-05-02T15:28:54.999Z</time></trkpt><trkpt lat="42.10512740900317" lon="13.394193166966287"><ele>834.0</ele><time>2026-05-02T15:28:55.999Z</time></trkpt><trkpt lat="42.10507300647083" lon="13.394265765264759"><ele>834.0</ele><time>2026-05-02T15:28:56.999Z</time></trkpt><trkpt lat="42.105001393610294" lon="13.39434427678547"><ele>834.0</ele><time>2026-05-02T15:28:58.999Z</time></trkpt><trkpt lat="42.104933719848574" lon="13.394269715774595"><ele>834.0</ele><time>2026-05-02T15:29:10.999Z</time></trkpt><trkpt lat="42.10492421774339" lon="13.394121974463491"><ele>834.0</ele><time>2026-05-02T15:29:12.999Z</time></trkpt><trkpt lat="42.10493622126482" lon="13.394018305228412"><ele>834.0</ele><time>2026-05-02T15:29:13.999Z</time></trkpt><trkpt lat="42.104949779084535" lon="13.393932883143597"><ele>834.0</ele><time>2026-05-02T15:29:14.999Z</time></trkpt><trkpt lat="42.10497118492136" lon="13.393828286649988"><ele>834.0</ele><time>2026-05-02T15:29:15.999Z</time></trkpt><trkpt lat="42.1049925021677" lon="13.393726286035054"><ele>834.0</ele><time>2026-05-02T15:29:16.999Z</time></trkpt><trkpt lat="42.10500983737661" lon="13.393629628377731"><ele>834.0</ele><time>2026-05-02T15:29:17.999Z</time></trkpt><trkpt lat="42.105043999462175" lon="13.393496773704928"><ele>833.0</ele><time>2026-05-02T15:29:19Z</time></trkpt><trkpt lat="42.105087569671326" lon="13.393350476710223"><ele>832.0</ele><time>2026-05-02T15:29:20Z</time></trkpt><trkpt lat="42.105140053547565" lon="13.393201241099224"><ele>831.0</ele><time>2026-05-02T15:29:21Z</time></trkpt><trkpt lat="42.10518815883742" lon="13.393047313497858"><ele>830.0</ele><time>2026-05-02T15:29:22Z</time></trkpt><trkpt lat="42.10521050578312" lon="13.392892934671286"><ele>828.25</ele><time>2026-05-02T15:29:23Z</time></trkpt><trkpt lat="42.10522584816885" lon="13.392749526881625"><ele>826.5</ele><time>2026-05-02T15:29:24Z</time></trkpt><trkpt lat="42.105225613581375" lon="13.392609819049117"><ele>824.75</ele><time>2026-05-02T15:29:25Z</time></trkpt><trkpt lat="42.105192222575965" lon="13.392458666635559"><ele>823.0</ele><time>2026-05-02T15:29:26Z</time></trkpt><trkpt lat="42.105127940732885" lon="13.392302154058411"><ele>822.75</ele><time>2026-05-02T15:29:27Z</time></trkpt><trkpt lat="42.10504770012847" lon="13.392147123585278"><ele>822.5</ele><time>2026-05-02T15:29:28Z</time></trkpt><trkpt lat="42.1049750893218" lon="13.391986101754824"><ele>822.25</ele><time>2026-05-02T15:29:29Z</time></trkpt><trkpt lat="42.10491234477301" lon="13.391828821753768"><ele>822.0</ele><time>2026-05-02T15:29:30Z</time></trkpt><trkpt lat="42.104857805069976" lon="13.391679212853806"><ele>822.0</ele><time>2026-05-02T15:29:31Z</time></trkpt><trkpt lat="42.104817096563046" lon="13.391522279394936"><ele>822.0</ele><time>2026-05-02T15:29:32Z</time></trkpt><trkpt lat="42.10476854499981" lon="13.391365333717447"><ele>822.0</ele><time>2026-05-02T15:29:33Z</time></trkpt><trkpt lat="42.10472767848698" lon="13.391196371290231"><ele>822.0</ele><time>2026-05-02T15:29:34Z</time></trkpt><trkpt lat="42.104690658082035" lon="13.391026776481587"><ele>823.5</ele><time>2026-05-02T15:29:35Z</time></trkpt><trkpt lat="42.10465206233293" lon="13.390857972069027"><ele>825.0</ele><time>2026-05-02T15:29:36Z</time></trkpt><trkpt lat="42.10461149414989" lon="13.39068909965419"><ele>826.5</ele><time>2026-05-02T15:29:37Z</time></trkpt><trkpt lat="42.104569730190384" lon="13.390529188159412"><ele>828.0</ele><time>2026-05-02T15:29:38Z</time></trkpt><trkpt lat="42.104527285053734" lon="13.390374421581615"><ele>828.5999999999999</ele><time>2026-05-02T15:29:39Z</time></trkpt><trkpt lat="42.10449577919314" lon="13.390225834939063"><ele>829.1999999999999</ele><time>2026-05-02T15:29:40Z</time></trkpt><trkpt lat="42.104466086311746" lon="13.390089170910768"><ele>829.8</ele><time>2026-05-02T15:29:41Z</time></trkpt><trkpt lat="42.10445166646304" lon="13.389970586497931"><ele>830.4</ele><time>2026-05-02T15:29:42Z</time></trkpt><trkpt lat="42.104434451733596" lon="13.389861792425066"><ele>831.0</ele><time>2026-05-02T15:29:43Z</time></trkpt><trkpt lat="42.104445385214724" lon="13.389705267831696"><ele>831.1666666666666</ele><time>2026-05-02T15:29:44.999Z</time></trkpt><trkpt lat="42.10438077140468" lon="13.389621982248137"><ele>831.3333333333333</ele><time>2026-05-02T15:29:46.999Z</time></trkpt><trkpt lat="42.10431884054517" lon="13.389596107134478"><ele>831.5</ele><time>2026-05-02T15:29:47.999Z</time></trkpt><trkpt lat="42.104239927378224" lon="13.389561308310705"><ele>831.6666666666666</ele><time>2026-05-02T15:29:48.999Z</time></trkpt><trkpt lat="42.10414669244495" lon="13.389541413808645"><ele>831.8333333333333</ele><time>2026-05-02T15:29:49.999Z</time></trkpt><trkpt lat="42.1040599041549" lon="13.389528911489451"><ele>832.0</ele><time>2026-05-02T15:29:50.999Z</time></trkpt><trkpt lat="42.10398130114774" lon="13.389517149324174"><ele>831.4999999999999</ele><time>2026-05-02T15:29:51.999Z</time></trkpt><trkpt lat="42.103907016417956" lon="13.389502600107276"><ele>831.0</ele><time>2026-05-02T15:29:52.999Z</time></trkpt><trkpt lat="42.10383250837913" lon="13.389491498838394"><ele>830.5</ele><time>2026-05-02T15:29:53.999Z</time></trkpt><trkpt lat="42.10375794502148" lon="13.389478228535452"><ele>830.0</ele><time>2026-05-02T15:29:54.999Z</time></trkpt><trkpt lat="42.10365225392124" lon="13.389433456463717"><ele>829.4999999999999</ele><time>2026-05-02T15:29:56.999Z</time></trkpt><trkpt lat="42.10359766622051" lon="13.389364686092762"><ele>829.0</ele><time>2026-05-02T15:29:57.999Z</time></trkpt><trkpt lat="42.1035436201677" lon="13.389250045919011"><ele>829.0</ele><time>2026-05-02T15:29:58.999Z</time></trkpt><trkpt lat="42.10349664737682" lon="13.389115598927923"><ele>829.0</ele><time>2026-05-02T15:29:59.999Z</time></trkpt><trkpt lat="42.1034516144222" lon="13.38897352172301"><ele>829.0</ele><time>2026-05-02T15:30:00.999Z</time></trkpt><trkpt lat="42.10340713934201" lon="13.388832510836139"><ele>829.0</ele><time>2026-05-02T15:30:01.999Z</time></trkpt><trkpt lat="42.103354519092306" lon="13.388705904211673"><ele>829.0</ele><time>2026-05-02T15:30:02.999Z</time></trkpt><trkpt lat="42.1033021299715" lon="13.388587498372358"><ele>827.6</ele><time>2026-05-02T15:30:03.999Z</time></trkpt><trkpt lat="42.10324671081798" lon="13.388464193733933"><ele>826.2</ele><time>2026-05-02T15:30:04.999Z</time></trkpt><trkpt lat="42.10319109560638" lon="13.388351641353777"><ele>824.8000000000001</ele><time>2026-05-02T15:30:05.999Z</time></trkpt><trkpt lat="42.10314601376621" lon="13.388260899939196"><ele>823.4000000000001</ele><time>2026-05-02T15:30:06.999Z</time></trkpt><trkpt lat="42.10311734955804" lon="13.388180153844646"><ele>822.0</ele><time>2026-05-02T15:30:07.999Z</time></trkpt><trkpt lat="42.103145839814744" lon="13.388051003432311"><ele>822.5</ele><time>2026-05-02T15:30:09.999Z</time></trkpt><trkpt lat="42.10319222652673" lon="13.387982223322902"><ele>823.0</ele><time>2026-05-02T15:30:10.999Z</time></trkpt><trkpt lat="42.10322091094577" lon="13.387895484044954"><ele>823.5</ele><time>2026-05-02T15:30:11.999Z</time></trkpt><trkpt lat="42.10321237168507" lon="13.387787315165797"><ele>824.0</ele><time>2026-05-02T15:30:12.999Z</time></trkpt><trkpt lat="42.103169978102464" lon="13.387686023410149"><ele>824.5</ele><time>2026-05-02T15:30:13.999Z</time></trkpt><trkpt lat="42.103126245883985" lon="13.387596898596549"><ele>825.0</ele><time>2026-05-02T15:30:14.999Z</time></trkpt><trkpt lat="42.10307378354349" lon="13.387475241630824"><ele>825.0</ele><time>2026-05-02T15:30:16.999Z</time></trkpt><trkpt lat="42.10303635021222" lon="13.387364879960968"><ele>825.0</ele><time>2026-05-02T15:30:18.999Z</time></trkpt><trkpt lat="42.102985538957505" lon="13.387266120269272"><ele>825.0</ele><time>2026-05-02T15:30:20.998Z</time></trkpt><trkpt lat="42.102942785946354" lon="13.387123873762501"><ele>825.0</ele><time>2026-05-02T15:30:22.998Z</time></trkpt><trkpt lat="42.10293370755977" lon="13.387006360027037"><ele>825.0</ele><time>2026-05-02T15:30:24.998Z</time></trkpt><trkpt lat="42.10297878267197" lon="13.386910969370463"><ele>825.0</ele><time>2026-05-02T15:30:26.998Z</time></trkpt><trkpt lat="42.10297679335149" lon="13.386761575089695"><ele>825.0</ele><time>2026-05-02T15:30:28.998Z</time></trkpt><trkpt lat="42.102951455194194" lon="13.38668230461317"><ele>825.0</ele><time>2026-05-02T15:30:29.998Z</time></trkpt><trkpt lat="42.10290682741383" lon="13.386603324648382"><ele>825.0</ele><time>2026-05-02T15:30:30.998Z</time></trkpt><trkpt lat="42.10286044736276" lon="13.386529543464798"><ele>825.0</ele><time>2026-05-02T15:30:31.998Z</time></trkpt><trkpt lat="42.10282363058068" lon="13.38643662431036"><ele>825.0</ele><time>2026-05-02T15:30:32.998Z</time></trkpt><trkpt lat="42.10279568834454" lon="13.386345607741797"><ele>825.1666666666666</ele><time>2026-05-02T15:30:33.998Z</time></trkpt><trkpt lat="42.10275590812549" lon="13.386253479478482"><ele>825.3333333333333</ele><time>2026-05-02T15:30:34.998Z</time></trkpt><trkpt lat="42.102706035034146" lon="13.386148156633494"><ele>825.5</ele><time>2026-05-02T15:30:35.998Z</time></trkpt><trkpt lat="42.10265367147541" lon="13.386042672043386"><ele>825.6666666666666</ele><time>2026-05-02T15:30:36.998Z</time></trkpt><trkpt lat="42.10260562089889" lon="13.385951991289911"><ele>825.8333333333333</ele><time>2026-05-02T15:30:37.998Z</time></trkpt><trkpt lat="42.102558279841624" lon="13.385874041663952"><ele>826.0</ele><time>2026-05-02T15:30:38.998Z</time></trkpt><trkpt lat="42.10250532558923" lon="13.3857781414779"><ele>825.9999999999999</ele><time>2026-05-02T15:30:39.998Z</time></trkpt><trkpt lat="42.10245212242203" lon="13.385685437509485"><ele>826.0</ele><time>2026-05-02T15:30:40.998Z</time></trkpt><trkpt lat="42.102410096122" lon="13.385610196400382"><ele>826.0</ele><time>2026-05-02T15:30:41.998Z</time></trkpt><trkpt lat="42.10234153574065" lon="13.385494158215025"><ele>826.0</ele><time>2026-05-02T15:30:43.998Z</time></trkpt><trkpt lat="42.102294470610104" lon="13.385417975109355"><ele>825.9999999999999</ele><time>2026-05-02T15:30:46.998Z</time></trkpt><trkpt lat="42.102290715816764" lon="13.385319620853267"><ele>826.0</ele><time>2026-05-02T15:30:48.998Z</time></trkpt><trkpt lat="42.10232463859405" lon="13.385247353835116"><ele>826.4</ele><time>2026-05-02T15:30:50.998Z</time></trkpt><trkpt lat="42.10238858622816" lon="13.385146996898317"><ele>826.8</ele><time>2026-05-02T15:31:00.998Z</time></trkpt><trkpt lat="42.10247971707644" lon="13.385020077107994"><ele>827.1999999999999</ele><time>2026-05-02T15:31:02.998Z</time></trkpt><trkpt lat="42.10253333378942" lon="13.384938901558792"><ele>827.5999999999999</ele><time>2026-05-02T15:31:03.998Z</time></trkpt><trkpt lat="42.10259055420934" lon="13.384871504703924"><ele>828.0</ele><time>2026-05-02T15:31:04.998Z</time></trkpt><trkpt lat="42.102641940325086" lon="13.384810225794423"><ele>828.0000000000001</ele><time>2026-05-02T15:31:05.998Z</time></trkpt><trkpt lat="42.102703259055424" lon="13.38474819956642"><ele>828.0</ele><time>2026-05-02T15:31:06.998Z</time></trkpt><trkpt lat="42.10276632556725" lon="13.384696980882126"><ele>828.0</ele><time>2026-05-02T15:31:07.998Z</time></trkpt><trkpt lat="42.102829376604575" lon="13.384672063541139"><ele>828.0</ele><time>2026-05-02T15:31:08.998Z</time></trkpt><trkpt lat="42.10289165659391" lon="13.384638159612575"><ele>828.0</ele><time>2026-05-02T15:31:09.998Z</time></trkpt><trkpt lat="42.10294664332539" lon="13.384572237275632"><ele>828.0000000000001</ele><time>2026-05-02T15:31:10.998Z</time></trkpt><trkpt lat="42.102997207222366" lon="13.384492452433282"><ele>828.0</ele><time>2026-05-02T15:31:11.998Z</time></trkpt><trkpt lat="42.103059251096354" lon="13.384405244336172"><ele>828.1666666666666</ele><time>2026-05-02T15:31:12.998Z</time></trkpt><trkpt lat="42.10312157190616" lon="13.384324005354337"><ele>828.3333333333333</ele><time>2026-05-02T15:31:13.998Z</time></trkpt><trkpt lat="42.10318724533609" lon="13.384231900782172"><ele>828.5</ele><time>2026-05-02T15:31:14.998Z</time></trkpt><trkpt lat="42.10324956055101" lon="13.384136755572419"><ele>828.6666666666666</ele><time>2026-05-02T15:31:15.998Z</time></trkpt><trkpt lat="42.10330876814033" lon="13.384036879848757"><ele>828.8333333333333</ele><time>2026-05-02T15:31:16.998Z</time></trkpt><trkpt lat="42.103350489486886" lon="13.383948258525388"><ele>829.0</ele><time>2026-05-02T15:31:17.998Z</time></trkpt><trkpt lat="42.10338892256888" lon="13.383863873624547"><ele>829.9999999999999</ele><time>2026-05-02T15:31:18.998Z</time></trkpt><trkpt lat="42.10343176556225" lon="13.383783177361973"><ele>831.0</ele><time>2026-05-02T15:31:19.998Z</time></trkpt><trkpt lat="42.10351180004144" lon="13.38367205063765"><ele>832.0</ele><time>2026-05-02T15:31:21.998Z</time></trkpt><trkpt lat="42.103565675151316" lon="13.383625958960398"><ele>833.0</ele><time>2026-05-02T15:31:22.998Z</time></trkpt><trkpt lat="42.10361953167004" lon="13.383576579956383"><ele>833.9999999999999</ele><time>2026-05-02T15:31:23.998Z</time></trkpt><trkpt lat="42.103680249729045" lon="13.383515713410342"><ele>835.0</ele><time>2026-05-02T15:31:24.999Z</time></trkpt><trkpt lat="42.103747579110134" lon="13.383457154056176"><ele>835.0000000000001</ele><time>2026-05-02T15:31:25.999Z</time></trkpt><trkpt lat="42.10380906402856" lon="13.383402003101518"><ele>835.0</ele><time>2026-05-02T15:31:26.999Z</time></trkpt><trkpt lat="42.10386516929807" lon="13.383341716404177"><ele>835.0</ele><time>2026-05-02T15:31:27.999Z</time></trkpt><trkpt lat="42.10392020854051" lon="13.383284587700135"><ele>835.0</ele><time>2026-05-02T15:31:28.999Z</time></trkpt><trkpt lat="42.1039768027513" lon="13.383223763301093"><ele>835.0</ele><time>2026-05-02T15:31:29.999Z</time></trkpt><trkpt lat="42.10403044222518" lon="13.383176309368032"><ele>835.0000000000001</ele><time>2026-05-02T15:31:30.999Z</time></trkpt><trkpt lat="42.10409057422186" lon="13.383147065432324"><ele>835.0</ele><time>2026-05-02T15:31:31.999Z</time></trkpt><trkpt lat="42.10415809228131" lon="13.383130034174803"><ele>836.4999999999999</ele><time>2026-05-02T15:31:32.999Z</time></trkpt><trkpt lat="42.104224655941984" lon="13.383107430747037"><ele>838.0</ele><time>2026-05-02T15:31:34Z</time></trkpt><trkpt lat="42.10429456500669" lon="13.383067522130927"><ele>839.5</ele><time>2026-05-02T15:31:35Z</time></trkpt><trkpt lat="42.104367078345796" lon="13.383015644103464"><ele>841.0</ele><time>2026-05-02T15:31:36Z</time></trkpt><trkpt lat="42.104438481507" lon="13.382966606969143"><ele>842.4999999999999</ele><time>2026-05-02T15:31:37Z</time></trkpt><trkpt lat="42.104518434032286" lon="13.382921597291565"><ele>844.0</ele><time>2026-05-02T15:31:38Z</time></trkpt><trkpt lat="42.10459975308394" lon="13.382888630979698"><ele>843.9999999999999</ele><time>2026-05-02T15:31:39Z</time></trkpt><trkpt lat="42.10467609443582" lon="13.382860930903211"><ele>844.0</ele><time>2026-05-02T15:31:40Z</time></trkpt><trkpt lat="42.104751169212214" lon="13.382823423356287"><ele>844.0</ele><time>2026-05-02T15:31:41Z</time></trkpt><trkpt lat="42.104822914075825" lon="13.38278770482001"><ele>844.0</ele><time>2026-05-02T15:31:42Z</time></trkpt><trkpt lat="42.10489452405425" lon="13.382755594978505"><ele>843.9999999999999</ele><time>2026-05-02T15:31:43Z</time></trkpt><trkpt lat="42.104971145988145" lon="13.382731367587228"><ele>844.0</ele><time>2026-05-02T15:31:44Z</time></trkpt><trkpt lat="42.10504065040258" lon="13.382728036596124"><ele>844.9999999999999</ele><time>2026-05-02T15:31:45Z</time></trkpt><trkpt lat="42.105118952553816" lon="13.382736490604744"><ele>846.0</ele><time>2026-05-02T15:31:46Z</time></trkpt><trkpt lat="42.10519415387935" lon="13.382753145140388"><ele>847.0</ele><time>2026-05-02T15:31:47Z</time></trkpt><trkpt lat="42.10526916629838" lon="13.382771142727133"><ele>848.0</ele><time>2026-05-02T15:31:48Z</time></trkpt><trkpt lat="42.105348692060815" lon="13.38279135574136"><ele>848.9999999999999</ele><time>2026-05-02T15:31:49Z</time></trkpt><trkpt lat="42.10542804852097" lon="13.3827988635855"><ele>850.0</ele><time>2026-05-02T15:31:50Z</time></trkpt><trkpt lat="42.105510895987976" lon="13.382790632457793"><ele>849.9999999999999</ele><time>2026-05-02T15:31:51Z</time></trkpt><trkpt lat="42.105593991196045" lon="13.38278785221578"><ele>850.0</ele><time>2026-05-02T15:31:52Z</time></trkpt><trkpt lat="42.105678131248524" lon="13.382802220735616"><ele>850.0</ele><time>2026-05-02T15:31:53Z</time></trkpt><trkpt lat="42.10576491346543" lon="13.382827621282232"><ele>850.0</ele><time>2026-05-02T15:31:54Z</time></trkpt><trkpt lat="42.105851424553826" lon="13.382847434161004"><ele>849.9999999999999</ele><time>2026-05-02T15:31:55Z</time></trkpt><trkpt lat="42.10593254859895" lon="13.382845298864199"><ele>850.0</ele><time>2026-05-02T15:31:56Z</time></trkpt><trkpt lat="42.10602351436813" lon="13.382830571943959"><ele>851.1666666666666</ele><time>2026-05-02T15:31:57Z</time></trkpt><trkpt lat="42.10611810118002" lon="13.382823335478134"><ele>852.3333333333333</ele><time>2026-05-02T15:31:58Z</time></trkpt><trkpt lat="42.10620383132994" lon="13.382824887663705"><ele>853.5</ele><time>2026-05-02T15:31:59Z</time></trkpt><trkpt lat="42.10627394921232" lon="13.382819945859092"><ele>854.6666666666667</ele><time>2026-05-02T15:32:00Z</time></trkpt><trkpt lat="42.10634771076819" lon="13.382818167814147"><ele>855.8333333333334</ele><time>2026-05-02T15:32:01Z</time></trkpt><trkpt lat="42.10642222480099" lon="13.382824056808328"><ele>857.0</ele><time>2026-05-02T15:32:02Z</time></trkpt><trkpt lat="42.10648543825006" lon="13.382838577920776"><ele>858.6</ele><time>2026-05-02T15:32:03Z</time></trkpt><trkpt lat="42.10658643766204" lon="13.382916668900402"><ele>860.2</ele><time>2026-05-02T15:32:05Z</time></trkpt><trkpt lat="42.10665633833048" lon="13.383054413083403"><ele>861.8</ele><time>2026-05-02T15:32:07Z</time></trkpt><trkpt lat="42.10670165112703" lon="13.383116248176279"><ele>863.4</ele><time>2026-05-02T15:32:08Z</time></trkpt><trkpt lat="42.10680734950259" lon="13.383157019739437"><ele>865.0</ele><time>2026-05-02T15:32:10Z</time></trkpt><trkpt lat="42.106895576077925" lon="13.383222576077841"><ele>865.0</ele><time>2026-05-02T15:32:12Z</time></trkpt><trkpt lat="42.10692953953431" lon="13.383382776526984"><ele>865.0</ele><time>2026-05-02T15:32:14Z</time></trkpt><trkpt lat="42.106994327408344" lon="13.383502581293047"><ele>865.0</ele><time>2026-05-02T15:32:16Z</time></trkpt><trkpt lat="42.10706385176357" lon="13.383462565087768"><ele>865.0</ele><time>2026-05-02T15:32:18Z</time></trkpt><trkpt lat="42.107080112097876" lon="13.383344277687696"><ele>865.0</ele><time>2026-05-02T15:32:20Z</time></trkpt><trkpt lat="42.107176232636064" lon="13.383265592202102"><ele>864.9999999999999</ele><time>2026-05-02T15:32:22Z</time></trkpt><trkpt lat="42.107231554906065" lon="13.383218879808753"><ele>865.0</ele><time>2026-05-02T15:32:23Z</time></trkpt><trkpt lat="42.10729208414553" lon="13.383163147456605"><ele>865.0</ele><time>2026-05-02T15:32:24Z</time></trkpt><trkpt lat="42.10735160209598" lon="13.383110565189886"><ele>865.0</ele><time>2026-05-02T15:32:25Z</time></trkpt><trkpt lat="42.107410409398646" lon="13.383064081524155"><ele>864.9999999999999</ele><time>2026-05-02T15:32:26Z</time></trkpt><trkpt lat="42.107507392267216" lon="13.38299373296482"><ele>865.0</ele><time>2026-05-02T15:32:28Z</time></trkpt><trkpt lat="42.107612284576035" lon="13.382901271522474"><ele>866.6666666666666</ele><time>2026-05-02T15:32:30Z</time></trkpt><trkpt lat="42.10774331006058" lon="13.382890132240487"><ele>868.3333333333333</ele><time>2026-05-02T15:32:32Z</time></trkpt><trkpt lat="42.10781541256648" lon="13.382890264172326"><ele>870.0</ele><time>2026-05-02T15:32:33Z</time></trkpt><trkpt lat="42.1078805557207" lon="13.38286908940244"><ele>871.6666666666667</ele><time>2026-05-02T15:32:34Z</time></trkpt><trkpt lat="42.10796068177305" lon="13.382840367208892"><ele>873.3333333333334</ele><time>2026-05-02T15:32:35Z</time></trkpt><trkpt lat="42.10804139421995" lon="13.382815054576577"><ele>875.0</ele><time>2026-05-02T15:32:36Z</time></trkpt><trkpt lat="42.10811795949795" lon="13.382793398715998"><ele>875.0000000000001</ele><time>2026-05-02T15:32:37Z</time></trkpt><trkpt lat="42.1081884476122" lon="13.38278912629698"><ele>875.0</ele><time>2026-05-02T15:32:38Z</time></trkpt><trkpt lat="42.10826487477372" lon="13.38278595838329"><ele>875.0</ele><time>2026-05-02T15:32:39Z</time></trkpt><trkpt lat="42.10833769711209" lon="13.38276682495761"><ele>875.0</ele><time>2026-05-02T15:32:40Z</time></trkpt><trkpt lat="42.10840872354201" lon="13.382740971212936"><ele>875.0000000000001</ele><time>2026-05-02T15:32:41Z</time></trkpt><trkpt lat="42.10853118988717" lon="13.382740375690698"><ele>875.0</ele><time>2026-05-02T15:32:43Z</time></trkpt><trkpt lat="42.10860094975799" lon="13.382725662067838"><ele>875.6666666666667</ele><time>2026-05-02T15:32:44Z</time></trkpt><trkpt lat="42.10866556806603" lon="13.38269303340291"><ele>876.3333333333334</ele><time>2026-05-02T15:32:45Z</time></trkpt><trkpt lat="42.1087185649794" lon="13.382642985772145"><ele>877.0</ele><time>2026-05-02T15:32:46Z</time></trkpt><trkpt lat="42.108825486675556" lon="13.382584961640788"><ele>877.6666666666667</ele><time>2026-05-02T15:32:48Z</time></trkpt><trkpt lat="42.108889721614766" lon="13.3825711917327"><ele>878.3333333333334</ele><time>2026-05-02T15:32:48.999Z</time></trkpt><trkpt lat="42.10895395090428" lon="13.382537986177205"><ele>879.0</ele><time>2026-05-02T15:32:49.999Z</time></trkpt><trkpt lat="42.10901800397196" lon="13.382489652792525"><ele>880.0</ele><time>2026-05-02T15:32:50.999Z</time></trkpt><trkpt lat="42.109089790890025" lon="13.382442785133218"><ele>881.0</ele><time>2026-05-02T15:32:51.999Z</time></trkpt><trkpt lat="42.10916760256375" lon="13.382414458113924"><ele>882.0</ele><time>2026-05-02T15:32:52.999Z</time></trkpt><trkpt lat="42.10925365010921" lon="13.382374025484634"><ele>883.0</ele><time>2026-05-02T15:32:53.999Z</time></trkpt><trkpt lat="42.109344152578934" lon="13.382329437410801"><ele>884.0</ele><time>2026-05-02T15:32:54.999Z</time></trkpt><trkpt lat="42.109435558350974" lon="13.382282689973643"><ele>885.0</ele><time>2026-05-02T15:32:55.999Z</time></trkpt><trkpt lat="42.109519191829406" lon="13.382240406532093"><ele>885.0</ele><time>2026-05-02T15:32:56.999Z</time></trkpt><trkpt lat="42.10959228118776" lon="13.382203129668031"><ele>885.0</ele><time>2026-05-02T15:32:57.999Z</time></trkpt><trkpt lat="42.10965254949291" lon="13.382162705557075"><ele>885.0</ele><time>2026-05-02T15:32:58.999Z</time></trkpt><trkpt lat="42.10970442262484" lon="13.382104131156023"><ele>885.0</ele><time>2026-05-02T15:32:59.999Z</time></trkpt><trkpt lat="42.10975274971937" lon="13.382044536851392"><ele>885.0</ele><time>2026-05-02T15:33:00.999Z</time></trkpt><trkpt lat="42.109836521718336" lon="13.382015273682045"><ele>885.0</ele><time>2026-05-02T15:33:02.999Z</time></trkpt><trkpt lat="42.10993722709437" lon="13.382074324666654"><ele>886.1666666666666</ele><time>2026-05-02T15:33:04.999Z</time></trkpt><trkpt lat="42.11003660017909" lon="13.382126117833971"><ele>887.3333333333333</ele><time>2026-05-02T15:33:06.999Z</time></trkpt><trkpt lat="42.11010317155618" lon="13.382129943010282"><ele>888.5</ele><time>2026-05-02T15:33:07.999Z</time></trkpt><trkpt lat="42.1101778716947" lon="13.382118170868683"><ele>889.6666666666666</ele><time>2026-05-02T15:33:08.999Z</time></trkpt><trkpt lat="42.11025941336628" lon="13.382093157317977"><ele>890.8333333333333</ele><time>2026-05-02T15:33:09.999Z</time></trkpt><trkpt lat="42.11033635941424" lon="13.382070844430286"><ele>892.0</ele><time>2026-05-02T15:33:10.999Z</time></trkpt><trkpt lat="42.11040030997998" lon="13.382049148508635"><ele>891.9999999999999</ele><time>2026-05-02T15:33:11.999Z</time></trkpt><trkpt lat="42.11049326893569" lon="13.382002247628858"><ele>892.0</ele><time>2026-05-02T15:33:13.999Z</time></trkpt><trkpt lat="42.110544292402935" lon="13.381951526977113"><ele>892.0</ele><time>2026-05-02T15:33:16.999Z</time></trkpt><trkpt lat="42.11053259070647" lon="13.381862871509478"><ele>892.0</ele><time>2026-05-02T15:33:18.999Z</time></trkpt><trkpt lat="42.110517225059304" lon="13.381769503996052"><ele>891.9999999999999</ele><time>2026-05-02T15:33:19.999Z</time></trkpt><trkpt lat="42.110513164582464" lon="13.381673763695716"><ele>892.0</ele><time>2026-05-02T15:33:20.999Z</time></trkpt><trkpt lat="42.11050776188824" lon="13.381553903806434"><ele>892.0</ele><time>2026-05-02T15:33:21.999Z</time></trkpt><trkpt lat="42.11050590872267" lon="13.381419488462525"><ele>892.0</ele><time>2026-05-02T15:33:22.999Z</time></trkpt><trkpt lat="42.110504451551925" lon="13.38128150235811"><ele>892.0</ele><time>2026-05-02T15:33:23.999Z</time></trkpt><trkpt lat="42.11050737762697" lon="13.381142876617345"><ele>892.0</ele><time>2026-05-02T15:33:24.999Z</time></trkpt><trkpt lat="42.110510636062" lon="13.381012661160744"><ele>892.0</ele><time>2026-05-02T15:33:25.999Z</time></trkpt><trkpt lat="42.1105170771635" lon="13.380913580453816"><ele>892.3333333333333</ele><time>2026-05-02T15:33:26.999Z</time></trkpt><trkpt lat="42.110521473230754" lon="13.380812051792466"><ele>892.6666666666666</ele><time>2026-05-02T15:33:27.999Z</time></trkpt><trkpt lat="42.11051529127888" lon="13.380691711659203"><ele>893.0</ele><time>2026-05-02T15:33:28.999Z</time></trkpt><trkpt lat="42.110506805077826" lon="13.380574680122992"><ele>893.3333333333333</ele><time>2026-05-02T15:33:29.999Z</time></trkpt><trkpt lat="42.110501663998946" lon="13.380448445342672"><ele>893.6666666666666</ele><time>2026-05-02T15:33:31Z</time></trkpt><trkpt lat="42.1104951937903" lon="13.380334686805107"><ele>894.0</ele><time>2026-05-02T15:33:32Z</time></trkpt><trkpt lat="42.1104943190649" lon="13.380248174053111"><ele>894.1666666666666</ele><time>2026-05-02T15:33:33Z</time></trkpt><trkpt lat="42.110494008726114" lon="13.380151685089618"><ele>894.3333333333333</ele><time>2026-05-02T15:33:35Z</time></trkpt><trkpt lat="42.11053933385389" lon="13.380060754828119"><ele>894.5</ele><time>2026-05-02T15:33:39Z</time></trkpt><trkpt lat="42.11058426869659" lon="13.37992892655012"><ele>894.6666666666666</ele><time>2026-05-02T15:33:41Z</time></trkpt><trkpt lat="42.11056596075259" lon="13.379847296755843"><ele>894.8333333333333</ele><time>2026-05-02T15:33:42Z</time></trkpt><trkpt lat="42.11053855256945" lon="13.379752674809932"><ele>895.0</ele><time>2026-05-02T15:33:43Z</time></trkpt><trkpt lat="42.11048726381775" lon="13.379656502778854"><ele>896.3333333333333</ele><time>2026-05-02T15:33:44Z</time></trkpt><trkpt lat="42.11042916899562" lon="13.3795633396177"><ele>897.6666666666666</ele><time>2026-05-02T15:33:45Z</time></trkpt><trkpt lat="42.1103585383493" lon="13.379459483729125"><ele>899.0</ele><time>2026-05-02T15:33:46Z</time></trkpt><trkpt lat="42.11029434370473" lon="13.379378762590921"><ele>900.3333333333333</ele><time>2026-05-02T15:33:47Z</time></trkpt><trkpt lat="42.11023700957281" lon="13.379315661220337"><ele>901.6666666666666</ele><time>2026-05-02T15:33:48Z</time></trkpt><trkpt lat="42.11017930931823" lon="13.379280758949934"><ele>903.0</ele><time>2026-05-02T15:33:49Z</time></trkpt><trkpt lat="42.110108598744844" lon="13.379269750476046"><ele>903.0</ele><time>2026-05-02T15:33:50Z</time></trkpt><trkpt lat="42.11004420091786" lon="13.379279491290763"><ele>903.0</ele><time>2026-05-02T15:33:51Z</time></trkpt><trkpt lat="42.10995878713694" lon="13.379295370563067"><ele>903.0</ele><time>2026-05-02T15:33:52Z</time></trkpt><trkpt lat="42.109871164970826" lon="13.37929801246919"><ele>903.0</ele><time>2026-05-02T15:33:53Z</time></trkpt><trkpt lat="42.10978048732498" lon="13.379286781475185"><ele>903.0</ele><time>2026-05-02T15:33:54Z</time></trkpt><trkpt lat="42.109703377131034" lon="13.379271216705344"><ele>903.0</ele><time>2026-05-02T15:33:55Z</time></trkpt><trkpt lat="42.1096336326577" lon="13.379251189554095"><ele>901.5999999999999</ele><time>2026-05-02T15:33:56Z</time></trkpt><trkpt lat="42.1095530517943" lon="13.379226521564552"><ele>900.1999999999999</ele><time>2026-05-02T15:33:57Z</time></trkpt><trkpt lat="42.10947073195893" lon="13.37919634508599"><ele>898.8</ele><time>2026-05-02T15:33:58Z</time></trkpt><trkpt lat="42.109397016746385" lon="13.37916905961014"><ele>897.4</ele><time>2026-05-02T15:33:59Z</time></trkpt><trkpt lat="42.10928898947936" lon="13.379117008740048"><ele>896.0</ele><time>2026-05-02T15:34:01Z</time></trkpt><trkpt lat="42.10922286166761" lon="13.379018487539561"><ele>896.0</ele><time>2026-05-02T15:34:03Z</time></trkpt><trkpt lat="42.10919474738694" lon="13.37886451222364"><ele>895.9999999999999</ele><time>2026-05-02T15:34:05Z</time></trkpt><trkpt lat="42.10918126250523" lon="13.378753310600553"><ele>895.9999999999999</ele><time>2026-05-02T15:34:06Z</time></trkpt><trkpt lat="42.10917106609323" lon="13.378643940802686"><ele>896.0</ele><time>2026-05-02T15:34:07Z</time></trkpt><trkpt lat="42.109129190194245" lon="13.37853424205381"><ele>896.0</ele><time>2026-05-02T15:34:08Z</time></trkpt><trkpt lat="42.10907563361152" lon="13.378432093564447"><ele>896.5999999999999</ele><time>2026-05-02T15:34:09Z</time></trkpt><trkpt lat="42.109013148618324" lon="13.378331576738457"><ele>897.1999999999999</ele><time>2026-05-02T15:34:10Z</time></trkpt><trkpt lat="42.108947760998355" lon="13.37821976166516"><ele>897.8000000000001</ele><time>2026-05-02T15:34:11Z</time></trkpt><trkpt lat="42.10885901715504" lon="13.378128155100592"><ele>898.4000000000001</ele><time>2026-05-02T15:34:12Z</time></trkpt><trkpt lat="42.10874413941885" lon="13.378042740514548"><ele>899.0</ele><time>2026-05-02T15:34:13Z</time></trkpt><trkpt lat="42.10873172357404" lon="13.377899654111982"><ele>901.6</ele><time>2026-05-02T15:34:14Z</time></trkpt><trkpt lat="42.108640963480234" lon="13.377813916188101"><ele>904.2</ele><time>2026-05-02T15:34:15Z</time></trkpt><trkpt lat="42.10855159168852" lon="13.377746412148017"><ele>906.8000000000001</ele><time>2026-05-02T15:34:16Z</time></trkpt><trkpt lat="42.10846326589074" lon="13.377693469596565"><ele>909.4000000000001</ele><time>2026-05-02T15:34:17Z</time></trkpt><trkpt lat="42.10837495889028" lon="13.377655128549446"><ele>912.0</ele><time>2026-05-02T15:34:18Z</time></trkpt><trkpt lat="42.10829131081709" lon="13.377633255733175"><ele>911.8333333333334</ele><time>2026-05-02T15:34:19Z</time></trkpt><trkpt lat="42.108214778698546" lon="13.377609108038486"><ele>911.6666666666667</ele><time>2026-05-02T15:34:20Z</time></trkpt><trkpt lat="42.108144512191586" lon="13.377589074159264"><ele>911.5</ele><time>2026-05-02T15:34:21Z</time></trkpt><trkpt lat="42.108060853061176" lon="13.377566218559082"><ele>911.3333333333334</ele><time>2026-05-02T15:34:22Z</time></trkpt><trkpt lat="42.107973951343645" lon="13.377549055683268"><ele>911.1666666666667</ele><time>2026-05-02T15:34:23Z</time></trkpt><trkpt lat="42.107903265410755" lon="13.377533800678913"><ele>911.0</ele><time>2026-05-02T15:34:24Z</time></trkpt><trkpt lat="42.10779630613151" lon="13.377464808311123"><ele>911.0000000000001</ele><time>2026-05-02T15:34:26Z</time></trkpt><trkpt lat="42.1077100431038" lon="13.37735044231848"><ele>911.0</ele><time>2026-05-02T15:34:28Z</time></trkpt><trkpt lat="42.107668639900034" lon="13.377281082120264"><ele>911.0</ele><time>2026-05-02T15:34:29Z</time></trkpt><trkpt lat="42.107627806849" lon="13.377212302177332"><ele>911.0</ele><time>2026-05-02T15:34:31Z</time></trkpt><trkpt lat="42.10757019085414" lon="13.377167790808452"><ele>911.0000000000001</ele><time>2026-05-02T15:34:33Z</time></trkpt><trkpt lat="42.107460717789806" lon="13.377130428403596"><ele>911.0</ele><time>2026-05-02T15:34:35Z</time></trkpt><trkpt lat="42.10738677323898" lon="13.377087600428037"><ele>910.3333333333334</ele><time>2026-05-02T15:34:37Z</time></trkpt><trkpt lat="42.10731623205203" lon="13.377054403076174"><ele>909.6666666666667</ele><time>2026-05-02T15:34:42Z</time></trkpt><trkpt lat="42.107251214571825" lon="13.377107438834848"><ele>909.0</ele><time>2026-05-02T15:34:45Z</time></trkpt><trkpt lat="42.107186532722594" lon="13.377146492946732"><ele>908.3333333333333</ele><time>2026-05-02T15:34:47Z</time></trkpt><trkpt lat="42.107105187698295" lon="13.377124945489394"><ele>907.6666666666666</ele><time>2026-05-02T15:34:48.999Z</time></trkpt><trkpt lat="42.107033614592076" lon="13.377062845948966"><ele>907.0</ele><time>2026-05-02T15:34:50.999Z</time></trkpt><trkpt lat="42.10695193990392" lon="13.377015433947541"><ele>907.0</ele><time>2026-05-02T15:34:52.999Z</time></trkpt><trkpt lat="42.10689153962976" lon="13.37695690834723"><ele>907.0</ele><time>2026-05-02T15:34:56.999Z</time></trkpt><trkpt lat="42.1068228614262" lon="13.376867353187324"><ele>907.0</ele><time>2026-05-02T15:34:58.999Z</time></trkpt><trkpt lat="42.10676439505544" lon="13.37681245665952"><ele>907.0</ele><time>2026-05-02T15:34:59.999Z</time></trkpt><trkpt lat="42.10666306666109" lon="13.376736266384496"><ele>907.0</ele><time>2026-05-02T15:35:01.999Z</time></trkpt><trkpt lat="42.106541268753226" lon="13.376677314842953"><ele>905.3333333333333</ele><time>2026-05-02T15:35:03.999Z</time></trkpt><trkpt lat="42.106469866568986" lon="13.376655327800687"><ele>903.6666666666666</ele><time>2026-05-02T15:35:04.999Z</time></trkpt><trkpt lat="42.106405951053056" lon="13.376635977877498"><ele>902.0</ele><time>2026-05-02T15:35:05.999Z</time></trkpt><trkpt lat="42.10630987657838" lon="13.376600237668297"><ele>900.3333333333333</ele><time>2026-05-02T15:35:07.999Z</time></trkpt><trkpt lat="42.106230501380516" lon="13.376573039658712"><ele>898.6666666666666</ele><time>2026-05-02T15:35:09.999Z</time></trkpt><trkpt lat="42.106135580550145" lon="13.37653765926804"><ele>897.0</ele><time>2026-05-02T15:35:11.999Z</time></trkpt><trkpt lat="42.10606878924049" lon="13.376483031295278"><ele>897.0</ele><time>2026-05-02T15:35:13.999Z</time></trkpt><trkpt lat="42.10601030382409" lon="13.376423197957187"><ele>897.0</ele><time>2026-05-02T15:35:15.999Z</time></trkpt><trkpt lat="42.10597190199194" lon="13.376343514468203"><ele>897.0</ele><time>2026-05-02T15:35:17.999Z</time></trkpt><trkpt lat="42.105918422753156" lon="13.376260323087514"><ele>897.0</ele><time>2026-05-02T15:35:19.999Z</time></trkpt><trkpt lat="42.10583529508895" lon="13.376189944457016"><ele>897.0</ele><time>2026-05-02T15:35:21.999Z</time></trkpt><trkpt lat="42.10577250620729" lon="13.376081128797347"><ele>897.0</ele><time>2026-05-02T15:35:23.999Z</time></trkpt><trkpt lat="42.105709775305236" lon="13.375988078237045"><ele>894.6666666666666</ele><time>2026-05-02T15:35:25.999Z</time></trkpt><trkpt lat="42.10563920159011" lon="13.3758901952222"><ele>892.3333333333333</ele><time>2026-05-02T15:35:27.999Z</time></trkpt><trkpt lat="42.10555668897632" lon="13.375810525336114"><ele>890.0</ele><time>2026-05-02T15:35:29.999Z</time></trkpt><trkpt lat="42.10550667287111" lon="13.3757398669574"><ele>887.6666666666666</ele><time>2026-05-02T15:35:30.999Z</time></trkpt><trkpt lat="42.105453290414395" lon="13.37567600555724"><ele>885.3333333333333</ele><time>2026-05-02T15:35:31.999Z</time></trkpt><trkpt lat="42.105399166030665" lon="13.375612701418"><ele>883.0</ele><time>2026-05-02T15:35:32.999Z</time></trkpt><trkpt lat="42.10531620981338" lon="13.375500795553053"><ele>883.0</ele><time>2026-05-02T15:35:34.999Z</time></trkpt><trkpt lat="42.10525214603571" lon="13.375386571210363"><ele>883.0</ele><time>2026-05-02T15:35:37Z</time></trkpt><trkpt lat="42.10517471720891" lon="13.375281085377853"><ele>883.0</ele><time>2026-05-02T15:35:39Z</time></trkpt><trkpt lat="42.105089715432946" lon="13.375220483146405"><ele>883.0</ele><time>2026-05-02T15:35:41Z</time></trkpt><trkpt lat="42.105032577501376" lon="13.375142200877926"><ele>883.0</ele><time>2026-05-02T15:35:43Z</time></trkpt><trkpt lat="42.1050384435831" lon="13.375043861394001"><ele>882.9999999999999</ele><time>2026-05-02T15:35:45Z</time></trkpt><trkpt lat="42.10501750705998" lon="13.374950851825275"><ele>883.0</ele><time>2026-05-02T15:35:47Z</time></trkpt><trkpt lat="42.10492362180019" lon="13.374843069118024"><ele>883.0</ele><time>2026-05-02T15:35:49Z</time></trkpt><trkpt lat="42.104876766521286" lon="13.374785837791375"><ele>883.0</ele><time>2026-05-02T15:35:50Z</time></trkpt><trkpt lat="42.10483337782003" lon="13.374721717125945"><ele>882.9999999999999</ele><time>2026-05-02T15:35:51Z</time></trkpt><trkpt lat="42.104796529851335" lon="13.374568156992277"><ele>883.0</ele><time>2026-05-02T15:35:53Z</time></trkpt><trkpt lat="42.104774595822306" lon="13.37448690095154"><ele>881.1666666666666</ele><time>2026-05-02T15:35:54Z</time></trkpt><trkpt lat="42.10472917691051" lon="13.374371378802085"><ele>879.3333333333333</ele><time>2026-05-02T15:35:56Z</time></trkpt><trkpt lat="42.104652632512924" lon="13.37430159301785"><ele>877.5</ele><time>2026-05-02T15:35:58Z</time></trkpt><trkpt lat="42.104583041435276" lon="13.374300659567842"><ele>875.6666666666667</ele><time>2026-05-02T15:36:00Z</time></trkpt><trkpt lat="42.10449916954019" lon="13.374270142825871"><ele>873.8333333333334</ele><time>2026-05-02T15:36:03Z</time></trkpt><trkpt lat="42.10445158446191" lon="13.374157859580828"><ele>872.0</ele><time>2026-05-02T15:36:05Z</time></trkpt><trkpt lat="42.10442143742638" lon="13.374080516989414"><ele>872.0000000000001</ele><time>2026-05-02T15:36:06Z</time></trkpt><trkpt lat="42.10438152872749" lon="13.373986143309558"><ele>872.0</ele><time>2026-05-02T15:36:07Z</time></trkpt><trkpt lat="42.104322568797926" lon="13.373888227920533"><ele>872.0</ele><time>2026-05-02T15:36:08Z</time></trkpt><trkpt lat="42.10426491596848" lon="13.37379852356834"><ele>872.0</ele><time>2026-05-02T15:36:09Z</time></trkpt><trkpt lat="42.10420957509298" lon="13.373723368167521"><ele>872.0000000000001</ele><time>2026-05-02T15:36:10Z</time></trkpt><trkpt lat="42.10415128104075" lon="13.373651575780269"><ele>872.0</ele><time>2026-05-02T15:36:11Z</time></trkpt><trkpt lat="42.10410382669829" lon="13.37358810691864"><ele>871.1666666666667</ele><time>2026-05-02T15:36:12Z</time></trkpt><trkpt lat="42.10404876256956" lon="13.373521174981734"><ele>870.3333333333334</ele><time>2026-05-02T15:36:13Z</time></trkpt><trkpt lat="42.10399875824908" lon="13.37345559935561"><ele>869.5</ele><time>2026-05-02T15:36:14Z</time></trkpt><trkpt lat="42.10393691909168" lon="13.37331494137358"><ele>868.6666666666667</ele><time>2026-05-02T15:36:16Z</time></trkpt><trkpt lat="42.10384982329905" lon="13.373212487216774"><ele>867.8333333333334</ele><time>2026-05-02T15:36:18Z</time></trkpt><trkpt lat="42.10379564749392" lon="13.373156289182926"><ele>867.0</ele><time>2026-05-02T15:36:19Z</time></trkpt><trkpt lat="42.1037412583196" lon="13.373091303873789"><ele>867.0</ele><time>2026-05-02T15:36:20Z</time></trkpt><trkpt lat="42.103679567550884" lon="13.373027540639569"><ele>867.0</ele><time>2026-05-02T15:36:21Z</time></trkpt><trkpt lat="42.10362674276009" lon="13.372967166434723"><ele>867.0</ele><time>2026-05-02T15:36:22Z</time></trkpt><trkpt lat="42.103584324490576" lon="13.37289762324786"><ele>867.0</ele><time>2026-05-02T15:36:23Z</time></trkpt><trkpt lat="42.10354847454797" lon="13.372820980662599"><ele>867.0</ele><time>2026-05-02T15:36:24Z</time></trkpt><trkpt lat="42.10350753679348" lon="13.372748553454878"><ele>867.0</ele><time>2026-05-02T15:36:25Z</time></trkpt><trkpt lat="42.10343876376437" lon="13.372654749154856"><ele>867.0</ele><time>2026-05-02T15:36:27Z</time></trkpt><trkpt lat="42.10334809625862" lon="13.372555158470671"><ele>866.8</ele><time>2026-05-02T15:36:29Z</time></trkpt><trkpt lat="42.10330101463304" lon="13.372451563675641"><ele>866.6</ele><time>2026-05-02T15:36:31Z</time></trkpt><trkpt lat="42.10331033263746" lon="13.372339753624384"><ele>866.3999999999999</ele><time>2026-05-02T15:36:33Z</time></trkpt><trkpt lat="42.103269086493704" lon="13.372225446585189"><ele>866.1999999999999</ele><time>2026-05-02T15:36:35Z</time></trkpt><trkpt lat="42.103187090090636" lon="13.372156989580594"><ele>866.0</ele><time>2026-05-02T15:36:37Z</time></trkpt><trkpt lat="42.10312052951789" lon="13.372074731534177"><ele>866.0000000000001</ele><time>2026-05-02T15:36:39Z</time></trkpt><trkpt lat="42.1030648340664" lon="13.371994131914548"><ele>866.0</ele><time>2026-05-02T15:36:41Z</time></trkpt><trkpt lat="42.10298269315964" lon="13.371927637599935"><ele>866.0</ele><time>2026-05-02T15:36:43Z</time></trkpt><trkpt lat="42.102901977959945" lon="13.371869796374238"><ele>866.0</ele><time>2026-05-02T15:36:45Z</time></trkpt><trkpt lat="42.1028313682283" lon="13.371801328989775"><ele>866.0000000000001</ele><time>2026-05-02T15:36:47Z</time></trkpt><trkpt lat="42.10277653958824" lon="13.371737248598752"><ele>866.0</ele><time>2026-05-02T15:36:49Z</time></trkpt><trkpt lat="42.1027251573943" lon="13.371648384111086"><ele>866.0000000000001</ele><time>2026-05-02T15:36:51Z</time></trkpt><trkpt lat="42.10266463496076" lon="13.37153679192976"><ele>866.0</ele><time>2026-05-02T15:36:53Z</time></trkpt><trkpt lat="42.102617402870635" lon="13.371418376134015"><ele>866.0</ele><time>2026-05-02T15:36:54.999Z</time></trkpt><trkpt lat="42.102563647623214" lon="13.371344606487957"><ele>866.0</ele><time>2026-05-02T15:36:56.999Z</time></trkpt><trkpt lat="42.102504630251374" lon="13.371295847310948"><ele>866.0000000000001</ele><time>2026-05-02T15:36:58.999Z</time></trkpt><trkpt lat="42.10244546541751" lon="13.37125215020234"><ele>866.0</ele><time>2026-05-02T15:37:00.999Z</time></trkpt><trkpt lat="42.10239514804459" lon="13.371197238214087"><ele>863.3333333333334</ele><time>2026-05-02T15:37:02.999Z</time></trkpt><trkpt lat="42.102338006690275" lon="13.371139882882586"><ele>860.6666666666667</ele><time>2026-05-02T15:37:04.999Z</time></trkpt><trkpt lat="42.102254501774794" lon="13.371067767898564"><ele>858.0</ele><time>2026-05-02T15:37:07.999Z</time></trkpt><trkpt lat="42.1021841765929" lon="13.37101637181445"><ele>855.3333333333333</ele><time>2026-05-02T15:37:10.999Z</time></trkpt><trkpt lat="42.10212563386384" lon="13.370947610480169"><ele>852.6666666666666</ele><time>2026-05-02T15:37:13.999Z</time></trkpt><trkpt lat="42.1020601735032" lon="13.37089992995181"><ele>850.0</ele><time>2026-05-02T15:37:16.999Z</time></trkpt><trkpt lat="42.101991601280176" lon="13.370858530801847"><ele>850.0</ele><time>2026-05-02T15:37:20.999Z</time></trkpt><trkpt lat="42.10193087753701" lon="13.370798868832669"><ele>850.0</ele><time>2026-05-02T15:37:24.999Z</time></trkpt><trkpt lat="42.101877487797246" lon="13.370753486106583"><ele>850.0</ele><time>2026-05-02T15:37:28.999Z</time></trkpt><trkpt lat="42.10181141615953" lon="13.370700403942926"><ele>850.0</ele><time>2026-05-02T15:37:32.999Z</time></trkpt><trkpt lat="42.10174616262504" lon="13.370675174335313"><ele>850.0</ele><time>2026-05-02T15:37:36.999Z</time></trkpt><trkpt lat="42.101681806598755" lon="13.370615031599893"><ele>850.0</ele><time>2026-05-02T15:37:44Z</time></trkpt><trkpt lat="42.101629673436854" lon="13.370537327631766"><ele>850.0</ele><time>2026-05-02T15:37:50Z</time></trkpt><trkpt lat="42.101562324749764" lon="13.370508916817466"><ele>846.8571428571429</ele><time>2026-05-02T15:37:53Z</time></trkpt><trkpt lat="42.1015024482379" lon="13.370543867907557"><ele>843.7142857142857</ele><time>2026-05-02T15:37:59Z</time></trkpt><trkpt lat="42.10142824168986" lon="13.37054714125884"><ele>840.5714285714287</ele><time>2026-05-02T15:38:05Z</time></trkpt><trkpt lat="42.10137022171041" lon="13.370509641031484"><ele>837.4285714285714</ele><time>2026-05-02T15:38:08Z</time></trkpt><trkpt lat="42.10130794422404" lon="13.37049509285941"><ele>834.2857142857143</ele><time>2026-05-02T15:38:11Z</time></trkpt><trkpt lat="42.10124470459894" lon="13.370504261917905"><ele>831.1428571428572</ele><time>2026-05-02T15:38:16Z</time></trkpt><trkpt lat="42.10117712034441" lon="13.370520531876686"><ele>828.0</ele><time>2026-05-02T15:38:20Z</time></trkpt><trkpt lat="42.101106152095085" lon="13.370575123152246"><ele>828.0000000000001</ele><time>2026-05-02T15:38:24Z</time></trkpt><trkpt lat="42.10104274407275" lon="13.370626031485726"><ele>828.0</ele><time>2026-05-02T15:38:29Z</time></trkpt><trkpt lat="42.10098251879948" lon="13.370669838817234"><ele>828.0</ele><time>2026-05-02T15:38:33Z</time></trkpt><trkpt lat="42.100924748132016" lon="13.370708451637862"><ele>828.0</ele><time>2026-05-02T15:38:37Z</time></trkpt><trkpt lat="42.10085991263319" lon="13.3706891710556"><ele>828.0</ele><time>2026-05-02T15:38:40Z</time></trkpt><trkpt lat="42.10079959953735" lon="13.370637799677807"><ele>828.0000000000001</ele><time>2026-05-02T15:38:43Z</time></trkpt><trkpt lat="42.10074429425765" lon="13.370593726503929"><ele>828.0</ele><time>2026-05-02T15:38:46Z</time></trkpt><trkpt lat="42.100670404702115" lon="13.370529654347326"><ele>826.1666666666666</ele><time>2026-05-02T15:38:49Z</time></trkpt><trkpt lat="42.10060685578785" lon="13.370487031594633"><ele>824.3333333333333</ele><time>2026-05-02T15:38:51Z</time></trkpt><trkpt lat="42.100518159579266" lon="13.370454974282882"><ele>822.5</ele><time>2026-05-02T15:38:54Z</time></trkpt><trkpt lat="42.100447556254515" lon="13.370461384269927"><ele>820.6666666666666</ele><time>2026-05-02T15:38:56Z</time></trkpt><trkpt lat="42.100365715539766" lon="13.370491721906577"><ele>818.8333333333333</ele><time>2026-05-02T15:38:58Z</time></trkpt><trkpt lat="42.100304394654955" lon="13.370529984071906"><ele>817.0</ele><time>2026-05-02T15:38:59.999Z</time></trkpt><trkpt lat="42.10026046357814" lon="13.3705918497583"><ele>817.0</ele><time>2026-05-02T15:39:02.999Z</time></trkpt><trkpt lat="42.100181164274595" lon="13.370551976135495"><ele>817.0</ele><time>2026-05-02T15:39:05.999Z</time></trkpt><trkpt lat="42.100109174557254" lon="13.370491520691655"><ele>817.0</ele><time>2026-05-02T15:39:07.999Z</time></trkpt><trkpt lat="42.100025799519145" lon="13.370405785078676"><ele>817.0</ele><time>2026-05-02T15:39:09.999Z</time></trkpt><trkpt lat="42.09992980141439" lon="13.370328892236168"><ele>817.0</ele><time>2026-05-02T15:39:11.999Z</time></trkpt><trkpt lat="42.099836931663745" lon="13.370254523355031"><ele>813.6</ele><time>2026-05-02T15:39:13.999Z</time></trkpt><trkpt lat="42.0997385500432" lon="13.370161122105987"><ele>810.2</ele><time>2026-05-02T15:39:15.999Z</time></trkpt><trkpt lat="42.099638170886024" lon="13.370080142218784"><ele>806.8</ele><time>2026-05-02T15:39:17.999Z</time></trkpt><trkpt lat="42.09954949168866" lon="13.369963546398333"><ele>803.4</ele><time>2026-05-02T15:39:19.999Z</time></trkpt><trkpt lat="42.099502393257936" lon="13.369907038955093"><ele>800.0</ele><time>2026-05-02T15:39:20.999Z</time></trkpt><trkpt lat="42.09945720305092" lon="13.369846044774976"><ele>800.0000000000001</ele><time>2026-05-02T15:39:21.999Z</time></trkpt><trkpt lat="42.09941061455188" lon="13.36978259648232"><ele>800.0</ele><time>2026-05-02T15:39:22.999Z</time></trkpt><trkpt lat="42.0993658083341" lon="13.369718129949183"><ele>800.0</ele><time>2026-05-02T15:39:23.999Z</time></trkpt><trkpt lat="42.09932069969332" lon="13.369652475509794"><ele>800.0</ele><time>2026-05-02T15:39:24.999Z</time></trkpt><trkpt lat="42.09927282485932" lon="13.369589461449886"><ele>800.0</ele><time>2026-05-02T15:39:25.999Z</time></trkpt><trkpt lat="42.09922750502374" lon="13.369528513804644"><ele>800.0000000000001</ele><time>2026-05-02T15:39:26.999Z</time></trkpt><trkpt lat="42.09917550257341" lon="13.369477510493182"><ele>800.0</ele><time>2026-05-02T15:39:27.999Z</time></trkpt><trkpt lat="42.09912128028044" lon="13.3694286443017"><ele>798.0</ele><time>2026-05-02T15:39:28.999Z</time></trkpt><trkpt lat="42.09906787302804" lon="13.369371508434584"><ele>796.0</ele><time>2026-05-02T15:39:29.999Z</time></trkpt><trkpt lat="42.098979836389525" lon="13.369268205081497"><ele>794.0</ele><time>2026-05-02T15:39:31.999Z</time></trkpt><trkpt lat="42.09889842399421" lon="13.369189142687011"><ele>792.0</ele><time>2026-05-02T15:39:33.999Z</time></trkpt><trkpt lat="42.09881997266141" lon="13.369106467177822"><ele>790.0</ele><time>2026-05-02T15:39:35.999Z</time></trkpt><trkpt lat="42.09874582840311" lon="13.369015331529587"><ele>790.0</ele><time>2026-05-02T15:39:37.999Z</time></trkpt><trkpt lat="42.09865519258775" lon="13.368939337411009"><ele>790.0</ele><time>2026-05-02T15:39:39.999Z</time></trkpt><trkpt lat="42.0985453927055" lon="13.368876187846382"><ele>790.0</ele><time>2026-05-02T15:39:41.999Z</time></trkpt><trkpt lat="42.098438083011324" lon="13.368807747647233"><ele>790.0</ele><time>2026-05-02T15:39:43.999Z</time></trkpt><trkpt lat="42.09837680267436" lon="13.368772758643049"><ele>790.0</ele><time>2026-05-02T15:39:44.999Z</time></trkpt><trkpt lat="42.09831336192774" lon="13.36874075983116"><ele>789.2</ele><time>2026-05-02T15:39:45.999Z</time></trkpt><trkpt lat="42.09819961558898" lon="13.36866923481645"><ele>788.4</ele><time>2026-05-02T15:39:48Z</time></trkpt><trkpt lat="42.09813524720608" lon="13.368637577481843"><ele>787.5999999999999</ele><time>2026-05-02T15:39:49Z</time></trkpt><trkpt lat="42.098016876731414" lon="13.368586651289723"><ele>786.8</ele><time>2026-05-02T15:39:51Z</time></trkpt><trkpt lat="42.09790038187626" lon="13.368538468843193"><ele>786.0</ele><time>2026-05-02T15:39:53Z</time></trkpt><trkpt lat="42.09779958684957" lon="13.368492016106616"><ele>786.0</ele><time>2026-05-02T15:39:55Z</time></trkpt><trkpt lat="42.09770183155089" lon="13.368440990894516"><ele>786.0</ele><time>2026-05-02T15:39:57Z</time></trkpt><trkpt lat="42.09761655707286" lon="13.368407455356895"><ele>786.0</ele><time>2026-05-02T15:39:59Z</time></trkpt><trkpt lat="42.09753050604627" lon="13.368379729474274"><ele>786.0</ele><time>2026-05-02T15:40:01Z</time></trkpt><trkpt lat="42.09744377399047" lon="13.368355696470942"><ele>786.0</ele><time>2026-05-02T15:40:03Z</time></trkpt><trkpt lat="42.09736445047776" lon="13.368330468722888"><ele>783.3333333333334</ele><time>2026-05-02T15:40:05Z</time></trkpt><trkpt lat="42.097294271844206" lon="13.368308789631385"><ele>780.6666666666667</ele><time>2026-05-02T15:40:07Z</time></trkpt><trkpt lat="42.097231303174766" lon="13.368284212750659"><ele>778.0</ele><time>2026-05-02T15:40:09Z</time></trkpt><trkpt lat="42.09714577312824" lon="13.368248753260016"><ele>775.3333333333334</ele><time>2026-05-02T15:40:16Z</time></trkpt><trkpt lat="42.09707734351482" lon="13.36821539178056"><ele>772.6666666666667</ele><time>2026-05-02T15:40:18Z</time></trkpt><trkpt lat="42.09700108821714" lon="13.368177147212128"><ele>770.0</ele><time>2026-05-02T15:40:20Z</time></trkpt><trkpt lat="42.09692260878874" lon="13.368122845729687"><ele>770.0000000000001</ele><time>2026-05-02T15:40:22Z</time></trkpt><trkpt lat="42.09684702940663" lon="13.36806947922479"><ele>770.0</ele><time>2026-05-02T15:40:24Z</time></trkpt><trkpt lat="42.09677083657191" lon="13.368014039356499"><ele>770.0</ele><time>2026-05-02T15:40:26Z</time></trkpt><trkpt lat="42.096700224979266" lon="13.367941483934477"><ele>770.0</ele><time>2026-05-02T15:40:28Z</time></trkpt><trkpt lat="42.09663558066189" lon="13.367869748219883"><ele>770.0000000000001</ele><time>2026-05-02T15:40:30Z</time></trkpt><trkpt lat="42.0965766421791" lon="13.367795771028401"><ele>770.0</ele><time>2026-05-02T15:40:32Z</time></trkpt><trkpt lat="42.09651989719771" lon="13.367743156909249"><ele>767.5714285714286</ele><time>2026-05-02T15:40:34Z</time></trkpt><trkpt lat="42.09646792260586" lon="13.367693626002609"><ele>765.1428571428571</ele><time>2026-05-02T15:40:36Z</time></trkpt><trkpt lat="42.09641345539851" lon="13.36762875672945"><ele>762.7142857142858</ele><time>2026-05-02T15:40:38Z</time></trkpt><trkpt lat="42.09637281000919" lon="13.367555843898518"><ele>760.2857142857142</ele><time>2026-05-02T15:40:40Z</time></trkpt><trkpt lat="42.09632530274976" lon="13.367496786483688"><ele>757.8571428571429</ele><time>2026-05-02T15:40:42Z</time></trkpt><trkpt lat="42.096253074831985" lon="13.367424507917073"><ele>755.4285714285714</ele><time>2026-05-02T15:40:45Z</time></trkpt><trkpt lat="42.09618946162197" lon="13.367352911947659"><ele>753.0</ele><time>2026-05-02T15:40:48Z</time></trkpt><trkpt lat="42.096136545450584" lon="13.367301042549203"><ele>753.0</ele><time>2026-05-02T15:40:51Z</time></trkpt><trkpt lat="42.096069667073884" lon="13.367252377337884"><ele>753.0</ele><time>2026-05-02T15:40:55Z</time></trkpt><trkpt lat="42.09599906622536" lon="13.367205398657333"><ele>753.0</ele><time>2026-05-02T15:40:58Z</time></trkpt><trkpt lat="42.095930181327184" lon="13.36716657701256"><ele>753.0</ele><time>2026-05-02T15:41:01Z</time></trkpt><trkpt lat="42.095866717644434" lon="13.367140756091871"><ele>753.0</ele><time>2026-05-02T15:41:03Z</time></trkpt><trkpt lat="42.095756706622694" lon="13.367105236839377"><ele>753.0</ele><time>2026-05-02T15:41:05Z</time></trkpt><trkpt lat="42.095650985960184" lon="13.367038886278063"><ele>750.0</ele><time>2026-05-02T15:41:07Z</time></trkpt><trkpt lat="42.0955554840945" lon="13.367020461582042"><ele>747.0</ele><time>2026-05-02T15:41:08.999Z</time></trkpt><trkpt lat="42.09549266854967" lon="13.36697572910094"><ele>744.0</ele><time>2026-05-02T15:41:10.999Z</time></trkpt><trkpt lat="42.09538989098413" lon="13.36694132178753"><ele>741.0</ele><time>2026-05-02T15:41:12.999Z</time></trkpt><trkpt lat="42.095317245484196" lon="13.366904759711845"><ele>738.0</ele><time>2026-05-02T15:41:13.999Z</time></trkpt><trkpt lat="42.09523810394754" lon="13.366863446291209"><ele>735.0</ele><time>2026-05-02T15:41:14.999Z</time></trkpt><trkpt lat="42.09515515219821" lon="13.366816035023"><ele>735.0</ele><time>2026-05-02T15:41:15.999Z</time></trkpt><trkpt lat="42.095068529128994" lon="13.366766167302162"><ele>735.0</ele><time>2026-05-02T15:41:16.999Z</time></trkpt><trkpt lat="42.094987853138214" lon="13.366726818863308"><ele>735.0</ele><time>2026-05-02T15:41:17.999Z</time></trkpt><trkpt lat="42.09490245252044" lon="13.366692837592618"><ele>735.0</ele><time>2026-05-02T15:41:18.999Z</time></trkpt><trkpt lat="42.09482148383892" lon="13.366672196621145"><ele>735.0</ele><time>2026-05-02T15:41:19.999Z</time></trkpt><trkpt lat="42.09474828782297" lon="13.366661353323007"><ele>735.0</ele><time>2026-05-02T15:41:20.999Z</time></trkpt><trkpt lat="42.09468513072791" lon="13.366656232776196"><ele>734.8333333333334</ele><time>2026-05-02T15:41:21.999Z</time></trkpt><trkpt lat="42.09456594890356" lon="13.366590770722942"><ele>734.6666666666666</ele><time>2026-05-02T15:41:23.999Z</time></trkpt><trkpt lat="42.09449845880342" lon="13.366570554238272"><ele>734.5</ele><time>2026-05-02T15:41:24.999Z</time></trkpt><trkpt lat="42.094448199137304" lon="13.366472925892"><ele>734.3333333333333</ele><time>2026-05-02T15:41:25.999Z</time></trkpt><trkpt lat="42.094393818446" lon="13.366411375669063"><ele>734.1666666666666</ele><time>2026-05-02T15:41:26.999Z</time></trkpt><trkpt lat="42.09434636888105" lon="13.36634367087551"><ele>734.0</ele><time>2026-05-02T15:41:27.999Z</time></trkpt><trkpt lat="42.09431680093715" lon="13.366262627048501"><ele>733.25</ele><time>2026-05-02T15:41:28.999Z</time></trkpt><trkpt lat="42.09437513985027" lon="13.366075368440422"><ele>732.5</ele><time>2026-05-02T15:41:30.999Z</time></trkpt><trkpt lat="42.09444070500393" lon="13.365983386207482"><ele>731.75</ele><time>2026-05-02T15:41:31.999Z</time></trkpt><trkpt lat="42.09450798722268" lon="13.365862614409037"><ele>731.0</ele><time>2026-05-02T15:41:32.999Z</time></trkpt><trkpt lat="42.09458670618357" lon="13.365760887527056"><ele>731.0</ele><time>2026-05-02T15:41:33.999Z</time></trkpt><trkpt lat="42.09466561561596" lon="13.365647636150214"><ele>731.0</ele><time>2026-05-02T15:41:34.999Z</time></trkpt><trkpt lat="42.094744878225356" lon="13.365522672302234"><ele>731.0</ele><time>2026-05-02T15:41:35.999Z</time></trkpt><trkpt lat="42.094832131911694" lon="13.365399899576632"><ele>731.0</ele><time>2026-05-02T15:41:36.999Z</time></trkpt><trkpt lat="42.09492860841758" lon="13.365288638479196"><ele>730.5</ele><time>2026-05-02T15:41:37.999Z</time></trkpt><trkpt lat="42.09501096167542" lon="13.36516950195198"><ele>730.0</ele><time>2026-05-02T15:41:38.999Z</time></trkpt><trkpt lat="42.09509500841015" lon="13.365050212435538"><ele>729.5</ele><time>2026-05-02T15:41:39.999Z</time></trkpt><trkpt lat="42.09516993193743" lon="13.364930885317518"><ele>729.0</ele><time>2026-05-02T15:41:40.999Z</time></trkpt><trkpt lat="42.095247688518896" lon="13.364823897221711"><ele>729.0</ele><time>2026-05-02T15:41:41.999Z</time></trkpt><trkpt lat="42.095324271252885" lon="13.364727760242765"><ele>729.0</ele><time>2026-05-02T15:41:42.999Z</time></trkpt><trkpt lat="42.09539612587493" lon="13.364636963471204"><ele>729.0</ele><time>2026-05-02T15:41:43.999Z</time></trkpt><trkpt lat="42.095474195799824" lon="13.364537078450054"><ele>729.0</ele><time>2026-05-02T15:41:44.999Z</time></trkpt><trkpt lat="42.095554949063434" lon="13.364441024932951"><ele>729.0</ele><time>2026-05-02T15:41:45.999Z</time></trkpt><trkpt lat="42.09563564611065" lon="13.364337971111262"><ele>728.75</ele><time>2026-05-02T15:41:46.999Z</time></trkpt><trkpt lat="42.095715515703624" lon="13.36423262326007"><ele>728.5</ele><time>2026-05-02T15:41:47.999Z</time></trkpt><trkpt lat="42.0957971151168" lon="13.364123723054897"><ele>728.25</ele><time>2026-05-02T15:41:48.999Z</time></trkpt><trkpt lat="42.095877074179086" lon="13.364003914253127"><ele>728.0</ele><time>2026-05-02T15:41:49.999Z</time></trkpt><trkpt lat="42.095958791078175" lon="13.363872439089661"><ele>726.5</ele><time>2026-05-02T15:41:50.999Z</time></trkpt><trkpt lat="42.09604360971917" lon="13.363736228117034"><ele>725.0</ele><time>2026-05-02T15:41:51.999Z</time></trkpt><trkpt lat="42.096134362097516" lon="13.363593946250727"><ele>723.5</ele><time>2026-05-02T15:41:52.999Z</time></trkpt><trkpt lat="42.09622504100511" lon="13.36345049843399"><ele>722.0</ele><time>2026-05-02T15:41:54Z</time></trkpt><trkpt lat="42.09632517158003" lon="13.363307619234257"><ele>722.0</ele><time>2026-05-02T15:41:55Z</time></trkpt><trkpt lat="42.096422223816404" lon="13.363159444438251"><ele>722.0</ele><time>2026-05-02T15:41:56Z</time></trkpt><trkpt lat="42.0965188327863" lon="13.363010060302258"><ele>722.0</ele><time>2026-05-02T15:41:57Z</time></trkpt><trkpt lat="42.096621045537525" lon="13.362854270541806"><ele>722.0</ele><time>2026-05-02T15:41:58Z</time></trkpt><trkpt lat="42.09672160881607" lon="13.362704597996316"><ele>720.5</ele><time>2026-05-02T15:41:59Z</time></trkpt><trkpt lat="42.09680717878352" lon="13.362563369979993"><ele>719.0</ele><time>2026-05-02T15:42:00Z</time></trkpt><trkpt lat="42.09689272266097" lon="13.362454622430963"><ele>717.5</ele><time>2026-05-02T15:42:01Z</time></trkpt><trkpt lat="42.09697289371428" lon="13.362331670991075"><ele>716.0</ele><time>2026-05-02T15:42:02Z</time></trkpt><trkpt lat="42.09706273872596" lon="13.362193883434925"><ele>715.8</ele><time>2026-05-02T15:42:03Z</time></trkpt><trkpt lat="42.097141720870745" lon="13.362075427930106"><ele>715.5999999999999</ele><time>2026-05-02T15:42:04Z</time></trkpt><trkpt lat="42.09721428624914" lon="13.361961468054306"><ele>715.4</ele><time>2026-05-02T15:42:05Z</time></trkpt><trkpt lat="42.09728496757792" lon="13.361853070261747"><ele>715.2</ele><time>2026-05-02T15:42:06Z</time></trkpt><trkpt lat="42.097356790765524" lon="13.36174601142605"><ele>715.0</ele><time>2026-05-02T15:42:07Z</time></trkpt><trkpt lat="42.09743269381227" lon="13.36163194601741"><ele>714.8</ele><time>2026-05-02T15:42:08Z</time></trkpt><trkpt lat="42.09750387161958" lon="13.361523802403795"><ele>714.6</ele><time>2026-05-02T15:42:09Z</time></trkpt><trkpt lat="42.09757186776145" lon="13.361419056389751"><ele>714.4000000000001</ele><time>2026-05-02T15:42:10Z</time></trkpt><trkpt lat="42.09764042413317" lon="13.361313832678617"><ele>714.2</ele><time>2026-05-02T15:42:11Z</time></trkpt><trkpt lat="42.097709503511716" lon="13.361209238988325"><ele>714.0</ele><time>2026-05-02T15:42:12Z</time></trkpt><trkpt lat="42.09777641436888" lon="13.36110799287247"><ele>714.0</ele><time>2026-05-02T15:42:13Z</time></trkpt><trkpt lat="42.09784688552862" lon="13.361002133377786"><ele>714.0</ele><time>2026-05-02T15:42:14Z</time></trkpt><trkpt lat="42.09791608010214" lon="13.36089864289192"><ele>714.0</ele><time>2026-05-02T15:42:15Z</time></trkpt><trkpt lat="42.097979821264694" lon="13.360778360533013"><ele>714.0</ele><time>2026-05-02T15:42:16Z</time></trkpt><trkpt lat="42.09806519323229" lon="13.360660856674881"><ele>714.0</ele><time>2026-05-02T15:42:17Z</time></trkpt><trkpt lat="42.09816090952889" lon="13.360534488967549"><ele>712.75</ele><time>2026-05-02T15:42:18Z</time></trkpt><trkpt lat="42.09825951884506" lon="13.360401432837227"><ele>711.5</ele><time>2026-05-02T15:42:19Z</time></trkpt><trkpt lat="42.098364537499705" lon="13.360260137061163"><ele>710.25</ele><time>2026-05-02T15:42:20Z</time></trkpt><trkpt lat="42.09847944537176" lon="13.360141949151876"><ele>709.0</ele><time>2026-05-02T15:42:21Z</time></trkpt><trkpt lat="42.098597460860184" lon="13.360003326572974"><ele>709.0</ele><time>2026-05-02T15:42:22Z</time></trkpt><trkpt lat="42.098723959368314" lon="13.359854793346418"><ele>709.0</ele><time>2026-05-02T15:42:23Z</time></trkpt><trkpt lat="42.09885315749183" lon="13.359713640964088"><ele>709.0</ele><time>2026-05-02T15:42:24Z</time></trkpt><trkpt lat="42.098979007467506" lon="13.359575248276306"><ele>708.6666666666667</ele><time>2026-05-02T15:42:25Z</time></trkpt><trkpt lat="42.09910336465997" lon="13.35942995578595"><ele>708.3333333333334</ele><time>2026-05-02T15:42:26Z</time></trkpt><trkpt lat="42.099225888331794" lon="13.359288517445336"><ele>708.0</ele><time>2026-05-02T15:42:27Z</time></trkpt><trkpt lat="42.0993447458323" lon="13.359136324309086"><ele>708.0</ele><time>2026-05-02T15:42:28Z</time></trkpt><trkpt lat="42.09946205524862" lon="13.35899232734094"><ele>708.0</ele><time>2026-05-02T15:42:29Z</time></trkpt><trkpt lat="42.0995772172095" lon="13.358854534857164"><ele>708.0</ele><time>2026-05-02T15:42:30Z</time></trkpt><trkpt lat="42.099680060201266" lon="13.358707544200016"><ele>708.0</ele><time>2026-05-02T15:42:31Z</time></trkpt><trkpt lat="42.09977450077532" lon="13.35857140980251"><ele>708.0</ele><time>2026-05-02T15:42:32Z</time></trkpt><trkpt lat="42.09985342116905" lon="13.358459980654331"><ele>708.0</ele><time>2026-05-02T15:42:33Z</time></trkpt><trkpt lat="42.09993054044093" lon="13.35836470922756"><ele>708.0</ele><time>2026-05-02T15:42:34Z</time></trkpt><trkpt lat="42.10001317103765" lon="13.358271106512223"><ele>708.25</ele><time>2026-05-02T15:42:35Z</time></trkpt><trkpt lat="42.100101226680486" lon="13.358173294014081"><ele>708.5</ele><time>2026-05-02T15:42:36Z</time></trkpt><trkpt lat="42.10019564084523" lon="13.358065539217556"><ele>708.75</ele><time>2026-05-02T15:42:37Z</time></trkpt><trkpt lat="42.100297692184064" lon="13.35795663396644"><ele>709.0</ele><time>2026-05-02T15:42:38Z</time></trkpt><trkpt lat="42.10040501446286" lon="13.357844141636589"><ele>709.0</ele><time>2026-05-02T15:42:39Z</time></trkpt><trkpt lat="42.10051816331158" lon="13.357733744202578"><ele>709.0</ele><time>2026-05-02T15:42:40Z</time></trkpt><trkpt lat="42.10063307392785" lon="13.357616036342712"><ele>709.0</ele><time>2026-05-02T15:42:41Z</time></trkpt><trkpt lat="42.100740057728" lon="13.357505211389991"><ele>709.0</ele><time>2026-05-02T15:42:42Z</time></trkpt><trkpt lat="42.100834435275694" lon="13.357389967549874"><ele>709.25</ele><time>2026-05-02T15:42:43Z</time></trkpt><trkpt lat="42.10093279538902" lon="13.35728891227451"><ele>709.5</ele><time>2026-05-02T15:42:44Z</time></trkpt><trkpt lat="42.101032259996046" lon="13.357209165453142"><ele>709.75</ele><time>2026-05-02T15:42:45Z</time></trkpt><trkpt lat="42.1011438259802" lon="13.357120737040262"><ele>710.0</ele><time>2026-05-02T15:42:46Z</time></trkpt><trkpt lat="42.10125876250478" lon="13.35703187857794"><ele>710.0</ele><time>2026-05-02T15:42:47Z</time></trkpt><trkpt lat="42.101377757029596" lon="13.356928019918577"><ele>710.0</ele><time>2026-05-02T15:42:48Z</time></trkpt><trkpt lat="42.10149813431679" lon="13.356819531584632"><ele>710.0</ele><time>2026-05-02T15:42:49Z</time></trkpt><trkpt lat="42.101608243201476" lon="13.356698062643465"><ele>710.0</ele><time>2026-05-02T15:42:50Z</time></trkpt><trkpt lat="42.10172840069852" lon="13.3565821562161"><ele>710.75</ele><time>2026-05-02T15:42:51Z</time></trkpt><trkpt lat="42.1018386856808" lon="13.356455417862769"><ele>711.5</ele><time>2026-05-02T15:42:52Z</time></trkpt><trkpt lat="42.101951231532574" lon="13.356326964211373"><ele>712.25</ele><time>2026-05-02T15:42:53Z</time></trkpt><trkpt lat="42.10206265882284" lon="13.35619244960365"><ele>713.0</ele><time>2026-05-02T15:42:54Z</time></trkpt><trkpt lat="42.10217233775658" lon="13.356041956392312"><ele>713.0</ele><time>2026-05-02T15:42:55Z</time></trkpt><trkpt lat="42.10227647953352" lon="13.355891687143286"><ele>713.0</ele><time>2026-05-02T15:42:56Z</time></trkpt><trkpt lat="42.10237179227212" lon="13.355723960867355"><ele>713.0</ele><time>2026-05-02T15:42:57Z</time></trkpt><trkpt lat="42.10247887225663" lon="13.35558557140713"><ele>713.0</ele><time>2026-05-02T15:42:58Z</time></trkpt><trkpt lat="42.102587406346075" lon="13.355449290639537"><ele>713.0</ele><time>2026-05-02T15:42:59Z</time></trkpt><trkpt lat="42.102695346059775" lon="13.355313095610462"><ele>713.0</ele><time>2026-05-02T15:43:00Z</time></trkpt><trkpt lat="42.10281428557274" lon="13.35518887327578"><ele>713.0</ele><time>2026-05-02T15:43:01Z</time></trkpt><trkpt lat="42.10292825552346" lon="13.355048789673042"><ele>713.0</ele><time>2026-05-02T15:43:02Z</time></trkpt><trkpt lat="42.103037846757694" lon="13.354910886998285"><ele>713.0</ele><time>2026-05-02T15:43:03Z</time></trkpt><trkpt lat="42.103148334837606" lon="13.354771142036356"><ele>713.0</ele><time>2026-05-02T15:43:04Z</time></trkpt><trkpt lat="42.103259413793495" lon="13.354626195183759"><ele>716.3333333333333</ele><time>2026-05-02T15:43:05Z</time></trkpt><trkpt lat="42.103360575873864" lon="13.354460164623514"><ele>719.6666666666666</ele><time>2026-05-02T15:43:06Z</time></trkpt><trkpt lat="42.10347046502464" lon="13.354310121550034"><ele>723.0</ele><time>2026-05-02T15:43:07Z</time></trkpt><trkpt lat="42.10357960999959" lon="13.354157126661823"><ele>723.0</ele><time>2026-05-02T15:43:08Z</time></trkpt><trkpt lat="42.103686750725885" lon="13.354004751213319"><ele>723.0</ele><time>2026-05-02T15:43:09Z</time></trkpt><trkpt lat="42.10380061895196" lon="13.353852958924008"><ele>723.0</ele><time>2026-05-02T15:43:10Z</time></trkpt><trkpt lat="42.10391194610982" lon="13.353702488128325"><ele>724.6666666666666</ele><time>2026-05-02T15:43:11Z</time></trkpt><trkpt lat="42.104027022662706" lon="13.35355212179732"><ele>726.3333333333333</ele><time>2026-05-02T15:43:12Z</time></trkpt><trkpt lat="42.104154449429494" lon="13.353428088850709"><ele>728.0</ele><time>2026-05-02T15:43:12.999Z</time></trkpt><trkpt lat="42.104276044878425" lon="13.353299149365755"><ele>728.6666666666666</ele><time>2026-05-02T15:43:13.999Z</time></trkpt><trkpt lat="42.104398176239485" lon="13.353178768627634"><ele>729.3333333333334</ele><time>2026-05-02T15:43:14.999Z</time></trkpt><trkpt lat="42.104518021068124" lon="13.353052336585986"><ele>730.0</ele><time>2026-05-02T15:43:15.999Z</time></trkpt><trkpt lat="42.10465124066065" lon="13.352957229174285"><ele>731.0</ele><time>2026-05-02T15:43:16.999Z</time></trkpt><trkpt lat="42.10477850511896" lon="13.35285865110593"><ele>732.0</ele><time>2026-05-02T15:43:17.999Z</time></trkpt><trkpt lat="42.10491111669114" lon="13.35274701366857"><ele>733.0</ele><time>2026-05-02T15:43:18.999Z</time></trkpt><trkpt lat="42.1050428663282" lon="13.352639655960562"><ele>734.75</ele><time>2026-05-02T15:43:19.999Z</time></trkpt><trkpt lat="42.10517306032724" lon="13.352534009111757"><ele>736.5</ele><time>2026-05-02T15:43:20.999Z</time></trkpt><trkpt lat="42.105300916221054" lon="13.352439902840405"><ele>738.25</ele><time>2026-05-02T15:43:21.999Z</time></trkpt><trkpt lat="42.10542353004547" lon="13.352341851021707"><ele>740.0</ele><time>2026-05-02T15:43:22.999Z</time></trkpt><trkpt lat="42.10554494320306" lon="13.352246920614398"><ele>739.75</ele><time>2026-05-02T15:43:23.999Z</time></trkpt><trkpt lat="42.10566591216358" lon="13.352151790824468"><ele>739.5</ele><time>2026-05-02T15:43:24.999Z</time></trkpt><trkpt lat="42.10578181494464" lon="13.352052441397102"><ele>739.25</ele><time>2026-05-02T15:43:25.999Z</time></trkpt><trkpt lat="42.1058864289027" lon="13.351958796697941"><ele>739.0</ele><time>2026-05-02T15:43:26.999Z</time></trkpt><trkpt lat="42.105995299195435" lon="13.351893096802153"><ele>740.0</ele><time>2026-05-02T15:43:27.999Z</time></trkpt><trkpt lat="42.10607690186035" lon="13.35179814749269"><ele>741.0</ele><time>2026-05-02T15:43:28.999Z</time></trkpt><trkpt lat="42.10616087014742" lon="13.351731499483169"><ele>742.0</ele><time>2026-05-02T15:43:29.999Z</time></trkpt><trkpt lat="42.10624014737772" lon="13.351661229540703"><ele>743.0</ele><time>2026-05-02T15:43:30.999Z</time></trkpt><trkpt lat="42.10632226356246" lon="13.351592088290909"><ele>744.0</ele><time>2026-05-02T15:43:31.999Z</time></trkpt><trkpt lat="42.10639707149835" lon="13.351531379018404"><ele>744.0</ele><time>2026-05-02T15:43:32.999Z</time></trkpt><trkpt lat="42.106467618650726" lon="13.351487349448538"><ele>744.0</ele><time>2026-05-02T15:43:33.999Z</time></trkpt><trkpt lat="42.106555237370785" lon="13.351468824978538"><ele>744.0</ele><time>2026-05-02T15:43:34.999Z</time></trkpt><trkpt lat="42.106640547395635" lon="13.351408338172337"><ele>744.0</ele><time>2026-05-02T15:43:35.999Z</time></trkpt><trkpt lat="42.10673505620438" lon="13.35136830394619"><ele>744.0</ele><time>2026-05-02T15:43:36.999Z</time></trkpt><trkpt lat="42.10682140020813" lon="13.351325655335378"><ele>744.5</ele><time>2026-05-02T15:43:37.999Z</time></trkpt><trkpt lat="42.106887590396546" lon="13.35129071095957"><ele>745.0</ele><time>2026-05-02T15:43:38.999Z</time></trkpt><trkpt lat="42.10694539302076" lon="13.351243869675475"><ele>745.5</ele><time>2026-05-02T15:43:39.999Z</time></trkpt><trkpt lat="42.10697296651979" lon="13.351164949418576"><ele>746.0</ele><time>2026-05-02T15:43:40.999Z</time></trkpt><trkpt lat="42.10698354802998" lon="13.351060309542378"><ele>746.5</ele><time>2026-05-02T15:43:41.999Z</time></trkpt><trkpt lat="42.1070004585136" lon="13.350945248635295"><ele>747.0</ele><time>2026-05-02T15:43:42.999Z</time></trkpt><trkpt lat="42.107018593913196" lon="13.350820726992165"><ele>747.0</ele><time>2026-05-02T15:43:43.999Z</time></trkpt><trkpt lat="42.10704174738687" lon="13.350690508714036"><ele>747.0</ele><time>2026-05-02T15:43:44.999Z</time></trkpt><trkpt lat="42.10706526445226" lon="13.35055487541168"><ele>747.0</ele><time>2026-05-02T15:43:45.999Z</time></trkpt><trkpt lat="42.107098685891515" lon="13.35044674982739"><ele>747.0</ele><time>2026-05-02T15:43:46.999Z</time></trkpt><trkpt lat="42.10710585980257" lon="13.35033080212732"><ele>747.0</ele><time>2026-05-02T15:43:47.999Z</time></trkpt><trkpt lat="42.107125194474335" lon="13.350219586500927"><ele>747.4000000000001</ele><time>2026-05-02T15:43:48.999Z</time></trkpt><trkpt lat="42.10715934254294" lon="13.35011032124661"><ele>747.8000000000001</ele><time>2026-05-02T15:43:49.999Z</time></trkpt><trkpt lat="42.10720772522966" lon="13.350008517585218"><ele>748.2</ele><time>2026-05-02T15:43:50.999Z</time></trkpt><trkpt lat="42.1072680660143" lon="13.349895084223208"><ele>748.6</ele><time>2026-05-02T15:43:51.999Z</time></trkpt><trkpt lat="42.107338149036444" lon="13.349791147419475"><ele>749.0</ele><time>2026-05-02T15:43:52.999Z</time></trkpt><trkpt lat="42.10741659744341" lon="13.349677325555659"><ele>749.4000000000001</ele><time>2026-05-02T15:43:53.999Z</time></trkpt><trkpt lat="42.10749759127269" lon="13.34956968916771"><ele>749.8</ele><time>2026-05-02T15:43:54.999Z</time></trkpt><trkpt lat="42.107577786770804" lon="13.349463655769185"><ele>750.2</ele><time>2026-05-02T15:43:55.999Z</time></trkpt><trkpt lat="42.10764982468159" lon="13.349370210883142"><ele>750.5999999999999</ele><time>2026-05-02T15:43:56.999Z</time></trkpt><trkpt lat="42.107711913415834" lon="13.34928028172895"><ele>751.0</ele><time>2026-05-02T15:43:57.999Z</time></trkpt><trkpt lat="42.1077561958897" lon="13.349165238209439"><ele>751.0</ele><time>2026-05-02T15:43:58.999Z</time></trkpt><trkpt lat="42.107780036286485" lon="13.34901863061296"><ele>751.0</ele><time>2026-05-02T15:44:00Z</time></trkpt><trkpt lat="42.107796225271" lon="13.348861779934003"><ele>751.0</ele><time>2026-05-02T15:44:01Z</time></trkpt><trkpt lat="42.10781712299101" lon="13.348694880990013"><ele>751.0</ele><time>2026-05-02T15:44:02Z</time></trkpt><trkpt lat="42.10783291064523" lon="13.348522278520774"><ele>751.0</ele><time>2026-05-02T15:44:03Z</time></trkpt><trkpt lat="42.10785961587657" lon="13.348371139797525"><ele>751.0</ele><time>2026-05-02T15:44:04Z</time></trkpt><trkpt lat="42.107881058060514" lon="13.348225829415709"><ele>751.0</ele><time>2026-05-02T15:44:05Z</time></trkpt><trkpt lat="42.107905185481435" lon="13.348094685703547"><ele>751.0</ele><time>2026-05-02T15:44:06Z</time></trkpt><trkpt lat="42.10791892827341" lon="13.347976731304234"><ele>751.0</ele><time>2026-05-02T15:44:07Z</time></trkpt><trkpt lat="42.107930820942244" lon="13.347880884980144"><ele>751.4</ele><time>2026-05-02T15:44:08Z</time></trkpt><trkpt lat="42.10794659119367" lon="13.34776834374872"><ele>751.8</ele><time>2026-05-02T15:44:10Z</time></trkpt><trkpt lat="42.108047401019846" lon="13.347689559049535"><ele>752.1999999999999</ele><time>2026-05-02T15:44:13Z</time></trkpt><trkpt lat="42.10812755189354" lon="13.34766254611358"><ele>752.5999999999999</ele><time>2026-05-02T15:44:14Z</time></trkpt><trkpt lat="42.10821577031317" lon="13.347618821819065"><ele>753.0</ele><time>2026-05-02T15:44:15Z</time></trkpt><trkpt lat="42.10831032201049" lon="13.347561285653885"><ele>754.25</ele><time>2026-05-02T15:44:16Z</time></trkpt><trkpt lat="42.108415207657536" lon="13.347506459716326"><ele>755.5</ele><time>2026-05-02T15:44:17Z</time></trkpt><trkpt lat="42.10853630364223" lon="13.347454263871043"><ele>756.75</ele><time>2026-05-02T15:44:18Z</time></trkpt><trkpt lat="42.108673444848414" lon="13.347395789988632"><ele>758.0</ele><time>2026-05-02T15:44:19Z</time></trkpt><trkpt lat="42.10881518445128" lon="13.347347901400418"><ele>758.0</ele><time>2026-05-02T15:44:20Z</time></trkpt><trkpt lat="42.10895975134226" lon="13.34730334003392"><ele>758.0</ele><time>2026-05-02T15:44:21Z</time></trkpt><trkpt lat="42.10910639820358" lon="13.347263069871543"><ele>758.0</ele><time>2026-05-02T15:44:22Z</time></trkpt><trkpt lat="42.10926227354336" lon="13.347217827066201"><ele>760.3333333333333</ele><time>2026-05-02T15:44:23Z</time></trkpt><trkpt lat="42.109424000633624" lon="13.347176439772639"><ele>762.6666666666666</ele><time>2026-05-02T15:44:24Z</time></trkpt><trkpt lat="42.10958397221915" lon="13.34713718549341"><ele>765.0</ele><time>2026-05-02T15:44:25Z</time></trkpt><trkpt lat="42.109740909531666" lon="13.347108107327672"><ele>765.0</ele><time>2026-05-02T15:44:26Z</time></trkpt><trkpt lat="42.10988659150868" lon="13.347084926009082"><ele>765.0</ele><time>2026-05-02T15:44:27Z</time></trkpt><trkpt lat="42.11003619275908" lon="13.347024154214647"><ele>765.0</ele><time>2026-05-02T15:44:28Z</time></trkpt><trkpt lat="42.11018450719647" lon="13.346982941345644"><ele>767.6666666666667</ele><time>2026-05-02T15:44:29Z</time></trkpt><trkpt lat="42.11033776065754" lon="13.346935865239635"><ele>770.3333333333334</ele><time>2026-05-02T15:44:30Z</time></trkpt><trkpt lat="42.11049129171657" lon="13.346882108023213"><ele>773.0</ele><time>2026-05-02T15:44:31Z</time></trkpt><trkpt lat="42.11064451215883" lon="13.34682145735592"><ele>774.6666666666667</ele><time>2026-05-02T15:44:32Z</time></trkpt><trkpt lat="42.11079617525419" lon="13.346752327572869"><ele>776.3333333333333</ele><time>2026-05-02T15:44:33Z</time></trkpt><trkpt lat="42.11094923103741" lon="13.34667810388854"><ele>778.0</ele><time>2026-05-02T15:44:34Z</time></trkpt><trkpt lat="42.11110676135313" lon="13.346612242398201"><ele>778.0</ele><time>2026-05-02T15:44:35Z</time></trkpt><trkpt lat="42.11124289132932" lon="13.346567526245881"><ele>778.0</ele><time>2026-05-02T15:44:36Z</time></trkpt><trkpt lat="42.1113628162705" lon="13.346513922986993"><ele>778.0</ele><time>2026-05-02T15:44:37Z</time></trkpt><trkpt lat="42.11158814020135" lon="13.346410105132719"><ele>780.3333333333333</ele><time>2026-05-02T15:44:38Z</time></trkpt><trkpt lat="42.11175739388027" lon="13.34632900710207"><ele>782.6666666666667</ele><time>2026-05-02T15:44:39Z</time></trkpt><trkpt lat="42.11191937258699" lon="13.346249213917956"><ele>785.0</ele><time>2026-05-02T15:44:40Z</time></trkpt><trkpt lat="42.112085271114296" lon="13.34616365096995"><ele>785.0</ele><time>2026-05-02T15:44:41Z</time></trkpt><trkpt lat="42.11224562042256" lon="13.346076032426117"><ele>785.0</ele><time>2026-05-02T15:44:42Z</time></trkpt><trkpt lat="42.11239676514342" lon="13.345978047995636"><ele>785.0</ele><time>2026-05-02T15:44:43Z</time></trkpt><trkpt lat="42.112546314540474" lon="13.345875396919732"><ele>787.6666666666667</ele><time>2026-05-02T15:44:44Z</time></trkpt><trkpt lat="42.11269648967089" lon="13.345764140867239"><ele>790.3333333333333</ele><time>2026-05-02T15:44:45Z</time></trkpt><trkpt lat="42.112843842403" lon="13.345655877301907"><ele>793.0</ele><time>2026-05-02T15:44:46Z</time></trkpt><trkpt lat="42.11299111129479" lon="13.3455527117159"><ele>791.3333333333333</ele><time>2026-05-02T15:44:47Z</time></trkpt><trkpt lat="42.11313908004376" lon="13.345452252011238"><ele>789.6666666666667</ele><time>2026-05-02T15:44:48Z</time></trkpt><trkpt lat="42.113284531506764" lon="13.345346351447207"><ele>788.0</ele><time>2026-05-02T15:44:49Z</time></trkpt><trkpt lat="42.113429552206654" lon="13.345238822127353"><ele>791.3333333333334</ele><time>2026-05-02T15:44:50Z</time></trkpt><trkpt lat="42.11357089371908" lon="13.345136191208608"><ele>794.6666666666667</ele><time>2026-05-02T15:44:51Z</time></trkpt><trkpt lat="42.113717465005024" lon="13.345034896266569"><ele>798.0</ele><time>2026-05-02T15:44:52Z</time></trkpt><trkpt lat="42.113863901918485" lon="13.344933610625455"><ele>798.0</ele><time>2026-05-02T15:44:53Z</time></trkpt><trkpt lat="42.114007992174926" lon="13.344832319972824"><ele>798.0</ele><time>2026-05-02T15:44:54Z</time></trkpt><trkpt lat="42.11414762142674" lon="13.344733348603413"><ele>798.0</ele><time>2026-05-02T15:44:55Z</time></trkpt><trkpt lat="42.114289241670726" lon="13.344661257622729"><ele>800.0</ele><time>2026-05-02T15:44:56Z</time></trkpt><trkpt lat="42.11444266905142" lon="13.344620742625036"><ele>802.0</ele><time>2026-05-02T15:44:57Z</time></trkpt><trkpt lat="42.11459567814248" lon="13.344580659431461"><ele>804.0</ele><time>2026-05-02T15:44:58Z</time></trkpt><trkpt lat="42.11474943199026" lon="13.344554693484932"><ele>805.3333333333333</ele><time>2026-05-02T15:44:59Z</time></trkpt><trkpt lat="42.11491434047025" lon="13.344523833782963"><ele>806.6666666666666</ele><time>2026-05-02T15:45:00Z</time></trkpt><trkpt lat="42.11508078582314" lon="13.34450938785614"><ele>808.0</ele><time>2026-05-02T15:45:01Z</time></trkpt><trkpt lat="42.11525159409379" lon="13.344491038095494"><ele>808.0</ele><time>2026-05-02T15:45:02Z</time></trkpt><trkpt lat="42.115421515760964" lon="13.344480296874721"><ele>808.0</ele><time>2026-05-02T15:45:03Z</time></trkpt><trkpt lat="42.115584478849755" lon="13.34446285079777"><ele>808.0</ele><time>2026-05-02T15:45:04Z</time></trkpt><trkpt lat="42.1157529435154" lon="13.344436489420502"><ele>808.6666666666666</ele><time>2026-05-02T15:45:05Z</time></trkpt><trkpt lat="42.11591251020408" lon="13.344407764395433"><ele>809.3333333333333</ele><time>2026-05-02T15:45:06Z</time></trkpt><trkpt lat="42.11608120427272" lon="13.34438304971303"><ele>810.0</ele><time>2026-05-02T15:45:07Z</time></trkpt><trkpt lat="42.11624043112316" lon="13.344364726433126"><ele>810.0</ele><time>2026-05-02T15:45:08Z</time></trkpt><trkpt lat="42.11640969561981" lon="13.344328370459174"><ele>810.0</ele><time>2026-05-02T15:45:09Z</time></trkpt><trkpt lat="42.11657444445838" lon="13.344310519429355"><ele>810.0</ele><time>2026-05-02T15:45:10Z</time></trkpt><trkpt lat="42.11673939357251" lon="13.34428198001079"><ele>813.0</ele><time>2026-05-02T15:45:11Z</time></trkpt><trkpt lat="42.11690211273391" lon="13.344261048164272"><ele>816.0</ele><time>2026-05-02T15:45:12Z</time></trkpt><trkpt lat="42.11707083311148" lon="13.34424931287224"><ele>819.0</ele><time>2026-05-02T15:45:13Z</time></trkpt><trkpt lat="42.117232709861675" lon="13.344244847277407"><ele>819.0</ele><time>2026-05-02T15:45:14Z</time></trkpt><trkpt lat="42.117400455472676" lon="13.344222140292255"><ele>819.0</ele><time>2026-05-02T15:45:15Z</time></trkpt><trkpt lat="42.11755872823896" lon="13.344185102208924"><ele>819.0</ele><time>2026-05-02T15:45:16Z</time></trkpt><trkpt lat="42.11771589905632" lon="13.344168252258552"><ele>821.3333333333333</ele><time>2026-05-02T15:45:17Z</time></trkpt><trkpt lat="42.11787609470485" lon="13.344153173020834"><ele>823.6666666666666</ele><time>2026-05-02T15:45:18Z</time></trkpt><trkpt lat="42.11803292770541" lon="13.34414745230156"><ele>826.0</ele><time>2026-05-02T15:45:19Z</time></trkpt><trkpt lat="42.118194908860396" lon="13.34414973244176"><ele>827.3333333333333</ele><time>2026-05-02T15:45:19.999Z</time></trkpt><trkpt lat="42.11835186471183" lon="13.344171855136516"><ele>828.6666666666667</ele><time>2026-05-02T15:45:20.999Z</time></trkpt><trkpt lat="42.11850844383373" lon="13.344197863632557"><ele>830.0</ele><time>2026-05-02T15:45:21.999Z</time></trkpt><trkpt lat="42.118666631551875" lon="13.34422278499742"><ele>830.0</ele><time>2026-05-02T15:45:22.999Z</time></trkpt><trkpt lat="42.118825259686275" lon="13.344242544134909"><ele>830.0</ele><time>2026-05-02T15:45:23.999Z</time></trkpt><trkpt lat="42.11898899032482" lon="13.344261213829483"><ele>830.0</ele><time>2026-05-02T15:45:24.999Z</time></trkpt><trkpt lat="42.119151895939886" lon="13.344278475788483"><ele>833.0</ele><time>2026-05-02T15:45:25.999Z</time></trkpt><trkpt lat="42.119312232776075" lon="13.344287510028073"><ele>836.0</ele><time>2026-05-02T15:45:26.999Z</time></trkpt><trkpt lat="42.11947911412873" lon="13.344297062193405"><ele>839.0</ele><time>2026-05-02T15:45:27.999Z</time></trkpt><trkpt lat="42.11963873350359" lon="13.344285435484075"><ele>839.0</ele><time>2026-05-02T15:45:28.999Z</time></trkpt><trkpt lat="42.1197996627761" lon="13.34427342047769"><ele>839.0</ele><time>2026-05-02T15:45:29.999Z</time></trkpt><trkpt lat="42.11996429200415" lon="13.344236229477062"><ele>839.0</ele><time>2026-05-02T15:45:30.999Z</time></trkpt><trkpt lat="42.12012553743134" lon="13.344193630528464"><ele>841.3333333333334</ele><time>2026-05-02T15:45:31.999Z</time></trkpt><trkpt lat="42.12028940728749" lon="13.344138054310664"><ele>843.6666666666667</ele><time>2026-05-02T15:45:32.999Z</time></trkpt><trkpt lat="42.12044207309393" lon="13.344078516636685"><ele>846.0</ele><time>2026-05-02T15:45:33.999Z</time></trkpt><trkpt lat="42.12059734522114" lon="13.344023231738314"><ele>848.3333333333333</ele><time>2026-05-02T15:45:34.999Z</time></trkpt><trkpt lat="42.12075340638457" lon="13.343965499908393"><ele>850.6666666666666</ele><time>2026-05-02T15:45:35.999Z</time></trkpt><trkpt lat="42.12090524035919" lon="13.343916312868968"><ele>853.0</ele><time>2026-05-02T15:45:36.999Z</time></trkpt><trkpt lat="42.121057236970124" lon="13.343866677025892"><ele>853.5</ele><time>2026-05-02T15:45:37.999Z</time></trkpt><trkpt lat="42.121205723859845" lon="13.343810282841341"><ele>854.0</ele><time>2026-05-02T15:45:38.999Z</time></trkpt><trkpt lat="42.12134532109894" lon="13.343734371257412"><ele>854.5</ele><time>2026-05-02T15:45:39.999Z</time></trkpt><trkpt lat="42.12146320071534" lon="13.343631601555156"><ele>855.0</ele><time>2026-05-02T15:45:40.999Z</time></trkpt><trkpt lat="42.12156263255673" lon="13.343523709455548"><ele>857.0</ele><time>2026-05-02T15:45:41.999Z</time></trkpt><trkpt lat="42.121628037126335" lon="13.343404580964842"><ele>859.0</ele><time>2026-05-02T15:45:42.999Z</time></trkpt><trkpt lat="42.12167313261147" lon="13.343273435907658"><ele>861.0</ele><time>2026-05-02T15:45:43.999Z</time></trkpt><trkpt lat="42.12168915236559" lon="13.343129926599834"><ele>863.0</ele><time>2026-05-02T15:45:44.999Z</time></trkpt><trkpt lat="42.12168728168744" lon="13.342989808283843"><ele>865.0</ele><time>2026-05-02T15:45:45.999Z</time></trkpt><trkpt lat="42.12166930414736" lon="13.34285707913427"><ele>865.9999999999999</ele><time>2026-05-02T15:45:46.999Z</time></trkpt><trkpt lat="42.12165533057436" lon="13.342733628236154"><ele>867.0</ele><time>2026-05-02T15:45:47.999Z</time></trkpt><trkpt lat="42.1216446155008" lon="13.342629246973356"><ele>868.0</ele><time>2026-05-02T15:45:48.999Z</time></trkpt><trkpt lat="42.12163777456297" lon="13.342519985102971"><ele>869.0</ele><time>2026-05-02T15:45:49.999Z</time></trkpt><trkpt lat="42.12162739991468" lon="13.342408478294088"><ele>869.9999999999999</ele><time>2026-05-02T15:45:50.999Z</time></trkpt><trkpt lat="42.12161514804679" lon="13.342296942904207"><ele>871.0</ele><time>2026-05-02T15:45:51.999Z</time></trkpt><trkpt lat="42.12160280715036" lon="13.342195464093635"><ele>872.4999999999999</ele><time>2026-05-02T15:45:52.999Z</time></trkpt><trkpt lat="42.12158152426991" lon="13.34211048596233"><ele>874.0</ele><time>2026-05-02T15:45:53.999Z</time></trkpt><trkpt lat="42.121543113975996" lon="13.341947984238548"><ele>875.5</ele><time>2026-05-02T15:45:55.999Z</time></trkpt><trkpt lat="42.121520826228476" lon="13.341848079998291"><ele>877.0</ele><time>2026-05-02T15:45:56.999Z</time></trkpt><trkpt lat="42.12150298038298" lon="13.341745148694674"><ele>878.4999999999999</ele><time>2026-05-02T15:45:57.999Z</time></trkpt><trkpt lat="42.12149036933789" lon="13.341649625019814"><ele>880.0</ele><time>2026-05-02T15:45:58.999Z</time></trkpt><trkpt lat="42.12147949394945" lon="13.341545830734882"><ele>877.8571428571428</ele><time>2026-05-02T15:45:59.999Z</time></trkpt><trkpt lat="42.12147443873391" lon="13.341439452182012"><ele>875.7142857142857</ele><time>2026-05-02T15:46:00.999Z</time></trkpt><trkpt lat="42.12147333085421" lon="13.341334189015939"><ele>873.5714285714286</ele><time>2026-05-02T15:46:01.999Z</time></trkpt><trkpt lat="42.12146986780658" lon="13.341239573644769"><ele>871.4285714285713</ele><time>2026-05-02T15:46:02.999Z</time></trkpt><trkpt lat="42.121468179906486" lon="13.341143376328725"><ele>869.2857142857143</ele><time>2026-05-02T15:46:03.999Z</time></trkpt><trkpt lat="42.12146707110065" lon="13.341044255915396"><ele>867.1428571428571</ele><time>2026-05-02T15:46:04.999Z</time></trkpt><trkpt lat="42.12146610295469" lon="13.340947995405354"><ele>865.0</ele><time>2026-05-02T15:46:06Z</time></trkpt><trkpt lat="42.1214664615755" lon="13.340850817823709"><ele>865.0</ele><time>2026-05-02T15:46:07Z</time></trkpt><trkpt lat="42.121462171605984" lon="13.340750682840516"><ele>865.0</ele><time>2026-05-02T15:46:08Z</time></trkpt><trkpt lat="42.12145863501319" lon="13.340645155761495"><ele>865.0</ele><time>2026-05-02T15:46:09Z</time></trkpt><trkpt lat="42.12145535902999" lon="13.3405537255582"><ele>865.0</ele><time>2026-05-02T15:46:10Z</time></trkpt><trkpt lat="42.121450230504664" lon="13.340462327239056"><ele>865.0</ele><time>2026-05-02T15:46:11Z</time></trkpt><trkpt lat="42.12144515063096" lon="13.340372407553852"><ele>865.0</ele><time>2026-05-02T15:46:12Z</time></trkpt><trkpt lat="42.121439378768855" lon="13.340276440697641"><ele>865.0</ele><time>2026-05-02T15:46:13Z</time></trkpt><trkpt lat="42.12143070053369" lon="13.340176466512487"><ele>866.6666666666666</ele><time>2026-05-02T15:46:14Z</time></trkpt><trkpt lat="42.121420197987426" lon="13.3400790751655"><ele>868.3333333333333</ele><time>2026-05-02T15:46:15Z</time></trkpt><trkpt lat="42.12140763680987" lon="13.339987729458212"><ele>870.0</ele><time>2026-05-02T15:46:16Z</time></trkpt><trkpt lat="42.121395073542246" lon="13.339893743036482"><ele>871.6666666666667</ele><time>2026-05-02T15:46:17Z</time></trkpt><trkpt lat="42.12137312634175" lon="13.339788941147637"><ele>873.3333333333334</ele><time>2026-05-02T15:46:18Z</time></trkpt><trkpt lat="42.12134772215987" lon="13.339660555204729"><ele>875.0</ele><time>2026-05-02T15:46:19Z</time></trkpt><trkpt lat="42.12129406204302" lon="13.339500814960083"><ele>878.75</ele><time>2026-05-02T15:46:20Z</time></trkpt><trkpt lat="42.12123258771817" lon="13.339326565864349"><ele>882.5</ele><time>2026-05-02T15:46:21Z</time></trkpt><trkpt lat="42.121158511866696" lon="13.339177217178598"><ele>886.25</ele><time>2026-05-02T15:46:22Z</time></trkpt><trkpt lat="42.12110045519967" lon="13.339012289701495"><ele>890.0</ele><time>2026-05-02T15:46:23Z</time></trkpt><trkpt lat="42.12103759801202" lon="13.338863259620508"><ele>892.8</ele><time>2026-05-02T15:46:24Z</time></trkpt><trkpt lat="42.12097722311931" lon="13.338731888708297"><ele>895.6</ele><time>2026-05-02T15:46:25Z</time></trkpt><trkpt lat="42.12091939182693" lon="13.338619299761596"><ele>898.4000000000001</ele><time>2026-05-02T15:46:26Z</time></trkpt><trkpt lat="42.12086900132757" lon="13.338525946857931"><ele>901.2</ele><time>2026-05-02T15:46:27Z</time></trkpt><trkpt lat="42.12077600481495" lon="13.338528740773757"><ele>904.0</ele><time>2026-05-02T15:46:28Z</time></trkpt><trkpt lat="42.12069912042917" lon="13.338576720378398"><ele>903.0</ele><time>2026-05-02T15:46:29Z</time></trkpt><trkpt lat="42.12063273943623" lon="13.338670281616125"><ele>902.0000000000001</ele><time>2026-05-02T15:46:30Z</time></trkpt><trkpt lat="42.12060823383809" lon="13.338809461080425"><ele>901.0000000000001</ele><time>2026-05-02T15:46:31Z</time></trkpt><trkpt lat="42.12050701347442" lon="13.338914720349967"><ele>900.0</ele><time>2026-05-02T15:46:32Z</time></trkpt><trkpt lat="42.12043023823742" lon="13.339028402913607"><ele>899.0</ele><time>2026-05-02T15:46:33Z</time></trkpt><trkpt lat="42.120343091240315" lon="13.339128131932338"><ele>899.0</ele><time>2026-05-02T15:46:34Z</time></trkpt><trkpt lat="42.12025871155598" lon="13.339212777342524"><ele>899.0000000000001</ele><time>2026-05-02T15:46:35Z</time></trkpt><trkpt lat="42.120177068157574" lon="13.339275442324803"><ele>899.0000000000001</ele><time>2026-05-02T15:46:36Z</time></trkpt><trkpt lat="42.12009478128708" lon="13.339312214774857"><ele>899.0</ele><time>2026-05-02T15:46:37Z</time></trkpt><trkpt lat="42.11999352221199" lon="13.339274273482934"><ele>899.0</ele><time>2026-05-02T15:46:38Z</time></trkpt><trkpt lat="42.119889224972226" lon="13.33927803932563"><ele>900.0</ele><time>2026-05-02T15:46:39Z</time></trkpt><trkpt lat="42.11977164390467" lon="13.339244707874744"><ele>901.0</ele><time>2026-05-02T15:46:40Z</time></trkpt><trkpt lat="42.119649798096496" lon="13.339218320367655"><ele>902.0</ele><time>2026-05-02T15:46:41Z</time></trkpt><trkpt lat="42.11952634158793" lon="13.339200562935838"><ele>903.0</ele><time>2026-05-02T15:46:42Z</time></trkpt><trkpt lat="42.119398742183385" lon="13.339177004766723"><ele>903.0</ele><time>2026-05-02T15:46:43Z</time></trkpt><trkpt lat="42.119266122158855" lon="13.339157214360178"><ele>903.0</ele><time>2026-05-02T15:46:44Z</time></trkpt><trkpt lat="42.119139110648725" lon="13.339139418787461"><ele>903.0</ele><time>2026-05-02T15:46:45Z</time></trkpt><trkpt lat="42.11900628839436" lon="13.339137846372017"><ele>903.0</ele><time>2026-05-02T15:46:46Z</time></trkpt><trkpt lat="42.11888330994647" lon="13.339142048231748"><ele>903.5999999999999</ele><time>2026-05-02T15:46:47Z</time></trkpt><trkpt lat="42.11876083749377" lon="13.33914441547094"><ele>904.1999999999999</ele><time>2026-05-02T15:46:48Z</time></trkpt><trkpt lat="42.11863760424661" lon="13.339160209207476"><ele>904.8</ele><time>2026-05-02T15:46:49Z</time></trkpt><trkpt lat="42.11853360952458" lon="13.339175952266816"><ele>905.4</ele><time>2026-05-02T15:46:50Z</time></trkpt><trkpt lat="42.118442652539514" lon="13.339185781225767"><ele>906.0</ele><time>2026-05-02T15:46:51Z</time></trkpt><trkpt lat="42.1183701804627" lon="13.339163939281132"><ele>906.0</ele><time>2026-05-02T15:46:52Z</time></trkpt><trkpt lat="42.11824570410749" lon="13.339162445453702"><ele>905.9999999999999</ele><time>2026-05-02T15:46:54Z</time></trkpt><trkpt lat="42.118143811682124" lon="13.339127225445234"><ele>905.9999999999999</ele><time>2026-05-02T15:46:56Z</time></trkpt><trkpt lat="42.118072325419305" lon="13.33908746723837"><ele>906.0</ele><time>2026-05-02T15:46:58Z</time></trkpt><trkpt lat="42.11806885347275" lon="13.33898242015781"><ele>906.0</ele><time>2026-05-02T15:47:00Z</time></trkpt><trkpt lat="42.11809160801995" lon="13.338790616836526"><ele>904.142857142857</ele><time>2026-05-02T15:47:04Z</time></trkpt><trkpt lat="42.11808835340377" lon="13.33870249634212"><ele>902.2857142857142</ele><time>2026-05-02T15:47:05Z</time></trkpt><trkpt lat="42.11809365833862" lon="13.33859495333086"><ele>900.4285714285713</ele><time>2026-05-02T15:47:06Z</time></trkpt><trkpt lat="42.118097208867454" lon="13.338496622965303"><ele>898.5714285714284</ele><time>2026-05-02T15:47:07Z</time></trkpt><trkpt lat="42.118096579867874" lon="13.338407051738407"><ele>896.7142857142858</ele><time>2026-05-02T15:47:08Z</time></trkpt><trkpt lat="42.11808715064161" lon="13.338296973134272"><ele>894.8571428571429</ele><time>2026-05-02T15:47:10Z</time></trkpt><trkpt lat="42.118105824641994" lon="13.33820558750748"><ele>893.0</ele><time>2026-05-02T15:47:12Z</time></trkpt><trkpt lat="42.11815336381858" lon="13.33806576780049"><ele>896.5999999999999</ele><time>2026-05-02T15:47:15Z</time></trkpt><trkpt lat="42.11823831410741" lon="13.337919766150558"><ele>900.1999999999999</ele><time>2026-05-02T15:47:17Z</time></trkpt><trkpt lat="42.11827809195436" lon="13.337815969320955"><ele>903.8</ele><time>2026-05-02T15:47:18Z</time></trkpt><trkpt lat="42.11833816766666" lon="13.337734500007745"><ele>907.4</ele><time>2026-05-02T15:47:19Z</time></trkpt><trkpt lat="42.11838477172293" lon="13.33763232046106"><ele>911.0</ele><time>2026-05-02T15:47:20Z</time></trkpt><trkpt lat="42.118455140756595" lon="13.337539199687214"><ele>911.0</ele><time>2026-05-02T15:47:21Z</time></trkpt><trkpt lat="42.11854117227165" lon="13.337455956973761"><ele>910.9999999999999</ele><time>2026-05-02T15:47:22Z</time></trkpt><trkpt lat="42.118611882424865" lon="13.33734929928632"><ele>910.9999999999999</ele><time>2026-05-02T15:47:23Z</time></trkpt><trkpt lat="42.118696095171046" lon="13.337248506295285"><ele>911.0</ele><time>2026-05-02T15:47:24Z</time></trkpt><trkpt lat="42.11878990160096" lon="13.337149927697514"><ele>911.0</ele><time>2026-05-02T15:47:25Z</time></trkpt><trkpt lat="42.11888730718298" lon="13.337055890067921"><ele>913.1999999999999</ele><time>2026-05-02T15:47:26Z</time></trkpt><trkpt lat="42.11898342659046" lon="13.336962970703519"><ele>915.3999999999999</ele><time>2026-05-02T15:47:27Z</time></trkpt><trkpt lat="42.11907142584934" lon="13.336866474438972"><ele>917.6</ele><time>2026-05-02T15:47:27.999Z</time></trkpt><trkpt lat="42.119150168123156" lon="13.336765309336924"><ele>919.8</ele><time>2026-05-02T15:47:28.999Z</time></trkpt><trkpt lat="42.119227144951715" lon="13.336662433997041"><ele>922.0</ele><time>2026-05-02T15:47:29.999Z</time></trkpt><trkpt lat="42.11929908754913" lon="13.336558876099765"><ele>922.0</ele><time>2026-05-02T15:47:30.999Z</time></trkpt><trkpt lat="42.1193720111189" lon="13.336457937324917"><ele>922.0</ele><time>2026-05-02T15:47:31.999Z</time></trkpt><trkpt lat="42.11946233340312" lon="13.336391947641564"><ele>922.0</ele><time>2026-05-02T15:47:32.999Z</time></trkpt><trkpt lat="42.119551763081645" lon="13.33631041113907"><ele>922.0</ele><time>2026-05-02T15:47:33.999Z</time></trkpt><trkpt lat="42.119645624085244" lon="13.336240121780461"><ele>922.0</ele><time>2026-05-02T15:47:34.999Z</time></trkpt><trkpt lat="42.119743802176956" lon="13.336179202279437"><ele>925.0</ele><time>2026-05-02T15:47:35.999Z</time></trkpt><trkpt lat="42.11985126904766" lon="13.33611074998319"><ele>928.0</ele><time>2026-05-02T15:47:36.999Z</time></trkpt><trkpt lat="42.119946132128696" lon="13.336014286164232"><ele>931.0</ele><time>2026-05-02T15:47:37.999Z</time></trkpt><trkpt lat="42.12003931026285" lon="13.335925768434183"><ele>934.0</ele><time>2026-05-02T15:47:38.999Z</time></trkpt><trkpt lat="42.12012286773884" lon="13.335826475606684"><ele>934.0</ele><time>2026-05-02T15:47:39.999Z</time></trkpt><trkpt lat="42.12021522836138" lon="13.335752578290775"><ele>934.0000000000001</ele><time>2026-05-02T15:47:40.999Z</time></trkpt><trkpt lat="42.12029713761307" lon="13.335665218987101"><ele>934.0000000000001</ele><time>2026-05-02T15:47:41.999Z</time></trkpt><trkpt lat="42.120379979229476" lon="13.33559308880369"><ele>934.0</ele><time>2026-05-02T15:47:42.999Z</time></trkpt><trkpt lat="42.12046348591734" lon="13.335543667384892"><ele>934.0</ele><time>2026-05-02T15:47:43.999Z</time></trkpt><trkpt lat="42.12052742087282" lon="13.335506551140742"><ele>931.0</ele><time>2026-05-02T15:47:44.999Z</time></trkpt><trkpt lat="42.12064812519931" lon="13.335472529589186"><ele>928.0</ele><time>2026-05-02T15:47:46.999Z</time></trkpt><trkpt lat="42.12069096727962" lon="13.335275014133858"><ele>925.0</ele><time>2026-05-02T15:47:47.999Z</time></trkpt><trkpt lat="42.120738451163625" lon="13.335165006859702"><ele>922.0</ele><time>2026-05-02T15:47:48.999Z</time></trkpt><trkpt lat="42.12078573239836" lon="13.335045839094178"><ele>927.6</ele><time>2026-05-02T15:47:49.999Z</time></trkpt><trkpt lat="42.12084270237592" lon="13.33492655636781"><ele>933.2</ele><time>2026-05-02T15:47:50.999Z</time></trkpt><trkpt lat="42.12090246086656" lon="13.334802930876606"><ele>938.8</ele><time>2026-05-02T15:47:51.999Z</time></trkpt><trkpt lat="42.12095416092457" lon="13.3346732642246"><ele>944.4</ele><time>2026-05-02T15:47:52.999Z</time></trkpt><trkpt lat="42.12103048453534" lon="13.334547543730212"><ele>950.0</ele><time>2026-05-02T15:47:53.999Z</time></trkpt><trkpt lat="42.121101424305955" lon="13.334397252785386"><ele>950.0</ele><time>2026-05-02T15:47:54.999Z</time></trkpt><trkpt lat="42.1211612065806" lon="13.334213409805105"><ele>950.0</ele><time>2026-05-02T15:47:55.999Z</time></trkpt><trkpt lat="42.121172941186245" lon="13.333958595030381"><ele>950.0</ele><time>2026-05-02T15:47:56.999Z</time></trkpt><trkpt lat="42.12116997580684" lon="13.334193405121884"><ele>950.0000000000001</ele><time>2026-05-02T15:47:57.999Z</time></trkpt><trkpt lat="42.12117978659742" lon="13.334098197947169"><ele>950.0</ele><time>2026-05-02T15:47:58.999Z</time></trkpt><trkpt lat="42.121180706099366" lon="13.334010487136734"><ele>950.0</ele><time>2026-05-02T15:47:59.999Z</time></trkpt><trkpt lat="42.12115421180592" lon="13.333874251285932"><ele>950.0</ele><time>2026-05-02T15:48:01.999Z</time></trkpt><trkpt lat="42.12110780811498" lon="13.33373868557169"><ele>950.0000000000001</ele><time>2026-05-02T15:48:03.999Z</time></trkpt><trkpt lat="42.1210636569175" lon="13.333666279211679"><ele>950.0</ele><time>2026-05-02T15:48:04.999Z</time></trkpt><trkpt lat="42.12100849007043" lon="13.33359788040824"><ele>949.8333333333334</ele><time>2026-05-02T15:48:05.999Z</time></trkpt><trkpt lat="42.12094044493162" lon="13.333546357379854"><ele>949.6666666666667</ele><time>2026-05-02T15:48:06.999Z</time></trkpt><trkpt lat="42.12087532581957" lon="13.333510946558306"><ele>949.5</ele><time>2026-05-02T15:48:07.999Z</time></trkpt><trkpt lat="42.12079531488959" lon="13.333499457258162"><ele>949.3333333333333</ele><time>2026-05-02T15:48:08.999Z</time></trkpt><trkpt lat="42.12070813145827" lon="13.333508745936275"><ele>949.1666666666666</ele><time>2026-05-02T15:48:09.999Z</time></trkpt><trkpt lat="42.120618161578676" lon="13.333539665405208"><ele>949.0</ele><time>2026-05-02T15:48:10.999Z</time></trkpt><trkpt lat="42.12053830734446" lon="13.333581416975912"><ele>949.0</ele><time>2026-05-02T15:48:12Z</time></trkpt><trkpt lat="42.12045158182538" lon="13.333604335782693"><ele>949.0000000000001</ele><time>2026-05-02T15:48:13Z</time></trkpt><trkpt lat="42.12038622713743" lon="13.333626781365522"><ele>949.0000000000001</ele><time>2026-05-02T15:48:14Z</time></trkpt><trkpt lat="42.12028129726759" lon="13.333577715213632"><ele>949.0</ele><time>2026-05-02T15:48:16Z</time></trkpt><trkpt lat="42.12028325280423" lon="13.333397745602236"><ele>949.0</ele><time>2026-05-02T15:48:18Z</time></trkpt><trkpt lat="42.120298894930045" lon="13.333276899285963"><ele>949.0</ele><time>2026-05-02T15:48:19Z</time></trkpt><trkpt lat="42.12029675636289" lon="13.333132182568841"><ele>949.0000000000001</ele><time>2026-05-02T15:48:20Z</time></trkpt><trkpt lat="42.12030188913601" lon="13.332994156052202"><ele>949.0000000000001</ele><time>2026-05-02T15:48:21Z</time></trkpt><trkpt lat="42.120311218905876" lon="13.332859050739563"><ele>949.0</ele><time>2026-05-02T15:48:22Z</time></trkpt><trkpt lat="42.12032726913655" lon="13.332717245139214"><ele>949.0</ele><time>2026-05-02T15:48:23Z</time></trkpt><trkpt lat="42.12031478832241" lon="13.332587473150237"><ele>952.2</ele><time>2026-05-02T15:48:24Z</time></trkpt><trkpt lat="42.120315562250084" lon="13.332463589250976"><ele>955.4000000000001</ele><time>2026-05-02T15:48:25Z</time></trkpt><trkpt lat="42.12030026566527" lon="13.33233711038525"><ele>958.6</ele><time>2026-05-02T15:48:26Z</time></trkpt><trkpt lat="42.12028158839979" lon="13.332220049904652"><ele>961.8</ele><time>2026-05-02T15:48:27Z</time></trkpt><trkpt lat="42.120247906596255" lon="13.332107179089228"><ele>965.0</ele><time>2026-05-02T15:48:28Z</time></trkpt><trkpt lat="42.12020384478264" lon="13.332005622921889"><ele>966.2857142857142</ele><time>2026-05-02T15:48:29Z</time></trkpt><trkpt lat="42.12018683581535" lon="13.331902176473278"><ele>967.5714285714287</ele><time>2026-05-02T15:48:30Z</time></trkpt><trkpt lat="42.12015645599969" lon="13.33180599759551"><ele>968.8571428571429</ele><time>2026-05-02T15:48:31Z</time></trkpt><trkpt lat="42.12013609132831" lon="13.331721069938798"><ele>970.1428571428571</ele><time>2026-05-02T15:48:32Z</time></trkpt><trkpt lat="42.12011438852289" lon="13.331633048823843"><ele>971.4285714285713</ele><time>2026-05-02T15:48:33Z</time></trkpt><trkpt lat="42.120136222492015" lon="13.331541349154875"><ele>972.7142857142858</ele><time>2026-05-02T15:48:34Z</time></trkpt><trkpt lat="42.12018420010503" lon="13.331471274518844"><ele>974.0</ele><time>2026-05-02T15:48:35Z</time></trkpt><trkpt lat="42.12026085331872" lon="13.331452685712911"><ele>974.0000000000001</ele><time>2026-05-02T15:48:36Z</time></trkpt><trkpt lat="42.12032771681402" lon="13.331433282962532"><ele>974.0</ele><time>2026-05-02T15:48:37Z</time></trkpt><trkpt lat="42.12040002637838" lon="13.331384571365152"><ele>974.0</ele><time>2026-05-02T15:48:38Z</time></trkpt><trkpt lat="42.120481189914784" lon="13.331360685618094"><ele>974.0</ele><time>2026-05-02T15:48:39Z</time></trkpt><trkpt lat="42.12055281028299" lon="13.331321613181363"><ele>974.0000000000001</ele><time>2026-05-02T15:48:40Z</time></trkpt><trkpt lat="42.120638399263385" lon="13.331289917080035"><ele>974.0</ele><time>2026-05-02T15:48:41Z</time></trkpt><trkpt lat="42.12072154451612" lon="13.331253824047698"><ele>975.6</ele><time>2026-05-02T15:48:42Z</time></trkpt><trkpt lat="42.12080192532723" lon="13.331217925576006"><ele>977.2</ele><time>2026-05-02T15:48:43Z</time></trkpt><trkpt lat="42.12089116968918" lon="13.331180315767188"><ele>978.8000000000001</ele><time>2026-05-02T15:48:44Z</time></trkpt><trkpt lat="42.12097957563678" lon="13.331132896186874"><ele>980.4000000000001</ele><time>2026-05-02T15:48:45Z</time></trkpt><trkpt lat="42.121068875543735" lon="13.331087697939626"><ele>982.0</ele><time>2026-05-02T15:48:46Z</time></trkpt><trkpt lat="42.12114661456179" lon="13.331049148371855"><ele>981.9999999999999</ele><time>2026-05-02T15:48:47Z</time></trkpt><trkpt lat="42.12122824619066" lon="13.331015409230652"><ele>982.0</ele><time>2026-05-02T15:48:48Z</time></trkpt><trkpt lat="42.121312728585785" lon="13.331003575916101"><ele>982.0</ele><time>2026-05-02T15:48:49Z</time></trkpt><trkpt lat="42.12139576773538" lon="13.330970980791212"><ele>982.0</ele><time>2026-05-02T15:48:50Z</time></trkpt><trkpt lat="42.12148003161678" lon="13.330937905143704"><ele>981.9999999999999</ele><time>2026-05-02T15:48:51Z</time></trkpt><trkpt lat="42.12156357198098" lon="13.330900592513276"><ele>982.0</ele><time>2026-05-02T15:48:52Z</time></trkpt><trkpt lat="42.121644789595926" lon="13.330867267557856"><ele>983.3333333333333</ele><time>2026-05-02T15:48:53Z</time></trkpt><trkpt lat="42.121716934608834" lon="13.330852038552782"><ele>984.6666666666666</ele><time>2026-05-02T15:48:54Z</time></trkpt><trkpt lat="42.121797663553004" lon="13.330840994888963"><ele>986.0</ele><time>2026-05-02T15:48:55Z</time></trkpt><trkpt lat="42.12188282818701" lon="13.330833073745815"><ele>987.3333333333333</ele><time>2026-05-02T15:48:56Z</time></trkpt><trkpt lat="42.12197019434772" lon="13.330824455617558"><ele>988.6666666666666</ele><time>2026-05-02T15:48:57Z</time></trkpt><trkpt lat="42.1220545260614" lon="13.330813356837636"><ele>990.0</ele><time>2026-05-02T15:48:58Z</time></trkpt><trkpt lat="42.12213874774673" lon="13.330784250375347"><ele>990.0</ele><time>2026-05-02T15:48:59Z</time></trkpt><trkpt lat="42.122227955206114" lon="13.330779684187712"><ele>990.0</ele><time>2026-05-02T15:49:00Z</time></trkpt><trkpt lat="42.122313555142085" lon="13.330764944649303"><ele>990.0</ele><time>2026-05-02T15:49:01Z</time></trkpt><trkpt lat="42.12239488525101" lon="13.330728631150853"><ele>990.0</ele><time>2026-05-02T15:49:02Z</time></trkpt><trkpt lat="42.12247583496363" lon="13.330684435716837"><ele>990.0</ele><time>2026-05-02T15:49:03Z</time></trkpt><trkpt lat="42.122541641631415" lon="13.3306274107449"><ele>990.0</ele><time>2026-05-02T15:49:04Z</time></trkpt><trkpt lat="42.122608330735794" lon="13.330564028506723"><ele>991.6666666666666</ele><time>2026-05-02T15:49:05Z</time></trkpt><trkpt lat="42.122664724339685" lon="13.330485970536753"><ele>993.3333333333333</ele><time>2026-05-02T15:49:06Z</time></trkpt><trkpt lat="42.12273956554008" lon="13.330437304766964"><ele>995.0</ele><time>2026-05-02T15:49:07Z</time></trkpt><trkpt lat="42.12280474634541" lon="13.330373919542888"><ele>996.6666666666666</ele><time>2026-05-02T15:49:08Z</time></trkpt><trkpt lat="42.12286368174448" lon="13.330292942142203"><ele>998.3333333333333</ele><time>2026-05-02T15:49:09Z</time></trkpt><trkpt lat="42.122942960974186" lon="13.330250846429415"><ele>1000.0</ele><time>2026-05-02T15:49:10Z</time></trkpt><trkpt lat="42.12301186524766" lon="13.330195539579378"><ele>1000.0</ele><time>2026-05-02T15:49:11Z</time></trkpt><trkpt lat="42.12309157640068" lon="13.330137375366725"><ele>1000.0</ele><time>2026-05-02T15:49:12Z</time></trkpt><trkpt lat="42.12316980078628" lon="13.330085078612086"><ele>1000.0</ele><time>2026-05-02T15:49:13Z</time></trkpt><trkpt lat="42.12326069822947" lon="13.330041371379203"><ele>1000.0</ele><time>2026-05-02T15:49:14Z</time></trkpt><trkpt lat="42.123356195930285" lon="13.33000505867163"><ele>1000.0</ele><time>2026-05-02T15:49:15Z</time></trkpt><trkpt lat="42.12344797753349" lon="13.32997606503441"><ele>1001.6</ele><time>2026-05-02T15:49:16Z</time></trkpt><trkpt lat="42.12353641256017" lon="13.329924118784135"><ele>1003.2</ele><time>2026-05-02T15:49:17Z</time></trkpt><trkpt lat="42.123621747965316" lon="13.329897321310998"><ele>1004.8</ele><time>2026-05-02T15:49:18Z</time></trkpt><trkpt lat="42.12370198714991" lon="13.329865375044664"><ele>1006.4</ele><time>2026-05-02T15:49:19Z</time></trkpt><trkpt lat="42.12379549386958" lon="13.3298239116308"><ele>1008.0</ele><time>2026-05-02T15:49:20Z</time></trkpt><trkpt lat="42.12387576937966" lon="13.329764935324963"><ele>1007.1666666666666</ele><time>2026-05-02T15:49:21Z</time></trkpt><trkpt lat="42.12395778821068" lon="13.329724895909937"><ele>1006.3333333333333</ele><time>2026-05-02T15:49:22Z</time></trkpt><trkpt lat="42.12402720183673" lon="13.329656986297037"><ele>1005.5</ele><time>2026-05-02T15:49:23Z</time></trkpt><trkpt lat="42.12410307896265" lon="13.329619030282684"><ele>1004.6666666666666</ele><time>2026-05-02T15:49:24Z</time></trkpt><trkpt lat="42.124172664325414" lon="13.329551106566605"><ele>1003.8333333333333</ele><time>2026-05-02T15:49:25Z</time></trkpt><trkpt lat="42.12422227352881" lon="13.329445538228379"><ele>1003.0</ele><time>2026-05-02T15:49:26Z</time></trkpt><trkpt lat="42.124286294391894" lon="13.329353441285726"><ele>1005.3333333333333</ele><time>2026-05-02T15:49:27Z</time></trkpt><trkpt lat="42.12435288100742" lon="13.329273881383429"><ele>1007.6666666666666</ele><time>2026-05-02T15:49:28Z</time></trkpt><trkpt lat="42.12441060557901" lon="13.329202226461906"><ele>1010.0</ele><time>2026-05-02T15:49:29Z</time></trkpt><trkpt lat="42.124459868567" lon="13.329135212348156"><ele>1012.3333333333333</ele><time>2026-05-02T15:49:30Z</time></trkpt><trkpt lat="42.124520359383204" lon="13.329090984444639"><ele>1014.6666666666666</ele><time>2026-05-02T15:49:31Z</time></trkpt><trkpt lat="42.12459866188402" lon="13.3290719281773"><ele>1017.0</ele><time>2026-05-02T15:49:32Z</time></trkpt><trkpt lat="42.124726170596084" lon="13.329044612701788"><ele>1017.0</ele><time>2026-05-02T15:49:34Z</time></trkpt><trkpt lat="42.124853014391995" lon="13.329062467230075"><ele>1017.0</ele><time>2026-05-02T15:49:36Z</time></trkpt><trkpt lat="42.12491759755144" lon="13.3290780386113"><ele>1017.0</ele><time>2026-05-02T15:49:37Z</time></trkpt><trkpt lat="42.12498569054836" lon="13.329076906997138"><ele>1017.0</ele><time>2026-05-02T15:49:37.999Z</time></trkpt><trkpt lat="42.12508456989783" lon="13.329124453992746"><ele>1017.0</ele><time>2026-05-02T15:49:39.999Z</time></trkpt><trkpt lat="42.125184804265686" lon="13.32915805329104"><ele>1019.8</ele><time>2026-05-02T15:49:41.999Z</time></trkpt><trkpt lat="42.125273466287744" lon="13.329197122595266"><ele>1022.6</ele><time>2026-05-02T15:49:43.999Z</time></trkpt><trkpt lat="42.125371066275925" lon="13.329253665442492"><ele>1025.3999999999999</ele><time>2026-05-02T15:49:45.999Z</time></trkpt><trkpt lat="42.12546367835694" lon="13.329315475037967"><ele>1028.2</ele><time>2026-05-02T15:49:47.999Z</time></trkpt><trkpt lat="42.12556005907804" lon="13.329382893717678"><ele>1031.0</ele><time>2026-05-02T15:49:49.999Z</time></trkpt><trkpt lat="42.12561781586978" lon="13.329424547449772"><ele>1031.0</ele><time>2026-05-02T15:49:50.999Z</time></trkpt><trkpt lat="42.12567766442507" lon="13.329467709676257"><ele>1031.0</ele><time>2026-05-02T15:49:51.999Z</time></trkpt><trkpt lat="42.12573590875756" lon="13.329509714992774"><ele>1031.0</ele><time>2026-05-02T15:49:52.999Z</time></trkpt><trkpt lat="42.125851832699375" lon="13.329566918377383"><ele>1031.0</ele><time>2026-05-02T15:49:54.999Z</time></trkpt><trkpt lat="42.125954112866204" lon="13.329630524594604"><ele>1031.0</ele><time>2026-05-02T15:49:56.999Z</time></trkpt><trkpt lat="42.12605562545965" lon="13.32968963638238"><ele>1034.8333333333335</ele><time>2026-05-02T15:49:58.999Z</time></trkpt><trkpt lat="42.126165290544684" lon="13.329736204032564"><ele>1038.6666666666667</ele><time>2026-05-02T15:50:00.999Z</time></trkpt><trkpt lat="42.12622843891495" lon="13.329746677372945"><ele>1042.5</ele><time>2026-05-02T15:50:01.999Z</time></trkpt><trkpt lat="42.12630973315058" lon="13.32975273502233"><ele>1046.3333333333333</ele><time>2026-05-02T15:50:02.999Z</time></trkpt><trkpt lat="42.12638553948299" lon="13.32974685749856"><ele>1050.1666666666665</ele><time>2026-05-02T15:50:03.999Z</time></trkpt><trkpt lat="42.12647113927395" lon="13.329736676188691"><ele>1054.0</ele><time>2026-05-02T15:50:04.999Z</time></trkpt><trkpt lat="42.12654594348156" lon="13.329754999946259"><ele>1055.4285714285716</ele><time>2026-05-02T15:50:05.999Z</time></trkpt><trkpt lat="42.12661600242047" lon="13.32976424825605"><ele>1056.857142857143</ele><time>2026-05-02T15:50:06.999Z</time></trkpt><trkpt lat="42.12668402171268" lon="13.329784399771006"><ele>1058.2857142857142</ele><time>2026-05-02T15:50:07.999Z</time></trkpt><trkpt lat="42.12675230301184" lon="13.329805439379102"><ele>1059.7142857142858</ele><time>2026-05-02T15:50:08.999Z</time></trkpt><trkpt lat="42.12682399322615" lon="13.329800396552201"><ele>1061.142857142857</ele><time>2026-05-02T15:50:09.999Z</time></trkpt><trkpt lat="42.126898816143175" lon="13.329834559856893"><ele>1062.5714285714287</ele><time>2026-05-02T15:50:10.999Z</time></trkpt><trkpt lat="42.12697384948638" lon="13.329863117139077"><ele>1064.0</ele><time>2026-05-02T15:50:11.999Z</time></trkpt><trkpt lat="42.12705136322821" lon="13.32989501282817"><ele>1064.0</ele><time>2026-05-02T15:50:12.999Z</time></trkpt><trkpt lat="42.127131143483524" lon="13.32992921317457"><ele>1064.0</ele><time>2026-05-02T15:50:13.999Z</time></trkpt><trkpt lat="42.12719314215173" lon="13.329959534132566"><ele>1064.0</ele><time>2026-05-02T15:50:14.999Z</time></trkpt><trkpt lat="42.12726430985415" lon="13.329996892409385"><ele>1064.0</ele><time>2026-05-02T15:50:15.999Z</time></trkpt><trkpt lat="42.127338514537676" lon="13.330040010086933"><ele>1064.0</ele><time>2026-05-02T15:50:17Z</time></trkpt><trkpt lat="42.1274168120862" lon="13.33008647159814"><ele>1064.0</ele><time>2026-05-02T15:50:18.001Z</time></trkpt><trkpt lat="42.127494378768134" lon="13.330134481838648"><ele>1065.6000000000001</ele><time>2026-05-02T15:50:19Z</time></trkpt><trkpt lat="42.12759760104421" lon="13.330167806870449"><ele>1067.2</ele><time>2026-05-02T15:50:21Z</time></trkpt><trkpt lat="42.12768250222128" lon="13.330219159452282"><ele>1068.8000000000002</ele><time>2026-05-02T15:50:23Z</time></trkpt><trkpt lat="42.12777502633069" lon="13.330236580842337"><ele>1070.4</ele><time>2026-05-02T15:50:25Z</time></trkpt><trkpt lat="42.127873271769964" lon="13.3302358934104"><ele>1072.0</ele><time>2026-05-02T15:50:27Z</time></trkpt><trkpt lat="42.12798140917456" lon="13.33021049263167"><ele>1072.0</ele><time>2026-05-02T15:50:29Z</time></trkpt><trkpt lat="42.128089207842585" lon="13.330175699345052"><ele>1072.0</ele><time>2026-05-02T15:50:31Z</time></trkpt><trkpt lat="42.1282045402843" lon="13.330123130684674"><ele>1072.0</ele><time>2026-05-02T15:50:33Z</time></trkpt><trkpt lat="42.12831573482447" lon="13.33006715211329"><ele>1072.0</ele><time>2026-05-02T15:50:35Z</time></trkpt><trkpt lat="42.12843265191563" lon="13.33002748261137"><ele>1071.0</ele><time>2026-05-02T15:50:37Z</time></trkpt><trkpt lat="42.12853556031994" lon="13.329950239284814"><ele>1070.0</ele><time>2026-05-02T15:50:39Z</time></trkpt><trkpt lat="42.12864182390477" lon="13.329889040746833"><ele>1069.0</ele><time>2026-05-02T15:50:41Z</time></trkpt><trkpt lat="42.128746154728724" lon="13.329819146638599"><ele>1068.0</ele><time>2026-05-02T15:50:43Z</time></trkpt><trkpt lat="42.1288425705522" lon="13.329734735158944"><ele>1068.8</ele><time>2026-05-02T15:50:45Z</time></trkpt><trkpt lat="42.12894344812487" lon="13.329660534317293"><ele>1069.6</ele><time>2026-05-02T15:50:47Z</time></trkpt><trkpt lat="42.12904111188341" lon="13.32958754868081"><ele>1070.4</ele><time>2026-05-02T15:50:49Z</time></trkpt><trkpt lat="42.12913662719301" lon="13.329521114982006"><ele>1071.2</ele><time>2026-05-02T15:50:51Z</time></trkpt><trkpt lat="42.12922916382381" lon="13.329457165049197"><ele>1072.0</ele><time>2026-05-02T15:50:53Z</time></trkpt><trkpt lat="42.12931562687702" lon="13.32938837283143"><ele>1070.4</ele><time>2026-05-02T15:50:55Z</time></trkpt><trkpt lat="42.12939459364532" lon="13.329308975806285"><ele>1068.8000000000002</ele><time>2026-05-02T15:50:57Z</time></trkpt><trkpt lat="42.12946217533327" lon="13.329228798674043"><ele>1067.2</ele><time>2026-05-02T15:50:59Z</time></trkpt><trkpt lat="42.129529608015666" lon="13.32915620734141"><ele>1065.6000000000001</ele><time>2026-05-02T15:51:01Z</time></trkpt><trkpt lat="42.12958729107461" lon="13.329089094003493"><ele>1064.0</ele><time>2026-05-02T15:51:03Z</time></trkpt><trkpt lat="42.12966622635919" lon="13.328997873952806"><ele>1063.6000000000001</ele><time>2026-05-02T15:57:34Z</time></trkpt><trkpt lat="42.129731666330784" lon="13.328882738354329"><ele>1063.2</ele><time>2026-05-02T15:57:36Z</time></trkpt><trkpt lat="42.12980975753957" lon="13.32876979775525"><ele>1062.8000000000002</ele><time>2026-05-02T15:57:38Z</time></trkpt><trkpt lat="42.1298516462352" lon="13.32870010749879"><ele>1062.4</ele><time>2026-05-02T15:57:39Z</time></trkpt><trkpt lat="42.12990385639653" lon="13.328617047934676"><ele>1062.0</ele><time>2026-05-02T15:57:40Z</time></trkpt><trkpt lat="42.129957028036245" lon="13.328531496612895"><ele>1062.0</ele><time>2026-05-02T15:57:41Z</time></trkpt><trkpt lat="42.13000360925398" lon="13.328452961065185"><ele>1062.0</ele><time>2026-05-02T15:57:42Z</time></trkpt><trkpt lat="42.130057156396084" lon="13.328383413652348"><ele>1062.0</ele><time>2026-05-02T15:57:43Z</time></trkpt><trkpt lat="42.13011786503352" lon="13.328325538562899"><ele>1062.0</ele><time>2026-05-02T15:57:44Z</time></trkpt><trkpt lat="42.13019942385956" lon="13.328264085291712"><ele>1062.0</ele><time>2026-05-02T15:57:45Z</time></trkpt><trkpt lat="42.130282211989716" lon="13.328206811677578"><ele>1062.0</ele><time>2026-05-02T15:57:46Z</time></trkpt><trkpt lat="42.13035928649808" lon="13.328166408075838"><ele>1062.0</ele><time>2026-05-02T15:57:47Z</time></trkpt><trkpt lat="42.13042452923405" lon="13.328127118000276"><ele>1062.0</ele><time>2026-05-02T15:57:48Z</time></trkpt><trkpt lat="42.13048282539876" lon="13.328089692440237"><ele>1062.0</ele><time>2026-05-02T15:57:49Z</time></trkpt><trkpt lat="42.1305450351925" lon="13.328053993743696"><ele>1062.0</ele><time>2026-05-02T15:57:50Z</time></trkpt><trkpt lat="42.13061726953487" lon="13.32802603046835"><ele>1062.0</ele><time>2026-05-02T15:57:51Z</time></trkpt><trkpt lat="42.13070147862004" lon="13.328012697519416"><ele>1062.0</ele><time>2026-05-02T15:57:52Z</time></trkpt><trkpt lat="42.13077929216957" lon="13.328085168737742"><ele>1062.0</ele><time>2026-05-02T15:57:52.999Z</time></trkpt><trkpt lat="42.13085704373964" lon="13.328108625501104"><ele>1062.0</ele><time>2026-05-02T15:57:53.999Z</time></trkpt><trkpt lat="42.130931108190424" lon="13.328130969893174"><ele>1062.0</ele><time>2026-05-02T15:57:55.999Z</time></trkpt><trkpt lat="42.130956640501346" lon="13.327922216524613"><ele>1062.0</ele><time>2026-05-02T15:57:56.999Z</time></trkpt><trkpt lat="42.13093188506037" lon="13.328131204283268"><ele>1062.0</ele><time>2026-05-02T15:57:57.999Z</time></trkpt><trkpt lat="42.13095856676845" lon="13.327915472495043"><ele>1062.0</ele><time>2026-05-02T15:57:58.999Z</time></trkpt><trkpt lat="42.13092080568394" lon="13.32781222971742"><ele>1062.0</ele><time>2026-05-02T15:57:59.999Z</time></trkpt><trkpt lat="42.13089475534136" lon="13.327686575676596"><ele>1062.0</ele><time>2026-05-02T15:58:01.999Z</time></trkpt><trkpt lat="42.130931596031864" lon="13.327562732353087"><ele>1062.0</ele><time>2026-05-02T15:58:03.999Z</time></trkpt><trkpt lat="42.13093595781094" lon="13.327460839955878"><ele>1062.0</ele><time>2026-05-02T15:58:16.999Z</time></trkpt><trkpt lat="42.13092217016795" lon="13.327368862834183"><ele>1062.0</ele><time>2026-05-02T15:58:18.999Z</time></trkpt><trkpt lat="42.13090369526851" lon="13.327261758051353"><ele>1062.0</ele><time>2026-05-02T15:58:20.999Z</time></trkpt><trkpt lat="42.13083075746863" lon="13.327165592855938"><ele>1062.0</ele><time>2026-05-02T15:58:23.999Z</time></trkpt><trkpt lat="42.130758829931274" lon="13.327106369390325"><ele>1062.0</ele><time>2026-05-02T15:58:25.999Z</time></trkpt><trkpt lat="42.13066609766282" lon="13.327042023570492"><ele>1062.0</ele><time>2026-05-02T15:58:27.999Z</time></trkpt><trkpt lat="42.13057142896265" lon="13.327023478942001"><ele>1063.3333333333333</ele><time>2026-05-02T15:58:29.999Z</time></trkpt><trkpt lat="42.13048441516558" lon="13.327022027104002"><ele>1064.6666666666667</ele><time>2026-05-02T15:58:31.999Z</time></trkpt><trkpt lat="42.13042228475244" lon="13.326978551602709"><ele>1066.0</ele><time>2026-05-02T15:58:33.999Z</time></trkpt><trkpt lat="42.130430483241305" lon="13.326883923898198"><ele>1067.3333333333335</ele><time>2026-05-02T15:58:36.999Z</time></trkpt><trkpt lat="42.13048450844804" lon="13.326728010173841"><ele>1068.6666666666667</ele><time>2026-05-02T15:58:38.999Z</time></trkpt><trkpt lat="42.130504124101094" lon="13.326638039366607"><ele>1070.0</ele><time>2026-05-02T15:58:39.999Z</time></trkpt><trkpt lat="42.13051775485993" lon="13.32654298059315"><ele>1070.0</ele><time>2026-05-02T15:58:41Z</time></trkpt><trkpt lat="42.13052884262975" lon="13.326431098058992"><ele>1070.0</ele><time>2026-05-02T15:58:42Z</time></trkpt><trkpt lat="42.130534789524994" lon="13.326322343965899"><ele>1070.0</ele><time>2026-05-02T15:58:43Z</time></trkpt><trkpt lat="42.13054078054328" lon="13.326219146655728"><ele>1070.0</ele><time>2026-05-02T15:58:44Z</time></trkpt><trkpt lat="42.13054962967789" lon="13.326104435489778"><ele>1070.0</ele><time>2026-05-02T15:58:45Z</time></trkpt><trkpt lat="42.13055706853822" lon="13.325994243907957"><ele>1070.0</ele><time>2026-05-02T15:58:46Z</time></trkpt><trkpt lat="42.13056270891375" lon="13.325874616903748"><ele>1071.2857142857142</ele><time>2026-05-02T15:58:47Z</time></trkpt><trkpt lat="42.13056157064066" lon="13.325751238042171"><ele>1072.5714285714287</ele><time>2026-05-02T15:58:48Z</time></trkpt><trkpt lat="42.13055481641019" lon="13.325646578174556"><ele>1073.857142857143</ele><time>2026-05-02T15:58:49Z</time></trkpt><trkpt lat="42.13055082227495" lon="13.32554329858129"><ele>1075.142857142857</ele><time>2026-05-02T15:58:50Z</time></trkpt><trkpt lat="42.13056716792559" lon="13.325460746240068"><ele>1076.4285714285713</ele><time>2026-05-02T15:58:51Z</time></trkpt><trkpt lat="42.130587979988064" lon="13.325377586533097"><ele>1077.7142857142858</ele><time>2026-05-02T15:58:52Z</time></trkpt><trkpt lat="42.130600393414895" lon="13.325291231729079"><ele>1079.0</ele><time>2026-05-02T15:58:53Z</time></trkpt><trkpt lat="42.130581849130564" lon="13.325139323737957"><ele>1079.8333333333335</ele><time>2026-05-02T15:58:55Z</time></trkpt><trkpt lat="42.13056107373274" lon="13.325036934411665"><ele>1080.6666666666667</ele><time>2026-05-02T15:58:56Z</time></trkpt><trkpt lat="42.130538618791526" lon="13.32494646066218"><ele>1081.5</ele><time>2026-05-02T15:58:57Z</time></trkpt><trkpt lat="42.13051852788228" lon="13.324831322091008"><ele>1082.3333333333333</ele><time>2026-05-02T15:58:59Z</time></trkpt><trkpt lat="42.13053133148392" lon="13.324668113526952"><ele>1083.1666666666665</ele><time>2026-05-02T15:59:01Z</time></trkpt><trkpt lat="42.13054985138983" lon="13.32457660408719"><ele>1084.0</ele><time>2026-05-02T15:59:02Z</time></trkpt><trkpt lat="42.13057476558436" lon="13.32449793536836"><ele>1084.0</ele><time>2026-05-02T15:59:03Z</time></trkpt><trkpt lat="42.130659976991176" lon="13.324406636162482"><ele>1084.0</ele><time>2026-05-02T15:59:05Z</time></trkpt><trkpt lat="42.13073156664841" lon="13.324308071347222"><ele>1084.0</ele><time>2026-05-02T15:59:07Z</time></trkpt><trkpt lat="42.13073812900629" lon="13.324147744850995"><ele>1084.0</ele><time>2026-05-02T15:59:09Z</time></trkpt><trkpt lat="42.13073286150965" lon="13.324048205347864"><ele>1084.0</ele><time>2026-05-02T15:59:10Z</time></trkpt><trkpt lat="42.13071408166224" lon="13.323945138381845"><ele>1084.6666666666665</ele><time>2026-05-02T15:59:11Z</time></trkpt><trkpt lat="42.13069379360435" lon="13.323846091307079"><ele>1085.3333333333333</ele><time>2026-05-02T15:59:12Z</time></trkpt><trkpt lat="42.13069422756502" lon="13.323756712146523"><ele>1086.0</ele><time>2026-05-02T15:59:13Z</time></trkpt><trkpt lat="42.13070504746139" lon="13.323670150039877"><ele>1086.6666666666667</ele><time>2026-05-02T15:59:14Z</time></trkpt><trkpt lat="42.13071724344316" lon="13.323569007738929"><ele>1087.3333333333335</ele><time>2026-05-02T15:59:15Z</time></trkpt><trkpt lat="42.13073431220173" lon="13.323449685280746"><ele>1088.0</ele><time>2026-05-02T15:59:16Z</time></trkpt><trkpt lat="42.130759403717036" lon="13.323337200442946"><ele>1085.8</ele><time>2026-05-02T15:59:17Z</time></trkpt><trkpt lat="42.13078416350043" lon="13.323209617670408"><ele>1083.6</ele><time>2026-05-02T15:59:18Z</time></trkpt><trkpt lat="42.130810179368886" lon="13.323092135280948"><ele>1081.4</ele><time>2026-05-02T15:59:19Z</time></trkpt><trkpt lat="42.13083427602049" lon="13.32298706755921"><ele>1079.2</ele><time>2026-05-02T15:59:20Z</time></trkpt><trkpt lat="42.130852311509585" lon="13.322901473771202"><ele>1077.0</ele><time>2026-05-02T15:59:21Z</time></trkpt><trkpt lat="42.130885549778846" lon="13.322747639831144"><ele>1077.0</ele><time>2026-05-02T15:59:23Z</time></trkpt><trkpt lat="42.130929472213076" lon="13.322563483130015"><ele>1077.0</ele><time>2026-05-02T15:59:25Z</time></trkpt><trkpt lat="42.130958031278674" lon="13.3224598349525"><ele>1077.0</ele><time>2026-05-02T15:59:26Z</time></trkpt><trkpt lat="42.1309683324553" lon="13.32234704436464"><ele>1077.0</ele><time>2026-05-02T15:59:27Z</time></trkpt><trkpt lat="42.13096343321798" lon="13.322237739920642"><ele>1077.0</ele><time>2026-05-02T15:59:28Z</time></trkpt><trkpt lat="42.13095090131615" lon="13.322115149809195"><ele>1077.0</ele><time>2026-05-02T15:59:29Z</time></trkpt><trkpt lat="42.13094195162056" lon="13.321982190188628"><ele>1077.0</ele><time>2026-05-02T15:59:30Z</time></trkpt><trkpt lat="42.13092726147774" lon="13.321855706565692"><ele>1077.0</ele><time>2026-05-02T15:59:31Z</time></trkpt><trkpt lat="42.13091941304819" lon="13.321750722803033"><ele>1077.0</ele><time>2026-05-02T15:59:32Z</time></trkpt><trkpt lat="42.13091226448154" lon="13.321648604543542"><ele>1077.0</ele><time>2026-05-02T15:59:33Z</time></trkpt><trkpt lat="42.130909645876386" lon="13.321557367519649"><ele>1077.0</ele><time>2026-05-02T15:59:34Z</time></trkpt><trkpt lat="42.13090392693317" lon="13.321463667112448"><ele>1076.3333333333333</ele><time>2026-05-02T15:59:35Z</time></trkpt><trkpt lat="42.13089886476189" lon="13.321368958298075"><ele>1075.6666666666667</ele><time>2026-05-02T15:59:36Z</time></trkpt><trkpt lat="42.13089562958063" lon="13.321261653499981"><ele>1075.0</ele><time>2026-05-02T15:59:37Z</time></trkpt><trkpt lat="42.13089192033559" lon="13.321148482551797"><ele>1074.3333333333335</ele><time>2026-05-02T15:59:38Z</time></trkpt><trkpt lat="42.13088565728079" lon="13.321032727558709"><ele>1073.6666666666667</ele><time>2026-05-02T15:59:39Z</time></trkpt><trkpt lat="42.13087850030079" lon="13.320914888317711"><ele>1073.0</ele><time>2026-05-02T15:59:40Z</time></trkpt><trkpt lat="42.130868552100374" lon="13.320799321363408"><ele>1073.0</ele><time>2026-05-02T15:59:41Z</time></trkpt><trkpt lat="42.130860427797536" lon="13.320694560726627"><ele>1073.0</ele><time>2026-05-02T15:59:42Z</time></trkpt><trkpt lat="42.130854947896836" lon="13.320596212634912"><ele>1073.0</ele><time>2026-05-02T15:59:43Z</time></trkpt><trkpt lat="42.13084908287269" lon="13.320504262956007"><ele>1073.0</ele><time>2026-05-02T15:59:44Z</time></trkpt><trkpt lat="42.13085926466435" lon="13.320352951023079"><ele>1073.0</ele><time>2026-05-02T15:59:46Z</time></trkpt><trkpt lat="42.13091255031777" lon="13.320231390710536"><ele>1073.0</ele><time>2026-05-02T15:59:48Z</time></trkpt><trkpt lat="42.130975430055116" lon="13.320130241659545"><ele>1073.3333333333335</ele><time>2026-05-02T15:59:50Z</time></trkpt><trkpt lat="42.1309609812851" lon="13.320024696838283"><ele>1073.6666666666667</ele><time>2026-05-02T15:59:53Z</time></trkpt><trkpt lat="42.13092973383703" lon="13.319924921458636"><ele>1074.0</ele><time>2026-05-02T15:59:55Z</time></trkpt><trkpt lat="42.130951637214054" lon="13.319803237080857"><ele>1074.3333333333333</ele><time>2026-05-02T15:59:57Z</time></trkpt><trkpt lat="42.130986968561274" lon="13.319708468786738"><ele>1074.6666666666665</ele><time>2026-05-02T15:59:59Z</time></trkpt><trkpt lat="42.13101352931083" lon="13.319614245723605"><ele>1075.0</ele><time>2026-05-02T16:00:01Z</time></trkpt><trkpt lat="42.131047783893415" lon="13.319529467032751"><ele>1075.4</ele><time>2026-05-02T16:00:03Z</time></trkpt><trkpt lat="42.13106729148799" lon="13.319446232914794"><ele>1075.8</ele><time>2026-05-02T16:00:05Z</time></trkpt><trkpt lat="42.13111943524914" lon="13.319355656727701"><ele>1076.2</ele><time>2026-05-02T16:00:07Z</time></trkpt><trkpt lat="42.13119215992963" lon="13.319271604773583"><ele>1076.6</ele><time>2026-05-02T16:00:08.999Z</time></trkpt><trkpt lat="42.13125055376194" lon="13.319176599679274"><ele>1077.0</ele><time>2026-05-02T16:00:10.999Z</time></trkpt><trkpt lat="42.13129902512015" lon="13.319034271125066"><ele>1077.0</ele><time>2026-05-02T16:00:12.999Z</time></trkpt><trkpt lat="42.13132106383061" lon="13.318947551973203"><ele>1077.0</ele><time>2026-05-02T16:00:13.999Z</time></trkpt><trkpt lat="42.131353500925876" lon="13.318863035400145"><ele>1077.0</ele><time>2026-05-02T16:00:14.999Z</time></trkpt><trkpt lat="42.13140185204726" lon="13.318718446821734"><ele>1077.0</ele><time>2026-05-02T16:00:16.999Z</time></trkpt><trkpt lat="42.131431326865574" lon="13.318595568647297"><ele>1077.0</ele><time>2026-05-02T16:00:18.999Z</time></trkpt><trkpt lat="42.131483418389465" lon="13.31845714578597"><ele>1075.8</ele><time>2026-05-02T16:00:20.999Z</time></trkpt><trkpt lat="42.131556997457686" lon="13.318341678525965"><ele>1074.6</ele><time>2026-05-02T16:00:22.999Z</time></trkpt><trkpt lat="42.131658967643894" lon="13.318238553157318"><ele>1073.3999999999999</ele><time>2026-05-02T16:00:24.999Z</time></trkpt><trkpt lat="42.13172178938946" lon="13.318175530348384"><ele>1072.2</ele><time>2026-05-02T16:00:25.999Z</time></trkpt><trkpt lat="42.1317740534081" lon="13.318114149627162"><ele>1071.0</ele><time>2026-05-02T16:00:26.999Z</time></trkpt><trkpt lat="42.13181996959497" lon="13.318049427322125"><ele>1068.0</ele><time>2026-05-02T16:00:27.999Z</time></trkpt><trkpt lat="42.131867439748234" lon="13.317981555915505"><ele>1065.0</ele><time>2026-05-02T16:00:28.999Z</time></trkpt><trkpt lat="42.13190698266772" lon="13.317830160094061"><ele>1062.0</ele><time>2026-05-02T16:00:30.999Z</time></trkpt><trkpt lat="42.13191566876494" lon="13.317693317469876"><ele>1059.0</ele><time>2026-05-02T16:00:32.999Z</time></trkpt><trkpt lat="42.13196026331919" lon="13.317560048807131"><ele>1056.0</ele><time>2026-05-02T16:00:34.999Z</time></trkpt><trkpt lat="42.13199562167779" lon="13.317488805334158"><ele>1056.0</ele><time>2026-05-02T16:00:35.999Z</time></trkpt><trkpt lat="42.13203490966022" lon="13.31740300939942"><ele>1056.0</ele><time>2026-05-02T16:00:36.999Z</time></trkpt><trkpt lat="42.13207170336049" lon="13.317324556376533"><ele>1056.0</ele><time>2026-05-02T16:00:37.999Z</time></trkpt><trkpt lat="42.13214930782008" lon="13.31720730700385"><ele>1056.0</ele><time>2026-05-02T16:00:39.999Z</time></trkpt><trkpt lat="42.13222951584861" lon="13.317100481441933"><ele>1056.0</ele><time>2026-05-02T16:00:41.999Z</time></trkpt><trkpt lat="42.13230795614719" lon="13.316991932926413"><ele>1055.6</ele><time>2026-05-02T16:00:43.999Z</time></trkpt><trkpt lat="42.132383070794255" lon="13.316880556475265"><ele>1055.1999999999998</ele><time>2026-05-02T16:00:45.999Z</time></trkpt><trkpt lat="42.13247595846487" lon="13.316786835475796"><ele>1054.8000000000002</ele><time>2026-05-02T16:00:48Z</time></trkpt><trkpt lat="42.13256732984727" lon="13.316663808017493"><ele>1054.4</ele><time>2026-05-02T16:00:50Z</time></trkpt><trkpt lat="42.13261959853423" lon="13.316584182081577"><ele>1054.0</ele><time>2026-05-02T16:00:51Z</time></trkpt><trkpt lat="42.132678716458514" lon="13.316502057497846"><ele>1054.0</ele><time>2026-05-02T16:00:52Z</time></trkpt><trkpt lat="42.13273566127901" lon="13.316429104315816"><ele>1054.0</ele><time>2026-05-02T16:00:53Z</time></trkpt><trkpt lat="42.13279211800155" lon="13.316350239773499"><ele>1054.0</ele><time>2026-05-02T16:00:54Z</time></trkpt><trkpt lat="42.132855737089145" lon="13.31625161423419"><ele>1054.0</ele><time>2026-05-02T16:00:55Z</time></trkpt><trkpt lat="42.1329100107981" lon="13.316166646508975"><ele>1054.0</ele><time>2026-05-02T16:00:56Z</time></trkpt><trkpt lat="42.132957146814455" lon="13.316090013892113"><ele>1054.0</ele><time>2026-05-02T16:00:57Z</time></trkpt><trkpt lat="42.13303348660626" lon="13.315984845096652"><ele>1053.2</ele><time>2026-05-02T16:00:59Z</time></trkpt><trkpt lat="42.13306088547469" lon="13.315893265074141"><ele>1052.4</ele><time>2026-05-02T16:01:01Z</time></trkpt><trkpt lat="42.13306507515813" lon="13.315778179709294"><ele>1051.6</ele><time>2026-05-02T16:01:03Z</time></trkpt><trkpt lat="42.13303978032279" lon="13.31563330393184"><ele>1050.8</ele><time>2026-05-02T16:01:05Z</time></trkpt><trkpt lat="42.132975267488725" lon="13.315536904914948"><ele>1050.0</ele><time>2026-05-02T16:01:07Z</time></trkpt><trkpt lat="42.13285732320373" lon="13.315496666561904"><ele>1049.6666666666667</ele><time>2026-05-02T16:01:09Z</time></trkpt><trkpt lat="42.13279438004286" lon="13.315484439821999"><ele>1049.3333333333333</ele><time>2026-05-02T16:01:10Z</time></trkpt><trkpt lat="42.13272214165851" lon="13.315435355290223"><ele>1049.0</ele><time>2026-05-02T16:01:11Z</time></trkpt><trkpt lat="42.132667847242104" lon="13.315371840581156"><ele>1048.6666666666665</ele><time>2026-05-02T16:01:12Z</time></trkpt><trkpt lat="42.132629869634336" lon="13.315291220580818"><ele>1048.3333333333333</ele><time>2026-05-02T16:01:13Z</time></trkpt><trkpt lat="42.13258961429727" lon="13.315197520054307"><ele>1048.0</ele><time>2026-05-02T16:01:14Z</time></trkpt><trkpt lat="42.132551543415424" lon="13.315097625496636"><ele>1048.0</ele><time>2026-05-02T16:01:15Z</time></trkpt><trkpt lat="42.132522086623496" lon="13.31499645887129"><ele>1048.0</ele><time>2026-05-02T16:01:16Z</time></trkpt><trkpt lat="42.13249555644295" lon="13.31489020538696"><ele>1048.0</ele><time>2026-05-02T16:01:17Z</time></trkpt><trkpt lat="42.13246594871827" lon="13.314795154480938"><ele>1048.0</ele><time>2026-05-02T16:01:18Z</time></trkpt><trkpt lat="42.13242088209815" lon="13.314669082266096"><ele>1048.0</ele><time>2026-05-02T16:01:20Z</time></trkpt><trkpt lat="42.13235143190767" lon="13.314539592172302"><ele>1048.1666666666665</ele><time>2026-05-02T16:01:22Z</time></trkpt><trkpt lat="42.13229359090218" lon="13.314469937823795"><ele>1048.3333333333333</ele><time>2026-05-02T16:01:23Z</time></trkpt><trkpt lat="42.13222767531718" lon="13.314400683717642"><ele>1048.5</ele><time>2026-05-02T16:01:24Z</time></trkpt><trkpt lat="42.132170710591396" lon="13.314335835709354"><ele>1048.6666666666667</ele><time>2026-05-02T16:01:25Z</time></trkpt><trkpt lat="42.132118110782706" lon="13.31427019755726"><ele>1048.8333333333335</ele><time>2026-05-02T16:01:26Z</time></trkpt><trkpt lat="42.132060154989034" lon="13.314195480359665"><ele>1049.0</ele><time>2026-05-02T16:01:27Z</time></trkpt><trkpt lat="42.13200345040724" lon="13.31412277137162"><ele>1049.0</ele><time>2026-05-02T16:01:28Z</time></trkpt><trkpt lat="42.13194908883637" lon="13.314045742809514"><ele>1049.0</ele><time>2026-05-02T16:01:29Z</time></trkpt><trkpt lat="42.13190088240961" lon="13.313981584291945"><ele>1049.0</ele><time>2026-05-02T16:01:30Z</time></trkpt><trkpt lat="42.13184001635346" lon="13.31386423107704"><ele>1049.0</ele><time>2026-05-02T16:01:32Z</time></trkpt><trkpt lat="42.131816973046774" lon="13.313712998211729"><ele>1049.0</ele><time>2026-05-02T16:01:34Z</time></trkpt><trkpt lat="42.13181896847644" lon="13.313621358843443"><ele>1049.0</ele><time>2026-05-02T16:01:35Z</time></trkpt><trkpt lat="42.13182523756745" lon="13.31351437781201"><ele>1049.5</ele><time>2026-05-02T16:01:36Z</time></trkpt><trkpt lat="42.13182750617251" lon="13.313395600211232"><ele>1050.0</ele><time>2026-05-02T16:01:37Z</time></trkpt><trkpt lat="42.131830098162276" lon="13.313278486114163"><ele>1050.5</ele><time>2026-05-02T16:01:38Z</time></trkpt><trkpt lat="42.13183007152694" lon="13.313168157585208"><ele>1051.0</ele><time>2026-05-02T16:01:39Z</time></trkpt><trkpt lat="42.1318276938108" lon="13.313051679789245"><ele>1051.5</ele><time>2026-05-02T16:01:40Z</time></trkpt><trkpt lat="42.13182897260291" lon="13.312955073135402"><ele>1052.0</ele><time>2026-05-02T16:01:41Z</time></trkpt><trkpt lat="42.131838847068266" lon="13.31285318569766"><ele>1052.5</ele><time>2026-05-02T16:01:42Z</time></trkpt><trkpt lat="42.13185880767415" lon="13.312744438371746"><ele>1053.0</ele><time>2026-05-02T16:01:43Z</time></trkpt><trkpt lat="42.1318888725093" lon="13.312651674398214"><ele>1053.5</ele><time>2026-05-02T16:01:44Z</time></trkpt><trkpt lat="42.13193388638929" lon="13.31255435768229"><ele>1054.0</ele><time>2026-05-02T16:01:45Z</time></trkpt><trkpt lat="42.13199189262859" lon="13.312466041616746"><ele>1054.5</ele><time>2026-05-02T16:01:46Z</time></trkpt><trkpt lat="42.13204407902369" lon="13.312403382603248"><ele>1055.0</ele><time>2026-05-02T16:01:47Z</time></trkpt><trkpt lat="42.13209399487631" lon="13.312342946922232"><ele>1055.0</ele><time>2026-05-02T16:01:48Z</time></trkpt><trkpt lat="42.13214897801857" lon="13.312266854231018"><ele>1055.0</ele><time>2026-05-02T16:01:50Z</time></trkpt><trkpt lat="42.13217565740804" lon="13.312174749561436"><ele>1055.0</ele><time>2026-05-02T16:01:52Z</time></trkpt><trkpt lat="42.13221512714835" lon="13.312070617927525"><ele>1055.0</ele><time>2026-05-02T16:01:54Z</time></trkpt><trkpt lat="42.132301716018084" lon="13.312013608330512"><ele>1055.0</ele><time>2026-05-02T16:01:56Z</time></trkpt><trkpt lat="42.13236154286367" lon="13.31192491583377"><ele>1055.0</ele><time>2026-05-02T16:01:58Z</time></trkpt><trkpt lat="42.13240141379755" lon="13.311798336969531"><ele>1052.6</ele><time>2026-05-02T16:02:00Z</time></trkpt><trkpt lat="42.1325037022455" lon="13.311706660451305"><ele>1050.2</ele><time>2026-05-02T16:02:02Z</time></trkpt><trkpt lat="42.13256787937208" lon="13.311666617557048"><ele>1047.8</ele><time>2026-05-02T16:02:03Z</time></trkpt><trkpt lat="42.13262835794582" lon="13.3116321265646"><ele>1045.4</ele><time>2026-05-02T16:02:04Z</time></trkpt><trkpt lat="42.13271000944584" lon="13.311580260443032"><ele>1043.0</ele><time>2026-05-02T16:02:06Z</time></trkpt><trkpt lat="42.13277420157391" lon="13.311456946831784"><ele>1044.2</ele><time>2026-05-02T16:02:08Z</time></trkpt><trkpt lat="42.13281954119359" lon="13.311344325957837"><ele>1045.4</ele><time>2026-05-02T16:02:10Z</time></trkpt><trkpt lat="42.13290579860753" lon="13.311257270125655"><ele>1046.6000000000001</ele><time>2026-05-02T16:02:12Z</time></trkpt><trkpt lat="42.13300964300988" lon="13.3112000918746"><ele>1047.8</ele><time>2026-05-02T16:02:14Z</time></trkpt><trkpt lat="42.13311919981304" lon="13.311160609799156"><ele>1049.0</ele><time>2026-05-02T16:02:16Z</time></trkpt><trkpt lat="42.13320798168144" lon="13.311122389395958"><ele>1045.4</ele><time>2026-05-02T16:02:17.999Z</time></trkpt><trkpt lat="42.13323625676871" lon="13.311030549993836"><ele>1041.8000000000002</ele><time>2026-05-02T16:02:19.999Z</time></trkpt><trkpt lat="42.133241868392844" lon="13.310888741158418"><ele>1038.1999999999998</ele><time>2026-05-02T16:02:21.999Z</time></trkpt><trkpt lat="42.133301330961984" lon="13.310763508192542"><ele>1034.6</ele><time>2026-05-02T16:02:23.999Z</time></trkpt><trkpt lat="42.133356779955484" lon="13.31067329704409"><ele>1031.0</ele><time>2026-05-02T16:02:25.999Z</time></trkpt><trkpt lat="42.133436292229035" lon="13.3106045617467"><ele>1032.3333333333335</ele><time>2026-05-02T16:02:27.999Z</time></trkpt><trkpt lat="42.13350916166819" lon="13.310508109126387"><ele>1033.6666666666667</ele><time>2026-05-02T16:02:29.999Z</time></trkpt><trkpt lat="42.1335773401238" lon="13.310412275491707"><ele>1035.0</ele><time>2026-05-02T16:02:31.999Z</time></trkpt><trkpt lat="42.13362773795456" lon="13.310348174868823"><ele>1036.3333333333333</ele><time>2026-05-02T16:02:33.999Z</time></trkpt><trkpt lat="42.13366158021303" lon="13.310264454795183"><ele>1037.6666666666665</ele><time>2026-05-02T16:02:35.999Z</time></trkpt><trkpt lat="42.1337031910165" lon="13.310167944732237"><ele>1039.0</ele><time>2026-05-02T16:02:37.999Z</time></trkpt><trkpt lat="42.13374108621331" lon="13.310086359660426"><ele>1039.0</ele><time>2026-05-02T16:02:39.999Z</time></trkpt><trkpt lat="42.133809374818426" lon="13.310020712890744"><ele>1039.0</ele><time>2026-05-02T16:02:42.999Z</time></trkpt><trkpt lat="42.13391274614108" lon="13.309995408515753"><ele>1039.0</ele><time>2026-05-02T16:02:44.999Z</time></trkpt><trkpt lat="42.13400198633952" lon="13.309976749109339"><ele>1039.0</ele><time>2026-05-02T16:02:46.999Z</time></trkpt><trkpt lat="42.13406539381121" lon="13.309879867250496"><ele>1039.0</ele><time>2026-05-02T16:02:49.999Z</time></trkpt><trkpt lat="42.134117151401334" lon="13.309798432819527"><ele>1035.3333333333333</ele><time>2026-05-02T16:02:51.999Z</time></trkpt><trkpt lat="42.134141252234265" lon="13.309712163442027"><ele>1031.6666666666665</ele><time>2026-05-02T16:02:54.001Z</time></trkpt><trkpt lat="42.13413414103593" lon="13.309620893924054"><ele>1028.0</ele><time>2026-05-02T16:02:56.001Z</time></trkpt><trkpt lat="42.134108513437184" lon="13.30952656813296"><ele>1024.3333333333333</ele><time>2026-05-02T16:02:58.001Z</time></trkpt><trkpt lat="42.13414934997758" lon="13.309437160959325"><ele>1020.6666666666666</ele><time>2026-05-02T16:03:00.001Z</time></trkpt><trkpt lat="42.1342138255258" lon="13.309351001559158"><ele>1017.0</ele><time>2026-05-02T16:03:02.001Z</time></trkpt><trkpt lat="42.13425640552006" lon="13.309270890319794"><ele>1017.0</ele><time>2026-05-02T16:03:04.001Z</time></trkpt><trkpt lat="42.13428690525335" lon="13.309163731783654"><ele>1017.0</ele><time>2026-05-02T16:03:07.001Z</time></trkpt><trkpt lat="42.13432674170183" lon="13.30908441494279"><ele>1017.0</ele><time>2026-05-02T16:03:09.001Z</time></trkpt><trkpt lat="42.134395455500254" lon="13.309004088219714"><ele>1017.0</ele><time>2026-05-02T16:03:12Z</time></trkpt><trkpt lat="42.134464108422065" lon="13.308932122837188"><ele>1017.0</ele><time>2026-05-02T16:03:14Z</time></trkpt><trkpt lat="42.134545029372894" lon="13.308843779939151"><ele>1017.0</ele><time>2026-05-02T16:03:16Z</time></trkpt><trkpt lat="42.13459012057514" lon="13.308774864481672"><ele>1017.0</ele><time>2026-05-02T16:03:17Z</time></trkpt><trkpt lat="42.134672204275546" lon="13.308720225304555"><ele>1017.0</ele><time>2026-05-02T16:03:19Z</time></trkpt><trkpt lat="42.134700882985875" lon="13.308621858568085"><ele>1017.0</ele><time>2026-05-02T16:03:22Z</time></trkpt><trkpt lat="42.13468739113292" lon="13.308500256434773"><ele>1017.0</ele><time>2026-05-02T16:03:24Z</time></trkpt><trkpt lat="42.1346816450888" lon="13.308358133081626"><ele>1017.0</ele><time>2026-05-02T16:03:26Z</time></trkpt><trkpt lat="42.13470178308052" lon="13.30820588657746"><ele>1015.0</ele><time>2026-05-02T16:03:28Z</time></trkpt><trkpt lat="42.13469595001336" lon="13.30806041591173"><ele>1013.0</ele><time>2026-05-02T16:03:30Z</time></trkpt><trkpt lat="42.134712080518504" lon="13.307920161625914"><ele>1011.0</ele><time>2026-05-02T16:03:32Z</time></trkpt><trkpt lat="42.13473696408443" lon="13.307798525255391"><ele>1009.0</ele><time>2026-05-02T16:03:34Z</time></trkpt><trkpt lat="42.134793305741574" lon="13.307696108270369"><ele>1007.0</ele><time>2026-05-02T16:03:36Z</time></trkpt><trkpt lat="42.1348610117108" lon="13.307581879916684"><ele>1007.0</ele><time>2026-05-02T16:03:38Z</time></trkpt><trkpt lat="42.13482571823801" lon="13.307426388376703"><ele>1007.0</ele><time>2026-05-02T16:03:40Z</time></trkpt><trkpt lat="42.13477886738556" lon="13.307367423212137"><ele>1007.0</ele><time>2026-05-02T16:03:41Z</time></trkpt><trkpt lat="42.13470063838952" lon="13.307238061110011"><ele>1007.0</ele><time>2026-05-02T16:03:43Z</time></trkpt><trkpt lat="42.134641054191896" lon="13.307119997317985"><ele>1007.0</ele><time>2026-05-02T16:03:45Z</time></trkpt><trkpt lat="42.13458780163372" lon="13.307013021463966"><ele>1004.0</ele><time>2026-05-02T16:03:47Z</time></trkpt><trkpt lat="42.13455442754461" lon="13.306895598742138"><ele>1001.0</ele><time>2026-05-02T16:03:49Z</time></trkpt><trkpt lat="42.13454121071985" lon="13.30676212840488"><ele>998.0</ele><time>2026-05-02T16:03:51Z</time></trkpt><trkpt lat="42.134532474184" lon="13.306621424472512"><ele>995.0</ele><time>2026-05-02T16:03:53Z</time></trkpt><trkpt lat="42.13452099223787" lon="13.306484481684498"><ele>992.0</ele><time>2026-05-02T16:03:55Z</time></trkpt><trkpt lat="42.13452824461524" lon="13.306391903407325"><ele>989.8333333333334</ele><time>2026-05-02T16:03:56Z</time></trkpt><trkpt lat="42.13454122446266" lon="13.306248219114694"><ele>987.6666666666667</ele><time>2026-05-02T16:03:58Z</time></trkpt><trkpt lat="42.1345245604243" lon="13.306146732908772"><ele>985.5</ele><time>2026-05-02T16:04:00Z</time></trkpt><trkpt lat="42.134448363378596" lon="13.306069157481467"><ele>983.3333333333333</ele><time>2026-05-02T16:04:03Z</time></trkpt><trkpt lat="42.134393606284526" lon="13.305975877011168"><ele>981.1666666666666</ele><time>2026-05-02T16:04:05Z</time></trkpt><trkpt lat="42.13439504612019" lon="13.305873588089442"><ele>979.0</ele><time>2026-05-02T16:04:07Z</time></trkpt><trkpt lat="42.13439058948706" lon="13.305737185674475"><ele>978.9999999999999</ele><time>2026-05-02T16:04:09Z</time></trkpt><trkpt lat="42.13437068484957" lon="13.305605930986713"><ele>979.0</ele><time>2026-05-02T16:04:11Z</time></trkpt><trkpt lat="42.13435452071003" lon="13.305457112887922"><ele>979.0</ele><time>2026-05-02T16:04:13Z</time></trkpt><trkpt lat="42.13434925248516" lon="13.305356787687879"><ele>979.0</ele><time>2026-05-02T16:04:14Z</time></trkpt><trkpt lat="42.134343150347746" lon="13.305256018233166"><ele>978.9999999999999</ele><time>2026-05-02T16:04:15Z</time></trkpt><trkpt lat="42.13433033240018" lon="13.30516981680065"><ele>979.0</ele><time>2026-05-02T16:04:16Z</time></trkpt><trkpt lat="42.13431361781807" lon="13.305075173691598"><ele>977.4999999999999</ele><time>2026-05-02T16:04:17Z</time></trkpt><trkpt lat="42.1342955923449" lon="13.304989903820385"><ele>976.0</ele><time>2026-05-02T16:04:18Z</time></trkpt><trkpt lat="42.13427886620381" lon="13.304907319673841"><ele>974.5</ele><time>2026-05-02T16:04:19Z</time></trkpt><trkpt lat="42.13424907767701" lon="13.304796079434086"><ele>973.0</ele><time>2026-05-02T16:04:21Z</time></trkpt><trkpt lat="42.13424012469434" lon="13.304661412113399"><ele>971.4999999999999</ele><time>2026-05-02T16:04:23Z</time></trkpt><trkpt lat="42.13424615361445" lon="13.304570029265134"><ele>970.0</ele><time>2026-05-02T16:04:24Z</time></trkpt><trkpt lat="42.134248822314305" lon="13.304482436470066"><ele>968.6666666666666</ele><time>2026-05-02T16:04:25Z</time></trkpt><trkpt lat="42.13423214498064" lon="13.304315726645367"><ele>967.3333333333333</ele><time>2026-05-02T16:04:26.999Z</time></trkpt><trkpt lat="42.134220429163136" lon="13.304218705855313"><ele>966.0</ele><time>2026-05-02T16:04:27.999Z</time></trkpt><trkpt lat="42.13420709183196" lon="13.304113201705423"><ele>964.6666666666667</ele><time>2026-05-02T16:04:28.999Z</time></trkpt><trkpt lat="42.13419233445798" lon="13.304018352316977"><ele>963.3333333333334</ele><time>2026-05-02T16:04:29.999Z</time></trkpt><trkpt lat="42.134176205135766" lon="13.30392369126748"><ele>962.0</ele><time>2026-05-02T16:04:30.999Z</time></trkpt><trkpt lat="42.13416055032093" lon="13.303829877153055"><ele>961.6666666666667</ele><time>2026-05-02T16:04:31.999Z</time></trkpt><trkpt lat="42.13414705659509" lon="13.303740562279158"><ele>961.3333333333334</ele><time>2026-05-02T16:04:32.999Z</time></trkpt><trkpt lat="42.13413283853048" lon="13.303654221043132"><ele>961.0</ele><time>2026-05-02T16:04:33.999Z</time></trkpt><trkpt lat="42.13413246453825" lon="13.30351058579403"><ele>960.6666666666667</ele><time>2026-05-02T16:04:35.999Z</time></trkpt><trkpt lat="42.1341826549292" lon="13.303363258225291"><ele>960.3333333333334</ele><time>2026-05-02T16:04:37.999Z</time></trkpt><trkpt lat="42.13421437560603" lon="13.303288391727339"><ele>960.0</ele><time>2026-05-02T16:04:38.999Z</time></trkpt><trkpt lat="42.134246628782854" lon="13.303200906904582"><ele>960.0</ele><time>2026-05-02T16:04:39.999Z</time></trkpt><trkpt lat="42.13428169798699" lon="13.303104748818576"><ele>960.0</ele><time>2026-05-02T16:04:40.999Z</time></trkpt><trkpt lat="42.13432143839703" lon="13.303005390952954"><ele>960.0</ele><time>2026-05-02T16:04:41.999Z</time></trkpt><trkpt lat="42.13436714776654" lon="13.302908188811777"><ele>960.0</ele><time>2026-05-02T16:04:42.999Z</time></trkpt><trkpt lat="42.134412597563994" lon="13.3028118972462"><ele>960.0</ele><time>2026-05-02T16:04:43.999Z</time></trkpt><trkpt lat="42.13445707712243" lon="13.302726121247584"><ele>960.0</ele><time>2026-05-02T16:04:44.999Z</time></trkpt><trkpt lat="42.13449438981363" lon="13.302620073501727"><ele>960.8333333333334</ele><time>2026-05-02T16:04:45.999Z</time></trkpt><trkpt lat="42.134519073543885" lon="13.302541264397505"><ele>961.6666666666667</ele><time>2026-05-02T16:04:46.999Z</time></trkpt><trkpt lat="42.134545758424075" lon="13.302463128944513"><ele>962.5</ele><time>2026-05-02T16:04:47.999Z</time></trkpt><trkpt lat="42.13457364034439" lon="13.302319084074966"><ele>963.3333333333334</ele><time>2026-05-02T16:04:49.999Z</time></trkpt><trkpt lat="42.13454996894613" lon="13.302221264736945"><ele>964.1666666666667</ele><time>2026-05-02T16:04:51.999Z</time></trkpt><trkpt lat="42.134565589626746" lon="13.302131381733455"><ele>965.0</ele><time>2026-05-02T16:04:54.999Z</time></trkpt><trkpt lat="42.13463310533769" lon="13.302065739469704"><ele>966.2</ele><time>2026-05-02T16:04:56.999Z</time></trkpt><trkpt lat="42.134717007609744" lon="13.301960371775726"><ele>967.4</ele><time>2026-05-02T16:04:59.001Z</time></trkpt><trkpt lat="42.13475172654636" lon="13.301823040570543"><ele>968.5999999999999</ele><time>2026-05-02T16:05:01.001Z</time></trkpt><trkpt lat="42.13478851607189" lon="13.30167016422391"><ele>969.8</ele><time>2026-05-02T16:05:03.001Z</time></trkpt><trkpt lat="42.13483283791264" lon="13.30160345081032"><ele>971.0</ele><time>2026-05-02T16:05:04.001Z</time></trkpt><trkpt lat="42.134920509230184" lon="13.301503305205907"><ele>966.6666666666667</ele><time>2026-05-02T16:05:06.001Z</time></trkpt><trkpt lat="42.13501947040699" lon="13.301414030132152"><ele>962.3333333333334</ele><time>2026-05-02T16:05:08.001Z</time></trkpt><trkpt lat="42.13506918583748" lon="13.301359425486943"><ele>958.0</ele><time>2026-05-02T16:05:09.001Z</time></trkpt><trkpt lat="42.135117590166026" lon="13.30129136592761"><ele>953.6666666666667</ele><time>2026-05-02T16:05:10.001Z</time></trkpt><trkpt lat="42.135165864513404" lon="13.30121323767583"><ele>949.3333333333334</ele><time>2026-05-02T16:05:11.001Z</time></trkpt><trkpt lat="42.135206139229425" lon="13.301145421544412"><ele>945.0</ele><time>2026-05-02T16:05:12.001Z</time></trkpt><trkpt lat="42.135249342004414" lon="13.301083604958604"><ele>945.0</ele><time>2026-05-02T16:05:13.001Z</time></trkpt><trkpt lat="42.13532937455409" lon="13.300994661279933"><ele>945.0</ele><time>2026-05-02T16:05:15.001Z</time></trkpt><trkpt lat="42.13541855657285" lon="13.300912096755935"><ele>945.0</ele><time>2026-05-02T16:05:17.001Z</time></trkpt><trkpt lat="42.135543172487246" lon="13.300868331121986"><ele>945.0</ele><time>2026-05-02T16:05:19.001Z</time></trkpt><trkpt lat="42.13563174268065" lon="13.300809511706658"><ele>945.0</ele><time>2026-05-02T16:05:21Z</time></trkpt><trkpt lat="42.13567958895173" lon="13.300684533223185"><ele>944.8</ele><time>2026-05-02T16:05:23Z</time></trkpt><trkpt lat="42.13579212245358" lon="13.300645880690336"><ele>944.6</ele><time>2026-05-02T16:05:25Z</time></trkpt><trkpt lat="42.135912108390464" lon="13.300666670905748"><ele>944.4000000000001</ele><time>2026-05-02T16:05:27Z</time></trkpt><trkpt lat="42.136043002914704" lon="13.30064978468547"><ele>944.2</ele><time>2026-05-02T16:05:29Z</time></trkpt><trkpt lat="42.1361094119331" lon="13.300618522204335"><ele>944.0</ele><time>2026-05-02T16:05:30Z</time></trkpt><trkpt lat="42.13617761898014" lon="13.300576584358584"><ele>942.0000000000001</ele><time>2026-05-02T16:05:31Z</time></trkpt><trkpt lat="42.13623365477312" lon="13.300533728604613"><ele>940.0</ele><time>2026-05-02T16:05:32Z</time></trkpt><trkpt lat="42.136285128859384" lon="13.300484638466115"><ele>938.0</ele><time>2026-05-02T16:05:33Z</time></trkpt><trkpt lat="42.13633256369429" lon="13.300415891249303"><ele>936.0</ele><time>2026-05-02T16:05:35Z</time></trkpt><trkpt lat="42.13637404203922" lon="13.300327931392737"><ele>934.0000000000001</ele><time>2026-05-02T16:05:37Z</time></trkpt><trkpt lat="42.1364163161026" lon="13.30023721244188"><ele>932.0</ele><time>2026-05-02T16:05:39Z</time></trkpt><trkpt lat="42.13647094393595" lon="13.30011111551558"><ele>932.0000000000001</ele><time>2026-05-02T16:05:41Z</time></trkpt><trkpt lat="42.13651126074878" lon="13.300027497568145"><ele>932.0</ele><time>2026-05-02T16:05:42Z</time></trkpt><trkpt lat="42.136557887353575" lon="13.299920445781908"><ele>932.0</ele><time>2026-05-02T16:05:43Z</time></trkpt><trkpt lat="42.136597012195615" lon="13.299829571257558"><ele>932.0</ele><time>2026-05-02T16:05:44Z</time></trkpt><trkpt lat="42.1366388003339" lon="13.299730809782075"><ele>932.0000000000001</ele><time>2026-05-02T16:05:45Z</time></trkpt><trkpt lat="42.13667534492217" lon="13.299637631083575"><ele>932.0</ele><time>2026-05-02T16:05:46Z</time></trkpt><trkpt lat="42.136705013274124" lon="13.299562015877298"><ele>932.0</ele><time>2026-05-02T16:05:47Z</time></trkpt><trkpt lat="42.1367545742891" lon="13.299398918976886"><ele>932.0</ele><time>2026-05-02T16:05:49Z</time></trkpt><trkpt lat="42.13677541345323" lon="13.299299926018763"><ele>932.0</ele><time>2026-05-02T16:05:50Z</time></trkpt><trkpt lat="42.136790903174756" lon="13.2991995508308"><ele>932.0</ele><time>2026-05-02T16:05:51Z</time></trkpt><trkpt lat="42.13681662779357" lon="13.29908284805544"><ele>932.0</ele><time>2026-05-02T16:05:52Z</time></trkpt><trkpt lat="42.13683696787299" lon="13.298960551135028"><ele>931.3333333333334</ele><time>2026-05-02T16:05:53Z</time></trkpt><trkpt lat="42.13685951623287" lon="13.29884588306749"><ele>930.6666666666667</ele><time>2026-05-02T16:05:54Z</time></trkpt><trkpt lat="42.13688578730475" lon="13.29873318092679"><ele>930.0</ele><time>2026-05-02T16:05:55Z</time></trkpt><trkpt lat="42.136906104234185" lon="13.298637264752703"><ele>929.3333333333333</ele><time>2026-05-02T16:05:56Z</time></trkpt><trkpt lat="42.136923578784824" lon="13.298542804440038"><ele>928.6666666666666</ele><time>2026-05-02T16:05:57Z</time></trkpt><trkpt lat="42.13694577572565" lon="13.298457039373876"><ele>928.0</ele><time>2026-05-02T16:05:58Z</time></trkpt><trkpt lat="42.136970100480504" lon="13.298378476472251"><ele>928.0</ele><time>2026-05-02T16:05:59Z</time></trkpt><trkpt lat="42.136998754048896" lon="13.29824216092747"><ele>928.0</ele><time>2026-05-02T16:06:01Z</time></trkpt><trkpt lat="42.13695391474319" lon="13.29813620374435"><ele>928.0</ele><time>2026-05-02T16:06:03Z</time></trkpt><trkpt lat="42.136871778832365" lon="13.298120708111458"><ele>928.0</ele><time>2026-05-02T16:06:05Z</time></trkpt><trkpt lat="42.13677448869843" lon="13.298127018964221"><ele>928.0</ele><time>2026-05-02T16:06:07Z</time></trkpt><trkpt lat="42.13666535189888" lon="13.298106817925408"><ele>928.8</ele><time>2026-05-02T16:06:09Z</time></trkpt><trkpt lat="42.136575969877434" lon="13.298012069783718"><ele>929.5999999999999</ele><time>2026-05-02T16:06:11Z</time></trkpt><trkpt lat="42.136530770052154" lon="13.297904333406892"><ele>930.4000000000001</ele><time>2026-05-02T16:06:13Z</time></trkpt><trkpt lat="42.13655476523552" lon="13.297748679757692"><ele>931.2</ele><time>2026-05-02T16:06:15Z</time></trkpt><trkpt lat="42.13658894248263" lon="13.297674112951157"><ele>932.0</ele><time>2026-05-02T16:06:16Z</time></trkpt><trkpt lat="42.13663492379655" lon="13.297611713106416"><ele>932.0000000000001</ele><time>2026-05-02T16:06:17Z</time></trkpt><trkpt lat="42.13667784926579" lon="13.297535543342224"><ele>932.0</ele><time>2026-05-02T16:06:18Z</time></trkpt><trkpt lat="42.13670081084028" lon="13.297453786727896"><ele>932.0</ele><time>2026-05-02T16:06:19Z</time></trkpt><trkpt lat="42.136702059627154" lon="13.297301362245369"><ele>932.0</ele><time>2026-05-02T16:06:21Z</time></trkpt><trkpt lat="42.136695691840664" lon="13.297205885502544"><ele>932.0000000000001</ele><time>2026-05-02T16:06:22Z</time></trkpt><trkpt lat="42.136697360572896" lon="13.297035110231512"><ele>932.0</ele><time>2026-05-02T16:06:24Z</time></trkpt><trkpt lat="42.136693046852976" lon="13.296948047226245"><ele>931.2</ele><time>2026-05-02T16:06:25Z</time></trkpt><trkpt lat="42.136704121379616" lon="13.29677579642037"><ele>930.4000000000001</ele><time>2026-05-02T16:06:27Z</time></trkpt><trkpt lat="42.13672559439924" lon="13.29668323652635"><ele>929.5999999999999</ele><time>2026-05-02T16:06:28Z</time></trkpt><trkpt lat="42.13673759972138" lon="13.296511560851274"><ele>928.8</ele><time>2026-05-02T16:06:30Z</time></trkpt><trkpt lat="42.136727553423626" lon="13.296414162157385"><ele>928.0</ele><time>2026-05-02T16:06:31Z</time></trkpt><trkpt lat="42.13670762371328" lon="13.296311685902788"><ele>927.2857142857144</ele><time>2026-05-02T16:06:32Z</time></trkpt><trkpt lat="42.13668882293035" lon="13.296203644639291"><ele>926.5714285714287</ele><time>2026-05-02T16:06:33Z</time></trkpt><trkpt lat="42.136678359219566" lon="13.296097384995594"><ele>925.8571428571429</ele><time>2026-05-02T16:06:33.999Z</time></trkpt><trkpt lat="42.13667475059754" lon="13.295997485309368"><ele>925.1428571428572</ele><time>2026-05-02T16:06:34.999Z</time></trkpt><trkpt lat="42.13667170318595" lon="13.295898577777407"><ele>924.4285714285716</ele><time>2026-05-02T16:06:35.999Z</time></trkpt><trkpt lat="42.13666388988742" lon="13.29580666014926"><ele>923.7142857142857</ele><time>2026-05-02T16:06:36.999Z</time></trkpt><trkpt lat="42.13665910586665" lon="13.295720577786573"><ele>923.0</ele><time>2026-05-02T16:06:37.999Z</time></trkpt><trkpt lat="42.13666242332429" lon="13.295635611978186"><ele>922.0</ele><time>2026-05-02T16:06:38.999Z</time></trkpt><trkpt lat="42.13667692995446" lon="13.295456081222216"><ele>921.0</ele><time>2026-05-02T16:06:40.999Z</time></trkpt><trkpt lat="42.136678498353376" lon="13.295339704455651"><ele>920.0</ele><time>2026-05-02T16:06:41.999Z</time></trkpt><trkpt lat="42.13667186582003" lon="13.295225094628918"><ele>919.0</ele><time>2026-05-02T16:06:42.999Z</time></trkpt><trkpt lat="42.13665410551906" lon="13.295107688604132"><ele>918.0</ele><time>2026-05-02T16:06:43.999Z</time></trkpt><trkpt lat="42.136631524857584" lon="13.29498648712259"><ele>918.0</ele><time>2026-05-02T16:06:44.999Z</time></trkpt><trkpt lat="42.13660355712235" lon="13.294863917675416"><ele>918.0</ele><time>2026-05-02T16:06:45.999Z</time></trkpt><trkpt lat="42.13658259031933" lon="13.294749442861955"><ele>918.0</ele><time>2026-05-02T16:06:46.999Z</time></trkpt><trkpt lat="42.136565397476595" lon="13.294640091706178"><ele>918.0</ele><time>2026-05-02T16:06:47.999Z</time></trkpt><trkpt lat="42.13654119824148" lon="13.294513273166576"><ele>918.0</ele><time>2026-05-02T16:06:48.999Z</time></trkpt><trkpt lat="42.13652530145359" lon="13.294389064371032"><ele>916.5</ele><time>2026-05-02T16:06:49.999Z</time></trkpt><trkpt lat="42.136505645386464" lon="13.294289512518457"><ele>915.0</ele><time>2026-05-02T16:06:50.999Z</time></trkpt><trkpt lat="42.136492862477844" lon="13.294195377795937"><ele>913.5</ele><time>2026-05-02T16:06:51.999Z</time></trkpt><trkpt lat="42.136489572942" lon="13.294099142834725"><ele>912.0</ele><time>2026-05-02T16:06:52.999Z</time></trkpt><trkpt lat="42.13650016909288" lon="13.294000892427569"><ele>910.5</ele><time>2026-05-02T16:06:53.999Z</time></trkpt><trkpt lat="42.13651689819529" lon="13.293865348354165"><ele>909.0</ele><time>2026-05-02T16:06:55.999Z</time></trkpt><trkpt lat="42.13646254667909" lon="13.293771134405882"><ele>909.0</ele><time>2026-05-02T16:06:57.999Z</time></trkpt><trkpt lat="42.13640447662253" lon="13.293721413075955"><ele>909.0000000000001</ele><time>2026-05-02T16:06:59.999Z</time></trkpt><trkpt lat="42.13634839540376" lon="13.293600489051537"><ele>909.0000000000001</ele><time>2026-05-02T16:07:01.999Z</time></trkpt><trkpt lat="42.1363346289801" lon="13.29345968171179"><ele>909.0</ele><time>2026-05-02T16:07:03.999Z</time></trkpt><trkpt lat="42.1363438740274" lon="13.293330482153417"><ele>909.0</ele><time>2026-05-02T16:07:06.001Z</time></trkpt><trkpt lat="42.136312694937175" lon="13.293202012475659"><ele>908.5</ele><time>2026-05-02T16:07:08.001Z</time></trkpt><trkpt lat="42.136264150224704" lon="13.293072389263164"><ele>908.0</ele><time>2026-05-02T16:07:10.001Z</time></trkpt><trkpt lat="42.13621886012046" lon="13.29292924285467"><ele>907.5</ele><time>2026-05-02T16:07:12.001Z</time></trkpt><trkpt lat="42.136196424419516" lon="13.292775816638486"><ele>907.0</ele><time>2026-05-02T16:07:14.001Z</time></trkpt><trkpt lat="42.13621159426882" lon="13.292604018261974"><ele>906.9999999999999</ele><time>2026-05-02T16:07:16.001Z</time></trkpt><trkpt lat="42.136220654096405" lon="13.29251892333045"><ele>907.0</ele><time>2026-05-02T16:07:17.001Z</time></trkpt><trkpt lat="42.13623940914708" lon="13.292356728441218"><ele>907.0</ele><time>2026-05-02T16:07:19.001Z</time></trkpt><trkpt lat="42.13625349211135" lon="13.29225708866981"><ele>907.0</ele><time>2026-05-02T16:07:20.001Z</time></trkpt><trkpt lat="42.136266640805104" lon="13.292158480516257"><ele>906.9999999999999</ele><time>2026-05-02T16:07:21.001Z</time></trkpt><trkpt lat="42.13628150567154" lon="13.292060560453285"><ele>907.0</ele><time>2026-05-02T16:07:22.001Z</time></trkpt><trkpt lat="42.13629221009704" lon="13.291966956482357"><ele>905.4999999999999</ele><time>2026-05-02T16:07:23.001Z</time></trkpt><trkpt lat="42.13629824316022" lon="13.291878827160513"><ele>904.0</ele><time>2026-05-02T16:07:24.001Z</time></trkpt><trkpt lat="42.13629564911877" lon="13.29171909375476"><ele>902.5</ele><time>2026-05-02T16:07:26Z</time></trkpt><trkpt lat="42.13628945993262" lon="13.291604579342309"><ele>901.0</ele><time>2026-05-02T16:07:28Z</time></trkpt><trkpt lat="42.136296946659385" lon="13.291513164835576"><ele>899.4999999999999</ele><time>2026-05-02T16:07:31Z</time></trkpt><trkpt lat="42.136357463780186" lon="13.291433401592737"><ele>898.0</ele><time>2026-05-02T16:07:34Z</time></trkpt><trkpt lat="42.136423960163725" lon="13.291377412007849"><ele>896.9999999999999</ele><time>2026-05-02T16:07:36Z</time></trkpt><trkpt lat="42.1364757803134" lon="13.29124685499924"><ele>896.0</ele><time>2026-05-02T16:07:37.999Z</time></trkpt><trkpt lat="42.13648847273004" lon="13.291126195029138"><ele>895.0</ele><time>2026-05-02T16:07:39.999Z</time></trkpt><trkpt lat="42.13649848661798" lon="13.291011067868618"><ele>894.0</ele><time>2026-05-02T16:07:41.999Z</time></trkpt><trkpt lat="42.13651824354805" lon="13.290918006727864"><ele>892.9999999999999</ele><time>2026-05-02T16:07:43.999Z</time></trkpt><trkpt lat="42.136566673130325" lon="13.290824076823748"><ele>892.0</ele><time>2026-05-02T16:07:45.999Z</time></trkpt><trkpt lat="42.13665067272738" lon="13.290771409466718"><ele>892.0</ele><time>2026-05-02T16:07:47.999Z</time></trkpt><trkpt lat="42.13675323262008" lon="13.290758094737704"><ele>892.0</ele><time>2026-05-02T16:07:49.999Z</time></trkpt><trkpt lat="42.13687989259827" lon="13.290748578516618"><ele>892.0</ele><time>2026-05-02T16:07:51.999Z</time></trkpt><trkpt lat="42.137009242286254" lon="13.290747215384583"><ele>892.0</ele><time>2026-05-02T16:07:53.999Z</time></trkpt><trkpt lat="42.1370823634546" lon="13.290741631388869"><ele>892.0</ele><time>2026-05-02T16:07:54.999Z</time></trkpt><trkpt lat="42.137169849996404" lon="13.290723514977511"><ele>891.9999999999999</ele><time>2026-05-02T16:07:56.999Z</time></trkpt><trkpt lat="42.137227099971795" lon="13.29063664063879"><ele>892.0</ele><time>2026-05-02T16:07:59.999Z</time></trkpt><trkpt lat="42.137209749891674" lon="13.290521710019405"><ele>892.0</ele><time>2026-05-02T16:08:02.999Z</time></trkpt><trkpt lat="42.13711952918997" lon="13.290479497394795"><ele>892.0</ele><time>2026-05-02T16:08:05.999Z</time></trkpt><trkpt lat="42.1370371674598" lon="13.290473982984821"><ele>891.9999999999999</ele><time>2026-05-02T16:08:07.999Z</time></trkpt><trkpt lat="42.136962596945935" lon="13.290451868228402"><ele>892.0</ele><time>2026-05-02T16:08:09.999Z</time></trkpt><trkpt lat="42.136894623224904" lon="13.290425665724866"><ele>889.4999999999999</ele><time>2026-05-02T16:08:11.999Z</time></trkpt><trkpt lat="42.136834826912974" lon="13.290373716148109"><ele>887.0</ele><time>2026-05-02T16:08:13.999Z</time></trkpt><trkpt lat="42.13681479577375" lon="13.290290382525297"><ele>884.5</ele><time>2026-05-02T16:08:15.999Z</time></trkpt><trkpt lat="42.13686277978533" lon="13.29020011883525"><ele>882.0</ele><time>2026-05-02T16:08:17.999Z</time></trkpt><trkpt lat="42.136930197924336" lon="13.290116815565616"><ele>879.4999999999999</ele><time>2026-05-02T16:08:19.999Z</time></trkpt><trkpt lat="42.13698850548783" lon="13.290035872798256"><ele>877.0</ele><time>2026-05-02T16:08:21.999Z</time></trkpt><trkpt lat="42.13705935620616" lon="13.289943527228852"><ele>876.9999999999999</ele><time>2026-05-02T16:08:23.999Z</time></trkpt><trkpt lat="42.1371122605207" lon="13.289840396166648"><ele>877.0</ele><time>2026-05-02T16:08:25.999Z</time></trkpt><trkpt lat="42.13715095017524" lon="13.2897090915871"><ele>877.0</ele><time>2026-05-02T16:08:27.999Z</time></trkpt><trkpt lat="42.1371689951283" lon="13.289590970261171"><ele>877.0</ele><time>2026-05-02T16:08:29.999Z</time></trkpt><trkpt lat="42.13717604427608" lon="13.289480297271858"><ele>876.9999999999999</ele><time>2026-05-02T16:08:31.999Z</time></trkpt><trkpt lat="42.1371431526147" lon="13.289390546711656"><ele>877.0</ele><time>2026-05-02T16:08:33.999Z</time></trkpt><trkpt lat="42.13709631077833" lon="13.289313721583499"><ele>874.6666666666666</ele><time>2026-05-02T16:08:35.999Z</time></trkpt><trkpt lat="42.13707143685246" lon="13.289218272546083"><ele>872.3333333333333</ele><time>2026-05-02T16:08:37.998Z</time></trkpt><trkpt lat="42.13707114538151" lon="13.289130047229154"><ele>870.0</ele><time>2026-05-02T16:08:39.998Z</time></trkpt><trkpt lat="42.13713931754041" lon="13.289043559605235"><ele>867.6666666666667</ele><time>2026-05-02T16:08:42.998Z</time></trkpt><trkpt lat="42.137207519094176" lon="13.288989243733873"><ele>865.3333333333334</ele><time>2026-05-02T16:08:44.998Z</time></trkpt><trkpt lat="42.13721335839133" lon="13.288870046180236"><ele>863.0</ele><time>2026-05-02T16:08:46.998Z</time></trkpt><trkpt lat="42.13715051967164" lon="13.288730626278621"><ele>861.6666666666667</ele><time>2026-05-02T16:08:48.998Z</time></trkpt><trkpt lat="42.1371161899462" lon="13.288656788991867"><ele>860.3333333333334</ele><time>2026-05-02T16:08:49.998Z</time></trkpt><trkpt lat="42.13709172165972" lon="13.28857684561292"><ele>859.0</ele><time>2026-05-02T16:08:50.998Z</time></trkpt><trkpt lat="42.13706998639921" lon="13.288491496911995"><ele>857.6666666666667</ele><time>2026-05-02T16:08:51.998Z</time></trkpt><trkpt lat="42.137050967669296" lon="13.28840809525038"><ele>856.3333333333334</ele><time>2026-05-02T16:08:52.998Z</time></trkpt><trkpt lat="42.13702651263853" lon="13.28826966747717"><ele>855.0</ele><time>2026-05-02T16:08:54.998Z</time></trkpt><trkpt lat="42.13702376556085" lon="13.28813340412498"><ele>855.0</ele><time>2026-05-02T16:08:56.998Z</time></trkpt><trkpt lat="42.13706160561846" lon="13.28804918233668"><ele>855.0</ele><time>2026-05-02T16:08:58.998Z</time></trkpt><trkpt lat="42.13712502277584" lon="13.288024356294907"><ele>855.0</ele><time>2026-05-02T16:09:00.998Z</time></trkpt><trkpt lat="42.137180923671224" lon="13.288080279959432"><ele>855.0</ele><time>2026-05-02T16:09:02.998Z</time></trkpt><trkpt lat="42.13721199013063" lon="13.288160651303404"><ele>855.0</ele><time>2026-05-02T16:09:04.998Z</time></trkpt><trkpt lat="42.13728564316544" lon="13.288250243621617"><ele>855.0</ele><time>2026-05-02T16:09:08.998Z</time></trkpt><trkpt lat="42.13737434062095" lon="13.288276494057001"><ele>855.4</ele><time>2026-05-02T16:09:11Z</time></trkpt><trkpt lat="42.13749079968808" lon="13.288357390160252"><ele>855.8</ele><time>2026-05-02T16:09:13Z</time></trkpt><trkpt lat="42.13755914628338" lon="13.28841163212102"><ele>856.2</ele><time>2026-05-02T16:09:14Z</time></trkpt><trkpt lat="42.137618188932" lon="13.288460673190604"><ele>856.6</ele><time>2026-05-02T16:09:15Z</time></trkpt><trkpt lat="42.137714172680894" lon="13.288566065398227"><ele>857.0</ele><time>2026-05-02T16:09:17Z</time></trkpt><trkpt lat="42.13781059174573" lon="13.288574116411656"><ele>857.0</ele><time>2026-05-02T16:09:19Z</time></trkpt><trkpt lat="42.137895046735515" lon="13.288453927256981"><ele>857.0</ele><time>2026-05-02T16:09:21Z</time></trkpt><trkpt lat="42.13790873180791" lon="13.288360199687752"><ele>857.0</ele><time>2026-05-02T16:09:22Z</time></trkpt><trkpt lat="42.1378998332503" lon="13.28824181455985"><ele>857.0</ele><time>2026-05-02T16:09:23Z</time></trkpt><trkpt lat="42.13787812462217" lon="13.288122421241708"><ele>857.0</ele><time>2026-05-02T16:09:24Z</time></trkpt><trkpt lat="42.1378476426367" lon="13.28798217899938"><ele>855.4000000000001</ele><time>2026-05-02T16:09:25Z</time></trkpt><trkpt lat="42.13781643859152" lon="13.287847186717771"><ele>853.8000000000001</ele><time>2026-05-02T16:09:26Z</time></trkpt><trkpt lat="42.13778583442288" lon="13.28770224246631"><ele>852.2</ele><time>2026-05-02T16:09:27Z</time></trkpt><trkpt lat="42.13776159151834" lon="13.287576749438681"><ele>850.6</ele><time>2026-05-02T16:09:28Z</time></trkpt><trkpt lat="42.13774063445316" lon="13.287442174143024"><ele>849.0</ele><time>2026-05-02T16:09:29Z</time></trkpt><trkpt lat="42.1377242838924" lon="13.287323886445382"><ele>847.4000000000001</ele><time>2026-05-02T16:09:29.999Z</time></trkpt><trkpt lat="42.13771358628441" lon="13.287216961517746"><ele>845.8</ele><time>2026-05-02T16:09:30.999Z</time></trkpt><trkpt lat="42.13770362026674" lon="13.287058272037477"><ele>844.2</ele><time>2026-05-02T16:09:32.999Z</time></trkpt><trkpt lat="42.13769724647513" lon="13.286937153888081"><ele>842.5999999999999</ele><time>2026-05-02T16:09:34.999Z</time></trkpt><trkpt lat="42.13769500619046" lon="13.286836627356765"><ele>841.0</ele><time>2026-05-02T16:09:36.999Z</time></trkpt><trkpt lat="42.13767178656637" lon="13.286658787525965"><ele>840.9999999999999</ele><time>2026-05-02T16:09:38.999Z</time></trkpt><trkpt lat="42.137661226387465" lon="13.286532030177876"><ele>841.0</ele><time>2026-05-02T16:09:39.999Z</time></trkpt><trkpt lat="42.137657783598605" lon="13.286418573724129"><ele>841.0</ele><time>2026-05-02T16:09:40.999Z</time></trkpt><trkpt lat="42.13764704058352" lon="13.286308411953092"><ele>841.0</ele><time>2026-05-02T16:09:41.999Z</time></trkpt><trkpt lat="42.13763479894939" lon="13.286207371447668"><ele>840.9999999999999</ele><time>2026-05-02T16:09:42.999Z</time></trkpt><trkpt lat="42.137623272386485" lon="13.286114945792445"><ele>841.0</ele><time>2026-05-02T16:09:43.999Z</time></trkpt><trkpt lat="42.13759229024241" lon="13.285983788222259"><ele>840.6666666666666</ele><time>2026-05-02T16:09:45.999Z</time></trkpt><trkpt lat="42.13758486347068" lon="13.285892408356782"><ele>840.3333333333333</ele><time>2026-05-02T16:09:47.999Z</time></trkpt><trkpt lat="42.1375954935317" lon="13.285783201482761"><ele>840.0</ele><time>2026-05-02T16:10:00.999Z</time></trkpt><trkpt lat="42.137652497598204" lon="13.28569653155414"><ele>839.6666666666667</ele><time>2026-05-02T16:10:02.999Z</time></trkpt><trkpt lat="42.13777875049229" lon="13.285694642060047"><ele>839.3333333333334</ele><time>2026-05-02T16:10:04.999Z</time></trkpt><trkpt lat="42.13785659834795" lon="13.285717969494328"><ele>839.0</ele><time>2026-05-02T16:10:05.999Z</time></trkpt><trkpt lat="42.1379333554737" lon="13.285738214830184"><ele>839.0000000000001</ele><time>2026-05-02T16:10:06.999Z</time></trkpt><trkpt lat="42.138015183061974" lon="13.28576458299794"><ele>839.0</ele><time>2026-05-02T16:10:07.999Z</time></trkpt><trkpt lat="42.13809759607135" lon="13.28579823322784"><ele>839.0</ele><time>2026-05-02T16:10:08.999Z</time></trkpt><trkpt lat="42.138172521167355" lon="13.285836379949572"><ele>839.0</ele><time>2026-05-02T16:10:09.999Z</time></trkpt><trkpt lat="42.13823568289162" lon="13.285864662891713"><ele>839.0000000000001</ele><time>2026-05-02T16:10:10.999Z</time></trkpt><trkpt lat="42.13832614877929" lon="13.285933686116515"><ele>839.0</ele><time>2026-05-02T16:10:12.999Z</time></trkpt><trkpt lat="42.138400744429916" lon="13.285897500178832"><ele>839.2</ele><time>2026-05-02T16:10:15.999Z</time></trkpt><trkpt lat="42.138512421493544" lon="13.285869079088329"><ele>839.4000000000001</ele><time>2026-05-02T16:10:17.999Z</time></trkpt><trkpt lat="42.13864271053856" lon="13.285860696395776"><ele>839.6</ele><time>2026-05-02T16:10:19.999Z</time></trkpt><trkpt lat="42.138718963254746" lon="13.28585740779174"><ele>839.8</ele><time>2026-05-02T16:10:21.999Z</time></trkpt><trkpt lat="42.13883107768499" lon="13.285850705629976"><ele>840.0</ele><time>2026-05-02T16:10:23.999Z</time></trkpt><trkpt lat="42.13893516949963" lon="13.285887815941344"><ele>840.0</ele><time>2026-05-02T16:10:25.999Z</time></trkpt><trkpt lat="42.13904636687028" lon="13.28591622575175"><ele>840.0</ele><time>2026-05-02T16:10:27.999Z</time></trkpt><trkpt lat="42.13911651727357" lon="13.28590928650667"><ele>840.0</ele><time>2026-05-02T16:10:28.999Z</time></trkpt><trkpt lat="42.139231558848955" lon="13.285894315700524"><ele>840.0</ele><time>2026-05-02T16:10:30.999Z</time></trkpt><trkpt lat="42.1392975632479" lon="13.285892065274485"><ele>840.0</ele><time>2026-05-02T16:10:31.999Z</time></trkpt><trkpt lat="42.13937334494047" lon="13.285889906522236"><ele>840.0</ele><time>2026-05-02T16:10:32.999Z</time></trkpt><trkpt lat="42.13946030613817" lon="13.285899856513861"><ele>839.5</ele><time>2026-05-02T16:10:33.999Z</time></trkpt><trkpt lat="42.13954436441722" lon="13.285910760049322"><ele>839.0</ele><time>2026-05-02T16:10:34.999Z</time></trkpt><trkpt lat="42.13964210982989" lon="13.28591765141564"><ele>838.5</ele><time>2026-05-02T16:10:35.999Z</time></trkpt><trkpt lat="42.13973247251205" lon="13.285915378637855"><ele>838.0</ele><time>2026-05-02T16:10:36.999Z</time></trkpt><trkpt lat="42.13981798478297" lon="13.285905718631776"><ele>837.5</ele><time>2026-05-02T16:10:37.999Z</time></trkpt><trkpt lat="42.13990738725643" lon="13.285906458820323"><ele>837.0</ele><time>2026-05-02T16:10:38.999Z</time></trkpt><trkpt lat="42.139998680561526" lon="13.285907432927656"><ele>835.3333333333334</ele><time>2026-05-02T16:10:39.999Z</time></trkpt><trkpt lat="42.14008264796564" lon="13.285917635587685"><ele>833.6666666666667</ele><time>2026-05-02T16:10:40.999Z</time></trkpt><trkpt lat="42.140169448517206" lon="13.285935682462009"><ele>832.0</ele><time>2026-05-02T16:10:41.998Z</time></trkpt><trkpt lat="42.14024999599351" lon="13.28594769291769"><ele>830.3333333333334</ele><time>2026-05-02T16:10:42.998Z</time></trkpt><trkpt lat="42.14033021169017" lon="13.28595861882285"><ele>828.6666666666667</ele><time>2026-05-02T16:10:43.998Z</time></trkpt><trkpt lat="42.14041073039107" lon="13.285969093900691"><ele>827.0</ele><time>2026-05-02T16:10:44.998Z</time></trkpt><trkpt lat="42.14048457570847" lon="13.285980146091607"><ele>827.0000000000001</ele><time>2026-05-02T16:10:45.998Z</time></trkpt><trkpt lat="42.14055010644824" lon="13.285993317428897"><ele>827.0</ele><time>2026-05-02T16:10:46.998Z</time></trkpt><trkpt lat="42.140640913859684" lon="13.28599805562145"><ele>827.0</ele><time>2026-05-02T16:10:48.998Z</time></trkpt><trkpt lat="42.14072053194238" lon="13.285995076966095"><ele>827.0</ele><time>2026-05-02T16:10:50.998Z</time></trkpt><trkpt lat="42.140790911924356" lon="13.285980261603353"><ele>827.0000000000001</ele><time>2026-05-02T16:10:52.998Z</time></trkpt><trkpt lat="42.14087455372048" lon="13.285964826583905"><ele>827.0</ele><time>2026-05-02T16:10:55.998Z</time></trkpt><trkpt lat="42.140938116295224" lon="13.285975596724562"><ele>825.4000000000001</ele><time>2026-05-02T16:10:57.998Z</time></trkpt><trkpt lat="42.14099501956227" lon="13.286021401305144"><ele>823.8000000000001</ele><time>2026-05-02T16:10:59.998Z</time></trkpt><trkpt lat="42.14106765722254" lon="13.286086468548465"><ele>822.2</ele><time>2026-05-02T16:11:01.998Z</time></trkpt><trkpt lat="42.141174450799305" lon="13.286115309431056"><ele>820.6</ele><time>2026-05-02T16:11:03.998Z</time></trkpt><trkpt lat="42.14129324162303" lon="13.286096114167481"><ele>819.0</ele><time>2026-05-02T16:11:05.998Z</time></trkpt><trkpt lat="42.14141445213094" lon="13.286030362483109"><ele>819.0</ele><time>2026-05-02T16:11:07.998Z</time></trkpt><trkpt lat="42.1414762351933" lon="13.28600029507035"><ele>819.0</ele><time>2026-05-02T16:11:08.998Z</time></trkpt><trkpt lat="42.14154836135054" lon="13.285976270552977"><ele>819.0</ele><time>2026-05-02T16:11:09.998Z</time></trkpt><trkpt lat="42.14162207781542" lon="13.285961384429516"><ele>819.0</ele><time>2026-05-02T16:11:10.998Z</time></trkpt><trkpt lat="42.141697762099106" lon="13.285960022131492"><ele>819.0</ele><time>2026-05-02T16:11:11.998Z</time></trkpt><trkpt lat="42.141770350650866" lon="13.285970482882167"><ele>819.0</ele><time>2026-05-02T16:11:12.998Z</time></trkpt><trkpt lat="42.14184504297919" lon="13.28598341835862"><ele>819.0</ele><time>2026-05-02T16:11:13.998Z</time></trkpt><trkpt lat="42.14190936096769" lon="13.285984330311392"><ele>815.6666666666666</ele><time>2026-05-02T16:11:14.998Z</time></trkpt><trkpt lat="42.141972779699046" lon="13.285985513673548"><ele>812.3333333333333</ele><time>2026-05-02T16:11:15.998Z</time></trkpt><trkpt lat="42.14208224463725" lon="13.285983843623828"><ele>809.0</ele><time>2026-05-02T16:11:18Z</time></trkpt><trkpt lat="42.142182964672216" lon="13.285996661090422"><ele>805.6666666666666</ele><time>2026-05-02T16:11:20Z</time></trkpt><trkpt lat="42.14224731148624" lon="13.285978518878352"><ele>802.3333333333333</ele><time>2026-05-02T16:11:22Z</time></trkpt><trkpt lat="42.14231074928714" lon="13.285943831064031"><ele>799.0</ele><time>2026-05-02T16:11:23.999Z</time></trkpt><trkpt lat="42.14237413890271" lon="13.285916613379516"><ele>795.6666666666666</ele><time>2026-05-02T16:11:25.999Z</time></trkpt><trkpt lat="42.14244472611265" lon="13.285925222326263"><ele>792.3333333333333</ele><time>2026-05-02T16:11:28.999Z</time></trkpt><trkpt lat="42.14249969972043" lon="13.285973749755856"><ele>789.0</ele><time>2026-05-02T16:11:30.999Z</time></trkpt><trkpt lat="42.142527869180476" lon="13.286076912568383"><ele>785.6666666666667</ele><time>2026-05-02T16:11:33.999Z</time></trkpt><trkpt lat="42.1425700622653" lon="13.286160514991556"><ele>782.3333333333334</ele><time>2026-05-02T16:11:36.999Z</time></trkpt><trkpt lat="42.14261983764468" lon="13.28624025017736"><ele>779.0</ele><time>2026-05-02T16:11:39.999Z</time></trkpt><trkpt lat="42.142691071731555" lon="13.286309175919776"><ele>779.0</ele><time>2026-05-02T16:11:41.999Z</time></trkpt><trkpt lat="42.14277568452765" lon="13.286351996988367"><ele>779.0</ele><time>2026-05-02T16:11:43.999Z</time></trkpt><trkpt lat="42.14287238375933" lon="13.28639528466586"><ele>779.0</ele><time>2026-05-02T16:11:45.999Z</time></trkpt><trkpt lat="42.14295606806319" lon="13.28647059087287"><ele>779.0</ele><time>2026-05-02T16:11:47.999Z</time></trkpt><trkpt lat="42.14304072226051" lon="13.286587112919277"><ele>779.0</ele><time>2026-05-02T16:11:49.999Z</time></trkpt><trkpt lat="42.14308594059887" lon="13.28667319024949"><ele>779.5000000000001</ele><time>2026-05-02T16:11:50.999Z</time></trkpt><trkpt lat="42.14313387485507" lon="13.28676532236723"><ele>780.0</ele><time>2026-05-02T16:11:51.999Z</time></trkpt><trkpt lat="42.14317844783619" lon="13.28686341280387"><ele>780.5</ele><time>2026-05-02T16:11:52.999Z</time></trkpt><trkpt lat="42.14321257584239" lon="13.2869676550667"><ele>781.0</ele><time>2026-05-02T16:11:53.999Z</time></trkpt><trkpt lat="42.143242084685276" lon="13.287069019207303"><ele>781.5000000000001</ele><time>2026-05-02T16:11:54.999Z</time></trkpt><trkpt lat="42.143256222212095" lon="13.287163622741058"><ele>782.0</ele><time>2026-05-02T16:11:55.999Z</time></trkpt><trkpt lat="42.14326392130856" lon="13.287264501425428"><ele>782.0000000000001</ele><time>2026-05-02T16:11:56.999Z</time></trkpt><trkpt lat="42.14326015805725" lon="13.287372993129951"><ele>782.0</ele><time>2026-05-02T16:11:57.999Z</time></trkpt><trkpt lat="42.14325184132419" lon="13.28748600121992"><ele>782.0</ele><time>2026-05-02T16:11:58.999Z</time></trkpt><trkpt lat="42.143252168163116" lon="13.28758519236892"><ele>782.0</ele><time>2026-05-02T16:11:59.999Z</time></trkpt><trkpt lat="42.14328338064322" lon="13.287708825421896"><ele>782.0000000000001</ele><time>2026-05-02T16:12:01.999Z</time></trkpt><trkpt lat="42.143374502327774" lon="13.28778184126177"><ele>782.0</ele><time>2026-05-02T16:12:03.999Z</time></trkpt><trkpt lat="42.143464706479186" lon="13.287802127714786"><ele>782.0</ele><time>2026-05-02T16:12:05.999Z</time></trkpt><trkpt lat="42.14356335230577" lon="13.287847106862568"><ele>782.0</ele><time>2026-05-02T16:12:07.999Z</time></trkpt><trkpt lat="42.14363114867043" lon="13.287868342173489"><ele>782.0</ele><time>2026-05-02T16:12:08.999Z</time></trkpt><trkpt lat="42.14373308464364" lon="13.287796338370255"><ele>782.0</ele><time>2026-05-02T16:12:10.999Z</time></trkpt><trkpt lat="42.14380210467651" lon="13.28765586839264"><ele>782.0</ele><time>2026-05-02T16:12:12.999Z</time></trkpt><trkpt lat="42.14384486517579" lon="13.287582977552978"><ele>782.0</ele><time>2026-05-02T16:12:13.999Z</time></trkpt><trkpt lat="42.143894456943" lon="13.287517278727082"><ele>782.0</ele><time>2026-05-02T16:12:14.999Z</time></trkpt><trkpt lat="42.14394936060144" lon="13.28747006463708"><ele>782.0</ele><time>2026-05-02T16:12:15.999Z</time></trkpt><trkpt lat="42.14407116332075" lon="13.287392631241373"><ele>782.0</ele><time>2026-05-02T16:12:17.999Z</time></trkpt><trkpt lat="42.14420164503641" lon="13.287374249983863"><ele>782.0</ele><time>2026-05-02T16:12:19.999Z</time></trkpt><trkpt lat="42.1442736949808" lon="13.287378010976026"><ele>783.0000000000001</ele><time>2026-05-02T16:12:20.999Z</time></trkpt><trkpt lat="42.14435144124273" lon="13.287379004897419"><ele>784.0</ele><time>2026-05-02T16:12:21.999Z</time></trkpt><trkpt lat="42.1444321417889" lon="13.28738483946886"><ele>785.0</ele><time>2026-05-02T16:12:22.999Z</time></trkpt><trkpt lat="42.144508376942504" lon="13.287374586396009"><ele>786.0</ele><time>2026-05-02T16:12:23.999Z</time></trkpt><trkpt lat="42.14459085561672" lon="13.287361625877288"><ele>787.0000000000001</ele><time>2026-05-02T16:12:24.999Z</time></trkpt><trkpt lat="42.14466077398812" lon="13.28735761341552"><ele>788.0</ele><time>2026-05-02T16:12:25.999Z</time></trkpt><trkpt lat="42.144784817571136" lon="13.287358705253874"><ele>789.5999999999999</ele><time>2026-05-02T16:12:27.999Z</time></trkpt><trkpt lat="42.14489336920391" lon="13.287394605117981"><ele>791.1999999999999</ele><time>2026-05-02T16:12:29.999Z</time></trkpt><trkpt lat="42.144988539540336" lon="13.287494274142706"><ele>792.8</ele><time>2026-05-02T16:12:31.999Z</time></trkpt><trkpt lat="42.1450542834286" lon="13.287600658133952"><ele>794.4</ele><time>2026-05-02T16:12:33.999Z</time></trkpt><trkpt lat="42.145077395926215" lon="13.287720547852764"><ele>796.0</ele><time>2026-05-02T16:12:35.999Z</time></trkpt><trkpt lat="42.14506483324712" lon="13.28785843385502"><ele>795.9999999999999</ele><time>2026-05-02T16:12:37.999Z</time></trkpt><trkpt lat="42.14504900920794" lon="13.28794104113256"><ele>796.0</ele><time>2026-05-02T16:12:38.999Z</time></trkpt><trkpt lat="42.145013103765905" lon="13.288091952211436"><ele>796.0</ele><time>2026-05-02T16:12:40.999Z</time></trkpt><trkpt lat="42.145003273391026" lon="13.288240472142013"><ele>796.0</ele><time>2026-05-02T16:12:42.999Z</time></trkpt><trkpt lat="42.144994621384654" lon="13.288336272712426"><ele>795.9999999999999</ele><time>2026-05-02T16:12:43.999Z</time></trkpt><trkpt lat="42.144983911241745" lon="13.288447187678813"><ele>796.0</ele><time>2026-05-02T16:12:44.999Z</time></trkpt><trkpt lat="42.144974718829" lon="13.288554636421026"><ele>796.1428571428571</ele><time>2026-05-02T16:12:45.999Z</time></trkpt><trkpt lat="42.144967800144116" lon="13.288657834632986"><ele>796.2857142857142</ele><time>2026-05-02T16:12:46.999Z</time></trkpt><trkpt lat="42.1449627313577" lon="13.288753750256502"><ele>796.4285714285713</ele><time>2026-05-02T16:12:47.999Z</time></trkpt><trkpt lat="42.14495878632464" lon="13.28884263573483"><ele>796.5714285714286</ele><time>2026-05-02T16:12:48.998Z</time></trkpt><trkpt lat="42.14495510266187" lon="13.28893410377276"><ele>796.7142857142858</ele><time>2026-05-02T16:12:49.998Z</time></trkpt><trkpt lat="42.14494939860498" lon="13.289032220549581"><ele>796.8571428571428</ele><time>2026-05-02T16:12:50.998Z</time></trkpt><trkpt lat="42.14496384900074" lon="13.289135634690114"><ele>797.0</ele><time>2026-05-02T16:12:51.998Z</time></trkpt><trkpt lat="42.14496556741518" lon="13.289226060481504"><ele>797.1666666666667</ele><time>2026-05-02T16:12:52.998Z</time></trkpt><trkpt lat="42.144970486104114" lon="13.289346937093057"><ele>797.3333333333334</ele><time>2026-05-02T16:12:53.998Z</time></trkpt><trkpt lat="42.14497255875664" lon="13.289454840617324"><ele>797.5</ele><time>2026-05-02T16:12:54.998Z</time></trkpt><trkpt lat="42.14498137506547" lon="13.289567471501718"><ele>797.6666666666667</ele><time>2026-05-02T16:12:55.998Z</time></trkpt><trkpt lat="42.14499394656683" lon="13.289667217881307"><ele>797.8333333333334</ele><time>2026-05-02T16:12:56.998Z</time></trkpt><trkpt lat="42.14502175138241" lon="13.289765035405765"><ele>798.0</ele><time>2026-05-02T16:12:57.998Z</time></trkpt><trkpt lat="42.14506317756097" lon="13.28985045805585"><ele>798.0</ele><time>2026-05-02T16:12:58.998Z</time></trkpt><trkpt lat="42.145107557564465" lon="13.289935722046033"><ele>798.0</ele><time>2026-05-02T16:12:59.998Z</time></trkpt><trkpt lat="42.14515604564585" lon="13.290031308042716"><ele>798.0</ele><time>2026-05-02T16:13:00.998Z</time></trkpt><trkpt lat="42.14520120910479" lon="13.290125961821417"><ele>798.0</ele><time>2026-05-02T16:13:01.998Z</time></trkpt><trkpt lat="42.14524786830849" lon="13.290224796463384"><ele>798.0</ele><time>2026-05-02T16:13:02.998Z</time></trkpt><trkpt lat="42.14529839235388" lon="13.290322712344949"><ele>798.0</ele><time>2026-05-02T16:13:03.998Z</time></trkpt><trkpt lat="42.14536211056761" lon="13.290417510436882"><ele>798.0</ele><time>2026-05-02T16:13:04.998Z</time></trkpt><trkpt lat="42.145419852599716" lon="13.29049411637149"><ele>798.0</ele><time>2026-05-02T16:13:05.998Z</time></trkpt><trkpt lat="42.145467284318826" lon="13.2905610408479"><ele>798.0</ele><time>2026-05-02T16:13:06.998Z</time></trkpt><trkpt lat="42.14551591312894" lon="13.290622193911249"><ele>798.0</ele><time>2026-05-02T16:13:07.998Z</time></trkpt><trkpt lat="42.145573936027446" lon="13.290680979653319"><ele>798.0</ele><time>2026-05-02T16:13:08.998Z</time></trkpt><trkpt lat="42.145630567709574" lon="13.290733696497899"><ele>798.0</ele><time>2026-05-02T16:13:09.998Z</time></trkpt><trkpt lat="42.145694173917065" lon="13.290781272156893"><ele>798.0</ele><time>2026-05-02T16:13:10.998Z</time></trkpt><trkpt lat="42.14575429950953" lon="13.290831147554456"><ele>796.3333333333334</ele><time>2026-05-02T16:13:11.998Z</time></trkpt><trkpt lat="42.14581319333294" lon="13.290886006045522"><ele>794.6666666666667</ele><time>2026-05-02T16:13:12.998Z</time></trkpt><trkpt lat="42.14587894665883" lon="13.290939420814144"><ele>793.0</ele><time>2026-05-02T16:13:13.998Z</time></trkpt><trkpt lat="42.14594870714227" lon="13.29099820240946"><ele>791.3333333333334</ele><time>2026-05-02T16:13:14.998Z</time></trkpt><trkpt lat="42.14600295059567" lon="13.291061288983295"><ele>789.6666666666667</ele><time>2026-05-02T16:13:15.998Z</time></trkpt><trkpt lat="42.14607227661358" lon="13.291157540017677"><ele>788.0</ele><time>2026-05-02T16:13:17.998Z</time></trkpt><trkpt lat="42.146126821823955" lon="13.291228314526082"><ele>788.0</ele><time>2026-05-02T16:13:19.998Z</time></trkpt><trkpt lat="42.14621823952324" lon="13.291358443855817"><ele>788.0</ele><time>2026-05-02T16:13:21.998Z</time></trkpt><trkpt lat="42.146278915429804" lon="13.291430164627885"><ele>788.0</ele><time>2026-05-02T16:13:23Z</time></trkpt><trkpt lat="42.14634193233216" lon="13.291502027326848"><ele>788.0</ele><time>2026-05-02T16:13:24Z</time></trkpt><trkpt lat="42.14640610613091" lon="13.291580801187578"><ele>788.0</ele><time>2026-05-02T16:13:25Z</time></trkpt><trkpt lat="42.14646951263072" lon="13.291665679048409"><ele>789.2</ele><time>2026-05-02T16:13:26Z</time></trkpt><trkpt lat="42.146526355583745" lon="13.291736573198627"><ele>790.4</ele><time>2026-05-02T16:13:27Z</time></trkpt><trkpt lat="42.14658392390508" lon="13.291814359314921"><ele>791.6</ele><time>2026-05-02T16:13:28Z</time></trkpt><trkpt lat="42.14663128460285" lon="13.291876292129484"><ele>792.8000000000001</ele><time>2026-05-02T16:13:29Z</time></trkpt><trkpt lat="42.146732216755275" lon="13.291925288103952"><ele>794.0</ele><time>2026-05-02T16:13:31Z</time></trkpt><trkpt lat="42.14683360514275" lon="13.291825158182023"><ele>792.0</ele><time>2026-05-02T16:13:33Z</time></trkpt><trkpt lat="42.14688981447073" lon="13.291745973990924"><ele>790.0</ele><time>2026-05-02T16:13:34Z</time></trkpt><trkpt lat="42.14695158141089" lon="13.291679728586704"><ele>788.0</ele><time>2026-05-02T16:13:35Z</time></trkpt><trkpt lat="42.14701633981615" lon="13.291614893296776"><ele>786.0</ele><time>2026-05-02T16:13:36Z</time></trkpt><trkpt lat="42.147075544028574" lon="13.291562257996512"><ele>784.0</ele><time>2026-05-02T16:13:37Z</time></trkpt><trkpt lat="42.14713796211991" lon="13.291532984782599"><ele>782.0</ele><time>2026-05-02T16:13:38Z</time></trkpt><trkpt lat="42.14720721799187" lon="13.291527814323826"><ele>780.0</ele><time>2026-05-02T16:13:39Z</time></trkpt><trkpt lat="42.147276880705505" lon="13.291519765821215"><ele>776.6</ele><time>2026-05-02T16:13:40Z</time></trkpt><trkpt lat="42.14738468763838" lon="13.291539088891211"><ele>773.2</ele><time>2026-05-02T16:13:41.999Z</time></trkpt><trkpt lat="42.14748937858582" lon="13.291593486431818"><ele>769.8</ele><time>2026-05-02T16:13:43.999Z</time></trkpt><trkpt lat="42.147555397031276" lon="13.291641329069629"><ele>766.4</ele><time>2026-05-02T16:13:45.999Z</time></trkpt><trkpt lat="42.147586052657694" lon="13.291548624819892"><ele>763.0</ele><time>2026-05-02T16:13:48.999Z</time></trkpt><trkpt lat="42.14753357712954" lon="13.291426113966583"><ele>760.5999999999999</ele><time>2026-05-02T16:13:50.999Z</time></trkpt><trkpt lat="42.14747178123177" lon="13.291292827341977"><ele>758.1999999999999</ele><time>2026-05-02T16:13:52.999Z</time></trkpt><trkpt lat="42.14742050998139" lon="13.29118953503751"><ele>755.8</ele><time>2026-05-02T16:13:54.999Z</time></trkpt><trkpt lat="42.14739724356071" lon="13.291093341427263"><ele>753.4</ele><time>2026-05-02T16:13:56.999Z</time></trkpt><trkpt lat="42.14741904264088" lon="13.291008821168125"><ele>751.0</ele><time>2026-05-02T16:13:58.999Z</time></trkpt><trkpt lat="42.14747341588745" lon="13.290895315641432"><ele>751.0</ele><time>2026-05-02T16:14:00.999Z</time></trkpt><trkpt lat="42.14751100071505" lon="13.29081786196321"><ele>751.0</ele><time>2026-05-02T16:14:01.999Z</time></trkpt><trkpt lat="42.14755361061298" lon="13.29074991233564"><ele>751.0</ele><time>2026-05-02T16:14:02.999Z</time></trkpt><trkpt lat="42.14762464378651" lon="13.290602818782451"><ele>751.0</ele><time>2026-05-02T16:14:04.999Z</time></trkpt><trkpt lat="42.147665655248176" lon="13.290523540895899"><ele>751.0</ele><time>2026-05-02T16:14:05.999Z</time></trkpt><trkpt lat="42.14772094090631" lon="13.290452075068986"><ele>751.0</ele><time>2026-05-02T16:14:06.999Z</time></trkpt><trkpt lat="42.14778224545526" lon="13.29039668279348"><ele>751.4</ele><time>2026-05-02T16:14:07.999Z</time></trkpt><trkpt lat="42.14784743141238" lon="13.29034622842043"><ele>751.8</ele><time>2026-05-02T16:14:08.999Z</time></trkpt><trkpt lat="42.14792560142299" lon="13.290305046150362"><ele>752.1999999999999</ele><time>2026-05-02T16:14:09.999Z</time></trkpt><trkpt lat="42.148013466698536" lon="13.290256489277501"><ele>752.5999999999999</ele><time>2026-05-02T16:14:10.999Z</time></trkpt><trkpt lat="42.14810984045489" lon="13.290201681956168"><ele>753.0</ele><time>2026-05-02T16:14:11.999Z</time></trkpt><trkpt lat="42.14820138859457" lon="13.290133531451366"><ele>750.2</ele><time>2026-05-02T16:14:12.999Z</time></trkpt><trkpt lat="42.148301540584356" lon="13.290063353910421"><ele>747.4</ele><time>2026-05-02T16:14:13.999Z</time></trkpt><trkpt lat="42.14839640304622" lon="13.289999956832316"><ele>744.6</ele><time>2026-05-02T16:14:14.999Z</time></trkpt><trkpt lat="42.148489326852086" lon="13.289933485188083"><ele>741.8000000000001</ele><time>2026-05-02T16:14:15.999Z</time></trkpt><trkpt lat="42.14857289362711" lon="13.289860331215992"><ele>739.0</ele><time>2026-05-02T16:14:16.999Z</time></trkpt><trkpt lat="42.148660562624144" lon="13.289784807212715"><ele>739.2</ele><time>2026-05-02T16:14:17.999Z</time></trkpt><trkpt lat="42.148756159394715" lon="13.289707984012631"><ele>739.4000000000001</ele><time>2026-05-02T16:14:18.999Z</time></trkpt><trkpt lat="42.14885204225619" lon="13.28963408689982"><ele>739.6</ele><time>2026-05-02T16:14:19.999Z</time></trkpt><trkpt lat="42.14894260427043" lon="13.28955868574702"><ele>739.8</ele><time>2026-05-02T16:14:20.999Z</time></trkpt><trkpt lat="42.14902192599229" lon="13.289467189100922"><ele>740.0</ele><time>2026-05-02T16:14:21.999Z</time></trkpt><trkpt lat="42.14908489843474" lon="13.289373302271423"><ele>740.0</ele><time>2026-05-02T16:14:22.999Z</time></trkpt><trkpt lat="42.14914865327742" lon="13.289264944953151"><ele>740.0</ele><time>2026-05-02T16:14:23.999Z</time></trkpt><trkpt lat="42.149208195558685" lon="13.289152544234913"><ele>740.0</ele><time>2026-05-02T16:14:24.999Z</time></trkpt><trkpt lat="42.14925993618067" lon="13.28905736353249"><ele>740.0</ele><time>2026-05-02T16:14:25.999Z</time></trkpt><trkpt lat="42.14931303182753" lon="13.288985521821099"><ele>740.0</ele><time>2026-05-02T16:14:26.999Z</time></trkpt><trkpt lat="42.14937018839591" lon="13.288922325389793"><ele>740.0</ele><time>2026-05-02T16:14:27.999Z</time></trkpt><trkpt lat="42.149425039256414" lon="13.288877319706998"><ele>740.5</ele><time>2026-05-02T16:14:28.999Z</time></trkpt><trkpt lat="42.14948483415849" lon="13.288830044256732"><ele>741.0</ele><time>2026-05-02T16:14:29.999Z</time></trkpt><trkpt lat="42.14954549250682" lon="13.288766558386993"><ele>741.5</ele><time>2026-05-02T16:14:30.999Z</time></trkpt><trkpt lat="42.14960679938017" lon="13.288686347542479"><ele>742.0</ele><time>2026-05-02T16:14:31.999Z</time></trkpt><trkpt lat="42.14966261994013" lon="13.288607174638827"><ele>742.5</ele><time>2026-05-02T16:14:32.999Z</time></trkpt><trkpt lat="42.149740097207385" lon="13.288517780824302"><ele>743.0</ele><time>2026-05-02T16:14:33.999Z</time></trkpt><trkpt lat="42.14980442147534" lon="13.288430346037735"><ele>743.0</ele><time>2026-05-02T16:14:34.999Z</time></trkpt><trkpt lat="42.149870079368505" lon="13.288341896767275"><ele>743.0</ele><time>2026-05-02T16:14:35.999Z</time></trkpt><trkpt lat="42.14993843552331" lon="13.28824481962461"><ele>743.0</ele><time>2026-05-02T16:14:36.999Z</time></trkpt><trkpt lat="42.14999465520323" lon="13.28812627728297"><ele>743.0</ele><time>2026-05-02T16:14:37.999Z</time></trkpt><trkpt lat="42.15004936304277" lon="13.28802236230161"><ele>743.0</ele><time>2026-05-02T16:14:38.999Z</time></trkpt><trkpt lat="42.15010651272178" lon="13.287911542170063"><ele>741.0</ele><time>2026-05-02T16:14:39.999Z</time></trkpt><trkpt lat="42.15016656489692" lon="13.287807551952"><ele>739.0</ele><time>2026-05-02T16:14:40.999Z</time></trkpt><trkpt lat="42.15021056421915" lon="13.287718329900155"><ele>737.0</ele><time>2026-05-02T16:14:41.999Z</time></trkpt><trkpt lat="42.1502758964756" lon="13.287601491051726"><ele>735.0</ele><time>2026-05-02T16:14:43.999Z</time></trkpt><trkpt lat="42.15033117212289" lon="13.287488673579261"><ele>733.0</ele><time>2026-05-02T16:14:45.999Z</time></trkpt><trkpt lat="42.15037232652825" lon="13.287393543304793"><ele>732.8</ele><time>2026-05-02T16:14:47.999Z</time></trkpt><trkpt lat="42.15043808997527" lon="13.287259490817124"><ele>732.5999999999999</ele><time>2026-05-02T16:14:49.999Z</time></trkpt><trkpt lat="42.15048717559584" lon="13.287180132388071"><ele>732.4000000000001</ele><time>2026-05-02T16:14:50.999Z</time></trkpt><trkpt lat="42.15054630087124" lon="13.287103554943974"><ele>732.2</ele><time>2026-05-02T16:14:51.999Z</time></trkpt><trkpt lat="42.150597159333884" lon="13.287034655768924"><ele>732.0</ele><time>2026-05-02T16:14:52.999Z</time></trkpt><trkpt lat="42.15068464286097" lon="13.286942772739884"><ele>731.6</ele><time>2026-05-02T16:14:54.999Z</time></trkpt><trkpt lat="42.15074950260488" lon="13.28689704911377"><ele>731.2</ele><time>2026-05-02T16:14:56.998Z</time></trkpt><trkpt lat="42.15085038336114" lon="13.286828239374353"><ele>730.8</ele><time>2026-05-02T16:14:58.998Z</time></trkpt><trkpt lat="42.15092087126979" lon="13.286759583940357"><ele>730.4</ele><time>2026-05-02T16:14:59.998Z</time></trkpt><trkpt lat="42.15099375188638" lon="13.286683801898858"><ele>730.0</ele><time>2026-05-02T16:15:00.998Z</time></trkpt><trkpt lat="42.15106333974412" lon="13.28659400481389"><ele>730.0</ele><time>2026-05-02T16:15:01.998Z</time></trkpt><trkpt lat="42.15113281212375" lon="13.286492047753189"><ele>730.0</ele><time>2026-05-02T16:15:02.998Z</time></trkpt><trkpt lat="42.151198156615365" lon="13.28638412306475"><ele>730.0</ele><time>2026-05-02T16:15:03.998Z</time></trkpt><trkpt lat="42.15126248893675" lon="13.286272517377336"><ele>730.0</ele><time>2026-05-02T16:15:04.998Z</time></trkpt><trkpt lat="42.15132597494541" lon="13.286172665265156"><ele>730.0</ele><time>2026-05-02T16:15:05.998Z</time></trkpt><trkpt lat="42.15138653052521" lon="13.28608058645978"><ele>729.6666666666667</ele><time>2026-05-02T16:15:06.998Z</time></trkpt><trkpt lat="42.15144743078784" lon="13.285987853881004"><ele>729.3333333333334</ele><time>2026-05-02T16:15:07.998Z</time></trkpt><trkpt lat="42.15150896473358" lon="13.285904657925656"><ele>729.0</ele><time>2026-05-02T16:15:08.998Z</time></trkpt><trkpt lat="42.15157815682368" lon="13.285829913870682"><ele>728.6666666666666</ele><time>2026-05-02T16:15:09.998Z</time></trkpt><trkpt lat="42.15164921332208" lon="13.285764081033557"><ele>728.3333333333333</ele><time>2026-05-02T16:15:10.998Z</time></trkpt><trkpt lat="42.15172207937382" lon="13.285702185760936"><ele>728.0</ele><time>2026-05-02T16:15:11.998Z</time></trkpt><trkpt lat="42.15180064850012" lon="13.2856230544765"><ele>727.5999999999999</ele><time>2026-05-02T16:15:12.998Z</time></trkpt><trkpt lat="42.15186689296463" lon="13.285536525930063"><ele>727.1999999999999</ele><time>2026-05-02T16:15:13.998Z</time></trkpt><trkpt lat="42.15193888786859" lon="13.285439891757191"><ele>726.8</ele><time>2026-05-02T16:15:14.998Z</time></trkpt><trkpt lat="42.152013474834625" lon="13.285350896178748"><ele>726.4</ele><time>2026-05-02T16:15:15.998Z</time></trkpt><trkpt lat="42.152092098867556" lon="13.285260326750349"><ele>726.0</ele><time>2026-05-02T16:15:16.998Z</time></trkpt><trkpt lat="42.15217849635025" lon="13.285164295585716"><ele>726.0</ele><time>2026-05-02T16:15:17.998Z</time></trkpt><trkpt lat="42.15226543575036" lon="13.285078049134214"><ele>726.0</ele><time>2026-05-02T16:15:18.998Z</time></trkpt><trkpt lat="42.15234743144523" lon="13.284996878778722"><ele>726.0</ele><time>2026-05-02T16:15:19.998Z</time></trkpt><trkpt lat="42.1524318372316" lon="13.284912990390012"><ele>726.0</ele><time>2026-05-02T16:15:20.998Z</time></trkpt><trkpt lat="42.15251935571419" lon="13.284827699877866"><ele>726.0</ele><time>2026-05-02T16:15:21.998Z</time></trkpt><trkpt lat="42.152606132849144" lon="13.284741690779155"><ele>725.5</ele><time>2026-05-02T16:15:22.998Z</time></trkpt><trkpt lat="42.152686113245956" lon="13.284649798940647"><ele>725.0</ele><time>2026-05-02T16:15:23.998Z</time></trkpt><trkpt lat="42.15277573218774" lon="13.28455021011858"><ele>724.5</ele><time>2026-05-02T16:15:24.998Z</time></trkpt><trkpt lat="42.152863920330375" lon="13.284443354730984"><ele>724.0</ele><time>2026-05-02T16:15:25.998Z</time></trkpt><trkpt lat="42.15294055843285" lon="13.284333612968016"><ele>724.0</ele><time>2026-05-02T16:15:26.998Z</time></trkpt><trkpt lat="42.153016205001265" lon="13.284215129073386"><ele>724.0</ele><time>2026-05-02T16:15:27.998Z</time></trkpt><trkpt lat="42.153100762293924" lon="13.284093528682167"><ele>724.0</ele><time>2026-05-02T16:15:29Z</time></trkpt><trkpt lat="42.153186869790076" lon="13.283961345619181"><ele>724.0</ele><time>2026-05-02T16:15:30Z</time></trkpt><trkpt lat="42.153265339680765" lon="13.283834871163718"><ele>724.75</ele><time>2026-05-02T16:15:31Z</time></trkpt><trkpt lat="42.153346199535584" lon="13.283711504066616"><ele>725.5</ele><time>2026-05-02T16:15:32Z</time></trkpt><trkpt lat="42.15342581053549" lon="13.283574819799787"><ele>726.25</ele><time>2026-05-02T16:15:33Z</time></trkpt><trkpt lat="42.15350405395321" lon="13.283429352208657"><ele>727.0</ele><time>2026-05-02T16:15:34Z</time></trkpt><trkpt lat="42.153586729151854" lon="13.283282403167794"><ele>727.0</ele><time>2026-05-02T16:15:35Z</time></trkpt><trkpt lat="42.15367303922155" lon="13.283134627639264"><ele>727.0</ele><time>2026-05-02T16:15:36Z</time></trkpt><trkpt lat="42.15375854947212" lon="13.282958249775039"><ele>727.0</ele><time>2026-05-02T16:15:37Z</time></trkpt><trkpt lat="42.15387714410137" lon="13.282862359122898"><ele>727.0</ele><time>2026-05-02T16:15:38Z</time></trkpt><trkpt lat="42.153993464278386" lon="13.282768190150382"><ele>727.25</ele><time>2026-05-02T16:15:39Z</time></trkpt><trkpt lat="42.15408130992074" lon="13.282585874845328"><ele>727.5</ele><time>2026-05-02T16:15:40Z</time></trkpt><trkpt lat="42.154181021616516" lon="13.282461025277021"><ele>727.75</ele><time>2026-05-02T16:15:41Z</time></trkpt><trkpt lat="42.154276552137105" lon="13.282332743834477"><ele>728.0</ele><time>2026-05-02T16:15:42Z</time></trkpt><trkpt lat="42.15437326272519" lon="13.28220375013356"><ele>728.25</ele><time>2026-05-02T16:15:43Z</time></trkpt><trkpt lat="42.154467901455504" lon="13.282089527863294"><ele>728.5</ele><time>2026-05-02T16:15:44Z</time></trkpt><trkpt lat="42.154563417395195" lon="13.281992723550234"><ele>728.75</ele><time>2026-05-02T16:15:45Z</time></trkpt><trkpt lat="42.15467268949297" lon="13.28190459361376"><ele>729.0</ele><time>2026-05-02T16:15:45.999Z</time></trkpt><trkpt lat="42.15478343152029" lon="13.281826026630322"><ele>729.75</ele><time>2026-05-02T16:15:46.999Z</time></trkpt><trkpt lat="42.15489853595231" lon="13.28176136517551"><ele>730.5</ele><time>2026-05-02T16:15:47.999Z</time></trkpt><trkpt lat="42.15501261798655" lon="13.2817007853453"><ele>731.25</ele><time>2026-05-02T16:15:48.999Z</time></trkpt><trkpt lat="42.15512936508601" lon="13.281625862800096"><ele>732.0</ele><time>2026-05-02T16:15:49.999Z</time></trkpt><trkpt lat="42.155235031819124" lon="13.281546729162036"><ele>732.0</ele><time>2026-05-02T16:15:50.999Z</time></trkpt><trkpt lat="42.15534117986477" lon="13.281449174249136"><ele>732.0</ele><time>2026-05-02T16:15:51.999Z</time></trkpt><trkpt lat="42.155448317101474" lon="13.281348106321355"><ele>732.0</ele><time>2026-05-02T16:15:52.999Z</time></trkpt><trkpt lat="42.15555482399543" lon="13.281238473238767"><ele>732.0</ele><time>2026-05-02T16:15:53.999Z</time></trkpt><trkpt lat="42.15566152380177" lon="13.281128482608352"><ele>732.5</ele><time>2026-05-02T16:15:54.999Z</time></trkpt><trkpt lat="42.15577655461231" lon="13.281027590025198"><ele>733.0</ele><time>2026-05-02T16:15:55.999Z</time></trkpt><trkpt lat="42.1558957141017" lon="13.280931880546683"><ele>733.5</ele><time>2026-05-02T16:15:56.999Z</time></trkpt><trkpt lat="42.15601977453652" lon="13.28083629964096"><ele>734.0</ele><time>2026-05-02T16:15:57.999Z</time></trkpt><trkpt lat="42.1561396811637" lon="13.280745035322301"><ele>734.0</ele><time>2026-05-02T16:15:58.999Z</time></trkpt><trkpt lat="42.15625700056188" lon="13.280654228981748"><ele>734.0</ele><time>2026-05-02T16:15:59.999Z</time></trkpt><trkpt lat="42.156374131912315" lon="13.28054713523742"><ele>734.0</ele><time>2026-05-02T16:16:00.999Z</time></trkpt><trkpt lat="42.156493610703585" lon="13.280442309935975"><ele>734.0</ele><time>2026-05-02T16:16:01.999Z</time></trkpt><trkpt lat="42.1566038143927" lon="13.280337709926464"><ele>735.0</ele><time>2026-05-02T16:16:02.999Z</time></trkpt><trkpt lat="42.1567087459837" lon="13.280236157681099"><ele>736.0</ele><time>2026-05-02T16:16:03.999Z</time></trkpt><trkpt lat="42.15681530737825" lon="13.280148363201379"><ele>737.0</ele><time>2026-05-02T16:16:04.999Z</time></trkpt><trkpt lat="42.15692781056084" lon="13.280061012362369"><ele>738.0</ele><time>2026-05-02T16:16:05.999Z</time></trkpt><trkpt lat="42.15704785213372" lon="13.279981222120709"><ele>738.0</ele><time>2026-05-02T16:16:06.999Z</time></trkpt><trkpt lat="42.15717388487223" lon="13.279907532219001"><ele>738.0</ele><time>2026-05-02T16:16:07.999Z</time></trkpt><trkpt lat="42.15730994702762" lon="13.279839349974136"><ele>738.0</ele><time>2026-05-02T16:16:08.999Z</time></trkpt><trkpt lat="42.15745178280276" lon="13.279782154993118"><ele>738.0</ele><time>2026-05-02T16:16:09.999Z</time></trkpt><trkpt lat="42.15759087278772" lon="13.279725391405373"><ele>738.25</ele><time>2026-05-02T16:16:10.999Z</time></trkpt><trkpt lat="42.15772717187043" lon="13.279675550908484"><ele>738.5</ele><time>2026-05-02T16:16:11.999Z</time></trkpt><trkpt lat="42.157864864242995" lon="13.279627879596179"><ele>738.75</ele><time>2026-05-02T16:16:12.999Z</time></trkpt><trkpt lat="42.157998961079436" lon="13.279589715644025"><ele>739.0</ele><time>2026-05-02T16:16:13.999Z</time></trkpt><trkpt lat="42.1581321687297" lon="13.279556313268072"><ele>740.0</ele><time>2026-05-02T16:16:14.999Z</time></trkpt><trkpt lat="42.15826064412205" lon="13.27952747802404"><ele>741.0</ele><time>2026-05-02T16:16:15.999Z</time></trkpt><trkpt lat="42.158393578467376" lon="13.279511630242862"><ele>742.0</ele><time>2026-05-02T16:16:16.999Z</time></trkpt><trkpt lat="42.158526123580835" lon="13.279498395908938"><ele>743.0</ele><time>2026-05-02T16:16:17.999Z</time></trkpt><trkpt lat="42.15865639464299" lon="13.27947959106736"><ele>743.0</ele><time>2026-05-02T16:16:18.999Z</time></trkpt><trkpt lat="42.15878237164091" lon="13.279457239370444"><ele>743.0</ele><time>2026-05-02T16:16:19.999Z</time></trkpt><trkpt lat="42.158911277479255" lon="13.27944004179517"><ele>743.0</ele><time>2026-05-02T16:16:20.999Z</time></trkpt><trkpt lat="42.15903713483008" lon="13.279418081258966"><ele>743.0</ele><time>2026-05-02T16:16:21.999Z</time></trkpt><trkpt lat="42.15916311414956" lon="13.279385792684238"><ele>744.25</ele><time>2026-05-02T16:16:22.999Z</time></trkpt><trkpt lat="42.15929080270953" lon="13.27934788022327"><ele>745.5</ele><time>2026-05-02T16:16:23.999Z</time></trkpt><trkpt lat="42.1594255521002" lon="13.27930410426135"><ele>746.75</ele><time>2026-05-02T16:16:24.999Z</time></trkpt><trkpt lat="42.159558217558704" lon="13.27926129797781"><ele>748.0</ele><time>2026-05-02T16:16:25.999Z</time></trkpt><trkpt lat="42.15969146030291" lon="13.279229523499561"><ele>748.0</ele><time>2026-05-02T16:16:26.999Z</time></trkpt><trkpt lat="42.15981912458841" lon="13.279196783724363"><ele>748.0</ele><time>2026-05-02T16:16:27.999Z</time></trkpt><trkpt lat="42.15995629612345" lon="13.279167901018905"><ele>748.0</ele><time>2026-05-02T16:16:28.999Z</time></trkpt><trkpt lat="42.16009555419297" lon="13.27913869917356"><ele>748.0</ele><time>2026-05-02T16:16:29.999Z</time></trkpt><trkpt lat="42.16023369350391" lon="13.27910056330239"><ele>748.75</ele><time>2026-05-02T16:16:30.999Z</time></trkpt><trkpt lat="42.16037476460755" lon="13.279058378846807"><ele>749.5</ele><time>2026-05-02T16:16:31.999Z</time></trkpt><trkpt lat="42.160512845335234" lon="13.279017413334294"><ele>750.25</ele><time>2026-05-02T16:16:32.999Z</time></trkpt><trkpt lat="42.16064644607028" lon="13.278976043197485"><ele>751.0</ele><time>2026-05-02T16:16:33.999Z</time></trkpt><trkpt lat="42.16077715507482" lon="13.278930532414055"><ele>751.75</ele><time>2026-05-02T16:16:34.999Z</time></trkpt><trkpt lat="42.16090416556028" lon="13.27888160005372"><ele>752.5</ele><time>2026-05-02T16:16:35.999Z</time></trkpt><trkpt lat="42.16103186678151" lon="13.278833727030953"><ele>753.25</ele><time>2026-05-02T16:16:36.999Z</time></trkpt><trkpt lat="42.161164715639636" lon="13.278793728993689"><ele>754.0</ele><time>2026-05-02T16:16:37.999Z</time></trkpt><trkpt lat="42.161297597778855" lon="13.278756204742574"><ele>754.0</ele><time>2026-05-02T16:16:38.999Z</time></trkpt><trkpt lat="42.16142855160681" lon="13.278723724380427"><ele>754.0</ele><time>2026-05-02T16:16:39.999Z</time></trkpt><trkpt lat="42.161564556070495" lon="13.278688326299857"><ele>754.0</ele><time>2026-05-02T16:16:40.999Z</time></trkpt><trkpt lat="42.16170225023377" lon="13.278646325918675"><ele>754.0</ele><time>2026-05-02T16:16:41.999Z</time></trkpt><trkpt lat="42.1618390189737" lon="13.278600203409244"><ele>754.75</ele><time>2026-05-02T16:16:42.999Z</time></trkpt><trkpt lat="42.16197366085975" lon="13.278563184296159"><ele>755.5</ele><time>2026-05-02T16:16:43.999Z</time></trkpt><trkpt lat="42.16210698377919" lon="13.278514121378173"><ele>756.25</ele><time>2026-05-02T16:16:44.999Z</time></trkpt><trkpt lat="42.162238864870055" lon="13.27846455189437"><ele>757.0</ele><time>2026-05-02T16:16:45.999Z</time></trkpt><trkpt lat="42.162370299610316" lon="13.278414784399606"><ele>758.0</ele><time>2026-05-02T16:16:46.999Z</time></trkpt><trkpt lat="42.16250219559558" lon="13.278363084727005"><ele>759.0</ele><time>2026-05-02T16:16:47.999Z</time></trkpt><trkpt lat="42.16263632195581" lon="13.27831644117655"><ele>760.0</ele><time>2026-05-02T16:16:48.999Z</time></trkpt><trkpt lat="42.162768911832444" lon="13.278271782038434"><ele>761.0</ele><time>2026-05-02T16:16:49.999Z</time></trkpt><trkpt lat="42.16289665422836" lon="13.278227582298339"><ele>761.0</ele><time>2026-05-02T16:16:50.999Z</time></trkpt><trkpt lat="42.16302247346368" lon="13.278192943160688"><ele>761.0</ele><time>2026-05-02T16:16:51.999Z</time></trkpt><trkpt lat="42.16314178230977" lon="13.278158956310095"><ele>761.0</ele><time>2026-05-02T16:16:52.999Z</time></trkpt><trkpt lat="42.16325220602152" lon="13.278130641973585"><ele>761.0</ele><time>2026-05-02T16:16:53.999Z</time></trkpt><trkpt lat="42.16336240302956" lon="13.27809581890035"><ele>761.8</ele><time>2026-05-02T16:16:54.999Z</time></trkpt><trkpt lat="42.16346893615979" lon="13.278047071207295"><ele>762.5999999999999</ele><time>2026-05-02T16:16:55.999Z</time></trkpt><trkpt lat="42.16357398133087" lon="13.277994304429788"><ele>763.4</ele><time>2026-05-02T16:16:56.999Z</time></trkpt><trkpt lat="42.16367634307014" lon="13.277935722212783"><ele>764.2</ele><time>2026-05-02T16:16:57.999Z</time></trkpt><trkpt lat="42.16376638282746" lon="13.277869082948333"><ele>765.0</ele><time>2026-05-02T16:16:58.998Z</time></trkpt><trkpt lat="42.16385443191848" lon="13.277787898952665"><ele>765.0</ele><time>2026-05-02T16:16:59.998Z</time></trkpt><trkpt lat="42.16393106678833" lon="13.277705414522945"><ele>765.0</ele><time>2026-05-02T16:17:00.998Z</time></trkpt><trkpt lat="42.1640031582429" lon="13.277637446445535"><ele>765.0</ele><time>2026-05-02T16:17:01.998Z</time></trkpt><trkpt lat="42.16407778429516" lon="13.277578966267685"><ele>765.0</ele><time>2026-05-02T16:17:02.998Z</time></trkpt><trkpt lat="42.164158012445824" lon="13.277534134023274"><ele>765.0</ele><time>2026-05-02T16:17:03.998Z</time></trkpt><trkpt lat="42.16424266047669" lon="13.277496213372904"><ele>765.0</ele><time>2026-05-02T16:17:04.998Z</time></trkpt><trkpt lat="42.16431905753299" lon="13.277474143897436"><ele>765.0</ele><time>2026-05-02T16:17:05.998Z</time></trkpt><trkpt lat="42.16439183063879" lon="13.277466527188434"><ele>765.0</ele><time>2026-05-02T16:17:06.998Z</time></trkpt><trkpt lat="42.16446301981352" lon="13.277466616769198"><ele>765.0</ele><time>2026-05-02T16:17:07.998Z</time></trkpt><trkpt lat="42.164535256761454" lon="13.277468814565065"><ele>765.0</ele><time>2026-05-02T16:17:08.998Z</time></trkpt><trkpt lat="42.164608497099024" lon="13.277468070753523"><ele>765.0</ele><time>2026-05-02T16:17:09.998Z</time></trkpt><trkpt lat="42.1646891290961" lon="13.277472221541121"><ele>765.0</ele><time>2026-05-02T16:17:10.998Z</time></trkpt><trkpt lat="42.16477020077171" lon="13.277471404809644"><ele>765.0000000000001</ele><time>2026-05-02T16:17:11.998Z</time></trkpt><trkpt lat="42.16484350791574" lon="13.277482261765718"><ele>765.0</ele><time>2026-05-02T16:17:12.998Z</time></trkpt><trkpt lat="42.16492139492621" lon="13.277485979276126"><ele>765.0</ele><time>2026-05-02T16:17:13.998Z</time></trkpt><trkpt lat="42.16499665777254" lon="13.27748669751866"><ele>765.0</ele><time>2026-05-02T16:17:14.998Z</time></trkpt><trkpt lat="42.16506918890487" lon="13.277482454694754"><ele>765.0</ele><time>2026-05-02T16:17:15.998Z</time></trkpt><trkpt lat="42.165139628829245" lon="13.27747818284627"><ele>765.0000000000001</ele><time>2026-05-02T16:17:16.998Z</time></trkpt><trkpt lat="42.16521303633882" lon="13.277472357643099"><ele>765.0</ele><time>2026-05-02T16:17:17.998Z</time></trkpt><trkpt lat="42.165282934736055" lon="13.277462009661157"><ele>764.7142857142858</ele><time>2026-05-02T16:17:18.998Z</time></trkpt><trkpt lat="42.165354254686136" lon="13.27746101596118"><ele>764.4285714285714</ele><time>2026-05-02T16:17:19.998Z</time></trkpt><trkpt lat="42.16542307825472" lon="13.27745847419676"><ele>764.1428571428571</ele><time>2026-05-02T16:17:20.998Z</time></trkpt><trkpt lat="42.16549499620222" lon="13.277462793665661"><ele>763.8571428571429</ele><time>2026-05-02T16:17:21.998Z</time></trkpt><trkpt lat="42.16557003381955" lon="13.277466233841073"><ele>763.5714285714286</ele><time>2026-05-02T16:17:22.998Z</time></trkpt><trkpt lat="42.16564503141175" lon="13.277466137261236"><ele>763.2857142857143</ele><time>2026-05-02T16:17:23.998Z</time></trkpt><trkpt lat="42.165711554430096" lon="13.27745916244361"><ele>763.0</ele><time>2026-05-02T16:17:24.998Z</time></trkpt><trkpt lat="42.16583262116125" lon="13.277455429652752"><ele>762.6666666666667</ele><time>2026-05-02T16:17:26.998Z</time></trkpt><trkpt lat="42.165905829722526" lon="13.27743323571049"><ele>762.3333333333334</ele><time>2026-05-02T16:17:27.998Z</time></trkpt><trkpt lat="42.165988599781514" lon="13.277403063672743"><ele>762.0</ele><time>2026-05-02T16:17:28.998Z</time></trkpt><trkpt lat="42.16607385474503" lon="13.277368116238481"><ele>761.6666666666666</ele><time>2026-05-02T16:17:29.998Z</time></trkpt><trkpt lat="42.16615412967939" lon="13.27733437343323"><ele>761.3333333333333</ele><time>2026-05-02T16:17:30.998Z</time></trkpt><trkpt lat="42.166238190921035" lon="13.277299268036307"><ele>761.0</ele><time>2026-05-02T16:17:31.998Z</time></trkpt><trkpt lat="42.16632557592252" lon="13.27726748986362"><ele>760.8</ele><time>2026-05-02T16:17:32.998Z</time></trkpt><trkpt lat="42.16641488483262" lon="13.277227365325205"><ele>760.5999999999999</ele><time>2026-05-02T16:17:33.998Z</time></trkpt><trkpt lat="42.16650547739985" lon="13.27718575879749"><ele>760.4</ele><time>2026-05-02T16:17:35Z</time></trkpt><trkpt lat="42.16659192045104" lon="13.277139287747193"><ele>760.2</ele><time>2026-05-02T16:17:36Z</time></trkpt><trkpt lat="42.166675618189636" lon="13.277082555172212"><ele>760.0</ele><time>2026-05-02T16:17:37Z</time></trkpt><trkpt lat="42.166753717282404" lon="13.27701941250321"><ele>761.0</ele><time>2026-05-02T16:17:38Z</time></trkpt><trkpt lat="42.16683564589636" lon="13.276982482717024"><ele>762.0</ele><time>2026-05-02T16:17:39Z</time></trkpt><trkpt lat="42.16691461969454" lon="13.27695527951624"><ele>763.0</ele><time>2026-05-02T16:17:40Z</time></trkpt><trkpt lat="42.16699170841806" lon="13.276932881842296"><ele>764.0</ele><time>2026-05-02T16:17:41Z</time></trkpt><trkpt lat="42.1670682707615" lon="13.27691615482972"><ele>765.0</ele><time>2026-05-02T16:17:42Z</time></trkpt><trkpt lat="42.16713687731125" lon="13.276916640631534"><ele>766.0</ele><time>2026-05-02T16:17:43Z</time></trkpt><trkpt lat="42.167272915105656" lon="13.276930888995418"><ele>766.0</ele><time>2026-05-02T16:17:45Z</time></trkpt><trkpt lat="42.16735134038382" lon="13.276927323681676"><ele>766.0</ele><time>2026-05-02T16:17:46Z</time></trkpt><trkpt lat="42.1674471142692" lon="13.27689187891443"><ele>766.0</ele><time>2026-05-02T16:17:48Z</time></trkpt><trkpt lat="42.16749651118401" lon="13.276800756452658"><ele>766.0</ele><time>2026-05-02T16:17:50Z</time></trkpt><trkpt lat="42.167530369444904" lon="13.276667182899414"><ele>766.0</ele><time>2026-05-02T16:17:51.999Z</time></trkpt><trkpt lat="42.1675887992603" lon="13.276517146590475"><ele>768.2857142857142</ele><time>2026-05-02T16:17:53.999Z</time></trkpt><trkpt lat="42.16762508697496" lon="13.276429118709467"><ele>770.5714285714286</ele><time>2026-05-02T16:17:54.999Z</time></trkpt><trkpt lat="42.16765204100194" lon="13.27633023549783"><ele>772.8571428571429</ele><time>2026-05-02T16:17:55.999Z</time></trkpt><trkpt lat="42.16769485848203" lon="13.276233928521714"><ele>775.1428571428571</ele><time>2026-05-02T16:17:56.999Z</time></trkpt><trkpt lat="42.167750876825764" lon="13.276189364650191"><ele>777.4285714285714</ele><time>2026-05-02T16:17:57.999Z</time></trkpt><trkpt lat="42.16782088516678" lon="13.276178507071823"><ele>779.7142857142857</ele><time>2026-05-02T16:17:58.999Z</time></trkpt><trkpt lat="42.16788722582371" lon="13.276197072684063"><ele>782.0</ele><time>2026-05-02T16:17:59.999Z</time></trkpt><trkpt lat="42.16795560868161" lon="13.276227012207865"><ele>782.0000000000001</ele><time>2026-05-02T16:18:00.999Z</time></trkpt><trkpt lat="42.168023395923164" lon="13.276261855231875"><ele>782.0</ele><time>2026-05-02T16:18:01.999Z</time></trkpt><trkpt lat="42.168094965551504" lon="13.276287277774804"><ele>782.0</ele><time>2026-05-02T16:18:02.999Z</time></trkpt><trkpt lat="42.16817431195678" lon="13.276305191300395"><ele>782.0</ele><time>2026-05-02T16:18:03.999Z</time></trkpt><trkpt lat="42.168262399567034" lon="13.276301459440985"><ele>782.0000000000001</ele><time>2026-05-02T16:18:04.999Z</time></trkpt><trkpt lat="42.16835134999354" lon="13.276287377381879"><ele>782.0</ele><time>2026-05-02T16:18:05.999Z</time></trkpt><trkpt lat="42.16844226258494" lon="13.276266006277494"><ele>782.0</ele><time>2026-05-02T16:18:06.999Z</time></trkpt><trkpt lat="42.16853057845717" lon="13.276245312628362"><ele>782.0</ele><time>2026-05-02T16:18:07.999Z</time></trkpt><trkpt lat="42.16861415372174" lon="13.276223700358786"><ele>782.0</ele><time>2026-05-02T16:18:08.999Z</time></trkpt><trkpt lat="42.16871057948391" lon="13.276194461024444"><ele>782.0</ele><time>2026-05-02T16:18:09.999Z</time></trkpt><trkpt lat="42.16880836260851" lon="13.2761634735322"><ele>782.0</ele><time>2026-05-02T16:18:10.999Z</time></trkpt><trkpt lat="42.16890480264016" lon="13.27613807234686"><ele>782.0</ele><time>2026-05-02T16:18:11.999Z</time></trkpt><trkpt lat="42.168999602726714" lon="13.276103761467636"><ele>782.0</ele><time>2026-05-02T16:18:12.999Z</time></trkpt><trkpt lat="42.16909896334518" lon="13.276064822956702"><ele>782.0</ele><time>2026-05-02T16:18:13.999Z</time></trkpt><trkpt lat="42.16920497241635" lon="13.276037996738998"><ele>782.0</ele><time>2026-05-02T16:18:14.999Z</time></trkpt><trkpt lat="42.16931908070258" lon="13.276001103236489"><ele>782.0</ele><time>2026-05-02T16:18:15.999Z</time></trkpt><trkpt lat="42.16943522385529" lon="13.275969623625299"><ele>783.75</ele><time>2026-05-02T16:18:16.999Z</time></trkpt><trkpt lat="42.16955209812448" lon="13.275937836443486"><ele>785.5</ele><time>2026-05-02T16:18:17.999Z</time></trkpt><trkpt lat="42.16966288755717" lon="13.275899063322955"><ele>787.25</ele><time>2026-05-02T16:18:18.999Z</time></trkpt><trkpt lat="42.16977768340151" lon="13.275862162580783"><ele>789.0</ele><time>2026-05-02T16:18:19.999Z</time></trkpt><trkpt lat="42.169890002104424" lon="13.275828595946544"><ele>790.0</ele><time>2026-05-02T16:18:20.999Z</time></trkpt><trkpt lat="42.169998924365" lon="13.275796112905685"><ele>791.0</ele><time>2026-05-02T16:18:21.999Z</time></trkpt><trkpt lat="42.17010876259318" lon="13.275766434257687"><ele>792.0</ele><time>2026-05-02T16:18:22.999Z</time></trkpt><trkpt lat="42.170208444172346" lon="13.275741038815383"><ele>793.0</ele><time>2026-05-02T16:18:23.999Z</time></trkpt><trkpt lat="42.17029936349639" lon="13.275719880844722"><ele>794.0</ele><time>2026-05-02T16:18:24.999Z</time></trkpt><trkpt lat="42.17038800609066" lon="13.275705546341053"><ele>794.0000000000001</ele><time>2026-05-02T16:18:25.999Z</time></trkpt><trkpt lat="42.17047434400835" lon="13.27569848231689"><ele>794.0</ele><time>2026-05-02T16:18:26.999Z</time></trkpt><trkpt lat="42.170557652722465" lon="13.275691025247777"><ele>794.0</ele><time>2026-05-02T16:18:27.999Z</time></trkpt><trkpt lat="42.170624700468544" lon="13.275679442786988"><ele>794.0</ele><time>2026-05-02T16:18:28.999Z</time></trkpt><trkpt lat="42.17072187415455" lon="13.275646699870629"><ele>794.0000000000001</ele><time>2026-05-02T16:18:30.999Z</time></trkpt><trkpt lat="42.170790873581986" lon="13.275613576198232"><ele>794.0</ele><time>2026-05-02T16:18:33.999Z</time></trkpt><trkpt lat="42.17091550713168" lon="13.275600151291645"><ele>795.2</ele><time>2026-05-02T16:18:37.999Z</time></trkpt><trkpt lat="42.17099818805052" lon="13.27561932003632"><ele>796.4000000000001</ele><time>2026-05-02T16:18:38.999Z</time></trkpt><trkpt lat="42.171099196776424" lon="13.275636558452065"><ele>797.6</ele><time>2026-05-02T16:18:39.999Z</time></trkpt><trkpt lat="42.1712100387295" lon="13.275653566641285"><ele>798.8</ele><time>2026-05-02T16:18:40.999Z</time></trkpt><trkpt lat="42.171322692028134" lon="13.275667375394894"><ele>800.0</ele><time>2026-05-02T16:18:41.999Z</time></trkpt><trkpt lat="42.17143269446052" lon="13.275692571850826"><ele>800.2</ele><time>2026-05-02T16:18:42.999Z</time></trkpt><trkpt lat="42.171538955820495" lon="13.275726205595655"><ele>800.4</ele><time>2026-05-02T16:18:43.999Z</time></trkpt><trkpt lat="42.171642717213885" lon="13.275777216335483"><ele>800.5999999999999</ele><time>2026-05-02T16:18:44.999Z</time></trkpt><trkpt lat="42.17173757408222" lon="13.275846702456878"><ele>800.8</ele><time>2026-05-02T16:18:45.999Z</time></trkpt><trkpt lat="42.17183645013717" lon="13.275913130873125"><ele>801.0</ele><time>2026-05-02T16:18:46.999Z</time></trkpt><trkpt lat="42.17193008590981" lon="13.275962494748994"><ele>801.0</ele><time>2026-05-02T16:18:47.999Z</time></trkpt><trkpt lat="42.17203408613168" lon="13.276004125001288"><ele>801.0</ele><time>2026-05-02T16:18:48.999Z</time></trkpt><trkpt lat="42.1721364922353" lon="13.276046920640889"><ele>801.0</ele><time>2026-05-02T16:18:49.999Z</time></trkpt><trkpt lat="42.17223393029251" lon="13.276082653666961"><ele>801.0</ele><time>2026-05-02T16:18:50.999Z</time></trkpt><trkpt lat="42.172328207824435" lon="13.276118787006345"><ele>801.0</ele><time>2026-05-02T16:18:51.999Z</time></trkpt><trkpt lat="42.172423860133364" lon="13.276158229823379"><ele>801.1999999999999</ele><time>2026-05-02T16:18:52.999Z</time></trkpt><trkpt lat="42.17251280767207" lon="13.276192319778994"><ele>801.4</ele><time>2026-05-02T16:18:53.999Z</time></trkpt><trkpt lat="42.172602264327445" lon="13.276228115676195"><ele>801.6</ele><time>2026-05-02T16:18:54.999Z</time></trkpt><trkpt lat="42.172687035286444" lon="13.276262242934475"><ele>801.8</ele><time>2026-05-02T16:18:55.999Z</time></trkpt><trkpt lat="42.17277599685029" lon="13.276298481780293"><ele>802.0</ele><time>2026-05-02T16:18:56.999Z</time></trkpt><trkpt lat="42.172863916294396" lon="13.276333484150063"><ele>801.9999999999999</ele><time>2026-05-02T16:18:57.999Z</time></trkpt><trkpt lat="42.172941903691736" lon="13.276349089312445"><ele>802.0</ele><time>2026-05-02T16:18:58.999Z</time></trkpt><trkpt lat="42.173032993871395" lon="13.276366892434293"><ele>802.0</ele><time>2026-05-02T16:18:59.999Z</time></trkpt><trkpt lat="42.173114945432765" lon="13.276379656882778"><ele>802.0</ele><time>2026-05-02T16:19:00.999Z</time></trkpt><trkpt lat="42.17319483281096" lon="13.276378374625951"><ele>801.9999999999999</ele><time>2026-05-02T16:19:01.999Z</time></trkpt><trkpt lat="42.17326510825568" lon="13.276345138206295"><ele>802.0</ele><time>2026-05-02T16:19:02.999Z</time></trkpt><trkpt lat="42.173334834031344" lon="13.276296233431653"><ele>803.6666666666666</ele><time>2026-05-02T16:19:03.999Z</time></trkpt><trkpt lat="42.17340590629476" lon="13.276254174558181"><ele>805.3333333333333</ele><time>2026-05-02T16:19:04.998Z</time></trkpt><trkpt lat="42.17347493195969" lon="13.276223092882244"><ele>807.0</ele><time>2026-05-02T16:19:05.998Z</time></trkpt><trkpt lat="42.17355625514947" lon="13.276205868659488"><ele>808.6666666666667</ele><time>2026-05-02T16:19:06.998Z</time></trkpt><trkpt lat="42.173646657616494" lon="13.27619428520696"><ele>810.3333333333334</ele><time>2026-05-02T16:19:07.998Z</time></trkpt><trkpt lat="42.173737196346785" lon="13.276168622986118"><ele>812.0</ele><time>2026-05-02T16:19:08.998Z</time></trkpt><trkpt lat="42.173837042854814" lon="13.276136256206383"><ele>812.0000000000001</ele><time>2026-05-02T16:19:09.998Z</time></trkpt><trkpt lat="42.17391352369214" lon="13.276107928637407"><ele>812.0</ele><time>2026-05-02T16:19:10.998Z</time></trkpt><trkpt lat="42.17397814671279" lon="13.27608924016845"><ele>812.0</ele><time>2026-05-02T16:19:11.998Z</time></trkpt><trkpt lat="42.174080831113514" lon="13.276099387864974"><ele>812.0</ele><time>2026-05-02T16:19:13.998Z</time></trkpt><trkpt lat="42.17414705613479" lon="13.276149793045166"><ele>812.0000000000001</ele><time>2026-05-02T16:19:15.998Z</time></trkpt><trkpt lat="42.17424486109458" lon="13.276251838261295"><ele>812.0</ele><time>2026-05-02T16:19:17.998Z</time></trkpt><trkpt lat="42.17430954335528" lon="13.276305405441319"><ele>813.8333333333334</ele><time>2026-05-02T16:19:18.998Z</time></trkpt><trkpt lat="42.174379857592704" lon="13.276360707877455"><ele>815.6666666666667</ele><time>2026-05-02T16:19:19.998Z</time></trkpt><trkpt lat="42.174450145073564" lon="13.276424235324296"><ele>817.5</ele><time>2026-05-02T16:19:20.998Z</time></trkpt><trkpt lat="42.17452671345955" lon="13.27648947229597"><ele>819.3333333333333</ele><time>2026-05-02T16:19:21.998Z</time></trkpt><trkpt lat="42.17460808773762" lon="13.276547006014573"><ele>821.1666666666666</ele><time>2026-05-02T16:19:22.998Z</time></trkpt><trkpt lat="42.17469346226524" lon="13.276593281720762"><ele>823.0</ele><time>2026-05-02T16:19:23.998Z</time></trkpt><trkpt lat="42.17478292799272" lon="13.276624897522836"><ele>824.2</ele><time>2026-05-02T16:19:24.998Z</time></trkpt><trkpt lat="42.17488546590264" lon="13.276616466140274"><ele>825.4</ele><time>2026-05-02T16:19:25.998Z</time></trkpt><trkpt lat="42.174987330246196" lon="13.276583223280827"><ele>826.6</ele><time>2026-05-02T16:19:26.998Z</time></trkpt><trkpt lat="42.175082930479746" lon="13.276519398601296"><ele>827.8000000000001</ele><time>2026-05-02T16:19:27.998Z</time></trkpt><trkpt lat="42.17516803551118" lon="13.276418933470708"><ele>829.0</ele><time>2026-05-02T16:19:28.998Z</time></trkpt><trkpt lat="42.17524185914094" lon="13.276301595476816"><ele>829.25</ele><time>2026-05-02T16:19:29.998Z</time></trkpt><trkpt lat="42.175304507948404" lon="13.276171141587598"><ele>829.5</ele><time>2026-05-02T16:19:30.998Z</time></trkpt><trkpt lat="42.175365141260755" lon="13.276034704749824"><ele>829.75</ele><time>2026-05-02T16:19:31.998Z</time></trkpt><trkpt lat="42.17542614419002" lon="13.275903549239194"><ele>830.0</ele><time>2026-05-02T16:19:32.998Z</time></trkpt><trkpt lat="42.175480414570956" lon="13.275785201343457"><ele>830.0</ele><time>2026-05-02T16:19:33.998Z</time></trkpt><trkpt lat="42.17552979939386" lon="13.275674422600392"><ele>830.0</ele><time>2026-05-02T16:19:34.998Z</time></trkpt><trkpt lat="42.175583069558286" lon="13.27557207949914"><ele>830.0</ele><time>2026-05-02T16:19:35.998Z</time></trkpt><trkpt lat="42.17564747222678" lon="13.275483411944215"><ele>830.0</ele><time>2026-05-02T16:19:36.998Z</time></trkpt><trkpt lat="42.175726050030754" lon="13.275423689910363"><ele>830.0</ele><time>2026-05-02T16:19:37.998Z</time></trkpt><trkpt lat="42.17582034182829" lon="13.275382038529"><ele>830.0</ele><time>2026-05-02T16:19:38.998Z</time></trkpt><trkpt lat="42.17592745767356" lon="13.275360668292919"><ele>830.0</ele><time>2026-05-02T16:19:39.998Z</time></trkpt><trkpt lat="42.17604114023081" lon="13.275327787093213"><ele>830.0</ele><time>2026-05-02T16:19:41Z</time></trkpt><trkpt lat="42.17615583147371" lon="13.275287594510393"><ele>830.0</ele><time>2026-05-02T16:19:42Z</time></trkpt><trkpt lat="42.176272115476124" lon="13.275250568485653"><ele>830.0</ele><time>2026-05-02T16:19:43Z</time></trkpt><trkpt lat="42.17639064923725" lon="13.275212496985064"><ele>830.0</ele><time>2026-05-02T16:19:44Z</time></trkpt><trkpt lat="42.176506487311" lon="13.27517524744829"><ele>830.0</ele><time>2026-05-02T16:19:45Z</time></trkpt><trkpt lat="42.17661931591006" lon="13.275141302728061"><ele>830.0</ele><time>2026-05-02T16:19:46Z</time></trkpt><trkpt lat="42.1767298759602" lon="13.27511159849455"><ele>828.4</ele><time>2026-05-02T16:19:47Z</time></trkpt><trkpt lat="42.17683449196499" lon="13.27508245557561"><ele>826.8</ele><time>2026-05-02T16:19:48Z</time></trkpt><trkpt lat="42.176930028897786" lon="13.2750533543851"><ele>825.2</ele><time>2026-05-02T16:19:49Z</time></trkpt><trkpt lat="42.177021378883005" lon="13.275023866365503"><ele>823.6</ele><time>2026-05-02T16:19:50Z</time></trkpt><trkpt lat="42.17711098027464" lon="13.27500270356675"><ele>822.0</ele><time>2026-05-02T16:19:51Z</time></trkpt><trkpt lat="42.177202487339684" lon="13.275003697789115"><ele>822.0</ele><time>2026-05-02T16:19:51.999Z</time></trkpt><trkpt lat="42.17729207715709" lon="13.275021229108496"><ele>822.0</ele><time>2026-05-02T16:19:53Z</time></trkpt><trkpt lat="42.1773704353707" lon="13.275037786636254"><ele>822.0</ele><time>2026-05-02T16:19:54Z</time></trkpt><trkpt lat="42.17743524733701" lon="13.275051580388041"><ele>822.0</ele><time>2026-05-02T16:19:54.999Z</time></trkpt><trkpt lat="42.177533918235056" lon="13.275134090787937"><ele>822.0</ele><time>2026-05-02T16:19:56.999Z</time></trkpt><trkpt lat="42.17753850412368" lon="13.275314951998887"><ele>821.6</ele><time>2026-05-02T16:19:58.999Z</time></trkpt><trkpt lat="42.177526996453345" lon="13.275435672443276"><ele>821.2</ele><time>2026-05-02T16:19:59.999Z</time></trkpt><trkpt lat="42.1775232500993" lon="13.27556806623909"><ele>820.8</ele><time>2026-05-02T16:20:00.999Z</time></trkpt><trkpt lat="42.177534965220936" lon="13.275706176556131"><ele>820.4</ele><time>2026-05-02T16:20:01.999Z</time></trkpt><trkpt lat="42.177572247530556" lon="13.275833854366269"><ele>820.0</ele><time>2026-05-02T16:20:02.999Z</time></trkpt><trkpt lat="42.17761182753232" lon="13.275940766562506"><ele>819.9999999999999</ele><time>2026-05-02T16:20:03.999Z</time></trkpt><trkpt lat="42.17764037527392" lon="13.276019636671164"><ele>820.0</ele><time>2026-05-02T16:20:04.999Z</time></trkpt><trkpt lat="42.177676807573995" lon="13.276169573915176"><ele>820.0</ele><time>2026-05-02T16:20:06.999Z</time></trkpt><trkpt lat="42.17768086263621" lon="13.276277789357264"><ele>820.0</ele><time>2026-05-02T16:20:07.999Z</time></trkpt><trkpt lat="42.17768026621149" lon="13.276396793135902"><ele>819.9999999999999</ele><time>2026-05-02T16:20:08.999Z</time></trkpt><trkpt lat="42.17766672118675" lon="13.276514811850245"><ele>820.0</ele><time>2026-05-02T16:20:09.999Z</time></trkpt><trkpt lat="42.177648590233616" lon="13.27662792225246"><ele>820.4</ele><time>2026-05-02T16:20:10.999Z</time></trkpt><trkpt lat="42.177621726894664" lon="13.276749047133261"><ele>820.8</ele><time>2026-05-02T16:20:11.999Z</time></trkpt><trkpt lat="42.17759943494238" lon="13.27687383486828"><ele>821.2</ele><time>2026-05-02T16:20:12.999Z</time></trkpt><trkpt lat="42.177586097281754" lon="13.27699916224014"><ele>821.6</ele><time>2026-05-02T16:20:13.999Z</time></trkpt><trkpt lat="42.17756997978138" lon="13.277135986941165"><ele>822.0</ele><time>2026-05-02T16:20:14.999Z</time></trkpt><trkpt lat="42.17756086847641" lon="13.277260752797629"><ele>822.4000000000001</ele><time>2026-05-02T16:20:15.999Z</time></trkpt><trkpt lat="42.177550447429546" lon="13.277390569190452"><ele>822.8000000000001</ele><time>2026-05-02T16:20:16.999Z</time></trkpt><trkpt lat="42.177548606500466" lon="13.277526560269523"><ele>823.2</ele><time>2026-05-02T16:20:17.999Z</time></trkpt><trkpt lat="42.17754653039809" lon="13.277635594294729"><ele>823.6</ele><time>2026-05-02T16:20:18.999Z</time></trkpt><trkpt lat="42.177542394847784" lon="13.2777641444016"><ele>824.0</ele><time>2026-05-02T16:20:19.999Z</time></trkpt><trkpt lat="42.177535071232626" lon="13.277869661946323"><ele>824.0000000000001</ele><time>2026-05-02T16:20:20.999Z</time></trkpt><trkpt lat="42.177508916680104" lon="13.277975720850845"><ele>824.0</ele><time>2026-05-02T16:20:21.999Z</time></trkpt><trkpt lat="42.177485259100024" lon="13.278074217167333"><ele>824.0</ele><time>2026-05-02T16:20:22.999Z</time></trkpt><trkpt lat="42.17745796280738" lon="13.278172693707289"><ele>824.0</ele><time>2026-05-02T16:20:23.999Z</time></trkpt><trkpt lat="42.1774180382769" lon="13.278258207958249"><ele>824.0000000000001</ele><time>2026-05-02T16:20:24.999Z</time></trkpt><trkpt lat="42.1773652343887" lon="13.278330653121973"><ele>824.0</ele><time>2026-05-02T16:20:25.999Z</time></trkpt><trkpt lat="42.17729920626308" lon="13.278404941496614"><ele>825.5000000000001</ele><time>2026-05-02T16:20:26.999Z</time></trkpt><trkpt lat="42.17723409452138" lon="13.278467943963921"><ele>827.0</ele><time>2026-05-02T16:20:27.999Z</time></trkpt><trkpt lat="42.17718119676961" lon="13.278545538153331"><ele>828.5</ele><time>2026-05-02T16:20:28.999Z</time></trkpt><trkpt lat="42.17714736042101" lon="13.278645365128602"><ele>830.0</ele><time>2026-05-02T16:20:29.999Z</time></trkpt><trkpt lat="42.17711751360768" lon="13.278742910648871"><ele>831.5000000000001</ele><time>2026-05-02T16:20:30.999Z</time></trkpt><trkpt lat="42.177072954030066" lon="13.278824812287876"><ele>833.0</ele><time>2026-05-02T16:20:31.999Z</time></trkpt><trkpt lat="42.17701645166864" lon="13.278893667776417"><ele>833.3333333333334</ele><time>2026-05-02T16:20:32.999Z</time></trkpt><trkpt lat="42.176927794438214" lon="13.278970552319805"><ele>833.6666666666667</ele><time>2026-05-02T16:20:34.999Z</time></trkpt><trkpt lat="42.176950632202704" lon="13.279096389606508"><ele>834.0</ele><time>2026-05-02T16:20:37.999Z</time></trkpt><trkpt lat="42.177020019711435" lon="13.27920301293473"><ele>834.3333333333333</ele><time>2026-05-02T16:20:39.999Z</time></trkpt><trkpt lat="42.17706342194238" lon="13.279266566811643"><ele>834.6666666666666</ele><time>2026-05-02T16:20:40.999Z</time></trkpt><trkpt lat="42.17709473373628" lon="13.2793426731258"><ele>835.0</ele><time>2026-05-02T16:20:41.999Z</time></trkpt><trkpt lat="42.17711654827469" lon="13.279424108854235"><ele>835.0000000000001</ele><time>2026-05-02T16:20:42.999Z</time></trkpt><trkpt lat="42.177140472114054" lon="13.279514534233556"><ele>835.0</ele><time>2026-05-02T16:20:43.999Z</time></trkpt><trkpt lat="42.17716226511646" lon="13.279598101285572"><ele>835.0</ele><time>2026-05-02T16:20:44.999Z</time></trkpt><trkpt lat="42.17718852478569" lon="13.279687360815933"><ele>835.0</ele><time>2026-05-02T16:20:45.999Z</time></trkpt><trkpt lat="42.17722187832721" lon="13.27977041592483"><ele>835.0</ele><time>2026-05-02T16:20:46.999Z</time></trkpt><trkpt lat="42.17726626242951" lon="13.279842791122256"><ele>835.0000000000001</ele><time>2026-05-02T16:20:47.999Z</time></trkpt><trkpt lat="42.17731946114533" lon="13.279917711646043"><ele>835.0</ele><time>2026-05-02T16:20:48.999Z</time></trkpt><trkpt lat="42.17736841015745" lon="13.280008214404164"><ele>835.1666666666666</ele><time>2026-05-02T16:20:49.999Z</time></trkpt><trkpt lat="42.177410530353704" lon="13.28009467445829"><ele>835.3333333333333</ele><time>2026-05-02T16:20:50.999Z</time></trkpt><trkpt lat="42.177459106633876" lon="13.280186582337656"><ele>835.5</ele><time>2026-05-02T16:20:51.999Z</time></trkpt><trkpt lat="42.17750417791362" lon="13.28027489493226"><ele>835.6666666666667</ele><time>2026-05-02T16:20:52.999Z</time></trkpt><trkpt lat="42.177548962782744" lon="13.280369547996546"><ele>835.8333333333334</ele><time>2026-05-02T16:20:53.999Z</time></trkpt><trkpt lat="42.17759146150024" lon="13.280456760641966"><ele>836.0</ele><time>2026-05-02T16:20:54.999Z</time></trkpt><trkpt lat="42.17764167506569" lon="13.280540466559147"><ele>836.5000000000001</ele><time>2026-05-02T16:20:55.999Z</time></trkpt><trkpt lat="42.177687757454336" lon="13.280628260586349"><ele>837.0</ele><time>2026-05-02T16:20:56.999Z</time></trkpt><trkpt lat="42.177743105229155" lon="13.280720918242668"><ele>837.5</ele><time>2026-05-02T16:20:57.999Z</time></trkpt><trkpt lat="42.17779463726542" lon="13.280820662668313"><ele>838.0</ele><time>2026-05-02T16:20:58.999Z</time></trkpt><trkpt lat="42.177841542097624" lon="13.28092328495696"><ele>838.5000000000001</ele><time>2026-05-02T16:20:59.999Z</time></trkpt><trkpt lat="42.177888315114416" lon="13.281024799600011"><ele>839.0</ele><time>2026-05-02T16:21:00.999Z</time></trkpt><trkpt lat="42.17794032128335" lon="13.28111342192048"><ele>839.0000000000001</ele><time>2026-05-02T16:21:01.999Z</time></trkpt><trkpt lat="42.17798050254372" lon="13.281201061782701"><ele>839.0</ele><time>2026-05-02T16:21:02.999Z</time></trkpt><trkpt lat="42.178010161367446" lon="13.281291660149517"><ele>839.0</ele><time>2026-05-02T16:21:03.999Z</time></trkpt><trkpt lat="42.17803414112124" lon="13.281381452371441"><ele>839.0</ele><time>2026-05-02T16:21:04.999Z</time></trkpt><trkpt lat="42.178080349356144" lon="13.281458003179475"><ele>839.0000000000001</ele><time>2026-05-02T16:21:05.999Z</time></trkpt><trkpt lat="42.17813820665786" lon="13.281522558155634"><ele>839.0</ele><time>2026-05-02T16:21:06.999Z</time></trkpt><trkpt lat="42.17820638744712" lon="13.28158517318261"><ele>839.3333333333334</ele><time>2026-05-02T16:21:07.999Z</time></trkpt><trkpt lat="42.178269557209774" lon="13.281640379703978"><ele>839.6666666666667</ele><time>2026-05-02T16:21:08.998Z</time></trkpt><trkpt lat="42.178337238037" lon="13.281694584469534"><ele>840.0</ele><time>2026-05-02T16:21:09.998Z</time></trkpt><trkpt lat="42.178395327407905" lon="13.281739447787148"><ele>840.3333333333333</ele><time>2026-05-02T16:21:10.998Z</time></trkpt><trkpt lat="42.17845198643288" lon="13.281782217109269"><ele>840.6666666666666</ele><time>2026-05-02T16:21:11.998Z</time></trkpt><trkpt lat="42.17857194583804" lon="13.281817532967274"><ele>841.0</ele><time>2026-05-02T16:21:13.998Z</time></trkpt><trkpt lat="42.178686812517434" lon="13.281805719917605"><ele>841.0</ele><time>2026-05-02T16:21:15.998Z</time></trkpt><trkpt lat="42.178789382555905" lon="13.28174288245047"><ele>841.0</ele><time>2026-05-02T16:21:17.998Z</time></trkpt><trkpt lat="42.17888425144976" lon="13.281659793080212"><ele>841.0</ele><time>2026-05-02T16:21:19.998Z</time></trkpt><trkpt lat="42.17896517403749" lon="13.28159682251465"><ele>841.0</ele><time>2026-05-02T16:21:21.998Z</time></trkpt><trkpt lat="42.17903733318141" lon="13.281555768405223"><ele>841.0</ele><time>2026-05-02T16:21:23.998Z</time></trkpt><trkpt lat="42.17911692194108" lon="13.281555007284418"><ele>839.8333333333333</ele><time>2026-05-02T16:21:25.998Z</time></trkpt><trkpt lat="42.179178533318655" lon="13.281613681831693"><ele>838.6666666666666</ele><time>2026-05-02T16:21:27.998Z</time></trkpt><trkpt lat="42.17922156762208" lon="13.281722265144072"><ele>837.5</ele><time>2026-05-02T16:21:29.998Z</time></trkpt><trkpt lat="42.17927759604502" lon="13.28181018802286"><ele>836.3333333333333</ele><time>2026-05-02T16:21:31.998Z</time></trkpt><trkpt lat="42.179345728239944" lon="13.281819634201282"><ele>835.1666666666666</ele><time>2026-05-02T16:21:33.998Z</time></trkpt><trkpt lat="42.1793992047373" lon="13.281731537411298"><ele>834.0</ele><time>2026-05-02T16:21:35.998Z</time></trkpt><trkpt lat="42.179435690987546" lon="13.281600476370244"><ele>834.0</ele><time>2026-05-02T16:21:37.998Z</time></trkpt><trkpt lat="42.179511474466736" lon="13.28145774009234"><ele>834.0</ele><time>2026-05-02T16:21:39.998Z</time></trkpt><trkpt lat="42.17956120080508" lon="13.281381851753558"><ele>834.0</ele><time>2026-05-02T16:21:40.998Z</time></trkpt><trkpt lat="42.179614141835515" lon="13.28128694069179"><ele>834.0</ele><time>2026-05-02T16:21:41.998Z</time></trkpt><trkpt lat="42.17966492246413" lon="13.28118295262209"><ele>834.0</ele><time>2026-05-02T16:21:42.998Z</time></trkpt><trkpt lat="42.17971940077791" lon="13.28105367149186"><ele>833.0</ele><time>2026-05-02T16:21:43.998Z</time></trkpt><trkpt lat="42.1797826724607" lon="13.280904139417364"><ele>832.0</ele><time>2026-05-02T16:21:44.998Z</time></trkpt><trkpt lat="42.1798533408765" lon="13.28074378225383"><ele>831.0</ele><time>2026-05-02T16:21:45.999Z</time></trkpt><trkpt lat="42.17993899444058" lon="13.280585357242932"><ele>830.0</ele><time>2026-05-02T16:21:46.999Z</time></trkpt><trkpt lat="42.18001890022735" lon="13.280425655815483"><ele>828.75</ele><time>2026-05-02T16:21:47.999Z</time></trkpt><trkpt lat="42.180106811749205" lon="13.280273628988958"><ele>827.5</ele><time>2026-05-02T16:21:48.999Z</time></trkpt><trkpt lat="42.180205537837274" lon="13.280140592957258"><ele>826.25</ele><time>2026-05-02T16:21:49.999Z</time></trkpt><trkpt lat="42.18030937697299" lon="13.280018235186054"><ele>825.0</ele><time>2026-05-02T16:21:50.999Z</time></trkpt><trkpt lat="42.18042065539543" lon="13.279905419794991"><ele>825.0</ele><time>2026-05-02T16:21:51.999Z</time></trkpt><trkpt lat="42.180536907149424" lon="13.279807947194668"><ele>825.0</ele><time>2026-05-02T16:21:52.999Z</time></trkpt><trkpt lat="42.18063686951615" lon="13.279681006412856"><ele>825.0</ele><time>2026-05-02T16:21:53.999Z</time></trkpt><trkpt lat="42.18070313004887" lon="13.279555609454468"><ele>825.0</ele><time>2026-05-02T16:21:54.999Z</time></trkpt><trkpt lat="42.18072621859357" lon="13.279444950433243"><ele>824.2</ele><time>2026-05-02T16:21:55.999Z</time></trkpt><trkpt lat="42.180712217165414" lon="13.279348496946566"><ele>823.4</ele><time>2026-05-02T16:21:56.999Z</time></trkpt><trkpt lat="42.180670318748795" lon="13.279230476807761"><ele>822.5999999999999</ele><time>2026-05-02T16:21:57.999Z</time></trkpt><trkpt lat="42.18062082839592" lon="13.279089161882276"><ele>821.8</ele><time>2026-05-02T16:21:58.999Z</time></trkpt><trkpt lat="42.18057995537214" lon="13.27893866036388"><ele>821.0</ele><time>2026-05-02T16:21:59.999Z</time></trkpt><trkpt lat="42.18056110751711" lon="13.27877747411373"><ele>820.5</ele><time>2026-05-02T16:22:00.999Z</time></trkpt><trkpt lat="42.18056643279485" lon="13.278606164145975"><ele>820.0</ele><time>2026-05-02T16:22:01.999Z</time></trkpt><trkpt lat="42.18058837334169" lon="13.278431246228179"><ele>819.5</ele><time>2026-05-02T16:22:02.999Z</time></trkpt><trkpt lat="42.18061566131179" lon="13.278261911414202"><ele>819.0</ele><time>2026-05-02T16:22:03.999Z</time></trkpt><trkpt lat="42.180638892150206" lon="13.278096128483103"><ele>818.75</ele><time>2026-05-02T16:22:04.999Z</time></trkpt><trkpt lat="42.18066672254863" lon="13.277937175973026"><ele>818.5</ele><time>2026-05-02T16:22:05.999Z</time></trkpt><trkpt lat="42.180693459714746" lon="13.27777779013163"><ele>818.25</ele><time>2026-05-02T16:22:06.999Z</time></trkpt><trkpt lat="42.180714874975386" lon="13.277620752742022"><ele>818.0</ele><time>2026-05-02T16:22:07.999Z</time></trkpt><trkpt lat="42.180733486552484" lon="13.277468554098016"><ele>817.4</ele><time>2026-05-02T16:22:08.999Z</time></trkpt><trkpt lat="42.180754045032906" lon="13.27732335931668"><ele>816.8</ele><time>2026-05-02T16:22:09.999Z</time></trkpt><trkpt lat="42.18077219074784" lon="13.277180136706885"><ele>816.2</ele><time>2026-05-02T16:22:10.999Z</time></trkpt><trkpt lat="42.18079544656256" lon="13.27703233653835"><ele>815.6</ele><time>2026-05-02T16:22:11.999Z</time></trkpt><trkpt lat="42.18081896655177" lon="13.276878030625605"><ele>815.0</ele><time>2026-05-02T16:22:12.999Z</time></trkpt><trkpt lat="42.180843308410736" lon="13.276716052658708"><ele>814.5</ele><time>2026-05-02T16:22:13.999Z</time></trkpt><trkpt lat="42.18086964353892" lon="13.276554281684747"><ele>814.0</ele><time>2026-05-02T16:22:14.999Z</time></trkpt><trkpt lat="42.18090052318748" lon="13.276387870543042"><ele>813.5</ele><time>2026-05-02T16:22:15.999Z</time></trkpt><trkpt lat="42.180926236721795" lon="13.276220420571864"><ele>813.0</ele><time>2026-05-02T16:22:16.999Z</time></trkpt><trkpt lat="42.180949324600306" lon="13.276055143635068"><ele>812.5</ele><time>2026-05-02T16:22:17.999Z</time></trkpt><trkpt lat="42.18097845324509" lon="13.2758895103155"><ele>812.0</ele><time>2026-05-02T16:22:18.999Z</time></trkpt><trkpt lat="42.181008889507375" lon="13.275724543262863"><ele>811.5</ele><time>2026-05-02T16:22:19.999Z</time></trkpt><trkpt lat="42.18103943070746" lon="13.275568767633953"><ele>811.0</ele><time>2026-05-02T16:22:20.999Z</time></trkpt><trkpt lat="42.18107001890803" lon="13.275422217578152"><ele>810.5999999999999</ele><time>2026-05-02T16:22:21.999Z</time></trkpt><trkpt lat="42.18109793385181" lon="13.275278951433611"><ele>810.2</ele><time>2026-05-02T16:22:22.999Z</time></trkpt><trkpt lat="42.18112651565273" lon="13.27514020264272"><ele>809.8</ele><time>2026-05-02T16:22:23.999Z</time></trkpt><trkpt lat="42.181157881816524" lon="13.274991291204861"><ele>809.4000000000001</ele><time>2026-05-02T16:22:24.999Z</time></trkpt><trkpt lat="42.18118728887454" lon="13.274837972851088"><ele>809.0</ele><time>2026-05-02T16:22:25.999Z</time></trkpt><trkpt lat="42.18122268523933" lon="13.27470393315027"><ele>808.3333333333334</ele><time>2026-05-02T16:22:26.999Z</time></trkpt><trkpt lat="42.181259021309536" lon="13.274573129470062"><ele>807.6666666666667</ele><time>2026-05-02T16:22:27.999Z</time></trkpt><trkpt lat="42.18128694167327" lon="13.274452028998434"><ele>807.0</ele><time>2026-05-02T16:22:28.999Z</time></trkpt><trkpt lat="42.181313430298424" lon="13.274334430641177"><ele>806.3333333333333</ele><time>2026-05-02T16:22:29.999Z</time></trkpt><trkpt lat="42.1813400585022" lon="13.274232013260498"><ele>805.6666666666666</ele><time>2026-05-02T16:22:30.999Z</time></trkpt><trkpt lat="42.181361688062836" lon="13.274149704109433"><ele>805.0</ele><time>2026-05-02T16:22:31.999Z</time></trkpt><trkpt lat="42.181394047713184" lon="13.27399916963167"><ele>804.6666666666666</ele><time>2026-05-02T16:22:33.999Z</time></trkpt><trkpt lat="42.18141755021316" lon="13.273902138550133"><ele>804.3333333333333</ele><time>2026-05-02T16:22:36.999Z</time></trkpt><trkpt lat="42.18142890682426" lon="13.273774045251146"><ele>804.0</ele><time>2026-05-02T16:22:39.999Z</time></trkpt><trkpt lat="42.18151393828516" lon="13.27366891343813"><ele>803.6666666666667</ele><time>2026-05-02T16:22:41.999Z</time></trkpt><trkpt lat="42.18157978607996" lon="13.273634777732392"><ele>803.3333333333334</ele><time>2026-05-02T16:22:42.999Z</time></trkpt><trkpt lat="42.181656072207474" lon="13.273586882564288"><ele>803.0</ele><time>2026-05-02T16:22:43.999Z</time></trkpt><trkpt lat="42.18172590275138" lon="13.273508283117346"><ele>803.0000000000001</ele><time>2026-05-02T16:22:44.999Z</time></trkpt><trkpt lat="42.181785418571486" lon="13.273416036249953"><ele>803.0</ele><time>2026-05-02T16:22:45.999Z</time></trkpt><trkpt lat="42.181841302425674" lon="13.273323302344345"><ele>803.0</ele><time>2026-05-02T16:22:46.999Z</time></trkpt><trkpt lat="42.18189372867105" lon="13.27323741386631"><ele>803.0</ele><time>2026-05-02T16:22:47.999Z</time></trkpt><trkpt lat="42.18194609637037" lon="13.273156676806831"><ele>803.0000000000001</ele><time>2026-05-02T16:22:48.999Z</time></trkpt><trkpt lat="42.18200005743417" lon="13.273077107660177"><ele>803.0</ele><time>2026-05-02T16:22:49.999Z</time></trkpt><trkpt lat="42.18204333033528" lon="13.272999344116794"><ele>802.8333333333334</ele><time>2026-05-02T16:22:50.999Z</time></trkpt><trkpt lat="42.1820910582749" lon="13.272914878515515"><ele>802.6666666666667</ele><time>2026-05-02T16:22:51.999Z</time></trkpt><trkpt lat="42.182142837832025" lon="13.27283152451682"><ele>802.5</ele><time>2026-05-02T16:22:52.999Z</time></trkpt><trkpt lat="42.18220220137796" lon="13.2727699344438"><ele>802.3333333333333</ele><time>2026-05-02T16:22:53.999Z</time></trkpt><trkpt lat="42.18227963691504" lon="13.2726967240782"><ele>802.1666666666666</ele><time>2026-05-02T16:22:54.999Z</time></trkpt><trkpt lat="42.18236618915852" lon="13.272625806441242"><ele>802.0</ele><time>2026-05-02T16:22:55.999Z</time></trkpt><trkpt lat="42.1824472482544" lon="13.272562778668554"><ele>802.0</ele><time>2026-05-02T16:22:56.999Z</time></trkpt><trkpt lat="42.18251473781265" lon="13.272493001168629"><ele>802.0</ele><time>2026-05-02T16:22:57.999Z</time></trkpt><trkpt lat="42.18258072366711" lon="13.272401513767859"><ele>802.0</ele><time>2026-05-02T16:22:58.999Z</time></trkpt><trkpt lat="42.18263684010497" lon="13.272284812515279"><ele>802.0</ele><time>2026-05-02T16:22:59.999Z</time></trkpt><trkpt lat="42.18270812350129" lon="13.272175047868302"><ele>802.0</ele><time>2026-05-02T16:23:00.999Z</time></trkpt><trkpt lat="42.18278570898618" lon="13.272073638328452"><ele>802.0</ele><time>2026-05-02T16:23:01.999Z</time></trkpt><trkpt lat="42.182856566576696" lon="13.27197063880943"><ele>802.0</ele><time>2026-05-02T16:23:02.999Z</time></trkpt><trkpt lat="42.1829142997294" lon="13.27187023595202"><ele>802.0</ele><time>2026-05-02T16:23:03.999Z</time></trkpt><trkpt lat="42.182970669345146" lon="13.271774786255394"><ele>802.0</ele><time>2026-05-02T16:23:04.999Z</time></trkpt><trkpt lat="42.183018388748074" lon="13.271680620369692"><ele>802.0</ele><time>2026-05-02T16:23:05.999Z</time></trkpt><trkpt lat="42.183060933803624" lon="13.271584799955905"><ele>801.9999999999999</ele><time>2026-05-02T16:23:06.999Z</time></trkpt><trkpt lat="42.18309670819371" lon="13.271477032040197"><ele>802.0</ele><time>2026-05-02T16:23:07.999Z</time></trkpt><trkpt lat="42.183138369781894" lon="13.271349993263478"><ele>802.0</ele><time>2026-05-02T16:23:08.999Z</time></trkpt><trkpt lat="42.18318703275995" lon="13.271242960324555"><ele>802.0</ele><time>2026-05-02T16:23:09.999Z</time></trkpt><trkpt lat="42.183238468537446" lon="13.271156012915132"><ele>801.9999999999999</ele><time>2026-05-02T16:23:10.999Z</time></trkpt><trkpt lat="42.183287458507934" lon="13.271078419077716"><ele>802.0</ele><time>2026-05-02T16:23:11.999Z</time></trkpt><trkpt lat="42.183348852688766" lon="13.271003373977539"><ele>801.7142857142858</ele><time>2026-05-02T16:23:12.999Z</time></trkpt><trkpt lat="42.18341031462033" lon="13.270961749460138"><ele>801.4285714285714</ele><time>2026-05-02T16:23:13.999Z</time></trkpt><trkpt lat="42.183473365417996" lon="13.270941466799307"><ele>801.1428571428571</ele><time>2026-05-02T16:23:14.998Z</time></trkpt><trkpt lat="42.18354598033816" lon="13.270928834755447"><ele>800.8571428571429</ele><time>2026-05-02T16:23:15.998Z</time></trkpt><trkpt lat="42.18362492494936" lon="13.270926582846089"><ele>800.5714285714286</ele><time>2026-05-02T16:23:16.998Z</time></trkpt><trkpt lat="42.18370124969052" lon="13.270935890184248"><ele>800.2857142857143</ele><time>2026-05-02T16:23:17.998Z</time></trkpt><trkpt lat="42.183782346124765" lon="13.270948604877821"><ele>800.0</ele><time>2026-05-02T16:23:18.998Z</time></trkpt><trkpt lat="42.18387392116121" lon="13.270945836183872"><ele>800.0</ele><time>2026-05-02T16:23:19.998Z</time></trkpt><trkpt lat="42.18396665844639" lon="13.27093174671306"><ele>800.0</ele><time>2026-05-02T16:23:20.998Z</time></trkpt><trkpt lat="42.18406154500561" lon="13.27091796296344"><ele>800.0</ele><time>2026-05-02T16:23:21.998Z</time></trkpt><trkpt lat="42.18415980745024" lon="13.270905114580755"><ele>800.0</ele><time>2026-05-02T16:23:22.998Z</time></trkpt><trkpt lat="42.18425231821015" lon="13.270886827265853"><ele>800.0</ele><time>2026-05-02T16:23:23.998Z</time></trkpt><trkpt lat="42.18433841284275" lon="13.270857913874826"><ele>800.0</ele><time>2026-05-02T16:23:24.998Z</time></trkpt><trkpt lat="42.184425129918" lon="13.270808401595026"><ele>800.0</ele><time>2026-05-02T16:23:25.998Z</time></trkpt><trkpt lat="42.18451242389582" lon="13.270737369170794"><ele>800.0</ele><time>2026-05-02T16:23:26.998Z</time></trkpt><trkpt lat="42.184605934228664" lon="13.270663764081764"><ele>800.0</ele><time>2026-05-02T16:23:27.998Z</time></trkpt><trkpt lat="42.18469927535653" lon="13.270582586913246"><ele>800.0</ele><time>2026-05-02T16:23:28.998Z</time></trkpt><trkpt lat="42.184780516152124" lon="13.270493740305383"><ele>800.5</ele><time>2026-05-02T16:23:29.998Z</time></trkpt><trkpt lat="42.18486159009384" lon="13.270411349666048"><ele>801.0</ele><time>2026-05-02T16:23:30.998Z</time></trkpt><trkpt lat="42.18495570939887" lon="13.270317963270996"><ele>801.5</ele><time>2026-05-02T16:23:31.998Z</time></trkpt><trkpt lat="42.18505555172245" lon="13.270218564999142"><ele>802.0</ele><time>2026-05-02T16:23:32.998Z</time></trkpt><trkpt lat="42.185157848478624" lon="13.270120045008326"><ele>802.0</ele><time>2026-05-02T16:23:33.998Z</time></trkpt><trkpt lat="42.18525703982264" lon="13.270033508067582"><ele>802.0</ele><time>2026-05-02T16:23:34.998Z</time></trkpt><trkpt lat="42.185367932502444" lon="13.26996049188626"><ele>802.0</ele><time>2026-05-02T16:23:35.998Z</time></trkpt><trkpt lat="42.18548629391616" lon="13.269875037626754"><ele>802.0</ele><time>2026-05-02T16:23:36.998Z</time></trkpt><trkpt lat="42.18560862083275" lon="13.269787758690866"><ele>802.25</ele><time>2026-05-02T16:23:37.998Z</time></trkpt><trkpt lat="42.18573039554226" lon="13.269705234234705"><ele>802.5</ele><time>2026-05-02T16:23:38.998Z</time></trkpt><trkpt lat="42.18585575105062" lon="13.26961644198301"><ele>802.75</ele><time>2026-05-02T16:23:39.998Z</time></trkpt><trkpt lat="42.18597816453327" lon="13.269536798251812"><ele>803.0</ele><time>2026-05-02T16:23:40.998Z</time></trkpt><trkpt lat="42.186087072402316" lon="13.269474132185934"><ele>803.0</ele><time>2026-05-02T16:23:41.998Z</time></trkpt><trkpt lat="42.1861805977593" lon="13.269407372915035"><ele>803.0</ele><time>2026-05-02T16:23:42.998Z</time></trkpt><trkpt lat="42.18626784081306" lon="13.269353159300898"><ele>803.0</ele><time>2026-05-02T16:23:43.998Z</time></trkpt><trkpt lat="42.18635366592689" lon="13.269307524812087"><ele>803.0</ele><time>2026-05-02T16:23:44.998Z</time></trkpt><trkpt lat="42.18644891715879" lon="13.269254990896206"><ele>803.0</ele><time>2026-05-02T16:23:45.998Z</time></trkpt><trkpt lat="42.18654982248092" lon="13.269199250528175"><ele>803.0</ele><time>2026-05-02T16:23:46.998Z</time></trkpt><trkpt lat="42.186652288647544" lon="13.269142824439063"><ele>803.0</ele><time>2026-05-02T16:23:47.998Z</time></trkpt><trkpt lat="42.186740144971964" lon="13.26909182544827"><ele>803.0</ele><time>2026-05-02T16:23:48.998Z</time></trkpt><trkpt lat="42.18683045816673" lon="13.269016881126525"><ele>803.0</ele><time>2026-05-02T16:23:49.998Z</time></trkpt><trkpt lat="42.18692556084399" lon="13.268928877144294"><ele>803.0</ele><time>2026-05-02T16:23:50.998Z</time></trkpt><trkpt lat="42.18701931338654" lon="13.268838996906394"><ele>802.8</ele><time>2026-05-02T16:23:51.999Z</time></trkpt><trkpt lat="42.187108951852814" lon="13.268752688024879"><ele>802.5999999999999</ele><time>2026-05-02T16:23:52.999Z</time></trkpt><trkpt lat="42.187193985034575" lon="13.268673890573808"><ele>802.4000000000001</ele><time>2026-05-02T16:23:53.999Z</time></trkpt><trkpt lat="42.18727669118814" lon="13.268599090661377"><ele>802.2</ele><time>2026-05-02T16:23:54.999Z</time></trkpt><trkpt lat="42.18736583247089" lon="13.268533214142701"><ele>802.0</ele><time>2026-05-02T16:23:55.999Z</time></trkpt><trkpt lat="42.18746601128326" lon="13.268467442792087"><ele>802.0</ele><time>2026-05-02T16:23:56.999Z</time></trkpt><trkpt lat="42.18756986320106" lon="13.26838744005643"><ele>802.0</ele><time>2026-05-02T16:23:57.999Z</time></trkpt><trkpt lat="42.18766708606142" lon="13.268303683108801"><ele>802.0</ele><time>2026-05-02T16:23:58.999Z</time></trkpt><trkpt lat="42.1877627755125" lon="13.268226230745755"><ele>802.0</ele><time>2026-05-02T16:23:59.999Z</time></trkpt><trkpt lat="42.18785421590852" lon="13.268155065549157"><ele>802.0</ele><time>2026-05-02T16:24:00.999Z</time></trkpt><trkpt lat="42.187922798350144" lon="13.26809393681359"><ele>802.0</ele><time>2026-05-02T16:24:01.999Z</time></trkpt><trkpt lat="42.1880293957706" lon="13.267998224904963"><ele>802.0</ele><time>2026-05-02T16:24:03.999Z</time></trkpt><trkpt lat="42.18807873541258" lon="13.267945155467924"><ele>802.0</ele><time>2026-05-02T16:24:04.999Z</time></trkpt><trkpt lat="42.18820303512438" lon="13.2678859970025"><ele>802.0</ele><time>2026-05-02T16:24:06.999Z</time></trkpt><trkpt lat="42.18828094342122" lon="13.2678656213468"><ele>802.6</ele><time>2026-05-02T16:24:07.999Z</time></trkpt><trkpt lat="42.18836582111187" lon="13.267849868684593"><ele>803.2</ele><time>2026-05-02T16:24:08.999Z</time></trkpt><trkpt lat="42.188453868109576" lon="13.267820902230062"><ele>803.8</ele><time>2026-05-02T16:24:09.999Z</time></trkpt><trkpt lat="42.188546856895755" lon="13.267773482369016"><ele>804.4</ele><time>2026-05-02T16:24:10.999Z</time></trkpt><trkpt lat="42.188643217959715" lon="13.267727313589916"><ele>805.0</ele><time>2026-05-02T16:24:11.999Z</time></trkpt><trkpt lat="42.1887199681743" lon="13.267685674560598"><ele>804.9999999999999</ele><time>2026-05-02T16:24:12.999Z</time></trkpt><trkpt lat="42.18879643081555" lon="13.26764311055482"><ele>805.0</ele><time>2026-05-02T16:24:13.999Z</time></trkpt><trkpt lat="42.18887421968246" lon="13.267583837153504"><ele>805.0</ele><time>2026-05-02T16:24:14.999Z</time></trkpt><trkpt lat="42.18893976292495" lon="13.267525285958204"><ele>805.0</ele><time>2026-05-02T16:24:15.999Z</time></trkpt><trkpt lat="42.189011523187325" lon="13.267472153024444"><ele>804.9999999999999</ele><time>2026-05-02T16:24:16.999Z</time></trkpt><trkpt lat="42.18909708814307" lon="13.267419579091253"><ele>805.0</ele><time>2026-05-02T16:24:17.999Z</time></trkpt><trkpt lat="42.18918637186764" lon="13.267357028841921"><ele>805.2</ele><time>2026-05-02T16:24:18.999Z</time></trkpt><trkpt lat="42.189276792118726" lon="13.267285959815272"><ele>805.4</ele><time>2026-05-02T16:24:19.999Z</time></trkpt><trkpt lat="42.18936145194994" lon="13.267211764577558"><ele>805.5999999999999</ele><time>2026-05-02T16:24:20.999Z</time></trkpt><trkpt lat="42.18945173553153" lon="13.267126051028677"><ele>805.8</ele><time>2026-05-02T16:24:21.999Z</time></trkpt><trkpt lat="42.18953091780275" lon="13.267053755496963"><ele>806.0</ele><time>2026-05-02T16:24:22.999Z</time></trkpt><trkpt lat="42.189613186716706" lon="13.266975076951883"><ele>805.5999999999999</ele><time>2026-05-02T16:24:23.999Z</time></trkpt><trkpt lat="42.189705158921335" lon="13.266881937285673"><ele>805.2</ele><time>2026-05-02T16:24:24.999Z</time></trkpt><trkpt lat="42.18979742781403" lon="13.266795822126042"><ele>804.8</ele><time>2026-05-02T16:24:25.999Z</time></trkpt><trkpt lat="42.18988287885518" lon="13.266720485597807"><ele>804.4000000000001</ele><time>2026-05-02T16:24:26.999Z</time></trkpt><trkpt lat="42.18997069538757" lon="13.266656769197851"><ele>804.0</ele><time>2026-05-02T16:24:27.999Z</time></trkpt><trkpt lat="42.19006125465424" lon="13.266600085938293"><ele>804.3333333333334</ele><time>2026-05-02T16:24:28.999Z</time></trkpt><trkpt lat="42.19015476028532" lon="13.266554591603077"><ele>804.6666666666667</ele><time>2026-05-02T16:24:29.999Z</time></trkpt><trkpt lat="42.19024048685461" lon="13.266513671782524"><ele>805.0</ele><time>2026-05-02T16:24:30.999Z</time></trkpt><trkpt lat="42.190313355996615" lon="13.266473160196139"><ele>805.3333333333334</ele><time>2026-05-02T16:24:31.999Z</time></trkpt><trkpt lat="42.19037564833053" lon="13.266407808892348"><ele>805.6666666666667</ele><time>2026-05-02T16:24:32.999Z</time></trkpt><trkpt lat="42.190438377944716" lon="13.266330189939369"><ele>806.0</ele><time>2026-05-02T16:24:33.999Z</time></trkpt><trkpt lat="42.190500192451694" lon="13.266246141875685"><ele>806.0</ele><time>2026-05-02T16:24:34.999Z</time></trkpt><trkpt lat="42.19057263566505" lon="13.266164950423812"><ele>806.0</ele><time>2026-05-02T16:24:35.999Z</time></trkpt><trkpt lat="42.19066166685666" lon="13.266086512197734"><ele>806.0</ele><time>2026-05-02T16:24:36.999Z</time></trkpt><trkpt lat="42.1907481372328" lon="13.266004279320464"><ele>806.0</ele><time>2026-05-02T16:24:37.999Z</time></trkpt><trkpt lat="42.190830455368165" lon="13.265907233677265"><ele>806.0</ele><time>2026-05-02T16:24:38.999Z</time></trkpt><trkpt lat="42.19089949221774" lon="13.265806982897633"><ele>806.1999999999999</ele><time>2026-05-02T16:24:39.999Z</time></trkpt><trkpt lat="42.19095825388318" lon="13.265723027246594"><ele>806.4</ele><time>2026-05-02T16:24:40.999Z</time></trkpt><trkpt lat="42.19102973539611" lon="13.265623673459027"><ele>806.6</ele><time>2026-05-02T16:24:41.999Z</time></trkpt><trkpt lat="42.19109946413788" lon="13.265531412066093"><ele>806.8</ele><time>2026-05-02T16:24:42.999Z</time></trkpt><trkpt lat="42.19117283509993" lon="13.26544738901106"><ele>807.0</ele><time>2026-05-02T16:24:43.999Z</time></trkpt><trkpt lat="42.19125060629266" lon="13.265363280375245"><ele>807.0</ele><time>2026-05-02T16:24:44.999Z</time></trkpt><trkpt lat="42.191335458378994" lon="13.265262317358069"><ele>807.0</ele><time>2026-05-02T16:24:45.999Z</time></trkpt><trkpt lat="42.191416795789024" lon="13.265143261289582"><ele>807.0</ele><time>2026-05-02T16:24:46.999Z</time></trkpt><trkpt lat="42.19149149611158" lon="13.26501287633648"><ele>807.0</ele><time>2026-05-02T16:24:47.999Z</time></trkpt><trkpt lat="42.19156151010749" lon="13.264888236617724"><ele>807.4000000000001</ele><time>2026-05-02T16:24:48.999Z</time></trkpt><trkpt lat="42.1916302256456" lon="13.264772501005977"><ele>807.8000000000001</ele><time>2026-05-02T16:24:49.999Z</time></trkpt><trkpt lat="42.191710989627396" lon="13.2646843398481"><ele>808.2</ele><time>2026-05-02T16:24:50.999Z</time></trkpt><trkpt lat="42.19179597206452" lon="13.264626080960653"><ele>808.6</ele><time>2026-05-02T16:24:51.999Z</time></trkpt><trkpt lat="42.19189084629888" lon="13.26457091274841"><ele>809.0</ele><time>2026-05-02T16:24:52.999Z</time></trkpt><trkpt lat="42.19198745626981" lon="13.264497797663374"><ele>809.0</ele><time>2026-05-02T16:24:53.999Z</time></trkpt><trkpt lat="42.19207905950474" lon="13.264429720246106"><ele>809.0</ele><time>2026-05-02T16:24:54.999Z</time></trkpt><trkpt lat="42.19216654116749" lon="13.264379778590627"><ele>809.0</ele><time>2026-05-02T16:24:55.999Z</time></trkpt><trkpt lat="42.19226418773641" lon="13.26433638252683"><ele>809.0</ele><time>2026-05-02T16:24:56.999Z</time></trkpt><trkpt lat="42.19236796645086" lon="13.26429844416285"><ele>809.0</ele><time>2026-05-02T16:24:57.999Z</time></trkpt><trkpt lat="42.19247395153829" lon="13.264249352856456"><ele>809.8000000000001</ele><time>2026-05-02T16:24:58.999Z</time></trkpt><trkpt lat="42.19256697550273" lon="13.264197507338327"><ele>810.6</ele><time>2026-05-02T16:24:59.999Z</time></trkpt><trkpt lat="42.192654855708014" lon="13.264135532976441"><ele>811.4</ele><time>2026-05-02T16:25:00.999Z</time></trkpt><trkpt lat="42.19275083127268" lon="13.264073728173436"><ele>812.2</ele><time>2026-05-02T16:25:01.999Z</time></trkpt><trkpt lat="42.1928427418995" lon="13.264019825177058"><ele>813.0</ele><time>2026-05-02T16:25:02.999Z</time></trkpt><trkpt lat="42.19293910104088" lon="13.263971333870707"><ele>813.0</ele><time>2026-05-02T16:25:03.999Z</time></trkpt><trkpt lat="42.19303359781145" lon="13.263923973263664"><ele>813.0</ele><time>2026-05-02T16:25:04.999Z</time></trkpt><trkpt lat="42.193117160891696" lon="13.263876553417264"><ele>813.0</ele><time>2026-05-02T16:25:05.999Z</time></trkpt><trkpt lat="42.19319990811765" lon="13.263818747926408"><ele>813.0</ele><time>2026-05-02T16:25:06.999Z</time></trkpt><trkpt lat="42.1932917949856" lon="13.263752422870365"><ele>813.0</ele><time>2026-05-02T16:25:07.999Z</time></trkpt><trkpt lat="42.19337980126891" lon="13.26368305775731"><ele>813.2</ele><time>2026-05-02T16:25:08.999Z</time></trkpt><trkpt lat="42.19346057722947" lon="13.263618485760432"><ele>813.4</ele><time>2026-05-02T16:25:09.999Z</time></trkpt><trkpt lat="42.193550114451284" lon="13.26354205111858"><ele>813.6</ele><time>2026-05-02T16:25:10.999Z</time></trkpt><trkpt lat="42.19363136312607" lon="13.263466563215452"><ele>813.8000000000001</ele><time>2026-05-02T16:25:11.999Z</time></trkpt><trkpt lat="42.19371706155071" lon="13.263388183019893"><ele>814.0</ele><time>2026-05-02T16:25:12.999Z</time></trkpt><trkpt lat="42.19381742802476" lon="13.263307591322802"><ele>813.9999999999999</ele><time>2026-05-02T16:25:13.999Z</time></trkpt><trkpt lat="42.193906289877255" lon="13.263242234188894"><ele>814.0</ele><time>2026-05-02T16:25:14.999Z</time></trkpt><trkpt lat="42.193987185549844" lon="13.263185808593038"><ele>814.0</ele><time>2026-05-02T16:25:15.999Z</time></trkpt><trkpt lat="42.194058859367345" lon="13.263137524342774"><ele>814.0</ele><time>2026-05-02T16:25:16.999Z</time></trkpt><trkpt lat="42.19412516843025" lon="13.263084255943676"><ele>813.9999999999999</ele><time>2026-05-02T16:25:17.999Z</time></trkpt><trkpt lat="42.194184110215645" lon="13.263035254029713"><ele>814.0</ele><time>2026-05-02T16:25:18.999Z</time></trkpt><trkpt lat="42.19425367303461" lon="13.262997351193773"><ele>814.1428571428572</ele><time>2026-05-02T16:25:19.999Z</time></trkpt><trkpt lat="42.194324121887334" lon="13.262981086283501"><ele>814.2857142857143</ele><time>2026-05-02T16:25:20.999Z</time></trkpt><trkpt lat="42.19439629289116" lon="13.26297788228255"><ele>814.4285714285714</ele><time>2026-05-02T16:25:21.998Z</time></trkpt><trkpt lat="42.19446449221544" lon="13.262973042926145"><ele>814.5714285714287</ele><time>2026-05-02T16:25:22.998Z</time></trkpt><trkpt lat="42.19453390909307" lon="13.262957413240418"><ele>814.7142857142857</ele><time>2026-05-02T16:25:23.998Z</time></trkpt><trkpt lat="42.19461004234921" lon="13.262927853431123"><ele>814.8571428571429</ele><time>2026-05-02T16:25:24.998Z</time></trkpt><trkpt lat="42.19468437987504" lon="13.26289509985926"><ele>815.0</ele><time>2026-05-02T16:25:25.998Z</time></trkpt><trkpt lat="42.1947521024564" lon="13.2628682250822"><ele>815.0000000000001</ele><time>2026-05-02T16:25:26.998Z</time></trkpt><trkpt lat="42.19483548956441" lon="13.262836625524868"><ele>815.0</ele><time>2026-05-02T16:25:27.998Z</time></trkpt><trkpt lat="42.19490847221048" lon="13.262828388432967"><ele>815.0</ele><time>2026-05-02T16:25:28.998Z</time></trkpt><trkpt lat="42.19497343010053" lon="13.262827296511352"><ele>815.0</ele><time>2026-05-02T16:25:29.998Z</time></trkpt><trkpt lat="42.19504072072832" lon="13.262844376686152"><ele>815.0000000000001</ele><time>2026-05-02T16:25:30.998Z</time></trkpt><trkpt lat="42.19511562397718" lon="13.262872837812806"><ele>815.0</ele><time>2026-05-02T16:25:31.998Z</time></trkpt><trkpt lat="42.195198255743314" lon="13.262908533121003"><ele>815.0000000000001</ele><time>2026-05-02T16:25:32.998Z</time></trkpt><trkpt lat="42.195274376104656" lon="13.262945081351752"><ele>815.0</ele><time>2026-05-02T16:25:33.998Z</time></trkpt><trkpt lat="42.19533645230871" lon="13.26297506724211"><ele>815.0</ele><time>2026-05-02T16:25:34.998Z</time></trkpt><trkpt lat="42.195429203462275" lon="13.26299150404882"><ele>815.0</ele><time>2026-05-02T16:25:36.998Z</time></trkpt><trkpt lat="42.19551649654989" lon="13.262870612901994"><ele>815.0000000000001</ele><time>2026-05-02T16:25:38.998Z</time></trkpt><trkpt lat="42.195560855256446" lon="13.262785902994414"><ele>815.0</ele><time>2026-05-02T16:25:39.998Z</time></trkpt><trkpt lat="42.195602957585876" lon="13.262677112054037"><ele>815.0</ele><time>2026-05-02T16:25:40.998Z</time></trkpt><trkpt lat="42.19564202257802" lon="13.26255471025967"><ele>815.0</ele><time>2026-05-02T16:25:41.998Z</time></trkpt><trkpt lat="42.19568625546143" lon="13.262432543635816"><ele>815.0</ele><time>2026-05-02T16:25:42.998Z</time></trkpt><trkpt lat="42.19573278645346" lon="13.262296967775834"><ele>815.0</ele><time>2026-05-02T16:25:43.998Z</time></trkpt><trkpt lat="42.19577796380792" lon="13.262181551860566"><ele>815.0</ele><time>2026-05-02T16:25:44.998Z</time></trkpt><trkpt lat="42.195831987642435" lon="13.262078018094996"><ele>815.0</ele><time>2026-05-02T16:25:45.998Z</time></trkpt><trkpt lat="42.19587891407607" lon="13.261956389837257"><ele>815.0</ele><time>2026-05-02T16:25:46.998Z</time></trkpt><trkpt lat="42.195925159793156" lon="13.261834705704665"><ele>815.0</ele><time>2026-05-02T16:25:47.998Z</time></trkpt><trkpt lat="42.19596668459077" lon="13.261719047678929"><ele>815.0</ele><time>2026-05-02T16:25:48.998Z</time></trkpt><trkpt lat="42.19599860722613" lon="13.261591684938045"><ele>815.0</ele><time>2026-05-02T16:25:49.998Z</time></trkpt><trkpt lat="42.19603274690412" lon="13.261483082388262"><ele>814.8</ele><time>2026-05-02T16:25:50.998Z</time></trkpt><trkpt lat="42.19606834416487" lon="13.261375794356601"><ele>814.6</ele><time>2026-05-02T16:25:51.998Z</time></trkpt><trkpt lat="42.19610956481358" lon="13.261262058466933"><ele>814.4000000000001</ele><time>2026-05-02T16:25:52.998Z</time></trkpt><trkpt lat="42.196147711952975" lon="13.26113787784168"><ele>814.2</ele><time>2026-05-02T16:25:53.998Z</time></trkpt><trkpt lat="42.196173522594684" lon="13.261003704343286"><ele>814.0</ele><time>2026-05-02T16:25:54.998Z</time></trkpt><trkpt lat="42.19619556200883" lon="13.26087734539067"><ele>814.0</ele><time>2026-05-02T16:25:55.998Z</time></trkpt><trkpt lat="42.196214871893545" lon="13.260743416052424"><ele>814.0</ele><time>2026-05-02T16:25:56.998Z</time></trkpt><trkpt lat="42.1962373850221" lon="13.260627859697593"><ele>814.0</ele><time>2026-05-02T16:25:58Z</time></trkpt><trkpt lat="42.19626223853222" lon="13.260536524815793"><ele>814.0</ele><time>2026-05-02T16:25:59Z</time></trkpt><trkpt lat="42.19633057943739" lon="13.260432510314283"><ele>814.0</ele><time>2026-05-02T16:26:01Z</time></trkpt><trkpt lat="42.196438974607844" lon="13.260384023255066"><ele>813.4999999999999</ele><time>2026-05-02T16:26:03Z</time></trkpt><trkpt lat="42.19650151407539" lon="13.26036632486632"><ele>813.0</ele><time>2026-05-02T16:26:04Z</time></trkpt><trkpt lat="42.19662615907979" lon="13.260349445660461"><ele>812.5</ele><time>2026-05-02T16:26:06Z</time></trkpt><trkpt lat="42.19669922855279" lon="13.260349749177289"><ele>812.0</ele><time>2026-05-02T16:26:07Z</time></trkpt><trkpt lat="42.19677705425347" lon="13.260343993891148"><ele>811.4999999999999</ele><time>2026-05-02T16:26:08Z</time></trkpt><trkpt lat="42.19685397068508" lon="13.260329226418238"><ele>811.0</ele><time>2026-05-02T16:26:09Z</time></trkpt><trkpt lat="42.196938141600675" lon="13.260302178677293"><ele>811.0</ele><time>2026-05-02T16:26:10Z</time></trkpt><trkpt lat="42.19702319729897" lon="13.260269951347437"><ele>811.0</ele><time>2026-05-02T16:26:11Z</time></trkpt><trkpt lat="42.197109344322314" lon="13.260234870168777"><ele>811.0</ele><time>2026-05-02T16:26:12Z</time></trkpt><trkpt lat="42.197198077722156" lon="13.260200323753278"><ele>811.0</ele><time>2026-05-02T16:26:13Z</time></trkpt><trkpt lat="42.19729474852669" lon="13.260166308629142"><ele>811.0</ele><time>2026-05-02T16:26:14Z</time></trkpt><trkpt lat="42.19738892983856" lon="13.26012346189794"><ele>811.0</ele><time>2026-05-02T16:26:15Z</time></trkpt><trkpt lat="42.19747771187754" lon="13.260069951571793"><ele>811.0</ele><time>2026-05-02T16:26:15.999Z</time></trkpt><trkpt lat="42.19756018136896" lon="13.260008626267249"><ele>811.0</ele><time>2026-05-02T16:26:16.999Z</time></trkpt><trkpt lat="42.19764209182893" lon="13.259932124468534"><ele>811.0</ele><time>2026-05-02T16:26:17.999Z</time></trkpt><trkpt lat="42.19772589121244" lon="13.259847290271146"><ele>811.0</ele><time>2026-05-02T16:26:18.999Z</time></trkpt><trkpt lat="42.19781426090742" lon="13.259767631691398"><ele>811.4</ele><time>2026-05-02T16:26:19.999Z</time></trkpt><trkpt lat="42.19793632494334" lon="13.259681297074673"><ele>811.8</ele><time>2026-05-02T16:26:20.999Z</time></trkpt><trkpt lat="42.19807586384165" lon="13.259602239878816"><ele>812.1999999999999</ele><time>2026-05-02T16:26:21.999Z</time></trkpt><trkpt lat="42.19809660101405" lon="13.259486371596974"><ele>812.5999999999999</ele><time>2026-05-02T16:26:23.999Z</time></trkpt><trkpt lat="42.19814800105834" lon="13.259434862999118"><ele>813.0</ele><time>2026-05-02T16:26:24.999Z</time></trkpt><trkpt lat="42.19820705759747" lon="13.259396209491273"><ele>813.0</ele><time>2026-05-02T16:26:25.999Z</time></trkpt><trkpt lat="42.19826988482509" lon="13.259366200945387"><ele>813.0</ele><time>2026-05-02T16:26:26.999Z</time></trkpt><trkpt lat="42.19834501258736" lon="13.259372378853703"><ele>813.0</ele><time>2026-05-02T16:26:27.999Z</time></trkpt><trkpt lat="42.19843442303703" lon="13.25939948735675"><ele>813.0</ele><time>2026-05-02T16:26:28.999Z</time></trkpt><trkpt lat="42.19852448475748" lon="13.259428126482883"><ele>813.0</ele><time>2026-05-02T16:26:29.999Z</time></trkpt><trkpt lat="42.198620927456126" lon="13.259405767281667"><ele>813.0</ele><time>2026-05-02T16:26:30.999Z</time></trkpt><trkpt lat="42.19871435730947" lon="13.259362584403508"><ele>813.0</ele><time>2026-05-02T16:26:31.999Z</time></trkpt><trkpt lat="42.19879961018209" lon="13.259314304323008"><ele>813.0</ele><time>2026-05-02T16:26:32.999Z</time></trkpt><trkpt lat="42.19889071468599" lon="13.259253945915805"><ele>813.0</ele><time>2026-05-02T16:26:33.999Z</time></trkpt><trkpt lat="42.19898214381424" lon="13.259199628132572"><ele>813.0</ele><time>2026-05-02T16:26:34.999Z</time></trkpt><trkpt lat="42.199072505371646" lon="13.259140421644291"><ele>813.0</ele><time>2026-05-02T16:26:35.999Z</time></trkpt><trkpt lat="42.19915658224851" lon="13.259083135566577"><ele>813.5999999999999</ele><time>2026-05-02T16:26:36.999Z</time></trkpt><trkpt lat="42.1992415297144" lon="13.2590144327804"><ele>814.1999999999999</ele><time>2026-05-02T16:26:37.999Z</time></trkpt><trkpt lat="42.19932219063706" lon="13.258967501009911"><ele>814.8</ele><time>2026-05-02T16:26:38.999Z</time></trkpt><trkpt lat="42.19940006361988" lon="13.258961611417611"><ele>815.4</ele><time>2026-05-02T16:26:39.999Z</time></trkpt><trkpt lat="42.19948814708888" lon="13.25898675971113"><ele>816.0</ele><time>2026-05-02T16:26:40.999Z</time></trkpt><trkpt lat="42.199583028663525" lon="13.25903079634052"><ele>816.0</ele><time>2026-05-02T16:26:41.999Z</time></trkpt><trkpt lat="42.19966626228034" lon="13.259076170964569"><ele>816.0</ele><time>2026-05-02T16:26:42.999Z</time></trkpt><trkpt lat="42.19974188532604" lon="13.259120526254303"><ele>816.0</ele><time>2026-05-02T16:26:43.999Z</time></trkpt><trkpt lat="42.19982465309486" lon="13.259212601972498"><ele>816.0</ele><time>2026-05-02T16:26:45.999Z</time></trkpt><trkpt lat="42.1998878520616" lon="13.259217106101321"><ele>816.0</ele><time>2026-05-02T16:26:47.999Z</time></trkpt><trkpt lat="42.19992396845103" lon="13.25909658616664"><ele>816.0</ele><time>2026-05-02T16:26:50.999Z</time></trkpt><trkpt lat="42.199894704972046" lon="13.259003341693274"><ele>815.8</ele><time>2026-05-02T16:26:51.999Z</time></trkpt><trkpt lat="42.19985306569236" lon="13.258897935946852"><ele>815.5999999999999</ele><time>2026-05-02T16:26:52.999Z</time></trkpt><trkpt lat="42.19981008017698" lon="13.258772175583914"><ele>815.4</ele><time>2026-05-02T16:26:53.999Z</time></trkpt><trkpt lat="42.19976348216198" lon="13.258629260477568"><ele>815.2</ele><time>2026-05-02T16:26:54.999Z</time></trkpt><trkpt lat="42.199719736527406" lon="13.258484819145014"><ele>815.0</ele><time>2026-05-02T16:26:55.999Z</time></trkpt><trkpt lat="42.199674563643136" lon="13.258346887078005"><ele>815.0000000000001</ele><time>2026-05-02T16:26:56.999Z</time></trkpt><trkpt lat="42.199634718978274" lon="13.258221344206648"><ele>815.0</ele><time>2026-05-02T16:26:57.999Z</time></trkpt><trkpt lat="42.1995927528142" lon="13.258110829122632"><ele>815.0</ele><time>2026-05-02T16:26:58.999Z</time></trkpt><trkpt lat="42.19955968188208" lon="13.258012098961586"><ele>815.0</ele><time>2026-05-02T16:26:59.999Z</time></trkpt><trkpt lat="42.1995503846189" lon="13.257927412624813"><ele>815.0000000000001</ele><time>2026-05-02T16:27:00.999Z</time></trkpt><trkpt lat="42.199560895583446" lon="13.257828115702461"><ele>815.0</ele><time>2026-05-02T16:27:01.999Z</time></trkpt><trkpt lat="42.199584662395594" lon="13.257716928050426"><ele>815.2857142857142</ele><time>2026-05-02T16:27:02.999Z</time></trkpt><trkpt lat="42.19961392170478" lon="13.257602783000467"><ele>815.5714285714286</ele><time>2026-05-02T16:27:03.999Z</time></trkpt><trkpt lat="42.199643858674015" lon="13.257498996964959"><ele>815.8571428571429</ele><time>2026-05-02T16:27:04.999Z</time></trkpt><trkpt lat="42.19967283567682" lon="13.257410991849754"><ele>816.1428571428571</ele><time>2026-05-02T16:27:05.999Z</time></trkpt><trkpt lat="42.19970411937436" lon="13.257330232005403"><ele>816.4285714285714</ele><time>2026-05-02T16:27:06.999Z</time></trkpt><trkpt lat="42.19974834855844" lon="13.257261849300326"><ele>816.7142857142857</ele><time>2026-05-02T16:27:07.999Z</time></trkpt><trkpt lat="42.19980880326097" lon="13.257225660333793"><ele>817.0</ele><time>2026-05-02T16:27:08.999Z</time></trkpt><trkpt lat="42.19987312250112" lon="13.257164277330466"><ele>817.8333333333333</ele><time>2026-05-02T16:27:10.999Z</time></trkpt><trkpt lat="42.199821376578974" lon="13.257069187130071"><ele>818.6666666666666</ele><time>2026-05-02T16:27:12.999Z</time></trkpt><trkpt lat="42.19977551949612" lon="13.25701042746736"><ele>819.5</ele><time>2026-05-02T16:27:13.999Z</time></trkpt><trkpt lat="42.19972612634709" lon="13.256933848352858"><ele>820.3333333333333</ele><time>2026-05-02T16:27:14.999Z</time></trkpt><trkpt lat="42.19967065290807" lon="13.256853062874542"><ele>821.1666666666666</ele><time>2026-05-02T16:27:15.999Z</time></trkpt><trkpt lat="42.199623999086" lon="13.256778569893692"><ele>822.0</ele><time>2026-05-02T16:27:16.999Z</time></trkpt><trkpt lat="42.19962889318096" lon="13.256663018884039"><ele>822.0</ele><time>2026-05-02T16:27:18.999Z</time></trkpt><trkpt lat="42.199745827756274" lon="13.256682810309302"><ele>822.0</ele><time>2026-05-02T16:27:20.999Z</time></trkpt><trkpt lat="42.19980520620146" lon="13.256747973667744"><ele>822.0</ele><time>2026-05-02T16:27:21.999Z</time></trkpt><trkpt lat="42.199870224539694" lon="13.256816864452457"><ele>822.0</ele><time>2026-05-02T16:27:22.999Z</time></trkpt><trkpt lat="42.19994382206432" lon="13.256873243332388"><ele>822.0</ele><time>2026-05-02T16:27:23.999Z</time></trkpt><trkpt lat="42.20002689415022" lon="13.256914088348635"><ele>825.0</ele><time>2026-05-02T16:27:24.999Z</time></trkpt><trkpt lat="42.20012064750696" lon="13.256932391097752"><ele>828.0</ele><time>2026-05-02T16:27:25.999Z</time></trkpt><trkpt lat="42.200220601048926" lon="13.256947831771004"><ele>831.0</ele><time>2026-05-02T16:27:26.999Z</time></trkpt><trkpt lat="42.20032110478397" lon="13.256966634522524"><ele>834.0</ele><time>2026-05-02T16:27:27.999Z</time></trkpt><trkpt lat="42.200425274143356" lon="13.256982789375408"><ele>837.0</ele><time>2026-05-02T16:27:28.999Z</time></trkpt><trkpt lat="42.200532669847796" lon="13.257004958743877"><ele>837.0</ele><time>2026-05-02T16:27:29.999Z</time></trkpt><trkpt lat="42.20063816741861" lon="13.257015327114274"><ele>837.0</ele><time>2026-05-02T16:27:30.999Z</time></trkpt><trkpt lat="42.20073678316912" lon="13.257030212931937"><ele>837.0</ele><time>2026-05-02T16:27:31.999Z</time></trkpt><trkpt lat="42.200821309375655" lon="13.257045521001503"><ele>837.0</ele><time>2026-05-02T16:27:32.998Z</time></trkpt><trkpt lat="42.20092536933803" lon="13.257065840772169"><ele>837.0</ele><time>2026-05-02T16:27:34.998Z</time></trkpt><trkpt lat="42.20098200526727" lon="13.257113062792362"><ele>837.0</ele><time>2026-05-02T16:27:37.998Z</time></trkpt><trkpt lat="42.201048637466776" lon="13.257167128799328"><ele>837.0</ele><time>2026-05-02T16:27:39.998Z</time></trkpt><trkpt lat="42.201169503072315" lon="13.257233769731563"><ele>837.0</ele><time>2026-05-02T16:27:41.998Z</time></trkpt><trkpt lat="42.201246632555865" lon="13.257251598977486"><ele>837.0</ele><time>2026-05-02T16:27:42.998Z</time></trkpt><trkpt lat="42.201325914662185" lon="13.25726922669995"><ele>837.0</ele><time>2026-05-02T16:27:43.998Z</time></trkpt><trkpt lat="42.20139773158266" lon="13.257288875037226"><ele>837.0</ele><time>2026-05-02T16:27:44.998Z</time></trkpt><trkpt lat="42.20148894313916" lon="13.257316783076703"><ele>839.2</ele><time>2026-05-02T16:27:46.998Z</time></trkpt><trkpt lat="42.20156172650626" lon="13.257333046571329"><ele>841.4000000000001</ele><time>2026-05-02T16:27:49.998Z</time></trkpt><trkpt lat="42.20138553887614" lon="13.25728150346939"><ele>843.5999999999999</ele><time>2026-05-02T16:28:28.999Z</time></trkpt><trkpt lat="42.20127779188543" lon="13.257254096784953"><ele>845.8</ele><time>2026-05-02T16:28:30.999Z</time></trkpt><trkpt lat="42.201198086856344" lon="13.257228755466699"><ele>848.0</ele><time>2026-05-02T16:28:32.999Z</time></trkpt><trkpt lat="42.20113349759143" lon="13.25721498038262"><ele>849.0</ele><time>2026-05-02T16:28:34.999Z</time></trkpt><trkpt lat="42.20106033756965" lon="13.25719287215042"><ele>850.0</ele><time>2026-05-02T16:28:36.999Z</time></trkpt><trkpt lat="42.20098579531904" lon="13.257115913155435"><ele>851.0</ele><time>2026-05-02T16:28:38.999Z</time></trkpt><trkpt lat="42.20088394345359" lon="13.256976770205652"><ele>852.0</ele><time>2026-05-02T16:28:41.999Z</time></trkpt><trkpt lat="42.2008547101158" lon="13.25689960344549"><ele>853.0</ele><time>2026-05-02T16:28:43.999Z</time></trkpt><trkpt lat="42.200931369144904" lon="13.256850553683304"><ele>853.0</ele><time>2026-05-02T16:29:32.999Z</time></trkpt><trkpt lat="42.20100821040022" lon="13.256840042969342"><ele>853.0</ele><time>2026-05-02T16:29:34.999Z</time></trkpt><trkpt lat="42.20111823467661" lon="13.256852127742262"><ele>853.0</ele><time>2026-05-02T16:29:36.999Z</time></trkpt><trkpt lat="42.20121636335379" lon="13.25685904699533"><ele>853.0</ele><time>2026-05-02T16:29:38.999Z</time></trkpt><trkpt lat="42.201304094818845" lon="13.256861362098205"><ele>853.0</ele><time>2026-05-02T16:29:40.998Z</time></trkpt><trkpt lat="42.20138019426709" lon="13.256839085037067"><ele>853.0</ele><time>2026-05-02T16:29:42.998Z</time></trkpt><trkpt lat="42.20147771472558" lon="13.256832900732736"><ele>853.0</ele><time>2026-05-02T16:29:44.998Z</time></trkpt><trkpt lat="42.20159271804809" lon="13.25683019380204"><ele>853.0</ele><time>2026-05-02T16:29:46.998Z</time></trkpt><trkpt lat="42.20166573349504" lon="13.256827777961858"><ele>853.0</ele><time>2026-05-02T16:29:47.998Z</time></trkpt><trkpt lat="42.20179450579496" lon="13.256835757651784"><ele>853.0</ele><time>2026-05-02T16:29:49.998Z</time></trkpt><trkpt lat="42.20186065356695" lon="13.256841558782694"><ele>855.4285714285714</ele><time>2026-05-02T16:29:50.998Z</time></trkpt><trkpt lat="42.20192781699218" lon="13.256843825579343"><ele>857.8571428571429</ele><time>2026-05-02T16:29:51.998Z</time></trkpt><trkpt lat="42.201992157074606" lon="13.256844025721831"><ele>860.2857142857143</ele><time>2026-05-02T16:29:52.998Z</time></trkpt><trkpt lat="42.20205787430619" lon="13.256833507753365"><ele>862.7142857142858</ele><time>2026-05-02T16:29:53.998Z</time></trkpt><trkpt lat="42.202131381758406" lon="13.256830628310897"><ele>865.1428571428571</ele><time>2026-05-02T16:29:54.998Z</time></trkpt><trkpt lat="42.202202742466625" lon="13.256823901928522"><ele>867.5714285714287</ele><time>2026-05-02T16:29:55.998Z</time></trkpt><trkpt lat="42.20226813972071" lon="13.256814725820266"><ele>870.0</ele><time>2026-05-02T16:29:56.998Z</time></trkpt><trkpt lat="42.20238921762545" lon="13.256779072988113"><ele>871.4</ele><time>2026-05-02T16:29:58.998Z</time></trkpt><trkpt lat="42.20250299895098" lon="13.256719839381672"><ele>872.8</ele><time>2026-05-02T16:30:00.998Z</time></trkpt><trkpt lat="42.20257212446864" lon="13.256711879003754"><ele>874.2</ele><time>2026-05-02T16:30:01.998Z</time></trkpt><trkpt lat="42.2026725971302" lon="13.256688066690769"><ele>875.6</ele><time>2026-05-02T16:30:03.998Z</time></trkpt><trkpt lat="42.2027801570553" lon="13.256638975518277"><ele>877.0</ele><time>2026-05-02T16:30:05.998Z</time></trkpt><trkpt lat="42.20282968182511" lon="13.256567584976603"><ele>877.0</ele><time>2026-05-02T16:30:09Z</time></trkpt><trkpt lat="42.20289909090816" lon="13.256457174654901"><ele>877.0</ele><time>2026-05-02T16:30:27Z</time></trkpt><trkpt lat="42.202971815541524" lon="13.256328148921217"><ele>877.0</ele><time>2026-05-02T16:30:29Z</time></trkpt><trkpt lat="42.203025145856074" lon="13.256185211845432"><ele>877.0</ele><time>2026-05-02T16:30:31Z</time></trkpt><trkpt lat="42.20307751964446" lon="13.256046015080686"><ele>877.9999999999999</ele><time>2026-05-02T16:30:33Z</time></trkpt><trkpt lat="42.20315145645861" lon="13.255918801714373"><ele>879.0</ele><time>2026-05-02T16:30:35Z</time></trkpt><trkpt lat="42.20319663054231" lon="13.255852602904316"><ele>880.0</ele><time>2026-05-02T16:30:36Z</time></trkpt><trkpt lat="42.203243543072944" lon="13.255789563214687"><ele>881.0</ele><time>2026-05-02T16:30:36.999Z</time></trkpt><trkpt lat="42.203290528384144" lon="13.25571461982918"><ele>881.9999999999999</ele><time>2026-05-02T16:30:37.999Z</time></trkpt><trkpt lat="42.203325253657084" lon="13.255637448860083"><ele>883.0</ele><time>2026-05-02T16:30:38.999Z</time></trkpt><trkpt lat="42.20333057094214" lon="13.25547961997598"><ele>884.8333333333333</ele><time>2026-05-02T16:30:40.999Z</time></trkpt><trkpt lat="42.203303688461986" lon="13.255398771182753"><ele>886.6666666666666</ele><time>2026-05-02T16:30:41.999Z</time></trkpt><trkpt lat="42.20326222161605" lon="13.255228136242458"><ele>888.5</ele><time>2026-05-02T16:30:43.999Z</time></trkpt><trkpt lat="42.20325491551445" lon="13.255132675016036"><ele>890.3333333333333</ele><time>2026-05-02T16:30:44.999Z</time></trkpt><trkpt lat="42.203252245016074" lon="13.255044149190335"><ele>892.1666666666666</ele><time>2026-05-02T16:30:45.999Z</time></trkpt><trkpt lat="42.203266089995076" lon="13.254916930220123"><ele>894.0</ele><time>2026-05-02T16:30:47.999Z</time></trkpt><trkpt lat="42.20334569907922" lon="13.254885262390617"><ele>894.0</ele><time>2026-05-02T16:30:50.999Z</time></trkpt><trkpt lat="42.20339948169244" lon="13.254969737608722"><ele>894.0000000000001</ele><time>2026-05-02T16:30:52.999Z</time></trkpt><trkpt lat="42.20346665137886" lon="13.255081752042184"><ele>894.0000000000001</ele><time>2026-05-02T16:30:54.999Z</time></trkpt><trkpt lat="42.20359426409995" lon="13.255125715902585"><ele>894.0</ele><time>2026-05-02T16:30:56.999Z</time></trkpt><trkpt lat="42.20366748243858" lon="13.255190020915698"><ele>894.0</ele><time>2026-05-02T16:30:57.999Z</time></trkpt><trkpt lat="42.203745574839694" lon="13.255268066057779"><ele>894.0</ele><time>2026-05-02T16:30:58.999Z</time></trkpt><trkpt lat="42.2038319129636" lon="13.255356092396276"><ele>894.0000000000001</ele><time>2026-05-02T16:30:59.999Z</time></trkpt><trkpt lat="42.203912750511854" lon="13.255436511141053"><ele>894.0000000000001</ele><time>2026-05-02T16:31:00.999Z</time></trkpt><trkpt lat="42.20399226784564" lon="13.255525030893699"><ele>894.0</ele><time>2026-05-02T16:31:01.999Z</time></trkpt><trkpt lat="42.20405898565843" lon="13.25562998290501"><ele>894.0</ele><time>2026-05-02T16:31:02.999Z</time></trkpt><trkpt lat="42.20413218922047" lon="13.2557391979183"><ele>895.5</ele><time>2026-05-02T16:31:03.999Z</time></trkpt><trkpt lat="42.20422212758607" lon="13.255858369061457"><ele>897.0</ele><time>2026-05-02T16:31:04.999Z</time></trkpt><trkpt lat="42.20433208403285" lon="13.255962067448754"><ele>898.5</ele><time>2026-05-02T16:31:05.999Z</time></trkpt><trkpt lat="42.20445669289492" lon="13.256049831498148"><ele>900.0</ele><time>2026-05-02T16:31:06.999Z</time></trkpt><trkpt lat="42.20459218755983" lon="13.256116315760341"><ele>900.0</ele><time>2026-05-02T16:31:07.999Z</time></trkpt><trkpt lat="42.20472270195548" lon="13.256191784257654"><ele>900.0</ele><time>2026-05-02T16:31:08.999Z</time></trkpt><trkpt lat="42.20483365680893" lon="13.256285273907835"><ele>900.0</ele><time>2026-05-02T16:31:09.999Z</time></trkpt><trkpt lat="42.20493306289394" lon="13.256401405553499"><ele>900.0</ele><time>2026-05-02T16:31:10.999Z</time></trkpt><trkpt lat="42.205018130337365" lon="13.25654016938914"><ele>902.5</ele><time>2026-05-02T16:31:11.999Z</time></trkpt><trkpt lat="42.20510055658607" lon="13.256685521911772"><ele>905.0</ele><time>2026-05-02T16:31:12.999Z</time></trkpt><trkpt lat="42.20517060384686" lon="13.256847793107609"><ele>907.5</ele><time>2026-05-02T16:31:13.999Z</time></trkpt><trkpt lat="42.205244326508094" lon="13.257012014635196"><ele>910.0</ele><time>2026-05-02T16:31:14.999Z</time></trkpt><trkpt lat="42.2053212320818" lon="13.257173023330507"><ele>907.0</ele><time>2026-05-02T16:31:15.999Z</time></trkpt><trkpt lat="42.20538314579033" lon="13.257331947546808"><ele>904.0</ele><time>2026-05-02T16:31:16.999Z</time></trkpt><trkpt lat="42.20543434196271" lon="13.257490093049064"><ele>901.0</ele><time>2026-05-02T16:31:17.999Z</time></trkpt><trkpt lat="42.20549902940977" lon="13.257633883961805"><ele>898.0</ele><time>2026-05-02T16:31:18.999Z</time></trkpt><trkpt lat="42.20557112933493" lon="13.257752913135102"><ele>898.0</ele><time>2026-05-02T16:31:19.999Z</time></trkpt><trkpt lat="42.205635805108074" lon="13.25783492576233"><ele>898.0</ele><time>2026-05-02T16:31:20.999Z</time></trkpt><trkpt lat="42.2057110366676" lon="13.257890391356787"><ele>898.0</ele><time>2026-05-02T16:31:21.999Z</time></trkpt><trkpt lat="42.20579077721855" lon="13.257921691146162"><ele>898.0</ele><time>2026-05-02T16:31:22.999Z</time></trkpt><trkpt lat="42.20588463557628" lon="13.2579559256427"><ele>898.0</ele><time>2026-05-02T16:31:23.999Z</time></trkpt><trkpt lat="42.20597900327157" lon="13.25800804783648"><ele>901.8</ele><time>2026-05-02T16:31:24.999Z</time></trkpt><trkpt lat="42.20606633975617" lon="13.258075776157904"><ele>905.5999999999999</ele><time>2026-05-02T16:31:25.999Z</time></trkpt><trkpt lat="42.20613597635823" lon="13.258144132619718"><ele>909.4000000000001</ele><time>2026-05-02T16:31:26.999Z</time></trkpt><trkpt lat="42.20618804120607" lon="13.258244659069172"><ele>913.2</ele><time>2026-05-02T16:31:27.999Z</time></trkpt><trkpt lat="42.20620624375535" lon="13.258364375475404"><ele>917.0</ele><time>2026-05-02T16:31:28.999Z</time></trkpt><trkpt lat="42.206198442133584" lon="13.258508670508402"><ele>917.0</ele><time>2026-05-02T16:31:29.999Z</time></trkpt><trkpt lat="42.206185885576396" lon="13.258665630851791"><ele>917.0</ele><time>2026-05-02T16:31:30.999Z</time></trkpt><trkpt lat="42.20617417147108" lon="13.258835937890716"><ele>917.0</ele><time>2026-05-02T16:31:31.999Z</time></trkpt><trkpt lat="42.20616517069287" lon="13.259013222817114"><ele>917.0</ele><time>2026-05-02T16:31:32.999Z</time></trkpt><trkpt lat="42.20615994795522" lon="13.25919190160915"><ele>915.8</ele><time>2026-05-02T16:31:33.999Z</time></trkpt><trkpt lat="42.20615789441117" lon="13.259362015176674"><ele>914.6</ele><time>2026-05-02T16:31:34.999Z</time></trkpt><trkpt lat="42.206162738288896" lon="13.259515243184122"><ele>913.3999999999999</ele><time>2026-05-02T16:31:35.999Z</time></trkpt><trkpt lat="42.20618147754996" lon="13.259655358647839"><ele>912.1999999999999</ele><time>2026-05-02T16:31:36.999Z</time></trkpt><trkpt lat="42.20622313540679" lon="13.259782208690707"><ele>911.0</ele><time>2026-05-02T16:31:37.999Z</time></trkpt><trkpt lat="42.20629033151785" lon="13.259876331841033"><ele>909.5</ele><time>2026-05-02T16:31:38.999Z</time></trkpt><trkpt lat="42.206380950779185" lon="13.260000953112684"><ele>908.0</ele><time>2026-05-02T16:31:39.999Z</time></trkpt><trkpt lat="42.20648110123409" lon="13.260121326662798"><ele>906.5</ele><time>2026-05-02T16:31:40.999Z</time></trkpt><trkpt lat="42.20657840554185" lon="13.260252738874351"><ele>905.0</ele><time>2026-05-02T16:31:41.999Z</time></trkpt><trkpt lat="42.20667232273885" lon="13.26038761578691"><ele>910.25</ele><time>2026-05-02T16:31:42.999Z</time></trkpt><trkpt lat="42.20676301841557" lon="13.26054167289176"><ele>915.5</ele><time>2026-05-02T16:31:43.999Z</time></trkpt><trkpt lat="42.20685676752162" lon="13.260690722214118"><ele>920.75</ele><time>2026-05-02T16:31:44.999Z</time></trkpt><trkpt lat="42.2069532779693" lon="13.26084384034462"><ele>926.0</ele><time>2026-05-02T16:31:45.999Z</time></trkpt><trkpt lat="42.20704510748821" lon="13.260998103195568"><ele>926.0</ele><time>2026-05-02T16:31:46.999Z</time></trkpt><trkpt lat="42.207127229312626" lon="13.261147576734901"><ele>926.0</ele><time>2026-05-02T16:31:47.999Z</time></trkpt><trkpt lat="42.207199167729996" lon="13.26128897310013"><ele>926.0</ele><time>2026-05-02T16:31:48.998Z</time></trkpt><trkpt lat="42.20726468390065" lon="13.26141536268917"><ele>926.0</ele><time>2026-05-02T16:31:49.998Z</time></trkpt><trkpt lat="42.207331985585576" lon="13.26154258869574"><ele>929.4</ele><time>2026-05-02T16:31:50.998Z</time></trkpt><trkpt lat="42.207405477923956" lon="13.261670533402054"><ele>932.8</ele><time>2026-05-02T16:31:51.998Z</time></trkpt><trkpt lat="42.207487118926785" lon="13.261783780743526"><ele>936.1999999999999</ele><time>2026-05-02T16:31:52.998Z</time></trkpt><trkpt lat="42.20757048850281" lon="13.261868908855483"><ele>939.5999999999999</ele><time>2026-05-02T16:31:53.998Z</time></trkpt><trkpt lat="42.20764912209573" lon="13.261914949662511"><ele>943.0</ele><time>2026-05-02T16:31:54.998Z</time></trkpt><trkpt lat="42.20771790136679" lon="13.261912653969386"><ele>942.9999999999999</ele><time>2026-05-02T16:31:55.998Z</time></trkpt><trkpt lat="42.20777983572746" lon="13.261859640662864"><ele>943.0</ele><time>2026-05-02T16:31:56.998Z</time></trkpt><trkpt lat="42.20782887310865" lon="13.261776400435751"><ele>943.0</ele><time>2026-05-02T16:31:57.998Z</time></trkpt><trkpt lat="42.20788207915722" lon="13.261680543924351"><ele>943.0</ele><time>2026-05-02T16:31:58.998Z</time></trkpt><trkpt lat="42.20792045478045" lon="13.261593771561051"><ele>942.9999999999999</ele><time>2026-05-02T16:31:59.998Z</time></trkpt><trkpt lat="42.207880244578185" lon="13.261480160554012"><ele>943.0</ele><time>2026-05-02T16:32:01.998Z</time></trkpt><trkpt lat="42.20775759484718" lon="13.26153421821254"><ele>942.9999999999999</ele><time>2026-05-02T16:32:03.998Z</time></trkpt><trkpt lat="42.2076884863921" lon="13.261600711084187"><ele>943.0</ele><time>2026-05-02T16:32:04.998Z</time></trkpt><trkpt lat="42.20762426516" lon="13.261600357843395"><ele>943.0</ele><time>2026-05-02T16:32:05.998Z</time></trkpt><trkpt lat="42.20759510086802" lon="13.261518485740568"><ele>943.0</ele><time>2026-05-02T16:32:06.998Z</time></trkpt><trkpt lat="42.20757972015788" lon="13.26142851786235"><ele>942.9999999999999</ele><time>2026-05-02T16:32:07.998Z</time></trkpt><trkpt lat="42.207561158102145" lon="13.261316601351915"><ele>943.0</ele><time>2026-05-02T16:32:08.998Z</time></trkpt><trkpt lat="42.20752788912161" lon="13.261191947313364"><ele>938.75</ele><time>2026-05-02T16:32:09.998Z</time></trkpt><trkpt lat="42.207475316814396" lon="13.261065769169216"><ele>934.5</ele><time>2026-05-02T16:32:10.998Z</time></trkpt><trkpt lat="42.2074157186341" lon="13.260944587319111"><ele>930.25</ele><time>2026-05-02T16:32:11.998Z</time></trkpt><trkpt lat="42.207348697546415" lon="13.260807183294471"><ele>926.0</ele><time>2026-05-02T16:32:12.998Z</time></trkpt><trkpt lat="42.20728162584297" lon="13.260654032319167"><ele>930.25</ele><time>2026-05-02T16:32:13.998Z</time></trkpt><trkpt lat="42.20721133572541" lon="13.260499305414742"><ele>934.5</ele><time>2026-05-02T16:32:15Z</time></trkpt><trkpt lat="42.207146289723944" lon="13.26033738609993"><ele>938.75</ele><time>2026-05-02T16:32:16Z</time></trkpt><trkpt lat="42.20708909372056" lon="13.260176504242677"><ele>943.0</ele><time>2026-05-02T16:32:17Z</time></trkpt><trkpt lat="42.20704096085878" lon="13.260019036022513"><ele>943.0</ele><time>2026-05-02T16:32:18Z</time></trkpt><trkpt lat="42.20699771934975" lon="13.259869358669262"><ele>943.0</ele><time>2026-05-02T16:32:19Z</time></trkpt><trkpt lat="42.20696339961899" lon="13.2597370791825"><ele>943.0</ele><time>2026-05-02T16:32:20Z</time></trkpt><trkpt lat="42.206931453804195" lon="13.259624319239537"><ele>943.0</ele><time>2026-05-02T16:32:21Z</time></trkpt><trkpt lat="42.20690323758663" lon="13.25952742231772"><ele>943.0</ele><time>2026-05-02T16:32:22Z</time></trkpt><trkpt lat="42.20689441195881" lon="13.259436162214756"><ele>944.5999999999999</ele><time>2026-05-02T16:32:23Z</time></trkpt><trkpt lat="42.2069219315204" lon="13.259327411861802"><ele>946.1999999999999</ele><time>2026-05-02T16:32:24Z</time></trkpt><trkpt lat="42.20697011124032" lon="13.259201772812986"><ele>947.8</ele><time>2026-05-02T16:32:25Z</time></trkpt><trkpt lat="42.207026138054566" lon="13.259071006678683"><ele>949.4</ele><time>2026-05-02T16:32:26Z</time></trkpt><trkpt lat="42.207087512883014" lon="13.258935386017768"><ele>951.0</ele><time>2026-05-02T16:32:27Z</time></trkpt><trkpt lat="42.20714871501602" lon="13.25879655671707"><ele>951.0</ele><time>2026-05-02T16:32:28Z</time></trkpt><trkpt lat="42.207202150369994" lon="13.258653832067774"><ele>951.0</ele><time>2026-05-02T16:32:29Z</time></trkpt><trkpt lat="42.2072348794423" lon="13.258498644770457"><ele>951.0</ele><time>2026-05-02T16:32:30Z</time></trkpt><trkpt lat="42.207261024087224" lon="13.258332827005876"><ele>951.0</ele><time>2026-05-02T16:32:31Z</time></trkpt><trkpt lat="42.207281736109756" lon="13.258163881370072"><ele>954.75</ele><time>2026-05-02T16:32:32Z</time></trkpt><trkpt lat="42.207297903308934" lon="13.257994764560172"><ele>958.5</ele><time>2026-05-02T16:32:33Z</time></trkpt><trkpt lat="42.20729555080528" lon="13.257834612743112"><ele>962.25</ele><time>2026-05-02T16:32:34Z</time></trkpt><trkpt lat="42.207269812938506" lon="13.257686359386893"><ele>966.0</ele><time>2026-05-02T16:32:35Z</time></trkpt><trkpt lat="42.20721384602741" lon="13.257556851388975"><ele>966.0</ele><time>2026-05-02T16:32:36Z</time></trkpt><trkpt lat="42.20712331892624" lon="13.25744163622967"><ele>966.0</ele><time>2026-05-02T16:32:37Z</time></trkpt><trkpt lat="42.20701756728642" lon="13.257334596111285"><ele>966.0</ele><time>2026-05-02T16:32:38Z</time></trkpt><trkpt lat="42.20692302379484" lon="13.257209928109418"><ele>966.0</ele><time>2026-05-02T16:32:39Z</time></trkpt><trkpt lat="42.20682943971453" lon="13.257081422254597"><ele>971.25</ele><time>2026-05-02T16:32:40Z</time></trkpt><trkpt lat="42.206741614337" lon="13.25695504115715"><ele>976.5</ele><time>2026-05-02T16:32:41Z</time></trkpt><trkpt lat="42.206669244157794" lon="13.25684094864647"><ele>981.75</ele><time>2026-05-02T16:32:42Z</time></trkpt><trkpt lat="42.206613929805364" lon="13.256712100725853"><ele>987.0</ele><time>2026-05-02T16:32:43Z</time></trkpt><trkpt lat="42.206565741735446" lon="13.256566271302237"><ele>990.5</ele><time>2026-05-02T16:32:43.999Z</time></trkpt><trkpt lat="42.20652232871907" lon="13.256412047474393"><ele>994.0</ele><time>2026-05-02T16:32:44.999Z</time></trkpt><trkpt lat="42.20648093796814" lon="13.25625024252564"><ele>997.5</ele><time>2026-05-02T16:32:45.999Z</time></trkpt><trkpt lat="42.20645316935498" lon="13.25608321403857"><ele>1001.0</ele><time>2026-05-02T16:32:46.999Z</time></trkpt><trkpt lat="42.20643173054511" lon="13.255918508643717"><ele>994.5</ele><time>2026-05-02T16:32:47.999Z</time></trkpt><trkpt lat="42.206423197844984" lon="13.255759749160799"><ele>988.0</ele><time>2026-05-02T16:32:48.999Z</time></trkpt><trkpt lat="42.20642940114662" lon="13.25560951916171"><ele>981.5</ele><time>2026-05-02T16:32:49.999Z</time></trkpt><trkpt lat="42.20644701538772" lon="13.255455007536286"><ele>975.0</ele><time>2026-05-02T16:32:50.999Z</time></trkpt><trkpt lat="42.20646578296305" lon="13.255294260327371"><ele>975.0</ele><time>2026-05-02T16:32:51.999Z</time></trkpt><trkpt lat="42.20647634230549" lon="13.25512177929229"><ele>975.0</ele><time>2026-05-02T16:32:52.999Z</time></trkpt><trkpt lat="42.206464463802725" lon="13.254939117842504"><ele>975.0</ele><time>2026-05-02T16:32:53.999Z</time></trkpt><trkpt lat="42.20644298560094" lon="13.25475726798886"><ele>975.0</ele><time>2026-05-02T16:32:54.999Z</time></trkpt><trkpt lat="42.20642670254125" lon="13.254570103694052"><ele>974.75</ele><time>2026-05-02T16:32:55.999Z</time></trkpt><trkpt lat="42.20644854252987" lon="13.254387248793021"><ele>974.5</ele><time>2026-05-02T16:32:56.999Z</time></trkpt><trkpt lat="42.20644984989897" lon="13.254225536158179"><ele>974.25</ele><time>2026-05-02T16:32:57.999Z</time></trkpt><trkpt lat="42.206386588316995" lon="13.25409724622483"><ele>974.0</ele><time>2026-05-02T16:32:58.999Z</time></trkpt><trkpt lat="42.20640451425904" lon="13.253945481279787"><ele>974.0</ele><time>2026-05-02T16:32:59.999Z</time></trkpt><trkpt lat="42.20643051276357" lon="13.253794507371047"><ele>974.0</ele><time>2026-05-02T16:33:00.999Z</time></trkpt><trkpt lat="42.20647513081351" lon="13.253627667463286"><ele>974.0</ele><time>2026-05-02T16:33:01.999Z</time></trkpt><trkpt lat="42.206521006931204" lon="13.253463475452607"><ele>974.0</ele><time>2026-05-02T16:33:02.999Z</time></trkpt><trkpt lat="42.20658462679078" lon="13.253303668494626"><ele>979.8000000000001</ele><time>2026-05-02T16:33:03.999Z</time></trkpt><trkpt lat="42.2066462038946" lon="13.253153521780362"><ele>985.6000000000001</ele><time>2026-05-02T16:33:04.999Z</time></trkpt><trkpt lat="42.206693575775745" lon="13.253007108580425"><ele>991.4</ele><time>2026-05-02T16:33:05.999Z</time></trkpt><trkpt lat="42.20673841594427" lon="13.252880576434361"><ele>997.2</ele><time>2026-05-02T16:33:06.999Z</time></trkpt><trkpt lat="42.206777109555155" lon="13.252772776597329"><ele>1003.0</ele><time>2026-05-02T16:33:07.999Z</time></trkpt><trkpt lat="42.20679988427965" lon="13.252681266606578"><ele>1002.9999999999999</ele><time>2026-05-02T16:33:08.999Z</time></trkpt><trkpt lat="42.20685844840831" lon="13.25263152977644"><ele>1003.0</ele><time>2026-05-02T16:33:11.999Z</time></trkpt><trkpt lat="42.20689478515723" lon="13.252747599216647"><ele>1003.0</ele><time>2026-05-02T16:33:13.999Z</time></trkpt><trkpt lat="42.20686347153951" lon="13.252891073487444"><ele>1003.0</ele><time>2026-05-02T16:33:15.999Z</time></trkpt><trkpt lat="42.20684730136286" lon="13.252982391975827"><ele>1002.9999999999999</ele><time>2026-05-02T16:33:16.999Z</time></trkpt><trkpt lat="42.20683582028657" lon="13.253086704681966"><ele>1003.0</ele><time>2026-05-02T16:33:17.999Z</time></trkpt><trkpt lat="42.20682484339276" lon="13.253213078818018"><ele>1003.8333333333333</ele><time>2026-05-02T16:33:18.999Z</time></trkpt><trkpt lat="42.20682163333968" lon="13.253348263856006"><ele>1004.6666666666666</ele><time>2026-05-02T16:33:19.999Z</time></trkpt><trkpt lat="42.20682008687408" lon="13.253470348015604"><ele>1005.5</ele><time>2026-05-02T16:33:20.999Z</time></trkpt><trkpt lat="42.20683547793531" lon="13.253581485385897"><ele>1006.3333333333333</ele><time>2026-05-02T16:33:21.999Z</time></trkpt><trkpt lat="42.20685232760859" lon="13.253687885130065"><ele>1007.1666666666666</ele><time>2026-05-02T16:33:22.999Z</time></trkpt><trkpt lat="42.206864460076666" lon="13.253791506863243"><ele>1008.0</ele><time>2026-05-02T16:33:23.999Z</time></trkpt><trkpt lat="42.206873104599644" lon="13.253880642040144"><ele>1008.5999999999999</ele><time>2026-05-02T16:33:24.999Z</time></trkpt><trkpt lat="42.206938698817964" lon="13.25403166350116"><ele>1009.1999999999999</ele><time>2026-05-02T16:33:26.999Z</time></trkpt><trkpt lat="42.2069805990906" lon="13.254116790392285"><ele>1009.8</ele><time>2026-05-02T16:33:27.999Z</time></trkpt><trkpt lat="42.207023329106306" lon="13.25420808525711"><ele>1010.4</ele><time>2026-05-02T16:33:28.999Z</time></trkpt><trkpt lat="42.20705912681692" lon="13.25431003492397"><ele>1011.0</ele><time>2026-05-02T16:33:29.999Z</time></trkpt><trkpt lat="42.20708174194133" lon="13.254418165902187"><ele>1011.0</ele><time>2026-05-02T16:33:30.999Z</time></trkpt><trkpt lat="42.20710067513693" lon="13.254534750630985"><ele>1010.9999999999999</ele><time>2026-05-02T16:33:31.999Z</time></trkpt><trkpt lat="42.207117189636485" lon="13.254641619634821"><ele>1010.9999999999999</ele><time>2026-05-02T16:33:32.999Z</time></trkpt><trkpt lat="42.2071417030327" lon="13.25474514148018"><ele>1011.0</ele><time>2026-05-02T16:33:33.999Z</time></trkpt><trkpt lat="42.20717579518965" lon="13.25486566328059"><ele>1011.0</ele><time>2026-05-02T16:33:34.999Z</time></trkpt><trkpt lat="42.20721305423737" lon="13.254997780042281"><ele>1010.0</ele><time>2026-05-02T16:33:35.999Z</time></trkpt><trkpt lat="42.20724680195074" lon="13.255150176335658"><ele>1008.9999999999999</ele><time>2026-05-02T16:33:36.999Z</time></trkpt><trkpt lat="42.207281171420334" lon="13.255290009768611"><ele>1007.9999999999999</ele><time>2026-05-02T16:33:37.999Z</time></trkpt><trkpt lat="42.2073024105661" lon="13.25540510651482"><ele>1007.0</ele><time>2026-05-02T16:33:38.999Z</time></trkpt><trkpt lat="42.20731394820976" lon="13.255520126707111"><ele>1006.0</ele><time>2026-05-02T16:33:39.999Z</time></trkpt><trkpt lat="42.20733784521175" lon="13.255639561168639"><ele>1012.1999999999999</ele><time>2026-05-02T16:33:40.999Z</time></trkpt><trkpt lat="42.207369380586535" lon="13.255761318642008"><ele>1018.3999999999999</ele><time>2026-05-02T16:33:41.999Z</time></trkpt><trkpt lat="42.20739590976359" lon="13.255892113020263"><ele>1024.6</ele><time>2026-05-02T16:33:42.999Z</time></trkpt><trkpt lat="42.20741883191625" lon="13.256014336967025"><ele>1030.8</ele><time>2026-05-02T16:33:43.999Z</time></trkpt><trkpt lat="42.20744229710426" lon="13.256129403660164"><ele>1037.0</ele><time>2026-05-02T16:33:44.999Z</time></trkpt><trkpt lat="42.20747742965341" lon="13.256228347427413"><ele>1037.0</ele><time>2026-05-02T16:33:45.999Z</time></trkpt><trkpt lat="42.20752801723465" lon="13.256332296800235"><ele>1037.0</ele><time>2026-05-02T16:33:46.999Z</time></trkpt><trkpt lat="42.20759348129821" lon="13.256424965062717"><ele>1037.0</ele><time>2026-05-02T16:33:47.999Z</time></trkpt><trkpt lat="42.20767509323297" lon="13.256503691414268"><ele>1037.0</ele><time>2026-05-02T16:33:48.999Z</time></trkpt><trkpt lat="42.2077505291939" lon="13.256577785095173"><ele>1037.0</ele><time>2026-05-02T16:33:49.999Z</time></trkpt><trkpt lat="42.2078260674593" lon="13.256648584897007"><ele>1034.0</ele><time>2026-05-02T16:33:50.999Z</time></trkpt><trkpt lat="42.207899356277274" lon="13.256733745662064"><ele>1031.0</ele><time>2026-05-02T16:33:51.999Z</time></trkpt><trkpt lat="42.20796495512645" lon="13.256813952500154"><ele>1028.0</ele><time>2026-05-02T16:33:52.999Z</time></trkpt><trkpt lat="42.20802567499655" lon="13.256892877403558"><ele>1025.0</ele><time>2026-05-02T16:33:53.998Z</time></trkpt><trkpt lat="42.208089168490474" lon="13.256980316543926"><ele>1022.0</ele><time>2026-05-02T16:33:54.998Z</time></trkpt><trkpt lat="42.20815136837316" lon="13.257077702901993"><ele>1026.8</ele><time>2026-05-02T16:33:55.998Z</time></trkpt><trkpt lat="42.20820433860353" lon="13.257189738068178"><ele>1031.6</ele><time>2026-05-02T16:33:56.998Z</time></trkpt><trkpt lat="42.20826027997519" lon="13.257307816320774"><ele>1036.3999999999999</ele><time>2026-05-02T16:33:57.998Z</time></trkpt><trkpt lat="42.20831112874162" lon="13.257415690066313"><ele>1041.2</ele><time>2026-05-02T16:33:58.998Z</time></trkpt><trkpt lat="42.20834908213672" lon="13.257520902293102"><ele>1046.0</ele><time>2026-05-02T16:33:59.998Z</time></trkpt><trkpt lat="42.20837684828047" lon="13.257633147371964"><ele>1046.0</ele><time>2026-05-02T16:34:00.998Z</time></trkpt><trkpt lat="42.208396255887315" lon="13.257756075783934"><ele>1046.0</ele><time>2026-05-02T16:34:01.998Z</time></trkpt><trkpt lat="42.208413159747714" lon="13.257892167889334"><ele>1046.0</ele><time>2026-05-02T16:34:02.998Z</time></trkpt><trkpt lat="42.208420054427286" lon="13.258035694128246"><ele>1046.0</ele><time>2026-05-02T16:34:03.998Z</time></trkpt><trkpt lat="42.20842034680971" lon="13.258167256093866"><ele>1046.0</ele><time>2026-05-02T16:34:04.998Z</time></trkpt><trkpt lat="42.208420721487194" lon="13.2583012132944"><ele>1044.8333333333335</ele><time>2026-05-02T16:34:05.998Z</time></trkpt><trkpt lat="42.20843164067497" lon="13.258423469538029"><ele>1043.6666666666667</ele><time>2026-05-02T16:34:06.998Z</time></trkpt><trkpt lat="42.20845298112173" lon="13.258539542976898"><ele>1042.5</ele><time>2026-05-02T16:34:07.998Z</time></trkpt><trkpt lat="42.2084687264583" lon="13.258634190352655"><ele>1041.3333333333333</ele><time>2026-05-02T16:34:08.998Z</time></trkpt><trkpt lat="42.20850841232608" lon="13.258771657335934"><ele>1040.1666666666665</ele><time>2026-05-02T16:34:10.998Z</time></trkpt><trkpt lat="42.20854331036925" lon="13.258860879807202"><ele>1039.0</ele><time>2026-05-02T16:34:12.998Z</time></trkpt><trkpt lat="42.20859956252917" lon="13.258965627367068"><ele>1037.6000000000001</ele><time>2026-05-02T16:34:14.998Z</time></trkpt><trkpt lat="42.20867681184755" lon="13.25903348917677"><ele>1036.2</ele><time>2026-05-02T16:34:16.998Z</time></trkpt><trkpt lat="42.20878013977364" lon="13.259068550796012"><ele>1034.8000000000002</ele><time>2026-05-02T16:34:18.998Z</time></trkpt><trkpt lat="42.208892230424276" lon="13.259093920521588"><ele>1033.4</ele><time>2026-05-02T16:34:21Z</time></trkpt><trkpt lat="42.209016558462004" lon="13.259124509739408"><ele>1032.0</ele><time>2026-05-02T16:34:23Z</time></trkpt><trkpt lat="42.20908989900239" lon="13.25914232627973"><ele>1036.6666666666667</ele><time>2026-05-02T16:34:24Z</time></trkpt><trkpt lat="42.20916768518256" lon="13.259158366185371"><ele>1041.3333333333333</ele><time>2026-05-02T16:34:25Z</time></trkpt><trkpt lat="42.209245254263074" lon="13.259182473427476"><ele>1046.0</ele><time>2026-05-02T16:34:26Z</time></trkpt><trkpt lat="42.20932010060578" lon="13.259200495980105"><ele>1050.6666666666665</ele><time>2026-05-02T16:34:27Z</time></trkpt><trkpt lat="42.20940099702125" lon="13.25921768256202"><ele>1055.3333333333333</ele><time>2026-05-02T16:34:28Z</time></trkpt><trkpt lat="42.209484177864056" lon="13.259237703116735"><ele>1060.0</ele><time>2026-05-02T16:34:29Z</time></trkpt><trkpt lat="42.20956000531997" lon="13.259253168404392"><ele>1060.0</ele><time>2026-05-02T16:34:30Z</time></trkpt><trkpt lat="42.209639163030204" lon="13.259282913065302"><ele>1060.0</ele><time>2026-05-02T16:34:31Z</time></trkpt><trkpt lat="42.20971168439369" lon="13.259306541769083"><ele>1060.0</ele><time>2026-05-02T16:34:32Z</time></trkpt><trkpt lat="42.209789405656466" lon="13.25933391518055"><ele>1060.0</ele><time>2026-05-02T16:34:33Z</time></trkpt><trkpt lat="42.209867974769445" lon="13.259362252912506"><ele>1060.0</ele><time>2026-05-02T16:34:34Z</time></trkpt><trkpt lat="42.209950437992795" lon="13.259406480199011"><ele>1060.0</ele><time>2026-05-02T16:34:35Z</time></trkpt><trkpt lat="42.210040200275785" lon="13.259459374233737"><ele>1059.0</ele><time>2026-05-02T16:34:36Z</time></trkpt><trkpt lat="42.2101236653047" lon="13.259521049960274"><ele>1058.0</ele><time>2026-05-02T16:34:37Z</time></trkpt><trkpt lat="42.21020720458696" lon="13.259587939453407"><ele>1057.0</ele><time>2026-05-02T16:34:38Z</time></trkpt><trkpt lat="42.21029169206049" lon="13.259654079677173"><ele>1056.0</ele><time>2026-05-02T16:34:39Z</time></trkpt><trkpt lat="42.21036058338901" lon="13.259734193876282"><ele>1055.0</ele><time>2026-05-02T16:34:40Z</time></trkpt><trkpt lat="42.210429790378534" lon="13.259820764566046"><ele>1055.0</ele><time>2026-05-02T16:34:41Z</time></trkpt><trkpt lat="42.21049532711583" lon="13.259901216755372"><ele>1055.0</ele><time>2026-05-02T16:34:42Z</time></trkpt><trkpt lat="42.2105545289671" lon="13.259979896353315"><ele>1055.0</ele><time>2026-05-02T16:34:43Z</time></trkpt><trkpt lat="42.21059884437229" lon="13.260064327521153"><ele>1055.0</ele><time>2026-05-02T16:34:44Z</time></trkpt><trkpt lat="42.21064625593806" lon="13.260152107029738"><ele>1055.0</ele><time>2026-05-02T16:34:45Z</time></trkpt><trkpt lat="42.21068785385207" lon="13.260248711370966"><ele>1055.0</ele><time>2026-05-02T16:34:46Z</time></trkpt><trkpt lat="42.210739562141036" lon="13.260336001705548"><ele>1057.4</ele><time>2026-05-02T16:34:47Z</time></trkpt><trkpt lat="42.210796406692474" lon="13.26043600028358"><ele>1059.8</ele><time>2026-05-02T16:34:48Z</time></trkpt><trkpt lat="42.21086729520481" lon="13.260529670668355"><ele>1062.2</ele><time>2026-05-02T16:34:48.999Z</time></trkpt><trkpt lat="42.21094071099688" lon="13.260613978630444"><ele>1064.6</ele><time>2026-05-02T16:34:49.999Z</time></trkpt><trkpt lat="42.21101199341924" lon="13.260689417403801"><ele>1067.0</ele><time>2026-05-02T16:34:50.999Z</time></trkpt><trkpt lat="42.211079523772895" lon="13.260753052264512"><ele>1067.0</ele><time>2026-05-02T16:34:51.999Z</time></trkpt><trkpt lat="42.21115351935849" lon="13.260807407694726"><ele>1067.0</ele><time>2026-05-02T16:34:52.999Z</time></trkpt><trkpt lat="42.211236381844834" lon="13.260855114627365"><ele>1067.0</ele><time>2026-05-02T16:34:53.999Z</time></trkpt><trkpt lat="42.211321986266185" lon="13.260895950405734"><ele>1067.0</ele><time>2026-05-02T16:34:54.999Z</time></trkpt><trkpt lat="42.21140318512368" lon="13.260931258196534"><ele>1067.0</ele><time>2026-05-02T16:34:55.999Z</time></trkpt><trkpt lat="42.211496674946616" lon="13.260959454017394"><ele>1067.0</ele><time>2026-05-02T16:34:56.999Z</time></trkpt><trkpt lat="42.21158676252709" lon="13.260970690471554"><ele>1072.6666666666667</ele><time>2026-05-02T16:34:57.999Z</time></trkpt><trkpt lat="42.21166745472648" lon="13.260986279419685"><ele>1078.3333333333335</ele><time>2026-05-02T16:34:58.999Z</time></trkpt><trkpt lat="42.211737249186505" lon="13.261021811765364"><ele>1084.0</ele><time>2026-05-02T16:34:59.999Z</time></trkpt><trkpt lat="42.21180704207261" lon="13.261082060363965"><ele>1089.6666666666667</ele><time>2026-05-02T16:35:00.999Z</time></trkpt><trkpt lat="42.21186598697214" lon="13.261135451052796"><ele>1095.3333333333333</ele><time>2026-05-02T16:35:01.999Z</time></trkpt><trkpt lat="42.21192860523782" lon="13.261192973243626"><ele>1101.0</ele><time>2026-05-02T16:35:02.999Z</time></trkpt><trkpt lat="42.211995760013345" lon="13.26123448562442"><ele>1101.0</ele><time>2026-05-02T16:35:03.999Z</time></trkpt><trkpt lat="42.21207379826469" lon="13.261260874152102"><ele>1101.0</ele><time>2026-05-02T16:35:04.999Z</time></trkpt><trkpt lat="42.212153968101774" lon="13.26126881287273"><ele>1101.0</ele><time>2026-05-02T16:35:05.999Z</time></trkpt><trkpt lat="42.21223578838801" lon="13.261266102915195"><ele>1101.0</ele><time>2026-05-02T16:35:06.999Z</time></trkpt><trkpt lat="42.21232417676304" lon="13.26125417563342"><ele>1101.0</ele><time>2026-05-02T16:35:07.999Z</time></trkpt><trkpt lat="42.212412012095264" lon="13.261238507023796"><ele>1101.0</ele><time>2026-05-02T16:35:08.999Z</time></trkpt><trkpt lat="42.21248066134815" lon="13.261221159259769"><ele>1100.6666666666667</ele><time>2026-05-02T16:35:09.999Z</time></trkpt><trkpt lat="42.212598809511874" lon="13.261269051740188"><ele>1100.3333333333333</ele><time>2026-05-02T16:35:11.999Z</time></trkpt><trkpt lat="42.21264140805323" lon="13.261333481795248"><ele>1100.0</ele><time>2026-05-02T16:35:12.999Z</time></trkpt><trkpt lat="42.21267764420524" lon="13.261415653196048"><ele>1099.6666666666665</ele><time>2026-05-02T16:35:13.999Z</time></trkpt><trkpt lat="42.21271043768748" lon="13.261512435682995"><ele>1099.3333333333333</ele><time>2026-05-02T16:35:14.999Z</time></trkpt><trkpt lat="42.21274809610808" lon="13.261613662745567"><ele>1099.0</ele><time>2026-05-02T16:35:15.999Z</time></trkpt><trkpt lat="42.212788835985855" lon="13.261684123934495"><ele>1099.0</ele><time>2026-05-02T16:35:16.999Z</time></trkpt><trkpt lat="42.212850638804966" lon="13.261775736737405"><ele>1099.0</ele><time>2026-05-02T16:35:18.999Z</time></trkpt><trkpt lat="42.21291795540982" lon="13.261868891519773"><ele>1099.0</ele><time>2026-05-02T16:35:20.999Z</time></trkpt><trkpt lat="42.21299790211099" lon="13.261972528032121"><ele>1099.0</ele><time>2026-05-02T16:35:22.999Z</time></trkpt><trkpt lat="42.21304747863319" lon="13.262033577226793"><ele>1099.0</ele><time>2026-05-02T16:35:23.999Z</time></trkpt><trkpt lat="42.21310319389725" lon="13.262113243039408"><ele>1099.0</ele><time>2026-05-02T16:35:24.999Z</time></trkpt><trkpt lat="42.21316445049118" lon="13.262200319264483"><ele>1100.3333333333333</ele><time>2026-05-02T16:35:25.999Z</time></trkpt><trkpt lat="42.21322286829984" lon="13.262279140287763"><ele>1101.6666666666665</ele><time>2026-05-02T16:35:26.999Z</time></trkpt><trkpt lat="42.21328730812603" lon="13.262361045868637"><ele>1103.0</ele><time>2026-05-02T16:35:27.999Z</time></trkpt><trkpt lat="42.21335321495899" lon="13.262436492516159"><ele>1104.3333333333333</ele><time>2026-05-02T16:35:28.999Z</time></trkpt><trkpt lat="42.213422766076775" lon="13.262507547399293"><ele>1105.6666666666667</ele><time>2026-05-02T16:35:29.999Z</time></trkpt><trkpt lat="42.21349674264407" lon="13.262576046277072"><ele>1107.0</ele><time>2026-05-02T16:35:30.999Z</time></trkpt><trkpt lat="42.213559503812014" lon="13.262640960619384"><ele>1107.0</ele><time>2026-05-02T16:35:31.999Z</time></trkpt><trkpt lat="42.213626675953385" lon="13.262707368163298"><ele>1107.0</ele><time>2026-05-02T16:35:32.999Z</time></trkpt><trkpt lat="42.21369281376893" lon="13.262776189949186"><ele>1107.0</ele><time>2026-05-02T16:35:33.999Z</time></trkpt><trkpt lat="42.213750723560466" lon="13.262836002991582"><ele>1107.0</ele><time>2026-05-02T16:35:34.999Z</time></trkpt><trkpt lat="42.213810623286776" lon="13.262890988784342"><ele>1107.0</ele><time>2026-05-02T16:35:35.999Z</time></trkpt><trkpt lat="42.21387551246297" lon="13.262937295873806"><ele>1107.0</ele><time>2026-05-02T16:35:36.999Z</time></trkpt><trkpt lat="42.213947165831755" lon="13.262982035706525"><ele>1107.8333333333333</ele><time>2026-05-02T16:35:37.999Z</time></trkpt><trkpt lat="42.21401756521378" lon="13.263016257022132"><ele>1108.6666666666667</ele><time>2026-05-02T16:35:38.999Z</time></trkpt><trkpt lat="42.21408615250239" lon="13.263042447499803"><ele>1109.5</ele><time>2026-05-02T16:35:39.999Z</time></trkpt><trkpt lat="42.21415288536994" lon="13.263061268548022"><ele>1110.3333333333335</ele><time>2026-05-02T16:35:40.999Z</time></trkpt><trkpt lat="42.21422196860097" lon="13.263086261866507"><ele>1111.1666666666667</ele><time>2026-05-02T16:35:41.999Z</time></trkpt><trkpt lat="42.21430297253678" lon="13.26311556749822"><ele>1112.0</ele><time>2026-05-02T16:35:42.999Z</time></trkpt><trkpt lat="42.214385184526485" lon="13.263126299380273"><ele>1112.0</ele><time>2026-05-02T16:35:43.999Z</time></trkpt><trkpt lat="42.21446697353715" lon="13.263116497334213"><ele>1112.0</ele><time>2026-05-02T16:35:44.999Z</time></trkpt><trkpt lat="42.21455742504701" lon="13.263121732722494"><ele>1112.0</ele><time>2026-05-02T16:35:45.999Z</time></trkpt><trkpt lat="42.214632685626164" lon="13.26311256137877"><ele>1112.0</ele><time>2026-05-02T16:35:46.999Z</time></trkpt><trkpt lat="42.21470402045169" lon="13.263093668620826"><ele>1112.0</ele><time>2026-05-02T16:35:47.999Z</time></trkpt><trkpt lat="42.2147733608723" lon="13.26308108859507"><ele>1112.0</ele><time>2026-05-02T16:35:48.999Z</time></trkpt><trkpt lat="42.21484198602061" lon="13.263072753455296"><ele>1110.5714285714284</ele><time>2026-05-02T16:35:49.999Z</time></trkpt><trkpt lat="42.21491862758284" lon="13.263075417933816"><ele>1109.142857142857</ele><time>2026-05-02T16:35:50.999Z</time></trkpt><trkpt lat="42.21499399158003" lon="13.263092652848544"><ele>1107.7142857142858</ele><time>2026-05-02T16:35:51.999Z</time></trkpt><trkpt lat="42.21506761924606" lon="13.263106906299292"><ele>1106.2857142857142</ele><time>2026-05-02T16:35:52.999Z</time></trkpt><trkpt lat="42.215137767909006" lon="13.263123362852104"><ele>1104.857142857143</ele><time>2026-05-02T16:35:53.999Z</time></trkpt><trkpt lat="42.21520496431472" lon="13.26315084144891"><ele>1103.4285714285713</ele><time>2026-05-02T16:35:54.999Z</time></trkpt><trkpt lat="42.21527245601233" lon="13.263199697080339"><ele>1102.0</ele><time>2026-05-02T16:35:55.999Z</time></trkpt><trkpt lat="42.215338007808896" lon="13.263262102262955"><ele>1101.3333333333333</ele><time>2026-05-02T16:35:56.999Z</time></trkpt><trkpt lat="42.21540390071985" lon="13.26333339138248"><ele>1100.6666666666665</ele><time>2026-05-02T16:35:57.998Z</time></trkpt><trkpt lat="42.215456675389106" lon="13.263399556647041"><ele>1100.0</ele><time>2026-05-02T16:35:58.998Z</time></trkpt><trkpt lat="42.21550077913207" lon="13.263461439695222"><ele>1099.3333333333333</ele><time>2026-05-02T16:35:59.998Z</time></trkpt><trkpt lat="42.21556820848251" lon="13.263593864407605"><ele>1098.6666666666667</ele><time>2026-05-02T16:36:01.998Z</time></trkpt><trkpt lat="42.21555618796264" lon="13.263708631678785"><ele>1098.0</ele><time>2026-05-02T16:36:03.998Z</time></trkpt><trkpt lat="42.21547349016929" lon="13.263800345924272"><ele>1098.0</ele><time>2026-05-02T16:36:05.998Z</time></trkpt><trkpt lat="42.21538198967073" lon="13.263901337297492"><ele>1098.0</ele><time>2026-05-02T16:36:07.998Z</time></trkpt><trkpt lat="42.21537570179782" lon="13.26403586832988"><ele>1098.0</ele><time>2026-05-02T16:36:09.998Z</time></trkpt><trkpt lat="42.215476769435774" lon="13.264123267365171"><ele>1098.0</ele><time>2026-05-02T16:36:11.998Z</time></trkpt><trkpt lat="42.21559422317759" lon="13.264184893257605"><ele>1100.5</ele><time>2026-05-02T16:36:13.998Z</time></trkpt><trkpt lat="42.215672467057715" lon="13.264238486487216"><ele>1103.0</ele><time>2026-05-02T16:36:14.998Z</time></trkpt><trkpt lat="42.21575708210526" lon="13.264269075052626"><ele>1105.5</ele><time>2026-05-02T16:36:15.998Z</time></trkpt><trkpt lat="42.21583180720399" lon="13.264276458777353"><ele>1108.0</ele><time>2026-05-02T16:36:16.998Z</time></trkpt><trkpt lat="42.215897283681414" lon="13.264268506191833"><ele>1110.5</ele><time>2026-05-02T16:36:17.998Z</time></trkpt><trkpt lat="42.21596490952591" lon="13.264255981680128"><ele>1113.0</ele><time>2026-05-02T16:36:18.998Z</time></trkpt><trkpt lat="42.21606920226373" lon="13.264309996349215"><ele>1113.0</ele><time>2026-05-02T16:36:20.998Z</time></trkpt><trkpt lat="42.21612533208309" lon="13.264402397662296"><ele>1113.0</ele><time>2026-05-02T16:36:22.998Z</time></trkpt><trkpt lat="42.21618963539748" lon="13.264555272447684"><ele>1113.0</ele><time>2026-05-02T16:36:24.998Z</time></trkpt><trkpt lat="42.21619650175014" lon="13.26464548017364"><ele>1113.0</ele><time>2026-05-02T16:36:26Z</time></trkpt><trkpt lat="42.216203505449315" lon="13.264740428978804"><ele>1113.0</ele><time>2026-05-02T16:36:27Z</time></trkpt><trkpt lat="42.216187865163384" lon="13.264830477011392"><ele>1113.0</ele><time>2026-05-02T16:36:28Z</time></trkpt><trkpt lat="42.2161309552333" lon="13.264986465190466"><ele>1114.5</ele><time>2026-05-02T16:36:30Z</time></trkpt><trkpt lat="42.21610629572571" lon="13.265141556505743"><ele>1116.0</ele><time>2026-05-02T16:36:32Z</time></trkpt><trkpt lat="42.21613832264445" lon="13.265224976778137"><ele>1117.5</ele><time>2026-05-02T16:36:33Z</time></trkpt><trkpt lat="42.21619086016495" lon="13.265301326419069"><ele>1119.0</ele><time>2026-05-02T16:36:34Z</time></trkpt><trkpt lat="42.21625026866236" lon="13.265364268287374"><ele>1120.5</ele><time>2026-05-02T16:36:35Z</time></trkpt><trkpt lat="42.2163097353602" lon="13.265422347589073"><ele>1122.0</ele><time>2026-05-02T16:36:36Z</time></trkpt><trkpt lat="42.216415007699595" lon="13.265528404379726"><ele>1122.0</ele><time>2026-05-02T16:36:38Z</time></trkpt><trkpt lat="42.216453683074675" lon="13.265600139196831"><ele>1122.0</ele><time>2026-05-02T16:36:39Z</time></trkpt><trkpt lat="42.21648673465397" lon="13.265675450010097"><ele>1122.0</ele><time>2026-05-02T16:36:40Z</time></trkpt><trkpt lat="42.21654150158648" lon="13.26573899410615"><ele>1122.0</ele><time>2026-05-02T16:36:41Z</time></trkpt><trkpt lat="42.216603193222234" lon="13.26579245148052"><ele>1122.0</ele><time>2026-05-02T16:36:42Z</time></trkpt><trkpt lat="42.21667384598545" lon="13.265815593999934"><ele>1122.0</ele><time>2026-05-02T16:36:43Z</time></trkpt><trkpt lat="42.21674374867283" lon="13.265842611783382"><ele>1122.0</ele><time>2026-05-02T16:36:44Z</time></trkpt><trkpt lat="42.21681080110567" lon="13.265878186707628"><ele>1121.6666666666667</ele><time>2026-05-02T16:36:45Z</time></trkpt><trkpt lat="42.21688194440371" lon="13.265913512906488"><ele>1121.3333333333333</ele><time>2026-05-02T16:36:46Z</time></trkpt><trkpt lat="42.21695692627281" lon="13.265959817674386"><ele>1121.0</ele><time>2026-05-02T16:36:47Z</time></trkpt><trkpt lat="42.217036781175814" lon="13.265990076414344"><ele>1120.6666666666665</ele><time>2026-05-02T16:36:48Z</time></trkpt><trkpt lat="42.21713003787925" lon="13.266005581535605"><ele>1120.3333333333333</ele><time>2026-05-02T16:36:49Z</time></trkpt><trkpt lat="42.21721128525243" lon="13.266024401133528"><ele>1120.0</ele><time>2026-05-02T16:36:50Z</time></trkpt><trkpt lat="42.217283953310954" lon="13.26603458373334"><ele>1118.0</ele><time>2026-05-02T16:36:51Z</time></trkpt><trkpt lat="42.21740201037817" lon="13.266038161764296"><ele>1116.0</ele><time>2026-05-02T16:36:53Z</time></trkpt><trkpt lat="42.21752763872807" lon="13.266017423950617"><ele>1114.0</ele><time>2026-05-02T16:36:54.999Z</time></trkpt><trkpt lat="42.217595865502" lon="13.266016762678877"><ele>1112.0</ele><time>2026-05-02T16:36:55.999Z</time></trkpt><trkpt lat="42.21767265795511" lon="13.266074937389762"><ele>1110.0</ele><time>2026-05-02T16:36:57.999Z</time></trkpt><trkpt lat="42.217726032677064" lon="13.266126626803588"><ele>1110.0</ele><time>2026-05-02T16:36:58.999Z</time></trkpt><trkpt lat="42.217783090416525" lon="13.266188681272679"><ele>1110.0</ele><time>2026-05-02T16:36:59.999Z</time></trkpt><trkpt lat="42.217846653556236" lon="13.26624297407352"><ele>1110.0</ele><time>2026-05-02T16:37:00.999Z</time></trkpt><trkpt lat="42.21790845973689" lon="13.266265824943172"><ele>1110.0</ele><time>2026-05-02T16:37:01.999Z</time></trkpt><trkpt lat="42.21801955437635" lon="13.266222676641785"><ele>1110.0</ele><time>2026-05-02T16:37:03.999Z</time></trkpt><trkpt lat="42.21808630903665" lon="13.266090413346362"><ele>1110.0</ele><time>2026-05-02T16:37:05.999Z</time></trkpt><trkpt lat="42.218121459880955" lon="13.265969839347683"><ele>1110.75</ele><time>2026-05-02T16:37:07.999Z</time></trkpt><trkpt lat="42.21822564716076" lon="13.265872355352833"><ele>1111.5</ele><time>2026-05-02T16:37:09.999Z</time></trkpt><trkpt lat="42.21833589851905" lon="13.265842823336218"><ele>1112.25</ele><time>2026-05-02T16:37:11.999Z</time></trkpt><trkpt lat="42.21847769566248" lon="13.26584262419259"><ele>1113.0</ele><time>2026-05-02T16:37:13.999Z</time></trkpt><trkpt lat="42.21855540764993" lon="13.265834716628408"><ele>1113.0</ele><time>2026-05-02T16:37:14.999Z</time></trkpt><trkpt lat="42.21862059966276" lon="13.26581184722052"><ele>1113.0</ele><time>2026-05-02T16:37:15.999Z</time></trkpt><trkpt lat="42.21868958658569" lon="13.265761091006096"><ele>1113.0</ele><time>2026-05-02T16:37:16.999Z</time></trkpt><trkpt lat="42.21876246893938" lon="13.265695826955566"><ele>1113.0</ele><time>2026-05-02T16:37:17.999Z</time></trkpt><trkpt lat="42.218852075353944" lon="13.265642395655561"><ele>1113.0</ele><time>2026-05-02T16:37:18.999Z</time></trkpt><trkpt lat="42.218954354623854" lon="13.265618425246522"><ele>1113.0</ele><time>2026-05-02T16:37:19.999Z</time></trkpt><trkpt lat="42.21903183995806" lon="13.265599614418363"><ele>1113.5</ele><time>2026-05-02T16:37:20.999Z</time></trkpt><trkpt lat="42.21910820092075" lon="13.265567955864293"><ele>1114.0</ele><time>2026-05-02T16:37:21.999Z</time></trkpt><trkpt lat="42.2191778706146" lon="13.265514210580747"><ele>1114.5</ele><time>2026-05-02T16:37:22.999Z</time></trkpt><trkpt lat="42.21925289171661" lon="13.265440598602327"><ele>1115.0</ele><time>2026-05-02T16:37:23.999Z</time></trkpt><trkpt lat="42.219322229945625" lon="13.265361050903826"><ele>1115.5</ele><time>2026-05-02T16:37:24.999Z</time></trkpt><trkpt lat="42.21939406336103" lon="13.265289003635912"><ele>1116.0</ele><time>2026-05-02T16:37:25.999Z</time></trkpt><trkpt lat="42.219463161297966" lon="13.265235546094546"><ele>1116.0</ele><time>2026-05-02T16:37:26.999Z</time></trkpt><trkpt lat="42.21953778554687" lon="13.265181138300159"><ele>1116.0</ele><time>2026-05-02T16:37:27.999Z</time></trkpt><trkpt lat="42.21961097765465" lon="13.265114773513575"><ele>1116.0</ele><time>2026-05-02T16:37:28.999Z</time></trkpt><trkpt lat="42.21968698794337" lon="13.265038808093728"><ele>1116.0</ele><time>2026-05-02T16:37:29.999Z</time></trkpt><trkpt lat="42.21974925456672" lon="13.26494909425888"><ele>1116.0</ele><time>2026-05-02T16:37:30.999Z</time></trkpt><trkpt lat="42.21979404951192" lon="13.264843806287395"><ele>1116.0</ele><time>2026-05-02T16:37:31.999Z</time></trkpt><trkpt lat="42.219829089785264" lon="13.26474189336432"><ele>1117.1666666666667</ele><time>2026-05-02T16:37:32.999Z</time></trkpt><trkpt lat="42.21987097410496" lon="13.264663215330476"><ele>1118.3333333333333</ele><time>2026-05-02T16:37:33.999Z</time></trkpt><trkpt lat="42.21991507613503" lon="13.264589946310007"><ele>1119.5</ele><time>2026-05-02T16:37:34.999Z</time></trkpt><trkpt lat="42.21997509081729" lon="13.264531597773228"><ele>1120.6666666666665</ele><time>2026-05-02T16:37:35.999Z</time></trkpt><trkpt lat="42.220046235705574" lon="13.264481383198053"><ele>1121.8333333333333</ele><time>2026-05-02T16:37:36.999Z</time></trkpt><trkpt lat="42.22013363564078" lon="13.264482758319732"><ele>1123.0</ele><time>2026-05-02T16:37:38.999Z</time></trkpt><trkpt lat="42.220220580483605" lon="13.26458103976545"><ele>1123.0</ele><time>2026-05-02T16:37:40.999Z</time></trkpt><trkpt lat="42.22026137266931" lon="13.264653903079369"><ele>1123.0</ele><time>2026-05-02T16:37:41.999Z</time></trkpt><trkpt lat="42.22034333256788" lon="13.26475427475538"><ele>1123.0</ele><time>2026-05-02T16:37:43.999Z</time></trkpt><trkpt lat="42.220480175239466" lon="13.264787011994807"><ele>1123.0</ele><time>2026-05-02T16:37:45.999Z</time></trkpt><trkpt lat="42.220547800626136" lon="13.26476452050633"><ele>1123.0</ele><time>2026-05-02T16:37:46.999Z</time></trkpt><trkpt lat="42.22066750194751" lon="13.264748365555953"><ele>1124.0</ele><time>2026-05-02T16:37:48.999Z</time></trkpt><trkpt lat="42.220736370866916" lon="13.264757732649798"><ele>1125.0</ele><time>2026-05-02T16:37:49.999Z</time></trkpt><trkpt lat="42.220802434159296" lon="13.264768748732365"><ele>1126.0</ele><time>2026-05-02T16:37:50.999Z</time></trkpt><trkpt lat="42.220920820853124" lon="13.264808140428249"><ele>1127.0</ele><time>2026-05-02T16:37:52.999Z</time></trkpt><trkpt lat="42.22099604265033" lon="13.26484467122374"><ele>1128.0</ele><time>2026-05-02T16:37:53.999Z</time></trkpt><trkpt lat="42.22106032875856" lon="13.264889372701301"><ele>1129.0</ele><time>2026-05-02T16:37:54.999Z</time></trkpt><trkpt lat="42.22111615529989" lon="13.264938280136985"><ele>1129.0</ele><time>2026-05-02T16:37:55.999Z</time></trkpt><trkpt lat="42.221175133091464" lon="13.265000643486378"><ele>1129.0</ele><time>2026-05-02T16:37:56.999Z</time></trkpt><trkpt lat="42.221227119177264" lon="13.265060937810906"><ele>1129.0</ele><time>2026-05-02T16:37:57.999Z</time></trkpt><trkpt lat="42.22127924224784" lon="13.26512464579558"><ele>1129.0</ele><time>2026-05-02T16:37:58.999Z</time></trkpt><trkpt lat="42.22132474199316" lon="13.26518378568776"><ele>1129.0</ele><time>2026-05-02T16:37:59.999Z</time></trkpt><trkpt lat="42.22141297499864" lon="13.2652326047412"><ele>1129.0</ele><time>2026-05-02T16:38:01.999Z</time></trkpt><trkpt lat="42.22151022854616" lon="13.265155665190848"><ele>1128.1666666666665</ele><time>2026-05-02T16:38:03.998Z</time></trkpt><trkpt lat="42.2215990876448" lon="13.265018295190218"><ele>1127.3333333333333</ele><time>2026-05-02T16:38:05.998Z</time></trkpt><trkpt lat="42.22165634349766" lon="13.264957300853656"><ele>1126.5</ele><time>2026-05-02T16:38:06.998Z</time></trkpt><trkpt lat="42.22172434145767" lon="13.264900278076095"><ele>1125.6666666666667</ele><time>2026-05-02T16:38:07.998Z</time></trkpt><trkpt lat="42.22179216187683" lon="13.26483672512392"><ele>1124.8333333333335</ele><time>2026-05-02T16:38:08.998Z</time></trkpt><trkpt lat="42.22184408975759" lon="13.264764047350035"><ele>1124.0</ele><time>2026-05-02T16:38:09.998Z</time></trkpt><trkpt lat="42.22188904611186" lon="13.264691550628376"><ele>1124.6000000000001</ele><time>2026-05-02T16:38:10.998Z</time></trkpt><trkpt lat="42.22194341118434" lon="13.2646230241365"><ele>1125.2</ele><time>2026-05-02T16:38:11.998Z</time></trkpt><trkpt lat="42.22204860928157" lon="13.264541170251734"><ele>1125.8000000000002</ele><time>2026-05-02T16:38:13.998Z</time></trkpt><trkpt lat="42.2221540288753" lon="13.264482268868322"><ele>1126.4</ele><time>2026-05-02T16:38:15.998Z</time></trkpt><trkpt lat="42.222267593815694" lon="13.264411036358625"><ele>1127.0</ele><time>2026-05-02T16:38:17.998Z</time></trkpt><trkpt lat="42.22232978733886" lon="13.2643680642859"><ele>1127.0</ele><time>2026-05-02T16:38:18.998Z</time></trkpt><trkpt lat="42.22238371305821" lon="13.26431794661994"><ele>1127.0</ele><time>2026-05-02T16:38:19.998Z</time></trkpt><trkpt lat="42.22244359890759" lon="13.264225546493167"><ele>1127.0</ele><time>2026-05-02T16:38:21.998Z</time></trkpt><trkpt lat="42.222502811568006" lon="13.264171568246004"><ele>1127.0</ele><time>2026-05-02T16:38:24.998Z</time></trkpt><trkpt lat="42.22260127554955" lon="13.264109618344701"><ele>1127.0</ele><time>2026-05-02T16:38:27.998Z</time></trkpt><trkpt lat="42.22269851576872" lon="13.264066884145016"><ele>1127.0</ele><time>2026-05-02T16:38:29.998Z</time></trkpt><trkpt lat="42.22275658374792" lon="13.264029515519043"><ele>1127.0</ele><time>2026-05-02T16:38:30.998Z</time></trkpt><trkpt lat="42.222823826278315" lon="13.263983059358148"><ele>1127.0</ele><time>2026-05-02T16:38:32Z</time></trkpt><trkpt lat="42.22289019827777" lon="13.263937655833516"><ele>1127.0</ele><time>2026-05-02T16:38:33Z</time></trkpt><trkpt lat="42.22295543421618" lon="13.263890646641018"><ele>1127.0</ele><time>2026-05-02T16:38:34Z</time></trkpt><trkpt lat="42.223019294636735" lon="13.263847342486185"><ele>1127.0</ele><time>2026-05-02T16:38:35Z</time></trkpt><trkpt lat="42.22308737837953" lon="13.263795876399568"><ele>1127.0</ele><time>2026-05-02T16:38:36Z</time></trkpt><trkpt lat="42.223167334233246" lon="13.26374277316313"><ele>1127.0</ele><time>2026-05-02T16:38:37Z</time></trkpt><trkpt lat="42.22323603950701" lon="13.263681854159477"><ele>1127.0</ele><time>2026-05-02T16:38:38Z</time></trkpt><trkpt lat="42.223313845845965" lon="13.263623641297185"><ele>1127.0</ele><time>2026-05-02T16:38:39Z</time></trkpt><trkpt lat="42.22337093403793" lon="13.26356399358349"><ele>1127.0</ele><time>2026-05-02T16:38:40Z</time></trkpt><trkpt lat="42.22341831487846" lon="13.263495739255342"><ele>1127.0</ele><time>2026-05-02T16:38:41Z</time></trkpt><trkpt lat="42.22347241867189" lon="13.263421580138418"><ele>1127.0</ele><time>2026-05-02T16:38:42Z</time></trkpt><trkpt lat="42.2235297486473" lon="13.263382849552132"><ele>1127.0</ele><time>2026-05-02T16:38:43Z</time></trkpt><trkpt lat="42.22361929136834" lon="13.263382097590782"><ele>1127.0</ele><time>2026-05-02T16:38:45Z</time></trkpt><trkpt lat="42.223732380523856" lon="13.263405596237213"><ele>1127.0</ele><time>2026-05-02T16:38:47Z</time></trkpt><trkpt lat="42.223805669773206" lon="13.263408997790028"><ele>1127.0</ele><time>2026-05-02T16:38:48Z</time></trkpt><trkpt lat="42.22387783615572" lon="13.263417067606047"><ele>1127.0</ele><time>2026-05-02T16:38:49Z</time></trkpt><trkpt lat="42.22395562209336" lon="13.263418713300105"><ele>1127.0</ele><time>2026-05-02T16:38:50Z</time></trkpt><trkpt lat="42.224025323420484" lon="13.263413237160927"><ele>1128.6666666666667</ele><time>2026-05-02T16:38:51Z</time></trkpt><trkpt lat="42.224093978038184" lon="13.263420614921198"><ele>1130.3333333333335</ele><time>2026-05-02T16:38:52Z</time></trkpt><trkpt lat="42.22416143617745" lon="13.263431009480149"><ele>1132.0</ele><time>2026-05-02T16:38:53Z</time></trkpt><trkpt lat="42.22424074282834" lon="13.263435973626969"><ele>1133.6666666666667</ele><time>2026-05-02T16:38:54Z</time></trkpt><trkpt lat="42.22432405508193" lon="13.263445255970598"><ele>1135.3333333333333</ele><time>2026-05-02T16:38:55Z</time></trkpt><trkpt lat="42.2244035440224" lon="13.26344365315013"><ele>1137.0</ele><time>2026-05-02T16:38:56Z</time></trkpt><trkpt lat="42.22448804394938" lon="13.263447868478766"><ele>1137.0</ele><time>2026-05-02T16:38:57Z</time></trkpt><trkpt lat="42.224587477048416" lon="13.26346941300358"><ele>1137.0</ele><time>2026-05-02T16:38:58Z</time></trkpt><trkpt lat="42.22466397966791" lon="13.26348091204095"><ele>1137.0</ele><time>2026-05-02T16:38:59Z</time></trkpt><trkpt lat="42.22473937678211" lon="13.263464123274842"><ele>1137.0</ele><time>2026-05-02T16:38:59.999Z</time></trkpt><trkpt lat="42.22481158970461" lon="13.26343379323685"><ele>1137.0</ele><time>2026-05-02T16:39:00.999Z</time></trkpt><trkpt lat="42.224896233044326" lon="13.263401868165362"><ele>1137.0</ele><time>2026-05-02T16:39:01.999Z</time></trkpt><trkpt lat="42.22499026591099" lon="13.26336566639421"><ele>1138.3333333333333</ele><time>2026-05-02T16:39:02.999Z</time></trkpt><trkpt lat="42.22507531156506" lon="13.263338280997246"><ele>1139.6666666666667</ele><time>2026-05-02T16:39:03.999Z</time></trkpt><trkpt lat="42.225151255555936" lon="13.263330157755302"><ele>1141.0</ele><time>2026-05-02T16:39:04.999Z</time></trkpt><trkpt lat="42.22521626685554" lon="13.263329770660425"><ele>1142.3333333333335</ele><time>2026-05-02T16:39:05.999Z</time></trkpt><trkpt lat="42.22528537279418" lon="13.263343728400953"><ele>1143.6666666666667</ele><time>2026-05-02T16:39:06.999Z</time></trkpt><trkpt lat="42.22535974795806" lon="13.263357735583448"><ele>1145.0</ele><time>2026-05-02T16:39:07.999Z</time></trkpt><trkpt lat="42.22543641295214" lon="13.263349478436943"><ele>1145.0</ele><time>2026-05-02T16:39:08.999Z</time></trkpt><trkpt lat="42.22550991328043" lon="13.26331859454153"><ele>1145.0</ele><time>2026-05-02T16:39:09.999Z</time></trkpt><trkpt lat="42.22557739228651" lon="13.263279391666646"><ele>1145.0</ele><time>2026-05-02T16:39:10.999Z</time></trkpt><trkpt lat="42.225646714240355" lon="13.263232810827475"><ele>1145.0</ele><time>2026-05-02T16:39:11.999Z</time></trkpt><trkpt lat="42.22572129322083" lon="13.263196199683746"><ele>1145.0</ele><time>2026-05-02T16:39:12.999Z</time></trkpt><trkpt lat="42.225804069846525" lon="13.26317001088104"><ele>1145.0</ele><time>2026-05-02T16:39:13.999Z</time></trkpt><trkpt lat="42.22588595523715" lon="13.263154541041766"><ele>1146.0000000000002</ele><time>2026-05-02T16:39:14.999Z</time></trkpt><trkpt lat="42.225967884678084" lon="13.263147311494548"><ele>1147.0</ele><time>2026-05-02T16:39:15.999Z</time></trkpt><trkpt lat="42.22604173073647" lon="13.26314120471669"><ele>1148.0</ele><time>2026-05-02T16:39:16.999Z</time></trkpt><trkpt lat="42.22611063563797" lon="13.263142445886848"><ele>1149.0</ele><time>2026-05-02T16:39:17.999Z</time></trkpt><trkpt lat="42.226182166627076" lon="13.263151304300912"><ele>1150.0</ele><time>2026-05-02T16:39:18.999Z</time></trkpt><trkpt lat="42.22625343128012" lon="13.263162353596233"><ele>1151.0000000000002</ele><time>2026-05-02T16:39:19.999Z</time></trkpt><trkpt lat="42.22632729527984" lon="13.263177370824378"><ele>1152.0</ele><time>2026-05-02T16:39:20.999Z</time></trkpt><trkpt lat="42.22643265677416" lon="13.263236358952446"><ele>1152.0</ele><time>2026-05-02T16:39:22.999Z</time></trkpt><trkpt lat="42.226548198109974" lon="13.263307259812155"><ele>1152.0</ele><time>2026-05-02T16:39:24.999Z</time></trkpt><trkpt lat="42.22660076330492" lon="13.263383818213853"><ele>1152.0</ele><time>2026-05-02T16:39:25.999Z</time></trkpt><trkpt lat="42.22664843888386" lon="13.263475997887177"><ele>1152.0</ele><time>2026-05-02T16:39:26.999Z</time></trkpt><trkpt lat="42.226687974732165" lon="13.26357616510303"><ele>1152.0</ele><time>2026-05-02T16:39:27.999Z</time></trkpt><trkpt lat="42.226724515042214" lon="13.263676864648986"><ele>1152.0000000000002</ele><time>2026-05-02T16:39:28.999Z</time></trkpt><trkpt lat="42.22675591407993" lon="13.26376487635761"><ele>1152.0</ele><time>2026-05-02T16:39:29.999Z</time></trkpt><trkpt lat="42.22678553793211" lon="13.263862313132654"><ele>1152.0</ele><time>2026-05-02T16:39:30.999Z</time></trkpt><trkpt lat="42.22680782687347" lon="13.263969922215905"><ele>1152.0</ele><time>2026-05-02T16:39:31.999Z</time></trkpt><trkpt lat="42.226834692305395" lon="13.264059214836092"><ele>1152.0</ele><time>2026-05-02T16:39:32.999Z</time></trkpt><trkpt lat="42.22687027774848" lon="13.264129925331694"><ele>1152.0000000000002</ele><time>2026-05-02T16:39:33.999Z</time></trkpt><trkpt lat="42.22691695667208" lon="13.2641925441368"><ele>1152.0</ele><time>2026-05-02T16:39:36.999Z</time></trkpt><trkpt lat="42.226960118421985" lon="13.264260493073841"><ele>1155.25</ele><time>2026-05-02T16:39:40.999Z</time></trkpt><trkpt lat="42.22701661437835" lon="13.26437181897161"><ele>1158.5</ele><time>2026-05-02T16:39:43.999Z</time></trkpt><trkpt lat="42.22709223892051" lon="13.264503253697782"><ele>1161.75</ele><time>2026-05-02T16:39:45.999Z</time></trkpt><trkpt lat="42.22719030087109" lon="13.264573567357925"><ele>1165.0</ele><time>2026-05-02T16:39:47.999Z</time></trkpt><trkpt lat="42.22730263949335" lon="13.264620811122272"><ele>1164.5</ele><time>2026-05-02T16:39:49.999Z</time></trkpt><trkpt lat="42.22737205856497" lon="13.264604985447724"><ele>1164.0</ele><time>2026-05-02T16:39:50.999Z</time></trkpt><trkpt lat="42.22744174155544" lon="13.264573353044243"><ele>1163.5</ele><time>2026-05-02T16:39:51.999Z</time></trkpt><trkpt lat="42.227521560944936" lon="13.264531600020362"><ele>1163.0</ele><time>2026-05-02T16:39:52.999Z</time></trkpt><trkpt lat="42.22759674765596" lon="13.264501455217422"><ele>1162.5</ele><time>2026-05-02T16:39:53.999Z</time></trkpt><trkpt lat="42.22766629734915" lon="13.26448487160778"><ele>1162.0</ele><time>2026-05-02T16:39:54.999Z</time></trkpt><trkpt lat="42.22774006331255" lon="13.264475230912556"><ele>1162.0</ele><time>2026-05-02T16:39:55.999Z</time></trkpt><trkpt lat="42.22781887638996" lon="13.26447258289603"><ele>1162.0</ele><time>2026-05-02T16:39:56.999Z</time></trkpt><trkpt lat="42.22789313321606" lon="13.264457559621254"><ele>1162.0</ele><time>2026-05-02T16:39:57.999Z</time></trkpt><trkpt lat="42.22796912440405" lon="13.264416152407167"><ele>1162.0</ele><time>2026-05-02T16:39:58.999Z</time></trkpt><trkpt lat="42.22803864948791" lon="13.264367662158678"><ele>1162.0</ele><time>2026-05-02T16:39:59.999Z</time></trkpt><trkpt lat="42.22810855291139" lon="13.264333287616354"><ele>1162.0</ele><time>2026-05-02T16:40:00.999Z</time></trkpt><trkpt lat="42.22817402812765" lon="13.264302153337947"><ele>1162.142857142857</ele><time>2026-05-02T16:40:01.999Z</time></trkpt><trkpt lat="42.22823478443531" lon="13.26427070351789"><ele>1162.2857142857142</ele><time>2026-05-02T16:40:02.999Z</time></trkpt><trkpt lat="42.228298472026275" lon="13.264229036922528"><ele>1162.4285714285716</ele><time>2026-05-02T16:40:03.999Z</time></trkpt><trkpt lat="42.22835682008206" lon="13.264177587197418"><ele>1162.5714285714284</ele><time>2026-05-02T16:40:04.999Z</time></trkpt><trkpt lat="42.22840117611985" lon="13.264107904524296"><ele>1162.7142857142858</ele><time>2026-05-02T16:40:05.999Z</time></trkpt><trkpt lat="42.228440788461135" lon="13.264029179307549"><ele>1162.857142857143</ele><time>2026-05-02T16:40:06.998Z</time></trkpt><trkpt lat="42.228482678592655" lon="13.263941057543922"><ele>1163.0</ele><time>2026-05-02T16:40:07.998Z</time></trkpt><trkpt lat="42.22853567448718" lon="13.263874899694528"><ele>1163.0</ele><time>2026-05-02T16:40:08.998Z</time></trkpt><trkpt lat="42.2285991701452" lon="13.26381241212074"><ele>1163.0</ele><time>2026-05-02T16:40:09.998Z</time></trkpt><trkpt lat="42.228663914034335" lon="13.263752301049234"><ele>1163.0</ele><time>2026-05-02T16:40:10.998Z</time></trkpt><trkpt lat="42.228733894640854" lon="13.263680487811191"><ele>1163.0</ele><time>2026-05-02T16:40:11.998Z</time></trkpt><trkpt lat="42.22879730916494" lon="13.263604524376845"><ele>1163.0</ele><time>2026-05-02T16:40:12.998Z</time></trkpt><trkpt lat="42.22885876437044" lon="13.26353131162635"><ele>1163.0</ele><time>2026-05-02T16:40:13.998Z</time></trkpt><trkpt lat="42.228920859899866" lon="13.263474775137809"><ele>1165.8333333333335</ele><time>2026-05-02T16:40:14.998Z</time></trkpt><trkpt lat="42.228994344051166" lon="13.26340554325171"><ele>1168.6666666666667</ele><time>2026-05-02T16:40:15.998Z</time></trkpt><trkpt lat="42.229059146025385" lon="13.263340922192501"><ele>1171.5</ele><time>2026-05-02T16:40:16.998Z</time></trkpt><trkpt lat="42.22913279886731" lon="13.263272147301054"><ele>1174.3333333333333</ele><time>2026-05-02T16:40:17.998Z</time></trkpt><trkpt lat="42.22920284799323" lon="13.263205399819403"><ele>1177.1666666666665</ele><time>2026-05-02T16:40:18.998Z</time></trkpt><trkpt lat="42.22927202669409" lon="13.26312985576147"><ele>1180.0</ele><time>2026-05-02T16:40:19.998Z</time></trkpt><trkpt lat="42.22932405231943" lon="13.263056439437243"><ele>1180.0</ele><time>2026-05-02T16:40:20.998Z</time></trkpt><trkpt lat="42.22941086459253" lon="13.262946546484683"><ele>1180.0</ele><time>2026-05-02T16:40:22.998Z</time></trkpt><trkpt lat="42.229439630045" lon="13.262868087599779"><ele>1180.0</ele><time>2026-05-02T16:40:23.998Z</time></trkpt><trkpt lat="42.229440850959925" lon="13.262776845419069"><ele>1180.0</ele><time>2026-05-02T16:40:24.998Z</time></trkpt><trkpt lat="42.2294198020168" lon="13.262677160419091"><ele>1180.0</ele><time>2026-05-02T16:40:25.998Z</time></trkpt><trkpt lat="42.229383612538186" lon="13.262565257645408"><ele>1180.0</ele><time>2026-05-02T16:40:26.998Z</time></trkpt><trkpt lat="42.229346752925274" lon="13.262464601901335"><ele>1180.0</ele><time>2026-05-02T16:40:27.998Z</time></trkpt><trkpt lat="42.22931932846343" lon="13.262381239803661"><ele>1180.0</ele><time>2026-05-02T16:40:28.998Z</time></trkpt><trkpt lat="42.2293321049806" lon="13.26224411520054"><ele>1180.0</ele><time>2026-05-02T16:40:30.998Z</time></trkpt><trkpt lat="42.22939069447068" lon="13.262148367134259"><ele>1180.0</ele><time>2026-05-02T16:40:32.998Z</time></trkpt><trkpt lat="42.229473834160075" lon="13.262056446640006"><ele>1180.0</ele><time>2026-05-02T16:40:34.998Z</time></trkpt><trkpt lat="42.229524067682334" lon="13.261985171685579"><ele>1180.0</ele><time>2026-05-02T16:40:35.998Z</time></trkpt><trkpt lat="42.22956804831709" lon="13.261903700124094"><ele>1179.6666666666665</ele><time>2026-05-02T16:40:36.998Z</time></trkpt><trkpt lat="42.22960591770385" lon="13.261813981072349"><ele>1179.3333333333333</ele><time>2026-05-02T16:40:38Z</time></trkpt><trkpt lat="42.22963953251813" lon="13.26171941869644"><ele>1179.0</ele><time>2026-05-02T16:40:39Z</time></trkpt><trkpt lat="42.22967579839947" lon="13.261623593236754"><ele>1178.6666666666667</ele><time>2026-05-02T16:40:40Z</time></trkpt><trkpt lat="42.22970126957277" lon="13.261535810809791"><ele>1178.3333333333335</ele><time>2026-05-02T16:40:41Z</time></trkpt><trkpt lat="42.22969271441455" lon="13.26142397063913"><ele>1178.0</ele><time>2026-05-02T16:40:43Z</time></trkpt><trkpt lat="42.22963189733771" lon="13.26127189374924"><ele>1177.4285714285713</ele><time>2026-05-02T16:40:45Z</time></trkpt><trkpt lat="42.22962210685265" lon="13.26116933424211"><ele>1176.8571428571427</ele><time>2026-05-02T16:40:46Z</time></trkpt><trkpt lat="42.229631002083174" lon="13.261077855361977"><ele>1176.2857142857142</ele><time>2026-05-02T16:40:47Z</time></trkpt><trkpt lat="42.22965075137508" lon="13.26099683574876"><ele>1175.7142857142858</ele><time>2026-05-02T16:40:48Z</time></trkpt><trkpt lat="42.22967956803402" lon="13.260917213844316"><ele>1175.1428571428573</ele><time>2026-05-02T16:40:49Z</time></trkpt><trkpt lat="42.22973172573785" lon="13.260849354946465"><ele>1174.5714285714287</ele><time>2026-05-02T16:40:50Z</time></trkpt><trkpt lat="42.22980202712696" lon="13.260796179444501"><ele>1174.0</ele><time>2026-05-02T16:40:51Z</time></trkpt><trkpt lat="42.22987626898514" lon="13.260783152053849"><ele>1177.8333333333333</ele><time>2026-05-02T16:40:52Z</time></trkpt><trkpt lat="42.22994602939748" lon="13.260793627096659"><ele>1181.6666666666665</ele><time>2026-05-02T16:40:53Z</time></trkpt><trkpt lat="42.23004840531788" lon="13.260804058232207"><ele>1185.5</ele><time>2026-05-02T16:40:55Z</time></trkpt><trkpt lat="42.23011075070412" lon="13.260818673790926"><ele>1189.3333333333333</ele><time>2026-05-02T16:40:56Z</time></trkpt><trkpt lat="42.23017770891167" lon="13.260851624463095"><ele>1193.1666666666667</ele><time>2026-05-02T16:40:57Z</time></trkpt><trkpt lat="42.230287056720115" lon="13.260928402468835"><ele>1197.0</ele><time>2026-05-02T16:40:59Z</time></trkpt><trkpt lat="42.23040154768625" lon="13.260975782930526"><ele>1197.0</ele><time>2026-05-02T16:41:01Z</time></trkpt><trkpt lat="42.23050697485752" lon="13.260913977011572"><ele>1197.0</ele><time>2026-05-02T16:41:03Z</time></trkpt><trkpt lat="42.23056633324635" lon="13.260855097150571"><ele>1197.0</ele><time>2026-05-02T16:41:04Z</time></trkpt><trkpt lat="42.23062063682709" lon="13.260780074248972"><ele>1197.0</ele><time>2026-05-02T16:41:04.999Z</time></trkpt><trkpt lat="42.23067410700465" lon="13.26068785333773"><ele>1197.0</ele><time>2026-05-02T16:41:05.999Z</time></trkpt><trkpt lat="42.23072272824104" lon="13.260603669669647"><ele>1197.0</ele><time>2026-05-02T16:41:06.999Z</time></trkpt><trkpt lat="42.23076122037016" lon="13.260536218779393"><ele>1195.6</ele><time>2026-05-02T16:41:07.999Z</time></trkpt><trkpt lat="42.230864854333944" lon="13.260449465558903"><ele>1194.2</ele><time>2026-05-02T16:41:09.999Z</time></trkpt><trkpt lat="42.23097649208083" lon="13.260413093143985"><ele>1192.8</ele><time>2026-05-02T16:41:11.999Z</time></trkpt><trkpt lat="42.23105493164348" lon="13.260402031515138"><ele>1191.4</ele><time>2026-05-02T16:41:12.999Z</time></trkpt><trkpt lat="42.2311410219675" lon="13.260393789014886"><ele>1190.0</ele><time>2026-05-02T16:41:13.999Z</time></trkpt><trkpt lat="42.23123585564879" lon="13.260379011108357"><ele>1190.0</ele><time>2026-05-02T16:41:14.999Z</time></trkpt><trkpt lat="42.23132590302071" lon="13.260374736160582"><ele>1190.0</ele><time>2026-05-02T16:41:15.999Z</time></trkpt><trkpt lat="42.231396093333885" lon="13.26037460859088"><ele>1190.0</ele><time>2026-05-02T16:41:16.999Z</time></trkpt><trkpt lat="42.23146798339746" lon="13.260386185408118"><ele>1190.0</ele><time>2026-05-02T16:41:17.999Z</time></trkpt><trkpt lat="42.23152991751856" lon="13.260403368665882"><ele>1190.0</ele><time>2026-05-02T16:41:18.999Z</time></trkpt><trkpt lat="42.23159417558925" lon="13.260448343340382"><ele>1190.0</ele><time>2026-05-02T16:41:19.999Z</time></trkpt><trkpt lat="42.2316658224644" lon="13.260504895017872"><ele>1191.3333333333335</ele><time>2026-05-02T16:41:20.999Z</time></trkpt><trkpt lat="42.23174644789139" lon="13.260570390321584"><ele>1192.6666666666667</ele><time>2026-05-02T16:41:21.999Z</time></trkpt><trkpt lat="42.2318306109706" lon="13.260623057691323"><ele>1194.0</ele><time>2026-05-02T16:41:22.999Z</time></trkpt><trkpt lat="42.23191998777782" lon="13.260675226431307"><ele>1195.3333333333333</ele><time>2026-05-02T16:41:23.999Z</time></trkpt><trkpt lat="42.23198990243361" lon="13.260715162143228"><ele>1196.6666666666665</ele><time>2026-05-02T16:41:24.999Z</time></trkpt><trkpt lat="42.23206685355734" lon="13.260748233043412"><ele>1198.0</ele><time>2026-05-02T16:41:25.999Z</time></trkpt><trkpt lat="42.23216463294945" lon="13.260799371635875"><ele>1199.0</ele><time>2026-05-02T16:41:26.999Z</time></trkpt><trkpt lat="42.23224984858607" lon="13.260855212947899"><ele>1200.0</ele><time>2026-05-02T16:41:27.999Z</time></trkpt><trkpt lat="42.23232784428295" lon="13.26091266005086"><ele>1201.0</ele><time>2026-05-02T16:41:28.999Z</time></trkpt><trkpt lat="42.23240903200815" lon="13.26098045105401"><ele>1202.0</ele><time>2026-05-02T16:41:29.999Z</time></trkpt><trkpt lat="42.232498624536206" lon="13.261047314030167"><ele>1203.0</ele><time>2026-05-02T16:41:30.999Z</time></trkpt><trkpt lat="42.23258581728679" lon="13.261111086474674"><ele>1203.0</ele><time>2026-05-02T16:41:31.999Z</time></trkpt><trkpt lat="42.232669361166735" lon="13.26116379289869"><ele>1203.0</ele><time>2026-05-02T16:41:32.999Z</time></trkpt><trkpt lat="42.23274842361212" lon="13.261221259121815"><ele>1203.0</ele><time>2026-05-02T16:41:33.999Z</time></trkpt><trkpt lat="42.23282248551751" lon="13.26126871211922"><ele>1203.0</ele><time>2026-05-02T16:41:34.999Z</time></trkpt><trkpt lat="42.23288055960668" lon="13.261321100160695"><ele>1203.0</ele><time>2026-05-02T16:41:35.999Z</time></trkpt><trkpt lat="42.232943095203055" lon="13.261377047004675"><ele>1203.0</ele><time>2026-05-02T16:41:36.999Z</time></trkpt><trkpt lat="42.23300628365703" lon="13.261435119312234"><ele>1203.4285714285713</ele><time>2026-05-02T16:41:37.999Z</time></trkpt><trkpt lat="42.2330653336605" lon="13.26149899540844"><ele>1203.857142857143</ele><time>2026-05-02T16:41:38.999Z</time></trkpt><trkpt lat="42.23311562882685" lon="13.261558439633108"><ele>1204.2857142857142</ele><time>2026-05-02T16:41:39.999Z</time></trkpt><trkpt lat="42.233155501991455" lon="13.261627621532796"><ele>1204.7142857142858</ele><time>2026-05-02T16:41:40.999Z</time></trkpt><trkpt lat="42.23319710182333" lon="13.26171044966749"><ele>1205.142857142857</ele><time>2026-05-02T16:41:41.999Z</time></trkpt><trkpt lat="42.233249530358115" lon="13.261777977188173"><ele>1205.5714285714287</ele><time>2026-05-02T16:41:42.999Z</time></trkpt><trkpt lat="42.23333849425522" lon="13.261815810564938"><ele>1206.0</ele><time>2026-05-02T16:41:44.999Z</time></trkpt><trkpt lat="42.233455657473556" lon="13.261848969424737"><ele>1206.0</ele><time>2026-05-02T16:41:46.999Z</time></trkpt><trkpt lat="42.23356703537836" lon="13.26189593952612"><ele>1206.0</ele><time>2026-05-02T16:41:48.999Z</time></trkpt><trkpt lat="42.23364207348045" lon="13.261943302970915"><ele>1206.0</ele><time>2026-05-02T16:41:49.999Z</time></trkpt><trkpt lat="42.23371851553095" lon="13.261987613647403"><ele>1206.0</ele><time>2026-05-02T16:41:50.999Z</time></trkpt><trkpt lat="42.23378252314179" lon="13.26203938141927"><ele>1206.0</ele><time>2026-05-02T16:41:51.999Z</time></trkpt><trkpt lat="42.23383855430557" lon="13.262080546636136"><ele>1206.0</ele><time>2026-05-02T16:41:52.999Z</time></trkpt><trkpt lat="42.233952159378184" lon="13.262098743273643"><ele>1205.0</ele><time>2026-05-02T16:41:54.999Z</time></trkpt><trkpt lat="42.2340617952933" lon="13.262030608718753"><ele>1204.0</ele><time>2026-05-02T16:41:56.999Z</time></trkpt><trkpt lat="42.23416338705422" lon="13.26196276984133"><ele>1203.0</ele><time>2026-05-02T16:41:58.999Z</time></trkpt><trkpt lat="42.23423270406201" lon="13.261951882490694"><ele>1202.0</ele><time>2026-05-02T16:41:59.999Z</time></trkpt><trkpt lat="42.23431043994293" lon="13.261928584383918"><ele>1201.0</ele><time>2026-05-02T16:42:00.999Z</time></trkpt><trkpt lat="42.234402257143955" lon="13.261879131407511"><ele>1201.0</ele><time>2026-05-02T16:42:01.999Z</time></trkpt><trkpt lat="42.23448540113362" lon="13.261837647581011"><ele>1201.0</ele><time>2026-05-02T16:42:02.999Z</time></trkpt><trkpt lat="42.23457553622248" lon="13.26179617460281"><ele>1201.0</ele><time>2026-05-02T16:42:03.999Z</time></trkpt><trkpt lat="42.234662875332624" lon="13.26175461418621"><ele>1201.0</ele><time>2026-05-02T16:42:04.999Z</time></trkpt><trkpt lat="42.23475271897632" lon="13.261704169414053"><ele>1201.0</ele><time>2026-05-02T16:42:05.999Z</time></trkpt><trkpt lat="42.234836876086995" lon="13.261655019151366"><ele>1203.3333333333333</ele><time>2026-05-02T16:42:06.999Z</time></trkpt><trkpt lat="42.23491741505262" lon="13.261623676356157"><ele>1205.6666666666665</ele><time>2026-05-02T16:42:07.999Z</time></trkpt><trkpt lat="42.2350068704488" lon="13.261587661443583"><ele>1208.0</ele><time>2026-05-02T16:42:08.999Z</time></trkpt><trkpt lat="42.23509318067539" lon="13.261561519632535"><ele>1210.3333333333333</ele><time>2026-05-02T16:42:09.999Z</time></trkpt><trkpt lat="42.23515649946946" lon="13.26152990080161"><ele>1212.6666666666667</ele><time>2026-05-02T16:42:10.998Z</time></trkpt><trkpt lat="42.23522552215157" lon="13.26151990989954"><ele>1215.0</ele><time>2026-05-02T16:42:11.998Z</time></trkpt><trkpt lat="42.235299133847555" lon="13.261500379313736"><ele>1215.0</ele><time>2026-05-02T16:42:12.998Z</time></trkpt><trkpt lat="42.23535440049156" lon="13.261457966315481"><ele>1215.0</ele><time>2026-05-02T16:42:13.998Z</time></trkpt><trkpt lat="42.23545316837106" lon="13.261333673951157"><ele>1215.0</ele><time>2026-05-02T16:42:15.998Z</time></trkpt><trkpt lat="42.23551846336219" lon="13.261269975289547"><ele>1215.0</ele><time>2026-05-02T16:42:16.998Z</time></trkpt><trkpt lat="42.235583558235724" lon="13.26121004185636"><ele>1215.0</ele><time>2026-05-02T16:42:17.998Z</time></trkpt><trkpt lat="42.235655119440786" lon="13.261149673004565"><ele>1215.0</ele><time>2026-05-02T16:42:18.998Z</time></trkpt><trkpt lat="42.23572777635539" lon="13.26109127194913"><ele>1216.3333333333333</ele><time>2026-05-02T16:42:19.998Z</time></trkpt><trkpt lat="42.235802621738586" lon="13.261034248548855"><ele>1217.6666666666667</ele><time>2026-05-02T16:42:20.998Z</time></trkpt><trkpt lat="42.235873561391585" lon="13.26098395879226"><ele>1219.0</ele><time>2026-05-02T16:42:21.998Z</time></trkpt><trkpt lat="42.23594707906625" lon="13.260953901525456"><ele>1220.3333333333335</ele><time>2026-05-02T16:42:22.998Z</time></trkpt><trkpt lat="42.23601834408967" lon="13.26094063416843"><ele>1221.6666666666667</ele><time>2026-05-02T16:42:23.998Z</time></trkpt><trkpt lat="42.23608634760623" lon="13.260932735495697"><ele>1223.0</ele><time>2026-05-02T16:42:24.998Z</time></trkpt><trkpt lat="42.23615915849466" lon="13.260907889116833"><ele>1223.0</ele><time>2026-05-02T16:42:25.998Z</time></trkpt><trkpt lat="42.23624106456713" lon="13.260875623727568"><ele>1223.0</ele><time>2026-05-02T16:42:26.998Z</time></trkpt><trkpt lat="42.236310497417634" lon="13.260850642065083"><ele>1223.0</ele><time>2026-05-02T16:42:27.998Z</time></trkpt><trkpt lat="42.236375898955984" lon="13.260835448101803"><ele>1223.0</ele><time>2026-05-02T16:42:28.998Z</time></trkpt><trkpt lat="42.23644499413481" lon="13.260821089808076"><ele>1223.0</ele><time>2026-05-02T16:42:29.998Z</time></trkpt><trkpt lat="42.23651582320235" lon="13.260798295060885"><ele>1223.0</ele><time>2026-05-02T16:42:30.998Z</time></trkpt><trkpt lat="42.236580525111066" lon="13.260759373551185"><ele>1223.0</ele><time>2026-05-02T16:42:31.998Z</time></trkpt><trkpt lat="42.23665145411541" lon="13.260710538779444"><ele>1223.6666666666667</ele><time>2026-05-02T16:42:32.998Z</time></trkpt><trkpt lat="42.23671828246324" lon="13.260667574354487"><ele>1224.3333333333335</ele><time>2026-05-02T16:42:33.998Z</time></trkpt><trkpt lat="42.236779313090764" lon="13.260634372437424"><ele>1225.0</ele><time>2026-05-02T16:42:34.998Z</time></trkpt><trkpt lat="42.236843579132064" lon="13.26060021814353"><ele>1225.6666666666667</ele><time>2026-05-02T16:42:35.998Z</time></trkpt><trkpt lat="42.23690730334627" lon="13.26057425924897"><ele>1226.3333333333333</ele><time>2026-05-02T16:42:36.998Z</time></trkpt><trkpt lat="42.2369695839991" lon="13.26055978469822"><ele>1227.0</ele><time>2026-05-02T16:42:37.998Z</time></trkpt><trkpt lat="42.237104810433884" lon="13.260581465304089"><ele>1227.0</ele><time>2026-05-02T16:42:39.998Z</time></trkpt><trkpt lat="42.237176607069976" lon="13.260605779191495"><ele>1227.0</ele><time>2026-05-02T16:42:40.998Z</time></trkpt><trkpt lat="42.237246308459405" lon="13.260627532747842"><ele>1227.0</ele><time>2026-05-02T16:42:41.998Z</time></trkpt><trkpt lat="42.237320387236366" lon="13.260649008067574"><ele>1227.0</ele><time>2026-05-02T16:42:42.998Z</time></trkpt><trkpt lat="42.237394975828984" lon="13.260656989210066"><ele>1227.0</ele><time>2026-05-02T16:42:44Z</time></trkpt><trkpt lat="42.23747173376504" lon="13.260644013413167"><ele>1227.0</ele><time>2026-05-02T16:42:45Z</time></trkpt><trkpt lat="42.23755233866312" lon="13.260619962095118"><ele>1225.0</ele><time>2026-05-02T16:42:46Z</time></trkpt><trkpt lat="42.23763585031159" lon="13.260606968392386"><ele>1223.0</ele><time>2026-05-02T16:42:47Z</time></trkpt><trkpt lat="42.237719678413" lon="13.260608605282824"><ele>1221.0</ele><time>2026-05-02T16:42:48Z</time></trkpt><trkpt lat="42.23780471605257" lon="13.260603297953951"><ele>1219.0</ele><time>2026-05-02T16:42:49Z</time></trkpt><trkpt lat="42.23788487972695" lon="13.260568084314347"><ele>1217.0</ele><time>2026-05-02T16:42:50Z</time></trkpt><trkpt lat="42.23797999637503" lon="13.26051955150559"><ele>1215.0</ele><time>2026-05-02T16:42:51Z</time></trkpt><trkpt lat="42.23807282967572" lon="13.260473611328017"><ele>1216.0</ele><time>2026-05-02T16:42:52Z</time></trkpt><trkpt lat="42.238162911781174" lon="13.26044872639743"><ele>1217.0</ele><time>2026-05-02T16:42:53Z</time></trkpt><trkpt lat="42.2382524236406" lon="13.260449651193214"><ele>1218.0</ele><time>2026-05-02T16:42:54Z</time></trkpt><trkpt lat="42.23834888322496" lon="13.260457699702247"><ele>1219.0</ele><time>2026-05-02T16:42:55Z</time></trkpt><trkpt lat="42.2384335733499" lon="13.260421579908845"><ele>1220.0</ele><time>2026-05-02T16:42:56Z</time></trkpt><trkpt lat="42.23851013328135" lon="13.260384801388325"><ele>1221.0</ele><time>2026-05-02T16:42:57Z</time></trkpt><trkpt lat="42.23857551219768" lon="13.260318487313484"><ele>1221.0</ele><time>2026-05-02T16:42:58Z</time></trkpt><trkpt lat="42.238645005027934" lon="13.260238205496343"><ele>1221.0</ele><time>2026-05-02T16:42:59Z</time></trkpt><trkpt lat="42.23871195392663" lon="13.260168744227702"><ele>1221.0</ele><time>2026-05-02T16:43:00Z</time></trkpt><trkpt lat="42.23878085069377" lon="13.260143878144797"><ele>1221.0</ele><time>2026-05-02T16:43:01Z</time></trkpt><trkpt lat="42.2388554063527" lon="13.260140078988746"><ele>1221.0</ele><time>2026-05-02T16:43:02Z</time></trkpt><trkpt lat="42.23892668956898" lon="13.260167853825632"><ele>1221.0</ele><time>2026-05-02T16:43:02.999Z</time></trkpt><trkpt lat="42.23898900576727" lon="13.260221355263715"><ele>1220.0</ele><time>2026-05-02T16:43:03.999Z</time></trkpt><trkpt lat="42.23904598412928" lon="13.26028827539732"><ele>1219.0</ele><time>2026-05-02T16:43:04.999Z</time></trkpt><trkpt lat="42.23911506274284" lon="13.260368659940768"><ele>1218.0</ele><time>2026-05-02T16:43:05.999Z</time></trkpt><trkpt lat="42.23918728326156" lon="13.260466013452275"><ele>1217.0</ele><time>2026-05-02T16:43:06.999Z</time></trkpt><trkpt lat="42.23926642654713" lon="13.260522038594837"><ele>1216.0</ele><time>2026-05-02T16:43:07.999Z</time></trkpt><trkpt lat="42.23937066811931" lon="13.26058741810147"><ele>1218.1666666666665</ele><time>2026-05-02T16:43:09.999Z</time></trkpt><trkpt lat="42.23944037393256" lon="13.260636225838846"><ele>1220.3333333333333</ele><time>2026-05-02T16:43:10.999Z</time></trkpt><trkpt lat="42.23952178901441" lon="13.260678063742667"><ele>1222.5</ele><time>2026-05-02T16:43:11.999Z</time></trkpt><trkpt lat="42.23958661821071" lon="13.260721795550735"><ele>1224.6666666666667</ele><time>2026-05-02T16:43:12.999Z</time></trkpt><trkpt lat="42.2396620467765" lon="13.260750198013987"><ele>1226.8333333333335</ele><time>2026-05-02T16:43:13.999Z</time></trkpt><trkpt lat="42.23974748154617" lon="13.260771177804209"><ele>1229.0</ele><time>2026-05-02T16:43:14.999Z</time></trkpt><trkpt lat="42.2398324941158" lon="13.260783586673021"><ele>1229.0</ele><time>2026-05-02T16:43:15.999Z</time></trkpt><trkpt lat="42.239910585214616" lon="13.260773193262423"><ele>1229.0</ele><time>2026-05-02T16:43:16.999Z</time></trkpt><trkpt lat="42.23999474756099" lon="13.26073238474827"><ele>1229.0</ele><time>2026-05-02T16:43:17.999Z</time></trkpt><trkpt lat="42.240091269128555" lon="13.260701941235174"><ele>1229.0</ele><time>2026-05-02T16:43:18.999Z</time></trkpt><trkpt lat="42.24018312452098" lon="13.260665128116392"><ele>1229.0</ele><time>2026-05-02T16:43:19.999Z</time></trkpt><trkpt lat="42.240274106479085" lon="13.26062908299845"><ele>1227.3333333333335</ele><time>2026-05-02T16:43:20.999Z</time></trkpt><trkpt lat="42.240345867655925" lon="13.260603924709011"><ele>1225.6666666666667</ele><time>2026-05-02T16:43:21.999Z</time></trkpt><trkpt lat="42.24041596916042" lon="13.260584487388947"><ele>1224.0</ele><time>2026-05-02T16:43:22.999Z</time></trkpt><trkpt lat="42.240480364070464" lon="13.260569924837878"><ele>1222.3333333333333</ele><time>2026-05-02T16:43:23.999Z</time></trkpt><trkpt lat="42.2405666576512" lon="13.26053492951685"><ele>1220.6666666666665</ele><time>2026-05-02T16:43:24.999Z</time></trkpt><trkpt lat="42.24065123454869" lon="13.260512392967996"><ele>1219.0</ele><time>2026-05-02T16:43:25.999Z</time></trkpt><trkpt lat="42.24072800155833" lon="13.26051258005285"><ele>1219.0</ele><time>2026-05-02T16:43:26.999Z</time></trkpt><trkpt lat="42.24084786377269" lon="13.260483688893649"><ele>1219.0</ele><time>2026-05-02T16:43:28.999Z</time></trkpt><trkpt lat="42.24090496707003" lon="13.260443024919761"><ele>1219.0</ele><time>2026-05-02T16:43:29.999Z</time></trkpt><trkpt lat="42.240980116573176" lon="13.260414900149073"><ele>1219.0</ele><time>2026-05-02T16:43:30.999Z</time></trkpt><trkpt lat="42.241058760525" lon="13.260382299697222"><ele>1219.0</ele><time>2026-05-02T16:43:31.999Z</time></trkpt><trkpt lat="42.24113220832941" lon="13.260339288888332"><ele>1219.0</ele><time>2026-05-02T16:43:32.999Z</time></trkpt><trkpt lat="42.24120509909056" lon="13.260264400962896"><ele>1219.0</ele><time>2026-05-02T16:43:33.999Z</time></trkpt><trkpt lat="42.24126381770003" lon="13.260208702842737"><ele>1219.0</ele><time>2026-05-02T16:43:34.999Z</time></trkpt><trkpt lat="42.24131174268346" lon="13.260132941907177"><ele>1219.0</ele><time>2026-05-02T16:43:35.999Z</time></trkpt><trkpt lat="42.241365497484594" lon="13.260053663514967"><ele>1219.0</ele><time>2026-05-02T16:43:36.999Z</time></trkpt><trkpt lat="42.241474715518635" lon="13.259983884185317"><ele>1219.0</ele><time>2026-05-02T16:43:38.999Z</time></trkpt><trkpt lat="42.2415407123107" lon="13.259979905943718"><ele>1219.0</ele><time>2026-05-02T16:43:39.999Z</time></trkpt><trkpt lat="42.24161409459461" lon="13.259998879077886"><ele>1221.8</ele><time>2026-05-02T16:43:40.999Z</time></trkpt><trkpt lat="42.241679957509554" lon="13.260016647498675"><ele>1224.6000000000001</ele><time>2026-05-02T16:43:41.999Z</time></trkpt><trkpt lat="42.241764576661446" lon="13.260031802298231"><ele>1227.4</ele><time>2026-05-02T16:43:42.999Z</time></trkpt><trkpt lat="42.24184067776892" lon="13.260017156620108"><ele>1230.2</ele><time>2026-05-02T16:43:43.999Z</time></trkpt><trkpt lat="42.24194892372684" lon="13.259966652319022"><ele>1233.0</ele><time>2026-05-02T16:43:45.999Z</time></trkpt><trkpt lat="42.24205717038375" lon="13.259870867940064"><ele>1233.0</ele><time>2026-05-02T16:43:47.998Z</time></trkpt><trkpt lat="42.242126162937865" lon="13.259846928672768"><ele>1233.0</ele><time>2026-05-02T16:43:48.998Z</time></trkpt><trkpt lat="42.24219256138879" lon="13.259830926525414"><ele>1233.0</ele><time>2026-05-02T16:43:49.998Z</time></trkpt><trkpt lat="42.242256388181694" lon="13.25981353583272"><ele>1233.0</ele><time>2026-05-02T16:43:50.998Z</time></trkpt><trkpt lat="42.242375666040076" lon="13.259772016931654"><ele>1233.0</ele><time>2026-05-02T16:43:52.998Z</time></trkpt><trkpt lat="42.24249084021589" lon="13.259714263306167"><ele>1232.0</ele><time>2026-05-02T16:43:54.998Z</time></trkpt><trkpt lat="42.242572613349644" lon="13.259683224779682"><ele>1231.0</ele><time>2026-05-02T16:43:55.998Z</time></trkpt><trkpt lat="42.242644116266874" lon="13.259670660242588"><ele>1230.0</ele><time>2026-05-02T16:43:56.998Z</time></trkpt><trkpt lat="42.242731516259" lon="13.259672728604158"><ele>1229.0</ele><time>2026-05-02T16:43:57.998Z</time></trkpt><trkpt lat="42.24282073591435" lon="13.25966528738112"><ele>1228.0</ele><time>2026-05-02T16:43:58.998Z</time></trkpt><trkpt lat="42.24290061103112" lon="13.259644893780237"><ele>1227.0</ele><time>2026-05-02T16:43:59.998Z</time></trkpt><trkpt lat="42.2429789469513" lon="13.259620991303587"><ele>1227.0</ele><time>2026-05-02T16:44:00.998Z</time></trkpt><trkpt lat="42.243055284872476" lon="13.259579864245833"><ele>1227.0</ele><time>2026-05-02T16:44:01.998Z</time></trkpt><trkpt lat="42.243121286351375" lon="13.259527340066684"><ele>1227.0</ele><time>2026-05-02T16:44:02.998Z</time></trkpt><trkpt lat="42.24318081756512" lon="13.259463732123145"><ele>1227.0</ele><time>2026-05-02T16:44:03.998Z</time></trkpt><trkpt lat="42.24322960027643" lon="13.259401868551768"><ele>1227.0</ele><time>2026-05-02T16:44:04.998Z</time></trkpt><trkpt lat="42.24328505477679" lon="13.259350417935035"><ele>1227.0</ele><time>2026-05-02T16:44:05.998Z</time></trkpt><trkpt lat="42.243342075709364" lon="13.259303598114414"><ele>1227.0</ele><time>2026-05-02T16:44:06.998Z</time></trkpt><trkpt lat="42.24339570052099" lon="13.259250329086415"><ele>1229.8333333333333</ele><time>2026-05-02T16:44:07.998Z</time></trkpt><trkpt lat="42.243498952124945" lon="13.259148216373239"><ele>1232.6666666666667</ele><time>2026-05-02T16:44:09.998Z</time></trkpt><trkpt lat="42.24356716441393" lon="13.259116023611055"><ele>1235.5</ele><time>2026-05-02T16:44:10.998Z</time></trkpt><trkpt lat="42.24364667583316" lon="13.259080356805239"><ele>1238.3333333333335</ele><time>2026-05-02T16:44:11.998Z</time></trkpt><trkpt lat="42.24372345296908" lon="13.259034700169265"><ele>1241.1666666666667</ele><time>2026-05-02T16:44:12.998Z</time></trkpt><trkpt lat="42.24379637406757" lon="13.258998896042902"><ele>1244.0</ele><time>2026-05-02T16:44:13.998Z</time></trkpt><trkpt lat="42.243858385352404" lon="13.258956925978588"><ele>1245.1666666666667</ele><time>2026-05-02T16:44:14.998Z</time></trkpt><trkpt lat="42.24391053271327" lon="13.258893883351769"><ele>1246.3333333333335</ele><time>2026-05-02T16:44:15.998Z</time></trkpt><trkpt lat="42.24395675956165" lon="13.258804048484183"><ele>1247.5</ele><time>2026-05-02T16:44:16.998Z</time></trkpt><trkpt lat="42.243994211586354" lon="13.258724471115361"><ele>1248.6666666666667</ele><time>2026-05-02T16:44:17.998Z</time></trkpt><trkpt lat="42.244070297867424" lon="13.25862878961406"><ele>1249.8333333333333</ele><time>2026-05-02T16:44:19.998Z</time></trkpt><trkpt lat="42.244171535593274" lon="13.258565430827618"><ele>1251.0</ele><time>2026-05-02T16:44:21.998Z</time></trkpt><trkpt lat="42.244293960757055" lon="13.25852463411014"><ele>1251.0</ele><time>2026-05-02T16:44:23.998Z</time></trkpt><trkpt lat="42.24435691489029" lon="13.25851823070558"><ele>1251.0</ele><time>2026-05-02T16:44:24.998Z</time></trkpt><trkpt lat="42.24441976105292" lon="13.258512783832202"><ele>1251.0</ele><time>2026-05-02T16:44:25.998Z</time></trkpt><trkpt lat="42.24448276210246" lon="13.258520684904148"><ele>1251.0</ele><time>2026-05-02T16:44:26.998Z</time></trkpt><trkpt lat="42.2445474518615" lon="13.258532714532757"><ele>1251.0</ele><time>2026-05-02T16:44:27.998Z</time></trkpt><trkpt lat="42.24460728963168" lon="13.258563880216395"><ele>1251.0</ele><time>2026-05-02T16:44:28.998Z</time></trkpt><trkpt lat="42.244663385888735" lon="13.258602589630891"><ele>1251.0</ele><time>2026-05-02T16:44:29.998Z</time></trkpt><trkpt lat="42.244718189498855" lon="13.258645068714964"><ele>1251.0</ele><time>2026-05-02T16:44:30.998Z</time></trkpt><trkpt lat="42.244824700457904" lon="13.258731704525367"><ele>1250.5</ele><time>2026-05-02T16:44:32.998Z</time></trkpt><trkpt lat="42.244884287824604" lon="13.258782009780301"><ele>1250.0</ele><time>2026-05-02T16:44:33.998Z</time></trkpt><trkpt lat="42.244946258599754" lon="13.258838479567546"><ele>1249.5</ele><time>2026-05-02T16:44:34.998Z</time></trkpt><trkpt lat="42.24502420501131" lon="13.258896422517433"><ele>1249.0</ele><time>2026-05-02T16:44:35.998Z</time></trkpt><trkpt lat="42.24509012299097" lon="13.258958779777238"><ele>1248.5</ele><time>2026-05-02T16:44:36.998Z</time></trkpt><trkpt lat="42.24515531382327" lon="13.259034659965199"><ele>1248.0</ele><time>2026-05-02T16:44:37.998Z</time></trkpt><trkpt lat="42.24521894498265" lon="13.259091881039309"><ele>1249.2</ele><time>2026-05-02T16:44:38.998Z</time></trkpt><trkpt lat="42.245282337666" lon="13.25912629289185"><ele>1250.4</ele><time>2026-05-02T16:44:39.998Z</time></trkpt><trkpt lat="42.245363051512726" lon="13.259164038550185"><ele>1251.6000000000001</ele><time>2026-05-02T16:44:40.998Z</time></trkpt><trkpt lat="42.24545635417886" lon="13.259198868558414"><ele>1252.8</ele><time>2026-05-02T16:44:41.998Z</time></trkpt><trkpt lat="42.245553797853624" lon="13.259238517773499"><ele>1254.0</ele><time>2026-05-02T16:44:42.998Z</time></trkpt><trkpt lat="42.245650231148694" lon="13.259273590315141"><ele>1254.0</ele><time>2026-05-02T16:44:43.998Z</time></trkpt><trkpt lat="42.24574246468639" lon="13.259303681695403"><ele>1254.0</ele><time>2026-05-02T16:44:44.998Z</time></trkpt><trkpt lat="42.24581947124329" lon="13.259328801107584"><ele>1254.0</ele><time>2026-05-02T16:44:45.998Z</time></trkpt><trkpt lat="42.245901977732444" lon="13.259358818556974"><ele>1254.0</ele><time>2026-05-02T16:44:46.998Z</time></trkpt><trkpt lat="42.245974238154126" lon="13.259400093071543"><ele>1254.0</ele><time>2026-05-02T16:44:47.998Z</time></trkpt><trkpt lat="42.246105041354724" lon="13.259452174888537"><ele>1254.0</ele><time>2026-05-02T16:44:49.999Z</time></trkpt><trkpt lat="42.2461921814545" lon="13.259531214124456"><ele>1254.0</ele><time>2026-05-02T16:44:51.999Z</time></trkpt><trkpt lat="42.246242724813" lon="13.259658824982507"><ele>1254.0</ele><time>2026-05-02T16:44:53.999Z</time></trkpt><trkpt lat="42.246238525770345" lon="13.25981532805936"><ele>1254.0</ele><time>2026-05-02T16:44:55.999Z</time></trkpt><trkpt lat="42.24622822880005" lon="13.259902651284355"><ele>1254.0</ele><time>2026-05-02T16:44:56.999Z</time></trkpt><trkpt lat="42.246247549535596" lon="13.260043383746192"><ele>1257.0</ele><time>2026-05-02T16:44:58.999Z</time></trkpt><trkpt lat="42.24631812887975" lon="13.26010889404167"><ele>1260.0</ele><time>2026-05-02T16:45:00.999Z</time></trkpt><trkpt lat="42.2464105321432" lon="13.260107497099222"><ele>1263.0</ele><time>2026-05-02T16:45:02.999Z</time></trkpt><trkpt lat="42.2465373094489" lon="13.260110299659189"><ele>1266.0</ele><time>2026-05-02T16:45:04.999Z</time></trkpt><trkpt lat="42.246606276576216" lon="13.260095859558492"><ele>1269.0</ele><time>2026-05-02T16:45:05.999Z</time></trkpt><trkpt lat="42.24666826172431" lon="13.260071795696618"><ele>1272.0</ele><time>2026-05-02T16:45:06.999Z</time></trkpt><trkpt lat="42.24672225546342" lon="13.26002470479939"><ele>1271.1666666666667</ele><time>2026-05-02T16:45:07.999Z</time></trkpt><trkpt lat="42.246777143932476" lon="13.259972493109522"><ele>1270.3333333333333</ele><time>2026-05-02T16:45:08.999Z</time></trkpt><trkpt lat="42.24682675928077" lon="13.25990358880756"><ele>1269.5</ele><time>2026-05-02T16:45:09.999Z</time></trkpt><trkpt lat="42.24686689931104" lon="13.25982959047421"><ele>1268.6666666666665</ele><time>2026-05-02T16:45:10.999Z</time></trkpt><trkpt lat="42.246902432668875" lon="13.259755295399044"><ele>1267.8333333333333</ele><time>2026-05-02T16:45:11.999Z</time></trkpt><trkpt lat="42.246992314921194" lon="13.259674153868671"><ele>1267.0</ele><time>2026-05-02T16:45:13.999Z</time></trkpt><trkpt lat="42.24707857993479" lon="13.2597380903798"><ele>1269.2</ele><time>2026-05-02T16:45:15.999Z</time></trkpt><trkpt lat="42.24711323169558" lon="13.259873178723256"><ele>1271.4</ele><time>2026-05-02T16:45:17.999Z</time></trkpt><trkpt lat="42.24709343608628" lon="13.260023118873136"><ele>1273.6</ele><time>2026-05-02T16:45:19.999Z</time></trkpt><trkpt lat="42.247053069762764" lon="13.26017202111627"><ele>1275.8</ele><time>2026-05-02T16:45:21.999Z</time></trkpt><trkpt lat="42.24705655717245" lon="13.260300175299855"><ele>1278.0</ele><time>2026-05-02T16:45:23.999Z</time></trkpt><trkpt lat="42.24712819812809" lon="13.260340805742313"><ele>1278.0</ele><time>2026-05-02T16:45:25.999Z</time></trkpt><trkpt lat="42.24719462310048" lon="13.260338257793647"><ele>1278.0</ele><time>2026-05-02T16:45:27.999Z</time></trkpt><trkpt lat="42.24723329281802" lon="13.260263019248036"><ele>1278.0</ele><time>2026-05-02T16:45:29.999Z</time></trkpt><trkpt lat="42.247290281962684" lon="13.260122836004271"><ele>1278.0</ele><time>2026-05-02T16:45:31.999Z</time></trkpt><trkpt lat="42.247324188486814" lon="13.259961472672357"><ele>1278.0</ele><time>2026-05-02T16:45:33.999Z</time></trkpt><trkpt lat="42.2473332893187" lon="13.259873129188591"><ele>1278.0</ele><time>2026-05-02T16:45:34.999Z</time></trkpt><trkpt lat="42.24734849864335" lon="13.259778668951768"><ele>1279.1428571428573</ele><time>2026-05-02T16:45:35.999Z</time></trkpt><trkpt lat="42.24737562558048" lon="13.259690091559149"><ele>1280.2857142857142</ele><time>2026-05-02T16:45:36.999Z</time></trkpt><trkpt lat="42.247406702165044" lon="13.259609496488471"><ele>1281.4285714285716</ele><time>2026-05-02T16:45:37.999Z</time></trkpt><trkpt lat="42.24744601404146" lon="13.259537167902227"><ele>1282.5714285714287</ele><time>2026-05-02T16:45:38.999Z</time></trkpt><trkpt lat="42.24749534139042" lon="13.259471954043336"><ele>1283.7142857142858</ele><time>2026-05-02T16:45:39.999Z</time></trkpt><trkpt lat="42.24755168427454" lon="13.259414243453403"><ele>1284.857142857143</ele><time>2026-05-02T16:45:40.999Z</time></trkpt><trkpt lat="42.2476188874884" lon="13.2593721569966"><ele>1286.0</ele><time>2026-05-02T16:45:41.999Z</time></trkpt><trkpt lat="42.24767895554083" lon="13.259327814635915"><ele>1286.0</ele><time>2026-05-02T16:45:42.999Z</time></trkpt><trkpt lat="42.24772670485422" lon="13.2591959901233"><ele>1286.0</ele><time>2026-05-02T16:45:44.999Z</time></trkpt><trkpt lat="42.24777416337243" lon="13.259067576063211"><ele>1286.0</ele><time>2026-05-02T16:45:46.999Z</time></trkpt><trkpt lat="42.24782873061481" lon="13.259015870763296"><ele>1286.0</ele><time>2026-05-02T16:45:47.999Z</time></trkpt><trkpt lat="42.24789513465035" lon="13.258963946963991"><ele>1286.0</ele><time>2026-05-02T16:45:48.999Z</time></trkpt><trkpt lat="42.24796711568504" lon="13.258910191976177"><ele>1286.0</ele><time>2026-05-02T16:45:49.999Z</time></trkpt><trkpt lat="42.24802704227246" lon="13.258836215446761"><ele>1284.2857142857142</ele><time>2026-05-02T16:45:50.999Z</time></trkpt><trkpt lat="42.248061807130306" lon="13.258746283950241"><ele>1282.5714285714287</ele><time>2026-05-02T16:45:51.999Z</time></trkpt><trkpt lat="42.24809106170256" lon="13.258654956469371"><ele>1280.857142857143</ele><time>2026-05-02T16:45:52.999Z</time></trkpt><trkpt lat="42.24812408225734" lon="13.258567832112117"><ele>1279.142857142857</ele><time>2026-05-02T16:45:53.999Z</time></trkpt><trkpt lat="42.248149477061105" lon="13.258482315969909"><ele>1277.4285714285716</ele><time>2026-05-02T16:45:54.999Z</time></trkpt><trkpt lat="42.2481728592117" lon="13.25840088648635"><ele>1275.7142857142858</ele><time>2026-05-02T16:45:55.999Z</time></trkpt><trkpt lat="42.24819769690899" lon="13.258309611195802"><ele>1274.0</ele><time>2026-05-02T16:45:56.999Z</time></trkpt><trkpt lat="42.248227865392515" lon="13.258222849687423"><ele>1275.4285714285713</ele><time>2026-05-02T16:45:57.999Z</time></trkpt><trkpt lat="42.24827015687408" lon="13.258145126256936"><ele>1276.857142857143</ele><time>2026-05-02T16:45:58.999Z</time></trkpt><trkpt lat="42.248322883328136" lon="13.25806962904295"><ele>1278.2857142857142</ele><time>2026-05-02T16:45:59.999Z</time></trkpt><trkpt lat="42.24837675792088" lon="13.257998958414912"><ele>1279.7142857142858</ele><time>2026-05-02T16:46:00.999Z</time></trkpt><trkpt lat="42.24842526453499" lon="13.257922374916955"><ele>1281.142857142857</ele><time>2026-05-02T16:46:01.999Z</time></trkpt><trkpt lat="42.24846107361349" lon="13.257840232172608"><ele>1282.5714285714284</ele><time>2026-05-02T16:46:02.999Z</time></trkpt><trkpt lat="42.24848591575771" lon="13.257751725013382"><ele>1284.0</ele><time>2026-05-02T16:46:03.999Z</time></trkpt><trkpt lat="42.24851023875634" lon="13.257656540813224"><ele>1284.0</ele><time>2026-05-02T16:46:04.999Z</time></trkpt><trkpt lat="42.24854300777645" lon="13.257556749132274"><ele>1284.0</ele><time>2026-05-02T16:46:05.999Z</time></trkpt><trkpt lat="42.24858326445297" lon="13.25745316132599"><ele>1284.0</ele><time>2026-05-02T16:46:06.999Z</time></trkpt><trkpt lat="42.2486326202821" lon="13.257356126020941"><ele>1284.0</ele><time>2026-05-02T16:46:07.999Z</time></trkpt><trkpt lat="42.24868416458529" lon="13.257273758699567"><ele>1284.0</ele><time>2026-05-02T16:46:08.999Z</time></trkpt><trkpt lat="42.24873688608426" lon="13.257199671684665"><ele>1284.0</ele><time>2026-05-02T16:46:09.999Z</time></trkpt><trkpt lat="42.24879433217475" lon="13.257140331919658"><ele>1285.1666666666667</ele><time>2026-05-02T16:46:10.999Z</time></trkpt><trkpt lat="42.24886304212469" lon="13.257086278367721"><ele>1286.3333333333333</ele><time>2026-05-02T16:46:11.999Z</time></trkpt><trkpt lat="42.248939009584454" lon="13.257042939660295"><ele>1287.5</ele><time>2026-05-02T16:46:12.999Z</time></trkpt><trkpt lat="42.24901130645995" lon="13.2570036196794"><ele>1288.6666666666665</ele><time>2026-05-02T16:46:13.999Z</time></trkpt><trkpt lat="42.24909452018418" lon="13.256959613617024"><ele>1289.8333333333333</ele><time>2026-05-02T16:46:14.999Z</time></trkpt><trkpt lat="42.249178115349906" lon="13.25692072989673"><ele>1291.0</ele><time>2026-05-02T16:46:15.999Z</time></trkpt><trkpt lat="42.24926735685397" lon="13.256878486485768"><ele>1291.0</ele><time>2026-05-02T16:46:16.999Z</time></trkpt><trkpt lat="42.24936146276667" lon="13.25685238142724"><ele>1291.0</ele><time>2026-05-02T16:46:17.999Z</time></trkpt><trkpt lat="42.24943922762206" lon="13.25684478230471"><ele>1291.0</ele><time>2026-05-02T16:46:18.998Z</time></trkpt><trkpt lat="42.24951447845319" lon="13.2568479517726"><ele>1291.0</ele><time>2026-05-02T16:46:19.998Z</time></trkpt><trkpt lat="42.24959401928978" lon="13.256855292903138"><ele>1291.0</ele><time>2026-05-02T16:46:20.998Z</time></trkpt><trkpt lat="42.24966413281999" lon="13.25685484063036"><ele>1291.0</ele><time>2026-05-02T16:46:21.998Z</time></trkpt><trkpt lat="42.24976638820078" lon="13.25684577327098"><ele>1291.6</ele><time>2026-05-02T16:46:23.998Z</time></trkpt><trkpt lat="42.249875051793914" lon="13.256827245192152"><ele>1292.1999999999998</ele><time>2026-05-02T16:46:25.998Z</time></trkpt><trkpt lat="42.24993711824952" lon="13.256788444592978"><ele>1292.8000000000002</ele><time>2026-05-02T16:46:26.998Z</time></trkpt><trkpt lat="42.25000967105483" lon="13.25673924370833"><ele>1293.4</ele><time>2026-05-02T16:46:27.998Z</time></trkpt><trkpt lat="42.25009548534797" lon="13.256685597717285"><ele>1294.0</ele><time>2026-05-02T16:46:28.998Z</time></trkpt><trkpt lat="42.25018298467564" lon="13.256629150903878"><ele>1294.0</ele><time>2026-05-02T16:46:29.998Z</time></trkpt><trkpt lat="42.25026304756594" lon="13.256561035579892"><ele>1294.0</ele><time>2026-05-02T16:46:30.998Z</time></trkpt><trkpt lat="42.250338650672525" lon="13.256503049823683"><ele>1294.0</ele><time>2026-05-02T16:46:31.998Z</time></trkpt><trkpt lat="42.25040088133462" lon="13.256455861352448"><ele>1294.0</ele><time>2026-05-02T16:46:32.998Z</time></trkpt><trkpt lat="42.25045914996957" lon="13.256416864749891"><ele>1294.0</ele><time>2026-05-02T16:46:33.998Z</time></trkpt><trkpt lat="42.250585703355675" lon="13.256379804705585"><ele>1294.0</ele><time>2026-05-02T16:46:35.998Z</time></trkpt><trkpt lat="42.25066691209882" lon="13.25638189536257"><ele>1291.1666666666665</ele><time>2026-05-02T16:46:36.998Z</time></trkpt><trkpt lat="42.25075539092958" lon="13.256378595171311"><ele>1288.3333333333333</ele><time>2026-05-02T16:46:37.998Z</time></trkpt><trkpt lat="42.250845180158926" lon="13.256366276292153"><ele>1285.5</ele><time>2026-05-02T16:46:38.998Z</time></trkpt><trkpt lat="42.25091735347445" lon="13.256352567392412"><ele>1282.6666666666667</ele><time>2026-05-02T16:46:39.998Z</time></trkpt><trkpt lat="42.25099748981255" lon="13.256350235620781"><ele>1279.8333333333335</ele><time>2026-05-02T16:46:40.998Z</time></trkpt><trkpt lat="42.25107590363618" lon="13.256360129152965"><ele>1277.0</ele><time>2026-05-02T16:46:41.998Z</time></trkpt><trkpt lat="42.251154420974515" lon="13.25637585170244"><ele>1277.0</ele><time>2026-05-02T16:46:42.998Z</time></trkpt><trkpt lat="42.25123054034896" lon="13.256408434139052"><ele>1277.0</ele><time>2026-05-02T16:46:43.998Z</time></trkpt><trkpt lat="42.25130559667068" lon="13.256455840808524"><ele>1277.0</ele><time>2026-05-02T16:46:44.998Z</time></trkpt><trkpt lat="42.25138962420758" lon="13.256509098442582"><ele>1277.0</ele><time>2026-05-02T16:46:45.998Z</time></trkpt><trkpt lat="42.251479948933095" lon="13.256552916692112"><ele>1277.0</ele><time>2026-05-02T16:46:46.998Z</time></trkpt><trkpt lat="42.25157854017094" lon="13.25660478623665"><ele>1278.0</ele><time>2026-05-02T16:46:47.998Z</time></trkpt><trkpt lat="42.25165282856592" lon="13.256641231016006"><ele>1279.0</ele><time>2026-05-02T16:46:48.998Z</time></trkpt><trkpt lat="42.25174871727682" lon="13.256686431157755"><ele>1280.0</ele><time>2026-05-02T16:46:50.998Z</time></trkpt><trkpt lat="42.25182017032297" lon="13.256671514174082"><ele>1281.0</ele><time>2026-05-02T16:46:52.998Z</time></trkpt><trkpt lat="42.251868207425304" lon="13.256602788725178"><ele>1282.0</ele><time>2026-05-02T16:46:55Z</time></trkpt><trkpt lat="42.25191678119686" lon="13.256510926771504"><ele>1283.0</ele><time>2026-05-02T16:51:45.999Z</time></trkpt><trkpt lat="42.251960922216064" lon="13.25642942596603"><ele>1283.0</ele><time>2026-05-02T16:51:46.999Z</time></trkpt><trkpt lat="42.25201425150471" lon="13.256328321963954"><ele>1283.0</ele><time>2026-05-02T16:51:47.999Z</time></trkpt><trkpt lat="42.25206384708549" lon="13.256220947297559"><ele>1283.0</ele><time>2026-05-02T16:51:48.999Z</time></trkpt><trkpt lat="42.252114326561404" lon="13.25611080451611"><ele>1283.0</ele><time>2026-05-02T16:51:49.999Z</time></trkpt><trkpt lat="42.25217019478599" lon="13.256013419746534"><ele>1283.0</ele><time>2026-05-02T16:51:50.999Z</time></trkpt><trkpt lat="42.25223469626977" lon="13.255914518265332"><ele>1283.8333333333335</ele><time>2026-05-02T16:51:51.999Z</time></trkpt><trkpt lat="42.25229318597307" lon="13.255825048758373"><ele>1284.6666666666667</ele><time>2026-05-02T16:51:52.999Z</time></trkpt><trkpt lat="42.25235265929159" lon="13.255722799410915"><ele>1285.5</ele><time>2026-05-02T16:51:53.999Z</time></trkpt><trkpt lat="42.25240850195951" lon="13.255631623413098"><ele>1286.3333333333333</ele><time>2026-05-02T16:51:54.999Z</time></trkpt><trkpt lat="42.25245074317802" lon="13.25555073103754"><ele>1287.1666666666665</ele><time>2026-05-02T16:51:55.999Z</time></trkpt><trkpt lat="42.25250030847083" lon="13.255482189683514"><ele>1288.0</ele><time>2026-05-02T16:51:56.999Z</time></trkpt><trkpt lat="42.252559668171166" lon="13.25542051447616"><ele>1288.0</ele><time>2026-05-02T16:51:57.999Z</time></trkpt><trkpt lat="42.25262933612957" lon="13.255346573664122"><ele>1288.0</ele><time>2026-05-02T16:51:58.999Z</time></trkpt><trkpt lat="42.25270660158407" lon="13.255278682557469"><ele>1288.0</ele><time>2026-05-02T16:51:59.999Z</time></trkpt><trkpt lat="42.252772930059734" lon="13.255228231565896"><ele>1288.0</ele><time>2026-05-02T16:52:00.999Z</time></trkpt><trkpt lat="42.25285355119268" lon="13.255173847787214"><ele>1288.0</ele><time>2026-05-02T16:52:01.999Z</time></trkpt><trkpt lat="42.252926587081866" lon="13.255121808857071"><ele>1288.0</ele><time>2026-05-02T16:52:02.999Z</time></trkpt><trkpt lat="42.253001009422384" lon="13.255093039335907"><ele>1288.0</ele><time>2026-05-02T16:52:03.999Z</time></trkpt><trkpt lat="42.253088496541565" lon="13.255077461162598"><ele>1288.0</ele><time>2026-05-02T16:52:04.999Z</time></trkpt><trkpt lat="42.253186565736705" lon="13.255056152271534"><ele>1288.0</ele><time>2026-05-02T16:52:05.999Z</time></trkpt><trkpt lat="42.25327538837036" lon="13.255029692391023"><ele>1288.0</ele><time>2026-05-02T16:52:06.999Z</time></trkpt><trkpt lat="42.25335159521952" lon="13.254997646803067"><ele>1288.0</ele><time>2026-05-02T16:52:07.999Z</time></trkpt><trkpt lat="42.2534179249541" lon="13.254954027410696"><ele>1288.0</ele><time>2026-05-02T16:52:08.999Z</time></trkpt><trkpt lat="42.25348712549328" lon="13.25491684718023"><ele>1289.2</ele><time>2026-05-02T16:52:09.999Z</time></trkpt><trkpt lat="42.253571255009604" lon="13.254865089804717"><ele>1290.4</ele><time>2026-05-02T16:52:10.999Z</time></trkpt><trkpt lat="42.253654748251726" lon="13.254805080310135"><ele>1291.6000000000001</ele><time>2026-05-02T16:52:11.999Z</time></trkpt><trkpt lat="42.25373824539354" lon="13.25473748930339"><ele>1292.8000000000002</ele><time>2026-05-02T16:52:12.999Z</time></trkpt><trkpt lat="42.253815481734364" lon="13.254688007891094"><ele>1294.0</ele><time>2026-05-02T16:52:13.999Z</time></trkpt><trkpt lat="42.253899314807434" lon="13.25465161583304"><ele>1292.0</ele><time>2026-05-02T16:52:14.999Z</time></trkpt><trkpt lat="42.2539916403566" lon="13.254618345918905"><ele>1290.0</ele><time>2026-05-02T16:52:15.999Z</time></trkpt><trkpt lat="42.254076056154624" lon="13.254544938836423"><ele>1288.0</ele><time>2026-05-02T16:52:16.999Z</time></trkpt><trkpt lat="42.25415352676661" lon="13.254502245128988"><ele>1286.0</ele><time>2026-05-02T16:52:17.999Z</time></trkpt><trkpt lat="42.25423209379844" lon="13.25446803637979"><ele>1284.0</ele><time>2026-05-02T16:52:18.999Z</time></trkpt><trkpt lat="42.254317966730795" lon="13.254421409229876"><ele>1284.0</ele><time>2026-05-02T16:52:19.999Z</time></trkpt><trkpt lat="42.25442859490467" lon="13.254364447911374"><ele>1284.0</ele><time>2026-05-02T16:52:20.999Z</time></trkpt><trkpt lat="42.25453240999578" lon="13.254297652842414"><ele>1284.0</ele><time>2026-05-02T16:52:21.999Z</time></trkpt><trkpt lat="42.254623776817795" lon="13.254221157795435"><ele>1284.0</ele><time>2026-05-02T16:52:22.999Z</time></trkpt><trkpt lat="42.254704620393596" lon="13.254155727510383"><ele>1284.0</ele><time>2026-05-02T16:52:23.999Z</time></trkpt><trkpt lat="42.25479280164517" lon="13.254124355724635"><ele>1282.2</ele><time>2026-05-02T16:52:24.999Z</time></trkpt><trkpt lat="42.2548721808032" lon="13.254083277684833"><ele>1280.4</ele><time>2026-05-02T16:52:25.999Z</time></trkpt><trkpt lat="42.25496453590841" lon="13.254040690369287"><ele>1278.6</ele><time>2026-05-02T16:52:26.999Z</time></trkpt><trkpt lat="42.25506272992167" lon="13.254001020869481"><ele>1276.8</ele><time>2026-05-02T16:52:27.999Z</time></trkpt><trkpt lat="42.255157136589055" lon="13.253963181525153"><ele>1275.0</ele><time>2026-05-02T16:52:28.999Z</time></trkpt><trkpt lat="42.25524744064625" lon="13.253929018851736"><ele>1275.0</ele><time>2026-05-02T16:52:29.999Z</time></trkpt><trkpt lat="42.25533273469577" lon="13.2538881710192"><ele>1275.0</ele><time>2026-05-02T16:52:30.999Z</time></trkpt><trkpt lat="42.25542255105288" lon="13.253827709049975"><ele>1275.0</ele><time>2026-05-02T16:52:31.999Z</time></trkpt><trkpt lat="42.25550828167565" lon="13.253753385774708"><ele>1275.0</ele><time>2026-05-02T16:52:32.998Z</time></trkpt><trkpt lat="42.25558407131833" lon="13.253687305045549"><ele>1275.0</ele><time>2026-05-02T16:52:33.998Z</time></trkpt><trkpt lat="42.25565766892474" lon="13.253632286426324"><ele>1277.0</ele><time>2026-05-02T16:52:34.998Z</time></trkpt><trkpt lat="42.2557182781307" lon="13.253572162627412"><ele>1279.0</ele><time>2026-05-02T16:52:35.998Z</time></trkpt><trkpt lat="42.255766040689316" lon="13.253501954942127"><ele>1281.0</ele><time>2026-05-02T16:52:36.998Z</time></trkpt><trkpt lat="42.255797142678" lon="13.253413825791128"><ele>1283.0</ele><time>2026-05-02T16:52:37.998Z</time></trkpt><trkpt lat="42.2558110328021" lon="13.253304392244123"><ele>1285.0</ele><time>2026-05-02T16:52:38.998Z</time></trkpt><trkpt lat="42.255816899454516" lon="13.253185755846802"><ele>1287.0</ele><time>2026-05-02T16:52:39.998Z</time></trkpt><trkpt lat="42.25582183708946" lon="13.25307154545717"><ele>1287.0</ele><time>2026-05-02T16:52:40.998Z</time></trkpt><trkpt lat="42.255823551701596" lon="13.25294830497495"><ele>1287.0</ele><time>2026-05-02T16:52:41.998Z</time></trkpt><trkpt lat="42.25582848773508" lon="13.25283576430494"><ele>1287.0</ele><time>2026-05-02T16:52:42.998Z</time></trkpt><trkpt lat="42.25583912982886" lon="13.252721464336322"><ele>1287.0</ele><time>2026-05-02T16:52:43.998Z</time></trkpt><trkpt lat="42.25586440460044" lon="13.252620118887904"><ele>1287.0</ele><time>2026-05-02T16:52:44.998Z</time></trkpt><trkpt lat="42.25588825499206" lon="13.252523264133737"><ele>1287.0</ele><time>2026-05-02T16:52:45.998Z</time></trkpt><trkpt lat="42.25591595675942" lon="13.252418106994854"><ele>1287.0</ele><time>2026-05-02T16:52:46.998Z</time></trkpt><trkpt lat="42.255949387171995" lon="13.252312696100814"><ele>1287.0</ele><time>2026-05-02T16:52:47.998Z</time></trkpt><trkpt lat="42.25598905426531" lon="13.252220005430173"><ele>1287.0</ele><time>2026-05-02T16:52:48.998Z</time></trkpt><trkpt lat="42.25603897700277" lon="13.252154572337892"><ele>1287.0</ele><time>2026-05-02T16:52:49.998Z</time></trkpt><trkpt lat="42.256102286801294" lon="13.252099961807648"><ele>1287.0</ele><time>2026-05-02T16:52:50.998Z</time></trkpt><trkpt lat="42.25617691081387" lon="13.252046375648103"><ele>1287.0</ele><time>2026-05-02T16:52:51.998Z</time></trkpt><trkpt lat="42.25624415726953" lon="13.251986909312173"><ele>1286.3333333333333</ele><time>2026-05-02T16:52:52.998Z</time></trkpt><trkpt lat="42.2563062583682" lon="13.251924450953437"><ele>1285.6666666666667</ele><time>2026-05-02T16:52:53.998Z</time></trkpt><trkpt lat="42.25636277208051" lon="13.251843021463813"><ele>1285.0</ele><time>2026-05-02T16:52:54.998Z</time></trkpt><trkpt lat="42.25641198994373" lon="13.251770553910552"><ele>1284.3333333333335</ele><time>2026-05-02T16:52:55.998Z</time></trkpt><trkpt lat="42.25646912114701" lon="13.251715563289117"><ele>1283.6666666666667</ele><time>2026-05-02T16:52:56.998Z</time></trkpt><trkpt lat="42.25653739188826" lon="13.251670647264492"><ele>1283.0</ele><time>2026-05-02T16:52:57.998Z</time></trkpt><trkpt lat="42.25661389093976" lon="13.25163309292647"><ele>1285.3333333333335</ele><time>2026-05-02T16:52:58.998Z</time></trkpt><trkpt lat="42.25669301279563" lon="13.251606512843823"><ele>1287.6666666666667</ele><time>2026-05-02T16:52:59.998Z</time></trkpt><trkpt lat="42.256778466541505" lon="13.251573497123543"><ele>1290.0</ele><time>2026-05-02T16:53:00.998Z</time></trkpt><trkpt lat="42.2568542139575" lon="13.251544262959388"><ele>1292.3333333333333</ele><time>2026-05-02T16:53:01.998Z</time></trkpt><trkpt lat="42.25692653182608" lon="13.25151693168561"><ele>1294.6666666666665</ele><time>2026-05-02T16:53:02.998Z</time></trkpt><trkpt lat="42.2570188909546" lon="13.251507864195025"><ele>1297.0</ele><time>2026-05-02T16:53:04.998Z</time></trkpt><trkpt lat="42.25708277567851" lon="13.251600081493656"><ele>1297.0</ele><time>2026-05-02T16:53:06.998Z</time></trkpt><trkpt lat="42.25711387838526" lon="13.251779639474732"><ele>1297.0</ele><time>2026-05-02T16:53:08.998Z</time></trkpt><trkpt lat="42.25715071371052" lon="13.251931337663114"><ele>1297.0</ele><time>2026-05-02T16:53:11Z</time></trkpt><trkpt lat="42.25718107121855" lon="13.252084457981601"><ele>1297.0</ele><time>2026-05-02T16:53:13Z</time></trkpt><trkpt lat="42.25718928175191" lon="13.252373397145051"><ele>1298.0</ele><time>2026-05-02T16:53:17Z</time></trkpt><trkpt lat="42.25719609223167" lon="13.252529064746433"><ele>1299.0</ele><time>2026-05-02T16:53:19Z</time></trkpt><trkpt lat="42.257226744387765" lon="13.252650203944997"><ele>1300.0</ele><time>2026-05-02T16:53:21Z</time></trkpt><trkpt lat="42.25729797379876" lon="13.252715424403334"><ele>1301.0</ele><time>2026-05-02T16:53:23Z</time></trkpt><trkpt lat="42.25740274755326" lon="13.25264931601522"><ele>1302.0</ele><time>2026-05-02T16:53:25Z</time></trkpt><trkpt lat="42.257456527752055" lon="13.25259789794163"><ele>1300.0</ele><time>2026-05-02T16:53:26Z</time></trkpt><trkpt lat="42.257522245597286" lon="13.25255441038917"><ele>1298.0</ele><time>2026-05-02T16:53:27Z</time></trkpt><trkpt lat="42.257586850206735" lon="13.252532515516217"><ele>1296.0</ele><time>2026-05-02T16:53:28Z</time></trkpt><trkpt lat="42.257688552163046" lon="13.252557334477308"><ele>1294.0</ele><time>2026-05-02T16:53:30Z</time></trkpt><trkpt lat="42.25779839550638" lon="13.252582166657804"><ele>1292.0</ele><time>2026-05-02T16:53:32Z</time></trkpt><trkpt lat="42.25786647074647" lon="13.252591303363353"><ele>1290.0</ele><time>2026-05-02T16:53:33Z</time></trkpt><trkpt lat="42.25794337834186" lon="13.252576529740647"><ele>1290.0</ele><time>2026-05-02T16:53:34Z</time></trkpt><trkpt lat="42.258025910069215" lon="13.252565299334547"><ele>1290.0</ele><time>2026-05-02T16:53:35Z</time></trkpt><trkpt lat="42.258105768593936" lon="13.252542055377413"><ele>1290.0</ele><time>2026-05-02T16:53:36Z</time></trkpt><trkpt lat="42.258187241330894" lon="13.252508229841093"><ele>1290.0</ele><time>2026-05-02T16:53:37Z</time></trkpt><trkpt lat="42.25826846397616" lon="13.252459352339674"><ele>1290.0</ele><time>2026-05-02T16:53:37.999Z</time></trkpt><trkpt lat="42.25834135115147" lon="13.252410812482507"><ele>1290.0</ele><time>2026-05-02T16:53:38.999Z</time></trkpt><trkpt lat="42.25839636376932" lon="13.25235816645202"><ele>1290.0</ele><time>2026-05-02T16:53:39.999Z</time></trkpt><trkpt lat="42.258464448141865" lon="13.252296104807133"><ele>1290.0</ele><time>2026-05-02T16:53:40.999Z</time></trkpt><trkpt lat="42.258515181431136" lon="13.25222848294335"><ele>1290.0</ele><time>2026-05-02T16:53:41.999Z</time></trkpt><trkpt lat="42.25858161155022" lon="13.252107707637009"><ele>1290.0</ele><time>2026-05-02T16:53:43.999Z</time></trkpt><trkpt lat="42.25863317075318" lon="13.25195823977136"><ele>1290.0</ele><time>2026-05-02T16:53:45.999Z</time></trkpt><trkpt lat="42.258668300872166" lon="13.251879302596212"><ele>1289.5714285714287</ele><time>2026-05-02T16:53:46.999Z</time></trkpt><trkpt lat="42.258709006090136" lon="13.251806309077645"><ele>1289.142857142857</ele><time>2026-05-02T16:53:47.999Z</time></trkpt><trkpt lat="42.25876059676923" lon="13.25174179508514"><ele>1288.7142857142858</ele><time>2026-05-02T16:53:48.999Z</time></trkpt><trkpt lat="42.25881822670677" lon="13.251665434568856"><ele>1288.2857142857142</ele><time>2026-05-02T16:53:49.999Z</time></trkpt><trkpt lat="42.25887702350609" lon="13.251602190652418"><ele>1287.857142857143</ele><time>2026-05-02T16:53:50.999Z</time></trkpt><trkpt lat="42.258937390198284" lon="13.251544618353085"><ele>1287.4285714285713</ele><time>2026-05-02T16:53:51.999Z</time></trkpt><trkpt lat="42.25899435455108" lon="13.251475997502546"><ele>1287.0</ele><time>2026-05-02T16:53:52.999Z</time></trkpt><trkpt lat="42.259055069930156" lon="13.251424613344893"><ele>1283.8333333333333</ele><time>2026-05-02T16:53:53.999Z</time></trkpt><trkpt lat="42.25912398437319" lon="13.25138507578114"><ele>1280.6666666666667</ele><time>2026-05-02T16:53:54.999Z</time></trkpt><trkpt lat="42.25918959690063" lon="13.251348054721655"><ele>1277.5</ele><time>2026-05-02T16:53:55.999Z</time></trkpt><trkpt lat="42.25925497569816" lon="13.251328108520061"><ele>1274.3333333333335</ele><time>2026-05-02T16:53:56.999Z</time></trkpt><trkpt lat="42.259374908730166" lon="13.251292827972598"><ele>1271.1666666666667</ele><time>2026-05-02T16:53:58.999Z</time></trkpt><trkpt lat="42.2594805155481" lon="13.25123603706153"><ele>1268.0</ele><time>2026-05-02T16:54:00.999Z</time></trkpt><trkpt lat="42.259539324910904" lon="13.251175599404778"><ele>1268.0</ele><time>2026-05-02T16:54:01.999Z</time></trkpt><trkpt lat="42.2595954931701" lon="13.251116045758824"><ele>1268.0</ele><time>2026-05-02T16:54:02.999Z</time></trkpt><trkpt lat="42.25964519034925" lon="13.251033668936556"><ele>1268.0</ele><time>2026-05-02T16:54:03.999Z</time></trkpt><trkpt lat="42.2596813259524" lon="13.250947668287159"><ele>1268.0</ele><time>2026-05-02T16:54:04.999Z</time></trkpt><trkpt lat="42.25970529226396" lon="13.250854406178124"><ele>1268.0</ele><time>2026-05-02T16:54:05.999Z</time></trkpt><trkpt lat="42.259738503979186" lon="13.25076009690925"><ele>1268.0</ele><time>2026-05-02T16:54:06.999Z</time></trkpt><trkpt lat="42.25977399284143" lon="13.250677930545223"><ele>1268.0</ele><time>2026-05-02T16:54:07.999Z</time></trkpt><trkpt lat="42.25980835878593" lon="13.2505960150614"><ele>1268.6666666666667</ele><time>2026-05-02T16:54:08.999Z</time></trkpt><trkpt lat="42.25983941786069" lon="13.250490820413743"><ele>1269.3333333333335</ele><time>2026-05-02T16:54:09.999Z</time></trkpt><trkpt lat="42.25986460943433" lon="13.250386556260105"><ele>1270.0</ele><time>2026-05-02T16:54:10.999Z</time></trkpt><trkpt lat="42.25988765850544" lon="13.250268265835912"><ele>1270.6666666666667</ele><time>2026-05-02T16:54:11.999Z</time></trkpt><trkpt lat="42.25989439221517" lon="13.250145110905498"><ele>1271.3333333333333</ele><time>2026-05-02T16:54:12.999Z</time></trkpt><trkpt lat="42.25989605677417" lon="13.250030068628652"><ele>1272.0</ele><time>2026-05-02T16:54:13.999Z</time></trkpt><trkpt lat="42.25989533179313" lon="13.249936187006602"><ele>1272.0</ele><time>2026-05-02T16:54:14.999Z</time></trkpt><trkpt lat="42.25990469351412" lon="13.249834196504418"><ele>1272.0</ele><time>2026-05-02T16:54:15.999Z</time></trkpt><trkpt lat="42.25991963753151" lon="13.24973674617426"><ele>1272.0</ele><time>2026-05-02T16:54:16.999Z</time></trkpt><trkpt lat="42.259943299779785" lon="13.249633895203367"><ele>1272.0</ele><time>2026-05-02T16:54:17.999Z</time></trkpt><trkpt lat="42.25997730742196" lon="13.249526943525085"><ele>1272.0</ele><time>2026-05-02T16:54:18.999Z</time></trkpt><trkpt lat="42.26000745138444" lon="13.249438874965653"><ele>1272.0</ele><time>2026-05-02T16:54:19.999Z</time></trkpt><trkpt lat="42.26003840350324" lon="13.24933357415632"><ele>1270.4</ele><time>2026-05-02T16:54:20.999Z</time></trkpt><trkpt lat="42.260059263664374" lon="13.249225905273255"><ele>1268.8000000000002</ele><time>2026-05-02T16:54:21.999Z</time></trkpt><trkpt lat="42.260082338909136" lon="13.249110862670788"><ele>1267.2</ele><time>2026-05-02T16:54:22.999Z</time></trkpt><trkpt lat="42.26010514276297" lon="13.248991106610692"><ele>1265.6000000000001</ele><time>2026-05-02T16:54:23.999Z</time></trkpt><trkpt lat="42.260129545671866" lon="13.248852415165079"><ele>1264.0</ele><time>2026-05-02T16:54:24.999Z</time></trkpt><trkpt lat="42.26015322427144" lon="13.248734449412552"><ele>1263.0</ele><time>2026-05-02T16:54:25.999Z</time></trkpt><trkpt lat="42.26017156827332" lon="13.248605714548471"><ele>1262.0</ele><time>2026-05-02T16:54:26.999Z</time></trkpt><trkpt lat="42.26019613043833" lon="13.24846739172603"><ele>1261.0</ele><time>2026-05-02T16:54:27.999Z</time></trkpt><trkpt lat="42.26021477341883" lon="13.248328892729644"><ele>1260.0</ele><time>2026-05-02T16:54:28.999Z</time></trkpt><trkpt lat="42.26022871253119" lon="13.248198971119027"><ele>1259.0</ele><time>2026-05-02T16:54:29.999Z</time></trkpt><trkpt lat="42.26024905872478" lon="13.248072891641947"><ele>1258.0</ele><time>2026-05-02T16:54:30.999Z</time></trkpt><trkpt lat="42.26026960126889" lon="13.247964239710772"><ele>1257.0</ele><time>2026-05-02T16:54:31.999Z</time></trkpt><trkpt lat="42.26028706428143" lon="13.247855915430158"><ele>1256.0</ele><time>2026-05-02T16:54:32.999Z</time></trkpt><trkpt lat="42.26030707428571" lon="13.247738919779712"><ele>1255.0</ele><time>2026-05-02T16:54:33.999Z</time></trkpt><trkpt lat="42.26032454099779" lon="13.247640476941058"><ele>1254.0</ele><time>2026-05-02T16:54:34.999Z</time></trkpt><trkpt lat="42.26034089914168" lon="13.247521762616277"><ele>1253.0</ele><time>2026-05-02T16:54:35.999Z</time></trkpt><trkpt lat="42.260358836659975" lon="13.24742997815336"><ele>1253.0</ele><time>2026-05-02T16:54:36.999Z</time></trkpt><trkpt lat="42.260419044233075" lon="13.24728085648578"><ele>1253.0</ele><time>2026-05-02T16:54:38.999Z</time></trkpt><trkpt lat="42.260468234604765" lon="13.24720098727963"><ele>1253.0</ele><time>2026-05-02T16:54:39.999Z</time></trkpt><trkpt lat="42.260542855770815" lon="13.247117203659291"><ele>1253.0</ele><time>2026-05-02T16:54:40.999Z</time></trkpt><trkpt lat="42.26061757507203" lon="13.247024905320796"><ele>1253.0</ele><time>2026-05-02T16:54:41.999Z</time></trkpt><trkpt lat="42.26068489822962" lon="13.246920528768962"><ele>1252.6</ele><time>2026-05-02T16:54:42.999Z</time></trkpt><trkpt lat="42.260751011772356" lon="13.246801583336918"><ele>1252.1999999999998</ele><time>2026-05-02T16:54:43.999Z</time></trkpt><trkpt lat="42.260803868576744" lon="13.246695685673595"><ele>1251.8</ele><time>2026-05-02T16:54:44.999Z</time></trkpt><trkpt lat="42.2608580782878" lon="13.24657640916157"><ele>1251.3999999999999</ele><time>2026-05-02T16:54:45.999Z</time></trkpt><trkpt lat="42.26090949336305" lon="13.246423143497804"><ele>1251.0</ele><time>2026-05-02T16:54:46.998Z</time></trkpt><trkpt lat="42.260972349606085" lon="13.2463313775238"><ele>1251.0</ele><time>2026-05-02T16:54:47.998Z</time></trkpt><trkpt lat="42.26103771419406" lon="13.246251217730897"><ele>1251.0</ele><time>2026-05-02T16:54:48.998Z</time></trkpt><trkpt lat="42.26109833027494" lon="13.2461467684201"><ele>1251.0</ele><time>2026-05-02T16:54:49.998Z</time></trkpt><trkpt lat="42.26115201283106" lon="13.246023499136639"><ele>1251.0</ele><time>2026-05-02T16:54:50.998Z</time></trkpt><trkpt lat="42.26121518941894" lon="13.245896869005435"><ele>1251.0</ele><time>2026-05-02T16:54:51.998Z</time></trkpt><trkpt lat="42.261288211154074" lon="13.245768805871984"><ele>1251.0</ele><time>2026-05-02T16:54:52.998Z</time></trkpt><trkpt lat="42.2613603228048" lon="13.245636366100877"><ele>1251.0</ele><time>2026-05-02T16:54:53.998Z</time></trkpt><trkpt lat="42.26142810449965" lon="13.245500756151015"><ele>1251.0</ele><time>2026-05-02T16:54:54.998Z</time></trkpt><trkpt lat="42.26149081072107" lon="13.245379177290538"><ele>1251.0</ele><time>2026-05-02T16:54:55.998Z</time></trkpt><trkpt lat="42.26154781863521" lon="13.24525787703929"><ele>1251.3999999999999</ele><time>2026-05-02T16:54:56.998Z</time></trkpt><trkpt lat="42.26159802244195" lon="13.245139296807016"><ele>1251.8</ele><time>2026-05-02T16:54:57.998Z</time></trkpt><trkpt lat="42.261641323908016" lon="13.245023977945515"><ele>1252.1999999999998</ele><time>2026-05-02T16:54:58.998Z</time></trkpt><trkpt lat="42.26168762680456" lon="13.244908252498307"><ele>1252.6</ele><time>2026-05-02T16:54:59.998Z</time></trkpt><trkpt lat="42.26172169446658" lon="13.24479823280366"><ele>1253.0</ele><time>2026-05-02T16:55:00.998Z</time></trkpt><trkpt lat="42.261750965908" lon="13.244676089239215"><ele>1253.0</ele><time>2026-05-02T16:55:01.998Z</time></trkpt><trkpt lat="42.26175840639805" lon="13.244556268911877"><ele>1253.0</ele><time>2026-05-02T16:55:02.998Z</time></trkpt><trkpt lat="42.26176256687462" lon="13.24442951817045"><ele>1253.0</ele><time>2026-05-02T16:55:03.998Z</time></trkpt><trkpt lat="42.26175157896915" lon="13.244294297312683"><ele>1253.0</ele><time>2026-05-02T16:55:04.998Z</time></trkpt><trkpt lat="42.26171981496706" lon="13.244176191479784"><ele>1253.0</ele><time>2026-05-02T16:55:05.998Z</time></trkpt><trkpt lat="42.261689926793984" lon="13.244060471925232"><ele>1253.0</ele><time>2026-05-02T16:55:06.998Z</time></trkpt><trkpt lat="42.261651739588345" lon="13.243972681413396"><ele>1253.0</ele><time>2026-05-02T16:55:07.998Z</time></trkpt><trkpt lat="42.26159943721986" lon="13.243871943318124"><ele>1253.0</ele><time>2026-05-02T16:55:08.998Z</time></trkpt><trkpt lat="42.26152515386279" lon="13.243780357457686"><ele>1253.0</ele><time>2026-05-02T16:55:09.998Z</time></trkpt><trkpt lat="42.261442059767305" lon="13.243689035634004"><ele>1253.0</ele><time>2026-05-02T16:55:10.998Z</time></trkpt><trkpt lat="42.26135982032665" lon="13.243607194292974"><ele>1253.0</ele><time>2026-05-02T16:55:11.998Z</time></trkpt><trkpt lat="42.26127420486872" lon="13.243521497529857"><ele>1253.0</ele><time>2026-05-02T16:55:12.998Z</time></trkpt><trkpt lat="42.261187050745335" lon="13.243440663686512"><ele>1253.0</ele><time>2026-05-02T16:55:13.998Z</time></trkpt><trkpt lat="42.26109365412917" lon="13.243357825060336"><ele>1253.0</ele><time>2026-05-02T16:55:14.998Z</time></trkpt><trkpt lat="42.26100518811292" lon="13.243282676564933"><ele>1253.0</ele><time>2026-05-02T16:55:15.998Z</time></trkpt><trkpt lat="42.26093133000271" lon="13.243210650458064"><ele>1253.0</ele><time>2026-05-02T16:55:17Z</time></trkpt><trkpt lat="42.26087792930247" lon="13.243142936481007"><ele>1253.0</ele><time>2026-05-02T16:55:18Z</time></trkpt><trkpt lat="42.26084004312158" lon="13.24306885511988"><ele>1253.0</ele><time>2026-05-02T16:55:19Z</time></trkpt><trkpt lat="42.260810073118456" lon="13.24296905459747"><ele>1253.0</ele><time>2026-05-02T16:55:20Z</time></trkpt><trkpt lat="42.260799593137925" lon="13.242853783334189"><ele>1253.0</ele><time>2026-05-02T16:55:21Z</time></trkpt><trkpt lat="42.26079797423641" lon="13.242725128923416"><ele>1253.0</ele><time>2026-05-02T16:55:22Z</time></trkpt><trkpt lat="42.260804947206374" lon="13.242595145229672"><ele>1253.0</ele><time>2026-05-02T16:55:23Z</time></trkpt><trkpt lat="42.26079111281049" lon="13.242456348129956"><ele>1253.0</ele><time>2026-05-02T16:55:24Z</time></trkpt><trkpt lat="42.26076745838255" lon="13.242315498102018"><ele>1253.0</ele><time>2026-05-02T16:55:25Z</time></trkpt><trkpt lat="42.26072400549574" lon="13.242178197735734"><ele>1253.0</ele><time>2026-05-02T16:55:26Z</time></trkpt><trkpt lat="42.26066657846695" lon="13.242056302719995"><ele>1253.0</ele><time>2026-05-02T16:55:27Z</time></trkpt><trkpt lat="42.26062188830439" lon="13.241940289171568"><ele>1249.8</ele><time>2026-05-02T16:55:28Z</time></trkpt><trkpt lat="42.26059598752661" lon="13.241834731010035"><ele>1246.6</ele><time>2026-05-02T16:55:29Z</time></trkpt><trkpt lat="42.2605768378916" lon="13.24172351258568"><ele>1243.4</ele><time>2026-05-02T16:55:30Z</time></trkpt><trkpt lat="42.26056652870041" lon="13.241591649046153"><ele>1240.2</ele><time>2026-05-02T16:55:31Z</time></trkpt><trkpt lat="42.26057452106797" lon="13.24144203420118"><ele>1237.0</ele><time>2026-05-02T16:55:32Z</time></trkpt><trkpt lat="42.260589340325176" lon="13.24129962402246"><ele>1236.0</ele><time>2026-05-02T16:55:33Z</time></trkpt><trkpt lat="42.26060259201566" lon="13.241184134784405"><ele>1235.0</ele><time>2026-05-02T16:55:34Z</time></trkpt><trkpt lat="42.260629480352165" lon="13.24108225584786"><ele>1234.0</ele><time>2026-05-02T16:55:35Z</time></trkpt><trkpt lat="42.26069301969485" lon="13.240931004308027"><ele>1233.0</ele><time>2026-05-02T16:55:37Z</time></trkpt><trkpt lat="42.260805768540585" lon="13.240829769143657"><ele>1232.0</ele><time>2026-05-02T16:55:39Z</time></trkpt><trkpt lat="42.26089055941406" lon="13.240784716064274"><ele>1234.2</ele><time>2026-05-02T16:55:39.999Z</time></trkpt><trkpt lat="42.26097970553083" lon="13.240735207214854"><ele>1236.4</ele><time>2026-05-02T16:55:40.999Z</time></trkpt><trkpt lat="42.26107802380362" lon="13.240671611325919"><ele>1238.6</ele><time>2026-05-02T16:55:41.999Z</time></trkpt><trkpt lat="42.26118007874629" lon="13.240607019353122"><ele>1240.8</ele><time>2026-05-02T16:55:42.999Z</time></trkpt><trkpt lat="42.26127477511647" lon="13.240550121637874"><ele>1243.0</ele><time>2026-05-02T16:55:43.999Z</time></trkpt><trkpt lat="42.26135804063435" lon="13.240504652234488"><ele>1241.8333333333333</ele><time>2026-05-02T16:55:44.999Z</time></trkpt><trkpt lat="42.261431592943296" lon="13.240459848484523"><ele>1240.6666666666665</ele><time>2026-05-02T16:55:45.999Z</time></trkpt><trkpt lat="42.261504862707866" lon="13.240407663648043"><ele>1239.5</ele><time>2026-05-02T16:55:46.999Z</time></trkpt><trkpt lat="42.261560887647" lon="13.240341630688144"><ele>1238.3333333333333</ele><time>2026-05-02T16:55:47.999Z</time></trkpt><trkpt lat="42.26162640288434" lon="13.24026687412368"><ele>1237.1666666666667</ele><time>2026-05-02T16:55:48.999Z</time></trkpt><trkpt lat="42.26169241144295" lon="13.240196888386308"><ele>1236.0</ele><time>2026-05-02T16:55:49.999Z</time></trkpt><trkpt lat="42.26175304221029" lon="13.240125459978453"><ele>1236.0</ele><time>2026-05-02T16:55:50.999Z</time></trkpt><trkpt lat="42.261816104349144" lon="13.2400684967232"><ele>1236.0</ele><time>2026-05-02T16:55:51.999Z</time></trkpt><trkpt lat="42.26188088132552" lon="13.24002434665039"><ele>1236.0</ele><time>2026-05-02T16:55:52.999Z</time></trkpt><trkpt lat="42.261951322031656" lon="13.239980747579901"><ele>1236.0</ele><time>2026-05-02T16:55:53.999Z</time></trkpt><trkpt lat="42.262021125989804" lon="13.239933186984624"><ele>1236.0</ele><time>2026-05-02T16:55:54.999Z</time></trkpt><trkpt lat="42.262098256540064" lon="13.239897305289661"><ele>1236.0</ele><time>2026-05-02T16:55:55.999Z</time></trkpt><trkpt lat="42.26217668436876" lon="13.239903574683268"><ele>1236.0</ele><time>2026-05-02T16:55:56.999Z</time></trkpt><trkpt lat="42.26225291672588" lon="13.239881329184167"><ele>1236.0</ele><time>2026-05-02T16:55:57.999Z</time></trkpt><trkpt lat="42.26232196303604" lon="13.239865695806344"><ele>1236.0</ele><time>2026-05-02T16:55:58.999Z</time></trkpt><trkpt lat="42.26244773537638" lon="13.2398412292244"><ele>1236.0</ele><time>2026-05-02T16:56:00.999Z</time></trkpt><trkpt lat="42.2625257268259" lon="13.239827939732944"><ele>1236.0</ele><time>2026-05-02T16:56:01.999Z</time></trkpt><trkpt lat="42.26259653724517" lon="13.23981587387092"><ele>1236.0</ele><time>2026-05-02T16:56:02.999Z</time></trkpt><trkpt lat="42.262671949471375" lon="13.239801498287317"><ele>1232.6666666666667</ele><time>2026-05-02T16:56:03.999Z</time></trkpt><trkpt lat="42.262744317189906" lon="13.239787593776255"><ele>1229.3333333333333</ele><time>2026-05-02T16:56:04.999Z</time></trkpt><trkpt lat="42.26281288024205" lon="13.239760977953049"><ele>1226.0</ele><time>2026-05-02T16:56:05.999Z</time></trkpt><trkpt lat="42.262893379444535" lon="13.23975728816823"><ele>1222.6666666666665</ele><time>2026-05-02T16:56:06.999Z</time></trkpt><trkpt lat="42.262969540362995" lon="13.239745799535347"><ele>1219.3333333333333</ele><time>2026-05-02T16:56:07.999Z</time></trkpt><trkpt lat="42.26304516186611" lon="13.23971843444631"><ele>1216.0</ele><time>2026-05-02T16:56:08.999Z</time></trkpt><trkpt lat="42.26311073242689" lon="13.23967178975031"><ele>1217.6666666666665</ele><time>2026-05-02T16:56:09.999Z</time></trkpt><trkpt lat="42.263162433085" lon="13.239603388959909"><ele>1219.3333333333333</ele><time>2026-05-02T16:56:10.999Z</time></trkpt><trkpt lat="42.26321093225136" lon="13.239534342286275"><ele>1221.0</ele><time>2026-05-02T16:56:11.999Z</time></trkpt><trkpt lat="42.263239710178794" lon="13.239432450079214"><ele>1222.6666666666667</ele><time>2026-05-02T16:56:12.999Z</time></trkpt><trkpt lat="42.26323889366433" lon="13.239329144085296"><ele>1224.3333333333335</ele><time>2026-05-02T16:56:13.999Z</time></trkpt><trkpt lat="42.2632608110681" lon="13.239222747976493"><ele>1226.0</ele><time>2026-05-02T16:56:14.999Z</time></trkpt><trkpt lat="42.263268418634716" lon="13.239104915319766"><ele>1226.0</ele><time>2026-05-02T16:56:15.999Z</time></trkpt><trkpt lat="42.263271453288105" lon="13.238978018133302"><ele>1226.0</ele><time>2026-05-02T16:56:16.999Z</time></trkpt><trkpt lat="42.26327810200596" lon="13.238867524362803"><ele>1226.0</ele><time>2026-05-02T16:56:17.999Z</time></trkpt><trkpt lat="42.26328817904555" lon="13.23875537088337"><ele>1226.0</ele><time>2026-05-02T16:56:18.999Z</time></trkpt><trkpt lat="42.26330062825375" lon="13.238653861085554"><ele>1226.0</ele><time>2026-05-02T16:56:19.999Z</time></trkpt><trkpt lat="42.263318157375544" lon="13.238565690209297"><ele>1226.0</ele><time>2026-05-02T16:56:20.999Z</time></trkpt><trkpt lat="42.263342001392566" lon="13.238484998819386"><ele>1224.1666666666667</ele><time>2026-05-02T16:56:21.999Z</time></trkpt><trkpt lat="42.263403497117146" lon="13.238341492911587"><ele>1222.3333333333335</ele><time>2026-05-02T16:56:23.999Z</time></trkpt><trkpt lat="42.26344703190142" lon="13.238255465114511"><ele>1220.5</ele><time>2026-05-02T16:56:24.999Z</time></trkpt><trkpt lat="42.263499305129066" lon="13.238169222508152"><ele>1218.6666666666667</ele><time>2026-05-02T16:56:25.999Z</time></trkpt><trkpt lat="42.263553078615466" lon="13.238087022617055"><ele>1216.8333333333333</ele><time>2026-05-02T16:56:26.999Z</time></trkpt><trkpt lat="42.26360947571708" lon="13.238002329914025"><ele>1215.0</ele><time>2026-05-02T16:56:27.999Z</time></trkpt><trkpt lat="42.26366078526167" lon="13.23792336430579"><ele>1214.5</ele><time>2026-05-02T16:56:28.999Z</time></trkpt><trkpt lat="42.26370670446435" lon="13.237849080811657"><ele>1214.0</ele><time>2026-05-02T16:56:29.999Z</time></trkpt><trkpt lat="42.263747651867966" lon="13.237732322978555"><ele>1213.5</ele><time>2026-05-02T16:56:31.999Z</time></trkpt><trkpt lat="42.26380315791098" lon="13.237628931302794"><ele>1213.0</ele><time>2026-05-02T16:56:34.999Z</time></trkpt><trkpt lat="42.263869570760384" lon="13.237697567142508"><ele>1212.5</ele><time>2026-05-02T16:56:36.999Z</time></trkpt><trkpt lat="42.26395356903547" lon="13.237688077735083"><ele>1212.0</ele><time>2026-05-02T16:56:38.999Z</time></trkpt><trkpt lat="42.264009914360116" lon="13.237642756080485"><ele>1212.0</ele><time>2026-05-02T16:56:39.999Z</time></trkpt><trkpt lat="42.26407072583509" lon="13.237583923799521"><ele>1212.0</ele><time>2026-05-02T16:56:40.999Z</time></trkpt><trkpt lat="42.2641448742603" lon="13.237523625634598"><ele>1212.0</ele><time>2026-05-02T16:56:41.999Z</time></trkpt><trkpt lat="42.26424028426453" lon="13.237466820536113"><ele>1212.0</ele><time>2026-05-02T16:56:42.999Z</time></trkpt><trkpt lat="42.26434058789617" lon="13.237422463582645"><ele>1212.0</ele><time>2026-05-02T16:56:43.999Z</time></trkpt><trkpt lat="42.264433017450884" lon="13.237394337024986"><ele>1212.0</ele><time>2026-05-02T16:56:44.999Z</time></trkpt><trkpt lat="42.26452671386728" lon="13.237382675101236"><ele>1212.0</ele><time>2026-05-02T16:56:45.999Z</time></trkpt><trkpt lat="42.264606857107985" lon="13.23737543276233"><ele>1212.0</ele><time>2026-05-02T16:56:46.999Z</time></trkpt><trkpt lat="42.26468030129837" lon="13.237432112548918"><ele>1212.0</ele><time>2026-05-02T16:56:47.998Z</time></trkpt><trkpt lat="42.26475158213608" lon="13.237507503362275"><ele>1212.0</ele><time>2026-05-02T16:56:48.998Z</time></trkpt><trkpt lat="42.26480203754805" lon="13.237618096293353"><ele>1212.0</ele><time>2026-05-02T16:56:49.998Z</time></trkpt><trkpt lat="42.26486801686621" lon="13.237713002914795"><ele>1212.6</ele><time>2026-05-02T16:56:50.998Z</time></trkpt><trkpt lat="42.26494593742209" lon="13.237807829712414"><ele>1213.2</ele><time>2026-05-02T16:56:51.998Z</time></trkpt><trkpt lat="42.265027350998885" lon="13.237888096701612"><ele>1213.8</ele><time>2026-05-02T16:56:52.998Z</time></trkpt><trkpt lat="42.265125059963026" lon="13.237942889817443"><ele>1214.4</ele><time>2026-05-02T16:56:53.998Z</time></trkpt><trkpt lat="42.26520773786844" lon="13.238027622541862"><ele>1215.0</ele><time>2026-05-02T16:56:54.998Z</time></trkpt><trkpt lat="42.2652665671625" lon="13.238157881377308"><ele>1213.0</ele><time>2026-05-02T16:56:55.998Z</time></trkpt><trkpt lat="42.26531125672825" lon="13.238297806379272"><ele>1211.0</ele><time>2026-05-02T16:56:56.998Z</time></trkpt><trkpt lat="42.26536966587451" lon="13.238436796413387"><ele>1209.0</ele><time>2026-05-02T16:56:57.998Z</time></trkpt><trkpt lat="42.26543052386687" lon="13.238573045919651"><ele>1207.0</ele><time>2026-05-02T16:56:58.998Z</time></trkpt><trkpt lat="42.26549295184365" lon="13.238697940314331"><ele>1207.0</ele><time>2026-05-02T16:56:59.998Z</time></trkpt><trkpt lat="42.26556996074328" lon="13.238807818997204"><ele>1207.0</ele><time>2026-05-02T16:57:00.998Z</time></trkpt><trkpt lat="42.26563092622167" lon="13.238929043401825"><ele>1207.0</ele><time>2026-05-02T16:57:01.998Z</time></trkpt><trkpt lat="42.265680788741136" lon="13.239054918568407"><ele>1207.0</ele><time>2026-05-02T16:57:02.998Z</time></trkpt><trkpt lat="42.265733050159206" lon="13.239161144717082"><ele>1207.0</ele><time>2026-05-02T16:57:03.998Z</time></trkpt><trkpt lat="42.26574031386122" lon="13.239293200606804"><ele>1206.2</ele><time>2026-05-02T16:57:04.998Z</time></trkpt><trkpt lat="42.265772133181144" lon="13.239417257841275"><ele>1205.4</ele><time>2026-05-02T16:57:05.998Z</time></trkpt><trkpt lat="42.265813006210216" lon="13.239540961915115"><ele>1204.6</ele><time>2026-05-02T16:57:06.998Z</time></trkpt><trkpt lat="42.26587683844105" lon="13.239670548221852"><ele>1203.8</ele><time>2026-05-02T16:57:07.998Z</time></trkpt><trkpt lat="42.265961559930055" lon="13.23977519488718"><ele>1203.0</ele><time>2026-05-02T16:57:08.998Z</time></trkpt><trkpt lat="42.266041708643755" lon="13.239891923442961"><ele>1201.0</ele><time>2026-05-02T16:57:09.998Z</time></trkpt><trkpt lat="42.266123968941045" lon="13.240012780530108"><ele>1199.0</ele><time>2026-05-02T16:57:10.998Z</time></trkpt><trkpt lat="42.26621451014596" lon="13.240125121641164"><ele>1197.0</ele><time>2026-05-02T16:57:11.998Z</time></trkpt><trkpt lat="42.266297061421454" lon="13.240244365601598"><ele>1195.0</ele><time>2026-05-02T16:57:12.998Z</time></trkpt><trkpt lat="42.2663812037222" lon="13.240362931555868"><ele>1195.5</ele><time>2026-05-02T16:57:13.998Z</time></trkpt><trkpt lat="42.26648644385739" lon="13.240457281657877"><ele>1196.0</ele><time>2026-05-02T16:57:14.998Z</time></trkpt><trkpt lat="42.26658932181265" lon="13.240540282972237"><ele>1196.5</ele><time>2026-05-02T16:57:15.998Z</time></trkpt><trkpt lat="42.26670378963781" lon="13.24061913926396"><ele>1197.0</ele><time>2026-05-02T16:57:16.998Z</time></trkpt><trkpt lat="42.266832647042875" lon="13.240669998558316"><ele>1194.0</ele><time>2026-05-02T16:57:17.998Z</time></trkpt><trkpt lat="42.26696447636114" lon="13.240752342224727"><ele>1191.0</ele><time>2026-05-02T16:57:18.998Z</time></trkpt><trkpt lat="42.267081520777175" lon="13.240787857535908"><ele>1188.0</ele><time>2026-05-02T16:57:19.998Z</time></trkpt><trkpt lat="42.26720739076032" lon="13.240817529220212"><ele>1185.0</ele><time>2026-05-02T16:57:20.998Z</time></trkpt><trkpt lat="42.26732941930109" lon="13.240856724737077"><ele>1184.75</ele><time>2026-05-02T16:57:21.998Z</time></trkpt><trkpt lat="42.26744992458642" lon="13.240888469636866"><ele>1184.5</ele><time>2026-05-02T16:57:23Z</time></trkpt><trkpt lat="42.267559161401536" lon="13.240931843486429"><ele>1184.25</ele><time>2026-05-02T16:57:24Z</time></trkpt><trkpt lat="42.267663802651434" lon="13.240990024765026"><ele>1184.0</ele><time>2026-05-02T16:57:25Z</time></trkpt><trkpt lat="42.26774664297608" lon="13.241075682842126"><ele>1184.0</ele><time>2026-05-02T16:57:26Z</time></trkpt><trkpt lat="42.267830652257565" lon="13.241148105723479"><ele>1184.0</ele><time>2026-05-02T16:57:27Z</time></trkpt><trkpt lat="42.26789658292828" lon="13.241224554743155"><ele>1184.0</ele><time>2026-05-02T16:57:28Z</time></trkpt><trkpt lat="42.26795670464759" lon="13.241300133267835"><ele>1184.0</ele><time>2026-05-02T16:57:29Z</time></trkpt><trkpt lat="42.26797622309993" lon="13.241420663329668"><ele>1184.0</ele><time>2026-05-02T16:57:30Z</time></trkpt><trkpt lat="42.26793908575085" lon="13.241561154426387"><ele>1183.0</ele><time>2026-05-02T16:57:31Z</time></trkpt><trkpt lat="42.267933855110016" lon="13.24171590226483"><ele>1182.0</ele><time>2026-05-02T16:57:32Z</time></trkpt><trkpt lat="42.2679481337081" lon="13.241882466329155"><ele>1181.0</ele><time>2026-05-02T16:57:33Z</time></trkpt><trkpt lat="42.267939135189934" lon="13.242046572522005"><ele>1180.0</ele><time>2026-05-02T16:57:34Z</time></trkpt><trkpt lat="42.2679837782428" lon="13.242198702567672"><ele>1179.75</ele><time>2026-05-02T16:57:35Z</time></trkpt><trkpt lat="42.26801958856818" lon="13.24235260496515"><ele>1179.5</ele><time>2026-05-02T16:57:36Z</time></trkpt><trkpt lat="42.268058300185274" lon="13.242506785185075"><ele>1179.25</ele><time>2026-05-02T16:57:37Z</time></trkpt><trkpt lat="42.268098347524734" lon="13.242644854624428"><ele>1179.0</ele><time>2026-05-02T16:57:38Z</time></trkpt><trkpt lat="42.268135732806684" lon="13.242772665105207"><ele>1179.0</ele><time>2026-05-02T16:57:39Z</time></trkpt><trkpt lat="42.268189668283156" lon="13.242877396302719"><ele>1179.0</ele><time>2026-05-02T16:57:40Z</time></trkpt><trkpt lat="42.26824722663396" lon="13.242982233150267"><ele>1179.0</ele><time>2026-05-02T16:57:41Z</time></trkpt><trkpt lat="42.268350996184736" lon="13.243015675396967"><ele>1179.0</ele><time>2026-05-02T16:57:42Z</time></trkpt><trkpt lat="42.268451943051176" lon="13.2430327504431"><ele>1179.0</ele><time>2026-05-02T16:57:43Z</time></trkpt><trkpt lat="42.26855376194488" lon="13.243030952559058"><ele>1179.0</ele><time>2026-05-02T16:57:44Z</time></trkpt><trkpt lat="42.268663305714256" lon="13.243016366047746"><ele>1179.0</ele><time>2026-05-02T16:57:45Z</time></trkpt><trkpt lat="42.268775515561984" lon="13.243010736150445"><ele>1179.0</ele><time>2026-05-02T16:57:46Z</time></trkpt><trkpt lat="42.268883006233764" lon="13.243031803218852"><ele>1179.0</ele><time>2026-05-02T16:57:46.999Z</time></trkpt><trkpt lat="42.26898763515029" lon="13.243076401874331"><ele>1179.0</ele><time>2026-05-02T16:57:47.999Z</time></trkpt><trkpt lat="42.269089549147175" lon="13.24313180559682"><ele>1180.6000000000001</ele><time>2026-05-02T16:57:48.999Z</time></trkpt><trkpt lat="42.269187421661925" lon="13.243213236828089"><ele>1182.2</ele><time>2026-05-02T16:57:49.999Z</time></trkpt><trkpt lat="42.269290171174" lon="13.243274440517972"><ele>1183.8000000000002</ele><time>2026-05-02T16:57:50.999Z</time></trkpt><trkpt lat="42.26939212189515" lon="13.243301113698854"><ele>1185.4</ele><time>2026-05-02T16:57:51.999Z</time></trkpt><trkpt lat="42.26948091737464" lon="13.243332715824913"><ele>1187.0</ele><time>2026-05-02T16:57:52.999Z</time></trkpt><trkpt lat="42.26956979830199" lon="13.243358061736638"><ele>1187.0</ele><time>2026-05-02T16:57:53.999Z</time></trkpt><trkpt lat="42.26965037271687" lon="13.243379112691176"><ele>1187.0</ele><time>2026-05-02T16:57:54.999Z</time></trkpt><trkpt lat="42.26972624102054" lon="13.243386602423051"><ele>1187.0</ele><time>2026-05-02T16:57:55.999Z</time></trkpt><trkpt lat="42.26981369906934" lon="13.243381047005522"><ele>1187.0</ele><time>2026-05-02T16:57:56.999Z</time></trkpt><trkpt lat="42.26990611814604" lon="13.24338134456686"><ele>1187.0</ele><time>2026-05-02T16:57:57.999Z</time></trkpt><trkpt lat="42.2699974506677" lon="13.24331984378405"><ele>1187.0</ele><time>2026-05-02T16:57:58.999Z</time></trkpt><trkpt lat="42.270073793062785" lon="13.243266992107605"><ele>1188.2</ele><time>2026-05-02T16:57:59.999Z</time></trkpt><trkpt lat="42.27013831070541" lon="13.2432041506456"><ele>1189.4</ele><time>2026-05-02T16:58:00.999Z</time></trkpt><trkpt lat="42.270199661133404" lon="13.24311788409222"><ele>1190.6</ele><time>2026-05-02T16:58:01.999Z</time></trkpt><trkpt lat="42.270266301475445" lon="13.243021100231568"><ele>1191.8</ele><time>2026-05-02T16:58:02.999Z</time></trkpt><trkpt lat="42.27033971188148" lon="13.242932389110583"><ele>1193.0</ele><time>2026-05-02T16:58:03.999Z</time></trkpt><trkpt lat="42.270423941764705" lon="13.242858595622844"><ele>1193.4</ele><time>2026-05-02T16:58:04.999Z</time></trkpt><trkpt lat="42.270514941273426" lon="13.242791166271427"><ele>1193.8</ele><time>2026-05-02T16:58:05.999Z</time></trkpt><trkpt lat="42.27061317121204" lon="13.242740226480977"><ele>1194.2</ele><time>2026-05-02T16:58:06.999Z</time></trkpt><trkpt lat="42.270709607793414" lon="13.242681569677783"><ele>1194.6</ele><time>2026-05-02T16:58:07.999Z</time></trkpt><trkpt lat="42.27080532020295" lon="13.242624312507575"><ele>1195.0</ele><time>2026-05-02T16:58:08.999Z</time></trkpt><trkpt lat="42.270899917566624" lon="13.242554736500159"><ele>1196.0</ele><time>2026-05-02T16:58:09.999Z</time></trkpt><trkpt lat="42.27100268608007" lon="13.242479603718964"><ele>1197.0</ele><time>2026-05-02T16:58:10.999Z</time></trkpt><trkpt lat="42.27110859320928" lon="13.242406388792114"><ele>1198.0</ele><time>2026-05-02T16:58:11.999Z</time></trkpt><trkpt lat="42.27121595834824" lon="13.242340682858792"><ele>1199.0</ele><time>2026-05-02T16:58:12.999Z</time></trkpt><trkpt lat="42.27131156749547" lon="13.242273233560999"><ele>1199.0</ele><time>2026-05-02T16:58:13.999Z</time></trkpt><trkpt lat="42.27140073157763" lon="13.24221542961305"><ele>1199.0</ele><time>2026-05-02T16:58:14.999Z</time></trkpt><trkpt lat="42.27149094873455" lon="13.242155714155023"><ele>1199.0</ele><time>2026-05-02T16:58:15.999Z</time></trkpt><trkpt lat="42.271571093363406" lon="13.242101122545966"><ele>1199.0</ele><time>2026-05-02T16:58:16.999Z</time></trkpt><trkpt lat="42.271644153466106" lon="13.242042170983645"><ele>1199.0</ele><time>2026-05-02T16:58:17.999Z</time></trkpt><trkpt lat="42.27171219035616" lon="13.241960936687082"><ele>1197.0</ele><time>2026-05-02T16:58:18.999Z</time></trkpt><trkpt lat="42.271776629386736" lon="13.241878802541475"><ele>1195.0</ele><time>2026-05-02T16:58:19.999Z</time></trkpt><trkpt lat="42.27184379991489" lon="13.241798059713823"><ele>1193.0</ele><time>2026-05-02T16:58:20.999Z</time></trkpt><trkpt lat="42.27191071627645" lon="13.24172305658998"><ele>1191.0</ele><time>2026-05-02T16:58:21.999Z</time></trkpt><trkpt lat="42.27197486016956" lon="13.241657286009078"><ele>1189.0</ele><time>2026-05-02T16:58:22.999Z</time></trkpt><trkpt lat="42.272048809274104" lon="13.241595140766831"><ele>1187.0</ele><time>2026-05-02T16:58:23.999Z</time></trkpt><trkpt lat="42.27211437303447" lon="13.241551608661336"><ele>1187.0</ele><time>2026-05-02T16:58:24.999Z</time></trkpt><trkpt lat="42.27219152459289" lon="13.24152398107682"><ele>1187.0</ele><time>2026-05-02T16:58:25.999Z</time></trkpt><trkpt lat="42.272272208106756" lon="13.241511378791218"><ele>1187.0</ele><time>2026-05-02T16:58:26.999Z</time></trkpt><trkpt lat="42.272361863586866" lon="13.241509906433793"><ele>1187.0</ele><time>2026-05-02T16:58:27.999Z</time></trkpt><trkpt lat="42.27245967868684" lon="13.241523461835726"><ele>1187.0</ele><time>2026-05-02T16:58:28.999Z</time></trkpt><trkpt lat="42.27256502196754" lon="13.241551531028191"><ele>1185.75</ele><time>2026-05-02T16:58:29.999Z</time></trkpt><trkpt lat="42.2726740109274" lon="13.241578001314362"><ele>1184.5</ele><time>2026-05-02T16:58:30.999Z</time></trkpt><trkpt lat="42.272789455337225" lon="13.241610035556315"><ele>1183.25</ele><time>2026-05-02T16:58:31.999Z</time></trkpt><trkpt lat="42.272909843890886" lon="13.241635611140186"><ele>1182.0</ele><time>2026-05-02T16:58:32.999Z</time></trkpt><trkpt lat="42.2730164193839" lon="13.241652383311719"><ele>1181.5</ele><time>2026-05-02T16:58:33.999Z</time></trkpt><trkpt lat="42.2731149900829" lon="13.241666506269636"><ele>1181.0</ele><time>2026-05-02T16:58:34.999Z</time></trkpt><trkpt lat="42.273208590367666" lon="13.241677839381142"><ele>1180.5</ele><time>2026-05-02T16:58:35.999Z</time></trkpt><trkpt lat="42.27329311663189" lon="13.24168170172018"><ele>1180.0</ele><time>2026-05-02T16:58:36.999Z</time></trkpt><trkpt lat="42.27336245163374" lon="13.241680439722659"><ele>1179.5</ele><time>2026-05-02T16:58:37.999Z</time></trkpt><trkpt lat="42.27342769649316" lon="13.241689732637491"><ele>1179.0</ele><time>2026-05-02T16:58:38.999Z</time></trkpt><trkpt lat="42.27349500429234" lon="13.24170852208819"><ele>1179.0</ele><time>2026-05-02T16:58:39.999Z</time></trkpt><trkpt lat="42.27355932653045" lon="13.241740135252"><ele>1179.0</ele><time>2026-05-02T16:58:40.999Z</time></trkpt><trkpt lat="42.27362179598836" lon="13.241801370904644"><ele>1179.0</ele><time>2026-05-02T16:58:41.999Z</time></trkpt><trkpt lat="42.273691870045646" lon="13.24189248658896"><ele>1179.0</ele><time>2026-05-02T16:58:42.999Z</time></trkpt><trkpt lat="42.2737638217061" lon="13.241987681283677"><ele>1179.0</ele><time>2026-05-02T16:58:43.999Z</time></trkpt><trkpt lat="42.273845026905256" lon="13.242071381365236"><ele>1179.0</ele><time>2026-05-02T16:58:44.999Z</time></trkpt><trkpt lat="42.27391667172709" lon="13.242143788817762"><ele>1179.5</ele><time>2026-05-02T16:58:45.999Z</time></trkpt><trkpt lat="42.27398362699074" lon="13.242202675526977"><ele>1180.0</ele><time>2026-05-02T16:58:46.999Z</time></trkpt><trkpt lat="42.27404206027056" lon="13.242248625794915"><ele>1180.5</ele><time>2026-05-02T16:58:47.999Z</time></trkpt><trkpt lat="42.274099679872954" lon="13.242287781175438"><ele>1181.0</ele><time>2026-05-02T16:58:48.999Z</time></trkpt><trkpt lat="42.27415456478149" lon="13.24233804919897"><ele>1181.5</ele><time>2026-05-02T16:58:49.999Z</time></trkpt><trkpt lat="42.2741738132772" lon="13.242421077346602"><ele>1182.0</ele><time>2026-05-02T16:58:50.999Z</time></trkpt><trkpt lat="42.27420615998223" lon="13.24257581160234"><ele>1183.0</ele><time>2026-05-02T16:58:52.999Z</time></trkpt><trkpt lat="42.2742154629752" lon="13.242703764143512"><ele>1184.0</ele><time>2026-05-02T16:58:54.999Z</time></trkpt><trkpt lat="42.274228598097686" lon="13.242853099995285"><ele>1185.0</ele><time>2026-05-02T16:58:56.998Z</time></trkpt><trkpt lat="42.2742325599195" lon="13.242938724327288"><ele>1186.0</ele><time>2026-05-02T16:58:57.998Z</time></trkpt><trkpt lat="42.274248003853906" lon="13.243039699829197"><ele>1187.0</ele><time>2026-05-02T16:58:58.998Z</time></trkpt><trkpt lat="42.27429602467771" lon="13.243120301960408"><ele>1188.0</ele><time>2026-05-02T16:58:59.998Z</time></trkpt><trkpt lat="42.27433925628714" lon="13.243194201923545"><ele>1188.0</ele><time>2026-05-02T16:59:00.998Z</time></trkpt><trkpt lat="42.27438159599221" lon="13.243291543452425"><ele>1188.0</ele><time>2026-05-02T16:59:01.998Z</time></trkpt><trkpt lat="42.27446125388053" lon="13.243342618415715"><ele>1188.0</ele><time>2026-05-02T16:59:02.998Z</time></trkpt><trkpt lat="42.27453585136161" lon="13.243406050439935"><ele>1188.0</ele><time>2026-05-02T16:59:03.998Z</time></trkpt><trkpt lat="42.27461512410754" lon="13.243469786859448"><ele>1188.0</ele><time>2026-05-02T16:59:04.998Z</time></trkpt><trkpt lat="42.27471134759128" lon="13.243533774068922"><ele>1191.0</ele><time>2026-05-02T16:59:05.998Z</time></trkpt><trkpt lat="42.27479500428574" lon="13.243619536644932"><ele>1194.0</ele><time>2026-05-02T16:59:06.998Z</time></trkpt><trkpt lat="42.27488773860165" lon="13.243672877341458"><ele>1197.0</ele><time>2026-05-02T16:59:07.998Z</time></trkpt><trkpt lat="42.27496567381871" lon="13.243745909603401"><ele>1200.0</ele><time>2026-05-02T16:59:08.998Z</time></trkpt><trkpt lat="42.27505714209018" lon="13.243812143065988"><ele>1203.0</ele><time>2026-05-02T16:59:09.998Z</time></trkpt><trkpt lat="42.2751387899059" lon="13.243882577523927"><ele>1202.4</ele><time>2026-05-02T16:59:10.998Z</time></trkpt><trkpt lat="42.27522404856847" lon="13.24396504568452"><ele>1201.8</ele><time>2026-05-02T16:59:11.998Z</time></trkpt><trkpt lat="42.27532188864462" lon="13.244043002151349"><ele>1201.2</ele><time>2026-05-02T16:59:12.998Z</time></trkpt><trkpt lat="42.27542109057007" lon="13.244121814498126"><ele>1200.6</ele><time>2026-05-02T16:59:13.998Z</time></trkpt><trkpt lat="42.27550542131249" lon="13.24418642590762"><ele>1200.0</ele><time>2026-05-02T16:59:14.998Z</time></trkpt><trkpt lat="42.275577797555684" lon="13.244245031309887"><ele>1201.5</ele><time>2026-05-02T16:59:15.998Z</time></trkpt><trkpt lat="42.275650245421126" lon="13.24431940147162"><ele>1203.0</ele><time>2026-05-02T16:59:16.998Z</time></trkpt><trkpt lat="42.27572158452161" lon="13.244399742613052"><ele>1204.5</ele><time>2026-05-02T16:59:17.998Z</time></trkpt><trkpt lat="42.275796314197216" lon="13.244453979020934"><ele>1206.0</ele><time>2026-05-02T16:59:18.998Z</time></trkpt><trkpt lat="42.27587940012608" lon="13.24448549351107"><ele>1207.5</ele><time>2026-05-02T16:59:19.998Z</time></trkpt><trkpt lat="42.27596557257235" lon="13.244507182649574"><ele>1209.0</ele><time>2026-05-02T16:59:20.998Z</time></trkpt><trkpt lat="42.27604225705972" lon="13.244526749477489"><ele>1209.0</ele><time>2026-05-02T16:59:21.998Z</time></trkpt><trkpt lat="42.27612290696677" lon="13.244548848970473"><ele>1209.0</ele><time>2026-05-02T16:59:22.998Z</time></trkpt><trkpt lat="42.276211835007786" lon="13.244568997332609"><ele>1209.0</ele><time>2026-05-02T16:59:23.998Z</time></trkpt><trkpt lat="42.276277926177414" lon="13.244572750296136"><ele>1209.0</ele><time>2026-05-02T16:59:24.998Z</time></trkpt><trkpt lat="42.276343812602626" lon="13.244649813338015"><ele>1209.0</ele><time>2026-05-02T16:59:26.998Z</time></trkpt><trkpt lat="42.276446418144204" lon="13.244753720228772"><ele>1209.6666666666667</ele><time>2026-05-02T16:59:29Z</time></trkpt><trkpt lat="42.27650306943849" lon="13.244811693223712"><ele>1210.3333333333333</ele><time>2026-05-02T16:59:30Z</time></trkpt><trkpt lat="42.276564662785596" lon="13.244876592306927"><ele>1211.0</ele><time>2026-05-02T16:59:31Z</time></trkpt><trkpt lat="42.276634834632766" lon="13.244924737048638"><ele>1211.6666666666665</ele><time>2026-05-02T16:59:32Z</time></trkpt><trkpt lat="42.27667485587314" lon="13.244994481246964"><ele>1212.3333333333333</ele><time>2026-05-02T16:59:33Z</time></trkpt><trkpt lat="42.276725729696935" lon="13.245046399005922"><ele>1213.0</ele><time>2026-05-02T16:59:34Z</time></trkpt><trkpt lat="42.276836705606996" lon="13.245148618528736"><ele>1213.0</ele><time>2026-05-02T16:59:36Z</time></trkpt><trkpt lat="42.276909073641875" lon="13.245200283129066"><ele>1213.0</ele><time>2026-05-02T16:59:37Z</time></trkpt><trkpt lat="42.276977714374866" lon="13.24524462639773"><ele>1213.0</ele><time>2026-05-02T16:59:38Z</time></trkpt><trkpt lat="42.27704031234628" lon="13.245281839306568"><ele>1213.0</ele><time>2026-05-02T16:59:39Z</time></trkpt><trkpt lat="42.27710377727621" lon="13.245319135772434"><ele>1213.0</ele><time>2026-05-02T16:59:40Z</time></trkpt><trkpt lat="42.2771741448302" lon="13.245346072644116"><ele>1213.0</ele><time>2026-05-02T16:59:41Z</time></trkpt><trkpt lat="42.27727432916328" lon="13.245425638048012"><ele>1211.6666666666665</ele><time>2026-05-02T16:59:43Z</time></trkpt><trkpt lat="42.277323692019564" lon="13.245583554064766"><ele>1210.3333333333333</ele><time>2026-05-02T16:59:45Z</time></trkpt><trkpt lat="42.277366830257634" lon="13.245674710344042"><ele>1209.0</ele><time>2026-05-02T16:59:46Z</time></trkpt><trkpt lat="42.2774292938641" lon="13.245745337176153"><ele>1207.6666666666667</ele><time>2026-05-02T16:59:47Z</time></trkpt><trkpt lat="42.27748387754713" lon="13.24580939755655"><ele>1206.3333333333335</ele><time>2026-05-02T16:59:48Z</time></trkpt><trkpt lat="42.277568637885395" lon="13.245837119087422"><ele>1205.0</ele><time>2026-05-02T16:59:49Z</time></trkpt><trkpt lat="42.27765057507362" lon="13.24585526817549"><ele>1205.0</ele><time>2026-05-02T16:59:50Z</time></trkpt><trkpt lat="42.27773934619209" lon="13.245854770057196"><ele>1205.0</ele><time>2026-05-02T16:59:51Z</time></trkpt><trkpt lat="42.277832607065584" lon="13.245889804110849"><ele>1205.0</ele><time>2026-05-02T16:59:52Z</time></trkpt><trkpt lat="42.27793940140839" lon="13.24590578662358"><ele>1205.0</ele><time>2026-05-02T16:59:53Z</time></trkpt><trkpt lat="42.27804279955139" lon="13.245920469634223"><ele>1205.0</ele><time>2026-05-02T16:59:54Z</time></trkpt><trkpt lat="42.27814495907458" lon="13.24593315800848"><ele>1202.6</ele><time>2026-05-02T16:59:54.999Z</time></trkpt><trkpt lat="42.278239784526804" lon="13.245939435552236"><ele>1200.2</ele><time>2026-05-02T16:59:55.999Z</time></trkpt><trkpt lat="42.27833486159661" lon="13.245938717900595"><ele>1197.8</ele><time>2026-05-02T16:59:56.999Z</time></trkpt><trkpt lat="42.27843563400479" lon="13.245908468920566"><ele>1195.4</ele><time>2026-05-02T16:59:57.999Z</time></trkpt><trkpt lat="42.27853953308055" lon="13.245877351168259"><ele>1193.0</ele><time>2026-05-02T16:59:58.999Z</time></trkpt><trkpt lat="42.27864527596676" lon="13.245824822275626"><ele>1193.0</ele><time>2026-05-02T16:59:59.999Z</time></trkpt><trkpt lat="42.2787644050825" lon="13.24578044989474"><ele>1193.0</ele><time>2026-05-02T17:00:00.999Z</time></trkpt><trkpt lat="42.27889735046506" lon="13.24571767403708"><ele>1193.0</ele><time>2026-05-02T17:00:01.999Z</time></trkpt><trkpt lat="42.27902382565692" lon="13.245646966321718"><ele>1193.0</ele><time>2026-05-02T17:00:02.999Z</time></trkpt><trkpt lat="42.279153282850864" lon="13.245615999635053"><ele>1194.25</ele><time>2026-05-02T17:00:03.999Z</time></trkpt><trkpt lat="42.279289270909" lon="13.245599832659485"><ele>1195.5</ele><time>2026-05-02T17:00:04.999Z</time></trkpt><trkpt lat="42.279425828678384" lon="13.2455512968952"><ele>1196.75</ele><time>2026-05-02T17:00:05.999Z</time></trkpt><trkpt lat="42.27954740229768" lon="13.24549827002632"><ele>1198.0</ele><time>2026-05-02T17:00:06.999Z</time></trkpt><trkpt lat="42.27966461884064" lon="13.245442850408109"><ele>1196.5</ele><time>2026-05-02T17:00:07.999Z</time></trkpt><trkpt lat="42.279815262717214" lon="13.24537096047453"><ele>1195.0</ele><time>2026-05-02T17:00:08.999Z</time></trkpt><trkpt lat="42.27993282672343" lon="13.245313637139638"><ele>1193.5</ele><time>2026-05-02T17:00:09.999Z</time></trkpt><trkpt lat="42.28005293811879" lon="13.245235544625386"><ele>1192.0</ele><time>2026-05-02T17:00:10.999Z</time></trkpt><trkpt lat="42.28017431983456" lon="13.245136553631317"><ele>1192.0</ele><time>2026-05-02T17:00:11.999Z</time></trkpt><trkpt lat="42.2802921899966" lon="13.245019575740976"><ele>1192.0</ele><time>2026-05-02T17:00:12.999Z</time></trkpt><trkpt lat="42.28040661462554" lon="13.244910113423005"><ele>1192.0</ele><time>2026-05-02T17:00:13.999Z</time></trkpt><trkpt lat="42.28052242764831" lon="13.244814164321955"><ele>1192.0</ele><time>2026-05-02T17:00:14.999Z</time></trkpt><trkpt lat="42.280650281212644" lon="13.244739242904851"><ele>1192.75</ele><time>2026-05-02T17:00:15.999Z</time></trkpt><trkpt lat="42.2807835555839" lon="13.244675341553616"><ele>1193.5</ele><time>2026-05-02T17:00:16.999Z</time></trkpt><trkpt lat="42.28091828034203" lon="13.244626993335823"><ele>1194.25</ele><time>2026-05-02T17:00:17.999Z</time></trkpt><trkpt lat="42.28104266971009" lon="13.244578102451403"><ele>1195.0</ele><time>2026-05-02T17:00:18.999Z</time></trkpt><trkpt lat="42.28115345251074" lon="13.24452403757189"><ele>1195.0</ele><time>2026-05-02T17:00:19.999Z</time></trkpt><trkpt lat="42.281255271189536" lon="13.244484397014732"><ele>1195.0</ele><time>2026-05-02T17:00:20.999Z</time></trkpt><trkpt lat="42.28133289840124" lon="13.244473080315533"><ele>1195.0</ele><time>2026-05-02T17:00:21.999Z</time></trkpt><trkpt lat="42.28140049454453" lon="13.244508691649648"><ele>1195.0</ele><time>2026-05-02T17:00:22.999Z</time></trkpt><trkpt lat="42.28148660935917" lon="13.24453512208706"><ele>1195.0</ele><time>2026-05-02T17:00:23.999Z</time></trkpt><trkpt lat="42.28159278079689" lon="13.24457338779648"><ele>1193.4</ele><time>2026-05-02T17:00:24.999Z</time></trkpt><trkpt lat="42.28170791182606" lon="13.24459200207381"><ele>1191.8</ele><time>2026-05-02T17:00:25.999Z</time></trkpt><trkpt lat="42.28181032674929" lon="13.244634646247269"><ele>1190.2</ele><time>2026-05-02T17:00:26.999Z</time></trkpt><trkpt lat="42.2819083674714" lon="13.2446643534124"><ele>1188.6</ele><time>2026-05-02T17:00:27.999Z</time></trkpt><trkpt lat="42.2819941586675" lon="13.244689755965991"><ele>1187.0</ele><time>2026-05-02T17:00:28.999Z</time></trkpt><trkpt lat="42.282066469772104" lon="13.244704305221546"><ele>1187.0</ele><time>2026-05-02T17:00:29.999Z</time></trkpt><trkpt lat="42.282132129163884" lon="13.244709955795836"><ele>1187.0</ele><time>2026-05-02T17:00:30.999Z</time></trkpt><trkpt lat="42.28219543236778" lon="13.244688736794169"><ele>1187.0</ele><time>2026-05-02T17:00:31.999Z</time></trkpt><trkpt lat="42.282301420226815" lon="13.244595646855078"><ele>1187.0</ele><time>2026-05-02T17:00:33.999Z</time></trkpt><trkpt lat="42.28231187195966" lon="13.24448719832347"><ele>1187.0</ele><time>2026-05-02T17:00:34.999Z</time></trkpt><trkpt lat="42.28232025324662" lon="13.24438336794564"><ele>1187.0</ele><time>2026-05-02T17:00:35.999Z</time></trkpt><trkpt lat="42.282336379189275" lon="13.244266498331356"><ele>1187.0</ele><time>2026-05-02T17:00:36.999Z</time></trkpt><trkpt lat="42.28237066534386" lon="13.244163552221481"><ele>1187.0</ele><time>2026-05-02T17:00:37.999Z</time></trkpt><trkpt lat="42.282438438643695" lon="13.244080407848898"><ele>1187.0</ele><time>2026-05-02T17:00:38.999Z</time></trkpt><trkpt lat="42.28249160309561" lon="13.243972651571525"><ele>1187.0</ele><time>2026-05-02T17:00:39.999Z</time></trkpt><trkpt lat="42.28257229585672" lon="13.24388183691966"><ele>1187.0</ele><time>2026-05-02T17:00:40.999Z</time></trkpt><trkpt lat="42.28264449013105" lon="13.243785851086491"><ele>1187.0</ele><time>2026-05-02T17:00:41.999Z</time></trkpt><trkpt lat="42.28271982178519" lon="13.243701949915513"><ele>1187.0</ele><time>2026-05-02T17:00:42.999Z</time></trkpt><trkpt lat="42.282794702019515" lon="13.243645022834778"><ele>1187.0</ele><time>2026-05-02T17:00:43.999Z</time></trkpt><trkpt lat="42.28284788342137" lon="13.243585527047399"><ele>1187.0</ele><time>2026-05-02T17:00:44.999Z</time></trkpt><trkpt lat="42.282896944171" lon="13.243524908251747"><ele>1187.0</ele><time>2026-05-02T17:00:45.999Z</time></trkpt><trkpt lat="42.28293830497076" lon="13.24344035583947"><ele>1187.0</ele><time>2026-05-02T17:00:46.999Z</time></trkpt><trkpt lat="42.282977296873824" lon="13.243338158725619"><ele>1187.0</ele><time>2026-05-02T17:00:47.999Z</time></trkpt><trkpt lat="42.28300134413839" lon="13.243238581573738"><ele>1187.0</ele><time>2026-05-02T17:00:48.999Z</time></trkpt><trkpt lat="42.28301166974412" lon="13.243131990995286"><ele>1187.0</ele><time>2026-05-02T17:00:49.999Z</time></trkpt><trkpt lat="42.28299598274777" lon="13.243014017380279"><ele>1187.0</ele><time>2026-05-02T17:00:50.999Z</time></trkpt><trkpt lat="42.282981080867486" lon="13.242891520728692"><ele>1187.0</ele><time>2026-05-02T17:00:51.999Z</time></trkpt><trkpt lat="42.28296665928907" lon="13.242750016225978"><ele>1187.0</ele><time>2026-05-02T17:00:52.999Z</time></trkpt><trkpt lat="42.28293271559362" lon="13.242619078798418"><ele>1186.1666666666667</ele><time>2026-05-02T17:00:53.999Z</time></trkpt><trkpt lat="42.28289234741317" lon="13.242493940570712"><ele>1185.3333333333335</ele><time>2026-05-02T17:00:54.999Z</time></trkpt><trkpt lat="42.2828638669432" lon="13.242370432968364"><ele>1184.5</ele><time>2026-05-02T17:00:55.999Z</time></trkpt><trkpt lat="42.28284494416931" lon="13.242256966866602"><ele>1183.6666666666667</ele><time>2026-05-02T17:00:56.999Z</time></trkpt><trkpt lat="42.28283035451707" lon="13.242147297477027"><ele>1182.8333333333333</ele><time>2026-05-02T17:00:57.999Z</time></trkpt><trkpt lat="42.28282423178559" lon="13.242052866514372"><ele>1182.0</ele><time>2026-05-02T17:00:58.999Z</time></trkpt><trkpt lat="42.282823051761355" lon="13.241959602741591"><ele>1182.5</ele><time>2026-05-02T17:00:59.999Z</time></trkpt><trkpt lat="42.282849526867544" lon="13.241840211830871"><ele>1183.0</ele><time>2026-05-02T17:01:01.999Z</time></trkpt><trkpt lat="42.28296976497769" lon="13.241797091158784"><ele>1183.5</ele><time>2026-05-02T17:01:03.998Z</time></trkpt><trkpt lat="42.28303860391829" lon="13.241834672301252"><ele>1184.0</ele><time>2026-05-02T17:01:04.998Z</time></trkpt><trkpt lat="42.283108815175666" lon="13.241837428102198"><ele>1184.5</ele><time>2026-05-02T17:01:05.998Z</time></trkpt><trkpt lat="42.28318479178407" lon="13.24181889521488"><ele>1185.0</ele><time>2026-05-02T17:01:06.998Z</time></trkpt><trkpt lat="42.28326985211375" lon="13.241836959032275"><ele>1185.0</ele><time>2026-05-02T17:01:07.998Z</time></trkpt><trkpt lat="42.28335622867791" lon="13.24185041338935"><ele>1185.0</ele><time>2026-05-02T17:01:08.998Z</time></trkpt><trkpt lat="42.283451538370954" lon="13.241872558796663"><ele>1185.0</ele><time>2026-05-02T17:01:09.998Z</time></trkpt><trkpt lat="42.28355278210215" lon="13.241898070401051"><ele>1185.0</ele><time>2026-05-02T17:01:10.998Z</time></trkpt><trkpt lat="42.28364687798971" lon="13.241905438923709"><ele>1185.0</ele><time>2026-05-02T17:01:11.998Z</time></trkpt><trkpt lat="42.28374266400027" lon="13.24188752248763"><ele>1185.0</ele><time>2026-05-02T17:01:12.998Z</time></trkpt><trkpt lat="42.28382424560862" lon="13.241857367330471"><ele>1185.0</ele><time>2026-05-02T17:01:13.998Z</time></trkpt><trkpt lat="42.28390195884619" lon="13.241807346212735"><ele>1185.0</ele><time>2026-05-02T17:01:14.998Z</time></trkpt><trkpt lat="42.28397321248604" lon="13.24173392123187"><ele>1185.0</ele><time>2026-05-02T17:01:15.998Z</time></trkpt><trkpt lat="42.28405895079507" lon="13.241639388581577"><ele>1185.0</ele><time>2026-05-02T17:01:16.998Z</time></trkpt><trkpt lat="42.28415993919834" lon="13.241555682591805"><ele>1189.25</ele><time>2026-05-02T17:01:17.998Z</time></trkpt><trkpt lat="42.28427876671666" lon="13.241462458491872"><ele>1193.5</ele><time>2026-05-02T17:01:18.998Z</time></trkpt><trkpt lat="42.28439890344738" lon="13.241391333508474"><ele>1197.75</ele><time>2026-05-02T17:01:19.998Z</time></trkpt><trkpt lat="42.28454318929772" lon="13.241267828905482"><ele>1202.0</ele><time>2026-05-02T17:01:20.998Z</time></trkpt><trkpt lat="42.28467310243611" lon="13.241161617239698"><ele>1198.3333333333335</ele><time>2026-05-02T17:01:21.998Z</time></trkpt><trkpt lat="42.28479181349111" lon="13.241019641941085"><ele>1194.6666666666667</ele><time>2026-05-02T17:01:22.998Z</time></trkpt><trkpt lat="42.284895083682905" lon="13.240860533782318"><ele>1191.0</ele><time>2026-05-02T17:01:23.998Z</time></trkpt><trkpt lat="42.28499879682291" lon="13.240701876158532"><ele>1197.25</ele><time>2026-05-02T17:01:24.998Z</time></trkpt><trkpt lat="42.28511914179533" lon="13.240583799221712"><ele>1203.5</ele><time>2026-05-02T17:01:25.998Z</time></trkpt><trkpt lat="42.28523934185507" lon="13.240469351134886"><ele>1209.75</ele><time>2026-05-02T17:01:26.998Z</time></trkpt><trkpt lat="42.28537541449696" lon="13.240381841445107"><ele>1216.0</ele><time>2026-05-02T17:01:27.998Z</time></trkpt><trkpt lat="42.28552373226552" lon="13.240305404325289"><ele>1213.3333333333333</ele><time>2026-05-02T17:01:28.998Z</time></trkpt><trkpt lat="42.285674246597324" lon="13.240219234439499"><ele>1210.6666666666667</ele><time>2026-05-02T17:01:29.998Z</time></trkpt><trkpt lat="42.28581222820254" lon="13.240102657447613"><ele>1208.0</ele><time>2026-05-02T17:01:30.998Z</time></trkpt><trkpt lat="42.28595183022287" lon="13.23999838603835"><ele>1208.0</ele><time>2026-05-02T17:01:31.998Z</time></trkpt><trkpt lat="42.28609644471412" lon="13.239934749490713"><ele>1208.0</ele><time>2026-05-02T17:01:32.998Z</time></trkpt><trkpt lat="42.286244592050956" lon="13.239876123461947"><ele>1208.0</ele><time>2026-05-02T17:01:33.998Z</time></trkpt><trkpt lat="42.286394187497564" lon="13.239798981110514"><ele>1213.25</ele><time>2026-05-02T17:01:35Z</time></trkpt><trkpt lat="42.28652730040585" lon="13.239695297310623"><ele>1218.5</ele><time>2026-05-02T17:01:36Z</time></trkpt><trkpt lat="42.28666964369169" lon="13.23963905363044"><ele>1223.75</ele><time>2026-05-02T17:01:37Z</time></trkpt><trkpt lat="42.2867984790808" lon="13.239603785708647"><ele>1229.0</ele><time>2026-05-02T17:01:38Z</time></trkpt><trkpt lat="42.28691589445522" lon="13.239660087470199"><ele>1229.0</ele><time>2026-05-02T17:01:39Z</time></trkpt><trkpt lat="42.287056231783886" lon="13.23969079217512"><ele>1229.0</ele><time>2026-05-02T17:01:40Z</time></trkpt><trkpt lat="42.28719608915983" lon="13.239678880347466"><ele>1229.0</ele><time>2026-05-02T17:01:41Z</time></trkpt><trkpt lat="42.287327564495655" lon="13.239627027681788"><ele>1229.0</ele><time>2026-05-02T17:01:42Z</time></trkpt><trkpt lat="42.28744798649925" lon="13.23963597904856"><ele>1228.0</ele><time>2026-05-02T17:01:43Z</time></trkpt><trkpt lat="42.28755337827422" lon="13.239675573663913"><ele>1227.0</ele><time>2026-05-02T17:01:44Z</time></trkpt><trkpt lat="42.2876452677393" lon="13.239748499452844"><ele>1226.0</ele><time>2026-05-02T17:01:45Z</time></trkpt><trkpt lat="42.28773212039564" lon="13.239860647204605"><ele>1225.0</ele><time>2026-05-02T17:01:46Z</time></trkpt><trkpt lat="42.28782820438104" lon="13.239904079768829"><ele>1224.0</ele><time>2026-05-02T17:01:47Z</time></trkpt><trkpt lat="42.287927442444385" lon="13.23992015594398"><ele>1225.5</ele><time>2026-05-02T17:01:48Z</time></trkpt><trkpt lat="42.28804658831885" lon="13.23986220271266"><ele>1227.0</ele><time>2026-05-02T17:01:49Z</time></trkpt><trkpt lat="42.28816752884939" lon="13.23976422263343"><ele>1228.5</ele><time>2026-05-02T17:01:50Z</time></trkpt><trkpt lat="42.288290653713574" lon="13.239657911950653"><ele>1230.0</ele><time>2026-05-02T17:01:51Z</time></trkpt><trkpt lat="42.288421905359165" lon="13.239598726509934"><ele>1230.0</ele><time>2026-05-02T17:01:52Z</time></trkpt><trkpt lat="42.288553824390384" lon="13.239537734832082"><ele>1230.0</ele><time>2026-05-02T17:01:53Z</time></trkpt><trkpt lat="42.288687547292845" lon="13.239488118018512"><ele>1230.0</ele><time>2026-05-02T17:01:54Z</time></trkpt><trkpt lat="42.2888301055976" lon="13.239436338256104"><ele>1230.0</ele><time>2026-05-02T17:01:55Z</time></trkpt><trkpt lat="42.28897090183831" lon="13.239360865518115"><ele>1229.5</ele><time>2026-05-02T17:01:56Z</time></trkpt><trkpt lat="42.289114590241674" lon="13.239330030248603"><ele>1229.0</ele><time>2026-05-02T17:01:57Z</time></trkpt><trkpt lat="42.28925717857412" lon="13.239295150161464"><ele>1228.5</ele><time>2026-05-02T17:01:58Z</time></trkpt><trkpt lat="42.28939153686717" lon="13.239304352186203"><ele>1228.0</ele><time>2026-05-02T17:01:59Z</time></trkpt><trkpt lat="42.28952664168627" lon="13.239340034011807"><ele>1228.0</ele><time>2026-05-02T17:02:00Z</time></trkpt><trkpt lat="42.289651442102894" lon="13.239328110185738"><ele>1228.0</ele><time>2026-05-02T17:02:01Z</time></trkpt><trkpt lat="42.289765854730604" lon="13.239315162242542"><ele>1228.0</ele><time>2026-05-02T17:02:01.999Z</time></trkpt><trkpt lat="42.28989320059115" lon="13.239249384656835"><ele>1228.0</ele><time>2026-05-02T17:02:02.999Z</time></trkpt><trkpt lat="42.29001454615976" lon="13.239174954813183"><ele>1229.0</ele><time>2026-05-02T17:02:03.999Z</time></trkpt><trkpt lat="42.290144610943955" lon="13.23915828042469"><ele>1230.0</ele><time>2026-05-02T17:02:04.999Z</time></trkpt><trkpt lat="42.2902689355424" lon="13.239179889318002"><ele>1231.0</ele><time>2026-05-02T17:02:05.999Z</time></trkpt><trkpt lat="42.29038600734781" lon="13.239238263312881"><ele>1232.0</ele><time>2026-05-02T17:02:06.999Z</time></trkpt><trkpt lat="42.29051310440136" lon="13.239271665039935"><ele>1232.25</ele><time>2026-05-02T17:02:07.999Z</time></trkpt><trkpt lat="42.290631015139724" lon="13.239307239090147"><ele>1232.5</ele><time>2026-05-02T17:02:08.999Z</time></trkpt><trkpt lat="42.29075790773049" lon="13.239288484133592"><ele>1232.75</ele><time>2026-05-02T17:02:09.999Z</time></trkpt><trkpt lat="42.29088343105429" lon="13.239220303477575"><ele>1233.0</ele><time>2026-05-02T17:02:10.999Z</time></trkpt><trkpt lat="42.29100710153205" lon="13.239124501514112"><ele>1233.0</ele><time>2026-05-02T17:02:11.999Z</time></trkpt><trkpt lat="42.291134022499485" lon="13.239035519764784"><ele>1233.0</ele><time>2026-05-02T17:02:12.999Z</time></trkpt><trkpt lat="42.29127326176406" lon="13.238973754746858"><ele>1233.0</ele><time>2026-05-02T17:02:13.999Z</time></trkpt><trkpt lat="42.291419276672016" lon="13.23895924994129"><ele>1233.0</ele><time>2026-05-02T17:02:14.999Z</time></trkpt><trkpt lat="42.291566035393096" lon="13.238948640231184"><ele>1240.75</ele><time>2026-05-02T17:02:15.999Z</time></trkpt><trkpt lat="42.29171051050446" lon="13.238930347140755"><ele>1248.5</ele><time>2026-05-02T17:02:16.999Z</time></trkpt><trkpt lat="42.291854357328425" lon="13.238855548034177"><ele>1256.25</ele><time>2026-05-02T17:02:17.999Z</time></trkpt><trkpt lat="42.29199104545445" lon="13.238796049450816"><ele>1264.0</ele><time>2026-05-02T17:02:18.999Z</time></trkpt><trkpt lat="42.29213827181991" lon="13.238732345049316"><ele>1262.75</ele><time>2026-05-02T17:02:19.999Z</time></trkpt><trkpt lat="42.29228332602187" lon="13.238695986615106"><ele>1261.5</ele><time>2026-05-02T17:02:20.999Z</time></trkpt><trkpt lat="42.29242673702419" lon="13.238677029974816"><ele>1260.25</ele><time>2026-05-02T17:02:21.999Z</time></trkpt><trkpt lat="42.29257273231707" lon="13.238669441262445"><ele>1259.0</ele><time>2026-05-02T17:02:22.999Z</time></trkpt><trkpt lat="42.29271335334828" lon="13.238657220244653"><ele>1259.0</ele><time>2026-05-02T17:02:23.999Z</time></trkpt><trkpt lat="42.29285286197103" lon="13.23861438343551"><ele>1259.0</ele><time>2026-05-02T17:02:24.999Z</time></trkpt><trkpt lat="42.292998271651356" lon="13.238550343057621"><ele>1259.0</ele><time>2026-05-02T17:02:25.999Z</time></trkpt><trkpt lat="42.2931305036648" lon="13.238444325384124"><ele>1255.3333333333335</ele><time>2026-05-02T17:02:26.999Z</time></trkpt><trkpt lat="42.29326000374209" lon="13.238332509873777"><ele>1251.6666666666667</ele><time>2026-05-02T17:02:27.999Z</time></trkpt><trkpt lat="42.29340069990529" lon="13.238237742469872"><ele>1248.0</ele><time>2026-05-02T17:02:28.999Z</time></trkpt><trkpt lat="42.293543191506686" lon="13.238160455644039"><ele>1254.6666666666667</ele><time>2026-05-02T17:02:29.999Z</time></trkpt><trkpt lat="42.29367761044133" lon="13.23807745139587"><ele>1261.3333333333335</ele><time>2026-05-02T17:02:30.999Z</time></trkpt><trkpt lat="42.29381790062872" lon="13.23799744663971"><ele>1268.0</ele><time>2026-05-02T17:02:31.999Z</time></trkpt><trkpt lat="42.29396366897324" lon="13.237940686326992"><ele>1268.0</ele><time>2026-05-02T17:02:32.999Z</time></trkpt><trkpt lat="42.29410250263521" lon="13.23784322773113"><ele>1268.0</ele><time>2026-05-02T17:02:33.999Z</time></trkpt><trkpt lat="42.294244717221076" lon="13.237760069941508"><ele>1268.0</ele><time>2026-05-02T17:02:34.999Z</time></trkpt><trkpt lat="42.29438619311868" lon="13.237667702064153"><ele>1268.0</ele><time>2026-05-02T17:02:35.999Z</time></trkpt><trkpt lat="42.29452404240835" lon="13.237573369157857"><ele>1268.0</ele><time>2026-05-02T17:02:36.999Z</time></trkpt><trkpt lat="42.29466147644616" lon="13.237489818639569"><ele>1268.0</ele><time>2026-05-02T17:02:37.999Z</time></trkpt><trkpt lat="42.294814585166094" lon="13.237458648514526"><ele>1265.0</ele><time>2026-05-02T17:02:38.999Z</time></trkpt><trkpt lat="42.29496746412981" lon="13.23742585524175"><ele>1262.0</ele><time>2026-05-02T17:02:39.999Z</time></trkpt><trkpt lat="42.295121319029896" lon="13.237374702888786"><ele>1259.0</ele><time>2026-05-02T17:02:40.999Z</time></trkpt><trkpt lat="42.29528271878362" lon="13.237344361752758"><ele>1259.0</ele><time>2026-05-02T17:02:41.999Z</time></trkpt><trkpt lat="42.295444419300324" lon="13.237309666287574"><ele>1259.0</ele><time>2026-05-02T17:02:42.999Z</time></trkpt><trkpt lat="42.29561100414378" lon="13.237315626646279"><ele>1259.0</ele><time>2026-05-02T17:02:43.999Z</time></trkpt><trkpt lat="42.2957707718548" lon="13.237273478604624"><ele>1271.0</ele><time>2026-05-02T17:02:44.999Z</time></trkpt><trkpt lat="42.295933236319854" lon="13.237241890725581"><ele>1283.0</ele><time>2026-05-02T17:02:45.999Z</time></trkpt><trkpt lat="42.29608688330117" lon="13.237173525821232"><ele>1295.0</ele><time>2026-05-02T17:02:46.999Z</time></trkpt><trkpt lat="42.29625056359412" lon="13.23716305440538"><ele>1295.0</ele><time>2026-05-02T17:02:47.999Z</time></trkpt><trkpt lat="42.29641330993326" lon="13.237119878361378"><ele>1295.0</ele><time>2026-05-02T17:02:48.999Z</time></trkpt><trkpt lat="42.29657416273457" lon="13.237127882577274"><ele>1295.0</ele><time>2026-05-02T17:02:49.999Z</time></trkpt><trkpt lat="42.29673657666873" lon="13.237124728333576"><ele>1292.3333333333335</ele><time>2026-05-02T17:02:50.999Z</time></trkpt><trkpt lat="42.296896994231375" lon="13.237152324970847"><ele>1289.6666666666667</ele><time>2026-05-02T17:02:51.999Z</time></trkpt><trkpt lat="42.29705688077873" lon="13.237194032126725"><ele>1287.0</ele><time>2026-05-02T17:02:52.999Z</time></trkpt><trkpt lat="42.2972202907477" lon="13.237232436353244"><ele>1289.3333333333333</ele><time>2026-05-02T17:02:53.999Z</time></trkpt><trkpt lat="42.29738495299569" lon="13.237262472481678"><ele>1291.6666666666665</ele><time>2026-05-02T17:02:54.999Z</time></trkpt><trkpt lat="42.29755218078083" lon="13.237286408216445"><ele>1294.0</ele><time>2026-05-02T17:02:55.999Z</time></trkpt><trkpt lat="42.297712178895914" lon="13.237334008921406"><ele>1288.3333333333333</ele><time>2026-05-02T17:02:56.999Z</time></trkpt><trkpt lat="42.297870752863055" lon="13.237393463357407"><ele>1282.6666666666667</ele><time>2026-05-02T17:02:57.999Z</time></trkpt><trkpt lat="42.29801232186773" lon="13.237450886721998"><ele>1277.0</ele><time>2026-05-02T17:02:58.999Z</time></trkpt><trkpt lat="42.298143699626856" lon="13.237511936042928"><ele>1277.0</ele><time>2026-05-02T17:02:59.999Z</time></trkpt><trkpt lat="42.2982528700281" lon="13.237606241024645"><ele>1277.0</ele><time>2026-05-02T17:03:00.999Z</time></trkpt><trkpt lat="42.29835778269958" lon="13.237721098164283"><ele>1277.0</ele><time>2026-05-02T17:03:01.999Z</time></trkpt><trkpt lat="42.29846291784142" lon="13.237835380234436"><ele>1277.0</ele><time>2026-05-02T17:03:02.999Z</time></trkpt><trkpt lat="42.29858316403169" lon="13.237929919791389"><ele>1277.0</ele><time>2026-05-02T17:03:03.999Z</time></trkpt><trkpt lat="42.298697170361265" lon="13.238016774580485"><ele>1277.0</ele><time>2026-05-02T17:03:04.999Z</time></trkpt><trkpt lat="42.298821062749084" lon="13.238051012993028"><ele>1277.0</ele><time>2026-05-02T17:03:05.999Z</time></trkpt><trkpt lat="42.29894797732796" lon="13.238034899330133"><ele>1277.0</ele><time>2026-05-02T17:03:06.999Z</time></trkpt><trkpt lat="42.29906560456643" lon="13.237959643938684"><ele>1277.75</ele><time>2026-05-02T17:03:07.999Z</time></trkpt><trkpt lat="42.29918176975185" lon="13.237865623646632"><ele>1278.5</ele><time>2026-05-02T17:03:08.998Z</time></trkpt><trkpt lat="42.299318877411764" lon="13.237822116859066"><ele>1279.25</ele><time>2026-05-02T17:03:09.998Z</time></trkpt><trkpt lat="42.29945448744344" lon="13.237800302614009"><ele>1280.0</ele><time>2026-05-02T17:03:10.998Z</time></trkpt><trkpt lat="42.29958570333073" lon="13.237803673329974"><ele>1280.0</ele><time>2026-05-02T17:03:11.998Z</time></trkpt><trkpt lat="42.299713413481456" lon="13.23784342675773"><ele>1280.0</ele><time>2026-05-02T17:03:12.998Z</time></trkpt><trkpt lat="42.29983065806614" lon="13.237914245709945"><ele>1280.0</ele><time>2026-05-02T17:03:13.998Z</time></trkpt><trkpt lat="42.29996157160152" lon="13.237971840666196"><ele>1280.0</ele><time>2026-05-02T17:03:14.998Z</time></trkpt><trkpt lat="42.30010198324068" lon="13.23798965338673"><ele>1279.25</ele><time>2026-05-02T17:03:15.998Z</time></trkpt><trkpt lat="42.300245370835675" lon="13.237996586709961"><ele>1278.5</ele><time>2026-05-02T17:03:16.998Z</time></trkpt><trkpt lat="42.30038988347598" lon="13.237969220071449"><ele>1277.75</ele><time>2026-05-02T17:03:17.998Z</time></trkpt><trkpt lat="42.30053567581594" lon="13.237883475530717"><ele>1277.0</ele><time>2026-05-02T17:03:18.998Z</time></trkpt><trkpt lat="42.300680550770004" lon="13.23780112625028"><ele>1277.0</ele><time>2026-05-02T17:03:19.998Z</time></trkpt><trkpt lat="42.30082344414047" lon="13.237733002993098"><ele>1277.0</ele><time>2026-05-02T17:03:20.998Z</time></trkpt><trkpt lat="42.30097615008207" lon="13.237692127974553"><ele>1277.0</ele><time>2026-05-02T17:03:21.998Z</time></trkpt><trkpt lat="42.30113689190253" lon="13.2377199477824"><ele>1277.0</ele><time>2026-05-02T17:03:22.998Z</time></trkpt><trkpt lat="42.30130129753601" lon="13.237717535854475"><ele>1277.0</ele><time>2026-05-02T17:03:23.998Z</time></trkpt><trkpt lat="42.3014654915899" lon="13.237737291989989"><ele>1277.0</ele><time>2026-05-02T17:03:24.998Z</time></trkpt><trkpt lat="42.301628377901054" lon="13.237765768836454"><ele>1275.3333333333335</ele><time>2026-05-02T17:03:25.998Z</time></trkpt><trkpt lat="42.301783911853775" lon="13.237769474269088"><ele>1273.6666666666667</ele><time>2026-05-02T17:03:26.998Z</time></trkpt><trkpt lat="42.30194415142253" lon="13.237766465410981"><ele>1272.0</ele><time>2026-05-02T17:03:27.998Z</time></trkpt><trkpt lat="42.30209109514867" lon="13.23774793486423"><ele>1272.0</ele><time>2026-05-02T17:03:28.998Z</time></trkpt><trkpt lat="42.30217050802171" lon="13.23772184245817"><ele>1272.0</ele><time>2026-05-02T17:03:29.998Z</time></trkpt><trkpt lat="42.30224841527262" lon="13.237751127048194"><ele>1272.0</ele><time>2026-05-02T17:03:32.998Z</time></trkpt><trkpt lat="42.302295456242426" lon="13.237849635927565"><ele>1272.0</ele><time>2026-05-02T17:03:35.998Z</time></trkpt><trkpt lat="42.30235839875649" lon="13.23789569283973"><ele>1272.0</ele><time>2026-05-02T17:03:37.998Z</time></trkpt><trkpt lat="42.30241820241667" lon="13.237923915886888"><ele>1272.0</ele><time>2026-05-02T17:03:39.998Z</time></trkpt><trkpt lat="42.302445899573705" lon="13.238001182100701"><ele>1272.0</ele><time>2026-05-02T17:03:43Z</time></trkpt><trkpt lat="42.30246287524191" lon="13.23808440514754"><ele>1271.1666666666667</ele><time>2026-05-02T17:03:53Z</time></trkpt><trkpt lat="42.30248993624093" lon="13.238233826664045"><ele>1270.3333333333333</ele><time>2026-05-02T17:03:55Z</time></trkpt><trkpt lat="42.30251449012601" lon="13.238316542071534"><ele>1269.5</ele><time>2026-05-02T17:03:56Z</time></trkpt><trkpt lat="42.302564785145236" lon="13.238406335063937"><ele>1268.6666666666665</ele><time>2026-05-02T17:03:57Z</time></trkpt><trkpt lat="42.302640111619816" lon="13.23847369808026"><ele>1267.8333333333333</ele><time>2026-05-02T17:03:58Z</time></trkpt><trkpt lat="42.30272262136343" lon="13.23854033039635"><ele>1267.0</ele><time>2026-05-02T17:03:59Z</time></trkpt><trkpt lat="42.30279506279693" lon="13.23861524393237"><ele>1267.0</ele><time>2026-05-02T17:04:00Z</time></trkpt><trkpt lat="42.30287706577895" lon="13.23867348278058"><ele>1267.0</ele><time>2026-05-02T17:04:01Z</time></trkpt><trkpt lat="42.302965288128355" lon="13.238703453867329"><ele>1267.0</ele><time>2026-05-02T17:04:02Z</time></trkpt><trkpt lat="42.30303213465822" lon="13.238740613855123"><ele>1267.0</ele><time>2026-05-02T17:04:03Z</time></trkpt><trkpt lat="42.30308712224275" lon="13.238794984999393"><ele>1267.0</ele><time>2026-05-02T17:04:04Z</time></trkpt><trkpt lat="42.3031478570625" lon="13.238832282830542"><ele>1267.0</ele><time>2026-05-02T17:04:05Z</time></trkpt><trkpt lat="42.30321200962888" lon="13.238885070160576"><ele>1267.1666666666665</ele><time>2026-05-02T17:04:06Z</time></trkpt><trkpt lat="42.30326929131082" lon="13.238953650088062"><ele>1267.3333333333333</ele><time>2026-05-02T17:04:06.999Z</time></trkpt><trkpt lat="42.303330725745546" lon="13.239024981320453"><ele>1267.5</ele><time>2026-05-02T17:04:07.999Z</time></trkpt><trkpt lat="42.30340331069165" lon="13.239081156248387"><ele>1267.6666666666667</ele><time>2026-05-02T17:04:08.999Z</time></trkpt><trkpt lat="42.30346475571665" lon="13.239152309741435"><ele>1267.8333333333335</ele><time>2026-05-02T17:04:09.999Z</time></trkpt><trkpt lat="42.303534639169364" lon="13.2392204715355"><ele>1268.0</ele><time>2026-05-02T17:04:10.999Z</time></trkpt><trkpt lat="42.30360346824206" lon="13.23928721179395"><ele>1268.6666666666667</ele><time>2026-05-02T17:04:11.999Z</time></trkpt><trkpt lat="42.303680988991765" lon="13.239357982433486"><ele>1269.3333333333335</ele><time>2026-05-02T17:04:12.999Z</time></trkpt><trkpt lat="42.303742008886225" lon="13.239441820668162"><ele>1270.0</ele><time>2026-05-02T17:04:13.999Z</time></trkpt><trkpt lat="42.30380610283524" lon="13.239515367439555"><ele>1270.6666666666667</ele><time>2026-05-02T17:04:14.999Z</time></trkpt><trkpt lat="42.30386187072628" lon="13.239591245457678"><ele>1271.3333333333333</ele><time>2026-05-02T17:04:15.999Z</time></trkpt><trkpt lat="42.30390851557959" lon="13.239661616866313"><ele>1272.0</ele><time>2026-05-02T17:04:16.999Z</time></trkpt><trkpt lat="42.30393750000624" lon="13.23975321684587"><ele>1272.6</ele><time>2026-05-02T17:04:17.999Z</time></trkpt><trkpt lat="42.30392697940329" lon="13.239870963108267"><ele>1273.2</ele><time>2026-05-02T17:04:18.999Z</time></trkpt><trkpt lat="42.30393844249161" lon="13.239992830783963"><ele>1273.8</ele><time>2026-05-02T17:04:19.999Z</time></trkpt><trkpt lat="42.30396790600852" lon="13.24011489592336"><ele>1274.4</ele><time>2026-05-02T17:04:20.999Z</time></trkpt><trkpt lat="42.30397372238547" lon="13.240243239918373"><ele>1275.0</ele><time>2026-05-02T17:04:21.999Z</time></trkpt><trkpt lat="42.30400634906932" lon="13.240344849263435"><ele>1275.0</ele><time>2026-05-02T17:04:22.999Z</time></trkpt><trkpt lat="42.304010486548954" lon="13.24047702891696"><ele>1275.0</ele><time>2026-05-02T17:04:23.999Z</time></trkpt><trkpt lat="42.30403251752962" lon="13.24061712744597"><ele>1275.0</ele><time>2026-05-02T17:04:24.999Z</time></trkpt><trkpt lat="42.304053706627144" lon="13.240751872332806"><ele>1275.0</ele><time>2026-05-02T17:04:25.999Z</time></trkpt><trkpt lat="42.3040932735837" lon="13.240877589259828"><ele>1275.0</ele><time>2026-05-02T17:04:26.999Z</time></trkpt><trkpt lat="42.30411057470427" lon="13.241004045314252"><ele>1275.5</ele><time>2026-05-02T17:04:27.999Z</time></trkpt><trkpt lat="42.3041073392777" lon="13.241114065146224"><ele>1276.0</ele><time>2026-05-02T17:04:28.999Z</time></trkpt><trkpt lat="42.30410318867608" lon="13.241208876988532"><ele>1276.5</ele><time>2026-05-02T17:04:29.999Z</time></trkpt><trkpt lat="42.30409082965641" lon="13.241311320605575"><ele>1277.0</ele><time>2026-05-02T17:04:30.999Z</time></trkpt><trkpt lat="42.30405969311033" lon="13.241416619300251"><ele>1277.5</ele><time>2026-05-02T17:04:31.999Z</time></trkpt><trkpt lat="42.30401981176167" lon="13.241523135763606"><ele>1278.0</ele><time>2026-05-02T17:04:32.999Z</time></trkpt><trkpt lat="42.30398705224601" lon="13.241627324285009"><ele>1278.3333333333333</ele><time>2026-05-02T17:04:33.999Z</time></trkpt><trkpt lat="42.303962846345385" lon="13.241723931170096"><ele>1278.6666666666667</ele><time>2026-05-02T17:04:34.999Z</time></trkpt><trkpt lat="42.303928505281476" lon="13.241810426716144"><ele>1279.0</ele><time>2026-05-02T17:04:35.999Z</time></trkpt><trkpt lat="42.30388977575027" lon="13.241904121505282"><ele>1279.3333333333335</ele><time>2026-05-02T17:04:36.999Z</time></trkpt><trkpt lat="42.30384968177728" lon="13.242008448041245"><ele>1279.6666666666667</ele><time>2026-05-02T17:04:37.999Z</time></trkpt><trkpt lat="42.303806836225704" lon="13.24209633765603"><ele>1280.0</ele><time>2026-05-02T17:04:38.999Z</time></trkpt><trkpt lat="42.303761863507575" lon="13.24217926660095"><ele>1283.0</ele><time>2026-05-02T17:04:39.999Z</time></trkpt><trkpt lat="42.30371230421502" lon="13.242290652720012"><ele>1286.0</ele><time>2026-05-02T17:04:40.999Z</time></trkpt><trkpt lat="42.30367737555021" lon="13.242396957687465"><ele>1289.0</ele><time>2026-05-02T17:04:41.999Z</time></trkpt><trkpt lat="42.303652465231195" lon="13.242505453690963"><ele>1292.0</ele><time>2026-05-02T17:04:42.999Z</time></trkpt><trkpt lat="42.30363377282049" lon="13.24262498131572"><ele>1295.0</ele><time>2026-05-02T17:04:43.999Z</time></trkpt><trkpt lat="42.30361739696898" lon="13.242717830908557"><ele>1298.0</ele><time>2026-05-02T17:04:44.999Z</time></trkpt><trkpt lat="42.30360099383605" lon="13.24282709111007"><ele>1298.0</ele><time>2026-05-02T17:04:45.999Z</time></trkpt><trkpt lat="42.30358926886874" lon="13.242946566103921"><ele>1298.0</ele><time>2026-05-02T17:04:46.999Z</time></trkpt><trkpt lat="42.3035850590959" lon="13.243067248772146"><ele>1298.0</ele><time>2026-05-02T17:04:47.999Z</time></trkpt><trkpt lat="42.303582135439086" lon="13.24318399990662"><ele>1298.0</ele><time>2026-05-02T17:04:48.999Z</time></trkpt><trkpt lat="42.30358093097917" lon="13.243297761254402"><ele>1298.0</ele><time>2026-05-02T17:04:49.999Z</time></trkpt><trkpt lat="42.303573734759254" lon="13.243415221622206"><ele>1298.0</ele><time>2026-05-02T17:04:50.999Z</time></trkpt><trkpt lat="42.30357276329819" lon="13.243541413604866"><ele>1298.0</ele><time>2026-05-02T17:04:51.999Z</time></trkpt><trkpt lat="42.3035863055069" lon="13.243669039889882"><ele>1298.0</ele><time>2026-05-02T17:04:52.999Z</time></trkpt><trkpt lat="42.30360420088449" lon="13.243792230393877"><ele>1298.0</ele><time>2026-05-02T17:04:53.999Z</time></trkpt><trkpt lat="42.303621247080684" lon="13.243906458299257"><ele>1298.0</ele><time>2026-05-02T17:04:54.999Z</time></trkpt><trkpt lat="42.3036277051643" lon="13.2440226961803"><ele>1298.0</ele><time>2026-05-02T17:04:55.999Z</time></trkpt><trkpt lat="42.3036232127527" lon="13.24415375395389"><ele>1299.0</ele><time>2026-05-02T17:04:56.999Z</time></trkpt><trkpt lat="42.30360211258724" lon="13.244285341645407"><ele>1300.0</ele><time>2026-05-02T17:04:57.999Z</time></trkpt><trkpt lat="42.303565862900925" lon="13.244404633801484"><ele>1301.0</ele><time>2026-05-02T17:04:58.999Z</time></trkpt><trkpt lat="42.303535358719955" lon="13.24450037519414"><ele>1302.0</ele><time>2026-05-02T17:04:59.999Z</time></trkpt><trkpt lat="42.30350345361693" lon="13.244594272619551"><ele>1303.0</ele><time>2026-05-02T17:05:00.999Z</time></trkpt><trkpt lat="42.303466866225136" lon="13.244691113284176"><ele>1304.0</ele><time>2026-05-02T17:05:01.999Z</time></trkpt><trkpt lat="42.30342027716759" lon="13.244783697859479"><ele>1304.8333333333335</ele><time>2026-05-02T17:05:02.999Z</time></trkpt><trkpt lat="42.30337187064709" lon="13.244883684355964"><ele>1305.6666666666667</ele><time>2026-05-02T17:05:03.999Z</time></trkpt><trkpt lat="42.30333389773454" lon="13.244985100658145"><ele>1306.5</ele><time>2026-05-02T17:05:04.999Z</time></trkpt><trkpt lat="42.303290922196226" lon="13.245077626270886"><ele>1307.3333333333333</ele><time>2026-05-02T17:05:05.999Z</time></trkpt><trkpt lat="42.30325338715119" lon="13.245155515484928"><ele>1308.1666666666665</ele><time>2026-05-02T17:05:06.999Z</time></trkpt><trkpt lat="42.30321302558253" lon="13.245246682720442"><ele>1309.0</ele><time>2026-05-02T17:05:07.999Z</time></trkpt><trkpt lat="42.30318969324963" lon="13.245341959621834"><ele>1309.0</ele><time>2026-05-02T17:05:08.999Z</time></trkpt><trkpt lat="42.303173970549594" lon="13.245438849719894"><ele>1309.0</ele><time>2026-05-02T17:05:09.999Z</time></trkpt><trkpt lat="42.30317046836799" lon="13.245533136450794"><ele>1309.0</ele><time>2026-05-02T17:05:10.999Z</time></trkpt><trkpt lat="42.30316630400628" lon="13.245631219250747"><ele>1309.0</ele><time>2026-05-02T17:05:11.999Z</time></trkpt><trkpt lat="42.30314941556128" lon="13.245725439112759"><ele>1309.0</ele><time>2026-05-02T17:05:12.999Z</time></trkpt><trkpt lat="42.303116161795984" lon="13.245808542600425"><ele>1309.0</ele><time>2026-05-02T17:05:13.998Z</time></trkpt><trkpt lat="42.303069565408016" lon="13.24588730032342"><ele>1309.0</ele><time>2026-05-02T17:05:14.998Z</time></trkpt><trkpt lat="42.30302102750247" lon="13.245965999310375"><ele>1310.1666666666665</ele><time>2026-05-02T17:05:15.998Z</time></trkpt><trkpt lat="42.302992145720246" lon="13.246050095145344"><ele>1311.3333333333333</ele><time>2026-05-02T17:05:16.998Z</time></trkpt><trkpt lat="42.302988646431466" lon="13.246143927382963"><ele>1312.5</ele><time>2026-05-02T17:05:17.998Z</time></trkpt><trkpt lat="42.30293874179403" lon="13.246282383013352"><ele>1313.6666666666667</ele><time>2026-05-02T17:05:19.998Z</time></trkpt><trkpt lat="42.30288953732217" lon="13.246364213812845"><ele>1314.8333333333335</ele><time>2026-05-02T17:05:20.998Z</time></trkpt><trkpt lat="42.30282401321787" lon="13.246488742728117"><ele>1316.0</ele><time>2026-05-02T17:05:22.998Z</time></trkpt><trkpt lat="42.30278915424424" lon="13.246563022046315"><ele>1317.2857142857142</ele><time>2026-05-02T17:05:23.998Z</time></trkpt><trkpt lat="42.30275195845517" lon="13.246653556444105"><ele>1318.5714285714284</ele><time>2026-05-02T17:05:24.998Z</time></trkpt><trkpt lat="42.30271928739125" lon="13.246744893611744"><ele>1319.857142857143</ele><time>2026-05-02T17:05:25.998Z</time></trkpt><trkpt lat="42.30269001328515" lon="13.246836258449026"><ele>1321.142857142857</ele><time>2026-05-02T17:05:26.998Z</time></trkpt><trkpt lat="42.30265399761585" lon="13.24691819555022"><ele>1322.4285714285713</ele><time>2026-05-02T17:05:27.998Z</time></trkpt><trkpt lat="42.30260671630781" lon="13.246990017850887"><ele>1323.7142857142858</ele><time>2026-05-02T17:05:28.998Z</time></trkpt><trkpt lat="42.302555025216314" lon="13.247067366297127"><ele>1325.0</ele><time>2026-05-02T17:05:29.998Z</time></trkpt><trkpt lat="42.30249642223057" lon="13.247146756633832"><ele>1325.0</ele><time>2026-05-02T17:05:30.998Z</time></trkpt><trkpt lat="42.302452854311404" lon="13.247225391452188"><ele>1325.0</ele><time>2026-05-02T17:05:31.998Z</time></trkpt><trkpt lat="42.302419275152886" lon="13.24731310541491"><ele>1325.0</ele><time>2026-05-02T17:05:32.998Z</time></trkpt><trkpt lat="42.30234785981503" lon="13.247453318484533"><ele>1325.0</ele><time>2026-05-02T17:05:34.998Z</time></trkpt><trkpt lat="42.302302574284624" lon="13.247533652517724"><ele>1325.0</ele><time>2026-05-02T17:05:35.998Z</time></trkpt><trkpt lat="42.302249207409865" lon="13.247620985975628"><ele>1325.0</ele><time>2026-05-02T17:05:36.998Z</time></trkpt><trkpt lat="42.30218676356164" lon="13.247703955282402"><ele>1328.6666666666667</ele><time>2026-05-02T17:05:37.998Z</time></trkpt><trkpt lat="42.30212716256818" lon="13.247774318816388"><ele>1332.3333333333335</ele><time>2026-05-02T17:05:38.998Z</time></trkpt><trkpt lat="42.30208446475429" lon="13.247848789722381"><ele>1336.0</ele><time>2026-05-02T17:05:39.998Z</time></trkpt><trkpt lat="42.302042643772126" lon="13.247930588689096"><ele>1339.6666666666667</ele><time>2026-05-02T17:05:40.998Z</time></trkpt><trkpt lat="42.302000137356046" lon="13.248017631954966"><ele>1343.3333333333333</ele><time>2026-05-02T17:05:41.998Z</time></trkpt><trkpt lat="42.30195982047304" lon="13.24809616532143"><ele>1347.0</ele><time>2026-05-02T17:05:42.998Z</time></trkpt><trkpt lat="42.30190074435845" lon="13.248182081145016"><ele>1347.8</ele><time>2026-05-02T17:05:43.998Z</time></trkpt><trkpt lat="42.30189864745435" lon="13.24832590073374"><ele>1348.6</ele><time>2026-05-02T17:05:44.998Z</time></trkpt><trkpt lat="42.301845710201206" lon="13.248379060271237"><ele>1349.3999999999999</ele><time>2026-05-02T17:05:46Z</time></trkpt><trkpt lat="42.3017454676392" lon="13.248472409005721"><ele>1350.1999999999998</ele><time>2026-05-02T17:05:48Z</time></trkpt><trkpt lat="42.30168899123713" lon="13.248523224310512"><ele>1351.0</ele><time>2026-05-02T17:05:49Z</time></trkpt><trkpt lat="42.30163731115752" lon="13.248622100906156"><ele>1351.0</ele><time>2026-05-02T17:05:51Z</time></trkpt><trkpt lat="42.30159587204571" lon="13.248720985121734"><ele>1351.0</ele><time>2026-05-02T17:05:53Z</time></trkpt><trkpt lat="42.30156461834136" lon="13.248802853528481"><ele>1351.0</ele><time>2026-05-02T17:05:55Z</time></trkpt><trkpt lat="42.30153303321269" lon="13.248909278314573"><ele>1351.0</ele><time>2026-05-02T17:05:58Z</time></trkpt><trkpt lat="42.30152071346738" lon="13.249020392435625"><ele>1351.0</ele><time>2026-05-02T17:06:01Z</time></trkpt><trkpt lat="42.30149979307886" lon="13.249109998042336"><ele>1351.0</ele><time>2026-05-02T17:06:09Z</time></trkpt><trkpt lat="42.30148024531324" lon="13.249239974912692"><ele>1352.4</ele><time>2026-05-02T17:06:10.999Z</time></trkpt><trkpt lat="42.301465016219716" lon="13.249355543349582"><ele>1353.8</ele><time>2026-05-02T17:06:11.999Z</time></trkpt><trkpt lat="42.301447996734076" lon="13.249490224636293"><ele>1355.2</ele><time>2026-05-02T17:06:12.999Z</time></trkpt><trkpt lat="42.301431695969185" lon="13.249644015761369"><ele>1356.6000000000001</ele><time>2026-05-02T17:06:13.999Z</time></trkpt><trkpt lat="42.30142148902714" lon="13.249813513530778"><ele>1358.0</ele><time>2026-05-02T17:06:14.999Z</time></trkpt><trkpt lat="42.30142367215952" lon="13.249981043047184"><ele>1358.0</ele><time>2026-05-02T17:06:15.999Z</time></trkpt><trkpt lat="42.30143546105189" lon="13.250143682371382"><ele>1358.0</ele><time>2026-05-02T17:06:16.999Z</time></trkpt><trkpt lat="42.30145528096507" lon="13.250299574818802"><ele>1358.0</ele><time>2026-05-02T17:06:17.999Z</time></trkpt><trkpt lat="42.30149844931802" lon="13.250449425171459"><ele>1358.0</ele><time>2026-05-02T17:06:18.999Z</time></trkpt><trkpt lat="42.30155519861359" lon="13.250591724646764"><ele>1354.25</ele><time>2026-05-02T17:06:19.999Z</time></trkpt><trkpt lat="42.30161099342748" lon="13.250731666647454"><ele>1350.5</ele><time>2026-05-02T17:06:20.999Z</time></trkpt><trkpt lat="42.3016667047098" lon="13.250875148280205"><ele>1346.75</ele><time>2026-05-02T17:06:21.999Z</time></trkpt><trkpt lat="42.301721799389874" lon="13.251010737786281"><ele>1343.0</ele><time>2026-05-02T17:06:22.999Z</time></trkpt><trkpt lat="42.30177648771911" lon="13.251145706831387"><ele>1343.0</ele><time>2026-05-02T17:06:23.999Z</time></trkpt><trkpt lat="42.30183865028755" lon="13.251282888966653"><ele>1343.0</ele><time>2026-05-02T17:06:24.999Z</time></trkpt><trkpt lat="42.30190631534828" lon="13.251408791274411"><ele>1343.0</ele><time>2026-05-02T17:06:25.999Z</time></trkpt><trkpt lat="42.30198838850039" lon="13.251518446583788"><ele>1343.0</ele><time>2026-05-02T17:06:26.999Z</time></trkpt><trkpt lat="42.30208218380441" lon="13.251625472297848"><ele>1343.25</ele><time>2026-05-02T17:06:27.999Z</time></trkpt><trkpt lat="42.3021818402153" lon="13.251729623941374"><ele>1343.5</ele><time>2026-05-02T17:06:28.999Z</time></trkpt><trkpt lat="42.30229391634841" lon="13.251820120317998"><ele>1343.75</ele><time>2026-05-02T17:06:29.999Z</time></trkpt><trkpt lat="42.30241537687488" lon="13.251889828451446"><ele>1344.0</ele><time>2026-05-02T17:06:30.999Z</time></trkpt><trkpt lat="42.30253636027308" lon="13.251915644305061"><ele>1344.0</ele><time>2026-05-02T17:06:31.999Z</time></trkpt><trkpt lat="42.302659236342066" lon="13.251900940069275"><ele>1344.0</ele><time>2026-05-02T17:06:32.999Z</time></trkpt><trkpt lat="42.302776521156666" lon="13.251866078007804"><ele>1344.0</ele><time>2026-05-02T17:06:33.999Z</time></trkpt><trkpt lat="42.302888882718804" lon="13.251843060549923"><ele>1344.0</ele><time>2026-05-02T17:06:34.999Z</time></trkpt><trkpt lat="42.30300290453526" lon="13.251821172232862"><ele>1345.5</ele><time>2026-05-02T17:06:35.999Z</time></trkpt><trkpt lat="42.303119409784" lon="13.25182220448326"><ele>1347.0</ele><time>2026-05-02T17:06:36.999Z</time></trkpt><trkpt lat="42.303231223171025" lon="13.251831230974378"><ele>1348.5</ele><time>2026-05-02T17:06:37.999Z</time></trkpt><trkpt lat="42.3033484135063" lon="13.251840315119717"><ele>1350.0</ele><time>2026-05-02T17:06:38.999Z</time></trkpt><trkpt lat="42.30346484960975" lon="13.251845190156551"><ele>1350.0</ele><time>2026-05-02T17:06:39.999Z</time></trkpt><trkpt lat="42.30356476112672" lon="13.25188109987696"><ele>1350.0</ele><time>2026-05-02T17:06:40.999Z</time></trkpt><trkpt lat="42.30366756434573" lon="13.251891758260692"><ele>1350.0</ele><time>2026-05-02T17:06:41.999Z</time></trkpt><trkpt lat="42.30377789305131" lon="13.251942755649903"><ele>1350.0</ele><time>2026-05-02T17:06:42.999Z</time></trkpt><trkpt lat="42.303875982938436" lon="13.252015909460672"><ele>1350.0</ele><time>2026-05-02T17:06:43.999Z</time></trkpt><trkpt lat="42.30397118954708" lon="13.252105579322336"><ele>1347.25</ele><time>2026-05-02T17:06:44.999Z</time></trkpt><trkpt lat="42.30403467617998" lon="13.2522417048084"><ele>1344.5</ele><time>2026-05-02T17:06:45.999Z</time></trkpt><trkpt lat="42.304079570195164" lon="13.252383361305595"><ele>1341.75</ele><time>2026-05-02T17:06:46.999Z</time></trkpt><trkpt lat="42.30412219965352" lon="13.252539609304568"><ele>1339.0</ele><time>2026-05-02T17:06:47.999Z</time></trkpt><trkpt lat="42.304171926442564" lon="13.252712318602232"><ele>1339.0</ele><time>2026-05-02T17:06:48.999Z</time></trkpt><trkpt lat="42.304228940731484" lon="13.252888134075812"><ele>1339.0</ele><time>2026-05-02T17:06:49.999Z</time></trkpt><trkpt lat="42.30429109585617" lon="13.253046544191902"><ele>1339.0</ele><time>2026-05-02T17:06:50.999Z</time></trkpt><trkpt lat="42.30433961258131" lon="13.253217732935717"><ele>1339.0</ele><time>2026-05-02T17:06:51.999Z</time></trkpt><trkpt lat="42.304389262444424" lon="13.253379303000393"><ele>1333.0</ele><time>2026-05-02T17:06:52.999Z</time></trkpt><trkpt lat="42.304440327679856" lon="13.253541844724198"><ele>1327.0</ele><time>2026-05-02T17:06:53.999Z</time></trkpt><trkpt lat="42.30449430575502" lon="13.253705973113764"><ele>1321.0</ele><time>2026-05-02T17:06:54.999Z</time></trkpt><trkpt lat="42.304545944584994" lon="13.253876556634296"><ele>1315.0</ele><time>2026-05-02T17:06:55.999Z</time></trkpt><trkpt lat="42.30461967352687" lon="13.25402897116474"><ele>1318.2</ele><time>2026-05-02T17:06:56.999Z</time></trkpt><trkpt lat="42.30467060914091" lon="13.254187690278483"><ele>1321.4</ele><time>2026-05-02T17:06:57.999Z</time></trkpt><trkpt lat="42.30472533774085" lon="13.254327055119987"><ele>1324.6</ele><time>2026-05-02T17:06:58.999Z</time></trkpt><trkpt lat="42.30476898245285" lon="13.254451247275382"><ele>1327.8</ele><time>2026-05-02T17:06:59.999Z</time></trkpt><trkpt lat="42.304820187372485" lon="13.254556317703809"><ele>1331.0</ele><time>2026-05-02T17:07:00.999Z</time></trkpt><trkpt lat="42.3048938048031" lon="13.254635746938224"><ele>1331.0</ele><time>2026-05-02T17:07:01.999Z</time></trkpt><trkpt lat="42.30499462687434" lon="13.254659790870662"><ele>1331.0</ele><time>2026-05-02T17:07:02.999Z</time></trkpt><trkpt lat="42.305108216772275" lon="13.254625241551768"><ele>1331.0</ele><time>2026-05-02T17:07:03.999Z</time></trkpt><trkpt lat="42.305227572946876" lon="13.254546866593166"><ele>1331.0</ele><time>2026-05-02T17:07:04.999Z</time></trkpt><trkpt lat="42.30535701805714" lon="13.254479658815349"><ele>1331.0</ele><time>2026-05-02T17:07:05.999Z</time></trkpt><trkpt lat="42.30549267779256" lon="13.254410379593828"><ele>1331.0</ele><time>2026-05-02T17:07:06.999Z</time></trkpt><trkpt lat="42.30562447393749" lon="13.254333815789453"><ele>1331.0</ele><time>2026-05-02T17:07:07.999Z</time></trkpt><trkpt lat="42.30574604804784" lon="13.254245232211163"><ele>1331.0</ele><time>2026-05-02T17:07:08.999Z</time></trkpt><trkpt lat="42.305859874376914" lon="13.254164172120941"><ele>1329.0</ele><time>2026-05-02T17:07:09.999Z</time></trkpt><trkpt lat="42.30597939248944" lon="13.254100788304287"><ele>1327.0</ele><time>2026-05-02T17:07:10.999Z</time></trkpt><trkpt lat="42.306114302949794" lon="13.254102813498129"><ele>1325.0</ele><time>2026-05-02T17:07:11.999Z</time></trkpt><trkpt lat="42.30624995052058" lon="13.254086442645411"><ele>1323.0</ele><time>2026-05-02T17:07:12.999Z</time></trkpt><trkpt lat="42.30637794242746" lon="13.25402340754172"><ele>1319.25</ele><time>2026-05-02T17:07:13.999Z</time></trkpt><trkpt lat="42.30651515408064" lon="13.253979935718675"><ele>1315.5</ele><time>2026-05-02T17:07:14.999Z</time></trkpt><trkpt lat="42.30665802253083" lon="13.253946253515315"><ele>1311.75</ele><time>2026-05-02T17:07:15.999Z</time></trkpt><trkpt lat="42.306799555595774" lon="13.253910286674138"><ele>1308.0</ele><time>2026-05-02T17:07:16.999Z</time></trkpt><trkpt lat="42.30695038097787" lon="13.253913185300926"><ele>1317.3333333333333</ele><time>2026-05-02T17:07:17.998Z</time></trkpt><trkpt lat="42.307100681462614" lon="13.253843174137103"><ele>1326.6666666666665</ele><time>2026-05-02T17:07:18.998Z</time></trkpt><trkpt lat="42.307252138621145" lon="13.2538008980935"><ele>1336.0</ele><time>2026-05-02T17:07:19.998Z</time></trkpt><trkpt lat="42.307393509333956" lon="13.253746841260433"><ele>1336.0</ele><time>2026-05-02T17:07:20.998Z</time></trkpt><trkpt lat="42.30753077289316" lon="13.253704529706978"><ele>1336.0</ele><time>2026-05-02T17:07:21.998Z</time></trkpt><trkpt lat="42.307674817153085" lon="13.253741327722999"><ele>1336.0</ele><time>2026-05-02T17:07:22.998Z</time></trkpt><trkpt lat="42.30782044868829" lon="13.253756104701756"><ele>1336.0</ele><time>2026-05-02T17:07:23.998Z</time></trkpt><trkpt lat="42.30796837470692" lon="13.253754475093245"><ele>1332.6666666666665</ele><time>2026-05-02T17:07:24.998Z</time></trkpt><trkpt lat="42.308124740523574" lon="13.253770639415029"><ele>1329.3333333333333</ele><time>2026-05-02T17:07:25.998Z</time></trkpt><trkpt lat="42.30828340633732" lon="13.253776081423856"><ele>1326.0</ele><time>2026-05-02T17:07:26.998Z</time></trkpt><trkpt lat="42.308440659258544" lon="13.253800703063558"><ele>1326.0</ele><time>2026-05-02T17:07:27.998Z</time></trkpt><trkpt lat="42.30859455924253" lon="13.25384512506731"><ele>1326.0</ele><time>2026-05-02T17:07:28.998Z</time></trkpt><trkpt lat="42.308737523430565" lon="13.253900192628645"><ele>1326.0</ele><time>2026-05-02T17:07:29.998Z</time></trkpt><trkpt lat="42.30887794457892" lon="13.253959874849928"><ele>1319.0</ele><time>2026-05-02T17:07:30.998Z</time></trkpt><trkpt lat="42.309008527996845" lon="13.25402108441969"><ele>1312.0</ele><time>2026-05-02T17:07:31.998Z</time></trkpt><trkpt lat="42.309126011764725" lon="13.254059969819963"><ele>1305.0</ele><time>2026-05-02T17:07:32.998Z</time></trkpt><trkpt lat="42.309237491729384" lon="13.25407874100365"><ele>1298.0</ele><time>2026-05-02T17:07:33.998Z</time></trkpt><trkpt lat="42.30934349578809" lon="13.254040185194487"><ele>1298.0</ele><time>2026-05-02T17:07:34.998Z</time></trkpt><trkpt lat="42.30945110294259" lon="13.253962483413996"><ele>1298.0</ele><time>2026-05-02T17:07:35.998Z</time></trkpt><trkpt lat="42.309557958882046" lon="13.253864488387341"><ele>1298.0</ele><time>2026-05-02T17:07:36.998Z</time></trkpt><trkpt lat="42.30967094521585" lon="13.253777299596038"><ele>1298.0</ele><time>2026-05-02T17:07:37.998Z</time></trkpt><trkpt lat="42.30978583861575" lon="13.25367598806863"><ele>1300.25</ele><time>2026-05-02T17:07:38.998Z</time></trkpt><trkpt lat="42.30990677994655" lon="13.253583787241933"><ele>1302.5</ele><time>2026-05-02T17:07:39.998Z</time></trkpt><trkpt lat="42.31003005825621" lon="13.253490045736209"><ele>1304.75</ele><time>2026-05-02T17:07:40.998Z</time></trkpt><trkpt lat="42.31015551313067" lon="13.253393400762933"><ele>1307.0</ele><time>2026-05-02T17:07:41.998Z</time></trkpt><trkpt lat="42.3102823252035" lon="13.253289976411688"><ele>1307.0</ele><time>2026-05-02T17:07:42.998Z</time></trkpt><trkpt lat="42.31040749911558" lon="13.253194255517949"><ele>1307.0</ele><time>2026-05-02T17:07:43.998Z</time></trkpt><trkpt lat="42.31052989523226" lon="13.253106738313356"><ele>1307.0</ele><time>2026-05-02T17:07:44.998Z</time></trkpt><trkpt lat="42.31065012206648" lon="13.253025450326598"><ele>1307.0</ele><time>2026-05-02T17:07:45.998Z</time></trkpt><trkpt lat="42.31076862022036" lon="13.252962786229329"><ele>1309.0</ele><time>2026-05-02T17:07:46.998Z</time></trkpt><trkpt lat="42.31089913735338" lon="13.252942984054924"><ele>1311.0</ele><time>2026-05-02T17:07:47.998Z</time></trkpt><trkpt lat="42.3110349771595" lon="13.252933692754521"><ele>1313.0</ele><time>2026-05-02T17:07:48.998Z</time></trkpt><trkpt lat="42.31117848460298" lon="13.25293517253856"><ele>1315.0</ele><time>2026-05-02T17:07:49.998Z</time></trkpt><trkpt lat="42.311323700930636" lon="13.252898471532491"><ele>1312.5</ele><time>2026-05-02T17:07:50.998Z</time></trkpt><trkpt lat="42.31146912455021" lon="13.252859761298351"><ele>1310.0</ele><time>2026-05-02T17:07:52Z</time></trkpt><trkpt lat="42.311612159089115" lon="13.252812897053104"><ele>1307.5</ele><time>2026-05-02T17:07:53Z</time></trkpt><trkpt lat="42.311747626606696" lon="13.252815047993654"><ele>1305.0</ele><time>2026-05-02T17:07:54Z</time></trkpt><trkpt lat="42.31188383526551" lon="13.252801528740358"><ele>1305.0</ele><time>2026-05-02T17:07:55Z</time></trkpt><trkpt lat="42.312008224113555" lon="13.252836949837747"><ele>1305.0</ele><time>2026-05-02T17:07:56Z</time></trkpt><trkpt lat="42.31211903611707" lon="13.252889021915504"><ele>1305.0</ele><time>2026-05-02T17:07:57Z</time></trkpt><trkpt lat="42.312218071819835" lon="13.25292531458922"><ele>1305.0</ele><time>2026-05-02T17:07:58Z</time></trkpt><trkpt lat="42.31232104228932" lon="13.252907816508268"><ele>1301.25</ele><time>2026-05-02T17:07:59Z</time></trkpt><trkpt lat="42.31241583862306" lon="13.252819899515309"><ele>1297.5</ele><time>2026-05-02T17:08:00Z</time></trkpt><trkpt lat="42.31250825596704" lon="13.252702982004964"><ele>1293.75</ele><time>2026-05-02T17:08:01Z</time></trkpt><trkpt lat="42.31260600974899" lon="13.252603578614583"><ele>1290.0</ele><time>2026-05-02T17:08:02Z</time></trkpt><trkpt lat="42.312723709969696" lon="13.25255858791161"><ele>1290.0</ele><time>2026-05-02T17:08:03Z</time></trkpt><trkpt lat="42.31280572705022" lon="13.25245914381504"><ele>1290.0</ele><time>2026-05-02T17:08:04Z</time></trkpt><trkpt lat="42.31287548877965" lon="13.252342532358808"><ele>1290.0</ele><time>2026-05-02T17:08:05Z</time></trkpt><trkpt lat="42.312921472153924" lon="13.252189688583297"><ele>1290.0</ele><time>2026-05-02T17:08:06Z</time></trkpt><trkpt lat="42.312963196867415" lon="13.252039309860953"><ele>1288.8</ele><time>2026-05-02T17:08:07Z</time></trkpt><trkpt lat="42.313038805052635" lon="13.251940828287804"><ele>1287.6</ele><time>2026-05-02T17:08:08Z</time></trkpt><trkpt lat="42.313130087818166" lon="13.251877322479196"><ele>1286.4</ele><time>2026-05-02T17:08:09Z</time></trkpt><trkpt lat="42.31323787397696" lon="13.251826026684581"><ele>1285.2</ele><time>2026-05-02T17:08:10Z</time></trkpt><trkpt lat="42.3133505345587" lon="13.251761941603172"><ele>1284.0</ele><time>2026-05-02T17:08:11Z</time></trkpt><trkpt lat="42.31346190283694" lon="13.25170176140836"><ele>1284.0</ele><time>2026-05-02T17:08:12Z</time></trkpt><trkpt lat="42.3135442223496" lon="13.251591025655346"><ele>1284.0</ele><time>2026-05-02T17:08:13Z</time></trkpt><trkpt lat="42.31360899957373" lon="13.251456219031429"><ele>1284.0</ele><time>2026-05-02T17:08:14Z</time></trkpt><trkpt lat="42.31367706027095" lon="13.251349312912772"><ele>1284.0</ele><time>2026-05-02T17:08:15Z</time></trkpt><trkpt lat="42.313784736708065" lon="13.251328120113687"><ele>1284.0</ele><time>2026-05-02T17:08:16Z</time></trkpt><trkpt lat="42.3139055358207" lon="13.251313861745423"><ele>1287.0</ele><time>2026-05-02T17:08:16.999Z</time></trkpt><trkpt lat="42.314030963922484" lon="13.25126512029266"><ele>1290.0</ele><time>2026-05-02T17:08:17.999Z</time></trkpt><trkpt lat="42.31415723895545" lon="13.251201854763636"><ele>1293.0</ele><time>2026-05-02T17:08:18.999Z</time></trkpt><trkpt lat="42.31427028536971" lon="13.251127191472344"><ele>1296.0</ele><time>2026-05-02T17:08:19.999Z</time></trkpt><trkpt lat="42.314376477629835" lon="13.251075573939906"><ele>1296.0</ele><time>2026-05-02T17:08:20.999Z</time></trkpt><trkpt lat="42.31447752996305" lon="13.251068988828882"><ele>1296.0</ele><time>2026-05-02T17:08:21.999Z</time></trkpt><trkpt lat="42.31457712893067" lon="13.25112474055993"><ele>1296.0</ele><time>2026-05-02T17:08:22.999Z</time></trkpt><trkpt lat="42.31466088218392" lon="13.251248645555485"><ele>1296.0</ele><time>2026-05-02T17:08:23.999Z</time></trkpt><trkpt lat="42.314773155624394" lon="13.25134439680304"><ele>1290.25</ele><time>2026-05-02T17:08:24.999Z</time></trkpt><trkpt lat="42.314879544432266" lon="13.25146503020787"><ele>1284.5</ele><time>2026-05-02T17:08:25.999Z</time></trkpt><trkpt lat="42.31499152821546" lon="13.251584659614295"><ele>1278.75</ele><time>2026-05-02T17:08:26.999Z</time></trkpt><trkpt lat="42.31509370840236" lon="13.251696737741568"><ele>1273.0</ele><time>2026-05-02T17:08:27.999Z</time></trkpt><trkpt lat="42.315189095551546" lon="13.251802952979089"><ele>1273.0</ele><time>2026-05-02T17:08:28.999Z</time></trkpt><trkpt lat="42.315262940307655" lon="13.25191983023855"><ele>1273.0</ele><time>2026-05-02T17:08:29.999Z</time></trkpt><trkpt lat="42.315328216635955" lon="13.252030605508189"><ele>1273.0</ele><time>2026-05-02T17:08:30.999Z</time></trkpt><trkpt lat="42.31539841467578" lon="13.25212431822733"><ele>1273.0</ele><time>2026-05-02T17:08:31.999Z</time></trkpt><trkpt lat="42.31549633722379" lon="13.252193251948778"><ele>1273.0</ele><time>2026-05-02T17:08:32.999Z</time></trkpt><trkpt lat="42.315619718310025" lon="13.252216793337096"><ele>1278.5</ele><time>2026-05-02T17:08:33.999Z</time></trkpt><trkpt lat="42.31575355964495" lon="13.252212103612035"><ele>1284.0</ele><time>2026-05-02T17:08:34.999Z</time></trkpt><trkpt lat="42.315892172693395" lon="13.252183238302548"><ele>1289.5</ele><time>2026-05-02T17:08:35.999Z</time></trkpt><trkpt lat="42.31603137214557" lon="13.252146943244306"><ele>1295.0</ele><time>2026-05-02T17:08:36.999Z</time></trkpt><trkpt lat="42.31616679581981" lon="13.252125469532537"><ele>1295.0</ele><time>2026-05-02T17:08:37.999Z</time></trkpt><trkpt lat="42.31626914040092" lon="13.252042569478883"><ele>1295.0</ele><time>2026-05-02T17:08:38.999Z</time></trkpt><trkpt lat="42.316369209598555" lon="13.252004782156602"><ele>1295.0</ele><time>2026-05-02T17:08:39.999Z</time></trkpt><trkpt lat="42.31645940403659" lon="13.251981128228314"><ele>1295.0</ele><time>2026-05-02T17:08:40.999Z</time></trkpt><trkpt lat="42.31653809552263" lon="13.252025079684614"><ele>1295.0</ele><time>2026-05-02T17:08:41.999Z</time></trkpt><trkpt lat="42.316604278050875" lon="13.252081795513426"><ele>1294.2</ele><time>2026-05-02T17:08:42.999Z</time></trkpt><trkpt lat="42.31663263753887" lon="13.25218804810494"><ele>1293.4</ele><time>2026-05-02T17:08:43.999Z</time></trkpt><trkpt lat="42.316654891898736" lon="13.25230446922608"><ele>1292.6</ele><time>2026-05-02T17:08:44.999Z</time></trkpt><trkpt lat="42.316639358746926" lon="13.25244853674697"><ele>1291.8</ele><time>2026-05-02T17:08:45.999Z</time></trkpt><trkpt lat="42.31657473941302" lon="13.252566017784561"><ele>1291.0</ele><time>2026-05-02T17:08:46.999Z</time></trkpt><trkpt lat="42.31649712653471" lon="13.252665103525077"><ele>1288.1666666666665</ele><time>2026-05-02T17:08:47.999Z</time></trkpt><trkpt lat="42.316446220943696" lon="13.25278990861164"><ele>1285.3333333333333</ele><time>2026-05-02T17:08:48.999Z</time></trkpt><trkpt lat="42.31639444003411" lon="13.252891718704698"><ele>1282.5</ele><time>2026-05-02T17:08:49.999Z</time></trkpt><trkpt lat="42.316380814663155" lon="13.252997946117269"><ele>1279.6666666666667</ele><time>2026-05-02T17:08:50.999Z</time></trkpt><trkpt lat="42.3164145533653" lon="13.25308990676744"><ele>1276.8333333333335</ele><time>2026-05-02T17:08:51.999Z</time></trkpt><trkpt lat="42.31649478236079" lon="13.253142496050078"><ele>1274.0</ele><time>2026-05-02T17:08:52.999Z</time></trkpt><trkpt lat="42.31659983154518" lon="13.253137558838151"><ele>1274.0</ele><time>2026-05-02T17:08:53.999Z</time></trkpt><trkpt lat="42.31670966253067" lon="13.253071600389863"><ele>1274.0</ele><time>2026-05-02T17:08:54.999Z</time></trkpt><trkpt lat="42.31682037554222" lon="13.253002213795574"><ele>1274.0</ele><time>2026-05-02T17:08:55.999Z</time></trkpt><trkpt lat="42.31694860944264" lon="13.252952644678896"><ele>1274.0</ele><time>2026-05-02T17:08:56.999Z</time></trkpt><trkpt lat="42.31708794226053" lon="13.252899137483322"><ele>1274.0</ele><time>2026-05-02T17:08:57.999Z</time></trkpt><trkpt lat="42.31722732453572" lon="13.252851650127111"><ele>1274.0</ele><time>2026-05-02T17:08:58.999Z</time></trkpt><trkpt lat="42.31737455159388" lon="13.252799055175469"><ele>1274.0</ele><time>2026-05-02T17:08:59.999Z</time></trkpt><trkpt lat="42.31752210366436" lon="13.252745341584982"><ele>1274.0</ele><time>2026-05-02T17:09:00.999Z</time></trkpt><trkpt lat="42.31766609836657" lon="13.252693743978284"><ele>1274.5</ele><time>2026-05-02T17:09:01.999Z</time></trkpt><trkpt lat="42.31780595969382" lon="13.252643386029341"><ele>1275.0</ele><time>2026-05-02T17:09:02.999Z</time></trkpt><trkpt lat="42.31795637385223" lon="13.252619233795132"><ele>1275.5</ele><time>2026-05-02T17:09:03.999Z</time></trkpt><trkpt lat="42.318101803829485" lon="13.252596965086614"><ele>1276.0</ele><time>2026-05-02T17:09:04.999Z</time></trkpt><trkpt lat="42.31825276270047" lon="13.252564283858936"><ele>1274.0</ele><time>2026-05-02T17:09:05.999Z</time></trkpt><trkpt lat="42.31840384833987" lon="13.252563138805366"><ele>1272.0</ele><time>2026-05-02T17:09:06.999Z</time></trkpt><trkpt lat="42.31855199298034" lon="13.25255300845325"><ele>1270.0</ele><time>2026-05-02T17:09:07.999Z</time></trkpt><trkpt lat="42.318702195835385" lon="13.252527961212746"><ele>1270.0</ele><time>2026-05-02T17:09:08.999Z</time></trkpt><trkpt lat="42.31885108405023" lon="13.252499207988993"><ele>1270.0</ele><time>2026-05-02T17:09:09.999Z</time></trkpt><trkpt lat="42.31898780359207" lon="13.25246183757466"><ele>1270.0</ele><time>2026-05-02T17:09:10.999Z</time></trkpt><trkpt lat="42.31911447421812" lon="13.252449707534865"><ele>1270.0</ele><time>2026-05-02T17:09:11.999Z</time></trkpt><trkpt lat="42.31923776620721" lon="13.252418436934803"><ele>1268.75</ele><time>2026-05-02T17:09:12.999Z</time></trkpt><trkpt lat="42.31936507222176" lon="13.252387540479871"><ele>1267.5</ele><time>2026-05-02T17:09:13.999Z</time></trkpt><trkpt lat="42.319490649810554" lon="13.252369637505035"><ele>1266.25</ele><time>2026-05-02T17:09:14.999Z</time></trkpt><trkpt lat="42.31960665654758" lon="13.252342772894107"><ele>1265.0</ele><time>2026-05-02T17:09:15.999Z</time></trkpt><trkpt lat="42.319719541292294" lon="13.25230980526678"><ele>1269.0</ele><time>2026-05-02T17:09:16.999Z</time></trkpt><trkpt lat="42.319819940160215" lon="13.252244403949323"><ele>1273.0</ele><time>2026-05-02T17:09:17.999Z</time></trkpt><trkpt lat="42.31990395557414" lon="13.252133186779972"><ele>1277.0</ele><time>2026-05-02T17:09:18.999Z</time></trkpt><trkpt lat="42.31997367178803" lon="13.25198598406059"><ele>1281.0</ele><time>2026-05-02T17:09:19.999Z</time></trkpt><trkpt lat="42.320048827151595" lon="13.251838361587415"><ele>1281.0</ele><time>2026-05-02T17:09:20.999Z</time></trkpt><trkpt lat="42.3201519616545" lon="13.251713944755211"><ele>1281.0</ele><time>2026-05-02T17:09:21.999Z</time></trkpt><trkpt lat="42.320216538081496" lon="13.25155829242744"><ele>1281.0</ele><time>2026-05-02T17:09:22.999Z</time></trkpt><trkpt lat="42.3202822446819" lon="13.251408472864833"><ele>1281.0</ele><time>2026-05-02T17:09:23.998Z</time></trkpt><trkpt lat="42.320333491886615" lon="13.251252543229182"><ele>1283.4</ele><time>2026-05-02T17:09:24.998Z</time></trkpt><trkpt lat="42.32039450148154" lon="13.251111211124545"><ele>1285.8</ele><time>2026-05-02T17:09:25.998Z</time></trkpt><trkpt lat="42.32046143781042" lon="13.25098334049667"><ele>1288.2</ele><time>2026-05-02T17:09:26.998Z</time></trkpt><trkpt lat="42.32048416413555" lon="13.250845890163985"><ele>1290.6000000000001</ele><time>2026-05-02T17:09:27.998Z</time></trkpt><trkpt lat="42.32050033027072" lon="13.250708020277163"><ele>1293.0</ele><time>2026-05-02T17:09:28.998Z</time></trkpt><trkpt lat="42.32051572944896" lon="13.25057263482053"><ele>1289.2</ele><time>2026-05-02T17:09:29.998Z</time></trkpt><trkpt lat="42.3205740678027" lon="13.250475574687929"><ele>1285.4</ele><time>2026-05-02T17:09:30.998Z</time></trkpt><trkpt lat="42.32063967059511" lon="13.250423112971832"><ele>1281.6000000000001</ele><time>2026-05-02T17:09:31.998Z</time></trkpt><trkpt lat="42.32071846736999" lon="13.250375133154284"><ele>1277.8000000000002</ele><time>2026-05-02T17:09:32.998Z</time></trkpt><trkpt lat="42.320817445503685" lon="13.250363705258602"><ele>1274.0</ele><time>2026-05-02T17:09:33.998Z</time></trkpt><trkpt lat="42.3209252759256" lon="13.250373640021952"><ele>1274.0</ele><time>2026-05-02T17:09:34.998Z</time></trkpt><trkpt lat="42.32104188049389" lon="13.250413608310977"><ele>1274.0</ele><time>2026-05-02T17:09:35.998Z</time></trkpt><trkpt lat="42.32115955855889" lon="13.250482311759303"><ele>1274.0</ele><time>2026-05-02T17:09:36.998Z</time></trkpt><trkpt lat="42.3212810543156" lon="13.250550686160464"><ele>1274.0</ele><time>2026-05-02T17:09:37.998Z</time></trkpt><trkpt lat="42.321409263050256" lon="13.25059795811636"><ele>1267.75</ele><time>2026-05-02T17:09:38.998Z</time></trkpt><trkpt lat="42.32152598113558" lon="13.250667982465137"><ele>1261.5</ele><time>2026-05-02T17:09:39.998Z</time></trkpt><trkpt lat="42.32163912549515" lon="13.25073060179849"><ele>1255.25</ele><time>2026-05-02T17:09:40.998Z</time></trkpt><trkpt lat="42.32174861667662" lon="13.250795916502675"><ele>1249.0</ele><time>2026-05-02T17:09:41.998Z</time></trkpt><trkpt lat="42.321851909857564" lon="13.25087979050929"><ele>1249.0</ele><time>2026-05-02T17:09:42.998Z</time></trkpt><trkpt lat="42.3219461019263" lon="13.250965877899532"><ele>1249.0</ele><time>2026-05-02T17:09:43.998Z</time></trkpt><trkpt lat="42.32201692137153" lon="13.251038885791766"><ele>1249.0</ele><time>2026-05-02T17:09:44.998Z</time></trkpt><trkpt lat="42.322069667490084" lon="13.251108896732347"><ele>1249.0</ele><time>2026-05-02T17:09:45.998Z</time></trkpt><trkpt lat="42.32207034777878" lon="13.251203905905582"><ele>1249.0</ele><time>2026-05-02T17:09:46.998Z</time></trkpt><trkpt lat="42.32200615045782" lon="13.2513365117032"><ele>1249.0</ele><time>2026-05-02T17:09:48.998Z</time></trkpt><trkpt lat="42.32191153651021" lon="13.2513026519164"><ele>1249.0</ele><time>2026-05-02T17:09:49.998Z</time></trkpt><trkpt lat="42.32180608089678" lon="13.251292627050328"><ele>1249.0</ele><time>2026-05-02T17:09:50.998Z</time></trkpt><trkpt lat="42.32169300086493" lon="13.251290063806"><ele>1249.0</ele><time>2026-05-02T17:09:51.998Z</time></trkpt><trkpt lat="42.32158797795191" lon="13.251227519351001"><ele>1249.0</ele><time>2026-05-02T17:09:52.998Z</time></trkpt><trkpt lat="42.32148140182705" lon="13.251119704501145"><ele>1249.5</ele><time>2026-05-02T17:09:53.998Z</time></trkpt><trkpt lat="42.32138945114364" lon="13.251020548801531"><ele>1250.0</ele><time>2026-05-02T17:09:54.998Z</time></trkpt><trkpt lat="42.321315066304635" lon="13.25089384373367"><ele>1250.5</ele><time>2026-05-02T17:09:55.998Z</time></trkpt><trkpt lat="42.32124025393709" lon="13.250784244151106"><ele>1251.0</ele><time>2026-05-02T17:09:56.998Z</time></trkpt><trkpt lat="42.32115703013275" lon="13.250700267856395"><ele>1251.0</ele><time>2026-05-02T17:09:58Z</time></trkpt><trkpt lat="42.32106484701288" lon="13.250642703249497"><ele>1251.0</ele><time>2026-05-02T17:09:59Z</time></trkpt><trkpt lat="42.320973230819085" lon="13.250605786302215"><ele>1251.0</ele><time>2026-05-02T17:10:00Z</time></trkpt><trkpt lat="42.32089035085406" lon="13.250590066317299"><ele>1251.0</ele><time>2026-05-02T17:10:01Z</time></trkpt><trkpt lat="42.32082041966642" lon="13.25063411454423"><ele>1251.0</ele><time>2026-05-02T17:10:02Z</time></trkpt><trkpt lat="42.32078466749755" lon="13.25070554768502"><ele>1251.0</ele><time>2026-05-02T17:10:03Z</time></trkpt><trkpt lat="42.320710559120556" lon="13.250834455591033"><ele>1251.0</ele><time>2026-05-02T17:10:05Z</time></trkpt><trkpt lat="42.320706502287116" lon="13.250964736596123"><ele>1251.0</ele><time>2026-05-02T17:10:06Z</time></trkpt><trkpt lat="42.320656073003896" lon="13.251092202566447"><ele>1251.0</ele><time>2026-05-02T17:10:07Z</time></trkpt><trkpt lat="42.32058953927534" lon="13.251221665842829"><ele>1251.0</ele><time>2026-05-02T17:10:08Z</time></trkpt><trkpt lat="42.32052176050847" lon="13.251369698887004"><ele>1251.0</ele><time>2026-05-02T17:10:09Z</time></trkpt><trkpt lat="42.32047082354498" lon="13.25153754179545"><ele>1258.5</ele><time>2026-05-02T17:10:10Z</time></trkpt><trkpt lat="42.320425119136694" lon="13.251700909098883"><ele>1266.0</ele><time>2026-05-02T17:10:11Z</time></trkpt><trkpt lat="42.32036016220969" lon="13.251848878368149"><ele>1273.5</ele><time>2026-05-02T17:10:12Z</time></trkpt><trkpt lat="42.320285813372394" lon="13.25200362822365"><ele>1281.0</ele><time>2026-05-02T17:10:13Z</time></trkpt><trkpt lat="42.32020133093903" lon="13.252150901107257"><ele>1272.75</ele><time>2026-05-02T17:10:14Z</time></trkpt><trkpt lat="42.320134709199664" lon="13.252298555547267"><ele>1264.5</ele><time>2026-05-02T17:10:15Z</time></trkpt><trkpt lat="42.32009086164644" lon="13.252461200244044"><ele>1256.25</ele><time>2026-05-02T17:10:16Z</time></trkpt><trkpt lat="42.32002449806221" lon="13.252596669018237"><ele>1248.0</ele><time>2026-05-02T17:10:17Z</time></trkpt><trkpt lat="42.319959319848465" lon="13.252709909144484"><ele>1248.0</ele><time>2026-05-02T17:10:18Z</time></trkpt><trkpt lat="42.31986536591961" lon="13.252806731141357"><ele>1248.0</ele><time>2026-05-02T17:10:19Z</time></trkpt><trkpt lat="42.319750704975114" lon="13.25287507985255"><ele>1248.0</ele><time>2026-05-02T17:10:20Z</time></trkpt><trkpt lat="42.31962801843215" lon="13.252951725588442"><ele>1248.0</ele><time>2026-05-02T17:10:21Z</time></trkpt><trkpt lat="42.319490045928916" lon="13.252984648176131"><ele>1253.6666666666667</ele><time>2026-05-02T17:10:22Z</time></trkpt><trkpt lat="42.31934314263394" lon="13.253008338548474"><ele>1259.3333333333335</ele><time>2026-05-02T17:10:23Z</time></trkpt><trkpt lat="42.31917464476482" lon="13.253031988998845"><ele>1265.0</ele><time>2026-05-02T17:10:23.999Z</time></trkpt><trkpt lat="42.319024133693944" lon="13.25309034656151"><ele>1257.25</ele><time>2026-05-02T17:10:24.999Z</time></trkpt><trkpt lat="42.31893087699659" lon="13.253184805258696"><ele>1249.5</ele><time>2026-05-02T17:10:25.999Z</time></trkpt><trkpt lat="42.31880538683227" lon="13.253247747923393"><ele>1241.75</ele><time>2026-05-02T17:10:26.999Z</time></trkpt><trkpt lat="42.318672861272404" lon="13.253258832643109"><ele>1234.0</ele><time>2026-05-02T17:10:27.999Z</time></trkpt><trkpt lat="42.31853467797525" lon="13.253267649997046"><ele>1234.0</ele><time>2026-05-02T17:10:28.999Z</time></trkpt><trkpt lat="42.318398615050626" lon="13.253272244536843"><ele>1234.0</ele><time>2026-05-02T17:10:29.999Z</time></trkpt><trkpt lat="42.31826597715912" lon="13.25332039814672"><ele>1234.0</ele><time>2026-05-02T17:10:30.999Z</time></trkpt><trkpt lat="42.31812916603066" lon="13.253381582202527"><ele>1234.0</ele><time>2026-05-02T17:10:31.999Z</time></trkpt><trkpt lat="42.317986852655075" lon="13.25344440945181"><ele>1236.0</ele><time>2026-05-02T17:10:32.999Z</time></trkpt><trkpt lat="42.31784134729451" lon="13.253504576588528"><ele>1238.0</ele><time>2026-05-02T17:10:33.999Z</time></trkpt><trkpt lat="42.317697762755294" lon="13.25355896476431"><ele>1240.0</ele><time>2026-05-02T17:10:34.999Z</time></trkpt><trkpt lat="42.31755517826573" lon="13.253608309636185"><ele>1242.0</ele><time>2026-05-02T17:10:35.999Z</time></trkpt><trkpt lat="42.31740930882179" lon="13.253663277863637"><ele>1242.0</ele><time>2026-05-02T17:10:36.999Z</time></trkpt><trkpt lat="42.31727056738403" lon="13.253716633149589"><ele>1242.0</ele><time>2026-05-02T17:10:37.999Z</time></trkpt><trkpt lat="42.31713282636879" lon="13.25378351151239"><ele>1242.0</ele><time>2026-05-02T17:10:38.999Z</time></trkpt><trkpt lat="42.31699967752062" lon="13.253857963983044"><ele>1242.0</ele><time>2026-05-02T17:10:39.999Z</time></trkpt><trkpt lat="42.31686573000866" lon="13.253934734799474"><ele>1234.0</ele><time>2026-05-02T17:10:40.999Z</time></trkpt><trkpt lat="42.316727841099514" lon="13.254006775802388"><ele>1226.0</ele><time>2026-05-02T17:10:41.999Z</time></trkpt><trkpt lat="42.316598262644476" lon="13.254075548938662"><ele>1218.0</ele><time>2026-05-02T17:10:42.999Z</time></trkpt><trkpt lat="42.31648245388012" lon="13.2541459502058"><ele>1210.0</ele><time>2026-05-02T17:10:43.999Z</time></trkpt><trkpt lat="42.31636680091474" lon="13.25417849143897"><ele>1208.75</ele><time>2026-05-02T17:10:44.999Z</time></trkpt><trkpt lat="42.31625747760826" lon="13.254192413147178"><ele>1207.5</ele><time>2026-05-02T17:10:45.999Z</time></trkpt><trkpt lat="42.3161497526598" lon="13.25417126571843"><ele>1206.25</ele><time>2026-05-02T17:10:46.999Z</time></trkpt><trkpt lat="42.31605556367528" lon="13.254075137281815"><ele>1205.0</ele><time>2026-05-02T17:10:47.999Z</time></trkpt><trkpt lat="42.31593427805449" lon="13.253987420852843"><ele>1205.75</ele><time>2026-05-02T17:10:48.999Z</time></trkpt><trkpt lat="42.315804111719835" lon="13.253912173845052"><ele>1206.5</ele><time>2026-05-02T17:10:49.999Z</time></trkpt><trkpt lat="42.315665067163664" lon="13.253886422491448"><ele>1207.25</ele><time>2026-05-02T17:10:50.999Z</time></trkpt><trkpt lat="42.3155424942393" lon="13.253845232767482"><ele>1208.0</ele><time>2026-05-02T17:10:51.999Z</time></trkpt><trkpt lat="42.31543194868202" lon="13.253796641725355"><ele>1208.0</ele><time>2026-05-02T17:10:52.999Z</time></trkpt><trkpt lat="42.31536009974969" lon="13.253683647406943"><ele>1208.0</ele><time>2026-05-02T17:10:53.999Z</time></trkpt><trkpt lat="42.315315404215866" lon="13.253561947126052"><ele>1208.0</ele><time>2026-05-02T17:10:54.999Z</time></trkpt><trkpt lat="42.31527271858832" lon="13.253415541429453"><ele>1208.0</ele><time>2026-05-02T17:10:55.999Z</time></trkpt><trkpt lat="42.31519148120713" lon="13.25330002901074"><ele>1208.0</ele><time>2026-05-02T17:10:56.999Z</time></trkpt><trkpt lat="42.315066202950824" lon="13.253258476100918"><ele>1208.0</ele><time>2026-05-02T17:10:57.999Z</time></trkpt><trkpt lat="42.31494086110351" lon="13.253228412496302"><ele>1208.0</ele><time>2026-05-02T17:10:58.999Z</time></trkpt><trkpt lat="42.31482701766376" lon="13.253183805269604"><ele>1208.0</ele><time>2026-05-02T17:10:59.999Z</time></trkpt><trkpt lat="42.3147509393355" lon="13.253070057518944"><ele>1208.0</ele><time>2026-05-02T17:11:00.999Z</time></trkpt><trkpt lat="42.314664237575535" lon="13.252974896524579"><ele>1213.5</ele><time>2026-05-02T17:11:01.999Z</time></trkpt><trkpt lat="42.31456145698398" lon="13.25293030180867"><ele>1219.0</ele><time>2026-05-02T17:11:02.999Z</time></trkpt><trkpt lat="42.31446578661063" lon="13.252915883507612"><ele>1224.5</ele><time>2026-05-02T17:11:03.999Z</time></trkpt><trkpt lat="42.31435193670735" lon="13.252958972186086"><ele>1230.0</ele><time>2026-05-02T17:11:04.999Z</time></trkpt><trkpt lat="42.31422928635305" lon="13.253033428826589"><ele>1230.0</ele><time>2026-05-02T17:11:05.999Z</time></trkpt><trkpt lat="42.3141081593354" lon="13.253116875182766"><ele>1230.0</ele><time>2026-05-02T17:11:06.999Z</time></trkpt><trkpt lat="42.31400719139908" lon="13.25321847943822"><ele>1230.0</ele><time>2026-05-02T17:11:07.999Z</time></trkpt><trkpt lat="42.31392809465084" lon="13.253355121686672"><ele>1230.0</ele><time>2026-05-02T17:11:08.999Z</time></trkpt><trkpt lat="42.31387052510708" lon="13.253527620753731"><ele>1229.25</ele><time>2026-05-02T17:11:09.999Z</time></trkpt><trkpt lat="42.31380915034546" lon="13.253698201095167"><ele>1228.5</ele><time>2026-05-02T17:11:10.999Z</time></trkpt><trkpt lat="42.31372093337812" lon="13.253835914373196"><ele>1227.75</ele><time>2026-05-02T17:11:11.999Z</time></trkpt><trkpt lat="42.31363898542771" lon="13.25396494823226"><ele>1227.0</ele><time>2026-05-02T17:11:12.999Z</time></trkpt><trkpt lat="42.31357893744896" lon="13.254119472239854"><ele>1227.0</ele><time>2026-05-02T17:11:13.999Z</time></trkpt><trkpt lat="42.31354857820542" lon="13.254311004152285"><ele>1227.0</ele><time>2026-05-02T17:11:14.999Z</time></trkpt><trkpt lat="42.31354072016609" lon="13.25450742870449"><ele>1227.0</ele><time>2026-05-02T17:11:15.999Z</time></trkpt><trkpt lat="42.31352871126361" lon="13.25471483304811"><ele>1227.0</ele><time>2026-05-02T17:11:16.999Z</time></trkpt><trkpt lat="42.31347469624578" lon="13.254889042096561"><ele>1223.4</ele><time>2026-05-02T17:11:17.999Z</time></trkpt><trkpt lat="42.313435033542696" lon="13.255046935546948"><ele>1219.8000000000002</ele><time>2026-05-02T17:11:18.999Z</time></trkpt><trkpt lat="42.313389854441056" lon="13.255169378512472"><ele>1216.2</ele><time>2026-05-02T17:11:19.999Z</time></trkpt><trkpt lat="42.31332553401831" lon="13.25526735390158"><ele>1212.6000000000001</ele><time>2026-05-02T17:11:20.999Z</time></trkpt><trkpt lat="42.313246386655436" lon="13.255329515338826"><ele>1209.0</ele><time>2026-05-02T17:11:21.999Z</time></trkpt><trkpt lat="42.31315621050761" lon="13.255332104005129"><ele>1212.5</ele><time>2026-05-02T17:11:22.999Z</time></trkpt><trkpt lat="42.313059960952465" lon="13.255291635927447"><ele>1216.0</ele><time>2026-05-02T17:11:23.999Z</time></trkpt><trkpt lat="42.31294713232545" lon="13.255240972667266"><ele>1219.5</ele><time>2026-05-02T17:11:24.999Z</time></trkpt><trkpt lat="42.31282422573126" lon="13.25520106722295"><ele>1223.0</ele><time>2026-05-02T17:11:25.999Z</time></trkpt><trkpt lat="42.31270481970039" lon="13.255154250037716"><ele>1223.0</ele><time>2026-05-02T17:11:26.999Z</time></trkpt><trkpt lat="42.31258927713356" lon="13.25512628196287"><ele>1223.0</ele><time>2026-05-02T17:11:27.999Z</time></trkpt><trkpt lat="42.31247425273419" lon="13.255138409452423"><ele>1223.0</ele><time>2026-05-02T17:11:28.999Z</time></trkpt><trkpt lat="42.312373335971536" lon="13.25519586953613"><ele>1223.0</ele><time>2026-05-02T17:11:29.999Z</time></trkpt><trkpt lat="42.31229745213215" lon="13.255301894938247"><ele>1227.5</ele><time>2026-05-02T17:11:30.998Z</time></trkpt><trkpt lat="42.31223597304237" lon="13.255433901343492"><ele>1232.0</ele><time>2026-05-02T17:11:31.998Z</time></trkpt><trkpt lat="42.31223706119269" lon="13.255607183257846"><ele>1236.5</ele><time>2026-05-02T17:11:32.998Z</time></trkpt><trkpt lat="42.31225970197123" lon="13.25577879497942"><ele>1241.0</ele><time>2026-05-02T17:11:33.998Z</time></trkpt><trkpt lat="42.31228564827096" lon="13.255941677136326"><ele>1232.2</ele><time>2026-05-02T17:11:34.998Z</time></trkpt><trkpt lat="42.31227746221027" lon="13.256097284379543"><ele>1223.3999999999999</ele><time>2026-05-02T17:11:35.998Z</time></trkpt><trkpt lat="42.312279448364954" lon="13.256240193840238"><ele>1214.6</ele><time>2026-05-02T17:11:36.998Z</time></trkpt><trkpt lat="42.312271016065736" lon="13.256374066102035"><ele>1205.8</ele><time>2026-05-02T17:11:37.998Z</time></trkpt><trkpt lat="42.3121877720919" lon="13.25647827215033"><ele>1197.0</ele><time>2026-05-02T17:11:38.998Z</time></trkpt><trkpt lat="42.312098988447794" lon="13.256581241636573"><ele>1196.2</ele><time>2026-05-02T17:11:39.998Z</time></trkpt><trkpt lat="42.31200439949258" lon="13.256655480267321"><ele>1195.4</ele><time>2026-05-02T17:11:40.998Z</time></trkpt><trkpt lat="42.31190173775833" lon="13.256693111138524"><ele>1194.6</ele><time>2026-05-02T17:11:41.998Z</time></trkpt><trkpt lat="42.31179295358649" lon="13.256712480595427"><ele>1193.8</ele><time>2026-05-02T17:11:42.998Z</time></trkpt><trkpt lat="42.311678124278714" lon="13.256654180087562"><ele>1193.0</ele><time>2026-05-02T17:11:43.998Z</time></trkpt><trkpt lat="42.31156752146832" lon="13.25657318699251"><ele>1193.0</ele><time>2026-05-02T17:11:44.998Z</time></trkpt><trkpt lat="42.31146483732708" lon="13.256506840214888"><ele>1193.0</ele><time>2026-05-02T17:11:45.998Z</time></trkpt><trkpt lat="42.311359309968815" lon="13.256479440450573"><ele>1193.0</ele><time>2026-05-02T17:11:46.998Z</time></trkpt><trkpt lat="42.31125418392069" lon="13.256508667034186"><ele>1193.0</ele><time>2026-05-02T17:11:47.998Z</time></trkpt><trkpt lat="42.311155501635334" lon="13.256589215164663"><ele>1193.0</ele><time>2026-05-02T17:11:48.998Z</time></trkpt><trkpt lat="42.311077154440504" lon="13.256713302302833"><ele>1191.25</ele><time>2026-05-02T17:11:49.998Z</time></trkpt><trkpt lat="42.31101392427957" lon="13.256864147936051"><ele>1189.5</ele><time>2026-05-02T17:11:50.998Z</time></trkpt><trkpt lat="42.310960864951085" lon="13.257031787613226"><ele>1187.75</ele><time>2026-05-02T17:11:51.998Z</time></trkpt><trkpt lat="42.31090172056978" lon="13.257191838854789"><ele>1186.0</ele><time>2026-05-02T17:11:52.998Z</time></trkpt><trkpt lat="42.310846992760936" lon="13.25734541187864"><ele>1186.0</ele><time>2026-05-02T17:11:53.998Z</time></trkpt><trkpt lat="42.310787100343525" lon="13.257505980005513"><ele>1186.0</ele><time>2026-05-02T17:11:54.998Z</time></trkpt><trkpt lat="42.310712191613895" lon="13.257636191866894"><ele>1186.0</ele><time>2026-05-02T17:11:55.998Z</time></trkpt><trkpt lat="42.31063497982309" lon="13.257764629782159"><ele>1186.0</ele><time>2026-05-02T17:11:56.998Z</time></trkpt><trkpt lat="42.31055160419619" lon="13.257884458156692"><ele>1191.25</ele><time>2026-05-02T17:11:57.998Z</time></trkpt><trkpt lat="42.31045156673571" lon="13.257960716387846"><ele>1196.5</ele><time>2026-05-02T17:11:58.998Z</time></trkpt><trkpt lat="42.31033562185924" lon="13.25800023990675"><ele>1201.75</ele><time>2026-05-02T17:11:59.998Z</time></trkpt><trkpt lat="42.31021820289928" lon="13.257972184333665"><ele>1207.0</ele><time>2026-05-02T17:12:00.998Z</time></trkpt><trkpt lat="42.31009851036143" lon="13.257986846562117"><ele>1207.0</ele><time>2026-05-02T17:12:01.998Z</time></trkpt><trkpt lat="42.309986101766825" lon="13.257998524971441"><ele>1207.0</ele><time>2026-05-02T17:12:02.998Z</time></trkpt><trkpt lat="42.30988493228656" lon="13.258062801491223"><ele>1207.0</ele><time>2026-05-02T17:12:04Z</time></trkpt><trkpt lat="42.309796543430366" lon="13.258184442356551"><ele>1207.0</ele><time>2026-05-02T17:12:05Z</time></trkpt><trkpt lat="42.30972816233722" lon="13.258336534562718"><ele>1204.5</ele><time>2026-05-02T17:12:06Z</time></trkpt><trkpt lat="42.30964790564241" lon="13.258486108646407"><ele>1202.0</ele><time>2026-05-02T17:12:07Z</time></trkpt><trkpt lat="42.309572300794095" lon="13.258636234837265"><ele>1199.5</ele><time>2026-05-02T17:12:08Z</time></trkpt><trkpt lat="42.30949590249666" lon="13.25877149971717"><ele>1197.0</ele><time>2026-05-02T17:12:09Z</time></trkpt><trkpt lat="42.3094164276968" lon="13.258893731349934"><ele>1190.25</ele><time>2026-05-02T17:12:10Z</time></trkpt><trkpt lat="42.30930955521868" lon="13.258980383626408"><ele>1183.5</ele><time>2026-05-02T17:12:11Z</time></trkpt><trkpt lat="42.309213808023266" lon="13.2590658098003"><ele>1176.75</ele><time>2026-05-02T17:12:12Z</time></trkpt><trkpt lat="42.309086592060915" lon="13.259079815026528"><ele>1170.0</ele><time>2026-05-02T17:12:13Z</time></trkpt><trkpt lat="42.30895870942648" lon="13.259139420309323"><ele>1172.0</ele><time>2026-05-02T17:12:14Z</time></trkpt><trkpt lat="42.308822546333374" lon="13.259182500426041"><ele>1174.0</ele><time>2026-05-02T17:12:15Z</time></trkpt><trkpt lat="42.30867780216056" lon="13.259262467099553"><ele>1176.0</ele><time>2026-05-02T17:12:16Z</time></trkpt><trkpt lat="42.30855940220503" lon="13.259353189923887"><ele>1178.0</ele><time>2026-05-02T17:12:17Z</time></trkpt><trkpt lat="42.30843142047368" lon="13.259450927515685"><ele>1178.0</ele><time>2026-05-02T17:12:18Z</time></trkpt><trkpt lat="42.30830663210448" lon="13.259545992226895"><ele>1178.0</ele><time>2026-05-02T17:12:19Z</time></trkpt><trkpt lat="42.30818643385132" lon="13.25963048255912"><ele>1178.0</ele><time>2026-05-02T17:12:20Z</time></trkpt><trkpt lat="42.30806903759277" lon="13.259683667058223"><ele>1178.0</ele><time>2026-05-02T17:12:21Z</time></trkpt><trkpt lat="42.30796456523612" lon="13.259771194895096"><ele>1172.5</ele><time>2026-05-02T17:12:22Z</time></trkpt><trkpt lat="42.307847995941664" lon="13.259871531371697"><ele>1167.0</ele><time>2026-05-02T17:12:23Z</time></trkpt><trkpt lat="42.30773857715744" lon="13.259945836537485"><ele>1161.5</ele><time>2026-05-02T17:12:24Z</time></trkpt><trkpt lat="42.30762179598843" lon="13.259980965070046"><ele>1156.0</ele><time>2026-05-02T17:12:25Z</time></trkpt><trkpt lat="42.30750466773121" lon="13.259988704657351"><ele>1156.0</ele><time>2026-05-02T17:12:26Z</time></trkpt><trkpt lat="42.30739131253385" lon="13.25996508352846"><ele>1156.0</ele><time>2026-05-02T17:12:27Z</time></trkpt><trkpt lat="42.30728961165042" lon="13.259902291094612"><ele>1156.0</ele><time>2026-05-02T17:12:28Z</time></trkpt><trkpt lat="42.30721367722978" lon="13.259771999329354"><ele>1156.0</ele><time>2026-05-02T17:12:28.999Z</time></trkpt><trkpt lat="42.307122240045274" lon="13.259649618195663"><ele>1153.5</ele><time>2026-05-02T17:12:29.999Z</time></trkpt><trkpt lat="42.307038963733135" lon="13.259508228966796"><ele>1151.0</ele><time>2026-05-02T17:12:30.999Z</time></trkpt><trkpt lat="42.306952693965194" lon="13.259370051132358"><ele>1148.5</ele><time>2026-05-02T17:12:31.999Z</time></trkpt><trkpt lat="42.30687910356855" lon="13.25922392657058"><ele>1146.0</ele><time>2026-05-02T17:12:32.999Z</time></trkpt><trkpt lat="42.306820462898315" lon="13.259063760897467"><ele>1148.25</ele><time>2026-05-02T17:12:33.999Z</time></trkpt><trkpt lat="42.30677603234965" lon="13.258896891204037"><ele>1150.5</ele><time>2026-05-02T17:12:34.999Z</time></trkpt><trkpt lat="42.30672933890398" lon="13.258734613846562"><ele>1152.75</ele><time>2026-05-02T17:12:35.999Z</time></trkpt><trkpt lat="42.30667995223908" lon="13.258571788737182"><ele>1155.0</ele><time>2026-05-02T17:12:36.999Z</time></trkpt><trkpt lat="42.30662530142031" lon="13.258415089700893"><ele>1155.0</ele><time>2026-05-02T17:12:37.999Z</time></trkpt><trkpt lat="42.30656123966219" lon="13.258272768390857"><ele>1155.0</ele><time>2026-05-02T17:12:38.999Z</time></trkpt><trkpt lat="42.30649231202483" lon="13.258140426684195"><ele>1155.0</ele><time>2026-05-02T17:12:39.999Z</time></trkpt><trkpt lat="42.30641382110038" lon="13.258024683342217"><ele>1155.0</ele><time>2026-05-02T17:12:40.999Z</time></trkpt><trkpt lat="42.30632308230978" lon="13.257924629039659"><ele>1157.0</ele><time>2026-05-02T17:12:41.999Z</time></trkpt><trkpt lat="42.306218830768515" lon="13.257840882920615"><ele>1159.0</ele><time>2026-05-02T17:12:42.999Z</time></trkpt><trkpt lat="42.30609796787816" lon="13.257791032233637"><ele>1161.0</ele><time>2026-05-02T17:12:43.999Z</time></trkpt><trkpt lat="42.30596503317432" lon="13.257773348503868"><ele>1163.0</ele><time>2026-05-02T17:12:44.999Z</time></trkpt><trkpt lat="42.30582223498849" lon="13.257787222554153"><ele>1163.0</ele><time>2026-05-02T17:12:45.999Z</time></trkpt><trkpt lat="42.305674656514476" lon="13.257824350169297"><ele>1163.0</ele><time>2026-05-02T17:12:46.999Z</time></trkpt><trkpt lat="42.30552485808483" lon="13.25785001197044"><ele>1163.0</ele><time>2026-05-02T17:12:47.999Z</time></trkpt><trkpt lat="42.30538317392501" lon="13.257888669227407"><ele>1163.0</ele><time>2026-05-02T17:12:48.999Z</time></trkpt><trkpt lat="42.3052467666881" lon="13.257928489236937"><ele>1163.25</ele><time>2026-05-02T17:12:49.999Z</time></trkpt><trkpt lat="42.30510768751318" lon="13.25791558133836"><ele>1163.5</ele><time>2026-05-02T17:12:50.999Z</time></trkpt><trkpt lat="42.30498135701799" lon="13.257887933597846"><ele>1163.75</ele><time>2026-05-02T17:12:51.999Z</time></trkpt><trkpt lat="42.304837022316335" lon="13.257850618878804"><ele>1164.0</ele><time>2026-05-02T17:12:52.999Z</time></trkpt><trkpt lat="42.30469413194781" lon="13.257856901366202"><ele>1164.0</ele><time>2026-05-02T17:12:53.999Z</time></trkpt><trkpt lat="42.304547906367496" lon="13.25786486048278"><ele>1164.0</ele><time>2026-05-02T17:12:54.999Z</time></trkpt><trkpt lat="42.30439327808228" lon="13.257912516052082"><ele>1164.0</ele><time>2026-05-02T17:12:55.999Z</time></trkpt><trkpt lat="42.304240354053555" lon="13.257978964855623"><ele>1164.0</ele><time>2026-05-02T17:12:56.999Z</time></trkpt><trkpt lat="42.3040864419605" lon="13.2580420618554"><ele>1164.0</ele><time>2026-05-02T17:12:57.999Z</time></trkpt><trkpt lat="42.303935287339804" lon="13.258106428494045"><ele>1164.0</ele><time>2026-05-02T17:12:58.999Z</time></trkpt><trkpt lat="42.30379876746247" lon="13.258169736806122"><ele>1155.25</ele><time>2026-05-02T17:12:59.999Z</time></trkpt><trkpt lat="42.30366534873186" lon="13.258223651474605"><ele>1146.5</ele><time>2026-05-02T17:13:00.999Z</time></trkpt><trkpt lat="42.30354566405098" lon="13.258269423614003"><ele>1137.75</ele><time>2026-05-02T17:13:01.999Z</time></trkpt><trkpt lat="42.30342824198769" lon="13.258310795281739"><ele>1129.0</ele><time>2026-05-02T17:13:02.999Z</time></trkpt><trkpt lat="42.30331744572275" lon="13.258349004084932"><ele>1129.0</ele><time>2026-05-02T17:13:03.999Z</time></trkpt><trkpt lat="42.3032125357547" lon="13.258362485604117"><ele>1129.0</ele><time>2026-05-02T17:13:04.999Z</time></trkpt><trkpt lat="42.303112525744226" lon="13.258349169376475"><ele>1129.0</ele><time>2026-05-02T17:13:05.999Z</time></trkpt><trkpt lat="42.303038528135104" lon="13.25823084846736"><ele>1129.0</ele><time>2026-05-02T17:13:06.999Z</time></trkpt><trkpt lat="42.302956607126696" lon="13.25811752982659"><ele>1129.0</ele><time>2026-05-02T17:13:07.999Z</time></trkpt><trkpt lat="42.302858389465534" lon="13.25799676430253"><ele>1130.0</ele><time>2026-05-02T17:13:08.999Z</time></trkpt><trkpt lat="42.30275482768595" lon="13.257870355823517"><ele>1131.0</ele><time>2026-05-02T17:13:09.999Z</time></trkpt><trkpt lat="42.30263688630989" lon="13.257752052919228"><ele>1132.0</ele><time>2026-05-02T17:13:10.999Z</time></trkpt><trkpt lat="42.30253696867702" lon="13.257618733287488"><ele>1133.0</ele><time>2026-05-02T17:13:11.999Z</time></trkpt><trkpt lat="42.30243925746864" lon="13.257492008174347"><ele>1133.0</ele><time>2026-05-02T17:13:12.999Z</time></trkpt><trkpt lat="42.30234210860959" lon="13.257371395752115"><ele>1133.0</ele><time>2026-05-02T17:13:13.999Z</time></trkpt><trkpt lat="42.30223878896894" lon="13.25727006786493"><ele>1133.0</ele><time>2026-05-02T17:13:14.999Z</time></trkpt><trkpt lat="42.30212797419887" lon="13.257177603791693"><ele>1133.0</ele><time>2026-05-02T17:13:15.999Z</time></trkpt><trkpt lat="42.30200753947915" lon="13.257100598595152"><ele>1132.25</ele><time>2026-05-02T17:13:16.999Z</time></trkpt><trkpt lat="42.301887396472246" lon="13.257014564934689"><ele>1131.5</ele><time>2026-05-02T17:13:17.999Z</time></trkpt><trkpt lat="42.30177145654723" lon="13.256938309105065"><ele>1130.75</ele><time>2026-05-02T17:13:18.999Z</time></trkpt><trkpt lat="42.30166096170716" lon="13.25686321567998"><ele>1130.0</ele><time>2026-05-02T17:13:19.999Z</time></trkpt><trkpt lat="42.30156027004412" lon="13.256798171861517"><ele>1130.0</ele><time>2026-05-02T17:13:20.999Z</time></trkpt><trkpt lat="42.30146169801461" lon="13.256765872578022"><ele>1130.0</ele><time>2026-05-02T17:13:21.999Z</time></trkpt><trkpt lat="42.30136711230608" lon="13.256791950293744"><ele>1130.0</ele><time>2026-05-02T17:13:22.999Z</time></trkpt><trkpt lat="42.30128247336486" lon="13.256875279454935"><ele>1130.0</ele><time>2026-05-02T17:13:23.999Z</time></trkpt><trkpt lat="42.30121475351514" lon="13.257011013911148"><ele>1130.0</ele><time>2026-05-02T17:13:24.999Z</time></trkpt><trkpt lat="42.30116424269278" lon="13.257175041883734"><ele>1135.25</ele><time>2026-05-02T17:13:25.999Z</time></trkpt><trkpt lat="42.301131219534554" lon="13.257358074400692"><ele>1140.5</ele><time>2026-05-02T17:13:26.999Z</time></trkpt><trkpt lat="42.301100552024806" lon="13.257551626746945"><ele>1145.75</ele><time>2026-05-02T17:13:27.999Z</time></trkpt><trkpt lat="42.30107509694844" lon="13.25774576452292"><ele>1151.0</ele><time>2026-05-02T17:13:28.999Z</time></trkpt><trkpt lat="42.30105333356202" lon="13.257939000189703"><ele>1148.0</ele><time>2026-05-02T17:13:29.999Z</time></trkpt><trkpt lat="42.3010371325481" lon="13.258130702867172"><ele>1145.0</ele><time>2026-05-02T17:13:30.999Z</time></trkpt><trkpt lat="42.30101753522469" lon="13.258317719598963"><ele>1142.0</ele><time>2026-05-02T17:13:31.999Z</time></trkpt><trkpt lat="42.30099295455552" lon="13.25849887771188"><ele>1139.0</ele><time>2026-05-02T17:13:32.999Z</time></trkpt><trkpt lat="42.30097198032938" lon="13.25867854398097"><ele>1139.0</ele><time>2026-05-02T17:13:33.999Z</time></trkpt><trkpt lat="42.300954310985496" lon="13.258854595145852"><ele>1139.0</ele><time>2026-05-02T17:13:34.999Z</time></trkpt><trkpt lat="42.30095232176251" lon="13.259031985325992"><ele>1139.0</ele><time>2026-05-02T17:13:35.998Z</time></trkpt><trkpt lat="42.300960386502204" lon="13.259222967058543"><ele>1139.0</ele><time>2026-05-02T17:13:36.998Z</time></trkpt><trkpt lat="42.30095806629981" lon="13.259427035580785"><ele>1138.0</ele><time>2026-05-02T17:13:37.998Z</time></trkpt><trkpt lat="42.300967100194725" lon="13.259633767922129"><ele>1137.0</ele><time>2026-05-02T17:13:38.998Z</time></trkpt><trkpt lat="42.30098636603452" lon="13.259829346855518"><ele>1136.0</ele><time>2026-05-02T17:13:39.998Z</time></trkpt><trkpt lat="42.301016972316305" lon="13.260022974038833"><ele>1135.0</ele><time>2026-05-02T17:13:40.998Z</time></trkpt><trkpt lat="42.30105415049392" lon="13.26021289207042"><ele>1134.25</ele><time>2026-05-02T17:13:41.998Z</time></trkpt><trkpt lat="42.30109099978917" lon="13.260392272108044"><ele>1133.5</ele><time>2026-05-02T17:13:42.998Z</time></trkpt><trkpt lat="42.301126810596735" lon="13.260566271168583"><ele>1132.75</ele><time>2026-05-02T17:13:43.998Z</time></trkpt><trkpt lat="42.30116395947317" lon="13.26072960743689"><ele>1132.0</ele><time>2026-05-02T17:13:44.998Z</time></trkpt><trkpt lat="42.30118489337619" lon="13.260874274444687"><ele>1129.4</ele><time>2026-05-02T17:13:45.998Z</time></trkpt><trkpt lat="42.301144393629805" lon="13.260997711945826"><ele>1126.8000000000002</ele><time>2026-05-02T17:13:46.998Z</time></trkpt><trkpt lat="42.3011021643011" lon="13.26110013048836"><ele>1124.2</ele><time>2026-05-02T17:13:47.998Z</time></trkpt><trkpt lat="42.30102105646371" lon="13.26115951738368"><ele>1121.6000000000001</ele><time>2026-05-02T17:13:48.998Z</time></trkpt><trkpt lat="42.30092498699013" lon="13.261243558781196"><ele>1119.0</ele><time>2026-05-02T17:13:49.998Z</time></trkpt><trkpt lat="42.30081843404097" lon="13.2613320592874"><ele>1119.0</ele><time>2026-05-02T17:13:50.998Z</time></trkpt><trkpt lat="42.300716068659845" lon="13.261401457021611"><ele>1119.0</ele><time>2026-05-02T17:13:51.998Z</time></trkpt><trkpt lat="42.30060244276587" lon="13.261449732214103"><ele>1119.0</ele><time>2026-05-02T17:13:52.998Z</time></trkpt><trkpt lat="42.300489506536344" lon="13.26148417440671"><ele>1119.0</ele><time>2026-05-02T17:13:53.998Z</time></trkpt><trkpt lat="42.300358367481586" lon="13.261516493891"><ele>1117.25</ele><time>2026-05-02T17:13:54.998Z</time></trkpt><trkpt lat="42.30028085303294" lon="13.261621157581807"><ele>1115.5</ele><time>2026-05-02T17:13:55.998Z</time></trkpt><trkpt lat="42.300250414564516" lon="13.261735246420262"><ele>1113.75</ele><time>2026-05-02T17:13:56.998Z</time></trkpt><trkpt lat="42.3001943237415" lon="13.261923898645549"><ele>1112.0</ele><time>2026-05-02T17:13:57.998Z</time></trkpt><trkpt lat="42.30016044929686" lon="13.262069984950553"><ele>1112.0</ele><time>2026-05-02T17:13:58.998Z</time></trkpt><trkpt lat="42.300116910984876" lon="13.262193650233128"><ele>1112.0</ele><time>2026-05-02T17:13:59.998Z</time></trkpt><trkpt lat="42.30004849932822" lon="13.262291767783887"><ele>1112.0</ele><time>2026-05-02T17:14:00.998Z</time></trkpt><trkpt lat="42.29993310394009" lon="13.26230406443855"><ele>1112.0</ele><time>2026-05-02T17:14:01.998Z</time></trkpt><trkpt lat="42.299824632835765" lon="13.262367536334168"><ele>1112.0</ele><time>2026-05-02T17:14:02.998Z</time></trkpt><trkpt lat="42.29971187272787" lon="13.26244293118113"><ele>1106.0</ele><time>2026-05-02T17:14:03.998Z</time></trkpt><trkpt lat="42.29962371717556" lon="13.262544787508741"><ele>1100.0</ele><time>2026-05-02T17:14:04.998Z</time></trkpt><trkpt lat="42.2995474610972" lon="13.26263111408535"><ele>1094.0</ele><time>2026-05-02T17:14:05.998Z</time></trkpt><trkpt lat="42.29946620817546" lon="13.262699557146899"><ele>1088.0</ele><time>2026-05-02T17:14:06.998Z</time></trkpt><trkpt lat="42.2993797755213" lon="13.262724231685839"><ele>1082.0</ele><time>2026-05-02T17:14:07.998Z</time></trkpt><trkpt lat="42.29930555708533" lon="13.262616841050713"><ele>1082.0</ele><time>2026-05-02T17:14:08.998Z</time></trkpt><trkpt lat="42.29922635359154" lon="13.262537048438825"><ele>1082.0</ele><time>2026-05-02T17:14:10Z</time></trkpt><trkpt lat="42.299190299500765" lon="13.262409703383344"><ele>1082.0</ele><time>2026-05-02T17:14:11Z</time></trkpt><trkpt lat="42.2991404971114" lon="13.262261675592436"><ele>1082.0</ele><time>2026-05-02T17:14:12Z</time></trkpt><trkpt lat="42.29910193789426" lon="13.262106241581769"><ele>1082.0</ele><time>2026-05-02T17:14:13Z</time></trkpt><trkpt lat="42.299053759757854" lon="13.261955507989155"><ele>1085.0</ele><time>2026-05-02T17:14:14Z</time></trkpt><trkpt lat="42.299020273580894" lon="13.26181157803326"><ele>1088.0</ele><time>2026-05-02T17:14:15Z</time></trkpt><trkpt lat="42.298989394142794" lon="13.261686026131175"><ele>1091.0</ele><time>2026-05-02T17:14:16Z</time></trkpt><trkpt lat="42.29895591435358" lon="13.261575628026325"><ele>1094.0</ele><time>2026-05-02T17:14:17Z</time></trkpt><trkpt lat="42.298905809829336" lon="13.261482240858784"><ele>1097.0</ele><time>2026-05-02T17:14:18Z</time></trkpt><trkpt lat="42.29882913424689" lon="13.261435533190452"><ele>1097.0</ele><time>2026-05-02T17:14:19Z</time></trkpt><trkpt lat="42.29872351675642" lon="13.261501576922164"><ele>1097.0</ele><time>2026-05-02T17:14:20Z</time></trkpt><trkpt lat="42.29864171606018" lon="13.26159200820716"><ele>1097.0</ele><time>2026-05-02T17:14:21Z</time></trkpt><trkpt lat="42.29857411006745" lon="13.261714606708676"><ele>1097.0</ele><time>2026-05-02T17:14:22Z</time></trkpt><trkpt lat="42.29847976995704" lon="13.261802126731517"><ele>1097.0</ele><time>2026-05-02T17:14:23Z</time></trkpt><trkpt lat="42.298385038459436" lon="13.261883122178531"><ele>1097.0</ele><time>2026-05-02T17:14:24Z</time></trkpt><trkpt lat="42.2982995643986" lon="13.261959206132616"><ele>1097.0</ele><time>2026-05-02T17:14:25Z</time></trkpt><trkpt lat="42.29819372783488" lon="13.2619587341755"><ele>1097.0</ele><time>2026-05-02T17:14:26Z</time></trkpt><trkpt lat="42.29809206119589" lon="13.262006782688546"><ele>1097.0</ele><time>2026-05-02T17:14:27Z</time></trkpt><trkpt lat="42.29799551143585" lon="13.262053455690278"><ele>1096.6</ele><time>2026-05-02T17:14:28Z</time></trkpt><trkpt lat="42.29791168198438" lon="13.262144530895227"><ele>1096.2</ele><time>2026-05-02T17:14:29Z</time></trkpt><trkpt lat="42.29785846852267" lon="13.26226339340959"><ele>1095.8</ele><time>2026-05-02T17:14:30Z</time></trkpt><trkpt lat="42.297842764566255" lon="13.262397275957635"><ele>1095.4</ele><time>2026-05-02T17:14:31Z</time></trkpt><trkpt lat="42.297859939566436" lon="13.262536486635593"><ele>1095.0</ele><time>2026-05-02T17:14:32Z</time></trkpt><trkpt lat="42.297874123137795" lon="13.262682301940886"><ele>1095.0</ele><time>2026-05-02T17:14:33Z</time></trkpt><trkpt lat="42.29783705110134" lon="13.262823682569973"><ele>1095.0</ele><time>2026-05-02T17:14:33.999Z</time></trkpt><trkpt lat="42.29779463554036" lon="13.262958207793066"><ele>1095.0</ele><time>2026-05-02T17:14:34.999Z</time></trkpt><trkpt lat="42.29774846615771" lon="13.263070462616717"><ele>1095.0</ele><time>2026-05-02T17:14:35.999Z</time></trkpt><trkpt lat="42.297688100373655" lon="13.263164078860031"><ele>1095.0</ele><time>2026-05-02T17:14:36.999Z</time></trkpt><trkpt lat="42.29762358637306" lon="13.263244845312505"><ele>1093.4</ele><time>2026-05-02T17:14:37.999Z</time></trkpt><trkpt lat="42.297522534177205" lon="13.263243485329625"><ele>1091.8</ele><time>2026-05-02T17:14:38.999Z</time></trkpt><trkpt lat="42.29741609182322" lon="13.263261877480303"><ele>1090.2</ele><time>2026-05-02T17:14:39.999Z</time></trkpt><trkpt lat="42.297304891547526" lon="13.263235264363416"><ele>1088.6</ele><time>2026-05-02T17:14:40.999Z</time></trkpt><trkpt lat="42.29720225571626" lon="13.263192596892267"><ele>1087.0</ele><time>2026-05-02T17:14:41.999Z</time></trkpt><trkpt lat="42.29710582924615" lon="13.26315872359521"><ele>1087.0</ele><time>2026-05-02T17:14:42.999Z</time></trkpt><trkpt lat="42.29700543385181" lon="13.263162485753492"><ele>1087.0</ele><time>2026-05-02T17:14:43.999Z</time></trkpt><trkpt lat="42.29691611092448" lon="13.26322528434418"><ele>1087.0</ele><time>2026-05-02T17:14:44.999Z</time></trkpt><trkpt lat="42.296832935331835" lon="13.263332014071683"><ele>1087.0</ele><time>2026-05-02T17:14:45.999Z</time></trkpt><trkpt lat="42.29677442613592" lon="13.263452628440602"><ele>1087.0</ele><time>2026-05-02T17:14:46.999Z</time></trkpt><trkpt lat="42.29673466466732" lon="13.263585114292214"><ele>1087.0</ele><time>2026-05-02T17:14:47.999Z</time></trkpt><trkpt lat="42.29672717196794" lon="13.263732100197801"><ele>1087.0</ele><time>2026-05-02T17:14:48.999Z</time></trkpt><trkpt lat="42.296746504133665" lon="13.263885822925957"><ele>1087.0</ele><time>2026-05-02T17:14:49.999Z</time></trkpt><trkpt lat="42.296768987484576" lon="13.264023547497438"><ele>1087.0</ele><time>2026-05-02T17:14:50.999Z</time></trkpt><trkpt lat="42.29676579612502" lon="13.264155795296912"><ele>1087.0</ele><time>2026-05-02T17:14:51.999Z</time></trkpt><trkpt lat="42.296705991433" lon="13.2642680671975"><ele>1083.8</ele><time>2026-05-02T17:14:52.999Z</time></trkpt><trkpt lat="42.2966274380123" lon="13.26436237620899"><ele>1080.6</ele><time>2026-05-02T17:14:53.999Z</time></trkpt><trkpt lat="42.296551208580965" lon="13.264474534386803"><ele>1077.3999999999999</ele><time>2026-05-02T17:14:54.999Z</time></trkpt><trkpt lat="42.29646588157538" lon="13.26456353424289"><ele>1074.2</ele><time>2026-05-02T17:14:55.999Z</time></trkpt><trkpt lat="42.29645473529731" lon="13.264716853457106"><ele>1071.0</ele><time>2026-05-02T17:14:56.999Z</time></trkpt><trkpt lat="42.2964652169515" lon="13.26485627197323"><ele>1068.5</ele><time>2026-05-02T17:14:57.999Z</time></trkpt><trkpt lat="42.296476711469644" lon="13.264983531692685"><ele>1066.0</ele><time>2026-05-02T17:14:58.999Z</time></trkpt><trkpt lat="42.29647745642124" lon="13.265103434851095"><ele>1063.5</ele><time>2026-05-02T17:14:59.999Z</time></trkpt><trkpt lat="42.29644310861024" lon="13.26519965351137"><ele>1061.0</ele><time>2026-05-02T17:15:00.999Z</time></trkpt><trkpt lat="42.29641845580811" lon="13.265289434604782"><ele>1058.5</ele><time>2026-05-02T17:15:01.999Z</time></trkpt><trkpt lat="42.29646735311275" lon="13.26542675122942"><ele>1056.0</ele><time>2026-05-02T17:15:02.999Z</time></trkpt><trkpt lat="42.296424181669025" lon="13.265538921319576"><ele>1059.3333333333333</ele><time>2026-05-02T17:15:03.999Z</time></trkpt><trkpt lat="42.29640525551895" lon="13.265677873279902"><ele>1062.6666666666667</ele><time>2026-05-02T17:15:04.999Z</time></trkpt><trkpt lat="42.29636121790174" lon="13.265798216869117"><ele>1066.0</ele><time>2026-05-02T17:15:05.999Z</time></trkpt><trkpt lat="42.29632456441451" lon="13.265911196205503"><ele>1069.3333333333335</ele><time>2026-05-02T17:15:06.999Z</time></trkpt><trkpt lat="42.296300676968556" lon="13.266000860100826"><ele>1072.6666666666667</ele><time>2026-05-02T17:15:07.999Z</time></trkpt><trkpt lat="42.29629193507107" lon="13.26608526213939"><ele>1076.0</ele><time>2026-05-02T17:15:08.999Z</time></trkpt><trkpt lat="42.29636860387965" lon="13.266194772989522"><ele>1070.0</ele><time>2026-05-02T17:15:10.999Z</time></trkpt><trkpt lat="42.2964657214425" lon="13.266118539532133"><ele>1064.0</ele><time>2026-05-02T17:15:11.999Z</time></trkpt><trkpt lat="42.29655840512631" lon="13.266046513236846"><ele>1058.0</ele><time>2026-05-02T17:15:12.999Z</time></trkpt><trkpt lat="42.296665474755564" lon="13.266008201863814"><ele>1052.0</ele><time>2026-05-02T17:15:13.999Z</time></trkpt><trkpt lat="42.2967722794187" lon="13.26596848136514"><ele>1046.0</ele><time>2026-05-02T17:15:14.999Z</time></trkpt><trkpt lat="42.29686428781874" lon="13.265951864593692"><ele>1046.0</ele><time>2026-05-02T17:15:15.999Z</time></trkpt><trkpt lat="42.29695242019219" lon="13.265948480385143"><ele>1046.0</ele><time>2026-05-02T17:15:16.999Z</time></trkpt><trkpt lat="42.29703171216163" lon="13.265942434211578"><ele>1046.0</ele><time>2026-05-02T17:15:17.999Z</time></trkpt><trkpt lat="42.29709333155373" lon="13.266028364880716"><ele>1046.0</ele><time>2026-05-02T17:15:18.999Z</time></trkpt><trkpt lat="42.29715374635178" lon="13.266108951405851"><ele>1046.0</ele><time>2026-05-02T17:15:19.999Z</time></trkpt><trkpt lat="42.29719960820473" lon="13.266204294821437"><ele>1046.0</ele><time>2026-05-02T17:15:20.999Z</time></trkpt><trkpt lat="42.297218128523525" lon="13.266298171759386"><ele>1046.0</ele><time>2026-05-02T17:15:21.999Z</time></trkpt><trkpt lat="42.29717313301085" lon="13.266378455539162"><ele>1046.0</ele><time>2026-05-02T17:15:22.999Z</time></trkpt><trkpt lat="42.29708878299577" lon="13.266410078902217"><ele>1046.0</ele><time>2026-05-02T17:15:23.999Z</time></trkpt><trkpt lat="42.29699328424868" lon="13.266386021559278"><ele>1046.0</ele><time>2026-05-02T17:15:24.999Z</time></trkpt><trkpt lat="42.29690439529996" lon="13.266435119366994"><ele>1046.0</ele><time>2026-05-02T17:15:25.999Z</time></trkpt><trkpt lat="42.296816496153724" lon="13.266476334728159"><ele>1046.0</ele><time>2026-05-02T17:15:26.999Z</time></trkpt><trkpt lat="42.29677318059683" lon="13.266618431194171"><ele>1043.0</ele><time>2026-05-02T17:15:27.999Z</time></trkpt><trkpt lat="42.29672411981603" lon="13.266737186400878"><ele>1040.0</ele><time>2026-05-02T17:15:28.999Z</time></trkpt><trkpt lat="42.296679943786835" lon="13.266862921598033"><ele>1037.0</ele><time>2026-05-02T17:15:29.999Z</time></trkpt><trkpt lat="42.296629260860676" lon="13.266994261595269"><ele>1034.0</ele><time>2026-05-02T17:15:30.999Z</time></trkpt><trkpt lat="42.29657467619892" lon="13.267127123887411"><ele>1031.0</ele><time>2026-05-02T17:15:31.999Z</time></trkpt><trkpt lat="42.2965178774409" lon="13.267258760133046"><ele>1033.2</ele><time>2026-05-02T17:15:32.999Z</time></trkpt><trkpt lat="42.296470131112905" lon="13.26738783639011"><ele>1035.3999999999999</ele><time>2026-05-02T17:15:33.999Z</time></trkpt><trkpt lat="42.29642625276034" lon="13.267524088539712"><ele>1037.6</ele><time>2026-05-02T17:15:34.999Z</time></trkpt><trkpt lat="42.29637307015841" lon="13.267650338454066"><ele>1039.8</ele><time>2026-05-02T17:15:35.999Z</time></trkpt><trkpt lat="42.29634311683211" lon="13.26779662128343"><ele>1042.0</ele><time>2026-05-02T17:15:36.999Z</time></trkpt><trkpt lat="42.296321489724875" lon="13.267948538194426"><ele>1042.0</ele><time>2026-05-02T17:15:37.999Z</time></trkpt><trkpt lat="42.296327121477894" lon="13.268098523491238"><ele>1042.0</ele><time>2026-05-02T17:15:38.999Z</time></trkpt><trkpt lat="42.296313243986624" lon="13.26824965891643"><ele>1042.0</ele><time>2026-05-02T17:15:39.999Z</time></trkpt><trkpt lat="42.29629772931444" lon="13.268400044213644"><ele>1042.0</ele><time>2026-05-02T17:15:40.999Z</time></trkpt><trkpt lat="42.29627406413953" lon="13.26856074569532"><ele>1037.4</ele><time>2026-05-02T17:15:41.998Z</time></trkpt><trkpt lat="42.29623794194616" lon="13.268709732769729"><ele>1032.8000000000002</ele><time>2026-05-02T17:15:42.998Z</time></trkpt><trkpt lat="42.29618772961242" lon="13.268850300352351"><ele>1028.2</ele><time>2026-05-02T17:15:43.998Z</time></trkpt><trkpt lat="42.29613573779625" lon="13.268977827749561"><ele>1023.6</ele><time>2026-05-02T17:15:44.998Z</time></trkpt><trkpt lat="42.29608252504553" lon="13.26910044069614"><ele>1019.0</ele><time>2026-05-02T17:15:45.998Z</time></trkpt><trkpt lat="42.296037667885855" lon="13.269200547314625"><ele>1015.6</ele><time>2026-05-02T17:15:46.998Z</time></trkpt><trkpt lat="42.29599306696191" lon="13.269291293058174"><ele>1012.2</ele><time>2026-05-02T17:15:47.998Z</time></trkpt><trkpt lat="42.295953894921205" lon="13.269368904672582"><ele>1008.8000000000001</ele><time>2026-05-02T17:15:48.998Z</time></trkpt><trkpt lat="42.295931569139036" lon="13.269524909343524"><ele>1005.4000000000001</ele><time>2026-05-02T17:15:50.998Z</time></trkpt><trkpt lat="42.29604558857839" lon="13.269632324642146"><ele>1002.0</ele><time>2026-05-02T17:15:52.998Z</time></trkpt><trkpt lat="42.29614030115072" lon="13.269547245803484"><ele>1002.0</ele><time>2026-05-02T17:15:53.998Z</time></trkpt><trkpt lat="42.29621873601514" lon="13.269464709738958"><ele>1002.0</ele><time>2026-05-02T17:15:54.998Z</time></trkpt><trkpt lat="42.29630369142175" lon="13.269369811073009"><ele>1002.0</ele><time>2026-05-02T17:15:55.998Z</time></trkpt><trkpt lat="42.2964039319553" lon="13.269303311609834"><ele>1002.0</ele><time>2026-05-02T17:15:56.998Z</time></trkpt><trkpt lat="42.29650449368913" lon="13.269245650317808"><ele>1002.0</ele><time>2026-05-02T17:15:57.998Z</time></trkpt><trkpt lat="42.29659952301454" lon="13.269194031186336"><ele>998.3333333333334</ele><time>2026-05-02T17:15:58.998Z</time></trkpt><trkpt lat="42.296689624722205" lon="13.269182790544575"><ele>994.6666666666667</ele><time>2026-05-02T17:15:59.998Z</time></trkpt><trkpt lat="42.29676137781881" lon="13.269149203710844"><ele>991.0</ele><time>2026-05-02T17:16:00.998Z</time></trkpt><trkpt lat="42.296826390858094" lon="13.269180090721912"><ele>987.3333333333334</ele><time>2026-05-02T17:16:01.998Z</time></trkpt><trkpt lat="42.29686722565083" lon="13.269266351002704"><ele>983.6666666666667</ele><time>2026-05-02T17:16:02.998Z</time></trkpt><trkpt lat="42.29689185525178" lon="13.269393238445113"><ele>980.0</ele><time>2026-05-02T17:16:03.998Z</time></trkpt><trkpt lat="42.29691369645258" lon="13.269532692287946"><ele>980.0</ele><time>2026-05-02T17:16:04.998Z</time></trkpt><trkpt lat="42.29693947799504" lon="13.269680334713607"><ele>980.0</ele><time>2026-05-02T17:16:05.998Z</time></trkpt><trkpt lat="42.296968613907126" lon="13.269832414848207"><ele>980.0</ele><time>2026-05-02T17:16:06.998Z</time></trkpt><trkpt lat="42.29696839106383" lon="13.269985851179777"><ele>980.0</ele><time>2026-05-02T17:16:07.998Z</time></trkpt><trkpt lat="42.29699629697542" lon="13.270143362008458"><ele>978.75</ele><time>2026-05-02T17:16:08.998Z</time></trkpt><trkpt lat="42.296990766568356" lon="13.270313440087936"><ele>977.5</ele><time>2026-05-02T17:16:09.998Z</time></trkpt><trkpt lat="42.29701382072048" lon="13.270475663271892"><ele>976.25</ele><time>2026-05-02T17:16:10.998Z</time></trkpt><trkpt lat="42.29705405785592" lon="13.270582583411251"><ele>975.0</ele><time>2026-05-02T17:16:11.998Z</time></trkpt><trkpt lat="42.297088307732984" lon="13.2707309681041"><ele>972.8</ele><time>2026-05-02T17:16:12.998Z</time></trkpt><trkpt lat="42.29713279846636" lon="13.270869750584538"><ele>970.6</ele><time>2026-05-02T17:16:13.998Z</time></trkpt><trkpt lat="42.297178671342266" lon="13.27100474112488"><ele>968.4000000000001</ele><time>2026-05-02T17:16:14.998Z</time></trkpt><trkpt lat="42.297228745540885" lon="13.271136272576928"><ele>966.2</ele><time>2026-05-02T17:16:16Z</time></trkpt><trkpt lat="42.297272295604884" lon="13.271271776230634"><ele>964.0</ele><time>2026-05-02T17:16:17Z</time></trkpt><trkpt lat="42.29733332304797" lon="13.271398599566126"><ele>960.8000000000001</ele><time>2026-05-02T17:16:18Z</time></trkpt><trkpt lat="42.297407778147296" lon="13.271514175887013"><ele>957.6000000000001</ele><time>2026-05-02T17:16:19Z</time></trkpt><trkpt lat="42.29749366682626" lon="13.271615487144519"><ele>954.4</ele><time>2026-05-02T17:16:20Z</time></trkpt><trkpt lat="42.297586833283034" lon="13.271709319798838"><ele>951.2</ele><time>2026-05-02T17:16:21Z</time></trkpt><trkpt lat="42.29766961877884" lon="13.271792958306156"><ele>948.0</ele><time>2026-05-02T17:16:22Z</time></trkpt><trkpt lat="42.297745437984624" lon="13.271872789684588"><ele>948.0</ele><time>2026-05-02T17:16:23Z</time></trkpt><trkpt lat="42.29781886878265" lon="13.271926354879382"><ele>948.0</ele><time>2026-05-02T17:16:24Z</time></trkpt><trkpt lat="42.29789117048395" lon="13.27194466848444"><ele>948.0</ele><time>2026-05-02T17:16:25Z</time></trkpt><trkpt lat="42.29796639313377" lon="13.271904838706172"><ele>948.0</ele><time>2026-05-02T17:16:26Z</time></trkpt><trkpt lat="42.29802475679248" lon="13.27180403386485"><ele>948.0</ele><time>2026-05-02T17:16:27Z</time></trkpt><trkpt lat="42.29807101007959" lon="13.271676973485723"><ele>948.0</ele><time>2026-05-02T17:16:28Z</time></trkpt><trkpt lat="42.298105345613344" lon="13.271542445285217"><ele>944.8333333333334</ele><time>2026-05-02T17:16:29Z</time></trkpt><trkpt lat="42.29814013039843" lon="13.271428244770162"><ele>941.6666666666667</ele><time>2026-05-02T17:16:30Z</time></trkpt><trkpt lat="42.29817048517403" lon="13.271335642511007"><ele>938.5</ele><time>2026-05-02T17:16:31Z</time></trkpt><trkpt lat="42.29820910055297" lon="13.271267338047505"><ele>935.3333333333334</ele><time>2026-05-02T17:16:32Z</time></trkpt><trkpt lat="42.298270542139704" lon="13.271237516524968"><ele>932.1666666666667</ele><time>2026-05-02T17:16:33Z</time></trkpt><trkpt lat="42.29835088401903" lon="13.271206149215768"><ele>929.0</ele><time>2026-05-02T17:16:34Z</time></trkpt><trkpt lat="42.2984489275954" lon="13.271329577354177"><ele>929.25</ele><time>2026-05-02T17:16:35Z</time></trkpt><trkpt lat="42.29849657948492" lon="13.27150875424096"><ele>929.5</ele><time>2026-05-02T17:16:36Z</time></trkpt><trkpt lat="42.298564977350374" lon="13.271655741906146"><ele>929.75</ele><time>2026-05-02T17:16:37Z</time></trkpt><trkpt lat="42.298630611899995" lon="13.271798232810637"><ele>930.0</ele><time>2026-05-02T17:16:38Z</time></trkpt><trkpt lat="42.29869277859181" lon="13.271935598910769"><ele>930.0</ele><time>2026-05-02T17:16:39Z</time></trkpt><trkpt lat="42.298765875621406" lon="13.272050963784972"><ele>930.0</ele><time>2026-05-02T17:16:39.999Z</time></trkpt><trkpt lat="42.29882976445222" lon="13.272166928228511"><ele>930.0</ele><time>2026-05-02T17:16:40.999Z</time></trkpt><trkpt lat="42.29890699380018" lon="13.272251630314072"><ele>930.0</ele><time>2026-05-02T17:16:41.999Z</time></trkpt><trkpt lat="42.298997688919876" lon="13.272300253589068"><ele>930.0</ele><time>2026-05-02T17:16:42.999Z</time></trkpt><trkpt lat="42.29909824611275" lon="13.272325256694566"><ele>926.6</ele><time>2026-05-02T17:16:43.999Z</time></trkpt><trkpt lat="42.29921048275203" lon="13.272328561832028"><ele>923.2</ele><time>2026-05-02T17:16:44.999Z</time></trkpt><trkpt lat="42.299320134673025" lon="13.272324697600885"><ele>919.8</ele><time>2026-05-02T17:16:45.999Z</time></trkpt><trkpt lat="42.29943187581219" lon="13.272333802913593"><ele>916.4</ele><time>2026-05-02T17:16:46.999Z</time></trkpt><trkpt lat="42.29953806081881" lon="13.272390459528085"><ele>913.0</ele><time>2026-05-02T17:16:47.999Z</time></trkpt><trkpt lat="42.299646157316936" lon="13.27243278090188"><ele>910.0</ele><time>2026-05-02T17:16:48.999Z</time></trkpt><trkpt lat="42.29975615165464" lon="13.27245379523451"><ele>907.0</ele><time>2026-05-02T17:16:49.999Z</time></trkpt><trkpt lat="42.29986529783777" lon="13.272499261778034"><ele>904.0</ele><time>2026-05-02T17:16:50.999Z</time></trkpt><trkpt lat="42.299964245169896" lon="13.272563984974461"><ele>901.0</ele><time>2026-05-02T17:16:51.999Z</time></trkpt><trkpt lat="42.300059884095496" lon="13.272608575653102"><ele>898.0</ele><time>2026-05-02T17:16:52.999Z</time></trkpt><trkpt lat="42.300148583438535" lon="13.272632680688401"><ele>898.0</ele><time>2026-05-02T17:16:53.999Z</time></trkpt><trkpt lat="42.30022012463953" lon="13.272677774161135"><ele>898.0</ele><time>2026-05-02T17:16:54.999Z</time></trkpt><trkpt lat="42.30026206425823" lon="13.272744171824206"><ele>898.0</ele><time>2026-05-02T17:16:55.999Z</time></trkpt><trkpt lat="42.300321867510384" lon="13.272875207586138"><ele>898.0</ele><time>2026-05-02T17:16:57.999Z</time></trkpt><trkpt lat="42.30025055406606" lon="13.273020883532554"><ele>898.0</ele><time>2026-05-02T17:16:59.999Z</time></trkpt><trkpt lat="42.30022858159956" lon="13.27311698102979"><ele>896.8</ele><time>2026-05-02T17:17:00.999Z</time></trkpt><trkpt lat="42.30024209682503" lon="13.273225234785569"><ele>895.5999999999999</ele><time>2026-05-02T17:17:01.999Z</time></trkpt><trkpt lat="42.30027458249041" lon="13.273323488867987"><ele>894.4000000000001</ele><time>2026-05-02T17:17:02.999Z</time></trkpt><trkpt lat="42.300335958235515" lon="13.273431559872845"><ele>893.2</ele><time>2026-05-02T17:17:03.999Z</time></trkpt><trkpt lat="42.30038908106434" lon="13.273560695516496"><ele>892.0</ele><time>2026-05-02T17:17:04.999Z</time></trkpt><trkpt lat="42.30044258017767" lon="13.273693922908569"><ele>892.0</ele><time>2026-05-02T17:17:05.999Z</time></trkpt><trkpt lat="42.30049430620849" lon="13.273835720698886"><ele>892.0</ele><time>2026-05-02T17:17:06.999Z</time></trkpt><trkpt lat="42.300544732260825" lon="13.27397758413059"><ele>892.0</ele><time>2026-05-02T17:17:07.999Z</time></trkpt><trkpt lat="42.30059773155511" lon="13.274114625475045"><ele>892.0</ele><time>2026-05-02T17:17:08.999Z</time></trkpt><trkpt lat="42.300647097366344" lon="13.274251841872507"><ele>890.2</ele><time>2026-05-02T17:17:09.999Z</time></trkpt><trkpt lat="42.300696814885065" lon="13.274383342211994"><ele>888.4000000000001</ele><time>2026-05-02T17:17:10.999Z</time></trkpt><trkpt lat="42.30074681155437" lon="13.274515245568887"><ele>886.5999999999999</ele><time>2026-05-02T17:17:11.999Z</time></trkpt><trkpt lat="42.3008021831024" lon="13.274635201467708"><ele>884.8</ele><time>2026-05-02T17:17:12.999Z</time></trkpt><trkpt lat="42.300851914147195" lon="13.274757254095935"><ele>883.0</ele><time>2026-05-02T17:17:13.999Z</time></trkpt><trkpt lat="42.30090537709522" lon="13.274865084512788"><ele>880.4999999999999</ele><time>2026-05-02T17:17:14.999Z</time></trkpt><trkpt lat="42.30096000770347" lon="13.2749560235142"><ele>878.0</ele><time>2026-05-02T17:17:15.999Z</time></trkpt><trkpt lat="42.30101662776982" lon="13.275037704067106"><ele>875.5</ele><time>2026-05-02T17:17:16.999Z</time></trkpt><trkpt lat="42.301073046778605" lon="13.275116641620436"><ele>873.0</ele><time>2026-05-02T17:17:17.999Z</time></trkpt><trkpt lat="42.30110757642116" lon="13.275217113051538"><ele>870.4999999999999</ele><time>2026-05-02T17:17:18.999Z</time></trkpt><trkpt lat="42.301154155141546" lon="13.27531204543068"><ele>868.0</ele><time>2026-05-02T17:17:19.999Z</time></trkpt><trkpt lat="42.30119677723884" lon="13.275406370627104"><ele>868.0</ele><time>2026-05-02T17:17:20.999Z</time></trkpt><trkpt lat="42.30123268425877" lon="13.275485834970409"><ele>868.0</ele><time>2026-05-02T17:17:21.999Z</time></trkpt><trkpt lat="42.301307786434265" lon="13.275615182066526"><ele>868.0</ele><time>2026-05-02T17:17:23.999Z</time></trkpt><trkpt lat="42.301387419841554" lon="13.27573749074119"><ele>868.0</ele><time>2026-05-02T17:17:25.999Z</time></trkpt><trkpt lat="42.30143923239877" lon="13.275831779746364"><ele>868.0</ele><time>2026-05-02T17:17:27.999Z</time></trkpt><trkpt lat="42.301514302911976" lon="13.275836445896367"><ele>866.1666666666666</ele><time>2026-05-02T17:17:29.999Z</time></trkpt><trkpt lat="42.30158869108236" lon="13.27569626492903"><ele>864.3333333333333</ele><time>2026-05-02T17:17:31.999Z</time></trkpt><trkpt lat="42.3016319720399" lon="13.275604081023626"><ele>862.5</ele><time>2026-05-02T17:17:32.999Z</time></trkpt><trkpt lat="42.30169303279791" lon="13.275518920938719"><ele>860.6666666666667</ele><time>2026-05-02T17:17:33.999Z</time></trkpt><trkpt lat="42.30173223878055" lon="13.275426094509957"><ele>858.8333333333334</ele><time>2026-05-02T17:17:34.999Z</time></trkpt><trkpt lat="42.301766628147966" lon="13.275342953556464"><ele>857.0</ele><time>2026-05-02T17:17:35.999Z</time></trkpt><trkpt lat="42.3018194673036" lon="13.27522318635999"><ele>857.0</ele><time>2026-05-02T17:17:37.999Z</time></trkpt><trkpt lat="42.30191672695601" lon="13.275280048000967"><ele>857.0</ele><time>2026-05-02T17:17:40.999Z</time></trkpt><trkpt lat="42.30192375968681" lon="13.275399867380816"><ele>857.0</ele><time>2026-05-02T17:17:41.999Z</time></trkpt><trkpt lat="42.30197821206742" lon="13.275506383684126"><ele>857.0</ele><time>2026-05-02T17:17:42.999Z</time></trkpt><trkpt lat="42.30202477978798" lon="13.27565083797678"><ele>857.0</ele><time>2026-05-02T17:17:43.999Z</time></trkpt><trkpt lat="42.30206342567734" lon="13.275797882966458"><ele>856.0000000000001</ele><time>2026-05-02T17:17:44.999Z</time></trkpt><trkpt lat="42.30210596807871" lon="13.27592833645566"><ele>855.0</ele><time>2026-05-02T17:17:45.999Z</time></trkpt><trkpt lat="42.302140822728745" lon="13.276043724163411"><ele>854.0</ele><time>2026-05-02T17:17:46.999Z</time></trkpt><trkpt lat="42.30216191317997" lon="13.276147358582886"><ele>853.0</ele><time>2026-05-02T17:17:47.998Z</time></trkpt><trkpt lat="42.30219121031112" lon="13.276242057335645"><ele>852.0000000000001</ele><time>2026-05-02T17:17:48.998Z</time></trkpt><trkpt lat="42.30219796175406" lon="13.27633094045052"><ele>851.0</ele><time>2026-05-02T17:17:49.998Z</time></trkpt><trkpt lat="42.30221032645183" lon="13.27649122099814"><ele>850.3333333333334</ele><time>2026-05-02T17:17:51.998Z</time></trkpt><trkpt lat="42.30222302044256" lon="13.276633588615946"><ele>849.6666666666667</ele><time>2026-05-02T17:17:53.998Z</time></trkpt><trkpt lat="42.302194327635355" lon="13.276729933638515"><ele>849.0</ele><time>2026-05-02T17:17:55.998Z</time></trkpt><trkpt lat="42.30214326417319" lon="13.276857887459494"><ele>848.3333333333333</ele><time>2026-05-02T17:17:57.998Z</time></trkpt><trkpt lat="42.302130799243095" lon="13.276943405714874"><ele>847.6666666666666</ele><time>2026-05-02T17:17:58.998Z</time></trkpt><trkpt lat="42.30208664841206" lon="13.277018542519953"><ele>847.0</ele><time>2026-05-02T17:17:59.998Z</time></trkpt><trkpt lat="42.30206344126685" lon="13.277107193512647"><ele>847.0</ele><time>2026-05-02T17:18:00.998Z</time></trkpt><trkpt lat="42.30204754681389" lon="13.277196241441196"><ele>847.0</ele><time>2026-05-02T17:18:01.998Z</time></trkpt><trkpt lat="42.30203584287535" lon="13.27728652559847"><ele>847.0</ele><time>2026-05-02T17:18:02.998Z</time></trkpt><trkpt lat="42.302049902150564" lon="13.277379657910814"><ele>847.0</ele><time>2026-05-02T17:18:03.998Z</time></trkpt><trkpt lat="42.302041929153134" lon="13.277475085575128"><ele>847.0</ele><time>2026-05-02T17:18:04.998Z</time></trkpt><trkpt lat="42.30206185820988" lon="13.277571159669874"><ele>847.0</ele><time>2026-05-02T17:18:05.998Z</time></trkpt><trkpt lat="42.30208087807842" lon="13.277659143741039"><ele>847.0</ele><time>2026-05-02T17:18:06.998Z</time></trkpt><trkpt lat="42.302128179937604" lon="13.277738332363382"><ele>845.3333333333333</ele><time>2026-05-02T17:18:07.998Z</time></trkpt><trkpt lat="42.3021705898854" lon="13.277807930519986"><ele>843.6666666666666</ele><time>2026-05-02T17:18:08.998Z</time></trkpt><trkpt lat="42.30221764107531" lon="13.277875179244505"><ele>842.0</ele><time>2026-05-02T17:18:09.998Z</time></trkpt><trkpt lat="42.30228916571953" lon="13.27796104676019"><ele>840.3333333333333</ele><time>2026-05-02T17:18:11.998Z</time></trkpt><trkpt lat="42.30232499349868" lon="13.278034672964457"><ele>838.6666666666666</ele><time>2026-05-02T17:18:14.998Z</time></trkpt><trkpt lat="42.30225833796161" lon="13.278095818931941"><ele>837.0</ele><time>2026-05-02T17:18:15.998Z</time></trkpt><trkpt lat="42.302227419455164" lon="13.278196076766712"><ele>835.2</ele><time>2026-05-02T17:18:16.998Z</time></trkpt><trkpt lat="42.302167477727274" lon="13.278284836207472"><ele>833.4000000000001</ele><time>2026-05-02T17:18:17.998Z</time></trkpt><trkpt lat="42.30207709402206" lon="13.278340957914466"><ele>831.5999999999999</ele><time>2026-05-02T17:18:18.998Z</time></trkpt><trkpt lat="42.301975364471105" lon="13.278360054166109"><ele>829.8</ele><time>2026-05-02T17:18:19.998Z</time></trkpt><trkpt lat="42.301871649489605" lon="13.27834608041348"><ele>828.0</ele><time>2026-05-02T17:18:21Z</time></trkpt><trkpt lat="42.30177364763111" lon="13.278334212194178"><ele>828.0</ele><time>2026-05-02T17:18:22Z</time></trkpt><trkpt lat="42.30167848608284" lon="13.278303001257244"><ele>828.0</ele><time>2026-05-02T17:18:23Z</time></trkpt><trkpt lat="42.30160018571862" lon="13.278234013098546"><ele>828.0</ele><time>2026-05-02T17:18:24Z</time></trkpt><trkpt lat="42.301536630670334" lon="13.278130647827536"><ele>828.0</ele><time>2026-05-02T17:18:25Z</time></trkpt><trkpt lat="42.30148091013283" lon="13.278011890526333"><ele>828.0</ele><time>2026-05-02T17:18:26Z</time></trkpt><trkpt lat="42.30142579172673" lon="13.277887887558734"><ele>827.25</ele><time>2026-05-02T17:18:27Z</time></trkpt><trkpt lat="42.30135509295841" lon="13.277767509469774"><ele>826.5</ele><time>2026-05-02T17:18:28Z</time></trkpt><trkpt lat="42.30126680025315" lon="13.277674506633769"><ele>825.75</ele><time>2026-05-02T17:18:29Z</time></trkpt><trkpt lat="42.3011510983439" lon="13.277606159282007"><ele>825.0</ele><time>2026-05-02T17:18:30Z</time></trkpt><trkpt lat="42.301025037743266" lon="13.277550373801558"><ele>825.0</ele><time>2026-05-02T17:18:31Z</time></trkpt><trkpt lat="42.30091063007652" lon="13.277489723826344"><ele>825.0</ele><time>2026-05-02T17:18:32Z</time></trkpt><trkpt lat="42.30080205757449" lon="13.277454769019805"><ele>825.0</ele><time>2026-05-02T17:18:33Z</time></trkpt><trkpt lat="42.30070622131417" lon="13.277444015384708"><ele>825.0</ele><time>2026-05-02T17:18:34Z</time></trkpt><trkpt lat="42.30060189464376" lon="13.27746106439012"><ele>825.0</ele><time>2026-05-02T17:18:35Z</time></trkpt><trkpt lat="42.30049147825932" lon="13.27751111674134"><ele>826.0</ele><time>2026-05-02T17:18:36Z</time></trkpt><trkpt lat="42.3003792403663" lon="13.27756818842291"><ele>827.0</ele><time>2026-05-02T17:18:37Z</time></trkpt><trkpt lat="42.300271138659966" lon="13.277606721519858"><ele>828.0</ele><time>2026-05-02T17:18:38Z</time></trkpt><trkpt lat="42.30016225517962" lon="13.277629909387967"><ele>829.0</ele><time>2026-05-02T17:18:39Z</time></trkpt><trkpt lat="42.300045542417884" lon="13.277631945055232"><ele>829.0</ele><time>2026-05-02T17:18:40Z</time></trkpt><trkpt lat="42.299924401445935" lon="13.27762713491051"><ele>829.0</ele><time>2026-05-02T17:18:41Z</time></trkpt><trkpt lat="42.29979991069059" lon="13.277619439228221"><ele>829.0</ele><time>2026-05-02T17:18:42Z</time></trkpt><trkpt lat="42.29967174039201" lon="13.27760626186077"><ele>829.0</ele><time>2026-05-02T17:18:43Z</time></trkpt><trkpt lat="42.29954156784049" lon="13.277605131175306"><ele>828.5</ele><time>2026-05-02T17:18:44Z</time></trkpt><trkpt lat="42.29941030741964" lon="13.277602908058844"><ele>828.0</ele><time>2026-05-02T17:18:45Z</time></trkpt><trkpt lat="42.29928267869123" lon="13.277608419277284"><ele>827.5</ele><time>2026-05-02T17:18:45.999Z</time></trkpt><trkpt lat="42.29915879385145" lon="13.277630115215473"><ele>827.0</ele><time>2026-05-02T17:18:46.999Z</time></trkpt><trkpt lat="42.29905001177395" lon="13.27769518896603"><ele>827.0</ele><time>2026-05-02T17:18:47.999Z</time></trkpt><trkpt lat="42.29896104256476" lon="13.27779147739484"><ele>827.0</ele><time>2026-05-02T17:18:48.999Z</time></trkpt><trkpt lat="42.298897066518265" lon="13.27790344701575"><ele>827.0</ele><time>2026-05-02T17:18:49.999Z</time></trkpt><trkpt lat="42.29886154236607" lon="13.278045829723471"><ele>827.0</ele><time>2026-05-02T17:18:50.999Z</time></trkpt><trkpt lat="42.298835722543316" lon="13.278197834350546"><ele>827.0</ele><time>2026-05-02T17:18:51.999Z</time></trkpt><trkpt lat="42.29880490650616" lon="13.278322275284253"><ele>828.5</ele><time>2026-05-02T17:18:52.999Z</time></trkpt><trkpt lat="42.29874854900999" lon="13.278427336633241"><ele>830.0</ele><time>2026-05-02T17:18:53.999Z</time></trkpt><trkpt lat="42.29866223540872" lon="13.278514962502916"><ele>831.5</ele><time>2026-05-02T17:18:54.999Z</time></trkpt><trkpt lat="42.298546329974194" lon="13.278561048370774"><ele>833.0</ele><time>2026-05-02T17:18:55.999Z</time></trkpt><trkpt lat="42.29843443780112" lon="13.278644935858862"><ele>833.0</ele><time>2026-05-02T17:18:56.999Z</time></trkpt><trkpt lat="42.29831359258487" lon="13.278704848818652"><ele>833.0</ele><time>2026-05-02T17:18:57.999Z</time></trkpt><trkpt lat="42.29819556744842" lon="13.278770475687205"><ele>833.0</ele><time>2026-05-02T17:18:58.999Z</time></trkpt><trkpt lat="42.298082338157705" lon="13.27886281183367"><ele>833.0</ele><time>2026-05-02T17:18:59.999Z</time></trkpt><trkpt lat="42.297974895106364" lon="13.278984455970408"><ele>835.75</ele><time>2026-05-02T17:19:00.999Z</time></trkpt><trkpt lat="42.297885069267984" lon="13.27912408177661"><ele>838.5</ele><time>2026-05-02T17:19:01.999Z</time></trkpt><trkpt lat="42.297802653046524" lon="13.279270519413354"><ele>841.25</ele><time>2026-05-02T17:19:02.999Z</time></trkpt><trkpt lat="42.29772486410646" lon="13.279409927907363"><ele>844.0</ele><time>2026-05-02T17:19:03.999Z</time></trkpt><trkpt lat="42.29766227276248" lon="13.279539117647435"><ele>844.0</ele><time>2026-05-02T17:19:04.999Z</time></trkpt><trkpt lat="42.29762335687157" lon="13.279671533788688"><ele>844.0</ele><time>2026-05-02T17:19:05.999Z</time></trkpt><trkpt lat="42.29761640214785" lon="13.279818016200545"><ele>844.0</ele><time>2026-05-02T17:19:06.999Z</time></trkpt><trkpt lat="42.29763780443209" lon="13.27997353174141"><ele>844.0</ele><time>2026-05-02T17:19:07.999Z</time></trkpt><trkpt lat="42.297682621900165" lon="13.28012312405643"><ele>841.75</ele><time>2026-05-02T17:19:08.999Z</time></trkpt><trkpt lat="42.29774278755178" lon="13.280269641676282"><ele>839.5</ele><time>2026-05-02T17:19:09.999Z</time></trkpt><trkpt lat="42.297826720752376" lon="13.280394830877258"><ele>837.25</ele><time>2026-05-02T17:19:10.999Z</time></trkpt><trkpt lat="42.297929332070794" lon="13.280489495794626"><ele>835.0</ele><time>2026-05-02T17:19:11.999Z</time></trkpt><trkpt lat="42.29805645195624" lon="13.280528606624596"><ele>832.25</ele><time>2026-05-02T17:19:12.999Z</time></trkpt><trkpt lat="42.29818844419438" lon="13.280539408443076"><ele>829.5</ele><time>2026-05-02T17:19:13.999Z</time></trkpt><trkpt lat="42.29831791695785" lon="13.280497749776464"><ele>826.75</ele><time>2026-05-02T17:19:14.999Z</time></trkpt><trkpt lat="42.298447016723614" lon="13.280460788259685"><ele>824.0</ele><time>2026-05-02T17:19:15.999Z</time></trkpt><trkpt lat="42.29857331532771" lon="13.280455089635291"><ele>824.0</ele><time>2026-05-02T17:19:16.999Z</time></trkpt><trkpt lat="42.29868792462784" lon="13.28045947929208"><ele>824.0</ele><time>2026-05-02T17:19:17.999Z</time></trkpt><trkpt lat="42.298779322044155" lon="13.280512608706653"><ele>824.0</ele><time>2026-05-02T17:19:18.999Z</time></trkpt><trkpt lat="42.29888388898556" lon="13.280599226383721"><ele>824.0</ele><time>2026-05-02T17:19:19.999Z</time></trkpt><trkpt lat="42.299010475894505" lon="13.280700069773344"><ele>827.6666666666667</ele><time>2026-05-02T17:19:20.999Z</time></trkpt><trkpt lat="42.29915652238528" lon="13.280791341001237"><ele>831.3333333333333</ele><time>2026-05-02T17:19:21.999Z</time></trkpt><trkpt lat="42.29929250591484" lon="13.280924744077598"><ele>835.0</ele><time>2026-05-02T17:19:22.999Z</time></trkpt><trkpt lat="42.29944829394866" lon="13.281022753156392"><ele>835.0</ele><time>2026-05-02T17:19:23.999Z</time></trkpt><trkpt lat="42.29960191199352" lon="13.281147884732256"><ele>835.0</ele><time>2026-05-02T17:19:24.999Z</time></trkpt><trkpt lat="42.2997480778802" lon="13.281288612698168"><ele>835.0</ele><time>2026-05-02T17:19:25.999Z</time></trkpt><trkpt lat="42.29989159508849" lon="13.281403444040256"><ele>835.75</ele><time>2026-05-02T17:19:26.999Z</time></trkpt><trkpt lat="42.30003206187328" lon="13.281494818170945"><ele>836.5</ele><time>2026-05-02T17:19:27.999Z</time></trkpt><trkpt lat="42.3001502518639" lon="13.281590954698117"><ele>837.25</ele><time>2026-05-02T17:19:28.999Z</time></trkpt><trkpt lat="42.300239695602606" lon="13.281685639701637"><ele>838.0</ele><time>2026-05-02T17:19:29.999Z</time></trkpt><trkpt lat="42.300336101152354" lon="13.281768954112955"><ele>838.0</ele><time>2026-05-02T17:19:30.999Z</time></trkpt><trkpt lat="42.30041657968873" lon="13.281847621371018"><ele>838.0</ele><time>2026-05-02T17:19:31.999Z</time></trkpt><trkpt lat="42.30049845235841" lon="13.281993216567095"><ele>838.0</ele><time>2026-05-02T17:19:32.999Z</time></trkpt><trkpt lat="42.30053900929437" lon="13.282123627423408"><ele>838.0</ele><time>2026-05-02T17:19:33.999Z</time></trkpt><trkpt lat="42.3005590203548" lon="13.282259434538336"><ele>838.0</ele><time>2026-05-02T17:19:34.999Z</time></trkpt><trkpt lat="42.30054867642912" lon="13.282398922522022"><ele>838.75</ele><time>2026-05-02T17:19:35.999Z</time></trkpt><trkpt lat="42.30053550869609" lon="13.282552922419315"><ele>839.5</ele><time>2026-05-02T17:19:36.999Z</time></trkpt><trkpt lat="42.30052010222288" lon="13.282726556884"><ele>840.25</ele><time>2026-05-02T17:19:37.999Z</time></trkpt><trkpt lat="42.300506842251856" lon="13.28289433889807"><ele>841.0</ele><time>2026-05-02T17:19:38.999Z</time></trkpt><trkpt lat="42.300497794139545" lon="13.283044011559987"><ele>839.3333333333333</ele><time>2026-05-02T17:19:39.999Z</time></trkpt><trkpt lat="42.30049398467207" lon="13.283173986411548"><ele>837.6666666666666</ele><time>2026-05-02T17:19:40.999Z</time></trkpt><trkpt lat="42.300489389136445" lon="13.283287341272603"><ele>836.0</ele><time>2026-05-02T17:19:41.999Z</time></trkpt><trkpt lat="42.30047279922348" lon="13.28337171629076"><ele>834.3333333333333</ele><time>2026-05-02T17:19:42.999Z</time></trkpt><trkpt lat="42.300379318225836" lon="13.283415438154897"><ele>832.6666666666666</ele><time>2026-05-02T17:19:44.999Z</time></trkpt><trkpt lat="42.3003047496353" lon="13.283423563980378"><ele>831.0</ele><time>2026-05-02T17:19:45.999Z</time></trkpt><trkpt lat="42.30020686995397" lon="13.28343079792405"><ele>831.0</ele><time>2026-05-02T17:19:46.999Z</time></trkpt><trkpt lat="42.30011529619001" lon="13.283436993346012"><ele>831.0</ele><time>2026-05-02T17:19:47.999Z</time></trkpt><trkpt lat="42.30004242536902" lon="13.28344900824735"><ele>831.0</ele><time>2026-05-02T17:19:48.999Z</time></trkpt><trkpt lat="42.299929220512425" lon="13.283490013301257"><ele>831.0</ele><time>2026-05-02T17:19:50.999Z</time></trkpt><trkpt lat="42.29985805210159" lon="13.283520784495499"><ele>831.0</ele><time>2026-05-02T17:19:51.999Z</time></trkpt><trkpt lat="42.29977448464723" lon="13.283570183990138"><ele>831.0</ele><time>2026-05-02T17:19:52.999Z</time></trkpt><trkpt lat="42.29967130581996" lon="13.283628795644507"><ele>831.5</ele><time>2026-05-02T17:19:53.999Z</time></trkpt><trkpt lat="42.29956274456809" lon="13.283708096299216"><ele>832.0</ele><time>2026-05-02T17:19:54.998Z</time></trkpt><trkpt lat="42.29945136254993" lon="13.283800178301385"><ele>832.5</ele><time>2026-05-02T17:19:55.998Z</time></trkpt><trkpt lat="42.29934713589022" lon="13.28388729293778"><ele>833.0</ele><time>2026-05-02T17:19:56.998Z</time></trkpt><trkpt lat="42.299244163717624" lon="13.283967312565785"><ele>830.4</ele><time>2026-05-02T17:19:57.998Z</time></trkpt><trkpt lat="42.2991431720869" lon="13.284042944346831"><ele>827.8</ele><time>2026-05-02T17:19:58.998Z</time></trkpt><trkpt lat="42.29903367020976" lon="13.284055040559693"><ele>825.2</ele><time>2026-05-02T17:19:59.998Z</time></trkpt><trkpt lat="42.29892287796035" lon="13.284046447181815"><ele>822.6</ele><time>2026-05-02T17:20:00.998Z</time></trkpt><trkpt lat="42.29881635396994" lon="13.284006554583382"><ele>820.0</ele><time>2026-05-02T17:20:01.998Z</time></trkpt><trkpt lat="42.298715620926906" lon="13.283941214038407"><ele>822.2</ele><time>2026-05-02T17:20:02.998Z</time></trkpt><trkpt lat="42.298611465074586" lon="13.283865235343203"><ele>824.4</ele><time>2026-05-02T17:20:03.998Z</time></trkpt><trkpt lat="42.29850339653907" lon="13.283794588986435"><ele>826.5999999999999</ele><time>2026-05-02T17:20:04.998Z</time></trkpt><trkpt lat="42.29839568320365" lon="13.283768340938565"><ele>828.8</ele><time>2026-05-02T17:20:05.998Z</time></trkpt><trkpt lat="42.298296316527995" lon="13.283747448116811"><ele>831.0</ele><time>2026-05-02T17:20:06.998Z</time></trkpt><trkpt lat="42.29819859018082" lon="13.283765407402983"><ele>831.0</ele><time>2026-05-02T17:20:07.998Z</time></trkpt><trkpt lat="42.298108507125605" lon="13.283813392387593"><ele>831.0</ele><time>2026-05-02T17:20:08.998Z</time></trkpt><trkpt lat="42.29802635495884" lon="13.283881512538272"><ele>831.0</ele><time>2026-05-02T17:20:09.998Z</time></trkpt><trkpt lat="42.297959651055024" lon="13.283929093546458"><ele>831.0</ele><time>2026-05-02T17:20:10.998Z</time></trkpt><trkpt lat="42.297868775427155" lon="13.283985208207724"><ele>831.0</ele><time>2026-05-02T17:20:12.998Z</time></trkpt><trkpt lat="42.297956719702576" lon="13.284181339290178"><ele>829.5999999999999</ele><time>2026-05-02T17:20:15.998Z</time></trkpt><trkpt lat="42.29803969546971" lon="13.284213874716322"><ele>828.2</ele><time>2026-05-02T17:20:16.998Z</time></trkpt><trkpt lat="42.298136924436896" lon="13.28421327135748"><ele>826.8</ele><time>2026-05-02T17:20:17.998Z</time></trkpt><trkpt lat="42.29825149072371" lon="13.284229255046954"><ele>825.4000000000001</ele><time>2026-05-02T17:20:18.998Z</time></trkpt><trkpt lat="42.29837555179914" lon="13.284242442895641"><ele>824.0</ele><time>2026-05-02T17:20:19.998Z</time></trkpt><trkpt lat="42.298500562223026" lon="13.284299546655015"><ele>822.25</ele><time>2026-05-02T17:20:20.998Z</time></trkpt><trkpt lat="42.29861357585459" lon="13.284348179337986"><ele>820.5</ele><time>2026-05-02T17:20:21.998Z</time></trkpt><trkpt lat="42.298711539538694" lon="13.284424144809336"><ele>818.75</ele><time>2026-05-02T17:20:22.998Z</time></trkpt><trkpt lat="42.298801425017686" lon="13.28452075081632"><ele>817.0</ele><time>2026-05-02T17:20:23.998Z</time></trkpt><trkpt lat="42.298880396017566" lon="13.284629750079999"><ele>817.75</ele><time>2026-05-02T17:20:24.998Z</time></trkpt><trkpt lat="42.298962797605" lon="13.284750754020246"><ele>818.5</ele><time>2026-05-02T17:20:25.998Z</time></trkpt><trkpt lat="42.299050729243085" lon="13.28487433357216"><ele>819.25</ele><time>2026-05-02T17:20:27Z</time></trkpt><trkpt lat="42.299129762484206" lon="13.285012856763597"><ele>820.0</ele><time>2026-05-02T17:20:28Z</time></trkpt><trkpt lat="42.299186921472526" lon="13.285172635111199"><ele>817.75</ele><time>2026-05-02T17:20:29Z</time></trkpt><trkpt lat="42.29924432919995" lon="13.285320842215842"><ele>815.5</ele><time>2026-05-02T17:20:30Z</time></trkpt><trkpt lat="42.299292946085956" lon="13.285471262972465"><ele>813.25</ele><time>2026-05-02T17:20:31Z</time></trkpt><trkpt lat="42.29933138079356" lon="13.285623559030224"><ele>811.0</ele><time>2026-05-02T17:20:32Z</time></trkpt><trkpt lat="42.299366243916985" lon="13.285789626799348"><ele>809.75</ele><time>2026-05-02T17:20:33Z</time></trkpt><trkpt lat="42.29939275882342" lon="13.285961020249461"><ele>808.5</ele><time>2026-05-02T17:20:34Z</time></trkpt><trkpt lat="42.29941175562492" lon="13.286133179094678"><ele>807.25</ele><time>2026-05-02T17:20:35Z</time></trkpt><trkpt lat="42.29942321601375" lon="13.286310714888224"><ele>806.0</ele><time>2026-05-02T17:20:36Z</time></trkpt><trkpt lat="42.29944803105077" lon="13.286489637223177"><ele>804.5</ele><time>2026-05-02T17:20:37Z</time></trkpt><trkpt lat="42.299453584798975" lon="13.286672519386737"><ele>803.0</ele><time>2026-05-02T17:20:38Z</time></trkpt><trkpt lat="42.29945819246316" lon="13.286849944732824"><ele>801.5</ele><time>2026-05-02T17:20:39Z</time></trkpt><trkpt lat="42.2994647031492" lon="13.28702435108208"><ele>800.0</ele><time>2026-05-02T17:20:40Z</time></trkpt><trkpt lat="42.29947706600121" lon="13.287192973091848"><ele>798.75</ele><time>2026-05-02T17:20:41Z</time></trkpt><trkpt lat="42.299507790297405" lon="13.287351764945182"><ele>797.5</ele><time>2026-05-02T17:20:42Z</time></trkpt><trkpt lat="42.29955824153513" lon="13.287505905400522"><ele>796.25</ele><time>2026-05-02T17:20:43Z</time></trkpt><trkpt lat="42.29963193021659" lon="13.287628613595214"><ele>795.0</ele><time>2026-05-02T17:20:44Z</time></trkpt><trkpt lat="42.29972731041327" lon="13.287730491315589"><ele>796.75</ele><time>2026-05-02T17:20:45Z</time></trkpt><trkpt lat="42.29987887110315" lon="13.287759511555462"><ele>798.5</ele><time>2026-05-02T17:20:46Z</time></trkpt><trkpt lat="42.29999943641801" lon="13.287737050870161"><ele>800.25</ele><time>2026-05-02T17:20:47Z</time></trkpt><trkpt lat="42.30009601795558" lon="13.28769821605571"><ele>802.0</ele><time>2026-05-02T17:20:48Z</time></trkpt><trkpt lat="42.30025444133203" lon="13.287660418494676"><ele>802.0</ele><time>2026-05-02T17:20:49Z</time></trkpt><trkpt lat="42.30039885022647" lon="13.2876459056878"><ele>802.0</ele><time>2026-05-02T17:20:50Z</time></trkpt><trkpt lat="42.300548987836194" lon="13.287643564085686"><ele>802.0</ele><time>2026-05-02T17:20:51Z</time></trkpt><trkpt lat="42.30069088400833" lon="13.287640365141186"><ele>802.0</ele><time>2026-05-02T17:20:52Z</time></trkpt><trkpt lat="42.300828113145165" lon="13.287646951734143"><ele>800.75</ele><time>2026-05-02T17:20:52.999Z</time></trkpt><trkpt lat="42.30097163966452" lon="13.287656218841938"><ele>799.5</ele><time>2026-05-02T17:20:53.999Z</time></trkpt><trkpt lat="42.301088076452494" lon="13.287643211021159"><ele>798.25</ele><time>2026-05-02T17:20:54.999Z</time></trkpt><trkpt lat="42.30122259614382" lon="13.28762698826334"><ele>797.0</ele><time>2026-05-02T17:20:55.999Z</time></trkpt><trkpt lat="42.30135432438099" lon="13.287573442438841"><ele>793.0</ele><time>2026-05-02T17:20:56.999Z</time></trkpt><trkpt lat="42.30148257299876" lon="13.287482314986054"><ele>789.0</ele><time>2026-05-02T17:20:57.999Z</time></trkpt><trkpt lat="42.30159506154567" lon="13.287398404898774"><ele>785.0</ele><time>2026-05-02T17:20:58.999Z</time></trkpt><trkpt lat="42.301700953337836" lon="13.287346333092662"><ele>781.0</ele><time>2026-05-02T17:20:59.999Z</time></trkpt><trkpt lat="42.30180191871901" lon="13.287312342524858"><ele>781.0</ele><time>2026-05-02T17:21:00.999Z</time></trkpt><trkpt lat="42.30189468313643" lon="13.287308511043788"><ele>781.0</ele><time>2026-05-02T17:21:01.999Z</time></trkpt><trkpt lat="42.30198986654711" lon="13.287317503920585"><ele>781.0</ele><time>2026-05-02T17:21:02.999Z</time></trkpt><trkpt lat="42.30209623545006" lon="13.28731993060858"><ele>781.0</ele><time>2026-05-02T17:21:03.999Z</time></trkpt><trkpt lat="42.30222080226151" lon="13.28734991843656"><ele>781.0</ele><time>2026-05-02T17:21:04.999Z</time></trkpt><trkpt lat="42.302349156087125" lon="13.287390819477006"><ele>780.3333333333333</ele><time>2026-05-02T17:21:05.999Z</time></trkpt><trkpt lat="42.30249603748671" lon="13.287432510748383"><ele>779.6666666666667</ele><time>2026-05-02T17:21:06.999Z</time></trkpt><trkpt lat="42.30264987193543" lon="13.287475457372668"><ele>779.0</ele><time>2026-05-02T17:21:07.999Z</time></trkpt><trkpt lat="42.30281059906152" lon="13.28751325855729"><ele>779.0</ele><time>2026-05-02T17:21:08.999Z</time></trkpt><trkpt lat="42.30296747767718" lon="13.287540740391023"><ele>779.0</ele><time>2026-05-02T17:21:09.999Z</time></trkpt><trkpt lat="42.303118899665854" lon="13.287565987696063"><ele>779.0</ele><time>2026-05-02T17:21:10.999Z</time></trkpt><trkpt lat="42.30327306433681" lon="13.287588823321903"><ele>778.25</ele><time>2026-05-02T17:21:11.999Z</time></trkpt><trkpt lat="42.30342720700999" lon="13.287616588536189"><ele>777.5</ele><time>2026-05-02T17:21:12.999Z</time></trkpt><trkpt lat="42.30357866158747" lon="13.287645755304743"><ele>776.75</ele><time>2026-05-02T17:21:13.999Z</time></trkpt><trkpt lat="42.303715551048754" lon="13.287665767275904"><ele>776.0</ele><time>2026-05-02T17:21:14.999Z</time></trkpt><trkpt lat="42.30384304376149" lon="13.287676631502547"><ele>775.25</ele><time>2026-05-02T17:21:15.999Z</time></trkpt><trkpt lat="42.3039739219225" lon="13.287649191277133"><ele>774.5</ele><time>2026-05-02T17:21:16.999Z</time></trkpt><trkpt lat="42.30411485273731" lon="13.287593792668343"><ele>773.75</ele><time>2026-05-02T17:21:17.999Z</time></trkpt><trkpt lat="42.304270479216264" lon="13.287545714975488"><ele>773.0</ele><time>2026-05-02T17:21:18.999Z</time></trkpt><trkpt lat="42.30443642708424" lon="13.287492274072246"><ele>773.0</ele><time>2026-05-02T17:21:19.999Z</time></trkpt><trkpt lat="42.30460191537184" lon="13.287435938994955"><ele>773.0</ele><time>2026-05-02T17:21:20.999Z</time></trkpt><trkpt lat="42.30477484021564" lon="13.287376193417913"><ele>773.0</ele><time>2026-05-02T17:21:21.999Z</time></trkpt><trkpt lat="42.30496418251167" lon="13.287298913130513"><ele>776.3333333333334</ele><time>2026-05-02T17:21:22.999Z</time></trkpt><trkpt lat="42.30515529840455" lon="13.287198248695239"><ele>779.6666666666667</ele><time>2026-05-02T17:21:23.999Z</time></trkpt><trkpt lat="42.305343666922546" lon="13.287090027938648"><ele>783.0</ele><time>2026-05-02T17:21:24.999Z</time></trkpt><trkpt lat="42.305515739604104" lon="13.286988917433419"><ele>778.0</ele><time>2026-05-02T17:21:25.999Z</time></trkpt><trkpt lat="42.305672902188256" lon="13.28688882439843"><ele>773.0</ele><time>2026-05-02T17:21:26.999Z</time></trkpt><trkpt lat="42.30581629402137" lon="13.286782313105805"><ele>768.0</ele><time>2026-05-02T17:21:27.999Z</time></trkpt><trkpt lat="42.30594446377818" lon="13.28666915152003"><ele>768.0</ele><time>2026-05-02T17:21:28.999Z</time></trkpt><trkpt lat="42.30605525259628" lon="13.286556126280646"><ele>768.0</ele><time>2026-05-02T17:21:29.999Z</time></trkpt><trkpt lat="42.3061570787413" lon="13.286466847337792"><ele>768.0</ele><time>2026-05-02T17:21:30.999Z</time></trkpt><trkpt lat="42.306250575097934" lon="13.286392404509572"><ele>768.0</ele><time>2026-05-02T17:21:31.999Z</time></trkpt><trkpt lat="42.306340612043655" lon="13.286355654954791"><ele>766.8</ele><time>2026-05-02T17:21:32.999Z</time></trkpt><trkpt lat="42.30641938899101" lon="13.28632712119357"><ele>765.5999999999999</ele><time>2026-05-02T17:21:33.999Z</time></trkpt><trkpt lat="42.30649643186478" lon="13.286414132233393"><ele>764.4000000000001</ele><time>2026-05-02T17:21:34.999Z</time></trkpt><trkpt lat="42.3065432966718" lon="13.286514562714798"><ele>763.2</ele><time>2026-05-02T17:21:35.999Z</time></trkpt><trkpt lat="42.30661558679709" lon="13.28662904438612"><ele>762.0</ele><time>2026-05-02T17:21:36.999Z</time></trkpt><trkpt lat="42.306687608378574" lon="13.286740113770348"><ele>762.0</ele><time>2026-05-02T17:21:37.999Z</time></trkpt><trkpt lat="42.30676966162507" lon="13.286837553805682"><ele>762.0</ele><time>2026-05-02T17:21:38.999Z</time></trkpt><trkpt lat="42.306830088818124" lon="13.28694337594465"><ele>762.0</ele><time>2026-05-02T17:21:39.999Z</time></trkpt><trkpt lat="42.30689789798475" lon="13.287018340751237"><ele>762.0</ele><time>2026-05-02T17:21:40.999Z</time></trkpt><trkpt lat="42.306982222850436" lon="13.287021715727851"><ele>762.0</ele><time>2026-05-02T17:21:41.999Z</time></trkpt><trkpt lat="42.30708231140015" lon="13.286976914081079"><ele>762.0</ele><time>2026-05-02T17:21:42.999Z</time></trkpt><trkpt lat="42.30719609135966" lon="13.286885702095605"><ele>762.0</ele><time>2026-05-02T17:21:43.999Z</time></trkpt><trkpt lat="42.30731016758132" lon="13.28680662349258"><ele>762.0</ele><time>2026-05-02T17:21:44.999Z</time></trkpt><trkpt lat="42.307420561723795" lon="13.286733260322857"><ele>762.0</ele><time>2026-05-02T17:21:45.999Z</time></trkpt><trkpt lat="42.30751808520793" lon="13.286686585245445"><ele>762.2</ele><time>2026-05-02T17:21:46.999Z</time></trkpt><trkpt lat="42.30760278237963" lon="13.286653211106907"><ele>762.4000000000001</ele><time>2026-05-02T17:21:47.999Z</time></trkpt><trkpt lat="42.307670694952364" lon="13.286633974430014"><ele>762.5999999999999</ele><time>2026-05-02T17:21:48.999Z</time></trkpt><trkpt lat="42.307773099431536" lon="13.286631324155815"><ele>762.8</ele><time>2026-05-02T17:21:50.999Z</time></trkpt><trkpt lat="42.307839211549684" lon="13.286644202613104"><ele>763.0</ele><time>2026-05-02T17:21:52.999Z</time></trkpt><trkpt lat="42.307961111397795" lon="13.28658491211634"><ele>763.0</ele><time>2026-05-02T17:21:54.999Z</time></trkpt><trkpt lat="42.30803467126753" lon="13.28653316683032"><ele>763.0</ele><time>2026-05-02T17:21:55.999Z</time></trkpt><trkpt lat="42.308105483116826" lon="13.286486747572303"><ele>763.0</ele><time>2026-05-02T17:21:56.999Z</time></trkpt><trkpt lat="42.30818197081049" lon="13.28644489462132"><ele>763.0</ele><time>2026-05-02T17:21:57.999Z</time></trkpt><trkpt lat="42.30826601049168" lon="13.286395165738952"><ele>763.0</ele><time>2026-05-02T17:21:58.998Z</time></trkpt><trkpt lat="42.308365260961" lon="13.286329445031262"><ele>763.0</ele><time>2026-05-02T17:21:59.998Z</time></trkpt><trkpt lat="42.30846222472579" lon="13.286260766279295"><ele>761.5</ele><time>2026-05-02T17:22:00.998Z</time></trkpt><trkpt lat="42.30856491469966" lon="13.286201518710605"><ele>760.0</ele><time>2026-05-02T17:22:01.998Z</time></trkpt><trkpt lat="42.308675206346635" lon="13.286182085211287"><ele>758.5</ele><time>2026-05-02T17:22:02.998Z</time></trkpt><trkpt lat="42.30877618785636" lon="13.286141861705765"><ele>757.0</ele><time>2026-05-02T17:22:03.998Z</time></trkpt><trkpt lat="42.30887563220758" lon="13.286008391867863"><ele>757.0</ele><time>2026-05-02T17:22:04.998Z</time></trkpt><trkpt lat="42.308982215231545" lon="13.285963381873009"><ele>757.0</ele><time>2026-05-02T17:22:05.998Z</time></trkpt><trkpt lat="42.30908875939498" lon="13.28592664881022"><ele>757.0</ele><time>2026-05-02T17:22:06.998Z</time></trkpt><trkpt lat="42.30919131551652" lon="13.285911280696855"><ele>757.0</ele><time>2026-05-02T17:22:07.998Z</time></trkpt><trkpt lat="42.30928749559987" lon="13.285895896728412"><ele>757.0</ele><time>2026-05-02T17:22:08.998Z</time></trkpt><trkpt lat="42.309388470887626" lon="13.285883813812953"><ele>757.0</ele><time>2026-05-02T17:22:09.998Z</time></trkpt><trkpt lat="42.3094816551677" lon="13.28587384608107"><ele>757.0</ele><time>2026-05-02T17:22:10.998Z</time></trkpt><trkpt lat="42.30956903413932" lon="13.285868120103212"><ele>757.0</ele><time>2026-05-02T17:22:11.998Z</time></trkpt><trkpt lat="42.30964398670039" lon="13.285859162266519"><ele>757.0</ele><time>2026-05-02T17:22:12.998Z</time></trkpt><trkpt lat="42.309721733058915" lon="13.285864336770507"><ele>757.0</ele><time>2026-05-02T17:22:14.998Z</time></trkpt><trkpt lat="42.30965765524572" lon="13.285951703362768"><ele>757.0</ele><time>2026-05-02T17:22:17.998Z</time></trkpt><trkpt lat="42.30953562966357" lon="13.285947163360184"><ele>757.0</ele><time>2026-05-02T17:22:19.998Z</time></trkpt><trkpt lat="42.30944677497019" lon="13.285975459233397"><ele>757.0</ele><time>2026-05-02T17:22:20.998Z</time></trkpt><trkpt lat="42.30933810965116" lon="13.285960164837869"><ele>757.0</ele><time>2026-05-02T17:22:21.998Z</time></trkpt><trkpt lat="42.309228498603005" lon="13.285979626392548"><ele>757.0</ele><time>2026-05-02T17:22:22.998Z</time></trkpt><trkpt lat="42.309122517085214" lon="13.28602344440163"><ele>757.0</ele><time>2026-05-02T17:22:23.998Z</time></trkpt><trkpt lat="42.30901844547063" lon="13.286080520137961"><ele>757.0</ele><time>2026-05-02T17:22:24.998Z</time></trkpt><trkpt lat="42.30890333040609" lon="13.286116427091718"><ele>757.0</ele><time>2026-05-02T17:22:25.998Z</time></trkpt><trkpt lat="42.30879375166721" lon="13.286182517583194"><ele>757.0</ele><time>2026-05-02T17:22:26.998Z</time></trkpt><trkpt lat="42.30869220014438" lon="13.286248578966758"><ele>757.0</ele><time>2026-05-02T17:22:27.998Z</time></trkpt><trkpt lat="42.30860447333131" lon="13.286317840905372"><ele>757.0</ele><time>2026-05-02T17:22:28.998Z</time></trkpt><trkpt lat="42.30852976509088" lon="13.286364832613298"><ele>757.0</ele><time>2026-05-02T17:22:29.998Z</time></trkpt><trkpt lat="42.308469049764696" lon="13.286416993352892"><ele>757.0</ele><time>2026-05-02T17:22:30.998Z</time></trkpt><trkpt lat="42.30843057023418" lon="13.286487352444123"><ele>757.0</ele><time>2026-05-02T17:22:32Z</time></trkpt><trkpt lat="42.30843490636343" lon="13.286574838376406"><ele>757.0</ele><time>2026-05-02T17:22:33Z</time></trkpt><trkpt lat="42.308561876236325" lon="13.286670540816008"><ele>757.0</ele><time>2026-05-02T17:22:35Z</time></trkpt><trkpt lat="42.30865555917939" lon="13.286644988630547"><ele>759.5</ele><time>2026-05-02T17:22:36Z</time></trkpt><trkpt lat="42.30876335480947" lon="13.286614262260928"><ele>762.0</ele><time>2026-05-02T17:22:37Z</time></trkpt><trkpt lat="42.30888178338263" lon="13.286586702588128"><ele>764.5</ele><time>2026-05-02T17:22:38Z</time></trkpt><trkpt lat="42.30900863342471" lon="13.286567771676147"><ele>767.0</ele><time>2026-05-02T17:22:39Z</time></trkpt><trkpt lat="42.30913508232773" lon="13.286555095494258"><ele>769.0</ele><time>2026-05-02T17:22:40Z</time></trkpt><trkpt lat="42.309299911680185" lon="13.286539129986165"><ele>771.0</ele><time>2026-05-02T17:22:41Z</time></trkpt><trkpt lat="42.30946502862055" lon="13.286541359486494"><ele>773.0</ele><time>2026-05-02T17:22:42Z</time></trkpt><trkpt lat="42.30960958327429" lon="13.286516031587533"><ele>777.3333333333334</ele><time>2026-05-02T17:22:43Z</time></trkpt><trkpt lat="42.30975269611176" lon="13.286509799872027"><ele>781.6666666666667</ele><time>2026-05-02T17:22:44Z</time></trkpt><trkpt lat="42.30991539069225" lon="13.286472577367334"><ele>786.0</ele><time>2026-05-02T17:22:45Z</time></trkpt><trkpt lat="42.31007713505774" lon="13.286443818861002"><ele>778.3333333333334</ele><time>2026-05-02T17:22:46Z</time></trkpt><trkpt lat="42.31024060596983" lon="13.286410526811219"><ele>770.6666666666667</ele><time>2026-05-02T17:22:47Z</time></trkpt><trkpt lat="42.310398953723954" lon="13.286380753566053"><ele>763.0</ele><time>2026-05-02T17:22:48Z</time></trkpt><trkpt lat="42.31056355897817" lon="13.286355304545337"><ele>765.5</ele><time>2026-05-02T17:22:49Z</time></trkpt><trkpt lat="42.31071889132849" lon="13.286339317759666"><ele>768.0</ele><time>2026-05-02T17:22:50Z</time></trkpt><trkpt lat="42.31085818172589" lon="13.286365330600443"><ele>770.5</ele><time>2026-05-02T17:22:51Z</time></trkpt><trkpt lat="42.31097842549806" lon="13.286374408106871"><ele>773.0</ele><time>2026-05-02T17:22:52Z</time></trkpt><trkpt lat="42.31107623129907" lon="13.28636341055782"><ele>773.0</ele><time>2026-05-02T17:22:53Z</time></trkpt><trkpt lat="42.3111662637993" lon="13.286356825365244"><ele>773.0</ele><time>2026-05-02T17:22:54Z</time></trkpt><trkpt lat="42.31125647097522" lon="13.286314146488502"><ele>773.0</ele><time>2026-05-02T17:22:55Z</time></trkpt><trkpt lat="42.311343297638494" lon="13.286235591243605"><ele>773.0</ele><time>2026-05-02T17:22:56Z</time></trkpt><trkpt lat="42.31142293415891" lon="13.286144322312666"><ele>773.0</ele><time>2026-05-02T17:22:57Z</time></trkpt><trkpt lat="42.31150379249813" lon="13.28605485656377"><ele>775.0000000000001</ele><time>2026-05-02T17:22:57.999Z</time></trkpt><trkpt lat="42.311572371329845" lon="13.286000244376494"><ele>777.0</ele><time>2026-05-02T17:22:58.999Z</time></trkpt><trkpt lat="42.311638516975286" lon="13.285996854184397"><ele>779.0</ele><time>2026-05-02T17:22:59.999Z</time></trkpt><trkpt lat="42.31168327248515" lon="13.286061406138906"><ele>781.0</ele><time>2026-05-02T17:23:00.999Z</time></trkpt><trkpt lat="42.311685126145036" lon="13.286148416886254"><ele>783.0000000000001</ele><time>2026-05-02T17:23:01.999Z</time></trkpt><trkpt lat="42.31162476321487" lon="13.286240389458143"><ele>785.0</ele><time>2026-05-02T17:23:02.999Z</time></trkpt><trkpt lat="42.311572518778384" lon="13.28634944981738"><ele>786.5</ele><time>2026-05-02T17:23:03.999Z</time></trkpt><trkpt lat="42.31150609271151" lon="13.286503700299802"><ele>788.0</ele><time>2026-05-02T17:23:04.999Z</time></trkpt><trkpt lat="42.3114392047243" lon="13.286654068378976"><ele>789.5</ele><time>2026-05-02T17:23:05.999Z</time></trkpt><trkpt lat="42.311357700926166" lon="13.286862979546132"><ele>791.0</ele><time>2026-05-02T17:23:06.999Z</time></trkpt><trkpt lat="42.31126993766755" lon="13.287027391946534"><ele>791.0</ele><time>2026-05-02T17:23:07.999Z</time></trkpt><trkpt lat="42.311185279635254" lon="13.287187092134356"><ele>791.0</ele><time>2026-05-02T17:23:08.999Z</time></trkpt><trkpt lat="42.31110264628589" lon="13.28732882173501"><ele>791.0</ele><time>2026-05-02T17:23:09.999Z</time></trkpt><trkpt lat="42.311009356284565" lon="13.287449356011502"><ele>791.0</ele><time>2026-05-02T17:23:10.999Z</time></trkpt><trkpt lat="42.31090525263456" lon="13.28756248803204"><ele>792.6666666666667</ele><time>2026-05-02T17:23:11.999Z</time></trkpt><trkpt lat="42.31078583088102" lon="13.287675774757128"><ele>794.3333333333333</ele><time>2026-05-02T17:23:12.999Z</time></trkpt><trkpt lat="42.31065947908179" lon="13.2877967657644"><ele>796.0</ele><time>2026-05-02T17:23:13.999Z</time></trkpt><trkpt lat="42.3105277434381" lon="13.287930781766363"><ele>796.0</ele><time>2026-05-02T17:23:14.999Z</time></trkpt><trkpt lat="42.31039685976732" lon="13.288068583699388"><ele>796.0</ele><time>2026-05-02T17:23:15.999Z</time></trkpt><trkpt lat="42.31026726787835" lon="13.288208262104853"><ele>796.0</ele><time>2026-05-02T17:23:16.999Z</time></trkpt><trkpt lat="42.310134936132215" lon="13.28835412115354"><ele>796.6666666666666</ele><time>2026-05-02T17:23:17.999Z</time></trkpt><trkpt lat="42.310011565129045" lon="13.28849027375875"><ele>797.3333333333333</ele><time>2026-05-02T17:23:18.999Z</time></trkpt><trkpt lat="42.30988507188292" lon="13.288634013511277"><ele>798.0</ele><time>2026-05-02T17:23:19.999Z</time></trkpt><trkpt lat="42.309762938896036" lon="13.288767368868099"><ele>798.0</ele><time>2026-05-02T17:23:20.999Z</time></trkpt><trkpt lat="42.30963700944199" lon="13.288897574894182"><ele>798.0</ele><time>2026-05-02T17:23:21.999Z</time></trkpt><trkpt lat="42.30952876730902" lon="13.289020484938458"><ele>798.0</ele><time>2026-05-02T17:23:22.999Z</time></trkpt><trkpt lat="42.30943171723584" lon="13.289143117539663"><ele>798.0</ele><time>2026-05-02T17:23:23.999Z</time></trkpt><trkpt lat="42.30933493976985" lon="13.289248698045533"><ele>798.0</ele><time>2026-05-02T17:23:24.999Z</time></trkpt><trkpt lat="42.30924080403377" lon="13.289356197273293"><ele>798.0</ele><time>2026-05-02T17:23:25.999Z</time></trkpt><trkpt lat="42.30914846832937" lon="13.289455813501734"><ele>798.0</ele><time>2026-05-02T17:23:26.999Z</time></trkpt><trkpt lat="42.3090553685417" lon="13.289555160874855"><ele>798.0</ele><time>2026-05-02T17:23:27.999Z</time></trkpt><trkpt lat="42.308969570029475" lon="13.289644932372868"><ele>797.5999999999999</ele><time>2026-05-02T17:23:28.999Z</time></trkpt><trkpt lat="42.30889426835034" lon="13.289724232388462"><ele>797.1999999999999</ele><time>2026-05-02T17:23:29.999Z</time></trkpt><trkpt lat="42.30883389826018" lon="13.289790469489686"><ele>796.8</ele><time>2026-05-02T17:23:30.999Z</time></trkpt><trkpt lat="42.30878887113504" lon="13.289855191729243"><ele>796.4</ele><time>2026-05-02T17:23:31.999Z</time></trkpt><trkpt lat="42.30872426807339" lon="13.289898839922841"><ele>796.0</ele><time>2026-05-02T17:23:33.999Z</time></trkpt><trkpt lat="42.3088295660272" lon="13.290103943146907"><ele>796.9999999999999</ele><time>2026-05-02T17:23:35.999Z</time></trkpt><trkpt lat="42.3088743221242" lon="13.290172485942449"><ele>798.0</ele><time>2026-05-02T17:23:36.999Z</time></trkpt><trkpt lat="42.308907110744016" lon="13.290271032700616"><ele>799.0</ele><time>2026-05-02T17:23:37.999Z</time></trkpt><trkpt lat="42.30894874184178" lon="13.290350735517706"><ele>800.0</ele><time>2026-05-02T17:23:38.999Z</time></trkpt><trkpt lat="42.30899030490498" lon="13.290430308167625"><ele>800.9999999999999</ele><time>2026-05-02T17:23:39.999Z</time></trkpt><trkpt lat="42.309061852698484" lon="13.290558319678185"><ele>802.0</ele><time>2026-05-02T17:23:41.999Z</time></trkpt><trkpt lat="42.30912712235596" lon="13.2906776761741"><ele>801.9999999999999</ele><time>2026-05-02T17:23:43.999Z</time></trkpt><trkpt lat="42.30914115367005" lon="13.290769198596967"><ele>802.0</ele><time>2026-05-02T17:23:45.999Z</time></trkpt><trkpt lat="42.30912987976896" lon="13.290918707334399"><ele>802.0</ele><time>2026-05-02T17:23:47.999Z</time></trkpt><trkpt lat="42.309176391519564" lon="13.290999352927606"><ele>802.0</ele><time>2026-05-02T17:23:48.999Z</time></trkpt><trkpt lat="42.309204014029206" lon="13.291089416379341"><ele>801.9999999999999</ele><time>2026-05-02T17:23:49.999Z</time></trkpt><trkpt lat="42.309233180921325" lon="13.291185638611482"><ele>802.0</ele><time>2026-05-02T17:23:50.999Z</time></trkpt><trkpt lat="42.30925549012783" lon="13.291285091473188"><ele>801.9999999999999</ele><time>2026-05-02T17:23:51.999Z</time></trkpt><trkpt lat="42.30927376793705" lon="13.291381317298878"><ele>802.0</ele><time>2026-05-02T17:23:52.999Z</time></trkpt><trkpt lat="42.30929016946306" lon="13.291479460373454"><ele>802.0</ele><time>2026-05-02T17:23:53.999Z</time></trkpt><trkpt lat="42.309317979441595" lon="13.291571209111822"><ele>802.0</ele><time>2026-05-02T17:23:54.999Z</time></trkpt><trkpt lat="42.309335610251175" lon="13.291655532828841"><ele>801.9999999999999</ele><time>2026-05-02T17:23:55.999Z</time></trkpt><trkpt lat="42.30933133704481" lon="13.291745009690553"><ele>802.0</ele><time>2026-05-02T17:23:56.999Z</time></trkpt><trkpt lat="42.309367422195876" lon="13.291890300701406"><ele>801.6</ele><time>2026-05-02T17:23:58.999Z</time></trkpt><trkpt lat="42.30936728366437" lon="13.292011777254242"><ele>801.2</ele><time>2026-05-02T17:24:00.999Z</time></trkpt><trkpt lat="42.309396232477766" lon="13.292149634397772"><ele>800.8</ele><time>2026-05-02T17:24:02.999Z</time></trkpt><trkpt lat="42.3094079556091" lon="13.292278219475843"><ele>800.4</ele><time>2026-05-02T17:24:04.999Z</time></trkpt><trkpt lat="42.30941944231671" lon="13.292391759828162"><ele>800.0</ele><time>2026-05-02T17:24:06.998Z</time></trkpt><trkpt lat="42.30945666855095" lon="13.292528244396003"><ele>799.6666666666667</ele><time>2026-05-02T17:24:08.998Z</time></trkpt><trkpt lat="42.30949421519243" lon="13.292668335453119"><ele>799.3333333333334</ele><time>2026-05-02T17:24:10.998Z</time></trkpt><trkpt lat="42.30951307693434" lon="13.292758418479242"><ele>799.0</ele><time>2026-05-02T17:24:11.998Z</time></trkpt><trkpt lat="42.30952216801392" lon="13.29285851014907"><ele>798.6666666666667</ele><time>2026-05-02T17:24:12.998Z</time></trkpt><trkpt lat="42.309531757402226" lon="13.292968545400797"><ele>798.3333333333334</ele><time>2026-05-02T17:24:13.998Z</time></trkpt><trkpt lat="42.30954129977878" lon="13.293078137204812"><ele>798.0</ele><time>2026-05-02T17:24:14.998Z</time></trkpt><trkpt lat="42.309549361222274" lon="13.293177188349738"><ele>797.0</ele><time>2026-05-02T17:24:15.998Z</time></trkpt><trkpt lat="42.30955681038861" lon="13.29328673931742"><ele>796.0</ele><time>2026-05-02T17:24:16.998Z</time></trkpt><trkpt lat="42.309559913096976" lon="13.293444785156334"><ele>795.0</ele><time>2026-05-02T17:24:18.998Z</time></trkpt><trkpt lat="42.3095684129945" lon="13.293565769388046"><ele>794.0</ele><time>2026-05-02T17:24:20.998Z</time></trkpt><trkpt lat="42.30963393208057" lon="13.293634573001157"><ele>793.0</ele><time>2026-05-02T17:24:22.998Z</time></trkpt><trkpt lat="42.30973103573507" lon="13.293617141898816"><ele>791.1666666666666</ele><time>2026-05-02T17:24:24.998Z</time></trkpt><trkpt lat="42.30981739707629" lon="13.293542153286502"><ele>789.3333333333333</ele><time>2026-05-02T17:24:26.998Z</time></trkpt><trkpt lat="42.3098951725559" lon="13.293511920535309"><ele>787.5</ele><time>2026-05-02T17:24:28.998Z</time></trkpt><trkpt lat="42.30997014501483" lon="13.293533345668681"><ele>785.6666666666667</ele><time>2026-05-02T17:24:30.998Z</time></trkpt><trkpt lat="42.31003319413761" lon="13.293594899147962"><ele>783.8333333333334</ele><time>2026-05-02T17:24:32.998Z</time></trkpt><trkpt lat="42.3100644468329" lon="13.293688746618075"><ele>782.0</ele><time>2026-05-02T17:24:34.998Z</time></trkpt><trkpt lat="42.31008561331397" lon="13.293794445341542"><ele>782.0000000000001</ele><time>2026-05-02T17:24:36.998Z</time></trkpt><trkpt lat="42.31006023859419" lon="13.293913567893107"><ele>782.0</ele><time>2026-05-02T17:24:39Z</time></trkpt><trkpt lat="42.3100047738646" lon="13.294008408115793"><ele>782.0</ele><time>2026-05-02T17:24:41Z</time></trkpt><trkpt lat="42.30991385086977" lon="13.294077108568022"><ele>782.0</ele><time>2026-05-02T17:24:43Z</time></trkpt><trkpt lat="42.30984301852141" lon="13.294100694266877"><ele>782.0000000000001</ele><time>2026-05-02T17:24:44Z</time></trkpt><trkpt lat="42.30976585649343" lon="13.294122095204903"><ele>782.0</ele><time>2026-05-02T17:24:45Z</time></trkpt><trkpt lat="42.30967779786006" lon="13.294138719935574"><ele>782.1666666666667</ele><time>2026-05-02T17:24:46Z</time></trkpt><trkpt lat="42.3096008274042" lon="13.29415789993673"><ele>782.3333333333334</ele><time>2026-05-02T17:24:47Z</time></trkpt><trkpt lat="42.309497754213545" lon="13.294204610350533"><ele>782.5</ele><time>2026-05-02T17:24:49Z</time></trkpt><trkpt lat="42.30945436637589" lon="13.294276351341269"><ele>782.6666666666667</ele><time>2026-05-02T17:24:50Z</time></trkpt><trkpt lat="42.30944081216484" lon="13.29442828754034"><ele>782.8333333333334</ele><time>2026-05-02T17:24:52Z</time></trkpt><trkpt lat="42.30945068498358" lon="13.294515651906359"><ele>783.0</ele><time>2026-05-02T17:24:53Z</time></trkpt><trkpt lat="42.30948188179443" lon="13.294669603619749"><ele>782.1666666666666</ele><time>2026-05-02T17:24:55Z</time></trkpt><trkpt lat="42.30948954780375" lon="13.294821939097213"><ele>781.3333333333333</ele><time>2026-05-02T17:24:57Z</time></trkpt><trkpt lat="42.30946623657666" lon="13.294905618003959"><ele>780.5</ele><time>2026-05-02T17:24:58Z</time></trkpt><trkpt lat="42.30943532631087" lon="13.294985163645224"><ele>779.6666666666666</ele><time>2026-05-02T17:24:59Z</time></trkpt><trkpt lat="42.30940472905402" lon="13.29507613871473"><ele>778.8333333333333</ele><time>2026-05-02T17:25:00Z</time></trkpt><trkpt lat="42.30936379150373" lon="13.295170660602402"><ele>778.0</ele><time>2026-05-02T17:25:01Z</time></trkpt><trkpt lat="42.30932565641658" lon="13.295263580034748"><ele>777.9999999999999</ele><time>2026-05-02T17:25:02Z</time></trkpt><trkpt lat="42.30929145839624" lon="13.295361293152501"><ele>778.0</ele><time>2026-05-02T17:25:03Z</time></trkpt><trkpt lat="42.309257345208685" lon="13.295455809498211"><ele>778.0</ele><time>2026-05-02T17:25:04Z</time></trkpt><trkpt lat="42.30922110158807" lon="13.295559076644732"><ele>778.0</ele><time>2026-05-02T17:25:05Z</time></trkpt><trkpt lat="42.309184461203834" lon="13.2956570168133"><ele>777.9999999999999</ele><time>2026-05-02T17:25:05.999Z</time></trkpt><trkpt lat="42.30914738425112" lon="13.29575496522125"><ele>778.0</ele><time>2026-05-02T17:25:06.999Z</time></trkpt><trkpt lat="42.309108857590424" lon="13.295853319976585"><ele>778.5999999999999</ele><time>2026-05-02T17:25:07.999Z</time></trkpt><trkpt lat="42.30906576533017" lon="13.295956237509078"><ele>779.1999999999999</ele><time>2026-05-02T17:25:08.999Z</time></trkpt><trkpt lat="42.30900777896565" lon="13.296064085190029"><ele>779.8</ele><time>2026-05-02T17:25:09.999Z</time></trkpt><trkpt lat="42.308953433973414" lon="13.296156269692919"><ele>780.4</ele><time>2026-05-02T17:25:10.999Z</time></trkpt><trkpt lat="42.3088953678174" lon="13.296254612822375"><ele>781.0</ele><time>2026-05-02T17:25:11.999Z</time></trkpt><trkpt lat="42.30884119740469" lon="13.296362417343005"><ele>779.5999999999999</ele><time>2026-05-02T17:25:12.999Z</time></trkpt><trkpt lat="42.308790902908456" lon="13.29646319813481"><ele>778.2</ele><time>2026-05-02T17:25:13.999Z</time></trkpt><trkpt lat="42.30874784886874" lon="13.296572330509129"><ele>776.8</ele><time>2026-05-02T17:25:14.999Z</time></trkpt><trkpt lat="42.30870565912994" lon="13.296707944477468"><ele>775.4000000000001</ele><time>2026-05-02T17:25:15.999Z</time></trkpt><trkpt lat="42.30866620093135" lon="13.296823974329659"><ele>774.0</ele><time>2026-05-02T17:25:16.999Z</time></trkpt><trkpt lat="42.308632042167794" lon="13.296938400455467"><ele>774.0</ele><time>2026-05-02T17:25:17.999Z</time></trkpt><trkpt lat="42.308590022890264" lon="13.297051825821024"><ele>774.0</ele><time>2026-05-02T17:25:18.999Z</time></trkpt><trkpt lat="42.30854104786924" lon="13.297141686327025"><ele>774.0</ele><time>2026-05-02T17:25:19.999Z</time></trkpt><trkpt lat="42.30848247682455" lon="13.297237764153842"><ele>774.0</ele><time>2026-05-02T17:25:20.999Z</time></trkpt><trkpt lat="42.30842380372483" lon="13.297338314103802"><ele>774.0</ele><time>2026-05-02T17:25:21.999Z</time></trkpt><trkpt lat="42.30836857738767" lon="13.297431031072607"><ele>773.5</ele><time>2026-05-02T17:25:22.999Z</time></trkpt><trkpt lat="42.308334090667955" lon="13.29752658526068"><ele>773.0</ele><time>2026-05-02T17:25:23.999Z</time></trkpt><trkpt lat="42.308316833838134" lon="13.297627540753979"><ele>772.5</ele><time>2026-05-02T17:25:24.999Z</time></trkpt><trkpt lat="42.30832508333047" lon="13.29775743927103"><ele>772.0</ele><time>2026-05-02T17:25:25.999Z</time></trkpt><trkpt lat="42.3083392203216" lon="13.297880582397925"><ele>771.5</ele><time>2026-05-02T17:25:26.999Z</time></trkpt><trkpt lat="42.308349764393554" lon="13.297967338618545"><ele>771.0</ele><time>2026-05-02T17:25:27.999Z</time></trkpt><trkpt lat="42.30837366366825" lon="13.298127388717877"><ele>770.5</ele><time>2026-05-02T17:25:29.999Z</time></trkpt><trkpt lat="42.308380033706136" lon="13.298254423468519"><ele>770.0</ele><time>2026-05-02T17:25:31.999Z</time></trkpt><trkpt lat="42.308319197098484" lon="13.298369956286361"><ele>769.5</ele><time>2026-05-02T17:25:33.999Z</time></trkpt><trkpt lat="42.30826004791305" lon="13.298415792918119"><ele>769.0</ele><time>2026-05-02T17:25:34.999Z</time></trkpt><trkpt lat="42.30819877569395" lon="13.29845399181699"><ele>768.5</ele><time>2026-05-02T17:25:35.999Z</time></trkpt><trkpt lat="42.308139477693125" lon="13.298515210091036"><ele>768.0</ele><time>2026-05-02T17:25:36.999Z</time></trkpt><trkpt lat="42.30808068265238" lon="13.298559689676052"><ele>768.9999999999999</ele><time>2026-05-02T17:25:37.999Z</time></trkpt><trkpt lat="42.3080080758195" lon="13.298576866955012"><ele>770.0</ele><time>2026-05-02T17:25:38.999Z</time></trkpt><trkpt lat="42.30793308215085" lon="13.2985857436402"><ele>771.0</ele><time>2026-05-02T17:25:39.999Z</time></trkpt><trkpt lat="42.30785989940163" lon="13.298583387485426"><ele>772.0</ele><time>2026-05-02T17:25:40.999Z</time></trkpt><trkpt lat="42.30779063879896" lon="13.298596121923314"><ele>773.0</ele><time>2026-05-02T17:25:41.999Z</time></trkpt><trkpt lat="42.30772308579176" lon="13.29861876480474"><ele>773.9999999999999</ele><time>2026-05-02T17:25:42.999Z</time></trkpt><trkpt lat="42.307659364515935" lon="13.298663111348233"><ele>775.0</ele><time>2026-05-02T17:25:43.999Z</time></trkpt><trkpt lat="42.3076036042757" lon="13.298730002676054"><ele>774.9999999999999</ele><time>2026-05-02T17:25:44.999Z</time></trkpt><trkpt lat="42.3075492581857" lon="13.298799205844064"><ele>775.0</ele><time>2026-05-02T17:25:45.999Z</time></trkpt><trkpt lat="42.30750648419516" lon="13.298870423166443"><ele>775.0</ele><time>2026-05-02T17:25:46.999Z</time></trkpt><trkpt lat="42.30748638516203" lon="13.298956791644425"><ele>775.0</ele><time>2026-05-02T17:25:47.999Z</time></trkpt><trkpt lat="42.30747562119336" lon="13.299065535814222"><ele>775.0</ele><time>2026-05-02T17:25:48.999Z</time></trkpt><trkpt lat="42.30745384490906" lon="13.299165662446905"><ele>774.9999999999999</ele><time>2026-05-02T17:25:49.999Z</time></trkpt><trkpt lat="42.307408492759734" lon="13.299253375881934"><ele>775.0</ele><time>2026-05-02T17:25:50.999Z</time></trkpt><trkpt lat="42.3073456558711" lon="13.299281870392472"><ele>775.2</ele><time>2026-05-02T17:25:51.999Z</time></trkpt><trkpt lat="42.30721440374948" lon="13.299271623395235"><ele>775.4</ele><time>2026-05-02T17:25:53.999Z</time></trkpt><trkpt lat="42.30713943066872" lon="13.299280847670387"><ele>775.5999999999999</ele><time>2026-05-02T17:25:54.999Z</time></trkpt><trkpt lat="42.30706460850348" lon="13.299281848639852"><ele>775.8</ele><time>2026-05-02T17:25:55.999Z</time></trkpt><trkpt lat="42.30694652433601" lon="13.299255753067861"><ele>776.0</ele><time>2026-05-02T17:25:57.999Z</time></trkpt><trkpt lat="42.30687203260136" lon="13.299349159473309"><ele>776.0</ele><time>2026-05-02T17:25:59.999Z</time></trkpt><trkpt lat="42.306810892160804" lon="13.29945776258677"><ele>776.0</ele><time>2026-05-02T17:26:01.999Z</time></trkpt><trkpt lat="42.306703707427445" lon="13.299441410694273"><ele>776.0</ele><time>2026-05-02T17:26:03.999Z</time></trkpt><trkpt lat="42.306605828252344" lon="13.29945010108604"><ele>776.0</ele><time>2026-05-02T17:26:05.999Z</time></trkpt><trkpt lat="42.30657422757932" lon="13.299548806141939"><ele>776.0</ele><time>2026-05-02T17:26:07.999Z</time></trkpt><trkpt lat="42.30655179916046" lon="13.299648033573256"><ele>776.0000000000001</ele><time>2026-05-02T17:26:09.999Z</time></trkpt><trkpt lat="42.306515765893685" lon="13.299725700272779"><ele>776.0</ele><time>2026-05-02T17:26:10.999Z</time></trkpt><trkpt lat="42.30643366924419" lon="13.299805960978967"><ele>776.0</ele><time>2026-05-02T17:26:12.998Z</time></trkpt><trkpt lat="42.306350137091556" lon="13.29983250224464"><ele>776.0</ele><time>2026-05-02T17:26:14.998Z</time></trkpt><trkpt lat="42.3062763206347" lon="13.299892399924396"><ele>776.0000000000001</ele><time>2026-05-02T17:26:16.998Z</time></trkpt><trkpt lat="42.306190234900804" lon="13.299980855659124"><ele>776.0</ele><time>2026-05-02T17:26:18.998Z</time></trkpt><trkpt lat="42.30610523591382" lon="13.300029473119572"><ele>776.1999999999999</ele><time>2026-05-02T17:26:20.998Z</time></trkpt><trkpt lat="42.30602024395226" lon="13.299967890325595"><ele>776.4</ele><time>2026-05-02T17:26:22.998Z</time></trkpt><trkpt lat="42.30591196880017" lon="13.299974319472845"><ele>776.6</ele><time>2026-05-02T17:26:24.998Z</time></trkpt><trkpt lat="42.305832186900474" lon="13.300047847369722"><ele>776.8</ele><time>2026-05-02T17:26:26.998Z</time></trkpt><trkpt lat="42.30573643379594" lon="13.300157323907655"><ele>777.0</ele><time>2026-05-02T17:26:28.998Z</time></trkpt><trkpt lat="42.30562620223187" lon="13.300219242848941"><ele>778.1666666666666</ele><time>2026-05-02T17:26:30.998Z</time></trkpt><trkpt lat="42.305513903389866" lon="13.300305792818738"><ele>779.3333333333333</ele><time>2026-05-02T17:26:32.998Z</time></trkpt><trkpt lat="42.30546538105807" lon="13.300385642442665"><ele>780.5</ele><time>2026-05-02T17:26:33.998Z</time></trkpt><trkpt lat="42.305368243760846" lon="13.300428890709268"><ele>781.6666666666666</ele><time>2026-05-02T17:26:35.998Z</time></trkpt><trkpt lat="42.30530373475431" lon="13.30042216702524"><ele>782.8333333333333</ele><time>2026-05-02T17:26:36.998Z</time></trkpt><trkpt lat="42.30524286405447" lon="13.300445383463515"><ele>784.0</ele><time>2026-05-02T17:26:37.998Z</time></trkpt><trkpt lat="42.30518078752809" lon="13.300506608301262"><ele>783.9999999999999</ele><time>2026-05-02T17:26:38.998Z</time></trkpt><trkpt lat="42.305129425852996" lon="13.300581394644476"><ele>784.0</ele><time>2026-05-02T17:26:39.998Z</time></trkpt><trkpt lat="42.3050757588125" lon="13.30064389549067"><ele>784.0</ele><time>2026-05-02T17:26:40.998Z</time></trkpt><trkpt lat="42.30499243633579" lon="13.300698228485595"><ele>784.0</ele><time>2026-05-02T17:26:41.998Z</time></trkpt><trkpt lat="42.30490929547523" lon="13.300755022305934"><ele>783.9999999999999</ele><time>2026-05-02T17:26:42.998Z</time></trkpt><trkpt lat="42.30482965286127" lon="13.300817842662358"><ele>784.0</ele><time>2026-05-02T17:26:44Z</time></trkpt><trkpt lat="42.30476720420428" lon="13.300850183347006"><ele>783.2</ele><time>2026-05-02T17:26:45Z</time></trkpt><trkpt lat="42.30469368926958" lon="13.30089052247413"><ele>782.4000000000001</ele><time>2026-05-02T17:26:46Z</time></trkpt><trkpt lat="42.30462663831174" lon="13.30091304996633"><ele>781.6</ele><time>2026-05-02T17:26:47Z</time></trkpt><trkpt lat="42.304522417228824" lon="13.300929882401068"><ele>780.8</ele><time>2026-05-02T17:26:49Z</time></trkpt><trkpt lat="42.30442050258253" lon="13.300901248439049"><ele>780.0</ele><time>2026-05-02T17:26:51Z</time></trkpt><trkpt lat="42.30431596310961" lon="13.300875374741823"><ele>780.0</ele><time>2026-05-02T17:26:53Z</time></trkpt><trkpt lat="42.30424764660645" lon="13.30090860928932"><ele>780.0</ele><time>2026-05-02T17:26:54Z</time></trkpt><trkpt lat="42.304191705028316" lon="13.30096184908912"><ele>780.0</ele><time>2026-05-02T17:26:55Z</time></trkpt><trkpt lat="42.30414721862616" lon="13.301038989253469"><ele>780.0</ele><time>2026-05-02T17:26:56Z</time></trkpt><trkpt lat="42.304102860884754" lon="13.301117575113528"><ele>780.0</ele><time>2026-05-02T17:26:57Z</time></trkpt><trkpt lat="42.30405910623228" lon="13.30118160150699"><ele>780.0</ele><time>2026-05-02T17:26:58Z</time></trkpt><trkpt lat="42.30398006883367" lon="13.301271991121668"><ele>781.0</ele><time>2026-05-02T17:27:00Z</time></trkpt><trkpt lat="42.303903887864344" lon="13.301360863448403"><ele>782.0</ele><time>2026-05-02T17:27:02Z</time></trkpt><trkpt lat="42.303844804807845" lon="13.301414673269173"><ele>783.0</ele><time>2026-05-02T17:27:04Z</time></trkpt><trkpt lat="42.30374409384533" lon="13.301417214878114"><ele>784.0</ele><time>2026-05-02T17:27:11Z</time></trkpt><trkpt lat="42.30363594020865" lon="13.301366100346371"><ele>785.0</ele><time>2026-05-02T17:27:12.999Z</time></trkpt><trkpt lat="42.303533731826725" lon="13.301362953522151"><ele>785.0</ele><time>2026-05-02T17:27:14.999Z</time></trkpt><trkpt lat="42.30343689380842" lon="13.301458556844839"><ele>785.0</ele><time>2026-05-02T17:27:16.999Z</time></trkpt><trkpt lat="42.303380220797344" lon="13.301508847116699"><ele>785.0</ele><time>2026-05-02T17:27:17.999Z</time></trkpt><trkpt lat="42.30327019908362" lon="13.301537277027478"><ele>785.0</ele><time>2026-05-02T17:27:19.999Z</time></trkpt><trkpt lat="42.3031764410015" lon="13.30150973009479"><ele>785.0</ele><time>2026-05-02T17:27:21.999Z</time></trkpt><trkpt lat="42.30303581996224" lon="13.301514387329425"><ele>785.2857142857143</ele><time>2026-05-02T17:27:23.999Z</time></trkpt><trkpt lat="42.302953708217316" lon="13.301539460304816"><ele>785.5714285714286</ele><time>2026-05-02T17:27:24.999Z</time></trkpt><trkpt lat="42.30286761742337" lon="13.301568849412098"><ele>785.8571428571429</ele><time>2026-05-02T17:27:25.999Z</time></trkpt><trkpt lat="42.30280095170389" lon="13.301598024216252"><ele>786.1428571428571</ele><time>2026-05-02T17:27:26.999Z</time></trkpt><trkpt lat="42.302737032799456" lon="13.301634812776514"><ele>786.4285714285713</ele><time>2026-05-02T17:27:27.999Z</time></trkpt><trkpt lat="42.30266920742732" lon="13.301657315924306"><ele>786.7142857142857</ele><time>2026-05-02T17:27:28.999Z</time></trkpt><trkpt lat="42.30260303686551" lon="13.301659636039286"><ele>787.0</ele><time>2026-05-02T17:27:29.999Z</time></trkpt><trkpt lat="42.30253295137323" lon="13.301643277549948"><ele>787.0</ele><time>2026-05-02T17:27:30.999Z</time></trkpt><trkpt lat="42.302467014768716" lon="13.301615125263183"><ele>787.0</ele><time>2026-05-02T17:27:31.999Z</time></trkpt><trkpt lat="42.30235712503003" lon="13.301645982725528"><ele>787.0</ele><time>2026-05-02T17:27:33.999Z</time></trkpt><trkpt lat="42.30225709802171" lon="13.301755984360078"><ele>787.0</ele><time>2026-05-02T17:27:35.999Z</time></trkpt><trkpt lat="42.30218232652603" lon="13.30181439880166"><ele>787.0</ele><time>2026-05-02T17:27:36.999Z</time></trkpt><trkpt lat="42.30207653889506" lon="13.301847963244947"><ele>786.9999999999999</ele><time>2026-05-02T17:27:38.999Z</time></trkpt><trkpt lat="42.302000587968" lon="13.301862712532936"><ele>787.0</ele><time>2026-05-02T17:27:40.999Z</time></trkpt><trkpt lat="42.3019600810958" lon="13.301931229318702"><ele>787.0</ele><time>2026-05-02T17:27:45.999Z</time></trkpt><trkpt lat="42.301922146407335" lon="13.302007549399214"><ele>787.0</ele><time>2026-05-02T17:27:47.999Z</time></trkpt><trkpt lat="42.30188686769067" lon="13.302098436123817"><ele>786.9999999999999</ele><time>2026-05-02T17:27:48.999Z</time></trkpt><trkpt lat="42.30182013598282" lon="13.302215240787016"><ele>787.0</ele><time>2026-05-02T17:27:50.999Z</time></trkpt><trkpt lat="42.30177961815656" lon="13.30230367206258"><ele>788.3333333333333</ele><time>2026-05-02T17:27:52.999Z</time></trkpt><trkpt lat="42.301852430523965" lon="13.302306284205901"><ele>789.6666666666666</ele><time>2026-05-02T17:27:57.999Z</time></trkpt><trkpt lat="42.30194316827154" lon="13.302289018210745"><ele>791.0</ele><time>2026-05-02T17:27:59.999Z</time></trkpt><trkpt lat="42.30201875446884" lon="13.302409820592798"><ele>792.3333333333333</ele><time>2026-05-02T17:28:01.999Z</time></trkpt><trkpt lat="42.30205867072441" lon="13.302495440425837"><ele>793.6666666666666</ele><time>2026-05-02T17:28:02.999Z</time></trkpt><trkpt lat="42.30211133402217" lon="13.302578069374372"><ele>795.0</ele><time>2026-05-02T17:28:03.999Z</time></trkpt><trkpt lat="42.30217169430045" lon="13.302643254240584"><ele>795.0</ele><time>2026-05-02T17:28:04.999Z</time></trkpt><trkpt lat="42.302247617979475" lon="13.302677261203485"><ele>795.0</ele><time>2026-05-02T17:28:05.999Z</time></trkpt><trkpt lat="42.302335284279984" lon="13.302695716224305"><ele>795.0</ele><time>2026-05-02T17:28:06.999Z</time></trkpt><trkpt lat="42.30242326252837" lon="13.30271648429541"><ele>795.0</ele><time>2026-05-02T17:28:07.999Z</time></trkpt><trkpt lat="42.30251276665798" lon="13.30275408098098"><ele>795.0</ele><time>2026-05-02T17:28:08.999Z</time></trkpt><trkpt lat="42.30260074217959" lon="13.302800962174475"><ele>795.0</ele><time>2026-05-02T17:28:09.999Z</time></trkpt><trkpt lat="42.30271481932916" lon="13.302855265665064"><ele>794.5</ele><time>2026-05-02T17:28:10.999Z</time></trkpt><trkpt lat="42.30283026028194" lon="13.302874895468662"><ele>794.0</ele><time>2026-05-02T17:28:11.999Z</time></trkpt><trkpt lat="42.30295324225774" lon="13.302860319987493"><ele>793.5</ele><time>2026-05-02T17:28:12.999Z</time></trkpt><trkpt lat="42.303078320634405" lon="13.302819933694654"><ele>793.0</ele><time>2026-05-02T17:28:13.999Z</time></trkpt><trkpt lat="42.30320300076537" lon="13.302793897796112"><ele>793.0</ele><time>2026-05-02T17:28:14.999Z</time></trkpt><trkpt lat="42.303322416161386" lon="13.302756475241702"><ele>793.0</ele><time>2026-05-02T17:28:15.999Z</time></trkpt><trkpt lat="42.30344034080302" lon="13.302733897612757"><ele>793.0</ele><time>2026-05-02T17:28:16.999Z</time></trkpt><trkpt lat="42.30355419555816" lon="13.302716245742442"><ele>793.0</ele><time>2026-05-02T17:28:17.999Z</time></trkpt><trkpt lat="42.303667297985974" lon="13.30269988191375"><ele>793.0</ele><time>2026-05-02T17:28:18.999Z</time></trkpt><trkpt lat="42.303790591518926" lon="13.302690867906167"><ele>793.0</ele><time>2026-05-02T17:28:19.998Z</time></trkpt><trkpt lat="42.30391509650931" lon="13.302703072062794"><ele>793.0</ele><time>2026-05-02T17:28:20.998Z</time></trkpt><trkpt lat="42.30403752501441" lon="13.302717043406895"><ele>793.0</ele><time>2026-05-02T17:28:21.998Z</time></trkpt><trkpt lat="42.30416094748308" lon="13.302730521394357"><ele>794.0</ele><time>2026-05-02T17:28:22.998Z</time></trkpt><trkpt lat="42.30428327815603" lon="13.302766098051553"><ele>795.0</ele><time>2026-05-02T17:28:23.998Z</time></trkpt><trkpt lat="42.30441102908795" lon="13.302777012909454"><ele>796.0</ele><time>2026-05-02T17:28:24.998Z</time></trkpt><trkpt lat="42.30453735061149" lon="13.302762311081189"><ele>797.0</ele><time>2026-05-02T17:28:25.998Z</time></trkpt><trkpt lat="42.30466451595096" lon="13.302717151407641"><ele>798.75</ele><time>2026-05-02T17:28:26.998Z</time></trkpt><trkpt lat="42.30478876136252" lon="13.30265394963449"><ele>800.5</ele><time>2026-05-02T17:28:27.998Z</time></trkpt><trkpt lat="42.30491352612747" lon="13.302599083890126"><ele>802.25</ele><time>2026-05-02T17:28:28.998Z</time></trkpt><trkpt lat="42.305045297948666" lon="13.302549450230254"><ele>804.0</ele><time>2026-05-02T17:28:29.998Z</time></trkpt><trkpt lat="42.30517502559167" lon="13.302507844559486"><ele>804.0</ele><time>2026-05-02T17:28:30.998Z</time></trkpt><trkpt lat="42.305294004303654" lon="13.30246954107959"><ele>804.0</ele><time>2026-05-02T17:28:31.998Z</time></trkpt><trkpt lat="42.305409714773866" lon="13.302441814276317"><ele>804.0</ele><time>2026-05-02T17:28:32.998Z</time></trkpt><trkpt lat="42.305528892308025" lon="13.302405163334498"><ele>804.0</ele><time>2026-05-02T17:28:33.998Z</time></trkpt><trkpt lat="42.305657629652394" lon="13.302384403802785"><ele>804.5</ele><time>2026-05-02T17:28:34.998Z</time></trkpt><trkpt lat="42.30578860602975" lon="13.302348433829158"><ele>805.0</ele><time>2026-05-02T17:28:35.998Z</time></trkpt><trkpt lat="42.30592263217538" lon="13.302311912939068"><ele>805.5</ele><time>2026-05-02T17:28:36.998Z</time></trkpt><trkpt lat="42.306060493133046" lon="13.302273387270976"><ele>806.0</ele><time>2026-05-02T17:28:37.998Z</time></trkpt><trkpt lat="42.306196836860124" lon="13.302240755356257"><ele>803.75</ele><time>2026-05-02T17:28:38.998Z</time></trkpt><trkpt lat="42.30634016282753" lon="13.30222206262414"><ele>801.5</ele><time>2026-05-02T17:28:39.998Z</time></trkpt><trkpt lat="42.30647263647053" lon="13.302130347115202"><ele>799.25</ele><time>2026-05-02T17:28:40.998Z</time></trkpt><trkpt lat="42.30661528734296" lon="13.302058778462735"><ele>797.0</ele><time>2026-05-02T17:28:41.998Z</time></trkpt><trkpt lat="42.30677044263874" lon="13.301982188658785"><ele>797.0</ele><time>2026-05-02T17:28:42.998Z</time></trkpt><trkpt lat="42.306937439356766" lon="13.301912817907127"><ele>797.0</ele><time>2026-05-02T17:28:43.998Z</time></trkpt><trkpt lat="42.30711284258809" lon="13.301852567446367"><ele>797.0</ele><time>2026-05-02T17:28:44.998Z</time></trkpt><trkpt lat="42.30729053295945" lon="13.301807706033832"><ele>798.0</ele><time>2026-05-02T17:28:45.998Z</time></trkpt><trkpt lat="42.30746215589798" lon="13.30176713255637"><ele>799.0</ele><time>2026-05-02T17:28:46.998Z</time></trkpt><trkpt lat="42.30762639683821" lon="13.301721785946837"><ele>800.0</ele><time>2026-05-02T17:28:47.998Z</time></trkpt><trkpt lat="42.30778559888646" lon="13.301674233923825"><ele>800.0</ele><time>2026-05-02T17:28:48.998Z</time></trkpt><trkpt lat="42.30792958825749" lon="13.301612244516205"><ele>800.0</ele><time>2026-05-02T17:28:50Z</time></trkpt><trkpt lat="42.30806056907337" lon="13.301538882504364"><ele>800.0</ele><time>2026-05-02T17:28:51Z</time></trkpt><trkpt lat="42.30818013249558" lon="13.301434041102468"><ele>800.0</ele><time>2026-05-02T17:28:52Z</time></trkpt><trkpt lat="42.308276565298904" lon="13.30129904080379"><ele>799.25</ele><time>2026-05-02T17:28:53Z</time></trkpt><trkpt lat="42.30836614529276" lon="13.30115419381944"><ele>798.5</ele><time>2026-05-02T17:28:54Z</time></trkpt><trkpt lat="42.308463482642345" lon="13.301006411554187"><ele>797.75</ele><time>2026-05-02T17:28:55Z</time></trkpt><trkpt lat="42.30856747534046" lon="13.300872368050642"><ele>797.0</ele><time>2026-05-02T17:28:56Z</time></trkpt><trkpt lat="42.30867668626918" lon="13.300751644164723"><ele>797.0</ele><time>2026-05-02T17:28:57Z</time></trkpt><trkpt lat="42.30879033696237" lon="13.30063974345262"><ele>797.0</ele><time>2026-05-02T17:28:58Z</time></trkpt><trkpt lat="42.308911377592544" lon="13.300538929926091"><ele>797.0</ele><time>2026-05-02T17:28:59Z</time></trkpt><trkpt lat="42.309040112193976" lon="13.300451165697158"><ele>797.0</ele><time>2026-05-02T17:29:00Z</time></trkpt><trkpt lat="42.30918308132106" lon="13.300376324254447"><ele>796.5</ele><time>2026-05-02T17:29:01Z</time></trkpt><trkpt lat="42.30932031055838" lon="13.300320914115805"><ele>796.0</ele><time>2026-05-02T17:29:02Z</time></trkpt><trkpt lat="42.309450094404525" lon="13.300281879596097"><ele>795.5</ele><time>2026-05-02T17:29:03Z</time></trkpt><trkpt lat="42.30957646490661" lon="13.300247823119394"><ele>795.0</ele><time>2026-05-02T17:29:04Z</time></trkpt><trkpt lat="42.30970232074546" lon="13.300218667190537"><ele>798.25</ele><time>2026-05-02T17:29:05Z</time></trkpt><trkpt lat="42.30981832856402" lon="13.30018688516099"><ele>801.5</ele><time>2026-05-02T17:29:06Z</time></trkpt><trkpt lat="42.30992666947883" lon="13.30015295240452"><ele>804.75</ele><time>2026-05-02T17:29:07Z</time></trkpt><trkpt lat="42.310027793388684" lon="13.300091409674117"><ele>808.0</ele><time>2026-05-02T17:29:08Z</time></trkpt><trkpt lat="42.310119006951254" lon="13.300007944164435"><ele>808.0</ele><time>2026-05-02T17:29:09Z</time></trkpt><trkpt lat="42.310191917372826" lon="13.299890021703817"><ele>808.0</ele><time>2026-05-02T17:29:10Z</time></trkpt><trkpt lat="42.31024282131663" lon="13.299745622121028"><ele>808.0</ele><time>2026-05-02T17:29:11Z</time></trkpt><trkpt lat="42.31029084147573" lon="13.299604235331051"><ele>808.0</ele><time>2026-05-02T17:29:12Z</time></trkpt><trkpt lat="42.31034730021858" lon="13.299465886494286"><ele>808.5</ele><time>2026-05-02T17:29:13Z</time></trkpt><trkpt lat="42.31042447212305" lon="13.299360148644007"><ele>809.0</ele><time>2026-05-02T17:29:13.999Z</time></trkpt><trkpt lat="42.31051506374811" lon="13.299268022022199"><ele>809.5</ele><time>2026-05-02T17:29:14.999Z</time></trkpt><trkpt lat="42.3106116782427" lon="13.299184991262239"><ele>810.0</ele><time>2026-05-02T17:29:15.999Z</time></trkpt><trkpt lat="42.31071341227366" lon="13.29910763439676"><ele>810.0</ele><time>2026-05-02T17:29:16.999Z</time></trkpt><trkpt lat="42.31081897495041" lon="13.299024257293686"><ele>810.0</ele><time>2026-05-02T17:29:17.999Z</time></trkpt><trkpt lat="42.31092239276255" lon="13.298941952721137"><ele>810.0</ele><time>2026-05-02T17:29:18.999Z</time></trkpt><trkpt lat="42.31102950598739" lon="13.298855795463945"><ele>810.0</ele><time>2026-05-02T17:29:19.999Z</time></trkpt><trkpt lat="42.311136935097394" lon="13.29877257893878"><ele>810.0</ele><time>2026-05-02T17:29:20.999Z</time></trkpt><trkpt lat="42.31124319849283" lon="13.298686362651686"><ele>810.0</ele><time>2026-05-02T17:29:21.999Z</time></trkpt><trkpt lat="42.31134645215874" lon="13.298609011573312"><ele>810.0</ele><time>2026-05-02T17:29:22.999Z</time></trkpt><trkpt lat="42.311447797661444" lon="13.298537380300422"><ele>810.0</ele><time>2026-05-02T17:29:23.999Z</time></trkpt><trkpt lat="42.31155359319582" lon="13.298478962599352"><ele>810.4</ele><time>2026-05-02T17:29:24.999Z</time></trkpt><trkpt lat="42.31165600257595" lon="13.298428220988539"><ele>810.8</ele><time>2026-05-02T17:29:25.999Z</time></trkpt><trkpt lat="42.311754234154684" lon="13.298368955922227"><ele>811.2</ele><time>2026-05-02T17:29:26.999Z</time></trkpt><trkpt lat="42.31185588789517" lon="13.298308648022113"><ele>811.6</ele><time>2026-05-02T17:29:27.999Z</time></trkpt><trkpt lat="42.31195760743429" lon="13.298257206656436"><ele>812.0</ele><time>2026-05-02T17:29:28.999Z</time></trkpt><trkpt lat="42.312062119582656" lon="13.298221032952162"><ele>812.0</ele><time>2026-05-02T17:29:29.999Z</time></trkpt><trkpt lat="42.31216535441048" lon="13.298201085686156"><ele>812.0</ele><time>2026-05-02T17:29:30.999Z</time></trkpt><trkpt lat="42.31226977395936" lon="13.298183795801517"><ele>812.0</ele><time>2026-05-02T17:29:31.999Z</time></trkpt><trkpt lat="42.3123783447784" lon="13.298173252413726"><ele>812.0</ele><time>2026-05-02T17:29:32.999Z</time></trkpt><trkpt lat="42.312481755338695" lon="13.298160820196921"><ele>812.0</ele><time>2026-05-02T17:29:33.999Z</time></trkpt><trkpt lat="42.312582080997885" lon="13.298144046531899"><ele>811.8333333333334</ele><time>2026-05-02T17:29:34.999Z</time></trkpt><trkpt lat="42.3126726464191" lon="13.29813152810711"><ele>811.6666666666667</ele><time>2026-05-02T17:29:35.999Z</time></trkpt><trkpt lat="42.31275814513394" lon="13.298120634866407"><ele>811.5</ele><time>2026-05-02T17:29:36.999Z</time></trkpt><trkpt lat="42.312834120182806" lon="13.298114541050838"><ele>811.3333333333333</ele><time>2026-05-02T17:29:37.999Z</time></trkpt><trkpt lat="42.312900099988376" lon="13.29810898011944"><ele>811.1666666666666</ele><time>2026-05-02T17:29:38.999Z</time></trkpt><trkpt lat="42.31296533838696" lon="13.298111071144792"><ele>811.0</ele><time>2026-05-02T17:29:39.999Z</time></trkpt><trkpt lat="42.31304184233951" lon="13.298099285365677"><ele>810.8333333333333</ele><time>2026-05-02T17:29:40.999Z</time></trkpt><trkpt lat="42.31312102855297" lon="13.298085067159567"><ele>810.6666666666666</ele><time>2026-05-02T17:29:41.999Z</time></trkpt><trkpt lat="42.31319799989407" lon="13.29804572815357"><ele>810.5</ele><time>2026-05-02T17:29:42.999Z</time></trkpt><trkpt lat="42.313277128205854" lon="13.298007212594253"><ele>810.3333333333333</ele><time>2026-05-02T17:29:43.999Z</time></trkpt><trkpt lat="42.31335015512093" lon="13.29797334243639"><ele>810.1666666666666</ele><time>2026-05-02T17:29:44.999Z</time></trkpt><trkpt lat="42.3134230967397" lon="13.297930852024848"><ele>810.0</ele><time>2026-05-02T17:29:45.999Z</time></trkpt><trkpt lat="42.31348455104659" lon="13.297887492436065"><ele>809.7142857142857</ele><time>2026-05-02T17:29:46.999Z</time></trkpt><trkpt lat="42.313544752960006" lon="13.297838951225682"><ele>809.4285714285714</ele><time>2026-05-02T17:29:47.999Z</time></trkpt><trkpt lat="42.31360389084713" lon="13.297790011247809"><ele>809.1428571428571</ele><time>2026-05-02T17:29:48.999Z</time></trkpt><trkpt lat="42.31366988895296" lon="13.297752017708195"><ele>808.8571428571429</ele><time>2026-05-02T17:29:49.999Z</time></trkpt><trkpt lat="42.31374128625628" lon="13.297715465040861"><ele>808.5714285714286</ele><time>2026-05-02T17:29:50.999Z</time></trkpt><trkpt lat="42.31381651803863" lon="13.297677357680085"><ele>808.2857142857142</ele><time>2026-05-02T17:29:51.999Z</time></trkpt><trkpt lat="42.31389198747244" lon="13.297640226653773"><ele>808.0</ele><time>2026-05-02T17:29:52.999Z</time></trkpt><trkpt lat="42.313965134577685" lon="13.297615966686333"><ele>807.4</ele><time>2026-05-02T17:29:53.999Z</time></trkpt><trkpt lat="42.31403407749817" lon="13.297613218220095"><ele>806.8</ele><time>2026-05-02T17:29:54.999Z</time></trkpt><trkpt lat="42.31410371058446" lon="13.297702576338004"><ele>806.2</ele><time>2026-05-02T17:29:56.999Z</time></trkpt><trkpt lat="42.31411093686604" lon="13.297889912543091"><ele>805.6</ele><time>2026-05-02T17:29:58.999Z</time></trkpt><trkpt lat="42.31412123729463" lon="13.298009439932658"><ele>805.0</ele><time>2026-05-02T17:29:59.999Z</time></trkpt><trkpt lat="42.31413987864996" lon="13.298143232042337"><ele>805.0</ele><time>2026-05-02T17:30:00.999Z</time></trkpt><trkpt lat="42.31416170227744" lon="13.29826829489236"><ele>805.0</ele><time>2026-05-02T17:30:01.999Z</time></trkpt><trkpt lat="42.31418556898164" lon="13.29839261995758"><ele>805.0</ele><time>2026-05-02T17:30:02.999Z</time></trkpt><trkpt lat="42.3142117788842" lon="13.298510319766745"><ele>805.0</ele><time>2026-05-02T17:30:03.999Z</time></trkpt><trkpt lat="42.31423904308639" lon="13.298631372383893"><ele>805.0</ele><time>2026-05-02T17:30:04.999Z</time></trkpt><trkpt lat="42.314264885951715" lon="13.29875300493878"><ele>805.0</ele><time>2026-05-02T17:30:05.999Z</time></trkpt><trkpt lat="42.31429044251461" lon="13.298875313200357"><ele>805.0</ele><time>2026-05-02T17:30:06.999Z</time></trkpt><trkpt lat="42.31431638825373" lon="13.29899665845807"><ele>805.0</ele><time>2026-05-02T17:30:07.999Z</time></trkpt><trkpt lat="42.314344107155776" lon="13.29911718531204"><ele>805.0</ele><time>2026-05-02T17:30:08.999Z</time></trkpt><trkpt lat="42.31438740754919" lon="13.299223203324242"><ele>805.0</ele><time>2026-05-02T17:30:09.999Z</time></trkpt><trkpt lat="42.31445684825264" lon="13.299309063570915"><ele>804.0</ele><time>2026-05-02T17:30:10.999Z</time></trkpt><trkpt lat="42.31454401033439" lon="13.299358039116726"><ele>803.0</ele><time>2026-05-02T17:30:11.999Z</time></trkpt><trkpt lat="42.314642390800365" lon="13.299380894899372"><ele>802.0</ele><time>2026-05-02T17:30:12.999Z</time></trkpt><trkpt lat="42.31475914675321" lon="13.299397896549863"><ele>801.0</ele><time>2026-05-02T17:30:13.999Z</time></trkpt><trkpt lat="42.31488442310327" lon="13.299417969661857"><ele>800.0</ele><time>2026-05-02T17:30:14.999Z</time></trkpt><trkpt lat="42.315007169425016" lon="13.299433469638469"><ele>798.4</ele><time>2026-05-02T17:30:15.999Z</time></trkpt><trkpt lat="42.3151254162315" lon="13.299443757548888"><ele>796.8</ele><time>2026-05-02T17:30:16.999Z</time></trkpt><trkpt lat="42.31523894299355" lon="13.299442721358044"><ele>795.2</ele><time>2026-05-02T17:30:17.999Z</time></trkpt><trkpt lat="42.31534836448095" lon="13.299437034642164"><ele>793.6</ele><time>2026-05-02T17:30:18.999Z</time></trkpt><trkpt lat="42.31545385596056" lon="13.299440498398022"><ele>792.0</ele><time>2026-05-02T17:30:19.999Z</time></trkpt><trkpt lat="42.31555634448177" lon="13.299455163076637"><ele>791.2</ele><time>2026-05-02T17:30:20.999Z</time></trkpt><trkpt lat="42.31565564864421" lon="13.299502710277759"><ele>790.4000000000001</ele><time>2026-05-02T17:30:21.998Z</time></trkpt><trkpt lat="42.31574345935384" lon="13.299581082591736"><ele>789.5999999999999</ele><time>2026-05-02T17:30:22.998Z</time></trkpt><trkpt lat="42.31583055857853" lon="13.299673130861203"><ele>788.8</ele><time>2026-05-02T17:30:23.998Z</time></trkpt><trkpt lat="42.315915847820335" lon="13.299772131004438"><ele>788.0</ele><time>2026-05-02T17:30:24.998Z</time></trkpt><trkpt lat="42.316022983026" lon="13.299854146098452"><ele>788.0</ele><time>2026-05-02T17:30:25.998Z</time></trkpt><trkpt lat="42.316151354923036" lon="13.299911264246724"><ele>788.0</ele><time>2026-05-02T17:30:26.998Z</time></trkpt><trkpt lat="42.316290083005605" lon="13.29995695725681"><ele>788.0</ele><time>2026-05-02T17:30:27.998Z</time></trkpt><trkpt lat="42.316425114285195" lon="13.299977877217733"><ele>788.0</ele><time>2026-05-02T17:30:28.998Z</time></trkpt><trkpt lat="42.31657524080148" lon="13.299972327221598"><ele>789.0</ele><time>2026-05-02T17:30:29.998Z</time></trkpt><trkpt lat="42.31673002983524" lon="13.299954082036328"><ele>790.0</ele><time>2026-05-02T17:30:30.998Z</time></trkpt><trkpt lat="42.31688713930675" lon="13.299939594072416"><ele>791.0</ele><time>2026-05-02T17:30:31.998Z</time></trkpt><trkpt lat="42.3170434344945" lon="13.299941935088869"><ele>791.0</ele><time>2026-05-02T17:30:32.998Z</time></trkpt><trkpt lat="42.317198489624076" lon="13.299948404191008"><ele>791.0</ele><time>2026-05-02T17:30:33.998Z</time></trkpt><trkpt lat="42.31735110526922" lon="13.299953862269366"><ele>791.0</ele><time>2026-05-02T17:30:34.998Z</time></trkpt><trkpt lat="42.317496221743504" lon="13.299970056457735"><ele>791.5</ele><time>2026-05-02T17:30:35.998Z</time></trkpt><trkpt lat="42.31762004589903" lon="13.299978624611498"><ele>792.0</ele><time>2026-05-02T17:30:36.998Z</time></trkpt><trkpt lat="42.3177457894577" lon="13.300000081888095"><ele>792.5</ele><time>2026-05-02T17:30:37.998Z</time></trkpt><trkpt lat="42.317855431988725" lon="13.300026853950222"><ele>793.0</ele><time>2026-05-02T17:30:38.998Z</time></trkpt><trkpt lat="42.317937694432054" lon="13.300096463552933"><ele>793.0</ele><time>2026-05-02T17:30:39.998Z</time></trkpt><trkpt lat="42.31799498163977" lon="13.300215574479681"><ele>793.0</ele><time>2026-05-02T17:30:40.998Z</time></trkpt><trkpt lat="42.318058428240086" lon="13.300364562995867"><ele>793.0</ele><time>2026-05-02T17:30:41.998Z</time></trkpt><trkpt lat="42.31813272096624" lon="13.300509576163481"><ele>793.0</ele><time>2026-05-02T17:30:42.998Z</time></trkpt><trkpt lat="42.31822546454341" lon="13.30065638506106"><ele>796.0</ele><time>2026-05-02T17:30:43.998Z</time></trkpt><trkpt lat="42.31832583318886" lon="13.300785568322798"><ele>799.0</ele><time>2026-05-02T17:30:44.998Z</time></trkpt><trkpt lat="42.31843735541984" lon="13.300902844423172"><ele>802.0</ele><time>2026-05-02T17:30:45.998Z</time></trkpt><trkpt lat="42.318551341225" lon="13.300999966753464"><ele>805.0</ele><time>2026-05-02T17:30:46.998Z</time></trkpt><trkpt lat="42.31866834514553" lon="13.301075902652343"><ele>804.9999999999999</ele><time>2026-05-02T17:30:47.998Z</time></trkpt><trkpt lat="42.318768244551975" lon="13.301132731229458"><ele>805.0</ele><time>2026-05-02T17:30:48.998Z</time></trkpt><trkpt lat="42.318843889337906" lon="13.301168550768748"><ele>805.0</ele><time>2026-05-02T17:30:49.998Z</time></trkpt><trkpt lat="42.3189087634981" lon="13.301219915674599"><ele>805.0</ele><time>2026-05-02T17:30:51.998Z</time></trkpt><trkpt lat="42.31890646039863" lon="13.301340568192824"><ele>804.9999999999999</ele><time>2026-05-02T17:30:53.998Z</time></trkpt><trkpt lat="42.31888307367048" lon="13.301419683951629"><ele>805.0</ele><time>2026-05-02T17:30:55Z</time></trkpt><trkpt lat="42.31884579077216" lon="13.301511289954787"><ele>806.1666666666666</ele><time>2026-05-02T17:30:56Z</time></trkpt><trkpt lat="42.31879845846944" lon="13.301592004939417"><ele>807.3333333333333</ele><time>2026-05-02T17:30:57Z</time></trkpt><trkpt lat="42.3187483250616" lon="13.301681078773173"><ele>808.5</ele><time>2026-05-02T17:30:58Z</time></trkpt><trkpt lat="42.318691986985165" lon="13.301778166108473"><ele>809.6666666666667</ele><time>2026-05-02T17:30:59Z</time></trkpt><trkpt lat="42.3186362539054" lon="13.301882834183012"><ele>810.8333333333334</ele><time>2026-05-02T17:31:00Z</time></trkpt><trkpt lat="42.31859064158967" lon="13.302001805886317"><ele>812.0</ele><time>2026-05-02T17:31:01Z</time></trkpt><trkpt lat="42.31854764075113" lon="13.302127582529629"><ele>812.0</ele><time>2026-05-02T17:31:02Z</time></trkpt><trkpt lat="42.318499977502896" lon="13.302246424086018"><ele>812.0</ele><time>2026-05-02T17:31:03Z</time></trkpt><trkpt lat="42.31845460505285" lon="13.302365363430347"><ele>812.0</ele><time>2026-05-02T17:31:04Z</time></trkpt><trkpt lat="42.31840016425955" lon="13.30249682355558"><ele>812.0</ele><time>2026-05-02T17:31:05Z</time></trkpt><trkpt lat="42.318342377062784" lon="13.302629054308449"><ele>812.0</ele><time>2026-05-02T17:31:06Z</time></trkpt><trkpt lat="42.318279637353974" lon="13.302760892787276"><ele>810.75</ele><time>2026-05-02T17:31:07Z</time></trkpt><trkpt lat="42.31822217061347" lon="13.302893312385063"><ele>809.5</ele><time>2026-05-02T17:31:08Z</time></trkpt><trkpt lat="42.318175263195336" lon="13.303045612297497"><ele>808.25</ele><time>2026-05-02T17:31:09Z</time></trkpt><trkpt lat="42.318137224302795" lon="13.303202080719279"><ele>807.0</ele><time>2026-05-02T17:31:10Z</time></trkpt><trkpt lat="42.31809904262604" lon="13.30335759771653"><ele>810.0</ele><time>2026-05-02T17:31:11Z</time></trkpt><trkpt lat="42.318052971492754" lon="13.303499874464118"><ele>813.0</ele><time>2026-05-02T17:31:12Z</time></trkpt><trkpt lat="42.31800422259826" lon="13.303627790602057"><ele>816.0</ele><time>2026-05-02T17:31:13Z</time></trkpt><trkpt lat="42.317956680949585" lon="13.30377213933492"><ele>819.0</ele><time>2026-05-02T17:31:14Z</time></trkpt><trkpt lat="42.31790847916792" lon="13.303913959676548"><ele>819.0</ele><time>2026-05-02T17:31:15Z</time></trkpt><trkpt lat="42.317867833800996" lon="13.304050274398046"><ele>819.0</ele><time>2026-05-02T17:31:16Z</time></trkpt><trkpt lat="42.31782921025587" lon="13.304189172776937"><ele>819.0</ele><time>2026-05-02T17:31:17Z</time></trkpt><trkpt lat="42.3177801087024" lon="13.30433248635788"><ele>819.0</ele><time>2026-05-02T17:31:18Z</time></trkpt><trkpt lat="42.31773132643367" lon="13.30446179530825"><ele>819.0</ele><time>2026-05-02T17:31:19Z</time></trkpt><trkpt lat="42.31768041640561" lon="13.304590937331014"><ele>819.0</ele><time>2026-05-02T17:31:19.999Z</time></trkpt><trkpt lat="42.31762004233278" lon="13.304718041389144"><ele>819.0</ele><time>2026-05-02T17:31:20.999Z</time></trkpt><trkpt lat="42.31755949516125" lon="13.30484524891536"><ele>819.0</ele><time>2026-05-02T17:31:21.999Z</time></trkpt><trkpt lat="42.31749884245835" lon="13.304961527609825"><ele>819.0</ele><time>2026-05-02T17:31:22.999Z</time></trkpt><trkpt lat="42.3174453448867" lon="13.30507044115935"><ele>819.0</ele><time>2026-05-02T17:31:23.999Z</time></trkpt><trkpt lat="42.31737790077769" lon="13.30519486686728"><ele>819.4000000000001</ele><time>2026-05-02T17:31:24.999Z</time></trkpt><trkpt lat="42.317314585147045" lon="13.30530709750384"><ele>819.8</ele><time>2026-05-02T17:31:25.999Z</time></trkpt><trkpt lat="42.3172531960846" lon="13.305430599745"><ele>820.2</ele><time>2026-05-02T17:31:26.999Z</time></trkpt><trkpt lat="42.31720821385625" lon="13.305553639297406"><ele>820.5999999999999</ele><time>2026-05-02T17:31:27.999Z</time></trkpt><trkpt lat="42.317175655204984" lon="13.30569393454638"><ele>821.0</ele><time>2026-05-02T17:31:28.999Z</time></trkpt><trkpt lat="42.31716353933025" lon="13.305848796077608"><ele>821.0</ele><time>2026-05-02T17:31:29.999Z</time></trkpt><trkpt lat="42.31715839691146" lon="13.306003393443364"><ele>821.0</ele><time>2026-05-02T17:31:30.999Z</time></trkpt><trkpt lat="42.31714780413572" lon="13.306158362235147"><ele>821.0</ele><time>2026-05-02T17:31:31.999Z</time></trkpt><trkpt lat="42.31713012748381" lon="13.30630962737385"><ele>821.0</ele><time>2026-05-02T17:31:32.999Z</time></trkpt><trkpt lat="42.31711260265364" lon="13.306459284209092"><ele>820.75</ele><time>2026-05-02T17:31:33.999Z</time></trkpt><trkpt lat="42.31709908615972" lon="13.306605740655002"><ele>820.5</ele><time>2026-05-02T17:31:34.999Z</time></trkpt><trkpt lat="42.31708942388156" lon="13.306753854813827"><ele>820.25</ele><time>2026-05-02T17:31:35.999Z</time></trkpt><trkpt lat="42.31707182892017" lon="13.306915008275174"><ele>820.0</ele><time>2026-05-02T17:31:36.999Z</time></trkpt><trkpt lat="42.31704969603201" lon="13.307076761278045"><ele>820.0</ele><time>2026-05-02T17:31:37.999Z</time></trkpt><trkpt lat="42.31702698346116" lon="13.307242661662432"><ele>820.0</ele><time>2026-05-02T17:31:38.999Z</time></trkpt><trkpt lat="42.31700338897122" lon="13.307392385514312"><ele>820.0</ele><time>2026-05-02T17:31:39.999Z</time></trkpt><trkpt lat="42.31698194526281" lon="13.307521087098747"><ele>820.0</ele><time>2026-05-02T17:31:40.999Z</time></trkpt><trkpt lat="42.316960079912086" lon="13.307630249017828"><ele>820.0</ele><time>2026-05-02T17:31:41.999Z</time></trkpt><trkpt lat="42.316936751791786" lon="13.307727445587492"><ele>820.2</ele><time>2026-05-02T17:31:42.999Z</time></trkpt><trkpt lat="42.31691619788297" lon="13.30783007157422"><ele>820.4</ele><time>2026-05-02T17:31:43.999Z</time></trkpt><trkpt lat="42.31688333134361" lon="13.307937574154165"><ele>820.5999999999999</ele><time>2026-05-02T17:31:44.999Z</time></trkpt><trkpt lat="42.31683855083887" lon="13.308042056376639"><ele>820.8</ele><time>2026-05-02T17:31:45.999Z</time></trkpt><trkpt lat="42.31677901712154" lon="13.308144442299177"><ele>821.0</ele><time>2026-05-02T17:31:46.999Z</time></trkpt><trkpt lat="42.316710486840286" lon="13.308252250407785"><ele>821.0000000000001</ele><time>2026-05-02T17:31:47.999Z</time></trkpt><trkpt lat="42.31664292662115" lon="13.308355246758126"><ele>821.0</ele><time>2026-05-02T17:31:48.999Z</time></trkpt><trkpt lat="42.31658524650307" lon="13.308452054792491"><ele>821.0</ele><time>2026-05-02T17:31:49.999Z</time></trkpt><trkpt lat="42.316525464408535" lon="13.308534082696163"><ele>821.0</ele><time>2026-05-02T17:31:50.999Z</time></trkpt><trkpt lat="42.31648301662821" lon="13.308623139606315"><ele>821.0000000000001</ele><time>2026-05-02T17:31:51.999Z</time></trkpt><trkpt lat="42.31645634935515" lon="13.308722344374354"><ele>821.0</ele><time>2026-05-02T17:31:52.999Z</time></trkpt><trkpt lat="42.316443557468666" lon="13.308805994431417"><ele>821.0000000000001</ele><time>2026-05-02T17:31:53.999Z</time></trkpt><trkpt lat="42.31642371079272" lon="13.308888569171831"><ele>821.0</ele><time>2026-05-02T17:31:54.999Z</time></trkpt><trkpt lat="42.316366285538805" lon="13.30901136261951"><ele>821.0</ele><time>2026-05-02T17:31:56.999Z</time></trkpt><trkpt lat="42.316299223494234" lon="13.309116900848812"><ele>821.0</ele><time>2026-05-02T17:31:58.999Z</time></trkpt><trkpt lat="42.316242788789225" lon="13.309191082853076"><ele>821.0000000000001</ele><time>2026-05-02T17:32:00.999Z</time></trkpt><trkpt lat="42.316195715004305" lon="13.30926913784468"><ele>821.0</ele><time>2026-05-02T17:32:02.999Z</time></trkpt><trkpt lat="42.316153031757814" lon="13.309339292108534"><ele>821.4</ele><time>2026-05-02T17:32:04.999Z</time></trkpt><trkpt lat="42.31608988918131" lon="13.30944813944658"><ele>821.8</ele><time>2026-05-02T17:32:06.999Z</time></trkpt><trkpt lat="42.31603418219503" lon="13.30953341925587"><ele>822.1999999999999</ele><time>2026-05-02T17:32:07.999Z</time></trkpt><trkpt lat="42.31596499780218" lon="13.309649793209587"><ele>822.5999999999999</ele><time>2026-05-02T17:32:08.999Z</time></trkpt><trkpt lat="42.31589367436822" lon="13.309769221591614"><ele>823.0</ele><time>2026-05-02T17:32:09.999Z</time></trkpt><trkpt lat="42.315820778424055" lon="13.309885133751015"><ele>824.0</ele><time>2026-05-02T17:32:10.999Z</time></trkpt><trkpt lat="42.31576345520184" lon="13.31002713299738"><ele>825.0</ele><time>2026-05-02T17:32:11.999Z</time></trkpt><trkpt lat="42.31570240695044" lon="13.31013217216996"><ele>826.0</ele><time>2026-05-02T17:32:12.999Z</time></trkpt><trkpt lat="42.31563783160424" lon="13.310227778525997"><ele>827.0</ele><time>2026-05-02T17:32:13.999Z</time></trkpt><trkpt lat="42.3155826502517" lon="13.310302031575477"><ele>828.0</ele><time>2026-05-02T17:32:14.999Z</time></trkpt><trkpt lat="42.31553562863108" lon="13.31039260140254"><ele>829.0000000000001</ele><time>2026-05-02T17:32:15.999Z</time></trkpt><trkpt lat="42.31547694665649" lon="13.310485826901923"><ele>830.0</ele><time>2026-05-02T17:32:16.999Z</time></trkpt><trkpt lat="42.31541677823622" lon="13.310587261861064"><ele>831.0</ele><time>2026-05-02T17:32:17.999Z</time></trkpt><trkpt lat="42.315371966273055" lon="13.310652833956052"><ele>832.0</ele><time>2026-05-02T17:32:18.999Z</time></trkpt><trkpt lat="42.31533549518954" lon="13.3107271411355"><ele>833.0</ele><time>2026-05-02T17:32:19.999Z</time></trkpt><trkpt lat="42.31529280600978" lon="13.310796082581595"><ele>834.0000000000001</ele><time>2026-05-02T17:32:20.999Z</time></trkpt><trkpt lat="42.31525097487775" lon="13.310861355122322"><ele>835.0</ele><time>2026-05-02T17:32:21.999Z</time></trkpt><trkpt lat="42.31514165230217" lon="13.310990647602019"><ele>834.9999999999999</ele><time>2026-05-02T17:32:23.999Z</time></trkpt><trkpt lat="42.315068691410275" lon="13.311064764633569"><ele>835.0</ele><time>2026-05-02T17:32:24.999Z</time></trkpt><trkpt lat="42.31501197532522" lon="13.31111456922425"><ele>835.0</ele><time>2026-05-02T17:32:25.998Z</time></trkpt><trkpt lat="42.314954400137744" lon="13.311150497838815"><ele>835.0</ele><time>2026-05-02T17:32:26.998Z</time></trkpt><trkpt lat="42.314867181815536" lon="13.311204026584948"><ele>834.9999999999999</ele><time>2026-05-02T17:32:28.998Z</time></trkpt><trkpt lat="42.31481712060478" lon="13.311278536205846"><ele>835.0</ele><time>2026-05-02T17:32:30.998Z</time></trkpt><trkpt lat="42.31482230070229" lon="13.311383000989583"><ele>833.6</ele><time>2026-05-02T17:32:32.998Z</time></trkpt><trkpt lat="42.31485816309229" lon="13.311503707875938"><ele>832.2</ele><time>2026-05-02T17:32:34.998Z</time></trkpt><trkpt lat="42.31492358820563" lon="13.311548543403868"><ele>830.8</ele><time>2026-05-02T17:32:36.998Z</time></trkpt><trkpt lat="42.315011110436316" lon="13.311625428067533"><ele>829.4</ele><time>2026-05-02T17:32:38.998Z</time></trkpt><trkpt lat="42.3150937573809" lon="13.311720071684633"><ele>828.0</ele><time>2026-05-02T17:32:40.998Z</time></trkpt><trkpt lat="42.315144303905065" lon="13.311792862107175"><ele>828.0</ele><time>2026-05-02T17:32:41.998Z</time></trkpt><trkpt lat="42.31518766029557" lon="13.3118712611962"><ele>828.0</ele><time>2026-05-02T17:32:42.998Z</time></trkpt><trkpt lat="42.315253534736925" lon="13.312006650082356"><ele>828.0</ele><time>2026-05-02T17:32:44.998Z</time></trkpt><trkpt lat="42.31530397896969" lon="13.31209124452239"><ele>828.0</ele><time>2026-05-02T17:32:45.998Z</time></trkpt><trkpt lat="42.31536095137405" lon="13.312183927628304"><ele>828.0</ele><time>2026-05-02T17:32:46.998Z</time></trkpt><trkpt lat="42.31542013390677" lon="13.31228154397517"><ele>828.3333333333334</ele><time>2026-05-02T17:32:47.998Z</time></trkpt><trkpt lat="42.31547309315756" lon="13.31236053202495"><ele>828.6666666666667</ele><time>2026-05-02T17:32:48.998Z</time></trkpt><trkpt lat="42.3155243382366" lon="13.31242876581282"><ele>829.0</ele><time>2026-05-02T17:32:49.998Z</time></trkpt><trkpt lat="42.31557420418332" lon="13.312489842286896"><ele>829.3333333333334</ele><time>2026-05-02T17:32:50.998Z</time></trkpt><trkpt lat="42.31566147499961" lon="13.312543649388862"><ele>829.6666666666667</ele><time>2026-05-02T17:32:52.998Z</time></trkpt><trkpt lat="42.3157601750967" lon="13.312497182581962"><ele>830.0</ele><time>2026-05-02T17:32:54.998Z</time></trkpt><trkpt lat="42.31582416457564" lon="13.312484542483848"><ele>830.3333333333334</ele><time>2026-05-02T17:32:55.998Z</time></trkpt><trkpt lat="42.315937236987644" lon="13.31253989697402"><ele>830.6666666666667</ele><time>2026-05-02T17:32:57.998Z</time></trkpt><trkpt lat="42.31599642516906" lon="13.312585174612787"><ele>831.0</ele><time>2026-05-02T17:32:58.998Z</time></trkpt><trkpt lat="42.316058688329875" lon="13.312624979678477"><ele>831.3333333333333</ele><time>2026-05-02T17:33:00Z</time></trkpt><trkpt lat="42.3161185623058" lon="13.312660680672469"><ele>831.6666666666666</ele><time>2026-05-02T17:33:01Z</time></trkpt><trkpt lat="42.31618390542822" lon="13.312703830421224"><ele>832.0</ele><time>2026-05-02T17:33:02Z</time></trkpt><trkpt lat="42.31624822639008" lon="13.31273724755032"><ele>832.0</ele><time>2026-05-02T17:33:03Z</time></trkpt><trkpt lat="42.31631113301245" lon="13.31277593938113"><ele>832.0</ele><time>2026-05-02T17:33:04Z</time></trkpt><trkpt lat="42.31637625811885" lon="13.31283203466779"><ele>832.0</ele><time>2026-05-02T17:33:05Z</time></trkpt><trkpt lat="42.31644314187503" lon="13.312882156761372"><ele>832.0</ele><time>2026-05-02T17:33:06Z</time></trkpt><trkpt lat="42.316513996478136" lon="13.312919557531412"><ele>832.0</ele><time>2026-05-02T17:33:07Z</time></trkpt><trkpt lat="42.316576050226274" lon="13.31293725955444"><ele>832.0</ele><time>2026-05-02T17:33:08Z</time></trkpt><trkpt lat="42.31665052639718" lon="13.312986808175152"><ele>832.0</ele><time>2026-05-02T17:33:09Z</time></trkpt><trkpt lat="42.31672389778799" lon="13.313043873738753"><ele>834.6666666666666</ele><time>2026-05-02T17:33:10Z</time></trkpt><trkpt lat="42.31680290285888" lon="13.313095767659108"><ele>837.3333333333333</ele><time>2026-05-02T17:33:11Z</time></trkpt><trkpt lat="42.31688517780967" lon="13.313131874202684"><ele>840.0</ele><time>2026-05-02T17:33:12Z</time></trkpt><trkpt lat="42.3169593707577" lon="13.313155521472611"><ele>842.6666666666667</ele><time>2026-05-02T17:33:13Z</time></trkpt><trkpt lat="42.31702799064811" lon="13.313167631624852"><ele>845.3333333333334</ele><time>2026-05-02T17:33:14Z</time></trkpt><trkpt lat="42.31709210673122" lon="13.313154540262605"><ele>848.0</ele><time>2026-05-02T17:33:15Z</time></trkpt><trkpt lat="42.31716352548369" lon="13.313136301643238"><ele>848.8333333333334</ele><time>2026-05-02T17:33:16Z</time></trkpt><trkpt lat="42.31725614150102" lon="13.31315410976948"><ele>849.6666666666667</ele><time>2026-05-02T17:33:18Z</time></trkpt><trkpt lat="42.31734712659393" lon="13.313240203694246"><ele>850.5</ele><time>2026-05-02T17:33:20Z</time></trkpt><trkpt lat="42.31739903951845" lon="13.31329941554921"><ele>851.3333333333333</ele><time>2026-05-02T17:33:21Z</time></trkpt><trkpt lat="42.31745398674526" lon="13.313365328079026"><ele>852.1666666666666</ele><time>2026-05-02T17:33:22Z</time></trkpt><trkpt lat="42.31751636705737" lon="13.313437067782623"><ele>853.0</ele><time>2026-05-02T17:33:23Z</time></trkpt><trkpt lat="42.31757366694086" lon="13.313501039501157"><ele>853.0</ele><time>2026-05-02T17:33:24Z</time></trkpt><trkpt lat="42.31767989327586" lon="13.313608009793132"><ele>853.0</ele><time>2026-05-02T17:33:26Z</time></trkpt><trkpt lat="42.317747970093905" lon="13.313676868743205"><ele>853.0</ele><time>2026-05-02T17:33:26.999Z</time></trkpt><trkpt lat="42.31780693739412" lon="13.313735427934573"><ele>853.0</ele><time>2026-05-02T17:33:27.999Z</time></trkpt><trkpt lat="42.3178637594206" lon="13.313795225887668"><ele>853.0</ele><time>2026-05-02T17:33:28.999Z</time></trkpt><trkpt lat="42.317955608852664" lon="13.313886363000723"><ele>853.5999999999999</ele><time>2026-05-02T17:33:30.999Z</time></trkpt><trkpt lat="42.31805983700067" lon="13.313973566566503"><ele>854.1999999999999</ele><time>2026-05-02T17:33:32.999Z</time></trkpt><trkpt lat="42.318162417074085" lon="13.314030827337403"><ele>854.8</ele><time>2026-05-02T17:33:34.999Z</time></trkpt><trkpt lat="42.31823463975687" lon="13.314059701319511"><ele>855.4</ele><time>2026-05-02T17:33:36.999Z</time></trkpt><trkpt lat="42.31831392515701" lon="13.314081720390885"><ele>856.0</ele><time>2026-05-02T17:33:41.999Z</time></trkpt><trkpt lat="42.31842950808036" lon="13.314015384231878"><ele>855.9999999999999</ele><time>2026-05-02T17:33:43.999Z</time></trkpt><trkpt lat="42.3184746568509" lon="13.31394368320002"><ele>856.0</ele><time>2026-05-02T17:33:44.999Z</time></trkpt><trkpt lat="42.31851706192375" lon="13.313866942753219"><ele>856.0</ele><time>2026-05-02T17:33:45.999Z</time></trkpt><trkpt lat="42.31856235863241" lon="13.31379765966381"><ele>856.0</ele><time>2026-05-02T17:33:46.999Z</time></trkpt><trkpt lat="42.31865229354719" lon="13.313709070193857"><ele>855.9999999999999</ele><time>2026-05-02T17:33:48.999Z</time></trkpt><trkpt lat="42.318761990244106" lon="13.313727260997382"><ele>856.0</ele><time>2026-05-02T17:33:50.999Z</time></trkpt><trkpt lat="42.31882226281713" lon="13.313766190751009"><ele>855.3333333333333</ele><time>2026-05-02T17:33:51.999Z</time></trkpt><trkpt lat="42.31888315559551" lon="13.313819945599489"><ele>854.6666666666666</ele><time>2026-05-02T17:33:52.999Z</time></trkpt><trkpt lat="42.318959005868756" lon="13.313884419824621"><ele>854.0</ele><time>2026-05-02T17:33:53.999Z</time></trkpt><trkpt lat="42.3190402285287" lon="13.313948805469797"><ele>853.3333333333333</ele><time>2026-05-02T17:33:54.999Z</time></trkpt><trkpt lat="42.31911763029787" lon="13.314004426523613"><ele>852.6666666666666</ele><time>2026-05-02T17:33:55.999Z</time></trkpt><trkpt lat="42.319181376037534" lon="13.314055329706187"><ele>852.0</ele><time>2026-05-02T17:33:56.999Z</time></trkpt><trkpt lat="42.31924245004205" lon="13.314105745402102"><ele>851.0</ele><time>2026-05-02T17:33:57.999Z</time></trkpt><trkpt lat="42.319312804530036" lon="13.31416103268409"><ele>850.0</ele><time>2026-05-02T17:33:58.999Z</time></trkpt><trkpt lat="42.31938831068914" lon="13.314225975338674"><ele>849.0</ele><time>2026-05-02T17:33:59.999Z</time></trkpt><trkpt lat="42.319471683278195" lon="13.314296189331184"><ele>848.0</ele><time>2026-05-02T17:34:00.999Z</time></trkpt><trkpt lat="42.31955971553937" lon="13.314366881503753"><ele>847.0</ele><time>2026-05-02T17:34:01.999Z</time></trkpt><trkpt lat="42.31965556805101" lon="13.314438265738998"><ele>845.8</ele><time>2026-05-02T17:34:02.999Z</time></trkpt><trkpt lat="42.31974329934983" lon="13.314511339292668"><ele>844.6</ele><time>2026-05-02T17:34:03.999Z</time></trkpt><trkpt lat="42.31983172400288" lon="13.314585653903324"><ele>843.4</ele><time>2026-05-02T17:34:04.999Z</time></trkpt><trkpt lat="42.31991835665641" lon="13.314652020514883"><ele>842.1999999999999</ele><time>2026-05-02T17:34:05.999Z</time></trkpt><trkpt lat="42.320006304802526" lon="13.314713693680623"><ele>841.0</ele><time>2026-05-02T17:34:06.999Z</time></trkpt><trkpt lat="42.320086717222374" lon="13.31477848323779"><ele>840.4999999999999</ele><time>2026-05-02T17:34:07.999Z</time></trkpt><trkpt lat="42.32016649734949" lon="13.314845218800324"><ele>840.0</ele><time>2026-05-02T17:34:08.999Z</time></trkpt><trkpt lat="42.32024692563152" lon="13.314909044422848"><ele>839.5</ele><time>2026-05-02T17:34:09.999Z</time></trkpt><trkpt lat="42.32031651401246" lon="13.314967083565282"><ele>839.0</ele><time>2026-05-02T17:34:10.999Z</time></trkpt><trkpt lat="42.32037901215499" lon="13.315017278180768"><ele>838.4999999999999</ele><time>2026-05-02T17:34:11.999Z</time></trkpt><trkpt lat="42.320423836505654" lon="13.315079644397384"><ele>838.0</ele><time>2026-05-02T17:34:12.999Z</time></trkpt><trkpt lat="42.3204450432108" lon="13.315171110947592"><ele>837.9999999999999</ele><time>2026-05-02T17:34:13.999Z</time></trkpt><trkpt lat="42.32043302855737" lon="13.315283189655563"><ele>838.0</ele><time>2026-05-02T17:34:14.999Z</time></trkpt><trkpt lat="42.320403984863916" lon="13.315398469612937"><ele>838.0</ele><time>2026-05-02T17:34:15.999Z</time></trkpt><trkpt lat="42.32037543331488" lon="13.315483078993804"><ele>838.0</ele><time>2026-05-02T17:34:16.999Z</time></trkpt><trkpt lat="42.32030279302694" lon="13.315593099826058"><ele>837.9999999999999</ele><time>2026-05-02T17:34:18.999Z</time></trkpt><trkpt lat="42.32026978353226" lon="13.31566599197794"><ele>838.0</ele><time>2026-05-02T17:34:19.999Z</time></trkpt><trkpt lat="42.320259849630524" lon="13.315776086004904"><ele>837.8333333333333</ele><time>2026-05-02T17:34:20.999Z</time></trkpt><trkpt lat="42.320258509267575" lon="13.315879615852174"><ele>837.6666666666666</ele><time>2026-05-02T17:34:21.999Z</time></trkpt><trkpt lat="42.320243014574814" lon="13.31597274169094"><ele>837.5</ele><time>2026-05-02T17:34:22.999Z</time></trkpt><trkpt lat="42.320215832165516" lon="13.316091598598103"><ele>837.3333333333333</ele><time>2026-05-02T17:34:24.999Z</time></trkpt><trkpt lat="42.320197085774055" lon="13.316176800997049"><ele>837.1666666666666</ele><time>2026-05-02T17:34:28.999Z</time></trkpt><trkpt lat="42.32023251994544" lon="13.31606383184214"><ele>837.0</ele><time>2026-05-02T17:34:52.998Z</time></trkpt><trkpt lat="42.32023870394956" lon="13.31591443041966"><ele>837.0</ele><time>2026-05-02T17:35:09Z</time></trkpt><trkpt lat="42.32025320642917" lon="13.315759925031097"><ele>837.0</ele><time>2026-05-02T17:35:11Z</time></trkpt><trkpt lat="42.32026988766507" lon="13.315673122778634"><ele>837.0</ele><time>2026-05-02T17:35:12Z</time></trkpt><trkpt lat="42.32031595101355" lon="13.315567598761094"><ele>837.0</ele><time>2026-05-02T17:35:14Z</time></trkpt><trkpt lat="42.3203975843904" lon="13.315542011181394"><ele>837.0</ele><time>2026-05-02T17:35:17Z</time></trkpt><trkpt lat="42.320478709936154" lon="13.315601902974995"><ele>837.0</ele><time>2026-05-02T17:35:19Z</time></trkpt><trkpt lat="42.32054307936604" lon="13.315652954542994"><ele>835.6666666666666</ele><time>2026-05-02T17:35:21Z</time></trkpt><trkpt lat="42.32061602214424" lon="13.315702323015374"><ele>834.3333333333333</ele><time>2026-05-02T17:35:23Z</time></trkpt><trkpt lat="42.32070432440536" lon="13.315745869537272"><ele>833.0</ele><time>2026-05-02T17:35:25Z</time></trkpt><trkpt lat="42.32073777896117" lon="13.31583347605103"><ele>831.6666666666666</ele><time>2026-05-02T17:35:27Z</time></trkpt><trkpt lat="42.32074786238396" lon="13.31595319775044"><ele>830.3333333333333</ele><time>2026-05-02T17:35:29Z</time></trkpt><trkpt lat="42.32078810480424" lon="13.31601898486985"><ele>829.0</ele><time>2026-05-02T17:35:30Z</time></trkpt><trkpt lat="42.32090150231994" lon="13.316078846030102"><ele>828.9999999999999</ele><time>2026-05-02T17:35:31.999Z</time></trkpt><trkpt lat="42.32099806586831" lon="13.316070031100855"><ele>829.0</ele><time>2026-05-02T17:35:33.999Z</time></trkpt><trkpt lat="42.321117213501104" lon="13.316065062763832"><ele>829.0</ele><time>2026-05-02T17:35:35.999Z</time></trkpt><trkpt lat="42.32118444542787" lon="13.316061568708333"><ele>829.0</ele><time>2026-05-02T17:35:36.999Z</time></trkpt><trkpt lat="42.32125806583538" lon="13.316066457521343"><ele>828.9999999999999</ele><time>2026-05-02T17:35:37.999Z</time></trkpt><trkpt lat="42.32132786251926" lon="13.31607927213328"><ele>829.0</ele><time>2026-05-02T17:35:38.999Z</time></trkpt><trkpt lat="42.321390863862334" lon="13.316103436437968"><ele>828.1666666666666</ele><time>2026-05-02T17:35:39.999Z</time></trkpt><trkpt lat="42.321468163043754" lon="13.31616711567009"><ele>827.3333333333333</ele><time>2026-05-02T17:35:41.999Z</time></trkpt><trkpt lat="42.32154058482043" lon="13.316184233200751"><ele>826.5</ele><time>2026-05-02T17:35:43.999Z</time></trkpt><trkpt lat="42.32163359040534" lon="13.316195178699093"><ele>825.6666666666667</ele><time>2026-05-02T17:35:45.999Z</time></trkpt><trkpt lat="42.32170787880646" lon="13.316189255763819"><ele>824.8333333333334</ele><time>2026-05-02T17:35:47.999Z</time></trkpt><trkpt lat="42.32180280072801" lon="13.316197859693709"><ele>824.0</ele><time>2026-05-02T17:35:49.999Z</time></trkpt><trkpt lat="42.32194003279713" lon="13.316228845936964"><ele>824.0000000000001</ele><time>2026-05-02T17:35:51.999Z</time></trkpt><trkpt lat="42.32202055807647" lon="13.316255336593683"><ele>824.0</ele><time>2026-05-02T17:35:52.999Z</time></trkpt><trkpt lat="42.322091558099594" lon="13.316270762343297"><ele>824.0</ele><time>2026-05-02T17:35:53.999Z</time></trkpt><trkpt lat="42.32216189749998" lon="13.316294576535126"><ele>824.0</ele><time>2026-05-02T17:35:54.999Z</time></trkpt><trkpt lat="42.32223298910116" lon="13.316329528993053"><ele>824.0000000000001</ele><time>2026-05-02T17:35:55.999Z</time></trkpt><trkpt lat="42.32230946286545" lon="13.316364081199207"><ele>824.0</ele><time>2026-05-02T17:35:56.999Z</time></trkpt><trkpt lat="42.322383941883295" lon="13.316401997444085"><ele>823.1666666666667</ele><time>2026-05-02T17:35:57.999Z</time></trkpt><trkpt lat="42.32246566518562" lon="13.316441978659952"><ele>822.3333333333334</ele><time>2026-05-02T17:35:58.999Z</time></trkpt><trkpt lat="42.322534536936146" lon="13.316475316349084"><ele>821.5</ele><time>2026-05-02T17:35:59.999Z</time></trkpt><trkpt lat="42.322594997748055" lon="13.31650830944241"><ele>820.6666666666667</ele><time>2026-05-02T17:36:00.999Z</time></trkpt><trkpt lat="42.32269624167619" lon="13.316578799672794"><ele>819.8333333333334</ele><time>2026-05-02T17:36:02.999Z</time></trkpt><trkpt lat="42.322759142866445" lon="13.316535877471233"><ele>819.0</ele><time>2026-05-02T17:36:05.999Z</time></trkpt><trkpt lat="42.322787944644745" lon="13.316424371204455"><ele>818.0</ele><time>2026-05-02T17:36:10.999Z</time></trkpt><trkpt lat="42.32281123344083" lon="13.316314142783307"><ele>817.0</ele><time>2026-05-02T17:36:12.999Z</time></trkpt><trkpt lat="42.32283785402303" lon="13.316221459534068"><ele>816.0</ele><time>2026-05-02T17:36:14.999Z</time></trkpt><trkpt lat="42.32285261754501" lon="13.316116787035817"><ele>815.0</ele><time>2026-05-02T17:36:15.999Z</time></trkpt><trkpt lat="42.322930548921626" lon="13.316021285595609"><ele>814.0</ele><time>2026-05-02T17:36:17.999Z</time></trkpt><trkpt lat="42.323043432341876" lon="13.316040025213884"><ele>812.6666666666666</ele><time>2026-05-02T17:36:19.999Z</time></trkpt><trkpt lat="42.32310477536663" lon="13.316063628483098"><ele>811.3333333333333</ele><time>2026-05-02T17:36:20.999Z</time></trkpt><trkpt lat="42.32318476105293" lon="13.316087018860516"><ele>810.0</ele><time>2026-05-02T17:36:21.999Z</time></trkpt><trkpt lat="42.323269377584595" lon="13.31611381056176"><ele>808.6666666666667</ele><time>2026-05-02T17:36:22.999Z</time></trkpt><trkpt lat="42.32335725669628" lon="13.316135225709893"><ele>807.3333333333334</ele><time>2026-05-02T17:36:23.999Z</time></trkpt><trkpt lat="42.323456883367584" lon="13.316161724384044"><ele>806.0</ele><time>2026-05-02T17:36:24.999Z</time></trkpt><trkpt lat="42.32354342741615" lon="13.316170077527538"><ele>806.0</ele><time>2026-05-02T17:36:25.999Z</time></trkpt><trkpt lat="42.32363085083515" lon="13.316185504626306"><ele>806.0</ele><time>2026-05-02T17:36:26.999Z</time></trkpt><trkpt lat="42.32371636986145" lon="13.316209847303176"><ele>806.0</ele><time>2026-05-02T17:36:27.999Z</time></trkpt><trkpt lat="42.323806785665376" lon="13.316236439422667"><ele>806.0</ele><time>2026-05-02T17:36:28.999Z</time></trkpt><trkpt lat="42.32389570755942" lon="13.316269318020625"><ele>806.0</ele><time>2026-05-02T17:36:29.999Z</time></trkpt><trkpt lat="42.32399234684448" lon="13.31630950293856"><ele>806.5714285714286</ele><time>2026-05-02T17:36:30.999Z</time></trkpt><trkpt lat="42.32407699350567" lon="13.316343915670965"><ele>807.1428571428571</ele><time>2026-05-02T17:36:31.999Z</time></trkpt><trkpt lat="42.32414243441881" lon="13.316375134314438"><ele>807.7142857142857</ele><time>2026-05-02T17:36:32.999Z</time></trkpt><trkpt lat="42.324205873386234" lon="13.316404428486496"><ele>808.2857142857142</ele><time>2026-05-02T17:36:33.999Z</time></trkpt><trkpt lat="42.324278243389315" lon="13.316427523083433"><ele>808.8571428571429</ele><time>2026-05-02T17:36:34.999Z</time></trkpt><trkpt lat="42.324350080735314" lon="13.316456395541058"><ele>809.4285714285713</ele><time>2026-05-02T17:36:35.999Z</time></trkpt><trkpt lat="42.32441972083229" lon="13.316487831629077"><ele>810.0</ele><time>2026-05-02T17:36:36.999Z</time></trkpt><trkpt lat="42.32453309854369" lon="13.316521797122764"><ele>810.0</ele><time>2026-05-02T17:36:38.998Z</time></trkpt><trkpt lat="42.324636736054316" lon="13.316519546783017"><ele>810.0</ele><time>2026-05-02T17:36:40.998Z</time></trkpt><trkpt lat="42.32474560892378" lon="13.316539359574183"><ele>810.0</ele><time>2026-05-02T17:36:42.998Z</time></trkpt><trkpt lat="42.324866916627585" lon="13.316555438478655"><ele>810.0</ele><time>2026-05-02T17:36:44.998Z</time></trkpt><trkpt lat="42.32493524693784" lon="13.316564837156426"><ele>810.0</ele><time>2026-05-02T17:36:45.998Z</time></trkpt><trkpt lat="42.325019135728176" lon="13.31656832765529"><ele>809.5</ele><time>2026-05-02T17:36:46.998Z</time></trkpt><trkpt lat="42.32510192695184" lon="13.316564575070219"><ele>809.0</ele><time>2026-05-02T17:36:47.998Z</time></trkpt><trkpt lat="42.325177269284005" lon="13.316554585572668"><ele>808.5</ele><time>2026-05-02T17:36:48.998Z</time></trkpt><trkpt lat="42.325241257869706" lon="13.316552457231595"><ele>808.0</ele><time>2026-05-02T17:36:49.998Z</time></trkpt><trkpt lat="42.325355538456755" lon="13.316521476348191"><ele>807.5</ele><time>2026-05-02T17:36:51.998Z</time></trkpt><trkpt lat="42.3254122984615" lon="13.316480002045218"><ele>807.0</ele><time>2026-05-02T17:36:52.998Z</time></trkpt><trkpt lat="42.32552491727365" lon="13.316389136786714"><ele>804.6</ele><time>2026-05-02T17:36:54.998Z</time></trkpt><trkpt lat="42.32562180666668" lon="13.316302088958926"><ele>802.2</ele><time>2026-05-02T17:36:56.998Z</time></trkpt><trkpt lat="42.325729979537385" lon="13.316238138013762"><ele>799.8</ele><time>2026-05-02T17:36:58.998Z</time></trkpt><trkpt lat="42.32579220034097" lon="13.316197320854652"><ele>797.4</ele><time>2026-05-02T17:36:59.998Z</time></trkpt><trkpt lat="42.32590330980875" lon="13.316126118388848"><ele>795.0</ele><time>2026-05-02T17:37:01.998Z</time></trkpt><trkpt lat="42.326019874473765" lon="13.316077089521249"><ele>795.0</ele><time>2026-05-02T17:37:03.998Z</time></trkpt><trkpt lat="42.3261487979917" lon="13.316056532113034"><ele>795.0</ele><time>2026-05-02T17:37:05.998Z</time></trkpt><trkpt lat="42.32621682008437" lon="13.316059061961456"><ele>795.0</ele><time>2026-05-02T17:37:06.998Z</time></trkpt><trkpt lat="42.326285271744325" lon="13.316059376067114"><ele>795.0</ele><time>2026-05-02T17:37:07.998Z</time></trkpt><trkpt lat="42.32638483029778" lon="13.316041063665503"><ele>795.0</ele><time>2026-05-02T17:37:09.998Z</time></trkpt><trkpt lat="42.32646629216517" lon="13.31599510151019"><ele>795.0</ele><time>2026-05-02T17:37:12Z</time></trkpt><trkpt lat="42.32654216359901" lon="13.31593153149971"><ele>795.0</ele><time>2026-05-02T17:37:14Z</time></trkpt><trkpt lat="42.32663383890114" lon="13.315888875453583"><ele>795.0</ele><time>2026-05-02T17:37:16Z</time></trkpt><trkpt lat="42.326757216642804" lon="13.315901297262721"><ele>795.0</ele><time>2026-05-02T17:37:18Z</time></trkpt><trkpt lat="42.326828151359784" lon="13.315911898623439"><ele>795.0</ele><time>2026-05-02T17:37:19Z</time></trkpt><trkpt lat="42.326899980184415" lon="13.315928963933851"><ele>795.0</ele><time>2026-05-02T17:37:20Z</time></trkpt><trkpt lat="42.326983017953815" lon="13.315930691246187"><ele>795.0</ele><time>2026-05-02T17:37:21Z</time></trkpt><trkpt lat="42.327070829712895" lon="13.315929819170409"><ele>795.0</ele><time>2026-05-02T17:37:22Z</time></trkpt><trkpt lat="42.32715187904869" lon="13.315933945700651"><ele>795.0</ele><time>2026-05-02T17:37:23Z</time></trkpt><trkpt lat="42.32723248727513" lon="13.315937969116645"><ele>795.0</ele><time>2026-05-02T17:37:24Z</time></trkpt><trkpt lat="42.32730843474643" lon="13.315944626392055"><ele>795.0</ele><time>2026-05-02T17:37:25Z</time></trkpt><trkpt lat="42.32739056071314" lon="13.315962938139288"><ele>794.3333333333334</ele><time>2026-05-02T17:37:26Z</time></trkpt><trkpt lat="42.327466658454085" lon="13.315981799850274"><ele>793.6666666666667</ele><time>2026-05-02T17:37:27Z</time></trkpt><trkpt lat="42.32753805412677" lon="13.315991863777345"><ele>793.0</ele><time>2026-05-02T17:37:28Z</time></trkpt><trkpt lat="42.32760108900813" lon="13.31598432214065"><ele>792.3333333333334</ele><time>2026-05-02T17:37:29Z</time></trkpt><trkpt lat="42.3277162728204" lon="13.315978811355613"><ele>791.6666666666667</ele><time>2026-05-02T17:37:31Z</time></trkpt><trkpt lat="42.32778206488153" lon="13.315983827477694"><ele>791.0</ele><time>2026-05-02T17:37:32Z</time></trkpt><trkpt lat="42.32785887631756" lon="13.316002186212184"><ele>791.0000000000001</ele><time>2026-05-02T17:37:33Z</time></trkpt><trkpt lat="42.327943701214245" lon="13.316028883492072"><ele>791.0</ele><time>2026-05-02T17:37:34Z</time></trkpt><trkpt lat="42.328029712607176" lon="13.316059652337698"><ele>791.0</ele><time>2026-05-02T17:37:35Z</time></trkpt><trkpt lat="42.328111779961226" lon="13.316091083492914"><ele>791.0</ele><time>2026-05-02T17:37:36Z</time></trkpt><trkpt lat="42.32819035450427" lon="13.316127710216191"><ele>791.0000000000001</ele><time>2026-05-02T17:37:37Z</time></trkpt><trkpt lat="42.32826097951473" lon="13.316163483468593"><ele>791.0</ele><time>2026-05-02T17:37:37.999Z</time></trkpt><trkpt lat="42.328328285970095" lon="13.316197032922071"><ele>791.5000000000001</ele><time>2026-05-02T17:37:38.999Z</time></trkpt><trkpt lat="42.32839725540567" lon="13.316239090047963"><ele>792.0</ele><time>2026-05-02T17:37:39.999Z</time></trkpt><trkpt lat="42.32846124694666" lon="13.3162904083931"><ele>792.5</ele><time>2026-05-02T17:37:40.999Z</time></trkpt><trkpt lat="42.32852869969348" lon="13.316341816665886"><ele>793.0</ele><time>2026-05-02T17:37:41.999Z</time></trkpt><trkpt lat="42.32859444481146" lon="13.316382836778944"><ele>793.5000000000001</ele><time>2026-05-02T17:37:42.999Z</time></trkpt><trkpt lat="42.32869136527969" lon="13.316428531623488"><ele>794.0</ele><time>2026-05-02T17:37:44.999Z</time></trkpt><trkpt lat="42.3287963901192" lon="13.316495941312176"><ele>794.0000000000001</ele><time>2026-05-02T17:37:46.999Z</time></trkpt><trkpt lat="42.328864745558164" lon="13.316509767150425"><ele>794.0</ele><time>2026-05-02T17:37:47.999Z</time></trkpt><trkpt lat="42.32894093711365" lon="13.316510970051151"><ele>794.0</ele><time>2026-05-02T17:37:48.999Z</time></trkpt><trkpt lat="42.329010026747" lon="13.31650841092092"><ele>794.0</ele><time>2026-05-02T17:37:49.999Z</time></trkpt><trkpt lat="42.329073175097385" lon="13.316514475565782"><ele>794.0000000000001</ele><time>2026-05-02T17:37:50.999Z</time></trkpt><trkpt lat="42.32920387347371" lon="13.316519046436719"><ele>794.0</ele><time>2026-05-02T17:37:52.999Z</time></trkpt><trkpt lat="42.32927175474997" lon="13.316526076707584"><ele>793.5000000000001</ele><time>2026-05-02T17:37:53.999Z</time></trkpt><trkpt lat="42.32939039932923" lon="13.316513500892519"><ele>793.0</ele><time>2026-05-02T17:37:55.999Z</time></trkpt><trkpt lat="42.32945747361721" lon="13.316507226110415"><ele>792.5</ele><time>2026-05-02T17:37:56.999Z</time></trkpt><trkpt lat="42.329531919843625" lon="13.31651364250755"><ele>792.0</ele><time>2026-05-02T17:37:57.999Z</time></trkpt><trkpt lat="42.32961087968903" lon="13.316523196780388"><ele>791.5000000000001</ele><time>2026-05-02T17:37:58.999Z</time></trkpt><trkpt lat="42.32967611749685" lon="13.316528760389282"><ele>791.0</ele><time>2026-05-02T17:37:59.999Z</time></trkpt><trkpt lat="42.32979509671067" lon="13.316519940736391"><ele>790.3333333333334</ele><time>2026-05-02T17:38:01.999Z</time></trkpt><trkpt lat="42.32992382008067" lon="13.31652031525697"><ele>789.6666666666667</ele><time>2026-05-02T17:38:03.999Z</time></trkpt><trkpt lat="42.32999362876765" lon="13.316517569399947"><ele>789.0</ele><time>2026-05-02T17:38:04.999Z</time></trkpt><trkpt lat="42.33007114413024" lon="13.316517401601246"><ele>788.3333333333333</ele><time>2026-05-02T17:38:05.999Z</time></trkpt><trkpt lat="42.33014164945566" lon="13.316510680211255"><ele>787.6666666666666</ele><time>2026-05-02T17:38:06.999Z</time></trkpt><trkpt lat="42.330216428675946" lon="13.316506169143715"><ele>787.0</ele><time>2026-05-02T17:38:07.999Z</time></trkpt><trkpt lat="42.33028315204364" lon="13.316502134063844"><ele>786.9999999999999</ele><time>2026-05-02T17:38:08.999Z</time></trkpt><trkpt lat="42.330351220248154" lon="13.316497230786336"><ele>787.0</ele><time>2026-05-02T17:38:09.999Z</time></trkpt><trkpt lat="42.33042562027442" lon="13.316488714539513"><ele>787.0</ele><time>2026-05-02T17:38:10.999Z</time></trkpt><trkpt lat="42.33049528747312" lon="13.316490614953237"><ele>787.0</ele><time>2026-05-02T17:38:11.999Z</time></trkpt><trkpt lat="42.33056329051821" lon="13.316487862373556"><ele>786.9999999999999</ele><time>2026-05-02T17:38:12.999Z</time></trkpt><trkpt lat="42.33070197274286" lon="13.316465290147569"><ele>787.0</ele><time>2026-05-02T17:38:14.999Z</time></trkpt><trkpt lat="42.33077714572066" lon="13.316454109140366"><ele>786.8</ele><time>2026-05-02T17:38:15.999Z</time></trkpt><trkpt lat="42.33084335160235" lon="13.316453311659924"><ele>786.6</ele><time>2026-05-02T17:38:16.999Z</time></trkpt><trkpt lat="42.3309639210769" lon="13.316448062751203"><ele>786.4</ele><time>2026-05-02T17:38:18.999Z</time></trkpt><trkpt lat="42.33107152628451" lon="13.316419844514511"><ele>786.1999999999999</ele><time>2026-05-02T17:38:20.999Z</time></trkpt><trkpt lat="42.3311541677839" lon="13.316375989575842"><ele>786.0</ele><time>2026-05-02T17:38:22.999Z</time></trkpt><trkpt lat="42.331241734342925" lon="13.316330471360951"><ele>785.1999999999999</ele><time>2026-05-02T17:38:24.999Z</time></trkpt><trkpt lat="42.331341551743115" lon="13.316258482110314"><ele>784.4</ele><time>2026-05-02T17:38:26.999Z</time></trkpt><trkpt lat="42.3314027917758" lon="13.316219580970461"><ele>783.6</ele><time>2026-05-02T17:38:27.999Z</time></trkpt><trkpt lat="42.33150328576141" lon="13.316169665375904"><ele>782.8</ele><time>2026-05-02T17:38:29.999Z</time></trkpt><trkpt lat="42.33158491163778" lon="13.316128184219808"><ele>782.0</ele><time>2026-05-02T17:38:31.999Z</time></trkpt><trkpt lat="42.33170260925045" lon="13.316062906123054"><ele>781.3333333333334</ele><time>2026-05-02T17:38:33.999Z</time></trkpt><trkpt lat="42.3318271858339" lon="13.316044271294702"><ele>780.6666666666667</ele><time>2026-05-02T17:38:35.999Z</time></trkpt><trkpt lat="42.33190196559259" lon="13.316059874166772"><ele>780.0</ele><time>2026-05-02T17:38:36.999Z</time></trkpt><trkpt lat="42.331973912037554" lon="13.316092453374486"><ele>779.3333333333333</ele><time>2026-05-02T17:38:37.999Z</time></trkpt><trkpt lat="42.33203773180191" lon="13.316134807118477"><ele>778.6666666666666</ele><time>2026-05-02T17:38:38.999Z</time></trkpt><trkpt lat="42.33211032453471" lon="13.316166353380922"><ele>778.0</ele><time>2026-05-02T17:38:39.999Z</time></trkpt><trkpt lat="42.33220152929223" lon="13.316200138021596"><ele>777.3333333333333</ele><time>2026-05-02T17:38:40.999Z</time></trkpt><trkpt lat="42.33226689913732" lon="13.316232221461954"><ele>776.6666666666666</ele><time>2026-05-02T17:38:41.999Z</time></trkpt><trkpt lat="42.33234257511047" lon="13.316249029999701"><ele>776.0</ele><time>2026-05-02T17:38:42.999Z</time></trkpt><trkpt lat="42.3324337009228" lon="13.316260304307024"><ele>775.3333333333333</ele><time>2026-05-02T17:38:43.999Z</time></trkpt><trkpt lat="42.33251865470513" lon="13.316250163506373"><ele>774.6666666666666</ele><time>2026-05-02T17:38:44.998Z</time></trkpt><trkpt lat="42.3325885216906" lon="13.316224433602116"><ele>774.0</ele><time>2026-05-02T17:38:45.998Z</time></trkpt><trkpt lat="42.33265041885116" lon="13.316201550502207"><ele>774.0</ele><time>2026-05-02T17:38:46.998Z</time></trkpt><trkpt lat="42.3327150728063" lon="13.316193329613917"><ele>774.0</ele><time>2026-05-02T17:38:47.998Z</time></trkpt><trkpt lat="42.332778389062234" lon="13.316193703480796"><ele>774.0</ele><time>2026-05-02T17:38:48.998Z</time></trkpt><trkpt lat="42.332844136709134" lon="13.316194189559209"><ele>774.0</ele><time>2026-05-02T17:38:49.998Z</time></trkpt><trkpt lat="42.332908162059866" lon="13.316196252879903"><ele>774.0</ele><time>2026-05-02T17:38:50.998Z</time></trkpt><trkpt lat="42.33298197267916" lon="13.316214714492897"><ele>774.0</ele><time>2026-05-02T17:38:51.998Z</time></trkpt><trkpt lat="42.333110874036265" lon="13.316253183567412"><ele>773.0</ele><time>2026-05-02T17:38:53.998Z</time></trkpt><trkpt lat="42.33323574606828" lon="13.316276395551224"><ele>772.0</ele><time>2026-05-02T17:38:55.998Z</time></trkpt><trkpt lat="42.333366587812215" lon="13.316285187530289"><ele>771.0</ele><time>2026-05-02T17:38:57.998Z</time></trkpt><trkpt lat="42.33343837721902" lon="13.316293984840858"><ele>770.0</ele><time>2026-05-02T17:38:58.998Z</time></trkpt><trkpt lat="42.3335133476235" lon="13.31629692493629"><ele>769.0</ele><time>2026-05-02T17:38:59.998Z</time></trkpt><trkpt lat="42.33358222194921" lon="13.316307557488075"><ele>769.0</ele><time>2026-05-02T17:39:00.998Z</time></trkpt><trkpt lat="42.333650811732696" lon="13.316327557582987"><ele>769.0</ele><time>2026-05-02T17:39:01.998Z</time></trkpt><trkpt lat="42.33372243358301" lon="13.316325384844161"><ele>769.0</ele><time>2026-05-02T17:39:02.998Z</time></trkpt><trkpt lat="42.33379462534638" lon="13.316322385625465"><ele>769.0</ele><time>2026-05-02T17:39:03.998Z</time></trkpt><trkpt lat="42.33387167241883" lon="13.31631153093868"><ele>769.0</ele><time>2026-05-02T17:39:04.998Z</time></trkpt><trkpt lat="42.33394473796719" lon="13.31630783977416"><ele>769.0</ele><time>2026-05-02T17:39:05.998Z</time></trkpt><trkpt lat="42.33402240118906" lon="13.316305090778817"><ele>769.0</ele><time>2026-05-02T17:39:06.998Z</time></trkpt><trkpt lat="42.334095575595526" lon="13.316308091828352"><ele>767.2857142857142</ele><time>2026-05-02T17:39:07.998Z</time></trkpt><trkpt lat="42.334162933510356" lon="13.31630724832335"><ele>765.5714285714287</ele><time>2026-05-02T17:39:08.998Z</time></trkpt><trkpt lat="42.334244174392126" lon="13.316300058358516"><ele>763.8571428571429</ele><time>2026-05-02T17:39:09.998Z</time></trkpt><trkpt lat="42.33431065067678" lon="13.316287003074645"><ele>762.1428571428571</ele><time>2026-05-02T17:39:10.998Z</time></trkpt><trkpt lat="42.334377674889915" lon="13.316270289183961"><ele>760.4285714285713</ele><time>2026-05-02T17:39:11.998Z</time></trkpt><trkpt lat="42.334437955133694" lon="13.316243970344301"><ele>758.7142857142858</ele><time>2026-05-02T17:39:12.998Z</time></trkpt><trkpt lat="42.33450593692433" lon="13.316214392674715"><ele>757.0</ele><time>2026-05-02T17:39:13.998Z</time></trkpt><trkpt lat="42.33457460541853" lon="13.316190128186232"><ele>757.0</ele><time>2026-05-02T17:39:14.998Z</time></trkpt><trkpt lat="42.334642764658874" lon="13.316167049308703"><ele>757.0</ele><time>2026-05-02T17:39:15.998Z</time></trkpt><trkpt lat="42.33471137530821" lon="13.316145532660377"><ele>757.0</ele><time>2026-05-02T17:39:16.998Z</time></trkpt><trkpt lat="42.3347780726435" lon="13.316131651588762"><ele>757.0</ele><time>2026-05-02T17:39:18Z</time></trkpt><trkpt lat="42.33485142060523" lon="13.316117325998468"><ele>757.0</ele><time>2026-05-02T17:39:19Z</time></trkpt><trkpt lat="42.33492373047028" lon="13.316111110355049"><ele>757.0</ele><time>2026-05-02T17:39:20Z</time></trkpt><trkpt lat="42.33500177873725" lon="13.316092628571612"><ele>757.0</ele><time>2026-05-02T17:39:21Z</time></trkpt><trkpt lat="42.335076386093604" lon="13.316084637710414"><ele>757.0</ele><time>2026-05-02T17:39:22Z</time></trkpt><trkpt lat="42.335153197194806" lon="13.316065990828806"><ele>757.0</ele><time>2026-05-02T17:39:23Z</time></trkpt><trkpt lat="42.33522493601804" lon="13.316054118298217"><ele>757.0</ele><time>2026-05-02T17:39:24Z</time></trkpt><trkpt lat="42.335298868962596" lon="13.316044364790057"><ele>757.0</ele><time>2026-05-02T17:39:25Z</time></trkpt><trkpt lat="42.335377392046816" lon="13.316044432304482"><ele>757.0</ele><time>2026-05-02T17:39:26Z</time></trkpt><trkpt lat="42.33546064966183" lon="13.3160468689741"><ele>757.0</ele><time>2026-05-02T17:39:27Z</time></trkpt><trkpt lat="42.335548847035" lon="13.31604772013452"><ele>757.1666666666667</ele><time>2026-05-02T17:39:28Z</time></trkpt><trkpt lat="42.33562987386077" lon="13.316051050936174"><ele>757.3333333333334</ele><time>2026-05-02T17:39:29Z</time></trkpt><trkpt lat="42.3357030992526" lon="13.31604982388225"><ele>757.5</ele><time>2026-05-02T17:39:30Z</time></trkpt><trkpt lat="42.33577348630261" lon="13.31604970303022"><ele>757.6666666666666</ele><time>2026-05-02T17:39:31Z</time></trkpt><trkpt lat="42.3358464480103" lon="13.316052373781362"><ele>757.8333333333333</ele><time>2026-05-02T17:39:32Z</time></trkpt><trkpt lat="42.33593060692172" lon="13.316048793079059"><ele>758.0</ele><time>2026-05-02T17:39:33Z</time></trkpt><trkpt lat="42.33601894039284" lon="13.316039989253786"><ele>758.0</ele><time>2026-05-02T17:39:34Z</time></trkpt><trkpt lat="42.33611386153044" lon="13.316019127423496"><ele>758.0</ele><time>2026-05-02T17:39:35Z</time></trkpt><trkpt lat="42.33620926227976" lon="13.316005956322025"><ele>758.0</ele><time>2026-05-02T17:39:36Z</time></trkpt><trkpt lat="42.336298457692806" lon="13.315988384341745"><ele>758.0</ele><time>2026-05-02T17:39:37Z</time></trkpt><trkpt lat="42.336371892905916" lon="13.31598523922524"><ele>758.0</ele><time>2026-05-02T17:39:38Z</time></trkpt><trkpt lat="42.33644198910438" lon="13.315984501938745"><ele>758.0</ele><time>2026-05-02T17:39:39Z</time></trkpt><trkpt lat="42.33650915866879" lon="13.315996107923239"><ele>757.8</ele><time>2026-05-02T17:39:40Z</time></trkpt><trkpt lat="42.33663853878077" lon="13.316014430805328"><ele>757.5999999999999</ele><time>2026-05-02T17:39:42Z</time></trkpt><trkpt lat="42.33671541648054" lon="13.316024700538485"><ele>757.4000000000001</ele><time>2026-05-02T17:39:43Z</time></trkpt><trkpt lat="42.33680693175716" lon="13.316032231518543"><ele>757.2</ele><time>2026-05-02T17:39:43.999Z</time></trkpt><trkpt lat="42.3368883595651" lon="13.316030633338164"><ele>757.0</ele><time>2026-05-02T17:39:44.999Z</time></trkpt><trkpt lat="42.33697595585965" lon="13.316036434048147"><ele>757.0</ele><time>2026-05-02T17:39:45.999Z</time></trkpt><trkpt lat="42.337064770278616" lon="13.316026007174493"><ele>757.0</ele><time>2026-05-02T17:39:46.999Z</time></trkpt><trkpt lat="42.33715122785387" lon="13.316016321898333"><ele>757.0</ele><time>2026-05-02T17:39:47.999Z</time></trkpt><trkpt lat="42.33724773372686" lon="13.316003946134764"><ele>757.0</ele><time>2026-05-02T17:39:48.999Z</time></trkpt><trkpt lat="42.33734316537335" lon="13.31597683842469"><ele>757.0</ele><time>2026-05-02T17:39:49.999Z</time></trkpt><trkpt lat="42.33743456198453" lon="13.315959878588316"><ele>757.5</ele><time>2026-05-02T17:39:50.999Z</time></trkpt><trkpt lat="42.33752108130414" lon="13.315949316552311"><ele>758.0</ele><time>2026-05-02T17:39:51.999Z</time></trkpt><trkpt lat="42.337604885158015" lon="13.315931631200135"><ele>758.5</ele><time>2026-05-02T17:39:52.999Z</time></trkpt><trkpt lat="42.337696169698305" lon="13.315905154040696"><ele>759.0</ele><time>2026-05-02T17:39:53.999Z</time></trkpt><trkpt lat="42.33777715590383" lon="13.31588631250729"><ele>759.5</ele><time>2026-05-02T17:39:54.999Z</time></trkpt><trkpt lat="42.33785834683529" lon="13.315861158974242"><ele>760.0</ele><time>2026-05-02T17:39:55.999Z</time></trkpt><trkpt lat="42.337951247545426" lon="13.315842931015935"><ele>760.4</ele><time>2026-05-02T17:39:56.999Z</time></trkpt><trkpt lat="42.33805629250625" lon="13.315821191520458"><ele>760.8</ele><time>2026-05-02T17:39:57.999Z</time></trkpt><trkpt lat="42.33815762643137" lon="13.315786976269385"><ele>761.2</ele><time>2026-05-02T17:39:58.999Z</time></trkpt><trkpt lat="42.33825068706461" lon="13.315759200994728"><ele>761.6</ele><time>2026-05-02T17:39:59.999Z</time></trkpt><trkpt lat="42.33834791022843" lon="13.315743673951784"><ele>762.0</ele><time>2026-05-02T17:40:00.999Z</time></trkpt><trkpt lat="42.338442421200476" lon="13.315734324051453"><ele>762.0</ele><time>2026-05-02T17:40:01.999Z</time></trkpt><trkpt lat="42.338547282423036" lon="13.315725603892382"><ele>762.0</ele><time>2026-05-02T17:40:02.999Z</time></trkpt><trkpt lat="42.33863776270845" lon="13.31571578389258"><ele>762.0</ele><time>2026-05-02T17:40:03.999Z</time></trkpt><trkpt lat="42.33873558442976" lon="13.315713214230168"><ele>762.0</ele><time>2026-05-02T17:40:04.999Z</time></trkpt><trkpt lat="42.33881497772081" lon="13.315713483865222"><ele>762.0</ele><time>2026-05-02T17:40:05.999Z</time></trkpt><trkpt lat="42.33889581648414" lon="13.315716269469442"><ele>761.4000000000001</ele><time>2026-05-02T17:40:06.999Z</time></trkpt><trkpt lat="42.33897012836064" lon="13.315723335759644"><ele>760.8000000000001</ele><time>2026-05-02T17:40:07.999Z</time></trkpt><trkpt lat="42.339088241514126" lon="13.315730388123034"><ele>760.2</ele><time>2026-05-02T17:40:09.999Z</time></trkpt><trkpt lat="42.339208153363" lon="13.315742736086849"><ele>759.6</ele><time>2026-05-02T17:40:11.999Z</time></trkpt><trkpt lat="42.339318181072976" lon="13.315760975178138"><ele>759.0</ele><time>2026-05-02T17:40:13.999Z</time></trkpt><trkpt lat="42.3394208358272" lon="13.315775148886514"><ele>759.0</ele><time>2026-05-02T17:40:15.999Z</time></trkpt><trkpt lat="42.33953894103813" lon="13.31579695299561"><ele>759.0</ele><time>2026-05-02T17:40:17.999Z</time></trkpt><trkpt lat="42.339610976815635" lon="13.315799114902184"><ele>759.0</ele><time>2026-05-02T17:40:18.999Z</time></trkpt><trkpt lat="42.339693200966195" lon="13.315799205156281"><ele>759.0</ele><time>2026-05-02T17:40:19.999Z</time></trkpt><trkpt lat="42.33978247707203" lon="13.315794555008935"><ele>759.0</ele><time>2026-05-02T17:40:20.999Z</time></trkpt><trkpt lat="42.33986718747637" lon="13.315796385672321"><ele>759.0</ele><time>2026-05-02T17:40:21.999Z</time></trkpt><trkpt lat="42.339935502038884" lon="13.315797008877517"><ele>758.2857142857142</ele><time>2026-05-02T17:40:22.999Z</time></trkpt><trkpt lat="42.34001477103923" lon="13.315791727945975"><ele>757.5714285714286</ele><time>2026-05-02T17:40:23.999Z</time></trkpt><trkpt lat="42.3400926227612" lon="13.315796421684704"><ele>756.8571428571429</ele><time>2026-05-02T17:40:24.999Z</time></trkpt><trkpt lat="42.34016914752285" lon="13.315805626932478"><ele>756.1428571428571</ele><time>2026-05-02T17:40:25.999Z</time></trkpt><trkpt lat="42.340235346813046" lon="13.31581281690466"><ele>755.4285714285714</ele><time>2026-05-02T17:40:26.999Z</time></trkpt><trkpt lat="42.34029954807215" lon="13.315815602421203"><ele>754.7142857142857</ele><time>2026-05-02T17:40:27.999Z</time></trkpt><trkpt lat="42.34036861617871" lon="13.315834464118895"><ele>754.0</ele><time>2026-05-02T17:40:28.999Z</time></trkpt><trkpt lat="42.34046704508981" lon="13.315838715796161"><ele>754.0</ele><time>2026-05-02T17:40:29.999Z</time></trkpt><trkpt lat="42.340541103124245" lon="13.315856039203084"><ele>754.0</ele><time>2026-05-02T17:40:30.999Z</time></trkpt><trkpt lat="42.34060637072803" lon="13.315881256710469"><ele>754.0</ele><time>2026-05-02T17:40:31.999Z</time></trkpt><trkpt lat="42.34071346114405" lon="13.315906695844896"><ele>754.0</ele><time>2026-05-02T17:40:33.999Z</time></trkpt><trkpt lat="42.340775643526364" lon="13.315925854716289"><ele>754.0</ele><time>2026-05-02T17:40:34.999Z</time></trkpt><trkpt lat="42.34089242743048" lon="13.315931772871648"><ele>754.0</ele><time>2026-05-02T17:40:36.999Z</time></trkpt><trkpt lat="42.340973719976084" lon="13.315947406334171"><ele>753.5</ele><time>2026-05-02T17:40:37.999Z</time></trkpt><trkpt lat="42.341062157504375" lon="13.315949225205856"><ele>753.0</ele><time>2026-05-02T17:40:38.999Z</time></trkpt><trkpt lat="42.34114084258475" lon="13.315943404037585"><ele>752.5</ele><time>2026-05-02T17:40:39.999Z</time></trkpt><trkpt lat="42.34121307058715" lon="13.315943519841431"><ele>752.0</ele><time>2026-05-02T17:40:40.999Z</time></trkpt><trkpt lat="42.341291083091335" lon="13.315950018586586"><ele>751.5</ele><time>2026-05-02T17:40:41.999Z</time></trkpt><trkpt lat="42.34135912635952" lon="13.315957666298909"><ele>751.0</ele><time>2026-05-02T17:40:42.999Z</time></trkpt><trkpt lat="42.341425120459945" lon="13.315972321901471"><ele>749.4285714285714</ele><time>2026-05-02T17:40:43.999Z</time></trkpt><trkpt lat="42.34149376774037" lon="13.315984454610383"><ele>747.8571428571429</ele><time>2026-05-02T17:40:44.999Z</time></trkpt><trkpt lat="42.34156443352662" lon="13.315982412720798"><ele>746.2857142857142</ele><time>2026-05-02T17:40:45.999Z</time></trkpt><trkpt lat="42.34163824565376" lon="13.315977384880615"><ele>744.7142857142858</ele><time>2026-05-02T17:40:46.999Z</time></trkpt><trkpt lat="42.34171461245971" lon="13.315966494947347"><ele>743.1428571428571</ele><time>2026-05-02T17:40:47.999Z</time></trkpt><trkpt lat="42.34178208040608" lon="13.315961954664155"><ele>741.5714285714286</ele><time>2026-05-02T17:40:48.999Z</time></trkpt><trkpt lat="42.34186066764521" lon="13.315970686631909"><ele>740.0</ele><time>2026-05-02T17:40:49.998Z</time></trkpt><trkpt lat="42.34192556856518" lon="13.315970825319596"><ele>740.0</ele><time>2026-05-02T17:40:50.998Z</time></trkpt><trkpt lat="42.34198875074263" lon="13.31597482610014"><ele>740.0</ele><time>2026-05-02T17:40:51.998Z</time></trkpt><trkpt lat="42.342118521133955" lon="13.31598687354501"><ele>740.0</ele><time>2026-05-02T17:40:53.998Z</time></trkpt><trkpt lat="42.342182867377666" lon="13.316003965489312"><ele>740.0</ele><time>2026-05-02T17:40:54.998Z</time></trkpt><trkpt lat="42.34224898850088" lon="13.316016961677422"><ele>740.0</ele><time>2026-05-02T17:40:55.998Z</time></trkpt><trkpt lat="42.34231520284912" lon="13.316024216037404"><ele>740.0</ele><time>2026-05-02T17:40:56.998Z</time></trkpt><trkpt lat="42.34238389390337" lon="13.316009933642038"><ele>739.5</ele><time>2026-05-02T17:40:57.998Z</time></trkpt><trkpt lat="42.342490889427566" lon="13.315920532961112"><ele>739.0</ele><time>2026-05-02T17:40:59.998Z</time></trkpt><trkpt lat="42.34254230591126" lon="13.31587085733428"><ele>738.5</ele><time>2026-05-02T17:41:00.998Z</time></trkpt><trkpt lat="42.34259300371261" lon="13.315817557247668"><ele>738.0</ele><time>2026-05-02T17:41:01.998Z</time></trkpt><trkpt lat="42.3426417720006" lon="13.31575282738431"><ele>737.5</ele><time>2026-05-02T17:41:02.998Z</time></trkpt><trkpt lat="42.342695779855596" lon="13.315702108907765"><ele>737.0</ele><time>2026-05-02T17:41:03.998Z</time></trkpt><trkpt lat="42.34276555167381" lon="13.315655610789639"><ele>737.0</ele><time>2026-05-02T17:41:04.998Z</time></trkpt><trkpt lat="42.342842193227085" lon="13.315609253801806"><ele>737.0</ele><time>2026-05-02T17:41:05.998Z</time></trkpt><trkpt lat="42.3429063423246" lon="13.315556826540064"><ele>737.0</ele><time>2026-05-02T17:41:06.998Z</time></trkpt><trkpt lat="42.34301973530893" lon="13.315478534595009"><ele>737.0</ele><time>2026-05-02T17:41:08.998Z</time></trkpt><trkpt lat="42.34313460624064" lon="13.31542160448014"><ele>737.0</ele><time>2026-05-02T17:41:10.998Z</time></trkpt><trkpt lat="42.343243893210115" lon="13.315384511309839"><ele>735.4000000000001</ele><time>2026-05-02T17:41:12.998Z</time></trkpt><trkpt lat="42.34333015268897" lon="13.315384010032195"><ele>733.8000000000001</ele><time>2026-05-02T17:41:14.998Z</time></trkpt><trkpt lat="42.34344717162508" lon="13.315428793611044"><ele>732.2</ele><time>2026-05-02T17:41:16.998Z</time></trkpt><trkpt lat="42.34355468970775" lon="13.315458355296835"><ele>730.6</ele><time>2026-05-02T17:41:18.998Z</time></trkpt><trkpt lat="42.343639820123634" lon="13.315480713917703"><ele>729.0</ele><time>2026-05-02T17:41:20.998Z</time></trkpt><trkpt lat="42.343740762723634" lon="13.315512535313275"><ele>729.0</ele><time>2026-05-02T17:41:22.998Z</time></trkpt><trkpt lat="42.343849053795665" lon="13.315532601010915"><ele>729.0</ele><time>2026-05-02T17:41:25Z</time></trkpt><trkpt lat="42.343980371417295" lon="13.315545271799413"><ele>729.0</ele><time>2026-05-02T17:41:27Z</time></trkpt><trkpt lat="42.34405750799917" lon="13.315547398476198"><ele>729.0</ele><time>2026-05-02T17:41:28Z</time></trkpt><trkpt lat="42.34413662938403" lon="13.315541864308722"><ele>729.0</ele><time>2026-05-02T17:41:29Z</time></trkpt><trkpt lat="42.34420991999687" lon="13.315531468573337"><ele>727.8333333333334</ele><time>2026-05-02T17:41:30Z</time></trkpt><trkpt lat="42.34429566214871" lon="13.315525763629923"><ele>726.6666666666666</ele><time>2026-05-02T17:41:31Z</time></trkpt><trkpt lat="42.3443758493633" lon="13.315525612384649"><ele>725.5</ele><time>2026-05-02T17:41:32Z</time></trkpt><trkpt lat="42.34445890002274" lon="13.315527935955211"><ele>724.3333333333333</ele><time>2026-05-02T17:41:33Z</time></trkpt><trkpt lat="42.34452868941012" lon="13.31553232835085"><ele>723.1666666666666</ele><time>2026-05-02T17:41:34Z</time></trkpt><trkpt lat="42.34460671628091" lon="13.315528050335125"><ele>722.0</ele><time>2026-05-02T17:41:35Z</time></trkpt><trkpt lat="42.34467603603367" lon="13.315523553336236"><ele>720.8</ele><time>2026-05-02T17:41:36Z</time></trkpt><trkpt lat="42.344755086564255" lon="13.315518466952527"><ele>719.6</ele><time>2026-05-02T17:41:37Z</time></trkpt><trkpt lat="42.34485127350555" lon="13.3155042556157"><ele>718.4</ele><time>2026-05-02T17:41:38Z</time></trkpt><trkpt lat="42.344954238841" lon="13.315480043539845"><ele>717.1999999999999</ele><time>2026-05-02T17:41:39Z</time></trkpt><trkpt lat="42.345050993349936" lon="13.315444312205443"><ele>716.0</ele><time>2026-05-02T17:41:40Z</time></trkpt><trkpt lat="42.345137279742154" lon="13.315428207355104"><ele>716.0</ele><time>2026-05-02T17:41:41Z</time></trkpt><trkpt lat="42.3452178561306" lon="13.315415335324168"><ele>716.0</ele><time>2026-05-02T17:41:42Z</time></trkpt><trkpt lat="42.345281070101805" lon="13.31540624233582"><ele>716.0</ele><time>2026-05-02T17:41:43Z</time></trkpt><trkpt lat="42.345411638472655" lon="13.315369325533213"><ele>716.0</ele><time>2026-05-02T17:41:45Z</time></trkpt><trkpt lat="42.34548167691808" lon="13.315382699894883"><ele>716.0</ele><time>2026-05-02T17:41:46Z</time></trkpt><trkpt lat="42.34555570774134" lon="13.315419744846746"><ele>716.0</ele><time>2026-05-02T17:41:47Z</time></trkpt><trkpt lat="42.34562961850552" lon="13.31546493354768"><ele>715.5999999999999</ele><time>2026-05-02T17:41:48Z</time></trkpt><trkpt lat="42.3457098148602" lon="13.315514644248143"><ele>715.2</ele><time>2026-05-02T17:41:49Z</time></trkpt><trkpt lat="42.34579671642022" lon="13.315547784977797"><ele>714.8</ele><time>2026-05-02T17:41:49.999Z</time></trkpt><trkpt lat="42.34588154407693" lon="13.3155686728253"><ele>714.4000000000001</ele><time>2026-05-02T17:41:50.999Z</time></trkpt><trkpt lat="42.345972373272744" lon="13.315583902266665"><ele>714.0</ele><time>2026-05-02T17:41:51.999Z</time></trkpt><trkpt lat="42.3460693448831" lon="13.31560178113212"><ele>715.2</ele><time>2026-05-02T17:41:52.999Z</time></trkpt><trkpt lat="42.34618354049939" lon="13.315606909265407"><ele>716.4000000000001</ele><time>2026-05-02T17:41:53.999Z</time></trkpt><trkpt lat="42.346296370662245" lon="13.315622167533691"><ele>717.6</ele><time>2026-05-02T17:41:54.999Z</time></trkpt><trkpt lat="42.346406746216694" lon="13.315645219649026"><ele>718.8</ele><time>2026-05-02T17:41:55.999Z</time></trkpt><trkpt lat="42.3465082584656" lon="13.315668157060953"><ele>720.0</ele><time>2026-05-02T17:41:56.999Z</time></trkpt><trkpt lat="42.346593788604146" lon="13.315718642601018"><ele>720.4</ele><time>2026-05-02T17:41:57.999Z</time></trkpt><trkpt lat="42.346712179515535" lon="13.315697545950666"><ele>720.8</ele><time>2026-05-02T17:41:58.999Z</time></trkpt><trkpt lat="42.34679411788064" lon="13.315729952984501"><ele>721.2</ele><time>2026-05-02T17:41:59.999Z</time></trkpt><trkpt lat="42.346869469989585" lon="13.315767075348797"><ele>721.6</ele><time>2026-05-02T17:42:00.999Z</time></trkpt><trkpt lat="42.346944206725475" lon="13.315834638918195"><ele>722.0</ele><time>2026-05-02T17:42:01.999Z</time></trkpt><trkpt lat="42.34702308982545" lon="13.31592074686122"><ele>722.0</ele><time>2026-05-02T17:42:02.999Z</time></trkpt><trkpt lat="42.34710501984049" lon="13.316011900704101"><ele>722.0</ele><time>2026-05-02T17:42:03.999Z</time></trkpt><trkpt lat="42.34718483613715" lon="13.316104808996924"><ele>722.0</ele><time>2026-05-02T17:42:04.999Z</time></trkpt><trkpt lat="42.34724742623254" lon="13.316180727788627"><ele>722.0</ele><time>2026-05-02T17:42:05.999Z</time></trkpt><trkpt lat="42.34731000731774" lon="13.316260218465267"><ele>722.0</ele><time>2026-05-02T17:42:06.999Z</time></trkpt><trkpt lat="42.34736968648883" lon="13.316336915455594"><ele>721.5</ele><time>2026-05-02T17:42:07.999Z</time></trkpt><trkpt lat="42.3474488671093" lon="13.316410466250517"><ele>721.0</ele><time>2026-05-02T17:42:08.999Z</time></trkpt><trkpt lat="42.34753164809441" lon="13.316459230678477"><ele>720.5</ele><time>2026-05-02T17:42:09.999Z</time></trkpt><trkpt lat="42.34761672902267" lon="13.316486977524832"><ele>720.0</ele><time>2026-05-02T17:42:10.999Z</time></trkpt><trkpt lat="42.34769698890014" lon="13.316490129641938"><ele>719.5</ele><time>2026-05-02T17:42:11.999Z</time></trkpt><trkpt lat="42.34777900629841" lon="13.31649658288297"><ele>719.0</ele><time>2026-05-02T17:42:12.999Z</time></trkpt><trkpt lat="42.3478530355583" lon="13.316518220859226"><ele>719.0</ele><time>2026-05-02T17:42:13.999Z</time></trkpt><trkpt lat="42.34792295365768" lon="13.316560869688441"><ele>719.0</ele><time>2026-05-02T17:42:14.999Z</time></trkpt><trkpt lat="42.347995898925205" lon="13.316622791632428"><ele>719.0</ele><time>2026-05-02T17:42:15.999Z</time></trkpt><trkpt lat="42.348070078871864" lon="13.316687243529262"><ele>719.0</ele><time>2026-05-02T17:42:16.999Z</time></trkpt><trkpt lat="42.34813576173098" lon="13.316748315796298"><ele>719.0</ele><time>2026-05-02T17:42:17.999Z</time></trkpt><trkpt lat="42.34820450502481" lon="13.31680567655613"><ele>719.0</ele><time>2026-05-02T17:42:18.999Z</time></trkpt><trkpt lat="42.348279999746424" lon="13.316854814502722"><ele>718.6666666666666</ele><time>2026-05-02T17:42:19.999Z</time></trkpt><trkpt lat="42.34834796418002" lon="13.316888261103081"><ele>718.3333333333333</ele><time>2026-05-02T17:42:20.999Z</time></trkpt><trkpt lat="42.34842651544017" lon="13.316923768274277"><ele>718.0</ele><time>2026-05-02T17:42:21.999Z</time></trkpt><trkpt lat="42.34850718830023" lon="13.316942120990033"><ele>717.6666666666666</ele><time>2026-05-02T17:42:22.999Z</time></trkpt><trkpt lat="42.34858190446023" lon="13.316926751962074"><ele>717.3333333333334</ele><time>2026-05-02T17:42:23.999Z</time></trkpt><trkpt lat="42.34865226416246" lon="13.316920516617136"><ele>717.0</ele><time>2026-05-02T17:42:24.999Z</time></trkpt><trkpt lat="42.3487803918877" lon="13.316914266735028"><ele>717.0</ele><time>2026-05-02T17:42:26.999Z</time></trkpt><trkpt lat="42.348863483469174" lon="13.316922682329185"><ele>717.0</ele><time>2026-05-02T17:42:28.999Z</time></trkpt><trkpt lat="42.34893145626882" lon="13.316921839009245"><ele>717.0</ele><time>2026-05-02T17:42:31.999Z</time></trkpt><trkpt lat="42.34899861766895" lon="13.31691835223793"><ele>717.0</ele><time>2026-05-02T17:42:35.999Z</time></trkpt><trkpt lat="42.348982984539056" lon="13.316773264484471"><ele>717.0</ele><time>2026-05-02T17:42:38.999Z</time></trkpt><trkpt lat="42.3489760379565" lon="13.31666866825949"><ele>717.0</ele><time>2026-05-02T17:42:40.999Z</time></trkpt><trkpt lat="42.34905885058767" lon="13.316654259726032"><ele>714.0</ele><time>2026-05-02T17:42:42.999Z</time></trkpt><trkpt lat="42.349151908622375" lon="13.316800599026156"><ele>711.0</ele><time>2026-05-02T17:42:44.999Z</time></trkpt><trkpt lat="42.34921996120534" lon="13.31690069364022"><ele>708.0</ele><time>2026-05-02T17:42:45.999Z</time></trkpt><trkpt lat="42.3493067994771" lon="13.316978411413874"><ele>705.0</ele><time>2026-05-02T17:42:46.999Z</time></trkpt><trkpt lat="42.349416561039185" lon="13.317042981627306"><ele>705.0</ele><time>2026-05-02T17:42:47.999Z</time></trkpt><trkpt lat="42.34952816284355" lon="13.317111823203804"><ele>705.0</ele><time>2026-05-02T17:42:48.999Z</time></trkpt><trkpt lat="42.34963320846547" lon="13.317186078335421"><ele>705.0</ele><time>2026-05-02T17:42:49.999Z</time></trkpt><trkpt lat="42.34973178951667" lon="13.317268260494112"><ele>705.0</ele><time>2026-05-02T17:42:50.999Z</time></trkpt><trkpt lat="42.34982866947869" lon="13.317372191978356"><ele>702.75</ele><time>2026-05-02T17:42:51.999Z</time></trkpt><trkpt lat="42.349926882240084" lon="13.317492295774432"><ele>700.5</ele><time>2026-05-02T17:42:52.999Z</time></trkpt><trkpt lat="42.3500282262369" lon="13.317627242393172"><ele>698.25</ele><time>2026-05-02T17:42:53.999Z</time></trkpt><trkpt lat="42.350120251287414" lon="13.317773129764644"><ele>696.0</ele><time>2026-05-02T17:42:54.999Z</time></trkpt><trkpt lat="42.3501810083054" lon="13.317935762367167"><ele>696.0</ele><time>2026-05-02T17:42:55.999Z</time></trkpt><trkpt lat="42.350319935231" lon="13.31805265735516"><ele>696.0</ele><time>2026-05-02T17:42:56.998Z</time></trkpt><trkpt lat="42.35046732566989" lon="13.31816946628959"><ele>696.0</ele><time>2026-05-02T17:42:57.998Z</time></trkpt><trkpt lat="42.35063266884615" lon="13.318277444275957"><ele>693.5</ele><time>2026-05-02T17:42:58.998Z</time></trkpt><trkpt lat="42.35060309368739" lon="13.318449913988541"><ele>691.0</ele><time>2026-05-02T17:42:59.998Z</time></trkpt><trkpt lat="42.35069301618833" lon="13.318577172919701"><ele>688.5</ele><time>2026-05-02T17:43:00.998Z</time></trkpt><trkpt lat="42.3507889373776" lon="13.318706038627694"><ele>686.0</ele><time>2026-05-02T17:43:01.998Z</time></trkpt><trkpt lat="42.350888010542434" lon="13.318829990184796"><ele>685.25</ele><time>2026-05-02T17:43:02.998Z</time></trkpt><trkpt lat="42.35098050266551" lon="13.31895949975033"><ele>684.5</ele><time>2026-05-02T17:43:03.998Z</time></trkpt><trkpt lat="42.351069730706804" lon="13.319095879739331"><ele>683.75</ele><time>2026-05-02T17:43:04.998Z</time></trkpt><trkpt lat="42.351160610403745" lon="13.319223142504278"><ele>683.0</ele><time>2026-05-02T17:43:05.998Z</time></trkpt><trkpt lat="42.35124414530311" lon="13.319346430833995"><ele>683.0</ele><time>2026-05-02T17:43:06.998Z</time></trkpt><trkpt lat="42.35133178981114" lon="13.31946688851792"><ele>683.0</ele><time>2026-05-02T17:43:07.998Z</time></trkpt><trkpt lat="42.35144005200261" lon="13.319579092267073"><ele>683.0</ele><time>2026-05-02T17:43:08.998Z</time></trkpt><trkpt lat="42.35157044432951" lon="13.319685167219626"><ele>683.0</ele><time>2026-05-02T17:43:09.998Z</time></trkpt><trkpt lat="42.351705334308946" lon="13.319788373470352"><ele>683.0</ele><time>2026-05-02T17:43:10.998Z</time></trkpt><trkpt lat="42.35183561741757" lon="13.319880469482143"><ele>683.0</ele><time>2026-05-02T17:43:11.998Z</time></trkpt><trkpt lat="42.35195152782399" lon="13.319974410227704"><ele>683.0</ele><time>2026-05-02T17:43:12.998Z</time></trkpt><trkpt lat="42.352059740408166" lon="13.32007734105171"><ele>683.0</ele><time>2026-05-02T17:43:13.998Z</time></trkpt><trkpt lat="42.352163845074" lon="13.320176691402759"><ele>681.0</ele><time>2026-05-02T17:43:14.998Z</time></trkpt><trkpt lat="42.35226486775598" lon="13.32027340635434"><ele>679.0</ele><time>2026-05-02T17:43:15.998Z</time></trkpt><trkpt lat="42.35235894925009" lon="13.320362220632738"><ele>677.0</ele><time>2026-05-02T17:43:16.998Z</time></trkpt><trkpt lat="42.35244905901687" lon="13.320442637630437"><ele>675.0</ele><time>2026-05-02T17:43:17.998Z</time></trkpt><trkpt lat="42.35253468357418" lon="13.320523534144312"><ele>675.2</ele><time>2026-05-02T17:43:18.998Z</time></trkpt><trkpt lat="42.352616706692196" lon="13.32059399606175"><ele>675.4</ele><time>2026-05-02T17:43:19.998Z</time></trkpt><trkpt lat="42.352689322773" lon="13.32065850277066"><ele>675.5999999999999</ele><time>2026-05-02T17:43:20.998Z</time></trkpt><trkpt lat="42.35275305241612" lon="13.320716004139811"><ele>675.8</ele><time>2026-05-02T17:43:21.998Z</time></trkpt><trkpt lat="42.35283523015681" lon="13.32080817690092"><ele>676.0</ele><time>2026-05-02T17:43:23.998Z</time></trkpt><trkpt lat="42.35288500698837" lon="13.320913724804065"><ele>676.0</ele><time>2026-05-02T17:43:25.998Z</time></trkpt><trkpt lat="42.35288465210802" lon="13.321029990649784"><ele>676.0</ele><time>2026-05-02T17:43:26.998Z</time></trkpt><trkpt lat="42.352869275477794" lon="13.321162174597603"><ele>676.0</ele><time>2026-05-02T17:43:27.998Z</time></trkpt><trkpt lat="42.352858389409576" lon="13.321314425433457"><ele>676.0</ele><time>2026-05-02T17:43:28.998Z</time></trkpt><trkpt lat="42.35286252119188" lon="13.321470740743543"><ele>676.0</ele><time>2026-05-02T17:43:30Z</time></trkpt><trkpt lat="42.35287267489524" lon="13.321641810441644"><ele>674.8</ele><time>2026-05-02T17:43:31Z</time></trkpt><trkpt lat="42.35290046565867" lon="13.321800659964136"><ele>673.5999999999999</ele><time>2026-05-02T17:43:32Z</time></trkpt><trkpt lat="42.35292840724369" lon="13.321938549254087"><ele>672.4</ele><time>2026-05-02T17:43:33Z</time></trkpt><trkpt lat="42.35296768339987" lon="13.322061636750044"><ele>671.2</ele><time>2026-05-02T17:43:34Z</time></trkpt><trkpt lat="42.35301902743394" lon="13.32217960681463"><ele>670.0</ele><time>2026-05-02T17:43:35Z</time></trkpt><trkpt lat="42.35307394159048" lon="13.322297957916847"><ele>669.0</ele><time>2026-05-02T17:43:36Z</time></trkpt><trkpt lat="42.3531206827241" lon="13.322414567082758"><ele>668.0</ele><time>2026-05-02T17:43:37Z</time></trkpt><trkpt lat="42.35315611873483" lon="13.322518298458887"><ele>667.0</ele><time>2026-05-02T17:43:38Z</time></trkpt><trkpt lat="42.35318806945075" lon="13.322613474796606"><ele>666.0</ele><time>2026-05-02T17:43:39Z</time></trkpt><trkpt lat="42.35321375263761" lon="13.322741461351333"><ele>665.0</ele><time>2026-05-02T17:43:41Z</time></trkpt><trkpt lat="42.35323922900537" lon="13.322920750806835"><ele>665.0</ele><time>2026-05-02T17:43:43Z</time></trkpt><trkpt lat="42.35330012099149" lon="13.323022809041959"><ele>665.0</ele><time>2026-05-02T17:43:44Z</time></trkpt><trkpt lat="42.35337730263856" lon="13.323125235380541"><ele>665.0</ele><time>2026-05-02T17:43:45Z</time></trkpt><trkpt lat="42.35344853756994" lon="13.32324586121978"><ele>665.0</ele><time>2026-05-02T17:43:46Z</time></trkpt><trkpt lat="42.353505920557524" lon="13.32337363447357"><ele>665.0</ele><time>2026-05-02T17:43:47Z</time></trkpt><trkpt lat="42.35356157735587" lon="13.323503115011391"><ele>664.4</ele><time>2026-05-02T17:43:48Z</time></trkpt><trkpt lat="42.35361598897276" lon="13.32362944913945"><ele>663.8</ele><time>2026-05-02T17:43:49Z</time></trkpt><trkpt lat="42.353670666456864" lon="13.32375788132167"><ele>663.2</ele><time>2026-05-02T17:43:50Z</time></trkpt><trkpt lat="42.35372640963793" lon="13.323886807481236"><ele>662.6</ele><time>2026-05-02T17:43:51Z</time></trkpt><trkpt lat="42.3537837894838" lon="13.324014405816383"><ele>662.0</ele><time>2026-05-02T17:43:52Z</time></trkpt><trkpt lat="42.353842427964935" lon="13.324140896821339"><ele>661.8</ele><time>2026-05-02T17:43:53Z</time></trkpt><trkpt lat="42.35390212887779" lon="13.324265727337512"><ele>661.6</ele><time>2026-05-02T17:43:54Z</time></trkpt><trkpt lat="42.35396071595751" lon="13.324395210130982"><ele>661.4</ele><time>2026-05-02T17:43:55Z</time></trkpt><trkpt lat="42.35401899548071" lon="13.324522292368677"><ele>661.1999999999999</ele><time>2026-05-02T17:43:56Z</time></trkpt><trkpt lat="42.35407576597402" lon="13.324646706377145"><ele>661.0</ele><time>2026-05-02T17:43:56.999Z</time></trkpt><trkpt lat="42.35413437213285" lon="13.324771847871453"><ele>660.0</ele><time>2026-05-02T17:43:57.999Z</time></trkpt><trkpt lat="42.35419914514245" lon="13.324902203112162"><ele>659.0</ele><time>2026-05-02T17:43:58.999Z</time></trkpt><trkpt lat="42.3542651940312" lon="13.325038359691206"><ele>658.0</ele><time>2026-05-02T17:43:59.999Z</time></trkpt><trkpt lat="42.354332597208355" lon="13.325181813760999"><ele>657.0</ele><time>2026-05-02T17:44:00.999Z</time></trkpt><trkpt lat="42.354407839227946" lon="13.325321902802802"><ele>657.0</ele><time>2026-05-02T17:44:01.999Z</time></trkpt><trkpt lat="42.3544858073815" lon="13.325457242715265"><ele>657.0</ele><time>2026-05-02T17:44:02.999Z</time></trkpt><trkpt lat="42.35456542154623" lon="13.325591353530838"><ele>657.0</ele><time>2026-05-02T17:44:03.999Z</time></trkpt><trkpt lat="42.35464253677724" lon="13.325725487618234"><ele>657.0</ele><time>2026-05-02T17:44:04.999Z</time></trkpt><trkpt lat="42.35471464561693" lon="13.325869839562408"><ele>656.5</ele><time>2026-05-02T17:44:05.999Z</time></trkpt><trkpt lat="42.354784660064475" lon="13.326020573345916"><ele>656.0</ele><time>2026-05-02T17:44:06.999Z</time></trkpt><trkpt lat="42.35485662632825" lon="13.326172656414148"><ele>655.5</ele><time>2026-05-02T17:44:07.999Z</time></trkpt><trkpt lat="42.354931775736716" lon="13.326323718770842"><ele>655.0</ele><time>2026-05-02T17:44:08.999Z</time></trkpt><trkpt lat="42.35501247715712" lon="13.326474168297247"><ele>655.0</ele><time>2026-05-02T17:44:09.999Z</time></trkpt><trkpt lat="42.35509245107785" lon="13.326636032883293"><ele>655.0</ele><time>2026-05-02T17:44:10.999Z</time></trkpt><trkpt lat="42.35514227315793" lon="13.326847318197165"><ele>655.0</ele><time>2026-05-02T17:44:11.999Z</time></trkpt><trkpt lat="42.35526980653936" lon="13.326919216335215"><ele>655.0</ele><time>2026-05-02T17:44:12.999Z</time></trkpt><trkpt lat="42.355372667305836" lon="13.32705947108368"><ele>655.0</ele><time>2026-05-02T17:44:13.999Z</time></trkpt><trkpt lat="42.35546627278076" lon="13.327209538388772"><ele>655.0</ele><time>2026-05-02T17:44:14.999Z</time></trkpt><trkpt lat="42.35555443878044" lon="13.327375382729917"><ele>655.0</ele><time>2026-05-02T17:44:15.999Z</time></trkpt><trkpt lat="42.35563537105509" lon="13.327526949675981"><ele>655.0</ele><time>2026-05-02T17:44:16.999Z</time></trkpt><trkpt lat="42.35571452330398" lon="13.327678300804283"><ele>654.5</ele><time>2026-05-02T17:44:17.999Z</time></trkpt><trkpt lat="42.3557950621592" lon="13.327836115518439"><ele>654.0</ele><time>2026-05-02T17:44:18.999Z</time></trkpt><trkpt lat="42.35587244059231" lon="13.327983048187066"><ele>653.5</ele><time>2026-05-02T17:44:19.999Z</time></trkpt><trkpt lat="42.3559520558649" lon="13.328132530235571"><ele>653.0</ele><time>2026-05-02T17:44:20.999Z</time></trkpt><trkpt lat="42.35602770733651" lon="13.328274353923922"><ele>652.75</ele><time>2026-05-02T17:44:21.999Z</time></trkpt><trkpt lat="42.35609803838452" lon="13.328413222740561"><ele>652.5</ele><time>2026-05-02T17:44:22.999Z</time></trkpt><trkpt lat="42.35616742664421" lon="13.32854847994078"><ele>652.25</ele><time>2026-05-02T17:44:23.999Z</time></trkpt><trkpt lat="42.35622701447141" lon="13.328687145502448"><ele>652.0</ele><time>2026-05-02T17:44:24.999Z</time></trkpt><trkpt lat="42.35626563210124" lon="13.328848060420015"><ele>651.5</ele><time>2026-05-02T17:44:25.999Z</time></trkpt><trkpt lat="42.35627449579195" lon="13.32902717343706"><ele>651.0</ele><time>2026-05-02T17:44:26.999Z</time></trkpt><trkpt lat="42.35625375779225" lon="13.329216445153547"><ele>650.5</ele><time>2026-05-02T17:44:27.999Z</time></trkpt><trkpt lat="42.35621493929134" lon="13.329398844482007"><ele>650.0</ele><time>2026-05-02T17:44:28.999Z</time></trkpt><trkpt lat="42.35617124747421" lon="13.329563066300095"><ele>650.0</ele><time>2026-05-02T17:44:29.999Z</time></trkpt><trkpt lat="42.35613197509863" lon="13.329715481539129"><ele>650.0</ele><time>2026-05-02T17:44:30.999Z</time></trkpt><trkpt lat="42.35609794155901" lon="13.329872838034008"><ele>650.0</ele><time>2026-05-02T17:44:31.999Z</time></trkpt><trkpt lat="42.35606675519923" lon="13.330038260961633"><ele>650.0</ele><time>2026-05-02T17:44:32.999Z</time></trkpt><trkpt lat="42.35602696034437" lon="13.330205286157595"><ele>650.5</ele><time>2026-05-02T17:44:33.999Z</time></trkpt><trkpt lat="42.35599124480722" lon="13.33037177249358"><ele>651.0</ele><time>2026-05-02T17:44:34.999Z</time></trkpt><trkpt lat="42.35595432356704" lon="13.330541556251811"><ele>651.5</ele><time>2026-05-02T17:44:35.999Z</time></trkpt><trkpt lat="42.3559186559963" lon="13.330704220366814"><ele>652.0</ele><time>2026-05-02T17:44:36.999Z</time></trkpt><trkpt lat="42.35588493772925" lon="13.330869589649888"><ele>652.0</ele><time>2026-05-02T17:44:37.999Z</time></trkpt><trkpt lat="42.35586531882033" lon="13.331036434213217"><ele>652.0</ele><time>2026-05-02T17:44:38.999Z</time></trkpt><trkpt lat="42.35585530825422" lon="13.331206644219629"><ele>652.0</ele><time>2026-05-02T17:44:39.999Z</time></trkpt><trkpt lat="42.3558466053204" lon="13.331382892316514"><ele>652.0</ele><time>2026-05-02T17:44:40.999Z</time></trkpt><trkpt lat="42.35583657902912" lon="13.331555576171557"><ele>652.0</ele><time>2026-05-02T17:44:41.999Z</time></trkpt><trkpt lat="42.35582100824256" lon="13.331737886551291"><ele>652.0</ele><time>2026-05-02T17:44:42.999Z</time></trkpt><trkpt lat="42.355810287777295" lon="13.331919688761438"><ele>652.0</ele><time>2026-05-02T17:44:43.999Z</time></trkpt><trkpt lat="42.35579752314803" lon="13.332097896885005"><ele>652.0</ele><time>2026-05-02T17:44:44.999Z</time></trkpt><trkpt lat="42.35578562804204" lon="13.332282585519831"><ele>651.0</ele><time>2026-05-02T17:44:45.999Z</time></trkpt><trkpt lat="42.35577254753307" lon="13.332464591276599"><ele>650.0</ele><time>2026-05-02T17:44:46.999Z</time></trkpt><trkpt lat="42.35575841656829" lon="13.332648419202645"><ele>649.0</ele><time>2026-05-02T17:44:47.999Z</time></trkpt><trkpt lat="42.355746500140945" lon="13.332830512887098"><ele>648.0</ele><time>2026-05-02T17:44:48.999Z</time></trkpt><trkpt lat="42.355737710834624" lon="13.333012494635634"><ele>647.75</ele><time>2026-05-02T17:44:49.999Z</time></trkpt><trkpt lat="42.35572774873611" lon="13.33319082206711"><ele>647.5</ele><time>2026-05-02T17:44:50.999Z</time></trkpt><trkpt lat="42.35571613764456" lon="13.333363282358722"><ele>647.25</ele><time>2026-05-02T17:44:51.999Z</time></trkpt><trkpt lat="42.35571083041969" lon="13.333527228980676"><ele>647.0</ele><time>2026-05-02T17:44:52.999Z</time></trkpt><trkpt lat="42.35569954927145" lon="13.333701742695842"><ele>647.0</ele><time>2026-05-02T17:44:53.999Z</time></trkpt><trkpt lat="42.35569094836295" lon="13.33387420019937"><ele>647.0</ele><time>2026-05-02T17:44:54.999Z</time></trkpt><trkpt lat="42.355675196633925" lon="13.334046414863607"><ele>647.0</ele><time>2026-05-02T17:44:55.999Z</time></trkpt><trkpt lat="42.355668748721875" lon="13.334217752942767"><ele>647.0</ele><time>2026-05-02T17:44:56.999Z</time></trkpt><trkpt lat="42.355658906674705" lon="13.334388073160968"><ele>646.8</ele><time>2026-05-02T17:44:57.999Z</time></trkpt><trkpt lat="42.355663078446646" lon="13.334547915193943"><ele>646.6</ele><time>2026-05-02T17:44:58.999Z</time></trkpt><trkpt lat="42.355683583242566" lon="13.33469198985522"><ele>646.4</ele><time>2026-05-02T17:44:59.999Z</time></trkpt><trkpt lat="42.35571400437229" lon="13.33481136197853"><ele>646.1999999999999</ele><time>2026-05-02T17:45:00.999Z</time></trkpt><trkpt lat="42.35574083794865" lon="13.334909853034913"><ele>646.0</ele><time>2026-05-02T17:45:01.999Z</time></trkpt><trkpt lat="42.355764279238684" lon="13.334998150977482"><ele>645.3333333333334</ele><time>2026-05-02T17:45:02.999Z</time></trkpt><trkpt lat="42.35578195100696" lon="13.335082049766958"><ele>644.6666666666667</ele><time>2026-05-02T17:45:03.998Z</time></trkpt><trkpt lat="42.35581454740544" lon="13.335214785854049"><ele>644.0</ele><time>2026-05-02T17:45:05.998Z</time></trkpt><trkpt lat="42.35585554918033" lon="13.335307897680062"><ele>643.3333333333334</ele><time>2026-05-02T17:45:07.998Z</time></trkpt><trkpt lat="42.355907371994796" lon="13.335365446164486"><ele>642.6666666666666</ele><time>2026-05-02T17:45:11.998Z</time></trkpt><trkpt lat="42.35596354985052" lon="13.335407140943893"><ele>642.0</ele><time>2026-05-02T17:45:14.998Z</time></trkpt><trkpt lat="42.35603139729595" lon="13.335445279833692"><ele>642.0</ele><time>2026-05-02T17:45:16.998Z</time></trkpt><trkpt lat="42.3561046493243" lon="13.335510038204745"><ele>642.0</ele><time>2026-05-02T17:45:18.998Z</time></trkpt><trkpt lat="42.356181293933226" lon="13.33559320302397"><ele>642.0</ele><time>2026-05-02T17:45:20.998Z</time></trkpt><trkpt lat="42.35623479293846" lon="13.335642856955612"><ele>642.0</ele><time>2026-05-02T17:45:21.998Z</time></trkpt><trkpt lat="42.35630215652451" lon="13.335701170019922"><ele>642.0</ele><time>2026-05-02T17:45:22.998Z</time></trkpt><trkpt lat="42.356379341693525" lon="13.33576923464894"><ele>642.0</ele><time>2026-05-02T17:45:23.998Z</time></trkpt><trkpt lat="42.356452322807684" lon="13.335835642539"><ele>641.4285714285713</ele><time>2026-05-02T17:45:24.998Z</time></trkpt><trkpt lat="42.35652209718068" lon="13.33589876398122"><ele>640.8571428571429</ele><time>2026-05-02T17:45:25.998Z</time></trkpt><trkpt lat="42.35659069679639" lon="13.335962888628757"><ele>640.2857142857142</ele><time>2026-05-02T17:45:26.998Z</time></trkpt><trkpt lat="42.35664933448677" lon="13.336023720340721"><ele>639.7142857142857</ele><time>2026-05-02T17:45:27.998Z</time></trkpt><trkpt lat="42.3567051448096" lon="13.336072753852926"><ele>639.1428571428571</ele><time>2026-05-02T17:45:28.998Z</time></trkpt><trkpt lat="42.3567631549101" lon="13.336124958022328"><ele>638.5714285714286</ele><time>2026-05-02T17:45:29.998Z</time></trkpt><trkpt lat="42.35682000622716" lon="13.336179240343526"><ele>638.0</ele><time>2026-05-02T17:45:30.998Z</time></trkpt><trkpt lat="42.35691593301609" lon="13.33626982373637"><ele>638.0</ele><time>2026-05-02T17:45:32.998Z</time></trkpt><trkpt lat="42.35698047501894" lon="13.336340202319155"><ele>638.0</ele><time>2026-05-02T17:45:34.998Z</time></trkpt><trkpt lat="42.35703625843931" lon="13.336436096288406"><ele>638.0</ele><time>2026-05-02T17:45:37Z</time></trkpt><trkpt lat="42.35705301778923" lon="13.336585669420648"><ele>638.0</ele><time>2026-05-02T17:45:39Z</time></trkpt><trkpt lat="42.357043064650114" lon="13.336674116534121"><ele>638.0</ele><time>2026-05-02T17:45:40Z</time></trkpt><trkpt lat="42.35701503968268" lon="13.336792289602165"><ele>638.0</ele><time>2026-05-02T17:45:41Z</time></trkpt><trkpt lat="42.35698980415288" lon="13.336929703494834"><ele>638.5999999999999</ele><time>2026-05-02T17:45:42Z</time></trkpt><trkpt lat="42.35696321941621" lon="13.337067465751995"><ele>639.1999999999999</ele><time>2026-05-02T17:45:43Z</time></trkpt><trkpt lat="42.356937164436815" lon="13.337204181507799"><ele>639.8</ele><time>2026-05-02T17:45:44Z</time></trkpt><trkpt lat="42.356914228619104" lon="13.33735102206575"><ele>640.4</ele><time>2026-05-02T17:45:45Z</time></trkpt><trkpt lat="42.356892238542834" lon="13.33751167484577"><ele>641.0</ele><time>2026-05-02T17:45:46Z</time></trkpt><trkpt lat="42.35686194795557" lon="13.33767640564328"><ele>641.25</ele><time>2026-05-02T17:45:47Z</time></trkpt><trkpt lat="42.35682700679204" lon="13.337843707881424"><ele>641.5</ele><time>2026-05-02T17:45:48Z</time></trkpt><trkpt lat="42.35679594784841" lon="13.338016194694417"><ele>641.75</ele><time>2026-05-02T17:45:49Z</time></trkpt><trkpt lat="42.35675399391046" lon="13.338187186677523"><ele>642.0</ele><time>2026-05-02T17:45:50Z</time></trkpt><trkpt lat="42.3567188832384" lon="13.33837059806663"><ele>642.25</ele><time>2026-05-02T17:45:51Z</time></trkpt><trkpt lat="42.35668564778198" lon="13.338563156173352"><ele>642.5</ele><time>2026-05-02T17:45:52Z</time></trkpt><trkpt lat="42.356643712298464" lon="13.33875194862087"><ele>642.75</ele><time>2026-05-02T17:45:53Z</time></trkpt><trkpt lat="42.35659805558375" lon="13.33894038452019"><ele>643.0</ele><time>2026-05-02T17:45:54Z</time></trkpt><trkpt lat="42.35655927635714" lon="13.339125574188001"><ele>643.0</ele><time>2026-05-02T17:45:55Z</time></trkpt><trkpt lat="42.35651776858636" lon="13.339320473898836"><ele>643.0</ele><time>2026-05-02T17:45:56Z</time></trkpt><trkpt lat="42.35647140279085" lon="13.33951307961503"><ele>643.0</ele><time>2026-05-02T17:45:57Z</time></trkpt><trkpt lat="42.356432487574914" lon="13.33971136555157"><ele>643.25</ele><time>2026-05-02T17:45:58Z</time></trkpt><trkpt lat="42.356407373190166" lon="13.33990450851245"><ele>643.5</ele><time>2026-05-02T17:45:59Z</time></trkpt><trkpt lat="42.35637206976738" lon="13.340105103078077"><ele>643.75</ele><time>2026-05-02T17:46:00Z</time></trkpt><trkpt lat="42.3563237085865" lon="13.34029975644244"><ele>644.0</ele><time>2026-05-02T17:46:01Z</time></trkpt><trkpt lat="42.356287211084336" lon="13.340502660344693"><ele>642.3333333333333</ele><time>2026-05-02T17:46:01.999Z</time></trkpt><trkpt lat="42.35625177242961" lon="13.340707809824899"><ele>640.6666666666666</ele><time>2026-05-02T17:46:02.999Z</time></trkpt><trkpt lat="42.356209603758806" lon="13.340908706400427"><ele>639.0</ele><time>2026-05-02T17:46:03.999Z</time></trkpt><trkpt lat="42.35617200028088" lon="13.341110498977276"><ele>639.0</ele><time>2026-05-02T17:46:04.999Z</time></trkpt><trkpt lat="42.356131478803306" lon="13.341306893385719"><ele>639.0</ele><time>2026-05-02T17:46:05.999Z</time></trkpt><trkpt lat="42.356090628422905" lon="13.341510493948483"><ele>639.0</ele><time>2026-05-02T17:46:06.999Z</time></trkpt><trkpt lat="42.356051879064744" lon="13.341715072307773"><ele>639.0</ele><time>2026-05-02T17:46:07.999Z</time></trkpt><trkpt lat="42.35601507988886" lon="13.341920862182072"><ele>639.0</ele><time>2026-05-02T17:46:08.999Z</time></trkpt><trkpt lat="42.35597755296924" lon="13.342128181774626"><ele>639.0</ele><time>2026-05-02T17:46:09.999Z</time></trkpt><trkpt lat="42.35593734675923" lon="13.342334778609569"><ele>638.3333333333334</ele><time>2026-05-02T17:46:10.999Z</time></trkpt><trkpt lat="42.3558965051243" lon="13.34254035863835"><ele>637.6666666666667</ele><time>2026-05-02T17:46:11.999Z</time></trkpt><trkpt lat="42.35585715223942" lon="13.342737234985353"><ele>637.0</ele><time>2026-05-02T17:46:12.999Z</time></trkpt><trkpt lat="42.35581878446577" lon="13.342930199739275"><ele>637.3333333333334</ele><time>2026-05-02T17:46:13.999Z</time></trkpt><trkpt lat="42.355787207841814" lon="13.34313004018933"><ele>637.6666666666666</ele><time>2026-05-02T17:46:14.999Z</time></trkpt><trkpt lat="42.355762107793" lon="13.343330995322367"><ele>638.0</ele><time>2026-05-02T17:46:15.999Z</time></trkpt><trkpt lat="42.35574587071585" lon="13.343548563202969"><ele>638.0</ele><time>2026-05-02T17:46:16.999Z</time></trkpt><trkpt lat="42.35574790490432" lon="13.34376091154392"><ele>638.0</ele><time>2026-05-02T17:46:17.999Z</time></trkpt><trkpt lat="42.35576492917055" lon="13.34397761067406"><ele>638.0</ele><time>2026-05-02T17:46:18.999Z</time></trkpt><trkpt lat="42.35579721013508" lon="13.344191620507598"><ele>637.0</ele><time>2026-05-02T17:46:19.999Z</time></trkpt><trkpt lat="42.35584002471849" lon="13.344403731722702"><ele>636.0</ele><time>2026-05-02T17:46:20.999Z</time></trkpt><trkpt lat="42.355887888702256" lon="13.344600277779035"><ele>635.0</ele><time>2026-05-02T17:46:21.999Z</time></trkpt><trkpt lat="42.35593679321233" lon="13.344789925868424"><ele>634.25</ele><time>2026-05-02T17:46:22.999Z</time></trkpt><trkpt lat="42.35597676400369" lon="13.344968059225854"><ele>633.5</ele><time>2026-05-02T17:46:23.999Z</time></trkpt><trkpt lat="42.35601806887627" lon="13.345137948775166"><ele>632.75</ele><time>2026-05-02T17:46:24.999Z</time></trkpt><trkpt lat="42.356058164400615" lon="13.34530624630162"><ele>632.0</ele><time>2026-05-02T17:46:25.999Z</time></trkpt><trkpt lat="42.3560995334987" lon="13.345480722642488"><ele>632.0</ele><time>2026-05-02T17:46:26.999Z</time></trkpt><trkpt lat="42.356143257196536" lon="13.345654775822691"><ele>632.0</ele><time>2026-05-02T17:46:27.999Z</time></trkpt><trkpt lat="42.35618336725682" lon="13.345826189854174"><ele>632.0</ele><time>2026-05-02T17:46:28.999Z</time></trkpt><trkpt lat="42.35622305486674" lon="13.346003509225643"><ele>632.0</ele><time>2026-05-02T17:46:29.999Z</time></trkpt><trkpt lat="42.356263770524585" lon="13.346188193133878"><ele>632.0</ele><time>2026-05-02T17:46:30.999Z</time></trkpt><trkpt lat="42.35630583191496" lon="13.346376302782293"><ele>632.0</ele><time>2026-05-02T17:46:31.999Z</time></trkpt><trkpt lat="42.35634572547859" lon="13.34656104748013"><ele>632.0</ele><time>2026-05-02T17:46:32.999Z</time></trkpt><trkpt lat="42.356387423856745" lon="13.346742064413192"><ele>632.0</ele><time>2026-05-02T17:46:33.999Z</time></trkpt><trkpt lat="42.356428759676" lon="13.346924126290014"><ele>633.25</ele><time>2026-05-02T17:46:34.999Z</time></trkpt><trkpt lat="42.35646868507026" lon="13.347094308195903"><ele>634.5</ele><time>2026-05-02T17:46:35.999Z</time></trkpt><trkpt lat="42.35650697103146" lon="13.347261591409879"><ele>635.75</ele><time>2026-05-02T17:46:36.999Z</time></trkpt><trkpt lat="42.3565416075919" lon="13.347426057853014"><ele>637.0</ele><time>2026-05-02T17:46:37.999Z</time></trkpt><trkpt lat="42.356580478192946" lon="13.347595661180247"><ele>637.0</ele><time>2026-05-02T17:46:38.999Z</time></trkpt><trkpt lat="42.356623959256694" lon="13.34776162925581"><ele>637.0</ele><time>2026-05-02T17:46:39.999Z</time></trkpt><trkpt lat="42.35666574408759" lon="13.347926914728179"><ele>637.0</ele><time>2026-05-02T17:46:40.999Z</time></trkpt><trkpt lat="42.35670481730583" lon="13.348080811166081"><ele>637.0</ele><time>2026-05-02T17:46:41.999Z</time></trkpt><trkpt lat="42.35674400597134" lon="13.348228825638612"><ele>636.25</ele><time>2026-05-02T17:46:42.999Z</time></trkpt><trkpt lat="42.35678505929151" lon="13.348373786166235"><ele>635.5</ele><time>2026-05-02T17:46:43.999Z</time></trkpt><trkpt lat="42.356827196429464" lon="13.348526911980109"><ele>634.75</ele><time>2026-05-02T17:46:44.999Z</time></trkpt><trkpt lat="42.35687078501945" lon="13.348684897394653"><ele>634.0</ele><time>2026-05-02T17:46:45.999Z</time></trkpt><trkpt lat="42.356907220810115" lon="13.348830217627665"><ele>633.8333333333334</ele><time>2026-05-02T17:46:46.999Z</time></trkpt><trkpt lat="42.35693828480905" lon="13.348963382637598"><ele>633.6666666666667</ele><time>2026-05-02T17:46:47.999Z</time></trkpt><trkpt lat="42.35695700991684" lon="13.349078655951118"><ele>633.5</ele><time>2026-05-02T17:46:48.999Z</time></trkpt><trkpt lat="42.35697189249653" lon="13.349181697465914"><ele>633.3333333333334</ele><time>2026-05-02T17:46:49.999Z</time></trkpt><trkpt lat="42.35698403430484" lon="13.349269336245072"><ele>633.1666666666666</ele><time>2026-05-02T17:46:50.999Z</time></trkpt><trkpt lat="42.35698965323936" lon="13.349374876195643"><ele>633.0</ele><time>2026-05-02T17:46:52.999Z</time></trkpt><trkpt lat="42.35696623684852" lon="13.349467374550368"><ele>633.0</ele><time>2026-05-02T17:46:58.999Z</time></trkpt><trkpt lat="42.356917612501526" lon="13.349565414384992"><ele>633.0</ele><time>2026-05-02T17:48:34.999Z</time></trkpt><trkpt lat="42.35689704888668" lon="13.34971193645134"><ele>633.0</ele><time>2026-05-02T17:48:36.999Z</time></trkpt><trkpt lat="42.35689329645329" lon="13.34981991743664"><ele>633.0</ele><time>2026-05-02T17:48:37.999Z</time></trkpt><trkpt lat="42.35690564153518" lon="13.349942002539839"><ele>633.0</ele><time>2026-05-02T17:48:38.999Z</time></trkpt><trkpt lat="42.35694065765596" lon="13.350051597986331"><ele>633.1999999999999</ele><time>2026-05-02T17:48:39.999Z</time></trkpt><trkpt lat="42.35699813204533" lon="13.350138109959827"><ele>633.4</ele><time>2026-05-02T17:48:40.999Z</time></trkpt><trkpt lat="42.357077878021954" lon="13.350204954339496"><ele>633.5999999999999</ele><time>2026-05-02T17:48:41.999Z</time></trkpt><trkpt lat="42.35716878010141" lon="13.350247752191452"><ele>633.8</ele><time>2026-05-02T17:48:42.999Z</time></trkpt><trkpt lat="42.357265957084856" lon="13.3502662041763"><ele>634.0</ele><time>2026-05-02T17:48:43.999Z</time></trkpt><trkpt lat="42.357380814643555" lon="13.350289772209665"><ele>634.0</ele><time>2026-05-02T17:48:44.999Z</time></trkpt><trkpt lat="42.35750211076129" lon="13.350330272274082"><ele>634.0</ele><time>2026-05-02T17:48:45.999Z</time></trkpt><trkpt lat="42.357627183884084" lon="13.35037064540362"><ele>634.0</ele><time>2026-05-02T17:48:46.999Z</time></trkpt><trkpt lat="42.35773722943278" lon="13.350491383566977"><ele>634.0</ele><time>2026-05-02T17:48:47.999Z</time></trkpt><trkpt lat="42.35784987263295" lon="13.350619233243938"><ele>633.25</ele><time>2026-05-02T17:48:48.999Z</time></trkpt><trkpt lat="42.35795731431065" lon="13.350764594329895"><ele>632.5</ele><time>2026-05-02T17:48:49.999Z</time></trkpt><trkpt lat="42.358057444631115" lon="13.350918847545227"><ele>631.75</ele><time>2026-05-02T17:48:50.999Z</time></trkpt><trkpt lat="42.35815211639334" lon="13.351066812844092"><ele>631.0</ele><time>2026-05-02T17:48:51.999Z</time></trkpt><trkpt lat="42.35824225859909" lon="13.351213489360221"><ele>630.5</ele><time>2026-05-02T17:48:52.999Z</time></trkpt><trkpt lat="42.35832694855806" lon="13.351361652696735"><ele>630.0</ele><time>2026-05-02T17:48:53.999Z</time></trkpt><trkpt lat="42.358406332869095" lon="13.351510056242374"><ele>629.5</ele><time>2026-05-02T17:48:54.999Z</time></trkpt><trkpt lat="42.358479283091356" lon="13.351655557617065"><ele>629.0</ele><time>2026-05-02T17:48:55.999Z</time></trkpt><trkpt lat="42.358542783540905" lon="13.35179535878509"><ele>628.8</ele><time>2026-05-02T17:48:56.999Z</time></trkpt><trkpt lat="42.35859968110925" lon="13.351913527261164"><ele>628.5999999999999</ele><time>2026-05-02T17:48:57.999Z</time></trkpt><trkpt lat="42.35864994349097" lon="13.352019941499194"><ele>628.4</ele><time>2026-05-02T17:48:58.999Z</time></trkpt><trkpt lat="42.358690939023724" lon="13.352118206242505"><ele>628.1999999999999</ele><time>2026-05-02T17:48:59.999Z</time></trkpt><trkpt lat="42.35870649849182" lon="13.352229612643615"><ele>628.0</ele><time>2026-05-02T17:49:00.999Z</time></trkpt><trkpt lat="42.358703266219145" lon="13.352364436349598"><ele>628.0</ele><time>2026-05-02T17:49:01.999Z</time></trkpt><trkpt lat="42.35870512558466" lon="13.352500378343015"><ele>628.0</ele><time>2026-05-02T17:49:02.999Z</time></trkpt><trkpt lat="42.358729405416014" lon="13.352608983289764"><ele>628.0</ele><time>2026-05-02T17:49:03.999Z</time></trkpt><trkpt lat="42.35877868925116" lon="13.35271403637361"><ele>628.0</ele><time>2026-05-02T17:49:04.999Z</time></trkpt><trkpt lat="42.35883634073972" lon="13.352821125396556"><ele>628.0</ele><time>2026-05-02T17:49:05.999Z</time></trkpt><trkpt lat="42.35889316586921" lon="13.352948230598004"><ele>628.5</ele><time>2026-05-02T17:49:06.999Z</time></trkpt><trkpt lat="42.35894350830925" lon="13.353092398746542"><ele>629.0</ele><time>2026-05-02T17:49:07.999Z</time></trkpt><trkpt lat="42.358990418684414" lon="13.353249197526694"><ele>629.5</ele><time>2026-05-02T17:49:08.999Z</time></trkpt><trkpt lat="42.359040987402814" lon="13.353419488076032"><ele>630.0</ele><time>2026-05-02T17:49:09.999Z</time></trkpt><trkpt lat="42.35908979002609" lon="13.353593310485083"><ele>630.0</ele><time>2026-05-02T17:49:10.999Z</time></trkpt><trkpt lat="42.359139432476546" lon="13.353772940184973"><ele>630.0</ele><time>2026-05-02T17:49:11.999Z</time></trkpt><trkpt lat="42.359195050562114" lon="13.353954079350391"><ele>630.0</ele><time>2026-05-02T17:49:12.999Z</time></trkpt><trkpt lat="42.35924194469231" lon="13.354133414334019"><ele>630.0</ele><time>2026-05-02T17:49:13.999Z</time></trkpt><trkpt lat="42.359295862883656" lon="13.354318037703493"><ele>629.3333333333334</ele><time>2026-05-02T17:49:14.998Z</time></trkpt><trkpt lat="42.35934480829316" lon="13.354503049590585"><ele>628.6666666666667</ele><time>2026-05-02T17:49:15.998Z</time></trkpt><trkpt lat="42.35939804304919" lon="13.354698896299654"><ele>628.0</ele><time>2026-05-02T17:49:16.998Z</time></trkpt><trkpt lat="42.35945208533212" lon="13.35490555021914"><ele>628.0</ele><time>2026-05-02T17:49:17.998Z</time></trkpt><trkpt lat="42.35950711643587" lon="13.355117863230788"><ele>628.0</ele><time>2026-05-02T17:49:18.998Z</time></trkpt><trkpt lat="42.359564221602604" lon="13.355332408427634"><ele>628.0</ele><time>2026-05-02T17:49:19.998Z</time></trkpt><trkpt lat="42.35962228767748" lon="13.355542391670335"><ele>627.3333333333334</ele><time>2026-05-02T17:49:20.998Z</time></trkpt><trkpt lat="42.35968222205409" lon="13.355757153882612"><ele>626.6666666666666</ele><time>2026-05-02T17:49:21.998Z</time></trkpt><trkpt lat="42.35974153009345" lon="13.355979013521425"><ele>626.0</ele><time>2026-05-02T17:49:22.998Z</time></trkpt><trkpt lat="42.35979925206351" lon="13.35619055575918"><ele>626.0</ele><time>2026-05-02T17:49:23.998Z</time></trkpt><trkpt lat="42.35985888979166" lon="13.356410779850936"><ele>626.0</ele><time>2026-05-02T17:49:24.998Z</time></trkpt><trkpt lat="42.35991053338025" lon="13.35663384140254"><ele>626.0</ele><time>2026-05-02T17:49:25.998Z</time></trkpt><trkpt lat="42.359959674097745" lon="13.35685365906893"><ele>626.0</ele><time>2026-05-02T17:49:26.998Z</time></trkpt><trkpt lat="42.36000708360823" lon="13.357084959095603"><ele>626.0</ele><time>2026-05-02T17:49:27.998Z</time></trkpt><trkpt lat="42.36002975447082" lon="13.357317666262613"><ele>626.0</ele><time>2026-05-02T17:49:28.998Z</time></trkpt><trkpt lat="42.360034454581545" lon="13.35754873639942"><ele>626.0</ele><time>2026-05-02T17:49:29.998Z</time></trkpt><trkpt lat="42.360028929413176" lon="13.35776162963635"><ele>626.0</ele><time>2026-05-02T17:49:30.998Z</time></trkpt><trkpt lat="42.36001559508671" lon="13.357974342316664"><ele>626.0</ele><time>2026-05-02T17:49:31.998Z</time></trkpt><trkpt lat="42.35998897811344" lon="13.358184199427996"><ele>626.0</ele><time>2026-05-02T17:49:32.998Z</time></trkpt><trkpt lat="42.35995923687759" lon="13.358392911498058"><ele>626.0</ele><time>2026-05-02T17:49:33.998Z</time></trkpt><trkpt lat="42.359926052034425" lon="13.358609471464602"><ele>626.0</ele><time>2026-05-02T17:49:34.998Z</time></trkpt><trkpt lat="42.35988021410907" lon="13.358805840393487"><ele>625.5</ele><time>2026-05-02T17:49:35.998Z</time></trkpt><trkpt lat="42.35982811785534" lon="13.358989106587353"><ele>625.0</ele><time>2026-05-02T17:49:36.998Z</time></trkpt><trkpt lat="42.359770393541766" lon="13.359166171053793"><ele>624.5</ele><time>2026-05-02T17:49:37.998Z</time></trkpt><trkpt lat="42.35970973596129" lon="13.359346181107757"><ele>624.0</ele><time>2026-05-02T17:49:38.998Z</time></trkpt><trkpt lat="42.3596518090624" lon="13.359520477644805"><ele>624.0</ele><time>2026-05-02T17:49:39.998Z</time></trkpt><trkpt lat="42.35959522245827" lon="13.359696953349163"><ele>624.0</ele><time>2026-05-02T17:49:40.998Z</time></trkpt><trkpt lat="42.359540458279916" lon="13.359874011886173"><ele>624.0</ele><time>2026-05-02T17:49:41.998Z</time></trkpt><trkpt lat="42.359482866026646" lon="13.360059227776954"><ele>624.0</ele><time>2026-05-02T17:49:42.998Z</time></trkpt><trkpt lat="42.35942924795192" lon="13.360258414210941"><ele>625.0</ele><time>2026-05-02T17:49:43.998Z</time></trkpt><trkpt lat="42.359372820713894" lon="13.360451092408454"><ele>626.0</ele><time>2026-05-02T17:49:44.998Z</time></trkpt><trkpt lat="42.3593148175283" lon="13.360650752386007"><ele>627.0</ele><time>2026-05-02T17:49:45.998Z</time></trkpt><trkpt lat="42.35925729768281" lon="13.360856682945336"><ele>627.25</ele><time>2026-05-02T17:49:47Z</time></trkpt><trkpt lat="42.3592037554934" lon="13.3610517967152"><ele>627.5</ele><time>2026-05-02T17:49:48Z</time></trkpt><trkpt lat="42.35915572458587" lon="13.361226873243538"><ele>627.75</ele><time>2026-05-02T17:49:49Z</time></trkpt><trkpt lat="42.35910376837928" lon="13.361392617265754"><ele>628.0</ele><time>2026-05-02T17:49:50Z</time></trkpt><trkpt lat="42.359057243514634" lon="13.361549510137143"><ele>627.75</ele><time>2026-05-02T17:49:51Z</time></trkpt><trkpt lat="42.35900996174488" lon="13.361709148428504"><ele>627.5</ele><time>2026-05-02T17:49:52Z</time></trkpt><trkpt lat="42.35896256024673" lon="13.36187376799958"><ele>627.25</ele><time>2026-05-02T17:49:53Z</time></trkpt><trkpt lat="42.35891552182544" lon="13.362035067813933"><ele>627.0</ele><time>2026-05-02T17:49:54Z</time></trkpt><trkpt lat="42.358862344942125" lon="13.362197969911296"><ele>626.75</ele><time>2026-05-02T17:49:55Z</time></trkpt><trkpt lat="42.358823592283194" lon="13.362369732153946"><ele>626.5</ele><time>2026-05-02T17:49:56Z</time></trkpt><trkpt lat="42.358783681241626" lon="13.362516866667718"><ele>626.25</ele><time>2026-05-02T17:49:57Z</time></trkpt><trkpt lat="42.358732867161365" lon="13.362660636136464"><ele>626.0</ele><time>2026-05-02T17:49:58Z</time></trkpt><trkpt lat="42.35868228167121" lon="13.362814229167508"><ele>626.0</ele><time>2026-05-02T17:49:59Z</time></trkpt><trkpt lat="42.35863768387375" lon="13.362976443539408"><ele>626.0</ele><time>2026-05-02T17:50:00Z</time></trkpt><trkpt lat="42.35858921173478" lon="13.363134143817238"><ele>626.0</ele><time>2026-05-02T17:50:01Z</time></trkpt><trkpt lat="42.35854138039914" lon="13.363295359958915"><ele>626.0</ele><time>2026-05-02T17:50:02Z</time></trkpt><trkpt lat="42.35848932189167" lon="13.363463620525952"><ele>626.5</ele><time>2026-05-02T17:50:03Z</time></trkpt><trkpt lat="42.358438440323475" lon="13.363635468026983"><ele>627.0</ele><time>2026-05-02T17:50:04Z</time></trkpt><trkpt lat="42.35839474028021" lon="13.363802667470784"><ele>627.5</ele><time>2026-05-02T17:50:05Z</time></trkpt><trkpt lat="42.358358177107625" lon="13.36396443713721"><ele>628.0</ele><time>2026-05-02T17:50:06Z</time></trkpt><trkpt lat="42.358321035277754" lon="13.364138025929057"><ele>628.25</ele><time>2026-05-02T17:50:07Z</time></trkpt><trkpt lat="42.35828248597472" lon="13.364306075636502"><ele>628.5</ele><time>2026-05-02T17:50:08Z</time></trkpt><trkpt lat="42.35825296146252" lon="13.36445591467826"><ele>628.75</ele><time>2026-05-02T17:50:09Z</time></trkpt><trkpt lat="42.358229943447206" lon="13.364608144602153"><ele>629.0</ele><time>2026-05-02T17:50:10Z</time></trkpt><trkpt lat="42.35821490533054" lon="13.364750467318835"><ele>629.0</ele><time>2026-05-02T17:50:11Z</time></trkpt><trkpt lat="42.358201133452916" lon="13.364889671672596"><ele>629.0</ele><time>2026-05-02T17:50:12Z</time></trkpt><trkpt lat="42.358191996561104" lon="13.365037609496563"><ele>629.0</ele><time>2026-05-02T17:50:12.999Z</time></trkpt><trkpt lat="42.35818607257153" lon="13.3651845422884"><ele>629.0</ele><time>2026-05-02T17:50:13.999Z</time></trkpt><trkpt lat="42.35817950152098" lon="13.365333834493555"><ele>629.0</ele><time>2026-05-02T17:50:14.999Z</time></trkpt><trkpt lat="42.358182229379146" lon="13.365490106552778"><ele>628.6</ele><time>2026-05-02T17:50:15.999Z</time></trkpt><trkpt lat="42.358193170999215" lon="13.365644943008506"><ele>628.2</ele><time>2026-05-02T17:50:16.999Z</time></trkpt><trkpt lat="42.358217631747515" lon="13.365791732706876"><ele>627.8000000000001</ele><time>2026-05-02T17:50:17.999Z</time></trkpt><trkpt lat="42.3582494266763" lon="13.365932168097638"><ele>627.4</ele><time>2026-05-02T17:50:18.999Z</time></trkpt><trkpt lat="42.358287535071106" lon="13.36606728979384"><ele>627.0</ele><time>2026-05-02T17:50:19.999Z</time></trkpt><trkpt lat="42.35832835291767" lon="13.366200503783308"><ele>627.0</ele><time>2026-05-02T17:50:20.999Z</time></trkpt><trkpt lat="42.3583722277954" lon="13.36633000771554"><ele>627.0</ele><time>2026-05-02T17:50:21.999Z</time></trkpt><trkpt lat="42.35841716426142" lon="13.366455245649163"><ele>627.0</ele><time>2026-05-02T17:50:22.999Z</time></trkpt><trkpt lat="42.35847046375051" lon="13.36658026810065"><ele>627.0</ele><time>2026-05-02T17:50:23.999Z</time></trkpt><trkpt lat="42.35852735947643" lon="13.366696254425896"><ele>627.0</ele><time>2026-05-02T17:50:24.999Z</time></trkpt><trkpt lat="42.358583008972666" lon="13.366813106091797"><ele>627.2</ele><time>2026-05-02T17:50:25.999Z</time></trkpt><trkpt lat="42.358634540260326" lon="13.36692446307676"><ele>627.4000000000001</ele><time>2026-05-02T17:50:26.999Z</time></trkpt><trkpt lat="42.358681219238996" lon="13.367031866326089"><ele>627.5999999999999</ele><time>2026-05-02T17:50:27.999Z</time></trkpt><trkpt lat="42.358728960307516" lon="13.367152016457513"><ele>627.8</ele><time>2026-05-02T17:50:28.999Z</time></trkpt><trkpt lat="42.358774905582436" lon="13.367266215259665"><ele>628.0</ele><time>2026-05-02T17:50:29.999Z</time></trkpt><trkpt lat="42.35881470170471" lon="13.36738089383544"><ele>628.1666666666667</ele><time>2026-05-02T17:50:30.999Z</time></trkpt><trkpt lat="42.35884774689113" lon="13.367477732759614"><ele>628.3333333333334</ele><time>2026-05-02T17:50:31.999Z</time></trkpt><trkpt lat="42.35888055051631" lon="13.367560123368223"><ele>628.5</ele><time>2026-05-02T17:50:32.999Z</time></trkpt><trkpt lat="42.358920125343516" lon="13.367663108997764"><ele>628.6666666666666</ele><time>2026-05-02T17:50:34.999Z</time></trkpt><trkpt lat="42.35895027217134" lon="13.367759703979658"><ele>628.8333333333333</ele><time>2026-05-02T17:50:37.999Z</time></trkpt><trkpt lat="42.35896910598706" lon="13.367862139857992"><ele>629.0</ele><time>2026-05-02T17:50:40.999Z</time></trkpt><trkpt lat="42.358992344246396" lon="13.367999446355963"><ele>629.0</ele><time>2026-05-02T17:50:42.999Z</time></trkpt><trkpt lat="42.35901140703085" lon="13.368081922206937"><ele>629.0</ele><time>2026-05-02T17:50:43.999Z</time></trkpt><trkpt lat="42.35903754681331" lon="13.368177937791144"><ele>629.0</ele><time>2026-05-02T17:50:44.999Z</time></trkpt><trkpt lat="42.35906711497513" lon="13.36828148957886"><ele>629.0</ele><time>2026-05-02T17:50:45.999Z</time></trkpt><trkpt lat="42.35909766638489" lon="13.368404538989308"><ele>629.0</ele><time>2026-05-02T17:50:46.999Z</time></trkpt><trkpt lat="42.35911674718551" lon="13.368532615594471"><ele>629.0</ele><time>2026-05-02T17:50:47.999Z</time></trkpt><trkpt lat="42.35914111228505" lon="13.368671866726626"><ele>629.0</ele><time>2026-05-02T17:50:48.999Z</time></trkpt><trkpt lat="42.35915565995758" lon="13.368818958166147"><ele>629.0</ele><time>2026-05-02T17:50:49.999Z</time></trkpt><trkpt lat="42.35918002389994" lon="13.36896090722816"><ele>629.0</ele><time>2026-05-02T17:50:50.999Z</time></trkpt><trkpt lat="42.35920630941345" lon="13.369103388095093"><ele>629.0</ele><time>2026-05-02T17:50:51.999Z</time></trkpt><trkpt lat="42.359229115800744" lon="13.369242119168394"><ele>629.0</ele><time>2026-05-02T17:50:52.999Z</time></trkpt><trkpt lat="42.35924883475771" lon="13.369385890606253"><ele>629.2</ele><time>2026-05-02T17:50:53.999Z</time></trkpt><trkpt lat="42.359269653337" lon="13.369530627910311"><ele>629.4</ele><time>2026-05-02T17:50:54.999Z</time></trkpt><trkpt lat="42.35929377001755" lon="13.369677608979066"><ele>629.6</ele><time>2026-05-02T17:50:55.999Z</time></trkpt><trkpt lat="42.35931654583653" lon="13.369825526818456"><ele>629.8</ele><time>2026-05-02T17:50:56.999Z</time></trkpt><trkpt lat="42.35933855892461" lon="13.369977986859421"><ele>630.0</ele><time>2026-05-02T17:50:57.999Z</time></trkpt><trkpt lat="42.359360838063274" lon="13.370127376714612"><ele>630.4</ele><time>2026-05-02T17:50:58.999Z</time></trkpt><trkpt lat="42.35938484153835" lon="13.37027608189148"><ele>630.8</ele><time>2026-05-02T17:50:59.999Z</time></trkpt><trkpt lat="42.359407134662284" lon="13.370418502202774"><ele>631.2</ele><time>2026-05-02T17:51:00.999Z</time></trkpt><trkpt lat="42.35942705812748" lon="13.370553319293705"><ele>631.6</ele><time>2026-05-02T17:51:01.999Z</time></trkpt><trkpt lat="42.3594466318706" lon="13.370686883039388"><ele>632.0</ele><time>2026-05-02T17:51:02.999Z</time></trkpt><trkpt lat="42.35946540948644" lon="13.370812898462743"><ele>633.0</ele><time>2026-05-02T17:51:03.999Z</time></trkpt><trkpt lat="42.35947772921316" lon="13.370924820571787"><ele>634.0</ele><time>2026-05-02T17:51:04.999Z</time></trkpt><trkpt lat="42.35949511538255" lon="13.37104066073188"><ele>635.0</ele><time>2026-05-02T17:51:05.999Z</time></trkpt><trkpt lat="42.359512987229536" lon="13.371164246206432"><ele>636.0</ele><time>2026-05-02T17:51:06.999Z</time></trkpt><trkpt lat="42.35953225281515" lon="13.371291725751599"><ele>637.0</ele><time>2026-05-02T17:51:07.999Z</time></trkpt><trkpt lat="42.35955405855536" lon="13.371417310254076"><ele>637.2</ele><time>2026-05-02T17:51:08.999Z</time></trkpt><trkpt lat="42.35957449916429" lon="13.371550040655762"><ele>637.4000000000001</ele><time>2026-05-02T17:51:09.999Z</time></trkpt><trkpt lat="42.35959417647738" lon="13.371680814750256"><ele>637.5999999999999</ele><time>2026-05-02T17:51:10.999Z</time></trkpt><trkpt lat="42.359611765969035" lon="13.37180730830112"><ele>637.8</ele><time>2026-05-02T17:51:11.999Z</time></trkpt><trkpt lat="42.35963170025589" lon="13.371919210053063"><ele>638.0</ele><time>2026-05-02T17:51:12.999Z</time></trkpt><trkpt lat="42.35964923463043" lon="13.372025190479327"><ele>638.0</ele><time>2026-05-02T17:51:13.999Z</time></trkpt><trkpt lat="42.35966345531607" lon="13.372125869561955"><ele>638.0</ele><time>2026-05-02T17:51:14.999Z</time></trkpt><trkpt lat="42.35968069452624" lon="13.372234328656077"><ele>638.0</ele><time>2026-05-02T17:51:15.999Z</time></trkpt><trkpt lat="42.35969392296994" lon="13.372338294735151"><ele>638.0</ele><time>2026-05-02T17:51:16.999Z</time></trkpt><trkpt lat="42.359707947879" lon="13.372435141436485"><ele>638.0</ele><time>2026-05-02T17:51:17.999Z</time></trkpt><trkpt lat="42.35972107888943" lon="13.372543610658008"><ele>638.0</ele><time>2026-05-02T17:51:18.999Z</time></trkpt><trkpt lat="42.35973666284002" lon="13.372637862506918"><ele>638.5999999999999</ele><time>2026-05-02T17:51:19.999Z</time></trkpt><trkpt lat="42.35976103457287" lon="13.37278231206147"><ele>639.1999999999999</ele><time>2026-05-02T17:51:21.998Z</time></trkpt><trkpt lat="42.35977806088397" lon="13.372889035554973"><ele>639.8</ele><time>2026-05-02T17:51:23.998Z</time></trkpt><trkpt lat="42.359798828009374" lon="13.373006780863456"><ele>640.4</ele><time>2026-05-02T17:51:25.998Z</time></trkpt><trkpt lat="42.359824481564985" lon="13.373187469895676"><ele>641.0</ele><time>2026-05-02T17:51:27.998Z</time></trkpt><trkpt lat="42.35983989142893" lon="13.373278999781535"><ele>641.5999999999999</ele><time>2026-05-02T17:51:28.998Z</time></trkpt><trkpt lat="42.35985207599219" lon="13.373364517600798"><ele>642.2</ele><time>2026-05-02T17:51:29.998Z</time></trkpt><trkpt lat="42.35989251489717" lon="13.373520371524807"><ele>642.8</ele><time>2026-05-02T17:51:31.998Z</time></trkpt><trkpt lat="42.35991527788089" lon="13.373624090149633"><ele>643.4000000000001</ele><time>2026-05-02T17:51:32.998Z</time></trkpt><trkpt lat="42.35993395155534" lon="13.37374121140494"><ele>644.0</ele><time>2026-05-02T17:51:33.998Z</time></trkpt><trkpt lat="42.359952860563695" lon="13.373871964779338"><ele>644.2</ele><time>2026-05-02T17:51:34.998Z</time></trkpt><trkpt lat="42.35996957404497" lon="13.374002397738723"><ele>644.4000000000001</ele><time>2026-05-02T17:51:35.998Z</time></trkpt><trkpt lat="42.35998357665455" lon="13.374134001158872"><ele>644.6</ele><time>2026-05-02T17:51:36.998Z</time></trkpt><trkpt lat="42.35999512776528" lon="13.374265866290804"><ele>644.8</ele><time>2026-05-02T17:51:37.998Z</time></trkpt><trkpt lat="42.36001788520463" lon="13.374399823948387"><ele>645.0</ele><time>2026-05-02T17:51:38.998Z</time></trkpt><trkpt lat="42.3600400024184" lon="13.374523552328123"><ele>645.0</ele><time>2026-05-02T17:51:39.998Z</time></trkpt><trkpt lat="42.36005205868746" lon="13.374659096414412"><ele>645.0</ele><time>2026-05-02T17:51:40.998Z</time></trkpt><trkpt lat="42.36007111717652" lon="13.374779684644066"><ele>645.0</ele><time>2026-05-02T17:51:41.998Z</time></trkpt><trkpt lat="42.36008507383476" lon="13.37488982280807"><ele>645.0</ele><time>2026-05-02T17:51:42.998Z</time></trkpt><trkpt lat="42.36009909174289" lon="13.374987394702368"><ele>645.0</ele><time>2026-05-02T17:51:43.998Z</time></trkpt><trkpt lat="42.3601147420061" lon="13.375084091606503"><ele>645.0</ele><time>2026-05-02T17:51:44.998Z</time></trkpt><trkpt lat="42.36012643755595" lon="13.375186741073417"><ele>645.2</ele><time>2026-05-02T17:51:45.998Z</time></trkpt><trkpt lat="42.36013766842876" lon="13.375305622221395"><ele>645.4</ele><time>2026-05-02T17:51:46.998Z</time></trkpt><trkpt lat="42.36014515325719" lon="13.375445833153652"><ele>645.5999999999999</ele><time>2026-05-02T17:51:47.998Z</time></trkpt><trkpt lat="42.36016224792467" lon="13.375592053162814"><ele>645.8</ele><time>2026-05-02T17:51:48.998Z</time></trkpt><trkpt lat="42.36018056405424" lon="13.375713786681747"><ele>646.0</ele><time>2026-05-02T17:51:49.998Z</time></trkpt><trkpt lat="42.360197342515896" lon="13.375808432701232"><ele>646.4</ele><time>2026-05-02T17:51:50.998Z</time></trkpt><trkpt lat="42.36021914838382" lon="13.375959122974065"><ele>646.8</ele><time>2026-05-02T17:51:53Z</time></trkpt><trkpt lat="42.36024526530894" lon="13.376121435339435"><ele>647.1999999999999</ele><time>2026-05-02T17:51:55Z</time></trkpt><trkpt lat="42.3602582540684" lon="13.376229871224085"><ele>647.5999999999999</ele><time>2026-05-02T17:51:56Z</time></trkpt><trkpt lat="42.360273747636796" lon="13.376345827376815"><ele>648.0</ele><time>2026-05-02T17:51:57Z</time></trkpt><trkpt lat="42.36028865893683" lon="13.37647569318556"><ele>648.4</ele><time>2026-05-02T17:51:58Z</time></trkpt><trkpt lat="42.36030257979445" lon="13.37659587995814"><ele>648.8</ele><time>2026-05-02T17:51:59Z</time></trkpt><trkpt lat="42.360316766397055" lon="13.376724368725455"><ele>649.2</ele><time>2026-05-02T17:52:00Z</time></trkpt><trkpt lat="42.3603311774992" lon="13.376850522144604"><ele>649.6</ele><time>2026-05-02T17:52:01Z</time></trkpt><trkpt lat="42.36034371897275" lon="13.37697308997286"><ele>650.0</ele><time>2026-05-02T17:52:02Z</time></trkpt><trkpt lat="42.360354696904196" lon="13.37708447328331"><ele>650.0</ele><time>2026-05-02T17:52:03Z</time></trkpt><trkpt lat="42.360362628604165" lon="13.377178134805218"><ele>650.0</ele><time>2026-05-02T17:52:04Z</time></trkpt><trkpt lat="42.36037151669795" lon="13.377318502449276"><ele>650.0</ele><time>2026-05-02T17:52:06Z</time></trkpt><trkpt lat="42.360375278117736" lon="13.377408485810053"><ele>650.0</ele><time>2026-05-02T17:52:07Z</time></trkpt><trkpt lat="42.36037571102802" lon="13.37750700568179"><ele>650.0</ele><time>2026-05-02T17:52:08Z</time></trkpt><trkpt lat="42.36037679875679" lon="13.377615155060262"><ele>650.0</ele><time>2026-05-02T17:52:09Z</time></trkpt><trkpt lat="42.3603730738566" lon="13.377732332798011"><ele>650.0</ele><time>2026-05-02T17:52:10Z</time></trkpt><trkpt lat="42.36036489523029" lon="13.377858143875164"><ele>650.0</ele><time>2026-05-02T17:52:11Z</time></trkpt><trkpt lat="42.36035801205872" lon="13.377976102669603"><ele>650.0</ele><time>2026-05-02T17:52:12Z</time></trkpt><trkpt lat="42.36034807137379" lon="13.378087946980424"><ele>650.0</ele><time>2026-05-02T17:52:13Z</time></trkpt><trkpt lat="42.36033557309334" lon="13.378194182560579"><ele>650.0</ele><time>2026-05-02T17:52:14Z</time></trkpt><trkpt lat="42.360322480648115" lon="13.378302213057147"><ele>650.0</ele><time>2026-05-02T17:52:14.999Z</time></trkpt><trkpt lat="42.3603058743098" lon="13.378410608141513"><ele>650.1428571428571</ele><time>2026-05-02T17:52:15.999Z</time></trkpt><trkpt lat="42.36028812997112" lon="13.37851984378858"><ele>650.2857142857143</ele><time>2026-05-02T17:52:16.999Z</time></trkpt><trkpt lat="42.36027233952189" lon="13.37861597448481"><ele>650.4285714285714</ele><time>2026-05-02T17:52:17.999Z</time></trkpt><trkpt lat="42.36025289689705" lon="13.378711946810366"><ele>650.5714285714286</ele><time>2026-05-02T17:52:18.999Z</time></trkpt><trkpt lat="42.36023819392166" lon="13.378795202297495"><ele>650.7142857142858</ele><time>2026-05-02T17:52:19.999Z</time></trkpt><trkpt lat="42.36021947747203" lon="13.378877645945025"><ele>650.8571428571429</ele><time>2026-05-02T17:52:20.999Z</time></trkpt><trkpt lat="42.360195095473195" lon="13.378962940071043"><ele>651.0</ele><time>2026-05-02T17:52:21.999Z</time></trkpt><trkpt lat="42.360148580290925" lon="13.379117085499544"><ele>651.1999999999999</ele><time>2026-05-02T17:52:23.999Z</time></trkpt><trkpt lat="42.360113171426164" lon="13.379225921794474"><ele>651.4</ele><time>2026-05-02T17:52:25.999Z</time></trkpt><trkpt lat="42.360078282173035" lon="13.379300902622962"><ele>651.6</ele><time>2026-05-02T17:52:27.999Z</time></trkpt><trkpt lat="42.36003584970798" lon="13.379414687507236"><ele>651.8</ele><time>2026-05-02T17:52:30.999Z</time></trkpt><trkpt lat="42.3599668342594" lon="13.37952400169037"><ele>652.0</ele><time>2026-05-02T17:52:32.999Z</time></trkpt><trkpt lat="42.35987637165024" lon="13.379628941689111"><ele>651.8333333333334</ele><time>2026-05-02T17:52:34.999Z</time></trkpt><trkpt lat="42.359849634059685" lon="13.379710214319275"><ele>651.6666666666667</ele><time>2026-05-02T17:52:35.999Z</time></trkpt><trkpt lat="42.359840650980054" lon="13.379796212565484"><ele>651.5</ele><time>2026-05-02T17:52:36.999Z</time></trkpt><trkpt lat="42.35984233399615" lon="13.379950619481386"><ele>651.3333333333334</ele><time>2026-05-02T17:52:38.999Z</time></trkpt><trkpt lat="42.35983032585255" lon="13.380102338519887"><ele>651.1666666666666</ele><time>2026-05-02T17:52:40.999Z</time></trkpt><trkpt lat="42.359809690938874" lon="13.380184579078238"><ele>651.0</ele><time>2026-05-02T17:52:41.999Z</time></trkpt><trkpt lat="42.35978141720799" lon="13.380272641379976"><ele>651.0</ele><time>2026-05-02T17:52:42.999Z</time></trkpt><trkpt lat="42.35974908661803" lon="13.380362615386057"><ele>651.0</ele><time>2026-05-02T17:52:43.999Z</time></trkpt><trkpt lat="42.35971280211356" lon="13.380453985463117"><ele>651.0</ele><time>2026-05-02T17:52:44.999Z</time></trkpt><trkpt lat="42.359672760754286" lon="13.380545400911089"><ele>651.0</ele><time>2026-05-02T17:52:45.999Z</time></trkpt><trkpt lat="42.35963025050751" lon="13.380638387970006"><ele>651.0</ele><time>2026-05-02T17:52:46.999Z</time></trkpt><trkpt lat="42.359590792222775" lon="13.380725513309509"><ele>651.0</ele><time>2026-05-02T17:52:47.999Z</time></trkpt><trkpt lat="42.35955609064093" lon="13.380802698945885"><ele>650.8</ele><time>2026-05-02T17:52:48.999Z</time></trkpt><trkpt lat="42.359493101758055" lon="13.380940511199515"><ele>650.5999999999999</ele><time>2026-05-02T17:52:50.999Z</time></trkpt><trkpt lat="42.35943498283468" lon="13.381065505678619"><ele>650.4</ele><time>2026-05-02T17:52:52.999Z</time></trkpt><trkpt lat="42.359380969365226" lon="13.381173401834516"><ele>650.2</ele><time>2026-05-02T17:52:54.999Z</time></trkpt><trkpt lat="42.359341665541734" lon="13.381277925980877"><ele>650.0</ele><time>2026-05-02T17:52:56.999Z</time></trkpt><trkpt lat="42.35928298044582" lon="13.38139692880551"><ele>649.8333333333333</ele><time>2026-05-02T17:52:58.999Z</time></trkpt><trkpt lat="42.3592173579638" lon="13.381551048166067"><ele>649.6666666666666</ele><time>2026-05-02T17:53:00.999Z</time></trkpt><trkpt lat="42.359173556046585" lon="13.381642427011583"><ele>649.5</ele><time>2026-05-02T17:53:01.999Z</time></trkpt><trkpt lat="42.35913148265024" lon="13.381737015692295"><ele>649.3333333333334</ele><time>2026-05-02T17:53:02.999Z</time></trkpt><trkpt lat="42.359093669085325" lon="13.38182265525312"><ele>649.1666666666667</ele><time>2026-05-02T17:53:03.999Z</time></trkpt><trkpt lat="42.35905068342441" lon="13.381911803031759"><ele>649.0</ele><time>2026-05-02T17:53:04.999Z</time></trkpt><trkpt lat="42.3590109668612" lon="13.382002170811807"><ele>649.0</ele><time>2026-05-02T17:53:05.999Z</time></trkpt><trkpt lat="42.35896963108809" lon="13.382094632857774"><ele>649.0</ele><time>2026-05-02T17:53:06.999Z</time></trkpt><trkpt lat="42.35892692189729" lon="13.38218658651372"><ele>649.0</ele><time>2026-05-02T17:53:07.999Z</time></trkpt><trkpt lat="42.35888307968648" lon="13.382283741993916"><ele>649.0</ele><time>2026-05-02T17:53:08.999Z</time></trkpt><trkpt lat="42.3588401339486" lon="13.382373889776296"><ele>649.0</ele><time>2026-05-02T17:53:09.999Z</time></trkpt><trkpt lat="42.35879764217993" lon="13.382467384581208"><ele>649.0</ele><time>2026-05-02T17:53:10.999Z</time></trkpt><trkpt lat="42.358759220734456" lon="13.382560307746626"><ele>649.0</ele><time>2026-05-02T17:53:11.999Z</time></trkpt><trkpt lat="42.35872480305761" lon="13.382641089174141"><ele>649.0</ele><time>2026-05-02T17:53:12.999Z</time></trkpt><trkpt lat="42.358685196002035" lon="13.382722644083778"><ele>649.0</ele><time>2026-05-02T17:53:13.999Z</time></trkpt><trkpt lat="42.358642338689876" lon="13.382805238517218"><ele>649.0</ele><time>2026-05-02T17:53:14.999Z</time></trkpt><trkpt lat="42.358597668513156" lon="13.382899902039947"><ele>649.0</ele><time>2026-05-02T17:53:15.999Z</time></trkpt><trkpt lat="42.35855449558263" lon="13.382997576977768"><ele>649.0</ele><time>2026-05-02T17:53:16.999Z</time></trkpt><trkpt lat="42.358509018251745" lon="13.383100485841645"><ele>649.0</ele><time>2026-05-02T17:53:17.999Z</time></trkpt><trkpt lat="42.3584622358182" lon="13.383212039094747"><ele>649.0</ele><time>2026-05-02T17:53:18.999Z</time></trkpt><trkpt lat="42.358410385288984" lon="13.383322773247494"><ele>649.0</ele><time>2026-05-02T17:53:19.999Z</time></trkpt><trkpt lat="42.35835671086614" lon="13.383432768022635"><ele>649.0</ele><time>2026-05-02T17:53:20.999Z</time></trkpt><trkpt lat="42.358309733017116" lon="13.383549111793448"><ele>649.0</ele><time>2026-05-02T17:53:21.999Z</time></trkpt><trkpt lat="42.35825661257691" lon="13.383664019984035"><ele>649.0</ele><time>2026-05-02T17:53:22.999Z</time></trkpt><trkpt lat="42.35820910486384" lon="13.383779307672624"><ele>649.0</ele><time>2026-05-02T17:53:23.999Z</time></trkpt><trkpt lat="42.35815852115874" lon="13.383889708090527"><ele>649.0</ele><time>2026-05-02T17:53:24.999Z</time></trkpt><trkpt lat="42.35811045895829" lon="13.383998800716519"><ele>649.0</ele><time>2026-05-02T17:53:25.998Z</time></trkpt><trkpt lat="42.358065520866674" lon="13.384105245396947"><ele>649.0</ele><time>2026-05-02T17:53:26.998Z</time></trkpt><trkpt lat="42.358022633938624" lon="13.384208891561347"><ele>649.0</ele><time>2026-05-02T17:53:27.998Z</time></trkpt><trkpt lat="42.35797967507804" lon="13.384309501635142"><ele>649.0</ele><time>2026-05-02T17:53:28.998Z</time></trkpt><trkpt lat="42.357942650252454" lon="13.384407733265363"><ele>649.0</ele><time>2026-05-02T17:53:29.998Z</time></trkpt><trkpt lat="42.3579093882747" lon="13.384506509593788"><ele>649.0</ele><time>2026-05-02T17:53:30.998Z</time></trkpt><trkpt lat="42.357877883290875" lon="13.384605108313664"><ele>649.0</ele><time>2026-05-02T17:53:31.998Z</time></trkpt><trkpt lat="42.35784816511591" lon="13.384708401678413"><ele>649.0</ele><time>2026-05-02T17:53:32.998Z</time></trkpt><trkpt lat="42.35782223862861" lon="13.384803344126878"><ele>649.0</ele><time>2026-05-02T17:53:33.998Z</time></trkpt><trkpt lat="42.357797968814374" lon="13.384883960452857"><ele>649.0</ele><time>2026-05-02T17:53:34.998Z</time></trkpt><trkpt lat="42.35775902465983" lon="13.385021060000648"><ele>649.0</ele><time>2026-05-02T17:53:36.998Z</time></trkpt><trkpt lat="42.357698698982446" lon="13.385148792377027"><ele>649.0</ele><time>2026-05-02T17:53:38.998Z</time></trkpt><trkpt lat="42.35765027821128" lon="13.385221195109262"><ele>649.0</ele><time>2026-05-02T17:53:39.998Z</time></trkpt><trkpt lat="42.35759486610415" lon="13.385287688331683"><ele>649.0</ele><time>2026-05-02T17:53:40.998Z</time></trkpt><trkpt lat="42.3575428774964" lon="13.385357097853605"><ele>649.0</ele><time>2026-05-02T17:53:41.998Z</time></trkpt><trkpt lat="42.357502275987166" lon="13.385432158943049"><ele>649.0</ele><time>2026-05-02T17:53:42.998Z</time></trkpt><trkpt lat="42.357441565829625" lon="13.385559862538898"><ele>649.0</ele><time>2026-05-02T17:53:44.998Z</time></trkpt><trkpt lat="42.35736041503263" lon="13.385688784473468"><ele>649.0</ele><time>2026-05-02T17:53:46.998Z</time></trkpt><trkpt lat="42.357313663478564" lon="13.385752258962897"><ele>649.0</ele><time>2026-05-02T17:53:47.998Z</time></trkpt><trkpt lat="42.357260720605915" lon="13.38582272758706"><ele>649.0</ele><time>2026-05-02T17:53:48.998Z</time></trkpt><trkpt lat="42.35720685714832" lon="13.385891517168675"><ele>648.8333333333334</ele><time>2026-05-02T17:53:49.998Z</time></trkpt><trkpt lat="42.357142612814116" lon="13.385964104800443"><ele>648.6666666666667</ele><time>2026-05-02T17:53:50.998Z</time></trkpt><trkpt lat="42.35708101465314" lon="13.386041053735681"><ele>648.5</ele><time>2026-05-02T17:53:51.998Z</time></trkpt><trkpt lat="42.35701578815093" lon="13.386126690865964"><ele>648.3333333333334</ele><time>2026-05-02T17:53:52.998Z</time></trkpt><trkpt lat="42.35694673283083" lon="13.386220060012276"><ele>648.1666666666666</ele><time>2026-05-02T17:53:53.998Z</time></trkpt><trkpt lat="42.35688849443354" lon="13.386312955809638"><ele>648.0</ele><time>2026-05-02T17:53:54.998Z</time></trkpt><trkpt lat="42.35682359845497" lon="13.386411627651194"><ele>648.0</ele><time>2026-05-02T17:53:55.998Z</time></trkpt><trkpt lat="42.35676610864672" lon="13.38650838904128"><ele>648.0</ele><time>2026-05-02T17:53:56.998Z</time></trkpt><trkpt lat="42.35671515911181" lon="13.386604400077188"><ele>648.0</ele><time>2026-05-02T17:53:58Z</time></trkpt><trkpt lat="42.356669723571834" lon="13.38669774482677"><ele>648.0</ele><time>2026-05-02T17:53:59Z</time></trkpt><trkpt lat="42.35662010365277" lon="13.386800161004599"><ele>648.0</ele><time>2026-05-02T17:53:59.999Z</time></trkpt><trkpt lat="42.35656503008036" lon="13.38691982436595"><ele>648.0</ele><time>2026-05-02T17:54:00.999Z</time></trkpt><trkpt lat="42.35650802611403" lon="13.387037415202126"><ele>648.0</ele><time>2026-05-02T17:54:01.999Z</time></trkpt><trkpt lat="42.35645348251179" lon="13.387130310899959"><ele>648.0</ele><time>2026-05-02T17:54:02.999Z</time></trkpt><trkpt lat="42.35640125277482" lon="13.3872233373001"><ele>648.0</ele><time>2026-05-02T17:54:03.999Z</time></trkpt><trkpt lat="42.356356570615446" lon="13.387312357416345"><ele>648.0</ele><time>2026-05-02T17:54:05Z</time></trkpt><trkpt lat="42.35630771306455" lon="13.387404080375093"><ele>648.0</ele><time>2026-05-02T17:54:05.999Z</time></trkpt><trkpt lat="42.3562586427493" lon="13.387492481227014"><ele>647.6666666666666</ele><time>2026-05-02T17:54:06.999Z</time></trkpt><trkpt lat="42.356208981632676" lon="13.387579921938933"><ele>647.3333333333334</ele><time>2026-05-02T17:54:08Z</time></trkpt><trkpt lat="42.35616135606875" lon="13.38765886662379"><ele>647.0</ele><time>2026-05-02T17:54:08.999Z</time></trkpt><trkpt lat="42.35609403332692" lon="13.387787387686673"><ele>646.6666666666667</ele><time>2026-05-02T17:54:11Z</time></trkpt><trkpt lat="42.35604398830789" lon="13.387874266573"><ele>646.3333333333334</ele><time>2026-05-02T17:54:12.999Z</time></trkpt><trkpt lat="42.35599663304528" lon="13.387953194761934"><ele>646.0</ele><time>2026-05-02T17:54:14.999Z</time></trkpt><trkpt lat="42.35594922391319" lon="13.38802430528119"><ele>646.8333333333334</ele><time>2026-05-02T17:54:16.999Z</time></trkpt><trkpt lat="42.35589824828141" lon="13.388090797633142"><ele>647.6666666666667</ele><time>2026-05-02T17:54:18.999Z</time></trkpt><trkpt lat="42.355824022188564" lon="13.388156329720161"><ele>648.5</ele><time>2026-05-02T17:54:21.999Z</time></trkpt><trkpt lat="42.35576499108863" lon="13.38819287978476"><ele>649.3333333333334</ele><time>2026-05-02T17:54:23.999Z</time></trkpt><trkpt lat="42.35567946740529" lon="13.388238116678515"><ele>650.1666666666666</ele><time>2026-05-02T17:54:25.999Z</time></trkpt><trkpt lat="42.35559189715764" lon="13.38826466197526"><ele>651.0</ele><time>2026-05-02T17:54:28.999Z</time></trkpt><trkpt lat="42.35551654952174" lon="13.388324137761408"><ele>651.0</ele><time>2026-05-02T17:54:31.999Z</time></trkpt><trkpt lat="42.35548494544438" lon="13.388405770369632"><ele>651.0</ele><time>2026-05-02T17:54:33.999Z</time></trkpt><trkpt lat="42.355497121826794" lon="13.38853496102194"><ele>651.0</ele><time>2026-05-02T17:54:35.999Z</time></trkpt><trkpt lat="42.35555934567604" lon="13.388665520406953"><ele>651.0</ele><time>2026-05-02T17:54:37.999Z</time></trkpt><trkpt lat="42.355612851437705" lon="13.388714840027427"><ele>651.0</ele><time>2026-05-02T17:54:38.999Z</time></trkpt><trkpt lat="42.35567338749929" lon="13.388777372228363"><ele>651.0</ele><time>2026-05-02T17:54:39.999Z</time></trkpt><trkpt lat="42.35573578979977" lon="13.388867064712102"><ele>652.0</ele><time>2026-05-02T17:54:40.999Z</time></trkpt><trkpt lat="42.35579407162527" lon="13.388954884775623"><ele>653.0</ele><time>2026-05-02T17:54:41.999Z</time></trkpt><trkpt lat="42.35583677193936" lon="13.389021715149262"><ele>654.0</ele><time>2026-05-02T17:54:42.999Z</time></trkpt><trkpt lat="42.35587902945984" lon="13.389096218262871"><ele>655.0</ele><time>2026-05-02T17:54:43.999Z</time></trkpt><trkpt lat="42.355951236504815" lon="13.38919762710562"><ele>656.0</ele><time>2026-05-02T17:54:44.999Z</time></trkpt><trkpt lat="42.35601150165037" lon="13.38930576501058"><ele>657.0</ele><time>2026-05-02T17:54:45.999Z</time></trkpt><trkpt lat="42.35606981690877" lon="13.38941707253098"><ele>657.0</ele><time>2026-05-02T17:54:46.999Z</time></trkpt><trkpt lat="42.35612710334788" lon="13.389527673106596"><ele>657.0</ele><time>2026-05-02T17:54:47.999Z</time></trkpt><trkpt lat="42.35618259167214" lon="13.38963488157"><ele>657.0</ele><time>2026-05-02T17:54:48.999Z</time></trkpt><trkpt lat="42.356239593678005" lon="13.389738088193134"><ele>657.0</ele><time>2026-05-02T17:54:49.999Z</time></trkpt><trkpt lat="42.35629364427259" lon="13.38984488638434"><ele>657.0</ele><time>2026-05-02T17:54:50.999Z</time></trkpt><trkpt lat="42.356344569243596" lon="13.389951759349342"><ele>656.3333333333334</ele><time>2026-05-02T17:54:51.999Z</time></trkpt><trkpt lat="42.35640987502013" lon="13.390043094232016"><ele>655.6666666666666</ele><time>2026-05-02T17:54:52.999Z</time></trkpt><trkpt lat="42.35647502171874" lon="13.390135865644869"><ele>655.0</ele><time>2026-05-02T17:54:53.999Z</time></trkpt><trkpt lat="42.35654347705971" lon="13.390216789778659"><ele>654.3333333333333</ele><time>2026-05-02T17:54:54.999Z</time></trkpt><trkpt lat="42.3566076739272" lon="13.390290003765239"><ele>653.6666666666666</ele><time>2026-05-02T17:54:55.999Z</time></trkpt><trkpt lat="42.35666948210116" lon="13.390366703645762"><ele>653.0</ele><time>2026-05-02T17:54:56.999Z</time></trkpt><trkpt lat="42.3567308325721" lon="13.390421141801074"><ele>653.2</ele><time>2026-05-02T17:54:57.999Z</time></trkpt><trkpt lat="42.3567457706469" lon="13.39052543261236"><ele>653.4</ele><time>2026-05-02T17:54:58.999Z</time></trkpt><trkpt lat="42.356785472801064" lon="13.390654706740465"><ele>653.6</ele><time>2026-05-02T17:55:00.999Z</time></trkpt><trkpt lat="42.35680378954495" lon="13.390824505391093"><ele>653.8000000000001</ele><time>2026-05-02T17:55:02.999Z</time></trkpt><trkpt lat="42.356786654119176" lon="13.390925007504718"><ele>654.0</ele><time>2026-05-02T17:55:03.999Z</time></trkpt><trkpt lat="42.35675201595081" lon="13.391018416184426"><ele>654.0</ele><time>2026-05-02T17:55:04.999Z</time></trkpt><trkpt lat="42.35672452131442" lon="13.391120981114163"><ele>654.0</ele><time>2026-05-02T17:55:05.999Z</time></trkpt><trkpt lat="42.35670617658984" lon="13.391215418707572"><ele>654.0</ele><time>2026-05-02T17:55:06.999Z</time></trkpt><trkpt lat="42.35667749509348" lon="13.391317634546244"><ele>654.0</ele><time>2026-05-02T17:55:07.999Z</time></trkpt><trkpt lat="42.356666215774155" lon="13.391422206528306"><ele>654.0</ele><time>2026-05-02T17:55:08.999Z</time></trkpt><trkpt lat="42.356660580509256" lon="13.391535633524013"><ele>654.0</ele><time>2026-05-02T17:55:09.999Z</time></trkpt><trkpt lat="42.35665636625807" lon="13.391663655633685"><ele>655.0</ele><time>2026-05-02T17:55:10.999Z</time></trkpt><trkpt lat="42.35665081820691" lon="13.391800021695175"><ele>656.0</ele><time>2026-05-02T17:55:11.999Z</time></trkpt><trkpt lat="42.35664415451531" lon="13.391931530937233"><ele>657.0</ele><time>2026-05-02T17:55:12.999Z</time></trkpt><trkpt lat="42.35664609316915" lon="13.39206939138855"><ele>658.0</ele><time>2026-05-02T17:55:13.999Z</time></trkpt><trkpt lat="42.35664406446548" lon="13.3922072512468"><ele>659.0</ele><time>2026-05-02T17:55:14.999Z</time></trkpt><trkpt lat="42.35663757846326" lon="13.392340224728894"><ele>660.2</ele><time>2026-05-02T17:55:15.999Z</time></trkpt><trkpt lat="42.356640092327396" lon="13.392474979467238"><ele>661.4000000000001</ele><time>2026-05-02T17:55:16.999Z</time></trkpt><trkpt lat="42.356643410517854" lon="13.39259162200215"><ele>662.6</ele><time>2026-05-02T17:55:17.999Z</time></trkpt><trkpt lat="42.35663862992454" lon="13.392708707016181"><ele>663.8</ele><time>2026-05-02T17:55:18.999Z</time></trkpt><trkpt lat="42.35663854168923" lon="13.3928300932206"><ele>665.0</ele><time>2026-05-02T17:55:19.999Z</time></trkpt><trkpt lat="42.356636908564965" lon="13.392950987748298"><ele>665.6666666666666</ele><time>2026-05-02T17:55:20.999Z</time></trkpt><trkpt lat="42.35663407282212" lon="13.393077373734918"><ele>666.3333333333333</ele><time>2026-05-02T17:55:21.999Z</time></trkpt><trkpt lat="42.3566318285386" lon="13.39319381059733"><ele>667.0</ele><time>2026-05-02T17:55:22.999Z</time></trkpt><trkpt lat="42.356629852066796" lon="13.393307174583303"><ele>667.6666666666666</ele><time>2026-05-02T17:55:23.999Z</time></trkpt><trkpt lat="42.35660989009189" lon="13.393425278924092"><ele>668.3333333333334</ele><time>2026-05-02T17:55:24.999Z</time></trkpt><trkpt lat="42.35662757874734" lon="13.39354672628977"><ele>669.0</ele><time>2026-05-02T17:55:25.999Z</time></trkpt><trkpt lat="42.35662587381391" lon="13.393663371777038"><ele>669.0</ele><time>2026-05-02T17:55:26.999Z</time></trkpt><trkpt lat="42.35662433437222" lon="13.393766134547702"><ele>669.0</ele><time>2026-05-02T17:55:27.999Z</time></trkpt><trkpt lat="42.356620714942224" lon="13.393874080770052"><ele>669.0</ele><time>2026-05-02T17:55:28.999Z</time></trkpt><trkpt lat="42.35661687203957" lon="13.393987335655805"><ele>669.0</ele><time>2026-05-02T17:55:29.998Z</time></trkpt><trkpt lat="42.35659619350313" lon="13.39409912644053"><ele>669.0</ele><time>2026-05-02T17:55:30.998Z</time></trkpt><trkpt lat="42.356593697832054" lon="13.394216531561842"><ele>669.0</ele><time>2026-05-02T17:55:31.998Z</time></trkpt><trkpt lat="42.356591241097235" lon="13.394332104967173"><ele>670.2</ele><time>2026-05-02T17:55:32.998Z</time></trkpt><trkpt lat="42.35658866964485" lon="13.394453075090478"><ele>671.4000000000001</ele><time>2026-05-02T17:55:33.998Z</time></trkpt><trkpt lat="42.35658601707098" lon="13.394580012598363"><ele>672.6</ele><time>2026-05-02T17:55:34.998Z</time></trkpt><trkpt lat="42.35658339113185" lon="13.394706997280005"><ele>673.8</ele><time>2026-05-02T17:55:35.998Z</time></trkpt><trkpt lat="42.35658088104412" lon="13.394828379652763"><ele>675.0</ele><time>2026-05-02T17:55:36.998Z</time></trkpt><trkpt lat="42.35660217745111" lon="13.394963948339303"><ele>675.2</ele><time>2026-05-02T17:55:37.998Z</time></trkpt><trkpt lat="42.35660222978307" lon="13.395088579570448"><ele>675.4</ele><time>2026-05-02T17:55:38.998Z</time></trkpt><trkpt lat="42.35659830369287" lon="13.395203765415193"><ele>675.5999999999999</ele><time>2026-05-02T17:55:39.998Z</time></trkpt><trkpt lat="42.356595627641276" lon="13.395331086621932"><ele>675.8</ele><time>2026-05-02T17:55:40.998Z</time></trkpt><trkpt lat="42.35656728970685" lon="13.395459541355299"><ele>676.0</ele><time>2026-05-02T17:55:41.998Z</time></trkpt><trkpt lat="42.356564592719494" lon="13.395583057747638"><ele>675.6666666666667</ele><time>2026-05-02T17:55:42.998Z</time></trkpt><trkpt lat="42.3565618877145" lon="13.395703252932313"><ele>675.3333333333334</ele><time>2026-05-02T17:55:43.998Z</time></trkpt><trkpt lat="42.35655915471577" lon="13.395824691956236"><ele>675.0</ele><time>2026-05-02T17:55:44.998Z</time></trkpt><trkpt lat="42.35655599252873" lon="13.395949563974169"><ele>674.6666666666666</ele><time>2026-05-02T17:55:45.998Z</time></trkpt><trkpt lat="42.356553087344885" lon="13.396062787663276"><ele>674.3333333333333</ele><time>2026-05-02T17:55:46.998Z</time></trkpt><trkpt lat="42.35655011994667" lon="13.396178436034011"><ele>674.0</ele><time>2026-05-02T17:55:47.998Z</time></trkpt><trkpt lat="42.35654701152704" lon="13.39629958041073"><ele>675.0</ele><time>2026-05-02T17:55:48.998Z</time></trkpt><trkpt lat="42.35654345803892" lon="13.396431940627359"><ele>676.0</ele><time>2026-05-02T17:55:49.998Z</time></trkpt><trkpt lat="42.35653898746851" lon="13.39657642021312"><ele>677.0</ele><time>2026-05-02T17:55:50.998Z</time></trkpt><trkpt lat="42.35653457997962" lon="13.396724673751692"><ele>678.0</ele><time>2026-05-02T17:55:51.998Z</time></trkpt><trkpt lat="42.35653517762868" lon="13.3968638606053"><ele>679.0</ele><time>2026-05-02T17:55:52.998Z</time></trkpt><trkpt lat="42.356522302608184" lon="13.39698549160869"><ele>679.0</ele><time>2026-05-02T17:55:53.998Z</time></trkpt><trkpt lat="42.356509967555816" lon="13.397100982471892"><ele>679.0</ele><time>2026-05-02T17:55:54.998Z</time></trkpt><trkpt lat="42.35650765902769" lon="13.397238222058924"><ele>679.0</ele><time>2026-05-02T17:55:55.998Z</time></trkpt><trkpt lat="42.35651127500006" lon="13.397383517586626"><ele>679.0</ele><time>2026-05-02T17:55:56.998Z</time></trkpt><trkpt lat="42.35651921347153" lon="13.39752925738661"><ele>679.0</ele><time>2026-05-02T17:55:57.998Z</time></trkpt><trkpt lat="42.356540332355955" lon="13.397680970293914"><ele>680.8000000000001</ele><time>2026-05-02T17:55:58.998Z</time></trkpt><trkpt lat="42.35657737697225" lon="13.397828562414457"><ele>682.6</ele><time>2026-05-02T17:55:59.998Z</time></trkpt><trkpt lat="42.35662735202276" lon="13.397971060158294"><ele>684.4</ele><time>2026-05-02T17:56:00.998Z</time></trkpt><trkpt lat="42.35668383434295" lon="13.398105607332731"><ele>686.2</ele><time>2026-05-02T17:56:01.998Z</time></trkpt><trkpt lat="42.35673499631575" lon="13.398226719802521"><ele>688.0</ele><time>2026-05-02T17:56:02.998Z</time></trkpt><trkpt lat="42.35678741131332" lon="13.3983452935712"><ele>688.2</ele><time>2026-05-02T17:56:03.999Z</time></trkpt><trkpt lat="42.356840113254584" lon="13.3984649225486"><ele>688.4</ele><time>2026-05-02T17:56:04.999Z</time></trkpt><trkpt lat="42.35689361482099" lon="13.39858220592385"><ele>688.6</ele><time>2026-05-02T17:56:05.999Z</time></trkpt><trkpt lat="42.35694375819447" lon="13.398706287243293"><ele>688.8000000000001</ele><time>2026-05-02T17:56:06.999Z</time></trkpt><trkpt lat="42.35696611295288" lon="13.398842415079429"><ele>689.0</ele><time>2026-05-02T17:56:07.999Z</time></trkpt><trkpt lat="42.3569949971835" lon="13.398980274815521"><ele>689.8333333333333</ele><time>2026-05-02T17:56:08.999Z</time></trkpt><trkpt lat="42.35700741811063" lon="13.399115254664508"><ele>690.6666666666666</ele><time>2026-05-02T17:56:09.999Z</time></trkpt><trkpt lat="42.35701317569108" lon="13.399237269024027"><ele>691.5</ele><time>2026-05-02T17:56:10.999Z</time></trkpt><trkpt lat="42.357028720775645" lon="13.399357258873817"><ele>692.3333333333334</ele><time>2026-05-02T17:56:11.999Z</time></trkpt><trkpt lat="42.35702634525654" lon="13.399471465239381"><ele>693.1666666666667</ele><time>2026-05-02T17:56:12.999Z</time></trkpt><trkpt lat="42.35702960359364" lon="13.399572826916936"><ele>694.0</ele><time>2026-05-02T17:56:13.999Z</time></trkpt><trkpt lat="42.357032798122425" lon="13.399660406382292"><ele>695.0</ele><time>2026-05-02T17:56:14.999Z</time></trkpt><trkpt lat="42.35703234886931" lon="13.399746448157561"><ele>696.0</ele><time>2026-05-02T17:56:15.999Z</time></trkpt><trkpt lat="42.35701882108255" lon="13.399837335903861"><ele>697.0</ele><time>2026-05-02T17:56:16.999Z</time></trkpt><trkpt lat="42.357019622297166" lon="13.399929830420703"><ele>698.0</ele><time>2026-05-02T17:56:17.999Z</time></trkpt><trkpt lat="42.35702053444838" lon="13.40003513183186"><ele>699.0</ele><time>2026-05-02T17:56:18.999Z</time></trkpt><trkpt lat="42.357021590121" lon="13.400157001729893"><ele>700.0</ele><time>2026-05-02T17:56:19.999Z</time></trkpt><trkpt lat="42.357022878499585" lon="13.400288671129648"><ele>700.0</ele><time>2026-05-02T17:56:20.999Z</time></trkpt><trkpt lat="42.35702405968184" lon="13.400407192932992"><ele>700.0</ele><time>2026-05-02T17:56:21.999Z</time></trkpt><trkpt lat="42.35702506390897" lon="13.400507958807957"><ele>700.0</ele><time>2026-05-02T17:56:22.999Z</time></trkpt><trkpt lat="42.3570259653635" lon="13.400598412222477"><ele>700.0</ele><time>2026-05-02T17:56:23.999Z</time></trkpt><trkpt lat="42.357026945923465" lon="13.400696803354174"><ele>700.0</ele><time>2026-05-02T17:56:24.999Z</time></trkpt><trkpt lat="42.35702796764411" lon="13.400799324581984"><ele>700.0</ele><time>2026-05-02T17:56:25.999Z</time></trkpt><trkpt lat="42.357029031019366" lon="13.400906025424716"><ele>700.5</ele><time>2026-05-02T17:56:26.999Z</time></trkpt><trkpt lat="42.35704628940592" lon="13.401019989888889"><ele>701.0</ele><time>2026-05-02T17:56:27.999Z</time></trkpt><trkpt lat="42.357047943613374" lon="13.401132665378114"><ele>701.5</ele><time>2026-05-02T17:56:28.999Z</time></trkpt><trkpt lat="42.35704902611318" lon="13.401243214608849"><ele>702.0</ele><time>2026-05-02T17:56:29.999Z</time></trkpt><trkpt lat="42.35704975499953" lon="13.40134723527064"><ele>702.5</ele><time>2026-05-02T17:56:30.999Z</time></trkpt><trkpt lat="42.357047617406465" lon="13.401456644723863"><ele>703.0</ele><time>2026-05-02T17:56:31.999Z</time></trkpt><trkpt lat="42.35705135187414" lon="13.401559234861107"><ele>703.0</ele><time>2026-05-02T17:56:32.999Z</time></trkpt><trkpt lat="42.35705448186317" lon="13.401667586872891"><ele>703.0</ele><time>2026-05-02T17:56:33.999Z</time></trkpt><trkpt lat="42.35703857463874" lon="13.401776371201503"><ele>703.0</ele><time>2026-05-02T17:56:34.999Z</time></trkpt><trkpt lat="42.35703988960763" lon="13.40189369852543"><ele>703.0</ele><time>2026-05-02T17:56:35.999Z</time></trkpt><trkpt lat="42.35704115654285" lon="13.4020145037879"><ele>703.0</ele><time>2026-05-02T17:56:36.999Z</time></trkpt><trkpt lat="42.35705698974384" lon="13.402139770521195"><ele>703.0</ele><time>2026-05-02T17:56:37.999Z</time></trkpt><trkpt lat="42.35706024032524" lon="13.402267335443529"><ele>702.0</ele><time>2026-05-02T17:56:38.999Z</time></trkpt><trkpt lat="42.35706114378928" lon="13.402398633578002"><ele>701.0</ele><time>2026-05-02T17:56:39.999Z</time></trkpt><trkpt lat="42.35706225251908" lon="13.402528837368104"><ele>700.0</ele><time>2026-05-02T17:56:40.999Z</time></trkpt><trkpt lat="42.357059182177984" lon="13.402664288558318"><ele>699.0</ele><time>2026-05-02T17:56:41.999Z</time></trkpt><trkpt lat="42.35707913091519" lon="13.402797455020247"><ele>698.0</ele><time>2026-05-02T17:56:42.999Z</time></trkpt><trkpt lat="42.35711219291922" lon="13.402908024994774"><ele>698.0</ele><time>2026-05-02T17:56:43.999Z</time></trkpt><trkpt lat="42.357150884448856" lon="13.403033703668367"><ele>698.0</ele><time>2026-05-02T17:56:44.999Z</time></trkpt><trkpt lat="42.357179408645415" lon="13.403164029347128"><ele>698.0</ele><time>2026-05-02T17:56:45.999Z</time></trkpt><trkpt lat="42.35723041556359" lon="13.403257905091335"><ele>698.0</ele><time>2026-05-02T17:56:46.999Z</time></trkpt><trkpt lat="42.357279225987604" lon="13.403381243141254"><ele>698.0</ele><time>2026-05-02T17:56:47.999Z</time></trkpt><trkpt lat="42.35732659670881" lon="13.403506109766873"><ele>698.8</ele><time>2026-05-02T17:56:48.999Z</time></trkpt><trkpt lat="42.357376190536165" lon="13.403618085040533"><ele>699.5999999999999</ele><time>2026-05-02T17:56:49.999Z</time></trkpt><trkpt lat="42.357410113289305" lon="13.403750476812839"><ele>700.4000000000001</ele><time>2026-05-02T17:56:50.999Z</time></trkpt><trkpt lat="42.357457091666774" lon="13.403873492839674"><ele>701.2</ele><time>2026-05-02T17:56:51.999Z</time></trkpt><trkpt lat="42.35750337447639" lon="13.403994687477015"><ele>702.0</ele><time>2026-05-02T17:56:52.999Z</time></trkpt><trkpt lat="42.35754885187786" lon="13.40411713985057"><ele>702.0</ele><time>2026-05-02T17:56:53.999Z</time></trkpt><trkpt lat="42.35759241901706" lon="13.40423555489819"><ele>702.0</ele><time>2026-05-02T17:56:54.999Z</time></trkpt><trkpt lat="42.35763958724505" lon="13.404348573159972"><ele>702.0</ele><time>2026-05-02T17:56:55.999Z</time></trkpt><trkpt lat="42.357658628831054" lon="13.404482263240872"><ele>702.0</ele><time>2026-05-02T17:56:56.999Z</time></trkpt><trkpt lat="42.35764916419338" lon="13.404608344117458"><ele>702.0</ele><time>2026-05-02T17:56:57.999Z</time></trkpt><trkpt lat="42.357613486785574" lon="13.404728615091852"><ele>703.2</ele><time>2026-05-02T17:56:58.999Z</time></trkpt><trkpt lat="42.35754607080982" lon="13.40482275919326"><ele>704.4000000000001</ele><time>2026-05-02T17:56:59.999Z</time></trkpt><trkpt lat="42.35745512089991" lon="13.404901560959962"><ele>705.5999999999999</ele><time>2026-05-02T17:57:00.999Z</time></trkpt><trkpt lat="42.3573451183052" lon="13.404924114413577"><ele>706.8</ele><time>2026-05-02T17:57:01.999Z</time></trkpt><trkpt lat="42.357247103198375" lon="13.404935838713195"><ele>708.0</ele><time>2026-05-02T17:57:02.999Z</time></trkpt><trkpt lat="42.35712356817572" lon="13.404952329537199"><ele>708.0</ele><time>2026-05-02T17:57:03.999Z</time></trkpt><trkpt lat="42.35701191339202" lon="13.404969823665317"><ele>708.0</ele><time>2026-05-02T17:57:04.999Z</time></trkpt><trkpt lat="42.35690880755508" lon="13.405011105275927"><ele>708.0</ele><time>2026-05-02T17:57:05.999Z</time></trkpt><trkpt lat="42.35680977638509" lon="13.40502920500527"><ele>708.0</ele><time>2026-05-02T17:57:06.999Z</time></trkpt><trkpt lat="42.35671407773241" lon="13.405065103103077"><ele>708.0</ele><time>2026-05-02T17:57:07.999Z</time></trkpt><trkpt lat="42.35662418934592" lon="13.405116107357225"><ele>708.0</ele><time>2026-05-02T17:57:08.999Z</time></trkpt><trkpt lat="42.35654982382265" lon="13.40518713973676"><ele>708.0</ele><time>2026-05-02T17:57:09.999Z</time></trkpt><trkpt lat="42.35648089515456" lon="13.405252539245998"><ele>708.0</ele><time>2026-05-02T17:57:10.999Z</time></trkpt><trkpt lat="42.356419685119775" lon="13.405310106258293"><ele>708.0</ele><time>2026-05-02T17:57:11.999Z</time></trkpt><trkpt lat="42.35636143830827" lon="13.405361197519605"><ele>708.0</ele><time>2026-05-02T17:57:12.999Z</time></trkpt><trkpt lat="42.35627523536964" lon="13.405439273222319"><ele>708.0</ele><time>2026-05-02T17:57:14.999Z</time></trkpt><trkpt lat="42.35619658113669" lon="13.405504851603949"><ele>708.5</ele><time>2026-05-02T17:57:16.999Z</time></trkpt><trkpt lat="42.35613295701334" lon="13.405540124815433"><ele>709.0</ele><time>2026-05-02T17:57:18.999Z</time></trkpt><trkpt lat="42.35605312954087" lon="13.405574700989089"><ele>709.5</ele><time>2026-05-02T17:57:22.999Z</time></trkpt><trkpt lat="42.355992470142745" lon="13.405620525190784"><ele>710.0</ele><time>2026-05-02T17:57:25.999Z</time></trkpt><trkpt lat="42.355888553573614" lon="13.405703406958336"><ele>710.5</ele><time>2026-05-02T17:57:27.999Z</time></trkpt><trkpt lat="42.35582311694955" lon="13.405676837052585"><ele>711.0</ele><time>2026-05-02T17:57:28.999Z</time></trkpt><trkpt lat="42.35574289554406" lon="13.405415499067749"><ele>711.0</ele><time>2026-05-02T17:57:30.999Z</time></trkpt><trkpt lat="42.355706665776964" lon="13.405278987617676"><ele>711.0</ele><time>2026-05-02T17:57:31.999Z</time></trkpt><trkpt lat="42.35567871375146" lon="13.405145698506312"><ele>711.0</ele><time>2026-05-02T17:57:32.999Z</time></trkpt><trkpt lat="42.355651313486455" lon="13.40503318434558"><ele>711.0</ele><time>2026-05-02T17:57:33.999Z</time></trkpt><trkpt lat="42.3556212753636" lon="13.404917769286532"><ele>711.0</ele><time>2026-05-02T17:57:34.999Z</time></trkpt><trkpt lat="42.35559819379931" lon="13.404799449241397"><ele>711.0</ele><time>2026-05-02T17:57:35.999Z</time></trkpt><trkpt lat="42.355573542009225" lon="13.404680636211728"><ele>711.0</ele><time>2026-05-02T17:57:36.998Z</time></trkpt><trkpt lat="42.35554797217701" lon="13.404574444614264"><ele>711.0</ele><time>2026-05-02T17:57:37.998Z</time></trkpt><trkpt lat="42.35552874609194" lon="13.404483517401976"><ele>711.0</ele><time>2026-05-02T17:57:38.998Z</time></trkpt><trkpt lat="42.35550775046048" lon="13.404400061471458"><ele>711.0</ele><time>2026-05-02T17:57:39.998Z</time></trkpt><trkpt lat="42.35549271104402" lon="13.404314467530556"><ele>711.0</ele><time>2026-05-02T17:57:40.998Z</time></trkpt><trkpt lat="42.35546920860549" lon="13.404231315332588"><ele>711.0</ele><time>2026-05-02T17:57:41.998Z</time></trkpt><trkpt lat="42.35544705511715" lon="13.404146695502272"><ele>712.7142857142858</ele><time>2026-05-02T17:57:42.998Z</time></trkpt><trkpt lat="42.355433590771135" lon="13.404060346843323"><ele>714.4285714285714</ele><time>2026-05-02T17:57:43.998Z</time></trkpt><trkpt lat="42.35541629999637" lon="13.403972942182152"><ele>716.1428571428571</ele><time>2026-05-02T17:57:44.998Z</time></trkpt><trkpt lat="42.35539502627287" lon="13.403888079371018"><ele>717.8571428571429</ele><time>2026-05-02T17:57:45.998Z</time></trkpt><trkpt lat="42.355375463311915" lon="13.403795683349593"><ele>719.5714285714286</ele><time>2026-05-02T17:57:46.998Z</time></trkpt><trkpt lat="42.35534820037193" lon="13.40369442103209"><ele>721.2857142857143</ele><time>2026-05-02T17:57:47.998Z</time></trkpt><trkpt lat="42.355327424260096" lon="13.40360847362291"><ele>723.0</ele><time>2026-05-02T17:57:48.998Z</time></trkpt><trkpt lat="42.35530824374663" lon="13.403519718161851"><ele>723.0</ele><time>2026-05-02T17:57:49.998Z</time></trkpt><trkpt lat="42.35528507808266" lon="13.403434191952128"><ele>723.0</ele><time>2026-05-02T17:57:50.998Z</time></trkpt><trkpt lat="42.35525952271788" lon="13.403354701046059"><ele>723.0</ele><time>2026-05-02T17:57:51.998Z</time></trkpt><trkpt lat="42.3552053702383" lon="13.403222595687511"><ele>723.0</ele><time>2026-05-02T17:57:53.998Z</time></trkpt><trkpt lat="42.355161603776644" lon="13.40312991944444"><ele>723.0</ele><time>2026-05-02T17:57:55.998Z</time></trkpt><trkpt lat="42.35512190999255" lon="13.403044937812837"><ele>723.0</ele><time>2026-05-02T17:57:57.998Z</time></trkpt><trkpt lat="42.355080144147344" lon="13.402970013671538"><ele>721.5999999999999</ele><time>2026-05-02T17:57:59.998Z</time></trkpt><trkpt lat="42.355021366552414" lon="13.40288806531046"><ele>720.1999999999999</ele><time>2026-05-02T17:58:01.998Z</time></trkpt><trkpt lat="42.35493770862364" lon="13.402782405124883"><ele>718.8</ele><time>2026-05-02T17:58:03.998Z</time></trkpt><trkpt lat="42.35485373780159" lon="13.4026711337286"><ele>717.4</ele><time>2026-05-02T17:58:05.998Z</time></trkpt><trkpt lat="42.35477705862055" lon="13.402586215062778"><ele>716.0</ele><time>2026-05-02T17:58:07.998Z</time></trkpt><trkpt lat="42.3547267252374" lon="13.402525844698554"><ele>718.0</ele><time>2026-05-02T17:58:09.999Z</time></trkpt><trkpt lat="42.35467110838816" lon="13.402448785631911"><ele>720.0</ele><time>2026-05-02T17:58:12.999Z</time></trkpt><trkpt lat="42.35461138655681" lon="13.402386573955756"><ele>722.0</ele><time>2026-05-02T17:58:15.999Z</time></trkpt><trkpt lat="42.35454622712897" lon="13.40231167852956"><ele>724.0</ele><time>2026-05-02T17:58:17.999Z</time></trkpt><trkpt lat="42.35448580908146" lon="13.402234568268893"><ele>726.0</ele><time>2026-05-02T17:58:20.999Z</time></trkpt><trkpt lat="42.35440451283098" lon="13.402140050455774"><ele>728.0</ele><time>2026-05-02T17:58:22.999Z</time></trkpt><trkpt lat="42.354337384182344" lon="13.402025818331282"><ele>728.0</ele><time>2026-05-02T17:58:24.999Z</time></trkpt><trkpt lat="42.354300787498566" lon="13.401923111093812"><ele>728.0</ele><time>2026-05-02T17:58:26.999Z</time></trkpt><trkpt lat="42.35429788424951" lon="13.40183265178975"><ele>728.0</ele><time>2026-05-02T17:58:28.999Z</time></trkpt><trkpt lat="42.354305146457094" lon="13.40172344106358"><ele>728.0</ele><time>2026-05-02T17:58:30.999Z</time></trkpt><trkpt lat="42.354316866719884" lon="13.401608828206905"><ele>728.0</ele><time>2026-05-02T17:58:32.999Z</time></trkpt><trkpt lat="42.35432327204358" lon="13.401482474791187"><ele>728.0</ele><time>2026-05-02T17:58:34.999Z</time></trkpt><trkpt lat="42.35425924746178" lon="13.401380439654787"><ele>728.0</ele><time>2026-05-02T17:58:36.999Z</time></trkpt><trkpt lat="42.354147937585694" lon="13.401372078210663"><ele>728.0</ele><time>2026-05-02T17:58:38.999Z</time></trkpt><trkpt lat="42.35407403283885" lon="13.401347479166667"><ele>728.0</ele><time>2026-05-02T17:58:40.999Z</time></trkpt><trkpt lat="42.35400598963973" lon="13.40129509312242"><ele>728.0</ele><time>2026-05-02T17:58:42.999Z</time></trkpt><trkpt lat="42.35392331736572" lon="13.401235835446343"><ele>728.0</ele><time>2026-05-02T17:58:48.999Z</time></trkpt><trkpt lat="42.35384448376048" lon="13.401182824817454"><ele>728.0</ele><time>2026-05-02T17:58:51.999Z</time></trkpt><trkpt lat="42.353771933279404" lon="13.401199688951085"><ele>728.0</ele><time>2026-05-02T17:58:55.999Z</time></trkpt><trkpt lat="42.353718606891775" lon="13.401273471410162"><ele>728.0</ele><time>2026-05-02T17:58:58.999Z</time></trkpt><trkpt lat="42.353687801089166" lon="13.401373241828635"><ele>728.0</ele><time>2026-05-02T17:59:00.999Z</time></trkpt><trkpt lat="42.353698378241276" lon="13.401477553467517"><ele>728.0</ele><time>2026-05-02T17:59:02.999Z</time></trkpt><trkpt lat="42.3538760467367" lon="13.401565788254665"><ele>728.0</ele><time>2026-05-02T17:59:13.999Z</time></trkpt><trkpt lat="42.35395624779002" lon="13.401634511882172"><ele>728.0</ele><time>2026-05-02T17:59:15.999Z</time></trkpt><trkpt lat="42.353962235506636" lon="13.401729957844585"><ele>728.0</ele><time>2026-05-02T17:59:17.999Z</time></trkpt><trkpt lat="42.35398890289933" lon="13.401847677177926"><ele>728.0</ele><time>2026-05-02T17:59:20.999Z</time></trkpt><trkpt lat="42.354125649709616" lon="13.402081729954016"><ele>728.0</ele><time>2026-05-02T17:59:22.999Z</time></trkpt><trkpt lat="42.354180237208936" lon="13.402132905815511"><ele>728.0</ele><time>2026-05-02T17:59:24.999Z</time></trkpt></trkseg></trk></gpx>